<?xml version="1.0" encoding="UTF-8" standalone="no" ?>
<gpx xmlns="http://www.topografix.com/GPX/1/1" xmlns:xsi="http://www.w3.org/2001/XMLSchema-instance" xsi:schemaLocation="http://www.topografix.com/GPX/1/1 http://www.topografix.com/GPX/1/1/gpx.xsd" version="1.1" creator="VisuGPX - https://www.visugpx.com">
  <metadata>
    <name>lundi 2015 05</name>
    <desc><![CDATA[cumul mai 2015]]></desc>
  </metadata>
  <trk>
    <name><![CDATA[85 Quai de la Mégisserie]]></name>
    <extensions>
      <line xmlns="http://www.topografix.com/GPX/gpx_style/0/2">
        <color>000000</color>
      </line>
    </extensions>
    <trkseg>
      <trkpt lat="48.85738" lon="2.347">
        <ele>86.5</ele>
        <time>2015-05-05T18:20:32.879Z</time>
      </trkpt>
      <trkpt lat="48.85731" lon="2.34704">
        <ele>85.5</ele>
        <time>2015-05-05T18:20:43.152Z</time>
      </trkpt>
      <trkpt lat="48.85729" lon="2.34705">
        <ele>85.2</ele>
        <time>2015-05-05T18:20:44.188Z</time>
      </trkpt>
      <trkpt lat="48.85722" lon="2.34707">
        <ele>84.8</ele>
        <time>2015-05-05T18:21:05.153Z</time>
      </trkpt>
      <trkpt lat="48.85722" lon="2.34707">
        <ele>84.8</ele>
        <time>2015-05-05T18:21:06.163Z</time>
      </trkpt>
      <trkpt lat="48.85722" lon="2.34708">
        <ele>84.8</ele>
        <time>2015-05-05T18:21:12.254Z</time>
      </trkpt>
      <trkpt lat="48.8572" lon="2.34711">
        <ele>84.9</ele>
        <time>2015-05-05T18:21:13.202Z</time>
      </trkpt>
      <trkpt lat="48.85717" lon="2.34722">
        <ele>86.2</ele>
        <time>2015-05-05T18:21:17.196Z</time>
      </trkpt>
      <trkpt lat="48.85716" lon="2.34728">
        <ele>86.5</ele>
        <time>2015-05-05T18:21:18.243Z</time>
      </trkpt>
      <trkpt lat="48.85716" lon="2.34738">
        <ele>87</ele>
        <time>2015-05-05T18:21:20.154Z</time>
      </trkpt>
      <trkpt lat="48.85714" lon="2.34745">
        <ele>86.8</ele>
        <time>2015-05-05T18:21:21.172Z</time>
      </trkpt>
      <trkpt lat="48.8571" lon="2.34756">
        <ele>86.9</ele>
        <time>2015-05-05T18:21:23.217Z</time>
      </trkpt>
      <trkpt lat="48.85707" lon="2.34768">
        <ele>87</ele>
        <time>2015-05-05T18:21:25.156Z</time>
      </trkpt>
      <trkpt lat="48.85705" lon="2.34775">
        <ele>87.2</ele>
        <time>2015-05-05T18:21:26.169Z</time>
      </trkpt>
      <trkpt lat="48.85703" lon="2.34783">
        <ele>87.2</ele>
        <time>2015-05-05T18:21:27.174Z</time>
      </trkpt>
      <trkpt lat="48.85701" lon="2.3479">
        <ele>87.2</ele>
        <time>2015-05-05T18:21:28.217Z</time>
      </trkpt>
      <trkpt lat="48.857" lon="2.34797">
        <ele>87.2</ele>
        <time>2015-05-05T18:21:29.217Z</time>
      </trkpt>
      <trkpt lat="48.85698" lon="2.34804">
        <ele>87.3</ele>
        <time>2015-05-05T18:21:30.207Z</time>
      </trkpt>
      <trkpt lat="48.85695" lon="2.34813">
        <ele>87</ele>
        <time>2015-05-05T18:21:31.224Z</time>
      </trkpt>
      <trkpt lat="48.85692" lon="2.34821">
        <ele>87.2</ele>
        <time>2015-05-05T18:21:32.140Z</time>
      </trkpt>
      <trkpt lat="48.8569" lon="2.34828">
        <ele>87</ele>
        <time>2015-05-05T18:21:33.151Z</time>
      </trkpt>
      <trkpt lat="48.85688" lon="2.34834">
        <ele>86.8</ele>
        <time>2015-05-05T18:21:34.237Z</time>
      </trkpt>
      <trkpt lat="48.85686" lon="2.34842">
        <ele>86.7</ele>
        <time>2015-05-05T18:21:35.117Z</time>
      </trkpt>
      <trkpt lat="48.85684" lon="2.34848">
        <ele>86.7</ele>
        <time>2015-05-05T18:21:36.182Z</time>
      </trkpt>
      <trkpt lat="48.85682" lon="2.34854">
        <ele>86.7</ele>
        <time>2015-05-05T18:21:37.223Z</time>
      </trkpt>
      <trkpt lat="48.8568" lon="2.34861">
        <ele>86.7</ele>
        <time>2015-05-05T18:21:38.203Z</time>
      </trkpt>
      <trkpt lat="48.85677" lon="2.34869">
        <ele>86.6</ele>
        <time>2015-05-05T18:21:39.204Z</time>
      </trkpt>
      <trkpt lat="48.85675" lon="2.34876">
        <ele>86.6</ele>
        <time>2015-05-05T18:21:40.220Z</time>
      </trkpt>
      <trkpt lat="48.85673" lon="2.34882">
        <ele>86.6</ele>
        <time>2015-05-05T18:21:41.151Z</time>
      </trkpt>
      <trkpt lat="48.85667" lon="2.34889">
        <ele>86.3</ele>
        <time>2015-05-05T18:21:43.178Z</time>
      </trkpt>
      <trkpt lat="48.85662" lon="2.34887">
        <ele>86.1</ele>
        <time>2015-05-05T18:21:44.197Z</time>
      </trkpt>
      <trkpt lat="48.85657" lon="2.34883">
        <ele>85.9</ele>
        <time>2015-05-05T18:21:45.219Z</time>
      </trkpt>
      <trkpt lat="48.85652" lon="2.34881">
        <ele>86</ele>
        <time>2015-05-05T18:21:46.229Z</time>
      </trkpt>
      <trkpt lat="48.85647" lon="2.34878">
        <ele>86.2</ele>
        <time>2015-05-05T18:21:47.154Z</time>
      </trkpt>
      <trkpt lat="48.85642" lon="2.34875">
        <ele>86.1</ele>
        <time>2015-05-05T18:21:48.163Z</time>
      </trkpt>
      <trkpt lat="48.85638" lon="2.34872">
        <ele>86</ele>
        <time>2015-05-05T18:21:49.179Z</time>
      </trkpt>
      <trkpt lat="48.85633" lon="2.34869">
        <ele>86</ele>
        <time>2015-05-05T18:21:50.191Z</time>
      </trkpt>
      <trkpt lat="48.85628" lon="2.34866">
        <ele>86</ele>
        <time>2015-05-05T18:21:51.218Z</time>
      </trkpt>
      <trkpt lat="48.85624" lon="2.34864">
        <ele>86</ele>
        <time>2015-05-05T18:21:52.216Z</time>
      </trkpt>
      <trkpt lat="48.85619" lon="2.34861">
        <ele>85.9</ele>
        <time>2015-05-05T18:21:53.235Z</time>
      </trkpt>
      <trkpt lat="48.85615" lon="2.34858">
        <ele>85.8</ele>
        <time>2015-05-05T18:21:54.129Z</time>
      </trkpt>
      <trkpt lat="48.8561" lon="2.34856">
        <ele>85.7</ele>
        <time>2015-05-05T18:21:55.165Z</time>
      </trkpt>
      <trkpt lat="48.85606" lon="2.34853">
        <ele>85.6</ele>
        <time>2015-05-05T18:21:56.194Z</time>
      </trkpt>
      <trkpt lat="48.85601" lon="2.3485">
        <ele>85.2</ele>
        <time>2015-05-05T18:21:57.207Z</time>
      </trkpt>
      <trkpt lat="48.85597" lon="2.34847">
        <ele>85</ele>
        <time>2015-05-05T18:21:58.225Z</time>
      </trkpt>
      <trkpt lat="48.85593" lon="2.34844">
        <ele>84.8</ele>
        <time>2015-05-05T18:21:59.228Z</time>
      </trkpt>
      <trkpt lat="48.85589" lon="2.34841">
        <ele>84.6</ele>
        <time>2015-05-05T18:22:00.243Z</time>
      </trkpt>
      <trkpt lat="48.8558" lon="2.34836">
        <ele>84.2</ele>
        <time>2015-05-05T18:22:02.175Z</time>
      </trkpt>
      <trkpt lat="48.85576" lon="2.34833">
        <ele>84.1</ele>
        <time>2015-05-05T18:22:03.180Z</time>
      </trkpt>
      <trkpt lat="48.8557" lon="2.3483">
        <ele>84</ele>
        <time>2015-05-05T18:22:04.337Z</time>
      </trkpt>
      <trkpt lat="48.85566" lon="2.34827">
        <ele>83.9</ele>
        <time>2015-05-05T18:22:05.232Z</time>
      </trkpt>
      <trkpt lat="48.85561" lon="2.34823">
        <ele>83.8</ele>
        <time>2015-05-05T18:22:06.253Z</time>
      </trkpt>
      <trkpt lat="48.85556" lon="2.34819">
        <ele>83.8</ele>
        <time>2015-05-05T18:22:07.131Z</time>
      </trkpt>
      <trkpt lat="48.85551" lon="2.34816">
        <ele>84.1</ele>
        <time>2015-05-05T18:22:08.165Z</time>
      </trkpt>
      <trkpt lat="48.85545" lon="2.34813">
        <ele>84.2</ele>
        <time>2015-05-05T18:22:09.160Z</time>
      </trkpt>
      <trkpt lat="48.85539" lon="2.34809">
        <ele>84.3</ele>
        <time>2015-05-05T18:22:10.209Z</time>
      </trkpt>
      <trkpt lat="48.85533" lon="2.34806">
        <ele>84.3</ele>
        <time>2015-05-05T18:22:11.211Z</time>
      </trkpt>
      <trkpt lat="48.85521" lon="2.34799">
        <ele>84.3</ele>
        <time>2015-05-05T18:22:13.244Z</time>
      </trkpt>
      <trkpt lat="48.85515" lon="2.34796">
        <ele>84.2</ele>
        <time>2015-05-05T18:22:14.152Z</time>
      </trkpt>
      <trkpt lat="48.85509" lon="2.34792">
        <ele>84.3</ele>
        <time>2015-05-05T18:22:15.126Z</time>
      </trkpt>
      <trkpt lat="48.85497" lon="2.34785">
        <ele>84.2</ele>
        <time>2015-05-05T18:22:17.212Z</time>
      </trkpt>
      <trkpt lat="48.85485" lon="2.34779">
        <ele>83.9</ele>
        <time>2015-05-05T18:22:19.298Z</time>
      </trkpt>
      <trkpt lat="48.85479" lon="2.34775">
        <ele>83.7</ele>
        <time>2015-05-05T18:22:20.137Z</time>
      </trkpt>
      <trkpt lat="48.85473" lon="2.34772">
        <ele>83.6</ele>
        <time>2015-05-05T18:22:21.161Z</time>
      </trkpt>
      <trkpt lat="48.85467" lon="2.34768">
        <ele>83.6</ele>
        <time>2015-05-05T18:22:22.187Z</time>
      </trkpt>
      <trkpt lat="48.85461" lon="2.34765">
        <ele>83.6</ele>
        <time>2015-05-05T18:22:23.211Z</time>
      </trkpt>
      <trkpt lat="48.85455" lon="2.34761">
        <ele>83.6</ele>
        <time>2015-05-05T18:22:24.225Z</time>
      </trkpt>
      <trkpt lat="48.8545" lon="2.34758">
        <ele>83.6</ele>
        <time>2015-05-05T18:22:25.229Z</time>
      </trkpt>
      <trkpt lat="48.85444" lon="2.34754">
        <ele>83.9</ele>
        <time>2015-05-05T18:22:26.141Z</time>
      </trkpt>
      <trkpt lat="48.85439" lon="2.34751">
        <ele>83.9</ele>
        <time>2015-05-05T18:22:27.182Z</time>
      </trkpt>
      <trkpt lat="48.85434" lon="2.34747">
        <ele>84.3</ele>
        <time>2015-05-05T18:22:28.185Z</time>
      </trkpt>
      <trkpt lat="48.85429" lon="2.34744">
        <ele>84.4</ele>
        <time>2015-05-05T18:22:29.196Z</time>
      </trkpt>
      <trkpt lat="48.85423" lon="2.3474">
        <ele>84.3</ele>
        <time>2015-05-05T18:22:30.206Z</time>
      </trkpt>
      <trkpt lat="48.85418" lon="2.34737">
        <ele>84.2</ele>
        <time>2015-05-05T18:22:31.165Z</time>
      </trkpt>
      <trkpt lat="48.85413" lon="2.34733">
        <ele>84.2</ele>
        <time>2015-05-05T18:22:32.130Z</time>
      </trkpt>
      <trkpt lat="48.85409" lon="2.3473">
        <ele>84</ele>
        <time>2015-05-05T18:22:33.142Z</time>
      </trkpt>
      <trkpt lat="48.85404" lon="2.34727">
        <ele>83.8</ele>
        <time>2015-05-05T18:22:34.168Z</time>
      </trkpt>
      <trkpt lat="48.854" lon="2.34724">
        <ele>83.6</ele>
        <time>2015-05-05T18:22:35.193Z</time>
      </trkpt>
      <trkpt lat="48.85395" lon="2.34721">
        <ele>83.7</ele>
        <time>2015-05-05T18:22:36.205Z</time>
      </trkpt>
      <trkpt lat="48.8539" lon="2.34719">
        <ele>83.6</ele>
        <time>2015-05-05T18:22:37.120Z</time>
      </trkpt>
      <trkpt lat="48.85386" lon="2.34716">
        <ele>83.5</ele>
        <time>2015-05-05T18:22:38.132Z</time>
      </trkpt>
      <trkpt lat="48.85381" lon="2.34713">
        <ele>83.5</ele>
        <time>2015-05-05T18:22:39.155Z</time>
      </trkpt>
      <trkpt lat="48.85377" lon="2.3471">
        <ele>83.3</ele>
        <time>2015-05-05T18:22:40.165Z</time>
      </trkpt>
      <trkpt lat="48.85372" lon="2.34708">
        <ele>83</ele>
        <time>2015-05-05T18:22:41.167Z</time>
      </trkpt>
      <trkpt lat="48.85368" lon="2.34705">
        <ele>83.1</ele>
        <time>2015-05-05T18:22:42.182Z</time>
      </trkpt>
      <trkpt lat="48.85363" lon="2.34703">
        <ele>83.1</ele>
        <time>2015-05-05T18:22:43.185Z</time>
      </trkpt>
      <trkpt lat="48.85358" lon="2.34701">
        <ele>83</ele>
        <time>2015-05-05T18:22:44.204Z</time>
      </trkpt>
      <trkpt lat="48.85354" lon="2.34699">
        <ele>82.8</ele>
        <time>2015-05-05T18:22:45.210Z</time>
      </trkpt>
      <trkpt lat="48.85349" lon="2.34697">
        <ele>82.4</ele>
        <time>2015-05-05T18:22:46.225Z</time>
      </trkpt>
      <trkpt lat="48.85344" lon="2.34695">
        <ele>82.2</ele>
        <time>2015-05-05T18:22:47.138Z</time>
      </trkpt>
      <trkpt lat="48.85336" lon="2.34691">
        <ele>81.9</ele>
        <time>2015-05-05T18:22:49.149Z</time>
      </trkpt>
      <trkpt lat="48.85332" lon="2.34689">
        <ele>81.6</ele>
        <time>2015-05-05T18:22:50.249Z</time>
      </trkpt>
      <trkpt lat="48.85324" lon="2.34685">
        <ele>80.8</ele>
        <time>2015-05-05T18:22:52.202Z</time>
      </trkpt>
      <trkpt lat="48.85321" lon="2.34683">
        <ele>80.8</ele>
        <time>2015-05-05T18:22:53.215Z</time>
      </trkpt>
      <trkpt lat="48.85313" lon="2.34678">
        <ele>81</ele>
        <time>2015-05-05T18:22:55.172Z</time>
      </trkpt>
      <trkpt lat="48.8531" lon="2.34676">
        <ele>80.8</ele>
        <time>2015-05-05T18:22:56.191Z</time>
      </trkpt>
      <trkpt lat="48.85302" lon="2.34672">
        <ele>80.5</ele>
        <time>2015-05-05T18:22:58.200Z</time>
      </trkpt>
      <trkpt lat="48.85298" lon="2.3467">
        <ele>80.3</ele>
        <time>2015-05-05T18:22:59.171Z</time>
      </trkpt>
      <trkpt lat="48.8529" lon="2.34664">
        <ele>79.9</ele>
        <time>2015-05-05T18:23:01.176Z</time>
      </trkpt>
      <trkpt lat="48.85286" lon="2.34661">
        <ele>79.9</ele>
        <time>2015-05-05T18:23:02.171Z</time>
      </trkpt>
      <trkpt lat="48.85282" lon="2.34656">
        <ele>79.7</ele>
        <time>2015-05-05T18:23:03.159Z</time>
      </trkpt>
      <trkpt lat="48.85278" lon="2.34653">
        <ele>79.8</ele>
        <time>2015-05-05T18:23:04.191Z</time>
      </trkpt>
      <trkpt lat="48.85273" lon="2.3465">
        <ele>79.9</ele>
        <time>2015-05-05T18:23:05.203Z</time>
      </trkpt>
      <trkpt lat="48.85268" lon="2.34647">
        <ele>80</ele>
        <time>2015-05-05T18:23:06.226Z</time>
      </trkpt>
      <trkpt lat="48.85263" lon="2.34643">
        <ele>80.2</ele>
        <time>2015-05-05T18:23:07.155Z</time>
      </trkpt>
      <trkpt lat="48.85259" lon="2.34639">
        <ele>80.2</ele>
        <time>2015-05-05T18:23:08.146Z</time>
      </trkpt>
      <trkpt lat="48.85255" lon="2.34636">
        <ele>80.3</ele>
        <time>2015-05-05T18:23:09.154Z</time>
      </trkpt>
      <trkpt lat="48.85251" lon="2.34632">
        <ele>80.3</ele>
        <time>2015-05-05T18:23:10.221Z</time>
      </trkpt>
      <trkpt lat="48.85246" lon="2.34629">
        <ele>80.4</ele>
        <time>2015-05-05T18:23:11.131Z</time>
      </trkpt>
      <trkpt lat="48.85242" lon="2.34626">
        <ele>80.4</ele>
        <time>2015-05-05T18:23:12.131Z</time>
      </trkpt>
      <trkpt lat="48.85235" lon="2.34622">
        <ele>80.6</ele>
        <time>2015-05-05T18:23:14.149Z</time>
      </trkpt>
      <trkpt lat="48.85232" lon="2.34619">
        <ele>80.6</ele>
        <time>2015-05-05T18:23:15.167Z</time>
      </trkpt>
      <trkpt lat="48.85225" lon="2.34612">
        <ele>80.8</ele>
        <time>2015-05-05T18:23:17.165Z</time>
      </trkpt>
      <trkpt lat="48.85219" lon="2.34608">
        <ele>80.9</ele>
        <time>2015-05-05T18:23:18.175Z</time>
      </trkpt>
      <trkpt lat="48.85214" lon="2.34605">
        <ele>80.9</ele>
        <time>2015-05-05T18:23:19.230Z</time>
      </trkpt>
      <trkpt lat="48.85208" lon="2.34603">
        <ele>80.9</ele>
        <time>2015-05-05T18:23:20.149Z</time>
      </trkpt>
      <trkpt lat="48.85201" lon="2.34602">
        <ele>80.7</ele>
        <time>2015-05-05T18:23:21.153Z</time>
      </trkpt>
      <trkpt lat="48.85194" lon="2.34599">
        <ele>80.6</ele>
        <time>2015-05-05T18:23:22.175Z</time>
      </trkpt>
      <trkpt lat="48.85112" lon="2.34558">
        <ele>80.4</ele>
        <time>2015-05-05T18:23:38.123Z</time>
      </trkpt>
      <trkpt lat="48.85104" lon="2.34554">
        <ele>81.7</ele>
        <time>2015-05-05T18:23:43.243Z</time>
      </trkpt>
      <trkpt lat="48.85101" lon="2.34552">
        <ele>82.5</ele>
        <time>2015-05-05T18:23:44.146Z</time>
      </trkpt>
      <trkpt lat="48.85093" lon="2.34551">
        <ele>84.5</ele>
        <time>2015-05-05T18:23:48.155Z</time>
      </trkpt>
      <trkpt lat="48.85091" lon="2.34551">
        <ele>84.6</ele>
        <time>2015-05-05T18:23:49.138Z</time>
      </trkpt>
      <trkpt lat="48.85085" lon="2.34558">
        <ele>81.3</ele>
        <time>2015-05-05T18:23:54.138Z</time>
      </trkpt>
      <trkpt lat="48.85084" lon="2.34559">
        <ele>81.2</ele>
        <time>2015-05-05T18:23:55.200Z</time>
      </trkpt>
      <trkpt lat="48.85076" lon="2.34565">
        <ele>80.1</ele>
        <time>2015-05-05T18:23:59.156Z</time>
      </trkpt>
      <trkpt lat="48.85073" lon="2.34569">
        <ele>79.6</ele>
        <time>2015-05-05T18:24:00.215Z</time>
      </trkpt>
      <trkpt lat="48.85068" lon="2.34577">
        <ele>79.5</ele>
        <time>2015-05-05T18:24:02.141Z</time>
      </trkpt>
      <trkpt lat="48.85066" lon="2.34582">
        <ele>79.4</ele>
        <time>2015-05-05T18:24:03.152Z</time>
      </trkpt>
      <trkpt lat="48.85064" lon="2.34595">
        <ele>79</ele>
        <time>2015-05-05T18:24:05.100Z</time>
      </trkpt>
      <trkpt lat="48.85062" lon="2.34603">
        <ele>78.9</ele>
        <time>2015-05-05T18:24:06.223Z</time>
      </trkpt>
      <trkpt lat="48.8506" lon="2.34611">
        <ele>78.7</ele>
        <time>2015-05-05T18:24:07.124Z</time>
      </trkpt>
      <trkpt lat="48.85059" lon="2.34618">
        <ele>78.5</ele>
        <time>2015-05-05T18:24:08.128Z</time>
      </trkpt>
      <trkpt lat="48.85057" lon="2.34624">
        <ele>78.4</ele>
        <time>2015-05-05T18:24:09.133Z</time>
      </trkpt>
      <trkpt lat="48.85056" lon="2.34632">
        <ele>78.3</ele>
        <time>2015-05-05T18:24:10.162Z</time>
      </trkpt>
      <trkpt lat="48.85055" lon="2.34638">
        <ele>78.2</ele>
        <time>2015-05-05T18:24:11.197Z</time>
      </trkpt>
      <trkpt lat="48.85053" lon="2.34646">
        <ele>78.2</ele>
        <time>2015-05-05T18:24:12.197Z</time>
      </trkpt>
      <trkpt lat="48.85051" lon="2.34654">
        <ele>78.2</ele>
        <time>2015-05-05T18:24:13.213Z</time>
      </trkpt>
      <trkpt lat="48.8505" lon="2.34663">
        <ele>78.2</ele>
        <time>2015-05-05T18:24:14.218Z</time>
      </trkpt>
      <trkpt lat="48.85048" lon="2.3467">
        <ele>78.1</ele>
        <time>2015-05-05T18:24:15.131Z</time>
      </trkpt>
      <trkpt lat="48.85046" lon="2.3468">
        <ele>78.1</ele>
        <time>2015-05-05T18:24:16.242Z</time>
      </trkpt>
      <trkpt lat="48.85043" lon="2.34689">
        <ele>78.2</ele>
        <time>2015-05-05T18:24:17.125Z</time>
      </trkpt>
      <trkpt lat="48.85041" lon="2.34697">
        <ele>78.2</ele>
        <time>2015-05-05T18:24:18.135Z</time>
      </trkpt>
      <trkpt lat="48.85039" lon="2.34706">
        <ele>78.2</ele>
        <time>2015-05-05T18:24:19.161Z</time>
      </trkpt>
      <trkpt lat="48.85037" lon="2.34715">
        <ele>78.1</ele>
        <time>2015-05-05T18:24:20.169Z</time>
      </trkpt>
      <trkpt lat="48.85035" lon="2.34724">
        <ele>78</ele>
        <time>2015-05-05T18:24:21.175Z</time>
      </trkpt>
      <trkpt lat="48.85031" lon="2.34734">
        <ele>77.7</ele>
        <time>2015-05-05T18:24:22.181Z</time>
      </trkpt>
      <trkpt lat="48.85027" lon="2.34744">
        <ele>77.4</ele>
        <time>2015-05-05T18:24:23.191Z</time>
      </trkpt>
      <trkpt lat="48.85024" lon="2.34755">
        <ele>77.1</ele>
        <time>2015-05-05T18:24:24.197Z</time>
      </trkpt>
      <trkpt lat="48.85022" lon="2.34765">
        <ele>77</ele>
        <time>2015-05-05T18:24:25.202Z</time>
      </trkpt>
      <trkpt lat="48.8502" lon="2.34775">
        <ele>77</ele>
        <time>2015-05-05T18:24:26.211Z</time>
      </trkpt>
      <trkpt lat="48.85018" lon="2.34785">
        <ele>76.9</ele>
        <time>2015-05-05T18:24:27.129Z</time>
      </trkpt>
      <trkpt lat="48.85016" lon="2.34795">
        <ele>76.8</ele>
        <time>2015-05-05T18:24:28.163Z</time>
      </trkpt>
      <trkpt lat="48.85014" lon="2.34805">
        <ele>76.8</ele>
        <time>2015-05-05T18:24:29.183Z</time>
      </trkpt>
      <trkpt lat="48.85012" lon="2.34816">
        <ele>76.8</ele>
        <time>2015-05-05T18:24:30.187Z</time>
      </trkpt>
      <trkpt lat="48.8501" lon="2.34826">
        <ele>76.8</ele>
        <time>2015-05-05T18:24:31.191Z</time>
      </trkpt>
      <trkpt lat="48.85008" lon="2.34838">
        <ele>76.8</ele>
        <time>2015-05-05T18:24:32.204Z</time>
      </trkpt>
      <trkpt lat="48.85006" lon="2.3485">
        <ele>76.8</ele>
        <time>2015-05-05T18:24:33.230Z</time>
      </trkpt>
      <trkpt lat="48.85004" lon="2.3486">
        <ele>76.9</ele>
        <time>2015-05-05T18:24:34.244Z</time>
      </trkpt>
      <trkpt lat="48.85002" lon="2.3487">
        <ele>76.9</ele>
        <time>2015-05-05T18:24:35.121Z</time>
      </trkpt>
      <trkpt lat="48.84999" lon="2.34878">
        <ele>77</ele>
        <time>2015-05-05T18:24:36.132Z</time>
      </trkpt>
      <trkpt lat="48.84997" lon="2.34887">
        <ele>77.1</ele>
        <time>2015-05-05T18:24:37.133Z</time>
      </trkpt>
      <trkpt lat="48.84994" lon="2.34898">
        <ele>77.2</ele>
        <time>2015-05-05T18:24:38.138Z</time>
      </trkpt>
      <trkpt lat="48.84992" lon="2.34908">
        <ele>77.2</ele>
        <time>2015-05-05T18:24:39.158Z</time>
      </trkpt>
      <trkpt lat="48.84989" lon="2.34918">
        <ele>77.3</ele>
        <time>2015-05-05T18:24:40.173Z</time>
      </trkpt>
      <trkpt lat="48.84986" lon="2.34927">
        <ele>77.2</ele>
        <time>2015-05-05T18:24:41.179Z</time>
      </trkpt>
      <trkpt lat="48.84983" lon="2.3494">
        <ele>77.2</ele>
        <time>2015-05-05T18:24:42.184Z</time>
      </trkpt>
      <trkpt lat="48.8498" lon="2.34949">
        <ele>77</ele>
        <time>2015-05-05T18:24:43.203Z</time>
      </trkpt>
      <trkpt lat="48.84977" lon="2.34959">
        <ele>77</ele>
        <time>2015-05-05T18:24:44.202Z</time>
      </trkpt>
      <trkpt lat="48.84974" lon="2.34969">
        <ele>77</ele>
        <time>2015-05-05T18:24:45.121Z</time>
      </trkpt>
      <trkpt lat="48.84971" lon="2.3498">
        <ele>76.9</ele>
        <time>2015-05-05T18:24:46.235Z</time>
      </trkpt>
      <trkpt lat="48.84967" lon="2.34991">
        <ele>76.5</ele>
        <time>2015-05-05T18:24:47.136Z</time>
      </trkpt>
      <trkpt lat="48.84964" lon="2.35">
        <ele>76.6</ele>
        <time>2015-05-05T18:24:48.142Z</time>
      </trkpt>
      <trkpt lat="48.84962" lon="2.35009">
        <ele>76.6</ele>
        <time>2015-05-05T18:24:49.152Z</time>
      </trkpt>
      <trkpt lat="48.8496" lon="2.35017">
        <ele>76.7</ele>
        <time>2015-05-05T18:24:50.163Z</time>
      </trkpt>
      <trkpt lat="48.84958" lon="2.35026">
        <ele>76.7</ele>
        <time>2015-05-05T18:24:51.170Z</time>
      </trkpt>
      <trkpt lat="48.84957" lon="2.35036">
        <ele>76.7</ele>
        <time>2015-05-05T18:24:52.174Z</time>
      </trkpt>
      <trkpt lat="48.84957" lon="2.35046">
        <ele>76.6</ele>
        <time>2015-05-05T18:24:53.226Z</time>
      </trkpt>
      <trkpt lat="48.84956" lon="2.35057">
        <ele>76.6</ele>
        <time>2015-05-05T18:24:54.140Z</time>
      </trkpt>
      <trkpt lat="48.84955" lon="2.35068">
        <ele>76.6</ele>
        <time>2015-05-05T18:24:55.247Z</time>
      </trkpt>
      <trkpt lat="48.84954" lon="2.35079">
        <ele>76.6</ele>
        <time>2015-05-05T18:24:56.160Z</time>
      </trkpt>
      <trkpt lat="48.84953" lon="2.35089">
        <ele>76.6</ele>
        <time>2015-05-05T18:24:57.191Z</time>
      </trkpt>
      <trkpt lat="48.8495" lon="2.351">
        <ele>76.6</ele>
        <time>2015-05-05T18:24:58.406Z</time>
      </trkpt>
      <trkpt lat="48.84948" lon="2.35111">
        <ele>76.6</ele>
        <time>2015-05-05T18:24:59.222Z</time>
      </trkpt>
      <trkpt lat="48.84948" lon="2.35121">
        <ele>76.5</ele>
        <time>2015-05-05T18:25:00.134Z</time>
      </trkpt>
      <trkpt lat="48.84949" lon="2.35131">
        <ele>76.5</ele>
        <time>2015-05-05T18:25:01.134Z</time>
      </trkpt>
      <trkpt lat="48.84949" lon="2.35141">
        <ele>76.6</ele>
        <time>2015-05-05T18:25:02.147Z</time>
      </trkpt>
      <trkpt lat="48.84949" lon="2.35152">
        <ele>76.6</ele>
        <time>2015-05-05T18:25:03.133Z</time>
      </trkpt>
      <trkpt lat="48.84949" lon="2.35161">
        <ele>76.6</ele>
        <time>2015-05-05T18:25:04.246Z</time>
      </trkpt>
      <trkpt lat="48.84949" lon="2.35172">
        <ele>76.7</ele>
        <time>2015-05-05T18:25:05.133Z</time>
      </trkpt>
      <trkpt lat="48.84948" lon="2.35182">
        <ele>76.7</ele>
        <time>2015-05-05T18:25:06.140Z</time>
      </trkpt>
      <trkpt lat="48.84946" lon="2.35193">
        <ele>76.8</ele>
        <time>2015-05-05T18:25:07.162Z</time>
      </trkpt>
      <trkpt lat="48.84946" lon="2.35202">
        <ele>76.9</ele>
        <time>2015-05-05T18:25:08.167Z</time>
      </trkpt>
      <trkpt lat="48.84946" lon="2.35211">
        <ele>76.9</ele>
        <time>2015-05-05T18:25:09.172Z</time>
      </trkpt>
      <trkpt lat="48.84947" lon="2.35223">
        <ele>77.1</ele>
        <time>2015-05-05T18:25:10.193Z</time>
      </trkpt>
      <trkpt lat="48.84947" lon="2.35233">
        <ele>77.2</ele>
        <time>2015-05-05T18:25:11.195Z</time>
      </trkpt>
      <trkpt lat="48.84947" lon="2.35243">
        <ele>77.4</ele>
        <time>2015-05-05T18:25:12.208Z</time>
      </trkpt>
      <trkpt lat="48.84946" lon="2.35254">
        <ele>77.5</ele>
        <time>2015-05-05T18:25:13.130Z</time>
      </trkpt>
      <trkpt lat="48.84946" lon="2.35265">
        <ele>77.6</ele>
        <time>2015-05-05T18:25:14.130Z</time>
      </trkpt>
      <trkpt lat="48.84946" lon="2.35275">
        <ele>77.7</ele>
        <time>2015-05-05T18:25:15.152Z</time>
      </trkpt>
      <trkpt lat="48.84945" lon="2.35284">
        <ele>77.7</ele>
        <time>2015-05-05T18:25:16.166Z</time>
      </trkpt>
      <trkpt lat="48.84944" lon="2.35293">
        <ele>77.7</ele>
        <time>2015-05-05T18:25:17.193Z</time>
      </trkpt>
      <trkpt lat="48.84944" lon="2.35303">
        <ele>77.8</ele>
        <time>2015-05-05T18:25:18.203Z</time>
      </trkpt>
      <trkpt lat="48.84944" lon="2.35312">
        <ele>77.9</ele>
        <time>2015-05-05T18:25:19.137Z</time>
      </trkpt>
      <trkpt lat="48.84944" lon="2.35321">
        <ele>78</ele>
        <time>2015-05-05T18:25:20.136Z</time>
      </trkpt>
      <trkpt lat="48.84943" lon="2.35331">
        <ele>78.1</ele>
        <time>2015-05-05T18:25:21.145Z</time>
      </trkpt>
      <trkpt lat="48.84943" lon="2.3534">
        <ele>78.2</ele>
        <time>2015-05-05T18:25:22.170Z</time>
      </trkpt>
      <trkpt lat="48.84943" lon="2.35349">
        <ele>78.3</ele>
        <time>2015-05-05T18:25:23.173Z</time>
      </trkpt>
      <trkpt lat="48.84942" lon="2.35358">
        <ele>78.3</ele>
        <time>2015-05-05T18:25:24.188Z</time>
      </trkpt>
      <trkpt lat="48.84942" lon="2.35365">
        <ele>78.3</ele>
        <time>2015-05-05T18:25:25.195Z</time>
      </trkpt>
      <trkpt lat="48.84942" lon="2.35373">
        <ele>78.3</ele>
        <time>2015-05-05T18:25:26.208Z</time>
      </trkpt>
      <trkpt lat="48.84942" lon="2.35386">
        <ele>78.4</ele>
        <time>2015-05-05T18:25:28.163Z</time>
      </trkpt>
      <trkpt lat="48.84943" lon="2.35391">
        <ele>78.5</ele>
        <time>2015-05-05T18:25:29.171Z</time>
      </trkpt>
      <trkpt lat="48.84945" lon="2.35402">
        <ele>78.5</ele>
        <time>2015-05-05T18:25:32.220Z</time>
      </trkpt>
      <trkpt lat="48.84946" lon="2.35404">
        <ele>78.6</ele>
        <time>2015-05-05T18:25:33.133Z</time>
      </trkpt>
      <trkpt lat="48.84947" lon="2.35417">
        <ele>79</ele>
        <time>2015-05-05T18:25:36.189Z</time>
      </trkpt>
      <trkpt lat="48.84947" lon="2.35422">
        <ele>79.2</ele>
        <time>2015-05-05T18:25:37.196Z</time>
      </trkpt>
      <trkpt lat="48.84947" lon="2.35435">
        <ele>79.4</ele>
        <time>2015-05-05T18:25:39.142Z</time>
      </trkpt>
      <trkpt lat="48.84947" lon="2.35441">
        <ele>79.4</ele>
        <time>2015-05-05T18:25:40.265Z</time>
      </trkpt>
      <trkpt lat="48.84947" lon="2.35449">
        <ele>80.3</ele>
        <time>2015-05-05T18:25:41.139Z</time>
      </trkpt>
      <trkpt lat="48.84947" lon="2.35456">
        <ele>80.5</ele>
        <time>2015-05-05T18:25:42.122Z</time>
      </trkpt>
      <trkpt lat="48.84946" lon="2.35464">
        <ele>80.5</ele>
        <time>2015-05-05T18:25:43.148Z</time>
      </trkpt>
      <trkpt lat="48.84945" lon="2.35472">
        <ele>80.5</ele>
        <time>2015-05-05T18:25:44.108Z</time>
      </trkpt>
      <trkpt lat="48.84945" lon="2.35479">
        <ele>80.5</ele>
        <time>2015-05-05T18:25:45.113Z</time>
      </trkpt>
      <trkpt lat="48.84945" lon="2.35486">
        <ele>80.6</ele>
        <time>2015-05-05T18:25:46.155Z</time>
      </trkpt>
      <trkpt lat="48.84944" lon="2.35493">
        <ele>80.7</ele>
        <time>2015-05-05T18:25:47.226Z</time>
      </trkpt>
      <trkpt lat="48.84942" lon="2.35502">
        <ele>80.7</ele>
        <time>2015-05-05T18:25:48.132Z</time>
      </trkpt>
      <trkpt lat="48.84941" lon="2.3551">
        <ele>80.7</ele>
        <time>2015-05-05T18:25:49.148Z</time>
      </trkpt>
      <trkpt lat="48.84941" lon="2.35518">
        <ele>80.7</ele>
        <time>2015-05-05T18:25:50.168Z</time>
      </trkpt>
      <trkpt lat="48.8494" lon="2.35526">
        <ele>80.7</ele>
        <time>2015-05-05T18:25:51.183Z</time>
      </trkpt>
      <trkpt lat="48.8494" lon="2.35535">
        <ele>80.7</ele>
        <time>2015-05-05T18:25:52.180Z</time>
      </trkpt>
      <trkpt lat="48.84939" lon="2.35544">
        <ele>80.7</ele>
        <time>2015-05-05T18:25:53.192Z</time>
      </trkpt>
      <trkpt lat="48.84938" lon="2.35551">
        <ele>80.6</ele>
        <time>2015-05-05T18:25:54.202Z</time>
      </trkpt>
      <trkpt lat="48.84938" lon="2.35564">
        <ele>80.7</ele>
        <time>2015-05-05T18:25:56.212Z</time>
      </trkpt>
      <trkpt lat="48.84938" lon="2.3557">
        <ele>80.6</ele>
        <time>2015-05-05T18:25:57.104Z</time>
      </trkpt>
      <trkpt lat="48.84936" lon="2.35579">
        <ele>81.1</ele>
        <time>2015-05-05T18:26:02.110Z</time>
      </trkpt>
      <trkpt lat="48.84936" lon="2.35581">
        <ele>80.2</ele>
        <time>2015-05-05T18:26:03.144Z</time>
      </trkpt>
      <trkpt lat="48.84935" lon="2.35582">
        <ele>79.9</ele>
        <time>2015-05-05T18:26:10.160Z</time>
      </trkpt>
      <trkpt lat="48.84933" lon="2.35584">
        <ele>81.5</ele>
        <time>2015-05-05T18:26:11.162Z</time>
      </trkpt>
      <trkpt lat="48.84933" lon="2.35585">
        <ele>81.8</ele>
        <time>2015-05-05T18:26:17.135Z</time>
      </trkpt>
      <trkpt lat="48.84933" lon="2.35585">
        <ele>81.8</ele>
        <time>2015-05-05T18:26:18.140Z</time>
      </trkpt>
      <trkpt lat="48.84934" lon="2.35586">
        <ele>81.8</ele>
        <time>2015-05-05T18:26:19.147Z</time>
      </trkpt>
      <trkpt lat="48.84934" lon="2.35597">
        <ele>81.9</ele>
        <time>2015-05-05T18:26:23.185Z</time>
      </trkpt>
      <trkpt lat="48.84934" lon="2.35601">
        <ele>81.8</ele>
        <time>2015-05-05T18:26:24.228Z</time>
      </trkpt>
      <trkpt lat="48.84934" lon="2.35611">
        <ele>81.6</ele>
        <time>2015-05-05T18:26:26.198Z</time>
      </trkpt>
      <trkpt lat="48.84934" lon="2.35617">
        <ele>81.7</ele>
        <time>2015-05-05T18:26:27.206Z</time>
      </trkpt>
      <trkpt lat="48.84933" lon="2.35627">
        <ele>81.8</ele>
        <time>2015-05-05T18:26:29.264Z</time>
      </trkpt>
      <trkpt lat="48.84933" lon="2.35632">
        <ele>81.9</ele>
        <time>2015-05-05T18:26:30.158Z</time>
      </trkpt>
      <trkpt lat="48.84932" lon="2.35644">
        <ele>82</ele>
        <time>2015-05-05T18:26:32.178Z</time>
      </trkpt>
      <trkpt lat="48.84932" lon="2.3565">
        <ele>81.6</ele>
        <time>2015-05-05T18:26:33.212Z</time>
      </trkpt>
      <trkpt lat="48.84932" lon="2.35662">
        <ele>80.9</ele>
        <time>2015-05-05T18:26:35.144Z</time>
      </trkpt>
      <trkpt lat="48.84931" lon="2.35668">
        <ele>81</ele>
        <time>2015-05-05T18:26:36.161Z</time>
      </trkpt>
      <trkpt lat="48.84931" lon="2.35674">
        <ele>80.6</ele>
        <time>2015-05-05T18:26:37.179Z</time>
      </trkpt>
      <trkpt lat="48.8493" lon="2.35682">
        <ele>80.9</ele>
        <time>2015-05-05T18:26:38.188Z</time>
      </trkpt>
      <trkpt lat="48.84927" lon="2.35694">
        <ele>81</ele>
        <time>2015-05-05T18:26:40.213Z</time>
      </trkpt>
      <trkpt lat="48.84924" lon="2.35702">
        <ele>80.9</ele>
        <time>2015-05-05T18:26:41.318Z</time>
      </trkpt>
      <trkpt lat="48.84921" lon="2.35714">
        <ele>80.8</ele>
        <time>2015-05-05T18:26:43.191Z</time>
      </trkpt>
      <trkpt lat="48.84918" lon="2.3572">
        <ele>80.8</ele>
        <time>2015-05-05T18:26:44.118Z</time>
      </trkpt>
      <trkpt lat="48.84916" lon="2.35726">
        <ele>80.8</ele>
        <time>2015-05-05T18:26:45.152Z</time>
      </trkpt>
      <trkpt lat="48.84913" lon="2.35731">
        <ele>80.8</ele>
        <time>2015-05-05T18:26:46.188Z</time>
      </trkpt>
      <trkpt lat="48.8491" lon="2.35735">
        <ele>81</ele>
        <time>2015-05-05T18:26:47.191Z</time>
      </trkpt>
      <trkpt lat="48.84906" lon="2.3574">
        <ele>80.9</ele>
        <time>2015-05-05T18:26:48.190Z</time>
      </trkpt>
      <trkpt lat="48.84902" lon="2.35747">
        <ele>80.9</ele>
        <time>2015-05-05T18:26:49.209Z</time>
      </trkpt>
      <trkpt lat="48.84898" lon="2.35753">
        <ele>80.9</ele>
        <time>2015-05-05T18:26:50.343Z</time>
      </trkpt>
      <trkpt lat="48.84893" lon="2.3576">
        <ele>80.7</ele>
        <time>2015-05-05T18:26:51.161Z</time>
      </trkpt>
      <trkpt lat="48.84889" lon="2.35766">
        <ele>80.8</ele>
        <time>2015-05-05T18:26:52.193Z</time>
      </trkpt>
      <trkpt lat="48.84885" lon="2.35773">
        <ele>80.8</ele>
        <time>2015-05-05T18:26:53.182Z</time>
      </trkpt>
      <trkpt lat="48.8488" lon="2.35779">
        <ele>80.7</ele>
        <time>2015-05-05T18:26:54.192Z</time>
      </trkpt>
      <trkpt lat="48.84876" lon="2.35786">
        <ele>80.3</ele>
        <time>2015-05-05T18:26:55.206Z</time>
      </trkpt>
      <trkpt lat="48.84871" lon="2.35793">
        <ele>80.4</ele>
        <time>2015-05-05T18:26:56.222Z</time>
      </trkpt>
      <trkpt lat="48.84866" lon="2.35801">
        <ele>80.4</ele>
        <time>2015-05-05T18:26:57.119Z</time>
      </trkpt>
      <trkpt lat="48.84862" lon="2.35809">
        <ele>80.3</ele>
        <time>2015-05-05T18:26:58.207Z</time>
      </trkpt>
      <trkpt lat="48.84857" lon="2.35815">
        <ele>80.3</ele>
        <time>2015-05-05T18:26:59.131Z</time>
      </trkpt>
      <trkpt lat="48.84852" lon="2.35822">
        <ele>80.2</ele>
        <time>2015-05-05T18:27:00.148Z</time>
      </trkpt>
      <trkpt lat="48.84847" lon="2.35829">
        <ele>80.2</ele>
        <time>2015-05-05T18:27:01.158Z</time>
      </trkpt>
      <trkpt lat="48.84843" lon="2.35836">
        <ele>80.1</ele>
        <time>2015-05-05T18:27:02.168Z</time>
      </trkpt>
      <trkpt lat="48.84838" lon="2.35844">
        <ele>80.2</ele>
        <time>2015-05-05T18:27:03.183Z</time>
      </trkpt>
      <trkpt lat="48.84833" lon="2.35851">
        <ele>80.1</ele>
        <time>2015-05-05T18:27:04.194Z</time>
      </trkpt>
      <trkpt lat="48.84829" lon="2.35857">
        <ele>80.2</ele>
        <time>2015-05-05T18:27:05.209Z</time>
      </trkpt>
      <trkpt lat="48.84824" lon="2.35865">
        <ele>80.4</ele>
        <time>2015-05-05T18:27:06.223Z</time>
      </trkpt>
      <trkpt lat="48.84819" lon="2.35872">
        <ele>80.3</ele>
        <time>2015-05-05T18:27:07.137Z</time>
      </trkpt>
      <trkpt lat="48.84814" lon="2.35879">
        <ele>79.9</ele>
        <time>2015-05-05T18:27:08.141Z</time>
      </trkpt>
      <trkpt lat="48.84809" lon="2.3589">
        <ele>79.5</ele>
        <time>2015-05-05T18:27:09.135Z</time>
      </trkpt>
      <trkpt lat="48.84804" lon="2.35899">
        <ele>78.8</ele>
        <time>2015-05-05T18:27:10.191Z</time>
      </trkpt>
      <trkpt lat="48.84799" lon="2.35907">
        <ele>78.5</ele>
        <time>2015-05-05T18:27:11.174Z</time>
      </trkpt>
      <trkpt lat="48.84795" lon="2.35913">
        <ele>78.5</ele>
        <time>2015-05-05T18:27:12.174Z</time>
      </trkpt>
      <trkpt lat="48.84791" lon="2.35918">
        <ele>78.6</ele>
        <time>2015-05-05T18:27:13.182Z</time>
      </trkpt>
      <trkpt lat="48.84787" lon="2.35923">
        <ele>78.8</ele>
        <time>2015-05-05T18:27:14.191Z</time>
      </trkpt>
      <trkpt lat="48.84783" lon="2.35929">
        <ele>79.1</ele>
        <time>2015-05-05T18:27:15.220Z</time>
      </trkpt>
      <trkpt lat="48.84779" lon="2.35935">
        <ele>79.3</ele>
        <time>2015-05-05T18:27:16.229Z</time>
      </trkpt>
      <trkpt lat="48.84775" lon="2.3594">
        <ele>79.4</ele>
        <time>2015-05-05T18:27:17.152Z</time>
      </trkpt>
      <trkpt lat="48.84771" lon="2.35946">
        <ele>79.5</ele>
        <time>2015-05-05T18:27:18.154Z</time>
      </trkpt>
      <trkpt lat="48.84766" lon="2.35953">
        <ele>79.3</ele>
        <time>2015-05-05T18:27:19.193Z</time>
      </trkpt>
      <trkpt lat="48.84762" lon="2.35959">
        <ele>79.2</ele>
        <time>2015-05-05T18:27:20.188Z</time>
      </trkpt>
      <trkpt lat="48.84757" lon="2.35966">
        <ele>79.4</ele>
        <time>2015-05-05T18:27:21.223Z</time>
      </trkpt>
      <trkpt lat="48.84753" lon="2.35972">
        <ele>79.6</ele>
        <time>2015-05-05T18:27:22.224Z</time>
      </trkpt>
      <trkpt lat="48.8475" lon="2.35979">
        <ele>79.7</ele>
        <time>2015-05-05T18:27:23.144Z</time>
      </trkpt>
      <trkpt lat="48.84746" lon="2.35985">
        <ele>79.6</ele>
        <time>2015-05-05T18:27:24.147Z</time>
      </trkpt>
      <trkpt lat="48.84743" lon="2.35991">
        <ele>79.5</ele>
        <time>2015-05-05T18:27:25.194Z</time>
      </trkpt>
      <trkpt lat="48.84739" lon="2.35998">
        <ele>79.4</ele>
        <time>2015-05-05T18:27:26.189Z</time>
      </trkpt>
      <trkpt lat="48.84735" lon="2.36005">
        <ele>79.5</ele>
        <time>2015-05-05T18:27:27.199Z</time>
      </trkpt>
      <trkpt lat="48.84729" lon="2.36015">
        <ele>79</ele>
        <time>2015-05-05T18:27:28.210Z</time>
      </trkpt>
      <trkpt lat="48.84724" lon="2.36023">
        <ele>78.9</ele>
        <time>2015-05-05T18:27:29.235Z</time>
      </trkpt>
      <trkpt lat="48.8472" lon="2.36031">
        <ele>78.8</ele>
        <time>2015-05-05T18:27:30.135Z</time>
      </trkpt>
      <trkpt lat="48.84715" lon="2.3604">
        <ele>78.6</ele>
        <time>2015-05-05T18:27:31.153Z</time>
      </trkpt>
      <trkpt lat="48.8471" lon="2.36049">
        <ele>78.4</ele>
        <time>2015-05-05T18:27:32.157Z</time>
      </trkpt>
      <trkpt lat="48.84705" lon="2.36056">
        <ele>78.2</ele>
        <time>2015-05-05T18:27:33.178Z</time>
      </trkpt>
      <trkpt lat="48.847" lon="2.36065">
        <ele>78.5</ele>
        <time>2015-05-05T18:27:34.198Z</time>
      </trkpt>
      <trkpt lat="48.84695" lon="2.36073">
        <ele>78.8</ele>
        <time>2015-05-05T18:27:35.193Z</time>
      </trkpt>
      <trkpt lat="48.8469" lon="2.36079">
        <ele>78.9</ele>
        <time>2015-05-05T18:27:36.211Z</time>
      </trkpt>
      <trkpt lat="48.84685" lon="2.36085">
        <ele>78.9</ele>
        <time>2015-05-05T18:27:37.161Z</time>
      </trkpt>
      <trkpt lat="48.84681" lon="2.36091">
        <ele>78.7</ele>
        <time>2015-05-05T18:27:38.130Z</time>
      </trkpt>
      <trkpt lat="48.84677" lon="2.36096">
        <ele>78.5</ele>
        <time>2015-05-05T18:27:39.138Z</time>
      </trkpt>
      <trkpt lat="48.84673" lon="2.361">
        <ele>78.6</ele>
        <time>2015-05-05T18:27:40.174Z</time>
      </trkpt>
      <trkpt lat="48.84669" lon="2.36105">
        <ele>78.5</ele>
        <time>2015-05-05T18:27:41.194Z</time>
      </trkpt>
      <trkpt lat="48.84665" lon="2.3611">
        <ele>78.6</ele>
        <time>2015-05-05T18:27:42.210Z</time>
      </trkpt>
      <trkpt lat="48.84661" lon="2.36116">
        <ele>78.4</ele>
        <time>2015-05-05T18:27:43.131Z</time>
      </trkpt>
      <trkpt lat="48.84657" lon="2.36121">
        <ele>78.3</ele>
        <time>2015-05-05T18:27:44.122Z</time>
      </trkpt>
      <trkpt lat="48.84654" lon="2.36126">
        <ele>78.1</ele>
        <time>2015-05-05T18:27:45.148Z</time>
      </trkpt>
      <trkpt lat="48.8465" lon="2.36132">
        <ele>78.2</ele>
        <time>2015-05-05T18:27:46.176Z</time>
      </trkpt>
      <trkpt lat="48.84647" lon="2.36137">
        <ele>78</ele>
        <time>2015-05-05T18:27:47.188Z</time>
      </trkpt>
      <trkpt lat="48.84643" lon="2.36143">
        <ele>77.8</ele>
        <time>2015-05-05T18:27:48.221Z</time>
      </trkpt>
      <trkpt lat="48.84639" lon="2.36149">
        <ele>78</ele>
        <time>2015-05-05T18:27:49.111Z</time>
      </trkpt>
      <trkpt lat="48.84635" lon="2.36155">
        <ele>78.2</ele>
        <time>2015-05-05T18:27:50.129Z</time>
      </trkpt>
      <trkpt lat="48.84632" lon="2.36161">
        <ele>78.3</ele>
        <time>2015-05-05T18:27:51.141Z</time>
      </trkpt>
      <trkpt lat="48.84627" lon="2.36166">
        <ele>78.3</ele>
        <time>2015-05-05T18:27:52.179Z</time>
      </trkpt>
      <trkpt lat="48.84623" lon="2.36171">
        <ele>78.4</ele>
        <time>2015-05-05T18:27:53.184Z</time>
      </trkpt>
      <trkpt lat="48.84619" lon="2.36177">
        <ele>78.4</ele>
        <time>2015-05-05T18:27:54.221Z</time>
      </trkpt>
      <trkpt lat="48.84615" lon="2.36182">
        <ele>78.4</ele>
        <time>2015-05-05T18:27:55.130Z</time>
      </trkpt>
      <trkpt lat="48.84611" lon="2.36188">
        <ele>78.6</ele>
        <time>2015-05-05T18:27:56.143Z</time>
      </trkpt>
      <trkpt lat="48.84607" lon="2.36194">
        <ele>78.8</ele>
        <time>2015-05-05T18:27:57.157Z</time>
      </trkpt>
      <trkpt lat="48.84603" lon="2.362">
        <ele>79</ele>
        <time>2015-05-05T18:27:58.179Z</time>
      </trkpt>
      <trkpt lat="48.84598" lon="2.36206">
        <ele>79.1</ele>
        <time>2015-05-05T18:27:59.186Z</time>
      </trkpt>
      <trkpt lat="48.84594" lon="2.36213">
        <ele>79.3</ele>
        <time>2015-05-05T18:28:00.234Z</time>
      </trkpt>
      <trkpt lat="48.8459" lon="2.36219">
        <ele>79.4</ele>
        <time>2015-05-05T18:28:01.134Z</time>
      </trkpt>
      <trkpt lat="48.84586" lon="2.36226">
        <ele>79.4</ele>
        <time>2015-05-05T18:28:02.132Z</time>
      </trkpt>
      <trkpt lat="48.84582" lon="2.36232">
        <ele>79.5</ele>
        <time>2015-05-05T18:28:03.151Z</time>
      </trkpt>
      <trkpt lat="48.84578" lon="2.36238">
        <ele>79.5</ele>
        <time>2015-05-05T18:28:04.182Z</time>
      </trkpt>
      <trkpt lat="48.84574" lon="2.36244">
        <ele>79.3</ele>
        <time>2015-05-05T18:28:05.205Z</time>
      </trkpt>
      <trkpt lat="48.8457" lon="2.3625">
        <ele>79.3</ele>
        <time>2015-05-05T18:28:06.209Z</time>
      </trkpt>
      <trkpt lat="48.84567" lon="2.36255">
        <ele>79.2</ele>
        <time>2015-05-05T18:28:07.222Z</time>
      </trkpt>
      <trkpt lat="48.84563" lon="2.3626">
        <ele>79.4</ele>
        <time>2015-05-05T18:28:08.146Z</time>
      </trkpt>
      <trkpt lat="48.8456" lon="2.36266">
        <ele>79.4</ele>
        <time>2015-05-05T18:28:09.146Z</time>
      </trkpt>
      <trkpt lat="48.84556" lon="2.36271">
        <ele>79.6</ele>
        <time>2015-05-05T18:28:10.191Z</time>
      </trkpt>
      <trkpt lat="48.84553" lon="2.36277">
        <ele>79.6</ele>
        <time>2015-05-05T18:28:11.193Z</time>
      </trkpt>
      <trkpt lat="48.84549" lon="2.36281">
        <ele>79.6</ele>
        <time>2015-05-05T18:28:12.202Z</time>
      </trkpt>
      <trkpt lat="48.84545" lon="2.36287">
        <ele>79.6</ele>
        <time>2015-05-05T18:28:13.207Z</time>
      </trkpt>
      <trkpt lat="48.84541" lon="2.36292">
        <ele>79.6</ele>
        <time>2015-05-05T18:28:14.215Z</time>
      </trkpt>
      <trkpt lat="48.84537" lon="2.36298">
        <ele>79.6</ele>
        <time>2015-05-05T18:28:15.236Z</time>
      </trkpt>
      <trkpt lat="48.84533" lon="2.36304">
        <ele>79.6</ele>
        <time>2015-05-05T18:28:16.252Z</time>
      </trkpt>
      <trkpt lat="48.8453" lon="2.3631">
        <ele>79.7</ele>
        <time>2015-05-05T18:28:17.131Z</time>
      </trkpt>
      <trkpt lat="48.84526" lon="2.36316">
        <ele>80</ele>
        <time>2015-05-05T18:28:18.131Z</time>
      </trkpt>
      <trkpt lat="48.84523" lon="2.36322">
        <ele>80.2</ele>
        <time>2015-05-05T18:28:19.151Z</time>
      </trkpt>
      <trkpt lat="48.84519" lon="2.36327">
        <ele>80.4</ele>
        <time>2015-05-05T18:28:20.172Z</time>
      </trkpt>
      <trkpt lat="48.84516" lon="2.36332">
        <ele>80.3</ele>
        <time>2015-05-05T18:28:21.184Z</time>
      </trkpt>
      <trkpt lat="48.84512" lon="2.36338">
        <ele>80.4</ele>
        <time>2015-05-05T18:28:22.202Z</time>
      </trkpt>
      <trkpt lat="48.84509" lon="2.36344">
        <ele>80.4</ele>
        <time>2015-05-05T18:28:23.155Z</time>
      </trkpt>
      <trkpt lat="48.84505" lon="2.36349">
        <ele>80.4</ele>
        <time>2015-05-05T18:28:24.162Z</time>
      </trkpt>
      <trkpt lat="48.84501" lon="2.36354">
        <ele>80.5</ele>
        <time>2015-05-05T18:28:25.189Z</time>
      </trkpt>
      <trkpt lat="48.84498" lon="2.3636">
        <ele>80.5</ele>
        <time>2015-05-05T18:28:26.203Z</time>
      </trkpt>
      <trkpt lat="48.84494" lon="2.36366">
        <ele>80.7</ele>
        <time>2015-05-05T18:28:27.223Z</time>
      </trkpt>
      <trkpt lat="48.84491" lon="2.36372">
        <ele>80.7</ele>
        <time>2015-05-05T18:28:28.227Z</time>
      </trkpt>
      <trkpt lat="48.84487" lon="2.36376">
        <ele>80.7</ele>
        <time>2015-05-05T18:28:29.142Z</time>
      </trkpt>
      <trkpt lat="48.84484" lon="2.36381">
        <ele>80.5</ele>
        <time>2015-05-05T18:28:30.145Z</time>
      </trkpt>
      <trkpt lat="48.8448" lon="2.36386">
        <ele>80.6</ele>
        <time>2015-05-05T18:28:31.172Z</time>
      </trkpt>
      <trkpt lat="48.84476" lon="2.3639">
        <ele>80.9</ele>
        <time>2015-05-05T18:28:32.179Z</time>
      </trkpt>
      <trkpt lat="48.84469" lon="2.36397">
        <ele>81</ele>
        <time>2015-05-05T18:28:34.217Z</time>
      </trkpt>
      <trkpt lat="48.84466" lon="2.36401">
        <ele>80.7</ele>
        <time>2015-05-05T18:28:35.165Z</time>
      </trkpt>
      <trkpt lat="48.84461" lon="2.36407">
        <ele>80.8</ele>
        <time>2015-05-05T18:28:37.152Z</time>
      </trkpt>
      <trkpt lat="48.84459" lon="2.3641">
        <ele>80.8</ele>
        <time>2015-05-05T18:28:38.173Z</time>
      </trkpt>
      <trkpt lat="48.84454" lon="2.36417">
        <ele>81.1</ele>
        <time>2015-05-05T18:28:40.207Z</time>
      </trkpt>
      <trkpt lat="48.84452" lon="2.36421">
        <ele>81.4</ele>
        <time>2015-05-05T18:28:41.229Z</time>
      </trkpt>
      <trkpt lat="48.84445" lon="2.36428">
        <ele>81.2</ele>
        <time>2015-05-05T18:28:44.200Z</time>
      </trkpt>
      <trkpt lat="48.84443" lon="2.3643">
        <ele>81.2</ele>
        <time>2015-05-05T18:28:45.213Z</time>
      </trkpt>
      <trkpt lat="48.84435" lon="2.36433">
        <ele>81.4</ele>
        <time>2015-05-05T18:28:48.215Z</time>
      </trkpt>
      <trkpt lat="48.84432" lon="2.36434">
        <ele>81.3</ele>
        <time>2015-05-05T18:28:49.180Z</time>
      </trkpt>
      <trkpt lat="48.84425" lon="2.36438">
        <ele>80.8</ele>
        <time>2015-05-05T18:28:52.177Z</time>
      </trkpt>
      <trkpt lat="48.84422" lon="2.36439">
        <ele>80.6</ele>
        <time>2015-05-05T18:28:53.187Z</time>
      </trkpt>
      <trkpt lat="48.84415" lon="2.36443">
        <ele>81.1</ele>
        <time>2015-05-05T18:28:56.183Z</time>
      </trkpt>
      <trkpt lat="48.84412" lon="2.36445">
        <ele>81.7</ele>
        <time>2015-05-05T18:28:57.200Z</time>
      </trkpt>
      <trkpt lat="48.84407" lon="2.36449">
        <ele>82.5</ele>
        <time>2015-05-05T18:29:01.146Z</time>
      </trkpt>
      <trkpt lat="48.84407" lon="2.3645">
        <ele>82.8</ele>
        <time>2015-05-05T18:29:02.153Z</time>
      </trkpt>
      <trkpt lat="48.84407" lon="2.3645">
        <ele>82.9</ele>
        <time>2015-05-05T18:29:18.155Z</time>
      </trkpt>
      <trkpt lat="48.84406" lon="2.36453">
        <ele>84</ele>
        <time>2015-05-05T18:29:19.177Z</time>
      </trkpt>
      <trkpt lat="48.84399" lon="2.36457">
        <ele>84.1</ele>
        <time>2015-05-05T18:29:23.184Z</time>
      </trkpt>
      <trkpt lat="48.84396" lon="2.36458">
        <ele>84.1</ele>
        <time>2015-05-05T18:29:24.191Z</time>
      </trkpt>
      <trkpt lat="48.8439" lon="2.36468">
        <ele>84.3</ele>
        <time>2015-05-05T18:29:29.146Z</time>
      </trkpt>
      <trkpt lat="48.84389" lon="2.36469">
        <ele>84.3</ele>
        <time>2015-05-05T18:29:30.148Z</time>
      </trkpt>
      <trkpt lat="48.84386" lon="2.36481">
        <ele>84.7</ele>
        <time>2015-05-05T18:29:35.206Z</time>
      </trkpt>
      <trkpt lat="48.84386" lon="2.36484">
        <ele>84.8</ele>
        <time>2015-05-05T18:29:36.217Z</time>
      </trkpt>
      <trkpt lat="48.84382" lon="2.36494">
        <ele>85</ele>
        <time>2015-05-05T18:29:39.136Z</time>
      </trkpt>
      <trkpt lat="48.8438" lon="2.36498">
        <ele>85.1</ele>
        <time>2015-05-05T18:29:40.178Z</time>
      </trkpt>
      <trkpt lat="48.84378" lon="2.36507">
        <ele>85.2</ele>
        <time>2015-05-05T18:29:43.194Z</time>
      </trkpt>
      <trkpt lat="48.84377" lon="2.36511">
        <ele>85.2</ele>
        <time>2015-05-05T18:29:44.200Z</time>
      </trkpt>
      <trkpt lat="48.84374" lon="2.3652">
        <ele>85.3</ele>
        <time>2015-05-05T18:29:47.186Z</time>
      </trkpt>
      <trkpt lat="48.84372" lon="2.36524">
        <ele>85.2</ele>
        <time>2015-05-05T18:29:48.186Z</time>
      </trkpt>
      <trkpt lat="48.84367" lon="2.36535">
        <ele>85.2</ele>
        <time>2015-05-05T18:29:51.137Z</time>
      </trkpt>
      <trkpt lat="48.84365" lon="2.36538">
        <ele>85.2</ele>
        <time>2015-05-05T18:29:52.158Z</time>
      </trkpt>
      <trkpt lat="48.84361" lon="2.36544">
        <ele>85.2</ele>
        <time>2015-05-05T18:29:54.223Z</time>
      </trkpt>
      <trkpt lat="48.84358" lon="2.36549">
        <ele>85.1</ele>
        <time>2015-05-05T18:29:55.116Z</time>
      </trkpt>
      <trkpt lat="48.84354" lon="2.36558">
        <ele>85.1</ele>
        <time>2015-05-05T18:29:57.156Z</time>
      </trkpt>
      <trkpt lat="48.84352" lon="2.36563">
        <ele>85.1</ele>
        <time>2015-05-05T18:29:58.164Z</time>
      </trkpt>
      <trkpt lat="48.84348" lon="2.36567">
        <ele>85.1</ele>
        <time>2015-05-05T18:29:59.257Z</time>
      </trkpt>
      <trkpt lat="48.84343" lon="2.36572">
        <ele>85.1</ele>
        <time>2015-05-05T18:30:00.107Z</time>
      </trkpt>
      <trkpt lat="48.84339" lon="2.36578">
        <ele>85.2</ele>
        <time>2015-05-05T18:30:02.114Z</time>
      </trkpt>
      <trkpt lat="48.84335" lon="2.36584">
        <ele>85.2</ele>
        <time>2015-05-05T18:30:02.171Z</time>
      </trkpt>
      <trkpt lat="48.84331" lon="2.3659">
        <ele>85.2</ele>
        <time>2015-05-05T18:30:03.190Z</time>
      </trkpt>
      <trkpt lat="48.84326" lon="2.36596">
        <ele>85.1</ele>
        <time>2015-05-05T18:30:04.198Z</time>
      </trkpt>
      <trkpt lat="48.84321" lon="2.36603">
        <ele>85.2</ele>
        <time>2015-05-05T18:30:05.107Z</time>
      </trkpt>
      <trkpt lat="48.84316" lon="2.36611">
        <ele>85.2</ele>
        <time>2015-05-05T18:30:06.114Z</time>
      </trkpt>
      <trkpt lat="48.84311" lon="2.36618">
        <ele>85.2</ele>
        <time>2015-05-05T18:30:07.325Z</time>
      </trkpt>
      <trkpt lat="48.84306" lon="2.36624">
        <ele>85.3</ele>
        <time>2015-05-05T18:30:08.196Z</time>
      </trkpt>
      <trkpt lat="48.84302" lon="2.3663">
        <ele>85.3</ele>
        <time>2015-05-05T18:30:09.211Z</time>
      </trkpt>
      <trkpt lat="48.84297" lon="2.36635">
        <ele>85.3</ele>
        <time>2015-05-05T18:30:10.231Z</time>
      </trkpt>
      <trkpt lat="48.84292" lon="2.36641">
        <ele>85.3</ele>
        <time>2015-05-05T18:30:11.133Z</time>
      </trkpt>
      <trkpt lat="48.84287" lon="2.36648">
        <ele>85.3</ele>
        <time>2015-05-05T18:30:12.134Z</time>
      </trkpt>
      <trkpt lat="48.84277" lon="2.36659">
        <ele>84.5</ele>
        <time>2015-05-05T18:30:13.159Z</time>
      </trkpt>
      <trkpt lat="48.8427" lon="2.36668">
        <ele>84.2</ele>
        <time>2015-05-05T18:30:14.168Z</time>
      </trkpt>
      <trkpt lat="48.84265" lon="2.36676">
        <ele>83.9</ele>
        <time>2015-05-05T18:30:15.187Z</time>
      </trkpt>
      <trkpt lat="48.84259" lon="2.36683">
        <ele>83.8</ele>
        <time>2015-05-05T18:30:16.242Z</time>
      </trkpt>
      <trkpt lat="48.84254" lon="2.36691">
        <ele>83.6</ele>
        <time>2015-05-05T18:30:17.146Z</time>
      </trkpt>
      <trkpt lat="48.84249" lon="2.36698">
        <ele>83.3</ele>
        <time>2015-05-05T18:30:18.193Z</time>
      </trkpt>
      <trkpt lat="48.84244" lon="2.36704">
        <ele>82.9</ele>
        <time>2015-05-05T18:30:19.220Z</time>
      </trkpt>
      <trkpt lat="48.84239" lon="2.3671">
        <ele>82.6</ele>
        <time>2015-05-05T18:30:20.229Z</time>
      </trkpt>
      <trkpt lat="48.84235" lon="2.36716">
        <ele>82.3</ele>
        <time>2015-05-05T18:30:21.143Z</time>
      </trkpt>
      <trkpt lat="48.84231" lon="2.36721">
        <ele>82.2</ele>
        <time>2015-05-05T18:30:22.182Z</time>
      </trkpt>
      <trkpt lat="48.84227" lon="2.36726">
        <ele>82</ele>
        <time>2015-05-05T18:30:23.176Z</time>
      </trkpt>
      <trkpt lat="48.84223" lon="2.36732">
        <ele>81.8</ele>
        <time>2015-05-05T18:30:24.208Z</time>
      </trkpt>
      <trkpt lat="48.8422" lon="2.36737">
        <ele>81.5</ele>
        <time>2015-05-05T18:30:25.239Z</time>
      </trkpt>
      <trkpt lat="48.84214" lon="2.36744">
        <ele>81.3</ele>
        <time>2015-05-05T18:30:27.142Z</time>
      </trkpt>
      <trkpt lat="48.8421" lon="2.36747">
        <ele>81.3</ele>
        <time>2015-05-05T18:30:28.300Z</time>
      </trkpt>
      <trkpt lat="48.84205" lon="2.36753">
        <ele>81.1</ele>
        <time>2015-05-05T18:30:30.167Z</time>
      </trkpt>
      <trkpt lat="48.84203" lon="2.36756">
        <ele>81.2</ele>
        <time>2015-05-05T18:30:31.196Z</time>
      </trkpt>
      <trkpt lat="48.84198" lon="2.36764">
        <ele>80.9</ele>
        <time>2015-05-05T18:30:33.125Z</time>
      </trkpt>
      <trkpt lat="48.84196" lon="2.36768">
        <ele>80.7</ele>
        <time>2015-05-05T18:30:34.192Z</time>
      </trkpt>
      <trkpt lat="48.8419" lon="2.36778">
        <ele>80.6</ele>
        <time>2015-05-05T18:30:37.163Z</time>
      </trkpt>
      <trkpt lat="48.84189" lon="2.3678">
        <ele>80.5</ele>
        <time>2015-05-05T18:30:38.184Z</time>
      </trkpt>
      <trkpt lat="48.84183" lon="2.3679">
        <ele>80.1</ele>
        <time>2015-05-05T18:30:45.140Z</time>
      </trkpt>
      <trkpt lat="48.84182" lon="2.36793">
        <ele>80</ele>
        <time>2015-05-05T18:30:46.255Z</time>
      </trkpt>
      <trkpt lat="48.84177" lon="2.36801">
        <ele>80</ele>
        <time>2015-05-05T18:30:49.115Z</time>
      </trkpt>
      <trkpt lat="48.84174" lon="2.36805">
        <ele>79.8</ele>
        <time>2015-05-05T18:30:50.135Z</time>
      </trkpt>
      <trkpt lat="48.84168" lon="2.36813">
        <ele>79.8</ele>
        <time>2015-05-05T18:30:52.208Z</time>
      </trkpt>
      <trkpt lat="48.84165" lon="2.36816">
        <ele>79.9</ele>
        <time>2015-05-05T18:30:53.126Z</time>
      </trkpt>
      <trkpt lat="48.84157" lon="2.36822">
        <ele>80</ele>
        <time>2015-05-05T18:30:55.222Z</time>
      </trkpt>
      <trkpt lat="48.84153" lon="2.36825">
        <ele>80</ele>
        <time>2015-05-05T18:30:56.172Z</time>
      </trkpt>
      <trkpt lat="48.8415" lon="2.36828">
        <ele>79.9</ele>
        <time>2015-05-05T18:30:57.135Z</time>
      </trkpt>
      <trkpt lat="48.84145" lon="2.36832">
        <ele>80</ele>
        <time>2015-05-05T18:30:58.164Z</time>
      </trkpt>
      <trkpt lat="48.84141" lon="2.36836">
        <ele>79.8</ele>
        <time>2015-05-05T18:30:59.208Z</time>
      </trkpt>
      <trkpt lat="48.84136" lon="2.3684">
        <ele>79.9</ele>
        <time>2015-05-05T18:31:00.203Z</time>
      </trkpt>
      <trkpt lat="48.84131" lon="2.36845">
        <ele>79.8</ele>
        <time>2015-05-05T18:31:01.230Z</time>
      </trkpt>
      <trkpt lat="48.84127" lon="2.36851">
        <ele>79.6</ele>
        <time>2015-05-05T18:31:02.236Z</time>
      </trkpt>
      <trkpt lat="48.84122" lon="2.36856">
        <ele>79.7</ele>
        <time>2015-05-05T18:31:03.155Z</time>
      </trkpt>
      <trkpt lat="48.84117" lon="2.36862">
        <ele>79.9</ele>
        <time>2015-05-05T18:31:04.202Z</time>
      </trkpt>
      <trkpt lat="48.84112" lon="2.36871">
        <ele>80</ele>
        <time>2015-05-05T18:31:05.215Z</time>
      </trkpt>
      <trkpt lat="48.84107" lon="2.3688">
        <ele>80.1</ele>
        <time>2015-05-05T18:31:06.143Z</time>
      </trkpt>
      <trkpt lat="48.84101" lon="2.36888">
        <ele>80.2</ele>
        <time>2015-05-05T18:31:07.139Z</time>
      </trkpt>
      <trkpt lat="48.84094" lon="2.36897">
        <ele>80</ele>
        <time>2015-05-05T18:31:08.149Z</time>
      </trkpt>
      <trkpt lat="48.84087" lon="2.36906">
        <ele>79.9</ele>
        <time>2015-05-05T18:31:09.156Z</time>
      </trkpt>
      <trkpt lat="48.84083" lon="2.36914">
        <ele>80.4</ele>
        <time>2015-05-05T18:31:10.190Z</time>
      </trkpt>
      <trkpt lat="48.84078" lon="2.36923">
        <ele>80.7</ele>
        <time>2015-05-05T18:31:11.200Z</time>
      </trkpt>
      <trkpt lat="48.84073" lon="2.36933">
        <ele>81</ele>
        <time>2015-05-05T18:31:12.210Z</time>
      </trkpt>
      <trkpt lat="48.84067" lon="2.36943">
        <ele>81.2</ele>
        <time>2015-05-05T18:31:13.219Z</time>
      </trkpt>
      <trkpt lat="48.84062" lon="2.36953">
        <ele>81.4</ele>
        <time>2015-05-05T18:31:14.224Z</time>
      </trkpt>
      <trkpt lat="48.84056" lon="2.36963">
        <ele>81.7</ele>
        <time>2015-05-05T18:31:15.145Z</time>
      </trkpt>
      <trkpt lat="48.84051" lon="2.36973">
        <ele>82.1</ele>
        <time>2015-05-05T18:31:16.187Z</time>
      </trkpt>
      <trkpt lat="48.84046" lon="2.36982">
        <ele>82.8</ele>
        <time>2015-05-05T18:31:17.216Z</time>
      </trkpt>
      <trkpt lat="48.84041" lon="2.3699">
        <ele>83.5</ele>
        <time>2015-05-05T18:31:18.146Z</time>
      </trkpt>
      <trkpt lat="48.84036" lon="2.36999">
        <ele>83.9</ele>
        <time>2015-05-05T18:31:19.155Z</time>
      </trkpt>
      <trkpt lat="48.8403" lon="2.37009">
        <ele>84</ele>
        <time>2015-05-05T18:31:20.166Z</time>
      </trkpt>
      <trkpt lat="48.84024" lon="2.37017">
        <ele>84.3</ele>
        <time>2015-05-05T18:31:21.166Z</time>
      </trkpt>
      <trkpt lat="48.8402" lon="2.37024">
        <ele>84.5</ele>
        <time>2015-05-05T18:31:22.192Z</time>
      </trkpt>
      <trkpt lat="48.84016" lon="2.37032">
        <ele>84.9</ele>
        <time>2015-05-05T18:31:23.201Z</time>
      </trkpt>
      <trkpt lat="48.84012" lon="2.37039">
        <ele>85.4</ele>
        <time>2015-05-05T18:31:24.161Z</time>
      </trkpt>
      <trkpt lat="48.84008" lon="2.37047">
        <ele>86</ele>
        <time>2015-05-05T18:31:25.135Z</time>
      </trkpt>
      <trkpt lat="48.84004" lon="2.37052">
        <ele>85.9</ele>
        <time>2015-05-05T18:31:26.142Z</time>
      </trkpt>
      <trkpt lat="48.83999" lon="2.37057">
        <ele>86.2</ele>
        <time>2015-05-05T18:31:27.175Z</time>
      </trkpt>
      <trkpt lat="48.83995" lon="2.37063">
        <ele>86.3</ele>
        <time>2015-05-05T18:31:28.208Z</time>
      </trkpt>
      <trkpt lat="48.8399" lon="2.37068">
        <ele>86.5</ele>
        <time>2015-05-05T18:31:29.129Z</time>
      </trkpt>
      <trkpt lat="48.83986" lon="2.37074">
        <ele>86.5</ele>
        <time>2015-05-05T18:31:30.151Z</time>
      </trkpt>
      <trkpt lat="48.83981" lon="2.37079">
        <ele>86.6</ele>
        <time>2015-05-05T18:31:31.165Z</time>
      </trkpt>
      <trkpt lat="48.83977" lon="2.37085">
        <ele>86.5</ele>
        <time>2015-05-05T18:31:32.195Z</time>
      </trkpt>
      <trkpt lat="48.83972" lon="2.37091">
        <ele>86.6</ele>
        <time>2015-05-05T18:31:33.205Z</time>
      </trkpt>
      <trkpt lat="48.83967" lon="2.37098">
        <ele>86.7</ele>
        <time>2015-05-05T18:31:34.267Z</time>
      </trkpt>
      <trkpt lat="48.83963" lon="2.37104">
        <ele>86.8</ele>
        <time>2015-05-05T18:31:35.125Z</time>
      </trkpt>
      <trkpt lat="48.83958" lon="2.37109">
        <ele>86.8</ele>
        <time>2015-05-05T18:31:36.147Z</time>
      </trkpt>
      <trkpt lat="48.83954" lon="2.37114">
        <ele>86.9</ele>
        <time>2015-05-05T18:31:37.158Z</time>
      </trkpt>
      <trkpt lat="48.83949" lon="2.37119">
        <ele>87.1</ele>
        <time>2015-05-05T18:31:38.174Z</time>
      </trkpt>
      <trkpt lat="48.83944" lon="2.37124">
        <ele>87.2</ele>
        <time>2015-05-05T18:31:39.184Z</time>
      </trkpt>
      <trkpt lat="48.8394" lon="2.37129">
        <ele>87.3</ele>
        <time>2015-05-05T18:31:40.253Z</time>
      </trkpt>
      <trkpt lat="48.83937" lon="2.37134">
        <ele>87.3</ele>
        <time>2015-05-05T18:31:41.098Z</time>
      </trkpt>
      <trkpt lat="48.83933" lon="2.37138">
        <ele>87.5</ele>
        <time>2015-05-05T18:31:42.120Z</time>
      </trkpt>
      <trkpt lat="48.8393" lon="2.37143">
        <ele>87.7</ele>
        <time>2015-05-05T18:31:43.129Z</time>
      </trkpt>
      <trkpt lat="48.83926" lon="2.37146">
        <ele>87.7</ele>
        <time>2015-05-05T18:31:44.135Z</time>
      </trkpt>
      <trkpt lat="48.83922" lon="2.3715">
        <ele>87.8</ele>
        <time>2015-05-05T18:31:45.145Z</time>
      </trkpt>
      <trkpt lat="48.83914" lon="2.37157">
        <ele>88</ele>
        <time>2015-05-05T18:31:47.185Z</time>
      </trkpt>
      <trkpt lat="48.8391" lon="2.37161">
        <ele>88.1</ele>
        <time>2015-05-05T18:31:48.193Z</time>
      </trkpt>
      <trkpt lat="48.83903" lon="2.37168">
        <ele>88.8</ele>
        <time>2015-05-05T18:31:50.153Z</time>
      </trkpt>
      <trkpt lat="48.83899" lon="2.37171">
        <ele>88.9</ele>
        <time>2015-05-05T18:31:51.169Z</time>
      </trkpt>
      <trkpt lat="48.83891" lon="2.37178">
        <ele>89.3</ele>
        <time>2015-05-05T18:31:53.134Z</time>
      </trkpt>
      <trkpt lat="48.83887" lon="2.37182">
        <ele>89.4</ele>
        <time>2015-05-05T18:31:54.193Z</time>
      </trkpt>
      <trkpt lat="48.83883" lon="2.37188">
        <ele>89.4</ele>
        <time>2015-05-05T18:31:55.196Z</time>
      </trkpt>
      <trkpt lat="48.83879" lon="2.37193">
        <ele>89.4</ele>
        <time>2015-05-05T18:31:56.210Z</time>
      </trkpt>
      <trkpt lat="48.83875" lon="2.37198">
        <ele>89.6</ele>
        <time>2015-05-05T18:31:57.127Z</time>
      </trkpt>
      <trkpt lat="48.83871" lon="2.37206">
        <ele>90</ele>
        <time>2015-05-05T18:31:58.235Z</time>
      </trkpt>
      <trkpt lat="48.83866" lon="2.37218">
        <ele>90.1</ele>
        <time>2015-05-05T18:31:59.125Z</time>
      </trkpt>
      <trkpt lat="48.83862" lon="2.37227">
        <ele>89.9</ele>
        <time>2015-05-05T18:32:00.158Z</time>
      </trkpt>
      <trkpt lat="48.83857" lon="2.37234">
        <ele>89.6</ele>
        <time>2015-05-05T18:32:01.175Z</time>
      </trkpt>
      <trkpt lat="48.83852" lon="2.3724">
        <ele>89.2</ele>
        <time>2015-05-05T18:32:02.224Z</time>
      </trkpt>
      <trkpt lat="48.83848" lon="2.37247">
        <ele>88.9</ele>
        <time>2015-05-05T18:32:03.280Z</time>
      </trkpt>
      <trkpt lat="48.83843" lon="2.37253">
        <ele>88.6</ele>
        <time>2015-05-05T18:32:04.187Z</time>
      </trkpt>
      <trkpt lat="48.83839" lon="2.37259">
        <ele>88.4</ele>
        <time>2015-05-05T18:32:05.194Z</time>
      </trkpt>
      <trkpt lat="48.83834" lon="2.37265">
        <ele>88.2</ele>
        <time>2015-05-05T18:32:06.212Z</time>
      </trkpt>
      <trkpt lat="48.83829" lon="2.37271">
        <ele>87.4</ele>
        <time>2015-05-05T18:32:07.228Z</time>
      </trkpt>
      <trkpt lat="48.83824" lon="2.37276">
        <ele>86.8</ele>
        <time>2015-05-05T18:32:08.239Z</time>
      </trkpt>
      <trkpt lat="48.83819" lon="2.37282">
        <ele>86.3</ele>
        <time>2015-05-05T18:32:09.139Z</time>
      </trkpt>
      <trkpt lat="48.83814" lon="2.37287">
        <ele>86.1</ele>
        <time>2015-05-05T18:32:10.185Z</time>
      </trkpt>
      <trkpt lat="48.8381" lon="2.37293">
        <ele>85.8</ele>
        <time>2015-05-05T18:32:11.387Z</time>
      </trkpt>
      <trkpt lat="48.83804" lon="2.37299">
        <ele>85.7</ele>
        <time>2015-05-05T18:32:12.208Z</time>
      </trkpt>
      <trkpt lat="48.83799" lon="2.37305">
        <ele>85.5</ele>
        <time>2015-05-05T18:32:13.224Z</time>
      </trkpt>
      <trkpt lat="48.83795" lon="2.3731">
        <ele>85.4</ele>
        <time>2015-05-05T18:32:14.136Z</time>
      </trkpt>
      <trkpt lat="48.83791" lon="2.37315">
        <ele>85.2</ele>
        <time>2015-05-05T18:32:15.139Z</time>
      </trkpt>
      <trkpt lat="48.83786" lon="2.3732">
        <ele>85</ele>
        <time>2015-05-05T18:32:16.181Z</time>
      </trkpt>
      <trkpt lat="48.83782" lon="2.37324">
        <ele>85</ele>
        <time>2015-05-05T18:32:17.198Z</time>
      </trkpt>
      <trkpt lat="48.83778" lon="2.37328">
        <ele>84.8</ele>
        <time>2015-05-05T18:32:18.152Z</time>
      </trkpt>
      <trkpt lat="48.83773" lon="2.37332">
        <ele>84.8</ele>
        <time>2015-05-05T18:32:19.132Z</time>
      </trkpt>
      <trkpt lat="48.83766" lon="2.37341">
        <ele>84.4</ele>
        <time>2015-05-05T18:32:21.141Z</time>
      </trkpt>
      <trkpt lat="48.83763" lon="2.37344">
        <ele>84.3</ele>
        <time>2015-05-05T18:32:22.201Z</time>
      </trkpt>
      <trkpt lat="48.83757" lon="2.37349">
        <ele>84.6</ele>
        <time>2015-05-05T18:32:24.482Z</time>
      </trkpt>
      <trkpt lat="48.83754" lon="2.37347">
        <ele>84.5</ele>
        <time>2015-05-05T18:32:25.131Z</time>
      </trkpt>
      <trkpt lat="48.8375" lon="2.37335">
        <ele>83</ele>
        <time>2015-05-05T18:32:27.108Z</time>
      </trkpt>
      <trkpt lat="48.83748" lon="2.3733">
        <ele>82.9</ele>
        <time>2015-05-05T18:32:28.164Z</time>
      </trkpt>
      <trkpt lat="48.83744" lon="2.37321">
        <ele>83</ele>
        <time>2015-05-05T18:32:30.546Z</time>
      </trkpt>
      <trkpt lat="48.83743" lon="2.37317">
        <ele>82.9</ele>
        <time>2015-05-05T18:32:31.108Z</time>
      </trkpt>
      <trkpt lat="48.83739" lon="2.37308">
        <ele>82.4</ele>
        <time>2015-05-05T18:32:33.170Z</time>
      </trkpt>
      <trkpt lat="48.83737" lon="2.37304">
        <ele>82.5</ele>
        <time>2015-05-05T18:32:34.184Z</time>
      </trkpt>
      <trkpt lat="48.83733" lon="2.37296">
        <ele>82.1</ele>
        <time>2015-05-05T18:32:36.160Z</time>
      </trkpt>
      <trkpt lat="48.83731" lon="2.37293">
        <ele>82.1</ele>
        <time>2015-05-05T18:32:37.143Z</time>
      </trkpt>
      <trkpt lat="48.83726" lon="2.37286">
        <ele>82.1</ele>
        <time>2015-05-05T18:32:39.165Z</time>
      </trkpt>
      <trkpt lat="48.83724" lon="2.37282">
        <ele>82.2</ele>
        <time>2015-05-05T18:32:40.163Z</time>
      </trkpt>
      <trkpt lat="48.83719" lon="2.37276">
        <ele>82.3</ele>
        <time>2015-05-05T18:32:42.136Z</time>
      </trkpt>
      <trkpt lat="48.83716" lon="2.37272">
        <ele>82.3</ele>
        <time>2015-05-05T18:32:43.156Z</time>
      </trkpt>
      <trkpt lat="48.83711" lon="2.37263">
        <ele>81.9</ele>
        <time>2015-05-05T18:32:45.211Z</time>
      </trkpt>
      <trkpt lat="48.83709" lon="2.37257">
        <ele>81.9</ele>
        <time>2015-05-05T18:32:46.223Z</time>
      </trkpt>
      <trkpt lat="48.83707" lon="2.37251">
        <ele>81.8</ele>
        <time>2015-05-05T18:32:47.143Z</time>
      </trkpt>
      <trkpt lat="48.83704" lon="2.37244">
        <ele>81.7</ele>
        <time>2015-05-05T18:32:48.164Z</time>
      </trkpt>
      <trkpt lat="48.83703" lon="2.37237">
        <ele>81.6</ele>
        <time>2015-05-05T18:32:49.177Z</time>
      </trkpt>
      <trkpt lat="48.83701" lon="2.3723">
        <ele>81.5</ele>
        <time>2015-05-05T18:32:50.178Z</time>
      </trkpt>
      <trkpt lat="48.83699" lon="2.37224">
        <ele>81.3</ele>
        <time>2015-05-05T18:32:51.194Z</time>
      </trkpt>
      <trkpt lat="48.83697" lon="2.37218">
        <ele>81.2</ele>
        <time>2015-05-05T18:32:52.214Z</time>
      </trkpt>
      <trkpt lat="48.83694" lon="2.37212">
        <ele>81.3</ele>
        <time>2015-05-05T18:32:53.463Z</time>
      </trkpt>
      <trkpt lat="48.83691" lon="2.37206">
        <ele>81.3</ele>
        <time>2015-05-05T18:32:54.126Z</time>
      </trkpt>
      <trkpt lat="48.83686" lon="2.37196">
        <ele>81.5</ele>
        <time>2015-05-05T18:32:56.161Z</time>
      </trkpt>
      <trkpt lat="48.83684" lon="2.37192">
        <ele>81.8</ele>
        <time>2015-05-05T18:32:57.160Z</time>
      </trkpt>
      <trkpt lat="48.83678" lon="2.37185">
        <ele>82.2</ele>
        <time>2015-05-05T18:32:59.264Z</time>
      </trkpt>
      <trkpt lat="48.83675" lon="2.37181">
        <ele>82.4</ele>
        <time>2015-05-05T18:33:00.186Z</time>
      </trkpt>
      <trkpt lat="48.83669" lon="2.3717">
        <ele>82.6</ele>
        <time>2015-05-05T18:33:03.145Z</time>
      </trkpt>
      <trkpt lat="48.83667" lon="2.37168">
        <ele>82.7</ele>
        <time>2015-05-05T18:33:04.179Z</time>
      </trkpt>
      <trkpt lat="48.83663" lon="2.3716">
        <ele>82.5</ele>
        <time>2015-05-05T18:33:06.107Z</time>
      </trkpt>
      <trkpt lat="48.83661" lon="2.37156">
        <ele>82.5</ele>
        <time>2015-05-05T18:33:07.183Z</time>
      </trkpt>
      <trkpt lat="48.83658" lon="2.37146">
        <ele>82.4</ele>
        <time>2015-05-05T18:33:09.213Z</time>
      </trkpt>
      <trkpt lat="48.83655" lon="2.37137">
        <ele>82.5</ele>
        <time>2015-05-05T18:33:11.245Z</time>
      </trkpt>
      <trkpt lat="48.83649" lon="2.3713">
        <ele>82.7</ele>
        <time>2015-05-05T18:33:13.166Z</time>
      </trkpt>
      <trkpt lat="48.83647" lon="2.37127">
        <ele>82.8</ele>
        <time>2015-05-05T18:33:14.179Z</time>
      </trkpt>
      <trkpt lat="48.83642" lon="2.3712">
        <ele>82.9</ele>
        <time>2015-05-05T18:33:16.225Z</time>
      </trkpt>
      <trkpt lat="48.8364" lon="2.37118">
        <ele>83</ele>
        <time>2015-05-05T18:33:17.198Z</time>
      </trkpt>
      <trkpt lat="48.83633" lon="2.37108">
        <ele>83.4</ele>
        <time>2015-05-05T18:33:21.210Z</time>
      </trkpt>
      <trkpt lat="48.83632" lon="2.37107">
        <ele>83.6</ele>
        <time>2015-05-05T18:33:22.252Z</time>
      </trkpt>
      <trkpt lat="48.83627" lon="2.37107">
        <ele>84</ele>
        <time>2015-05-05T18:33:27.140Z</time>
      </trkpt>
      <trkpt lat="48.83626" lon="2.37107">
        <ele>84</ele>
        <time>2015-05-05T18:33:28.223Z</time>
      </trkpt>
      <trkpt lat="48.83626" lon="2.37107">
        <ele>84</ele>
        <time>2015-05-05T18:33:28.381Z</time>
      </trkpt>
      <trkpt lat="48.83625" lon="2.37109">
        <ele>83.9</ele>
        <time>2015-05-05T18:33:29.169Z</time>
      </trkpt>
      <trkpt lat="48.83625" lon="2.3711">
        <ele>83.9</ele>
        <time>2015-05-05T18:33:30.195Z</time>
      </trkpt>
      <trkpt lat="48.83625" lon="2.3711">
        <ele>83.8</ele>
        <time>2015-05-05T18:33:31.251Z</time>
      </trkpt>
      <trkpt lat="48.83624" lon="2.37111">
        <ele>83.7</ele>
        <time>2015-05-05T18:33:32.148Z</time>
      </trkpt>
      <trkpt lat="48.83618" lon="2.3712">
        <ele>82.3</ele>
        <time>2015-05-05T18:33:47.166Z</time>
      </trkpt>
      <trkpt lat="48.83617" lon="2.37122">
        <ele>82.6</ele>
        <time>2015-05-05T18:33:48.247Z</time>
      </trkpt>
      <trkpt lat="48.83617" lon="2.37124">
        <ele>82.9</ele>
        <time>2015-05-05T18:33:50.199Z</time>
      </trkpt>
      <trkpt lat="48.83617" lon="2.37124">
        <ele>83.1</ele>
        <time>2015-05-05T18:33:51.200Z</time>
      </trkpt>
      <trkpt lat="48.83617" lon="2.37124">
        <ele>83.2</ele>
        <time>2015-05-05T18:33:52.228Z</time>
      </trkpt>
      <trkpt lat="48.83611" lon="2.37132">
        <ele>84.9</ele>
        <time>2015-05-05T18:34:05.163Z</time>
      </trkpt>
      <trkpt lat="48.83611" lon="2.37135">
        <ele>85.1</ele>
        <time>2015-05-05T18:34:06.175Z</time>
      </trkpt>
      <trkpt lat="48.83611" lon="2.37148">
        <ele>87</ele>
        <time>2015-05-05T18:34:11.268Z</time>
      </trkpt>
      <trkpt lat="48.83611" lon="2.37151">
        <ele>88.8</ele>
        <time>2015-05-05T18:34:12.198Z</time>
      </trkpt>
      <trkpt lat="48.83605" lon="2.37161">
        <ele>94.1</ele>
        <time>2015-05-05T18:34:19.179Z</time>
      </trkpt>
      <trkpt lat="48.83604" lon="2.37162">
        <ele>94.9</ele>
        <time>2015-05-05T18:34:20.191Z</time>
      </trkpt>
      <trkpt lat="48.83586" lon="2.37195">
        <ele>94.9</ele>
        <time>2015-05-05T18:34:35.140Z</time>
      </trkpt>
      <trkpt lat="48.83578" lon="2.37197">
        <ele>95.7</ele>
        <time>2015-05-05T18:34:38.181Z</time>
      </trkpt>
      <trkpt lat="48.83575" lon="2.37199">
        <ele>96</ele>
        <time>2015-05-05T18:34:39.137Z</time>
      </trkpt>
      <trkpt lat="48.83568" lon="2.37204">
        <ele>96.2</ele>
        <time>2015-05-05T18:34:41.225Z</time>
      </trkpt>
      <trkpt lat="48.83564" lon="2.37206">
        <ele>96.3</ele>
        <time>2015-05-05T18:34:42.128Z</time>
      </trkpt>
      <trkpt lat="48.83564" lon="2.37206">
        <ele>96.3</ele>
        <time>2015-05-05T18:34:43.080Z</time>
      </trkpt>
      <trkpt lat="48.8353" lon="2.37229">
        <ele>95</ele>
        <time>2015-05-05T18:34:52.277Z</time>
      </trkpt>
      <trkpt lat="48.83526" lon="2.37232">
        <ele>95.2</ele>
        <time>2015-05-05T18:34:53.254Z</time>
      </trkpt>
      <trkpt lat="48.83521" lon="2.37236">
        <ele>95.4</ele>
        <time>2015-05-05T18:34:54.170Z</time>
      </trkpt>
      <trkpt lat="48.83517" lon="2.3724">
        <ele>95.6</ele>
        <time>2015-05-05T18:34:55.178Z</time>
      </trkpt>
      <trkpt lat="48.83472" lon="2.37289">
        <ele>92.8</ele>
        <time>2015-05-05T18:35:06.140Z</time>
      </trkpt>
      <trkpt lat="48.83468" lon="2.37293">
        <ele>92.9</ele>
        <time>2015-05-05T18:35:07.250Z</time>
      </trkpt>
      <trkpt lat="48.83465" lon="2.37298">
        <ele>93.1</ele>
        <time>2015-05-05T18:35:08.137Z</time>
      </trkpt>
      <trkpt lat="48.83459" lon="2.37303">
        <ele>93.4</ele>
        <time>2015-05-05T18:35:09.152Z</time>
      </trkpt>
      <trkpt lat="48.83452" lon="2.37309">
        <ele>93.3</ele>
        <time>2015-05-05T18:35:10.283Z</time>
      </trkpt>
      <trkpt lat="48.83446" lon="2.37315">
        <ele>93.2</ele>
        <time>2015-05-05T18:35:11.173Z</time>
      </trkpt>
      <trkpt lat="48.83435" lon="2.37328">
        <ele>92.3</ele>
        <time>2015-05-05T18:35:12.179Z</time>
      </trkpt>
      <trkpt lat="48.83426" lon="2.37337">
        <ele>91.9</ele>
        <time>2015-05-05T18:35:13.181Z</time>
      </trkpt>
      <trkpt lat="48.83426" lon="2.37337">
        <ele>91.9</ele>
        <time>2015-05-05T18:35:13.391Z</time>
      </trkpt>
      <trkpt lat="48.83418" lon="2.37346">
        <ele>91.7</ele>
        <time>2015-05-05T18:35:14.189Z</time>
      </trkpt>
      <trkpt lat="48.83412" lon="2.37357">
        <ele>91.8</ele>
        <time>2015-05-05T18:35:15.211Z</time>
      </trkpt>
      <trkpt lat="48.83404" lon="2.37372">
        <ele>91.4</ele>
        <time>2015-05-05T18:35:16.228Z</time>
      </trkpt>
      <trkpt lat="48.83398" lon="2.37385">
        <ele>91.5</ele>
        <time>2015-05-05T18:35:17.252Z</time>
      </trkpt>
      <trkpt lat="48.83379" lon="2.37415">
        <ele>93</ele>
        <time>2015-05-05T18:35:21.293Z</time>
      </trkpt>
      <trkpt lat="48.83372" lon="2.37419">
        <ele>93.2</ele>
        <time>2015-05-05T18:35:22.229Z</time>
      </trkpt>
      <trkpt lat="48.83363" lon="2.37422">
        <ele>93.3</ele>
        <time>2015-05-05T18:35:23.166Z</time>
      </trkpt>
      <trkpt lat="48.83356" lon="2.37425">
        <ele>93.5</ele>
        <time>2015-05-05T18:35:24.172Z</time>
      </trkpt>
      <trkpt lat="48.83351" lon="2.37428">
        <ele>93.7</ele>
        <time>2015-05-05T18:35:25.175Z</time>
      </trkpt>
      <trkpt lat="48.83346" lon="2.37432">
        <ele>93.6</ele>
        <time>2015-05-05T18:35:26.188Z</time>
      </trkpt>
      <trkpt lat="48.83341" lon="2.37435">
        <ele>93.7</ele>
        <time>2015-05-05T18:35:27.194Z</time>
      </trkpt>
      <trkpt lat="48.83336" lon="2.37438">
        <ele>93.7</ele>
        <time>2015-05-05T18:35:28.229Z</time>
      </trkpt>
      <trkpt lat="48.83331" lon="2.37441">
        <ele>93.8</ele>
        <time>2015-05-05T18:35:29.234Z</time>
      </trkpt>
      <trkpt lat="48.83325" lon="2.37445">
        <ele>94</ele>
        <time>2015-05-05T18:35:30.241Z</time>
      </trkpt>
      <trkpt lat="48.83321" lon="2.37449">
        <ele>94.3</ele>
        <time>2015-05-05T18:35:31.244Z</time>
      </trkpt>
      <trkpt lat="48.83316" lon="2.37454">
        <ele>94.4</ele>
        <time>2015-05-05T18:35:32.257Z</time>
      </trkpt>
      <trkpt lat="48.83312" lon="2.37458">
        <ele>94.4</ele>
        <time>2015-05-05T18:35:33.153Z</time>
      </trkpt>
      <trkpt lat="48.83308" lon="2.37461">
        <ele>94.7</ele>
        <time>2015-05-05T18:35:34.273Z</time>
      </trkpt>
      <trkpt lat="48.83304" lon="2.37465">
        <ele>94.7</ele>
        <time>2015-05-05T18:35:35.167Z</time>
      </trkpt>
      <trkpt lat="48.833" lon="2.37469">
        <ele>94.7</ele>
        <time>2015-05-05T18:35:36.173Z</time>
      </trkpt>
      <trkpt lat="48.83296" lon="2.37473">
        <ele>94.7</ele>
        <time>2015-05-05T18:35:37.454Z</time>
      </trkpt>
      <trkpt lat="48.83288" lon="2.37479">
        <ele>94.5</ele>
        <time>2015-05-05T18:35:39.176Z</time>
      </trkpt>
      <trkpt lat="48.83285" lon="2.37482">
        <ele>94.5</ele>
        <time>2015-05-05T18:35:40.253Z</time>
      </trkpt>
      <trkpt lat="48.83281" lon="2.37484">
        <ele>94.6</ele>
        <time>2015-05-05T18:35:41.245Z</time>
      </trkpt>
      <trkpt lat="48.83277" lon="2.37488">
        <ele>94.7</ele>
        <time>2015-05-05T18:35:42.257Z</time>
      </trkpt>
      <trkpt lat="48.83269" lon="2.37495">
        <ele>94.9</ele>
        <time>2015-05-05T18:35:44.161Z</time>
      </trkpt>
      <trkpt lat="48.83265" lon="2.37499">
        <ele>94.8</ele>
        <time>2015-05-05T18:35:45.198Z</time>
      </trkpt>
      <trkpt lat="48.83261" lon="2.37503">
        <ele>94.9</ele>
        <time>2015-05-05T18:35:46.237Z</time>
      </trkpt>
      <trkpt lat="48.83257" lon="2.37507">
        <ele>94.9</ele>
        <time>2015-05-05T18:35:47.246Z</time>
      </trkpt>
      <trkpt lat="48.83253" lon="2.37511">
        <ele>94.9</ele>
        <time>2015-05-05T18:35:48.178Z</time>
      </trkpt>
      <trkpt lat="48.83249" lon="2.37515">
        <ele>95.1</ele>
        <time>2015-05-05T18:35:49.166Z</time>
      </trkpt>
      <trkpt lat="48.83245" lon="2.37519">
        <ele>95.1</ele>
        <time>2015-05-05T18:35:50.176Z</time>
      </trkpt>
      <trkpt lat="48.8324" lon="2.37524">
        <ele>95.1</ele>
        <time>2015-05-05T18:35:51.187Z</time>
      </trkpt>
      <trkpt lat="48.83236" lon="2.37528">
        <ele>95.2</ele>
        <time>2015-05-05T18:35:52.222Z</time>
      </trkpt>
      <trkpt lat="48.83232" lon="2.37533">
        <ele>95.3</ele>
        <time>2015-05-05T18:35:53.230Z</time>
      </trkpt>
      <trkpt lat="48.83225" lon="2.37541">
        <ele>95.1</ele>
        <time>2015-05-05T18:35:55.166Z</time>
      </trkpt>
      <trkpt lat="48.8322" lon="2.37545">
        <ele>95</ele>
        <time>2015-05-05T18:35:56.174Z</time>
      </trkpt>
      <trkpt lat="48.83216" lon="2.37549">
        <ele>94.8</ele>
        <time>2015-05-05T18:35:57.182Z</time>
      </trkpt>
      <trkpt lat="48.83211" lon="2.37552">
        <ele>94.6</ele>
        <time>2015-05-05T18:35:58.243Z</time>
      </trkpt>
      <trkpt lat="48.83207" lon="2.37556">
        <ele>94.6</ele>
        <time>2015-05-05T18:35:59.254Z</time>
      </trkpt>
      <trkpt lat="48.83203" lon="2.3756">
        <ele>94.7</ele>
        <time>2015-05-05T18:36:00.161Z</time>
      </trkpt>
      <trkpt lat="48.83196" lon="2.37563">
        <ele>95.3</ele>
        <time>2015-05-05T18:36:01.169Z</time>
      </trkpt>
      <trkpt lat="48.83192" lon="2.37565">
        <ele>95.5</ele>
        <time>2015-05-05T18:36:02.174Z</time>
      </trkpt>
      <trkpt lat="48.83184" lon="2.3757">
        <ele>95.9</ele>
        <time>2015-05-05T18:36:04.266Z</time>
      </trkpt>
      <trkpt lat="48.8318" lon="2.37572">
        <ele>96</ele>
        <time>2015-05-05T18:36:05.185Z</time>
      </trkpt>
      <trkpt lat="48.83172" lon="2.37578">
        <ele>96.4</ele>
        <time>2015-05-05T18:36:07.235Z</time>
      </trkpt>
      <trkpt lat="48.83167" lon="2.37579">
        <ele>96.6</ele>
        <time>2015-05-05T18:36:08.252Z</time>
      </trkpt>
      <trkpt lat="48.83163" lon="2.37581">
        <ele>96.8</ele>
        <time>2015-05-05T18:36:09.168Z</time>
      </trkpt>
      <trkpt lat="48.83159" lon="2.37584">
        <ele>97.1</ele>
        <time>2015-05-05T18:36:10.224Z</time>
      </trkpt>
      <trkpt lat="48.83154" lon="2.37591">
        <ele>98.1</ele>
        <time>2015-05-05T18:36:12.165Z</time>
      </trkpt>
      <trkpt lat="48.83148" lon="2.37596">
        <ele>99.7</ele>
        <time>2015-05-05T18:36:13.198Z</time>
      </trkpt>
      <trkpt lat="48.83144" lon="2.37601">
        <ele>100.2</ele>
        <time>2015-05-05T18:36:14.209Z</time>
      </trkpt>
      <trkpt lat="48.83137" lon="2.37614">
        <ele>99.3</ele>
        <time>2015-05-05T18:36:15.220Z</time>
      </trkpt>
      <trkpt lat="48.83133" lon="2.37619">
        <ele>99.7</ele>
        <time>2015-05-05T18:36:16.232Z</time>
      </trkpt>
      <trkpt lat="48.83129" lon="2.37624">
        <ele>100.5</ele>
        <time>2015-05-05T18:36:17.242Z</time>
      </trkpt>
      <trkpt lat="48.83125" lon="2.37629">
        <ele>101.3</ele>
        <time>2015-05-05T18:36:18.163Z</time>
      </trkpt>
      <trkpt lat="48.83121" lon="2.37634">
        <ele>102</ele>
        <time>2015-05-05T18:36:19.166Z</time>
      </trkpt>
      <trkpt lat="48.83115" lon="2.37643">
        <ele>103.4</ele>
        <time>2015-05-05T18:36:21.182Z</time>
      </trkpt>
      <trkpt lat="48.83112" lon="2.37646">
        <ele>104.1</ele>
        <time>2015-05-05T18:36:22.252Z</time>
      </trkpt>
      <trkpt lat="48.83107" lon="2.37652">
        <ele>105</ele>
        <time>2015-05-05T18:36:24.172Z</time>
      </trkpt>
      <trkpt lat="48.83104" lon="2.37656">
        <ele>105.7</ele>
        <time>2015-05-05T18:36:25.185Z</time>
      </trkpt>
      <trkpt lat="48.83098" lon="2.37663">
        <ele>106.8</ele>
        <time>2015-05-05T18:36:27.255Z</time>
      </trkpt>
      <trkpt lat="48.83095" lon="2.37666">
        <ele>107.2</ele>
        <time>2015-05-05T18:36:28.267Z</time>
      </trkpt>
      <trkpt lat="48.83087" lon="2.37668">
        <ele>108.3</ele>
        <time>2015-05-05T18:36:31.200Z</time>
      </trkpt>
      <trkpt lat="48.83082" lon="2.37666">
        <ele>107.9</ele>
        <time>2015-05-05T18:36:32.210Z</time>
      </trkpt>
      <trkpt lat="48.83077" lon="2.37659">
        <ele>106.3</ele>
        <time>2015-05-05T18:36:33.231Z</time>
      </trkpt>
      <trkpt lat="48.83073" lon="2.37656">
        <ele>105.8</ele>
        <time>2015-05-05T18:36:34.236Z</time>
      </trkpt>
      <trkpt lat="48.83065" lon="2.37653">
        <ele>102.9</ele>
        <time>2015-05-05T18:36:50.196Z</time>
      </trkpt>
      <trkpt lat="48.83064" lon="2.37652">
        <ele>102.8</ele>
        <time>2015-05-05T18:36:51.235Z</time>
      </trkpt>
      <trkpt lat="48.83058" lon="2.37661">
        <ele>102.6</ele>
        <time>2015-05-05T18:36:59.188Z</time>
      </trkpt>
      <trkpt lat="48.83056" lon="2.37662">
        <ele>102.9</ele>
        <time>2015-05-05T18:37:00.139Z</time>
      </trkpt>
      <trkpt lat="48.83058" lon="2.37674">
        <ele>101.8</ele>
        <time>2015-05-05T18:37:04.283Z</time>
      </trkpt>
      <trkpt lat="48.8306" lon="2.37679">
        <ele>101.8</ele>
        <time>2015-05-05T18:37:05.165Z</time>
      </trkpt>
      <trkpt lat="48.83064" lon="2.37683">
        <ele>101.1</ele>
        <time>2015-05-05T18:37:06.388Z</time>
      </trkpt>
      <trkpt lat="48.83068" lon="2.37688">
        <ele>100.7</ele>
        <time>2015-05-05T18:37:07.183Z</time>
      </trkpt>
      <trkpt lat="48.83073" lon="2.37697">
        <ele>100.6</ele>
        <time>2015-05-05T18:37:09.207Z</time>
      </trkpt>
      <trkpt lat="48.83075" lon="2.37701">
        <ele>100.7</ele>
        <time>2015-05-05T18:37:10.292Z</time>
      </trkpt>
      <trkpt lat="48.83078" lon="2.37705">
        <ele>100</ele>
        <time>2015-05-05T18:37:11.163Z</time>
      </trkpt>
      <trkpt lat="48.83082" lon="2.3771">
        <ele>99.8</ele>
        <time>2015-05-05T18:37:12.165Z</time>
      </trkpt>
      <trkpt lat="48.83086" lon="2.37717">
        <ele>99</ele>
        <time>2015-05-05T18:37:13.170Z</time>
      </trkpt>
      <trkpt lat="48.83091" lon="2.37724">
        <ele>98.7</ele>
        <time>2015-05-05T18:37:14.179Z</time>
      </trkpt>
      <trkpt lat="48.83097" lon="2.3773">
        <ele>98.5</ele>
        <time>2015-05-05T18:37:15.196Z</time>
      </trkpt>
      <trkpt lat="48.83103" lon="2.37736">
        <ele>98.3</ele>
        <time>2015-05-05T18:37:16.207Z</time>
      </trkpt>
      <trkpt lat="48.83108" lon="2.37742">
        <ele>98.2</ele>
        <time>2015-05-05T18:37:17.146Z</time>
      </trkpt>
      <trkpt lat="48.83113" lon="2.37748">
        <ele>97.6</ele>
        <time>2015-05-05T18:37:18.153Z</time>
      </trkpt>
      <trkpt lat="48.83119" lon="2.37754">
        <ele>97.6</ele>
        <time>2015-05-05T18:37:19.158Z</time>
      </trkpt>
      <trkpt lat="48.83124" lon="2.3776">
        <ele>97.5</ele>
        <time>2015-05-05T18:37:20.163Z</time>
      </trkpt>
      <trkpt lat="48.83129" lon="2.37767">
        <ele>97.7</ele>
        <time>2015-05-05T18:37:21.171Z</time>
      </trkpt>
      <trkpt lat="48.83135" lon="2.37774">
        <ele>98.7</ele>
        <time>2015-05-05T18:37:22.195Z</time>
      </trkpt>
      <trkpt lat="48.8314" lon="2.37781">
        <ele>99.4</ele>
        <time>2015-05-05T18:37:23.191Z</time>
      </trkpt>
      <trkpt lat="48.83146" lon="2.37789">
        <ele>99.8</ele>
        <time>2015-05-05T18:37:24.199Z</time>
      </trkpt>
      <trkpt lat="48.8315" lon="2.37798">
        <ele>100.3</ele>
        <time>2015-05-05T18:37:25.205Z</time>
      </trkpt>
      <trkpt lat="48.83155" lon="2.37807">
        <ele>100.7</ele>
        <time>2015-05-05T18:37:26.212Z</time>
      </trkpt>
      <trkpt lat="48.8316" lon="2.37817">
        <ele>100.9</ele>
        <time>2015-05-05T18:37:27.143Z</time>
      </trkpt>
      <trkpt lat="48.83165" lon="2.37826">
        <ele>101.2</ele>
        <time>2015-05-05T18:37:28.256Z</time>
      </trkpt>
      <trkpt lat="48.83169" lon="2.37835">
        <ele>101.6</ele>
        <time>2015-05-05T18:37:29.143Z</time>
      </trkpt>
      <trkpt lat="48.83173" lon="2.37843">
        <ele>101.8</ele>
        <time>2015-05-05T18:37:30.156Z</time>
      </trkpt>
      <trkpt lat="48.83177" lon="2.37851">
        <ele>102</ele>
        <time>2015-05-05T18:37:31.171Z</time>
      </trkpt>
      <trkpt lat="48.83181" lon="2.37859">
        <ele>102.3</ele>
        <time>2015-05-05T18:37:32.180Z</time>
      </trkpt>
      <trkpt lat="48.83186" lon="2.37865">
        <ele>102.6</ele>
        <time>2015-05-05T18:37:33.190Z</time>
      </trkpt>
      <trkpt lat="48.8319" lon="2.37871">
        <ele>102.8</ele>
        <time>2015-05-05T18:37:34.197Z</time>
      </trkpt>
      <trkpt lat="48.83193" lon="2.37879">
        <ele>103</ele>
        <time>2015-05-05T18:37:35.104Z</time>
      </trkpt>
      <trkpt lat="48.83197" lon="2.37888">
        <ele>103.3</ele>
        <time>2015-05-05T18:37:36.112Z</time>
      </trkpt>
      <trkpt lat="48.83201" lon="2.37898">
        <ele>103.5</ele>
        <time>2015-05-05T18:37:37.132Z</time>
      </trkpt>
      <trkpt lat="48.83204" lon="2.37905">
        <ele>103.4</ele>
        <time>2015-05-05T18:37:38.149Z</time>
      </trkpt>
      <trkpt lat="48.83208" lon="2.37913">
        <ele>103.3</ele>
        <time>2015-05-05T18:37:39.157Z</time>
      </trkpt>
      <trkpt lat="48.83211" lon="2.37922">
        <ele>103.3</ele>
        <time>2015-05-05T18:37:40.172Z</time>
      </trkpt>
      <trkpt lat="48.83215" lon="2.3793">
        <ele>103.4</ele>
        <time>2015-05-05T18:37:41.178Z</time>
      </trkpt>
      <trkpt lat="48.83217" lon="2.37939">
        <ele>103.4</ele>
        <time>2015-05-05T18:37:42.187Z</time>
      </trkpt>
      <trkpt lat="48.83221" lon="2.37948">
        <ele>103.5</ele>
        <time>2015-05-05T18:37:43.113Z</time>
      </trkpt>
      <trkpt lat="48.83225" lon="2.37958">
        <ele>103.2</ele>
        <time>2015-05-05T18:37:44.120Z</time>
      </trkpt>
      <trkpt lat="48.83229" lon="2.37967">
        <ele>103</ele>
        <time>2015-05-05T18:37:45.130Z</time>
      </trkpt>
      <trkpt lat="48.83233" lon="2.37976">
        <ele>102.4</ele>
        <time>2015-05-05T18:37:46.166Z</time>
      </trkpt>
      <trkpt lat="48.83237" lon="2.37986">
        <ele>102.4</ele>
        <time>2015-05-05T18:37:47.193Z</time>
      </trkpt>
      <trkpt lat="48.83241" lon="2.37994">
        <ele>102</ele>
        <time>2015-05-05T18:37:48.218Z</time>
      </trkpt>
      <trkpt lat="48.83245" lon="2.38003">
        <ele>101.7</ele>
        <time>2015-05-05T18:37:49.129Z</time>
      </trkpt>
      <trkpt lat="48.83249" lon="2.38012">
        <ele>101.3</ele>
        <time>2015-05-05T18:37:50.139Z</time>
      </trkpt>
      <trkpt lat="48.83254" lon="2.38021">
        <ele>100.9</ele>
        <time>2015-05-05T18:37:51.142Z</time>
      </trkpt>
      <trkpt lat="48.83258" lon="2.38029">
        <ele>100.5</ele>
        <time>2015-05-05T18:37:52.181Z</time>
      </trkpt>
      <trkpt lat="48.83262" lon="2.38037">
        <ele>100.4</ele>
        <time>2015-05-05T18:37:53.180Z</time>
      </trkpt>
      <trkpt lat="48.83267" lon="2.38045">
        <ele>100.1</ele>
        <time>2015-05-05T18:37:54.187Z</time>
      </trkpt>
      <trkpt lat="48.83271" lon="2.38052">
        <ele>99.5</ele>
        <time>2015-05-05T18:37:55.258Z</time>
      </trkpt>
      <trkpt lat="48.83275" lon="2.3806">
        <ele>99.5</ele>
        <time>2015-05-05T18:37:56.131Z</time>
      </trkpt>
      <trkpt lat="48.83279" lon="2.38067">
        <ele>99.3</ele>
        <time>2015-05-05T18:37:57.159Z</time>
      </trkpt>
      <trkpt lat="48.83282" lon="2.38074">
        <ele>99.1</ele>
        <time>2015-05-05T18:37:58.199Z</time>
      </trkpt>
      <trkpt lat="48.83286" lon="2.38081">
        <ele>98.8</ele>
        <time>2015-05-05T18:37:59.248Z</time>
      </trkpt>
      <trkpt lat="48.83289" lon="2.38088">
        <ele>98.5</ele>
        <time>2015-05-05T18:38:00.153Z</time>
      </trkpt>
      <trkpt lat="48.83293" lon="2.38095">
        <ele>98.4</ele>
        <time>2015-05-05T18:38:01.162Z</time>
      </trkpt>
      <trkpt lat="48.83296" lon="2.38102">
        <ele>98.1</ele>
        <time>2015-05-05T18:38:02.170Z</time>
      </trkpt>
      <trkpt lat="48.83299" lon="2.38108">
        <ele>98</ele>
        <time>2015-05-05T18:38:03.188Z</time>
      </trkpt>
      <trkpt lat="48.83302" lon="2.38115">
        <ele>97.5</ele>
        <time>2015-05-05T18:38:04.257Z</time>
      </trkpt>
      <trkpt lat="48.83306" lon="2.38121">
        <ele>97.2</ele>
        <time>2015-05-05T18:38:05.224Z</time>
      </trkpt>
      <trkpt lat="48.83309" lon="2.38128">
        <ele>96.8</ele>
        <time>2015-05-05T18:38:06.239Z</time>
      </trkpt>
      <trkpt lat="48.83312" lon="2.38136">
        <ele>96.6</ele>
        <time>2015-05-05T18:38:07.162Z</time>
      </trkpt>
      <trkpt lat="48.83316" lon="2.38143">
        <ele>96.3</ele>
        <time>2015-05-05T18:38:08.157Z</time>
      </trkpt>
      <trkpt lat="48.8332" lon="2.3815">
        <ele>96.1</ele>
        <time>2015-05-05T18:38:09.164Z</time>
      </trkpt>
      <trkpt lat="48.83323" lon="2.38156">
        <ele>95.8</ele>
        <time>2015-05-05T18:38:10.266Z</time>
      </trkpt>
      <trkpt lat="48.83326" lon="2.38163">
        <ele>95.5</ele>
        <time>2015-05-05T18:38:11.162Z</time>
      </trkpt>
      <trkpt lat="48.8333" lon="2.38169">
        <ele>95.3</ele>
        <time>2015-05-05T18:38:12.163Z</time>
      </trkpt>
      <trkpt lat="48.83334" lon="2.38176">
        <ele>95.2</ele>
        <time>2015-05-05T18:38:13.217Z</time>
      </trkpt>
      <trkpt lat="48.83337" lon="2.38182">
        <ele>95.2</ele>
        <time>2015-05-05T18:38:14.240Z</time>
      </trkpt>
      <trkpt lat="48.8334" lon="2.38188">
        <ele>95.1</ele>
        <time>2015-05-05T18:38:15.248Z</time>
      </trkpt>
      <trkpt lat="48.83343" lon="2.38193">
        <ele>94.9</ele>
        <time>2015-05-05T18:38:16.281Z</time>
      </trkpt>
      <trkpt lat="48.83348" lon="2.38202">
        <ele>94.4</ele>
        <time>2015-05-05T18:38:18.173Z</time>
      </trkpt>
      <trkpt lat="48.83349" lon="2.38205">
        <ele>94</ele>
        <time>2015-05-05T18:38:19.185Z</time>
      </trkpt>
      <trkpt lat="48.83349" lon="2.38206">
        <ele>93.8</ele>
        <time>2015-05-05T18:38:21.157Z</time>
      </trkpt>
      <trkpt lat="48.83349" lon="2.38206">
        <ele>93.4</ele>
        <time>2015-05-05T18:38:22.203Z</time>
      </trkpt>
      <trkpt lat="48.83348" lon="2.38205">
        <ele>93.3</ele>
        <time>2015-05-05T18:38:31.292Z</time>
      </trkpt>
      <trkpt lat="48.83347" lon="2.38207">
        <ele>92.6</ele>
        <time>2015-05-05T18:38:32.162Z</time>
      </trkpt>
      <trkpt lat="48.83351" lon="2.38219">
        <ele>93.1</ele>
        <time>2015-05-05T18:38:37.248Z</time>
      </trkpt>
      <trkpt lat="48.83353" lon="2.38223">
        <ele>93</ele>
        <time>2015-05-05T18:38:38.184Z</time>
      </trkpt>
      <trkpt lat="48.83358" lon="2.38231">
        <ele>93.1</ele>
        <time>2015-05-05T18:38:40.190Z</time>
      </trkpt>
      <trkpt lat="48.8336" lon="2.38235">
        <ele>93.1</ele>
        <time>2015-05-05T18:38:41.208Z</time>
      </trkpt>
      <trkpt lat="48.83366" lon="2.38243">
        <ele>93.2</ele>
        <time>2015-05-05T18:38:43.255Z</time>
      </trkpt>
      <trkpt lat="48.83368" lon="2.38247">
        <ele>93.2</ele>
        <time>2015-05-05T18:38:44.175Z</time>
      </trkpt>
      <trkpt lat="48.83374" lon="2.38253">
        <ele>93.2</ele>
        <time>2015-05-05T18:38:46.243Z</time>
      </trkpt>
      <trkpt lat="48.83378" lon="2.38258">
        <ele>93</ele>
        <time>2015-05-05T18:38:47.176Z</time>
      </trkpt>
      <trkpt lat="48.83386" lon="2.38264">
        <ele>93.1</ele>
        <time>2015-05-05T18:38:49.167Z</time>
      </trkpt>
      <trkpt lat="48.83389" lon="2.38267">
        <ele>93.1</ele>
        <time>2015-05-05T18:38:50.183Z</time>
      </trkpt>
      <trkpt lat="48.83396" lon="2.38273">
        <ele>93.2</ele>
        <time>2015-05-05T18:38:52.255Z</time>
      </trkpt>
      <trkpt lat="48.83398" lon="2.38277">
        <ele>93.2</ele>
        <time>2015-05-05T18:38:53.169Z</time>
      </trkpt>
      <trkpt lat="48.83399" lon="2.38284">
        <ele>93.1</ele>
        <time>2015-05-05T18:38:54.175Z</time>
      </trkpt>
      <trkpt lat="48.83401" lon="2.3829">
        <ele>93</ele>
        <time>2015-05-05T18:38:55.171Z</time>
      </trkpt>
      <trkpt lat="48.83404" lon="2.38296">
        <ele>92.9</ele>
        <time>2015-05-05T18:38:56.185Z</time>
      </trkpt>
      <trkpt lat="48.83407" lon="2.38301">
        <ele>92.8</ele>
        <time>2015-05-05T18:38:57.195Z</time>
      </trkpt>
      <trkpt lat="48.83409" lon="2.38309">
        <ele>92.8</ele>
        <time>2015-05-05T18:38:58.222Z</time>
      </trkpt>
      <trkpt lat="48.83412" lon="2.38317">
        <ele>92.8</ele>
        <time>2015-05-05T18:38:59.127Z</time>
      </trkpt>
      <trkpt lat="48.83413" lon="2.38324">
        <ele>92.9</ele>
        <time>2015-05-05T18:39:00.131Z</time>
      </trkpt>
      <trkpt lat="48.83415" lon="2.38331">
        <ele>93.1</ele>
        <time>2015-05-05T18:39:01.140Z</time>
      </trkpt>
      <trkpt lat="48.83418" lon="2.38343">
        <ele>93.3</ele>
        <time>2015-05-05T18:39:03.173Z</time>
      </trkpt>
      <trkpt lat="48.8342" lon="2.38348">
        <ele>93.6</ele>
        <time>2015-05-05T18:39:04.225Z</time>
      </trkpt>
      <trkpt lat="48.83422" lon="2.38354">
        <ele>94</ele>
        <time>2015-05-05T18:39:05.132Z</time>
      </trkpt>
      <trkpt lat="48.83425" lon="2.38362">
        <ele>94.3</ele>
        <time>2015-05-05T18:39:06.120Z</time>
      </trkpt>
      <trkpt lat="48.83428" lon="2.38368">
        <ele>94.4</ele>
        <time>2015-05-05T18:39:07.145Z</time>
      </trkpt>
      <trkpt lat="48.83431" lon="2.38373">
        <ele>94.4</ele>
        <time>2015-05-05T18:39:08.173Z</time>
      </trkpt>
      <trkpt lat="48.83435" lon="2.38384">
        <ele>94.4</ele>
        <time>2015-05-05T18:39:10.199Z</time>
      </trkpt>
      <trkpt lat="48.83438" lon="2.38389">
        <ele>94.3</ele>
        <time>2015-05-05T18:39:11.210Z</time>
      </trkpt>
      <trkpt lat="48.83443" lon="2.384">
        <ele>94.3</ele>
        <time>2015-05-05T18:39:13.143Z</time>
      </trkpt>
      <trkpt lat="48.83447" lon="2.38406">
        <ele>94.2</ele>
        <time>2015-05-05T18:39:14.137Z</time>
      </trkpt>
      <trkpt lat="48.83452" lon="2.38413">
        <ele>93.5</ele>
        <time>2015-05-05T18:39:15.157Z</time>
      </trkpt>
      <trkpt lat="48.83458" lon="2.3842">
        <ele>93.1</ele>
        <time>2015-05-05T18:39:16.190Z</time>
      </trkpt>
      <trkpt lat="48.83463" lon="2.38427">
        <ele>92.9</ele>
        <time>2015-05-05T18:39:17.206Z</time>
      </trkpt>
      <trkpt lat="48.83468" lon="2.38433">
        <ele>92.7</ele>
        <time>2015-05-05T18:39:18.221Z</time>
      </trkpt>
      <trkpt lat="48.83473" lon="2.38438">
        <ele>92.3</ele>
        <time>2015-05-05T18:39:19.152Z</time>
      </trkpt>
      <trkpt lat="48.83478" lon="2.38443">
        <ele>92</ele>
        <time>2015-05-05T18:39:20.148Z</time>
      </trkpt>
      <trkpt lat="48.83484" lon="2.38447">
        <ele>91.6</ele>
        <time>2015-05-05T18:39:21.167Z</time>
      </trkpt>
      <trkpt lat="48.83488" lon="2.38452">
        <ele>91.2</ele>
        <time>2015-05-05T18:39:22.183Z</time>
      </trkpt>
      <trkpt lat="48.83494" lon="2.38458">
        <ele>90.9</ele>
        <time>2015-05-05T18:39:23.803Z</time>
      </trkpt>
      <trkpt lat="48.83496" lon="2.38466">
        <ele>91.2</ele>
        <time>2015-05-05T18:39:24.127Z</time>
      </trkpt>
      <trkpt lat="48.83499" lon="2.38475">
        <ele>91.6</ele>
        <time>2015-05-05T18:39:25.138Z</time>
      </trkpt>
      <trkpt lat="48.83503" lon="2.38483">
        <ele>91.8</ele>
        <time>2015-05-05T18:39:26.134Z</time>
      </trkpt>
      <trkpt lat="48.83506" lon="2.38492">
        <ele>92.1</ele>
        <time>2015-05-05T18:39:27.143Z</time>
      </trkpt>
      <trkpt lat="48.8351" lon="2.385">
        <ele>92.3</ele>
        <time>2015-05-05T18:39:28.189Z</time>
      </trkpt>
      <trkpt lat="48.83514" lon="2.38507">
        <ele>92.4</ele>
        <time>2015-05-05T18:39:29.185Z</time>
      </trkpt>
      <trkpt lat="48.8352" lon="2.38515">
        <ele>92.2</ele>
        <time>2015-05-05T18:39:30.195Z</time>
      </trkpt>
      <trkpt lat="48.83524" lon="2.38524">
        <ele>92</ele>
        <time>2015-05-05T18:39:31.211Z</time>
      </trkpt>
      <trkpt lat="48.83529" lon="2.38532">
        <ele>91.9</ele>
        <time>2015-05-05T18:39:32.134Z</time>
      </trkpt>
      <trkpt lat="48.83534" lon="2.3854">
        <ele>91.6</ele>
        <time>2015-05-05T18:39:33.145Z</time>
      </trkpt>
      <trkpt lat="48.83539" lon="2.38547">
        <ele>91.6</ele>
        <time>2015-05-05T18:39:34.203Z</time>
      </trkpt>
      <trkpt lat="48.83543" lon="2.38556">
        <ele>91.5</ele>
        <time>2015-05-05T18:39:35.187Z</time>
      </trkpt>
      <trkpt lat="48.83548" lon="2.38566">
        <ele>91.7</ele>
        <time>2015-05-05T18:39:36.196Z</time>
      </trkpt>
      <trkpt lat="48.83552" lon="2.38575">
        <ele>91.5</ele>
        <time>2015-05-05T18:39:37.146Z</time>
      </trkpt>
      <trkpt lat="48.83557" lon="2.38584">
        <ele>91.5</ele>
        <time>2015-05-05T18:39:38.183Z</time>
      </trkpt>
      <trkpt lat="48.83562" lon="2.38592">
        <ele>91.2</ele>
        <time>2015-05-05T18:39:39.204Z</time>
      </trkpt>
      <trkpt lat="48.83567" lon="2.38601">
        <ele>91.1</ele>
        <time>2015-05-05T18:39:40.231Z</time>
      </trkpt>
      <trkpt lat="48.83571" lon="2.38608">
        <ele>90.9</ele>
        <time>2015-05-05T18:39:41.128Z</time>
      </trkpt>
      <trkpt lat="48.83577" lon="2.38615">
        <ele>90.4</ele>
        <time>2015-05-05T18:39:42.118Z</time>
      </trkpt>
      <trkpt lat="48.83581" lon="2.38622">
        <ele>90.1</ele>
        <time>2015-05-05T18:39:43.141Z</time>
      </trkpt>
      <trkpt lat="48.83585" lon="2.3863">
        <ele>90.1</ele>
        <time>2015-05-05T18:39:44.148Z</time>
      </trkpt>
      <trkpt lat="48.83589" lon="2.38637">
        <ele>90.1</ele>
        <time>2015-05-05T18:39:45.181Z</time>
      </trkpt>
      <trkpt lat="48.83592" lon="2.38645">
        <ele>89.9</ele>
        <time>2015-05-05T18:39:46.194Z</time>
      </trkpt>
      <trkpt lat="48.83594" lon="2.3865">
        <ele>90.1</ele>
        <time>2015-05-05T18:39:47.405Z</time>
      </trkpt>
      <trkpt lat="48.83598" lon="2.38655">
        <ele>90.5</ele>
        <time>2015-05-05T18:39:48.121Z</time>
      </trkpt>
      <trkpt lat="48.83601" lon="2.38664">
        <ele>91.1</ele>
        <time>2015-05-05T18:39:49.143Z</time>
      </trkpt>
      <trkpt lat="48.83604" lon="2.38673">
        <ele>91.5</ele>
        <time>2015-05-05T18:39:50.149Z</time>
      </trkpt>
      <trkpt lat="48.83605" lon="2.38683">
        <ele>91.9</ele>
        <time>2015-05-05T18:39:51.185Z</time>
      </trkpt>
      <trkpt lat="48.83607" lon="2.38691">
        <ele>92.3</ele>
        <time>2015-05-05T18:39:52.223Z</time>
      </trkpt>
      <trkpt lat="48.83609" lon="2.38699">
        <ele>92.6</ele>
        <time>2015-05-05T18:39:53.118Z</time>
      </trkpt>
      <trkpt lat="48.83611" lon="2.38706">
        <ele>92.7</ele>
        <time>2015-05-05T18:39:54.117Z</time>
      </trkpt>
      <trkpt lat="48.83613" lon="2.38714">
        <ele>92.8</ele>
        <time>2015-05-05T18:39:55.122Z</time>
      </trkpt>
      <trkpt lat="48.83616" lon="2.38722">
        <ele>92.9</ele>
        <time>2015-05-05T18:39:56.137Z</time>
      </trkpt>
      <trkpt lat="48.83619" lon="2.38731">
        <ele>92.9</ele>
        <time>2015-05-05T18:39:57.143Z</time>
      </trkpt>
      <trkpt lat="48.83622" lon="2.38738">
        <ele>92.9</ele>
        <time>2015-05-05T18:39:58.172Z</time>
      </trkpt>
      <trkpt lat="48.83625" lon="2.38744">
        <ele>92.9</ele>
        <time>2015-05-05T18:39:59.189Z</time>
      </trkpt>
      <trkpt lat="48.83629" lon="2.3875">
        <ele>93</ele>
        <time>2015-05-05T18:40:00.196Z</time>
      </trkpt>
      <trkpt lat="48.83632" lon="2.38756">
        <ele>93</ele>
        <time>2015-05-05T18:40:01.119Z</time>
      </trkpt>
      <trkpt lat="48.83635" lon="2.38762">
        <ele>92.6</ele>
        <time>2015-05-05T18:40:02.124Z</time>
      </trkpt>
      <trkpt lat="48.83638" lon="2.38767">
        <ele>92.5</ele>
        <time>2015-05-05T18:40:03.131Z</time>
      </trkpt>
      <trkpt lat="48.83641" lon="2.38773">
        <ele>92.2</ele>
        <time>2015-05-05T18:40:04.199Z</time>
      </trkpt>
      <trkpt lat="48.83645" lon="2.38778">
        <ele>92.3</ele>
        <time>2015-05-05T18:40:05.210Z</time>
      </trkpt>
      <trkpt lat="48.83648" lon="2.38782">
        <ele>92.5</ele>
        <time>2015-05-05T18:40:06.116Z</time>
      </trkpt>
      <trkpt lat="48.8365" lon="2.38787">
        <ele>92.7</ele>
        <time>2015-05-05T18:40:07.127Z</time>
      </trkpt>
      <trkpt lat="48.83653" lon="2.38797">
        <ele>93.6</ele>
        <time>2015-05-05T18:40:08.135Z</time>
      </trkpt>
      <trkpt lat="48.83656" lon="2.38803">
        <ele>94.2</ele>
        <time>2015-05-05T18:40:09.175Z</time>
      </trkpt>
      <trkpt lat="48.83659" lon="2.38807">
        <ele>94.5</ele>
        <time>2015-05-05T18:40:10.181Z</time>
      </trkpt>
      <trkpt lat="48.83665" lon="2.38815">
        <ele>94.8</ele>
        <time>2015-05-05T18:40:12.193Z</time>
      </trkpt>
      <trkpt lat="48.83667" lon="2.38819">
        <ele>94.9</ele>
        <time>2015-05-05T18:40:13.130Z</time>
      </trkpt>
      <trkpt lat="48.83672" lon="2.38826">
        <ele>95</ele>
        <time>2015-05-05T18:40:15.156Z</time>
      </trkpt>
      <trkpt lat="48.83673" lon="2.38833">
        <ele>95.5</ele>
        <time>2015-05-05T18:40:16.241Z</time>
      </trkpt>
      <trkpt lat="48.83673" lon="2.38839">
        <ele>95.6</ele>
        <time>2015-05-05T18:40:17.138Z</time>
      </trkpt>
      <trkpt lat="48.83638" lon="2.38994">
        <ele>96.3</ele>
        <time>2015-05-05T18:40:38.164Z</time>
      </trkpt>
      <trkpt lat="48.83637" lon="2.39005">
        <ele>96.3</ele>
        <time>2015-05-05T18:40:39.117Z</time>
      </trkpt>
      <trkpt lat="48.83636" lon="2.39013">
        <ele>96.4</ele>
        <time>2015-05-05T18:40:40.142Z</time>
      </trkpt>
      <trkpt lat="48.83637" lon="2.39018">
        <ele>96.4</ele>
        <time>2015-05-05T18:40:41.152Z</time>
      </trkpt>
      <trkpt lat="48.8364" lon="2.39025">
        <ele>96.6</ele>
        <time>2015-05-05T18:40:42.171Z</time>
      </trkpt>
      <trkpt lat="48.83642" lon="2.39031">
        <ele>96.7</ele>
        <time>2015-05-05T18:40:43.178Z</time>
      </trkpt>
      <trkpt lat="48.83644" lon="2.39038">
        <ele>96.8</ele>
        <time>2015-05-05T18:40:44.198Z</time>
      </trkpt>
      <trkpt lat="48.83647" lon="2.39044">
        <ele>96.9</ele>
        <time>2015-05-05T18:40:45.108Z</time>
      </trkpt>
      <trkpt lat="48.83648" lon="2.3905">
        <ele>97</ele>
        <time>2015-05-05T18:40:46.145Z</time>
      </trkpt>
      <trkpt lat="48.83653" lon="2.39055">
        <ele>97.2</ele>
        <time>2015-05-05T18:40:47.166Z</time>
      </trkpt>
      <trkpt lat="48.83656" lon="2.39061">
        <ele>97.4</ele>
        <time>2015-05-05T18:40:48.174Z</time>
      </trkpt>
      <trkpt lat="48.83661" lon="2.39072">
        <ele>97.6</ele>
        <time>2015-05-05T18:40:50.205Z</time>
      </trkpt>
      <trkpt lat="48.83666" lon="2.39077">
        <ele>97.8</ele>
        <time>2015-05-05T18:40:51.138Z</time>
      </trkpt>
      <trkpt lat="48.83674" lon="2.3908">
        <ele>98.3</ele>
        <time>2015-05-05T18:40:52.158Z</time>
      </trkpt>
      <trkpt lat="48.83678" lon="2.39085">
        <ele>98.4</ele>
        <time>2015-05-05T18:40:53.128Z</time>
      </trkpt>
      <trkpt lat="48.83681" lon="2.39091">
        <ele>98.5</ele>
        <time>2015-05-05T18:40:54.215Z</time>
      </trkpt>
      <trkpt lat="48.83684" lon="2.39096">
        <ele>98.6</ele>
        <time>2015-05-05T18:40:55.194Z</time>
      </trkpt>
      <trkpt lat="48.83688" lon="2.39106">
        <ele>98.4</ele>
        <time>2015-05-05T18:40:57.119Z</time>
      </trkpt>
      <trkpt lat="48.83691" lon="2.39109">
        <ele>98.2</ele>
        <time>2015-05-05T18:40:58.190Z</time>
      </trkpt>
      <trkpt lat="48.83696" lon="2.39112">
        <ele>97.3</ele>
        <time>2015-05-05T18:40:59.209Z</time>
      </trkpt>
      <trkpt lat="48.83703" lon="2.39115">
        <ele>95.7</ele>
        <time>2015-05-05T18:41:00.145Z</time>
      </trkpt>
      <trkpt lat="48.83711" lon="2.39114">
        <ele>96.4</ele>
        <time>2015-05-05T18:41:01.122Z</time>
      </trkpt>
      <trkpt lat="48.83716" lon="2.39114">
        <ele>96.8</ele>
        <time>2015-05-05T18:41:02.129Z</time>
      </trkpt>
      <trkpt lat="48.83725" lon="2.39111">
        <ele>97</ele>
        <time>2015-05-05T18:41:04.401Z</time>
      </trkpt>
      <trkpt lat="48.83729" lon="2.3911">
        <ele>97.1</ele>
        <time>2015-05-05T18:41:05.193Z</time>
      </trkpt>
      <trkpt lat="48.83736" lon="2.39106">
        <ele>97.2</ele>
        <time>2015-05-05T18:41:07.137Z</time>
      </trkpt>
      <trkpt lat="48.8374" lon="2.39103">
        <ele>97.3</ele>
        <time>2015-05-05T18:41:08.157Z</time>
      </trkpt>
      <trkpt lat="48.83748" lon="2.39095">
        <ele>97.4</ele>
        <time>2015-05-05T18:41:10.174Z</time>
      </trkpt>
      <trkpt lat="48.83752" lon="2.3909">
        <ele>97.4</ele>
        <time>2015-05-05T18:41:11.191Z</time>
      </trkpt>
      <trkpt lat="48.83757" lon="2.39084">
        <ele>97.5</ele>
        <time>2015-05-05T18:41:12.108Z</time>
      </trkpt>
      <trkpt lat="48.83766" lon="2.39073">
        <ele>97.6</ele>
        <time>2015-05-05T18:41:14.174Z</time>
      </trkpt>
      <trkpt lat="48.83775" lon="2.39061">
        <ele>97.7</ele>
        <time>2015-05-05T18:41:16.303Z</time>
      </trkpt>
      <trkpt lat="48.8378" lon="2.39056">
        <ele>97.7</ele>
        <time>2015-05-05T18:41:17.107Z</time>
      </trkpt>
      <trkpt lat="48.83786" lon="2.3905">
        <ele>97.7</ele>
        <time>2015-05-05T18:41:18.128Z</time>
      </trkpt>
      <trkpt lat="48.8379" lon="2.39043">
        <ele>97.7</ele>
        <time>2015-05-05T18:41:19.160Z</time>
      </trkpt>
      <trkpt lat="48.83795" lon="2.39035">
        <ele>97.7</ele>
        <time>2015-05-05T18:41:20.173Z</time>
      </trkpt>
      <trkpt lat="48.838" lon="2.39028">
        <ele>97.7</ele>
        <time>2015-05-05T18:41:21.198Z</time>
      </trkpt>
      <trkpt lat="48.83805" lon="2.39021">
        <ele>97.7</ele>
        <time>2015-05-05T18:41:22.224Z</time>
      </trkpt>
      <trkpt lat="48.8381" lon="2.39014">
        <ele>97.7</ele>
        <time>2015-05-05T18:41:23.131Z</time>
      </trkpt>
      <trkpt lat="48.83814" lon="2.39008">
        <ele>97.7</ele>
        <time>2015-05-05T18:41:24.146Z</time>
      </trkpt>
      <trkpt lat="48.83819" lon="2.39">
        <ele>97.7</ele>
        <time>2015-05-05T18:41:25.186Z</time>
      </trkpt>
      <trkpt lat="48.83824" lon="2.38992">
        <ele>97.8</ele>
        <time>2015-05-05T18:41:26.199Z</time>
      </trkpt>
      <trkpt lat="48.83832" lon="2.38985">
        <ele>97.9</ele>
        <time>2015-05-05T18:41:27.142Z</time>
      </trkpt>
      <trkpt lat="48.83836" lon="2.3898">
        <ele>97.9</ele>
        <time>2015-05-05T18:41:28.161Z</time>
      </trkpt>
      <trkpt lat="48.83841" lon="2.38976">
        <ele>97.9</ele>
        <time>2015-05-05T18:41:29.178Z</time>
      </trkpt>
      <trkpt lat="48.83846" lon="2.38972">
        <ele>98</ele>
        <time>2015-05-05T18:41:30.188Z</time>
      </trkpt>
      <trkpt lat="48.83851" lon="2.38969">
        <ele>98</ele>
        <time>2015-05-05T18:41:31.209Z</time>
      </trkpt>
      <trkpt lat="48.83853" lon="2.38962">
        <ele>98.1</ele>
        <time>2015-05-05T18:41:32.130Z</time>
      </trkpt>
      <trkpt lat="48.83861" lon="2.3896">
        <ele>98.6</ele>
        <time>2015-05-05T18:41:34.161Z</time>
      </trkpt>
      <trkpt lat="48.83865" lon="2.38959">
        <ele>98.8</ele>
        <time>2015-05-05T18:41:35.184Z</time>
      </trkpt>
      <trkpt lat="48.83873" lon="2.38955">
        <ele>99.1</ele>
        <time>2015-05-05T18:41:37.213Z</time>
      </trkpt>
      <trkpt lat="48.83877" lon="2.38953">
        <ele>99.1</ele>
        <time>2015-05-05T18:41:38.152Z</time>
      </trkpt>
      <trkpt lat="48.83884" lon="2.38949">
        <ele>99.3</ele>
        <time>2015-05-05T18:41:40.187Z</time>
      </trkpt>
      <trkpt lat="48.83891" lon="2.38941">
        <ele>96.7</ele>
        <time>2015-05-05T18:41:41.164Z</time>
      </trkpt>
      <trkpt lat="48.83896" lon="2.38934">
        <ele>95.9</ele>
        <time>2015-05-05T18:41:43.207Z</time>
      </trkpt>
      <trkpt lat="48.83898" lon="2.38931">
        <ele>95.2</ele>
        <time>2015-05-05T18:41:44.157Z</time>
      </trkpt>
      <trkpt lat="48.83898" lon="2.3893">
        <ele>95.3</ele>
        <time>2015-05-05T18:41:46.180Z</time>
      </trkpt>
      <trkpt lat="48.83896" lon="2.38931">
        <ele>95</ele>
        <time>2015-05-05T18:41:47.316Z</time>
      </trkpt>
      <trkpt lat="48.83895" lon="2.38933">
        <ele>94.8</ele>
        <time>2015-05-05T18:41:48.143Z</time>
      </trkpt>
      <trkpt lat="48.83894" lon="2.38936">
        <ele>94.5</ele>
        <time>2015-05-05T18:41:49.170Z</time>
      </trkpt>
      <trkpt lat="48.83892" lon="2.38937">
        <ele>94.5</ele>
        <time>2015-05-05T18:41:50.206Z</time>
      </trkpt>
      <trkpt lat="48.83891" lon="2.38938">
        <ele>94.5</ele>
        <time>2015-05-05T18:41:51.152Z</time>
      </trkpt>
      <trkpt lat="48.83891" lon="2.38938">
        <ele>94.8</ele>
        <time>2015-05-05T18:41:52.258Z</time>
      </trkpt>
      <trkpt lat="48.83898" lon="2.38933">
        <ele>94.7</ele>
        <time>2015-05-05T18:41:55.170Z</time>
      </trkpt>
      <trkpt lat="48.83902" lon="2.3893">
        <ele>94.6</ele>
        <time>2015-05-05T18:41:56.169Z</time>
      </trkpt>
      <trkpt lat="48.83908" lon="2.38924">
        <ele>94</ele>
        <time>2015-05-05T18:41:58.220Z</time>
      </trkpt>
      <trkpt lat="48.83911" lon="2.3892">
        <ele>93.9</ele>
        <time>2015-05-05T18:41:59.229Z</time>
      </trkpt>
      <trkpt lat="48.83917" lon="2.3891">
        <ele>94</ele>
        <time>2015-05-05T18:42:01.152Z</time>
      </trkpt>
      <trkpt lat="48.8392" lon="2.38905">
        <ele>94.3</ele>
        <time>2015-05-05T18:42:02.174Z</time>
      </trkpt>
      <trkpt lat="48.83924" lon="2.38901">
        <ele>94</ele>
        <time>2015-05-05T18:42:03.205Z</time>
      </trkpt>
      <trkpt lat="48.83928" lon="2.38897">
        <ele>94</ele>
        <time>2015-05-05T18:42:04.236Z</time>
      </trkpt>
      <trkpt lat="48.83931" lon="2.38892">
        <ele>94</ele>
        <time>2015-05-05T18:42:05.150Z</time>
      </trkpt>
      <trkpt lat="48.83934" lon="2.38886">
        <ele>94.8</ele>
        <time>2015-05-05T18:42:06.151Z</time>
      </trkpt>
      <trkpt lat="48.83939" lon="2.38877">
        <ele>95.8</ele>
        <time>2015-05-05T18:42:08.170Z</time>
      </trkpt>
      <trkpt lat="48.83943" lon="2.38873">
        <ele>95.8</ele>
        <time>2015-05-05T18:42:09.178Z</time>
      </trkpt>
      <trkpt lat="48.83946" lon="2.38868">
        <ele>95.8</ele>
        <time>2015-05-05T18:42:10.199Z</time>
      </trkpt>
      <trkpt lat="48.83948" lon="2.38861">
        <ele>95.5</ele>
        <time>2015-05-05T18:42:11.222Z</time>
      </trkpt>
      <trkpt lat="48.8395" lon="2.38855">
        <ele>95.6</ele>
        <time>2015-05-05T18:42:12.232Z</time>
      </trkpt>
      <trkpt lat="48.83974" lon="2.38789">
        <ele>94.7</ele>
        <time>2015-05-05T18:42:22.194Z</time>
      </trkpt>
      <trkpt lat="48.83978" lon="2.38784">
        <ele>94.4</ele>
        <time>2015-05-05T18:42:23.112Z</time>
      </trkpt>
      <trkpt lat="48.83982" lon="2.3878">
        <ele>94.3</ele>
        <time>2015-05-05T18:42:24.126Z</time>
      </trkpt>
      <trkpt lat="48.83985" lon="2.38777">
        <ele>94.2</ele>
        <time>2015-05-05T18:42:25.133Z</time>
      </trkpt>
      <trkpt lat="48.8399" lon="2.38776">
        <ele>93.9</ele>
        <time>2015-05-05T18:42:26.149Z</time>
      </trkpt>
      <trkpt lat="48.83996" lon="2.38774">
        <ele>93.4</ele>
        <time>2015-05-05T18:42:27.157Z</time>
      </trkpt>
      <trkpt lat="48.84001" lon="2.38773">
        <ele>93</ele>
        <time>2015-05-05T18:42:28.160Z</time>
      </trkpt>
      <trkpt lat="48.84007" lon="2.3877">
        <ele>92.8</ele>
        <time>2015-05-05T18:42:29.182Z</time>
      </trkpt>
      <trkpt lat="48.84014" lon="2.38766">
        <ele>92.5</ele>
        <time>2015-05-05T18:42:30.289Z</time>
      </trkpt>
      <trkpt lat="48.84021" lon="2.38763">
        <ele>92.3</ele>
        <time>2015-05-05T18:42:31.138Z</time>
      </trkpt>
      <trkpt lat="48.84028" lon="2.38761">
        <ele>92.2</ele>
        <time>2015-05-05T18:42:32.147Z</time>
      </trkpt>
      <trkpt lat="48.84035" lon="2.38759">
        <ele>92.2</ele>
        <time>2015-05-05T18:42:33.165Z</time>
      </trkpt>
      <trkpt lat="48.84043" lon="2.38758">
        <ele>92.2</ele>
        <time>2015-05-05T18:42:34.186Z</time>
      </trkpt>
      <trkpt lat="48.8405" lon="2.38757">
        <ele>92.1</ele>
        <time>2015-05-05T18:42:35.203Z</time>
      </trkpt>
      <trkpt lat="48.84056" lon="2.38754">
        <ele>92.1</ele>
        <time>2015-05-05T18:42:36.112Z</time>
      </trkpt>
      <trkpt lat="48.84064" lon="2.38752">
        <ele>91.8</ele>
        <time>2015-05-05T18:42:37.126Z</time>
      </trkpt>
      <trkpt lat="48.84076" lon="2.38747">
        <ele>89.9</ele>
        <time>2015-05-05T18:42:38.141Z</time>
      </trkpt>
      <trkpt lat="48.84083" lon="2.38744">
        <ele>89.7</ele>
        <time>2015-05-05T18:42:39.179Z</time>
      </trkpt>
      <trkpt lat="48.84091" lon="2.38741">
        <ele>89.5</ele>
        <time>2015-05-05T18:42:40.187Z</time>
      </trkpt>
      <trkpt lat="48.84098" lon="2.38737">
        <ele>89.5</ele>
        <time>2015-05-05T18:42:41.198Z</time>
      </trkpt>
      <trkpt lat="48.84104" lon="2.38735">
        <ele>89.5</ele>
        <time>2015-05-05T18:42:42.206Z</time>
      </trkpt>
      <trkpt lat="48.84111" lon="2.38733">
        <ele>89.6</ele>
        <time>2015-05-05T18:42:43.127Z</time>
      </trkpt>
      <trkpt lat="48.84117" lon="2.38732">
        <ele>89.6</ele>
        <time>2015-05-05T18:42:44.130Z</time>
      </trkpt>
      <trkpt lat="48.84124" lon="2.3873">
        <ele>89.7</ele>
        <time>2015-05-05T18:42:45.177Z</time>
      </trkpt>
      <trkpt lat="48.8413" lon="2.38729">
        <ele>89.9</ele>
        <time>2015-05-05T18:42:46.189Z</time>
      </trkpt>
      <trkpt lat="48.84138" lon="2.38726">
        <ele>90.5</ele>
        <time>2015-05-05T18:42:48.110Z</time>
      </trkpt>
      <trkpt lat="48.84139" lon="2.38725">
        <ele>90.8</ele>
        <time>2015-05-05T18:42:49.138Z</time>
      </trkpt>
      <trkpt lat="48.84143" lon="2.38724">
        <ele>92.1</ele>
        <time>2015-05-05T18:42:51.158Z</time>
      </trkpt>
      <trkpt lat="48.84144" lon="2.38723">
        <ele>92.4</ele>
        <time>2015-05-05T18:42:52.178Z</time>
      </trkpt>
      <trkpt lat="48.84144" lon="2.38722">
        <ele>92.7</ele>
        <time>2015-05-05T18:42:53.186Z</time>
      </trkpt>
      <trkpt lat="48.84144" lon="2.38723">
        <ele>92.7</ele>
        <time>2015-05-05T18:42:54.194Z</time>
      </trkpt>
      <trkpt lat="48.84143" lon="2.38723">
        <ele>92.7</ele>
        <time>2015-05-05T18:42:55.214Z</time>
      </trkpt>
      <trkpt lat="48.84143" lon="2.3872">
        <ele>93.1</ele>
        <time>2015-05-05T18:43:07.133Z</time>
      </trkpt>
      <trkpt lat="48.84145" lon="2.38716">
        <ele>95.8</ele>
        <time>2015-05-05T18:43:08.203Z</time>
      </trkpt>
      <trkpt lat="48.84151" lon="2.38713">
        <ele>96.8</ele>
        <time>2015-05-05T18:43:17.175Z</time>
      </trkpt>
      <trkpt lat="48.84151" lon="2.38714">
        <ele>96.8</ele>
        <time>2015-05-05T18:43:18.188Z</time>
      </trkpt>
      <trkpt lat="48.8415" lon="2.38713">
        <ele>96.7</ele>
        <time>2015-05-05T18:43:57.228Z</time>
      </trkpt>
      <trkpt lat="48.84143" lon="2.38715">
        <ele>97.8</ele>
        <time>2015-05-05T18:43:58.239Z</time>
      </trkpt>
      <trkpt lat="48.84143" lon="2.38715">
        <ele>97.7</ele>
        <time>2015-05-05T18:43:59.135Z</time>
      </trkpt>
      <trkpt lat="48.84143" lon="2.38715">
        <ele>97.7</ele>
        <time>2015-05-05T18:44:18.134Z</time>
      </trkpt>
      <trkpt lat="48.84142" lon="2.38714">
        <ele>97.3</ele>
        <time>2015-05-05T18:44:19.142Z</time>
      </trkpt>
      <trkpt lat="48.84143" lon="2.38714">
        <ele>97.5</ele>
        <time>2015-05-05T18:44:20.157Z</time>
      </trkpt>
      <trkpt lat="48.84143" lon="2.38714">
        <ele>97.5</ele>
        <time>2015-05-05T18:44:21.197Z</time>
      </trkpt>
      <trkpt lat="48.84144" lon="2.38714">
        <ele>97.5</ele>
        <time>2015-05-05T18:44:22.239Z</time>
      </trkpt>
      <trkpt lat="48.84145" lon="2.38714">
        <ele>97.4</ele>
        <time>2015-05-05T18:44:23.165Z</time>
      </trkpt>
      <trkpt lat="48.8415" lon="2.38704">
        <ele>97.1</ele>
        <time>2015-05-05T18:44:27.137Z</time>
      </trkpt>
      <trkpt lat="48.84152" lon="2.387">
        <ele>97.1</ele>
        <time>2015-05-05T18:44:28.240Z</time>
      </trkpt>
      <trkpt lat="48.84157" lon="2.38692">
        <ele>96.8</ele>
        <time>2015-05-05T18:44:30.140Z</time>
      </trkpt>
      <trkpt lat="48.84158" lon="2.38688">
        <ele>96.7</ele>
        <time>2015-05-05T18:44:31.177Z</time>
      </trkpt>
      <trkpt lat="48.84162" lon="2.3868">
        <ele>96.5</ele>
        <time>2015-05-05T18:44:33.124Z</time>
      </trkpt>
      <trkpt lat="48.84164" lon="2.38675">
        <ele>96.3</ele>
        <time>2015-05-05T18:44:34.165Z</time>
      </trkpt>
      <trkpt lat="48.8417" lon="2.38668">
        <ele>96.3</ele>
        <time>2015-05-05T18:44:36.113Z</time>
      </trkpt>
      <trkpt lat="48.84172" lon="2.38666">
        <ele>96.3</ele>
        <time>2015-05-05T18:44:37.146Z</time>
      </trkpt>
      <trkpt lat="48.84179" lon="2.3866">
        <ele>95.7</ele>
        <time>2015-05-05T18:44:40.164Z</time>
      </trkpt>
      <trkpt lat="48.84182" lon="2.38657">
        <ele>95.2</ele>
        <time>2015-05-05T18:44:41.165Z</time>
      </trkpt>
      <trkpt lat="48.84188" lon="2.38651">
        <ele>94.5</ele>
        <time>2015-05-05T18:44:44.212Z</time>
      </trkpt>
      <trkpt lat="48.8419" lon="2.38648">
        <ele>94.3</ele>
        <time>2015-05-05T18:44:45.110Z</time>
      </trkpt>
      <trkpt lat="48.84196" lon="2.38642">
        <ele>94</ele>
        <time>2015-05-05T18:44:47.186Z</time>
      </trkpt>
      <trkpt lat="48.842" lon="2.38638">
        <ele>94</ele>
        <time>2015-05-05T18:44:48.176Z</time>
      </trkpt>
      <trkpt lat="48.84203" lon="2.38634">
        <ele>94</ele>
        <time>2015-05-05T18:44:49.161Z</time>
      </trkpt>
      <trkpt lat="48.84207" lon="2.3863">
        <ele>93.9</ele>
        <time>2015-05-05T18:44:50.156Z</time>
      </trkpt>
      <trkpt lat="48.84211" lon="2.38626">
        <ele>93.8</ele>
        <time>2015-05-05T18:44:51.198Z</time>
      </trkpt>
      <trkpt lat="48.84215" lon="2.38622">
        <ele>93.8</ele>
        <time>2015-05-05T18:44:52.222Z</time>
      </trkpt>
      <trkpt lat="48.84219" lon="2.38617">
        <ele>93.7</ele>
        <time>2015-05-05T18:44:53.190Z</time>
      </trkpt>
      <trkpt lat="48.84223" lon="2.38613">
        <ele>93.6</ele>
        <time>2015-05-05T18:44:54.153Z</time>
      </trkpt>
      <trkpt lat="48.84228" lon="2.38609">
        <ele>93.4</ele>
        <time>2015-05-05T18:44:55.156Z</time>
      </trkpt>
      <trkpt lat="48.84233" lon="2.38604">
        <ele>93.5</ele>
        <time>2015-05-05T18:44:56.108Z</time>
      </trkpt>
      <trkpt lat="48.84237" lon="2.386">
        <ele>93.3</ele>
        <time>2015-05-05T18:44:57.159Z</time>
      </trkpt>
      <trkpt lat="48.84241" lon="2.38595">
        <ele>93.3</ele>
        <time>2015-05-05T18:44:58.269Z</time>
      </trkpt>
      <trkpt lat="48.84244" lon="2.38591">
        <ele>93</ele>
        <time>2015-05-05T18:44:59.337Z</time>
      </trkpt>
      <trkpt lat="48.84248" lon="2.38586">
        <ele>92.9</ele>
        <time>2015-05-05T18:45:00.132Z</time>
      </trkpt>
      <trkpt lat="48.84253" lon="2.38581">
        <ele>92.6</ele>
        <time>2015-05-05T18:45:01.160Z</time>
      </trkpt>
      <trkpt lat="48.84256" lon="2.38576">
        <ele>92.5</ele>
        <time>2015-05-05T18:45:02.188Z</time>
      </trkpt>
      <trkpt lat="48.84262" lon="2.38566">
        <ele>92.1</ele>
        <time>2015-05-05T18:45:04.222Z</time>
      </trkpt>
      <trkpt lat="48.84264" lon="2.3856">
        <ele>92.2</ele>
        <time>2015-05-05T18:45:05.173Z</time>
      </trkpt>
      <trkpt lat="48.84264" lon="2.3855">
        <ele>91.8</ele>
        <time>2015-05-05T18:45:06.193Z</time>
      </trkpt>
      <trkpt lat="48.84264" lon="2.3854">
        <ele>91.1</ele>
        <time>2015-05-05T18:45:07.201Z</time>
      </trkpt>
      <trkpt lat="48.84268" lon="2.38531">
        <ele>90.7</ele>
        <time>2015-05-05T18:45:08.130Z</time>
      </trkpt>
      <trkpt lat="48.84273" lon="2.38523">
        <ele>90.8</ele>
        <time>2015-05-05T18:45:09.106Z</time>
      </trkpt>
      <trkpt lat="48.84275" lon="2.38512">
        <ele>90.9</ele>
        <time>2015-05-05T18:45:10.177Z</time>
      </trkpt>
      <trkpt lat="48.84278" lon="2.38503">
        <ele>91</ele>
        <time>2015-05-05T18:45:11.183Z</time>
      </trkpt>
      <trkpt lat="48.8428" lon="2.38493">
        <ele>91.2</ele>
        <time>2015-05-05T18:45:12.195Z</time>
      </trkpt>
      <trkpt lat="48.84283" lon="2.38484">
        <ele>91.1</ele>
        <time>2015-05-05T18:45:13.210Z</time>
      </trkpt>
      <trkpt lat="48.84286" lon="2.38475">
        <ele>91</ele>
        <time>2015-05-05T18:45:14.136Z</time>
      </trkpt>
      <trkpt lat="48.84289" lon="2.38465">
        <ele>91.3</ele>
        <time>2015-05-05T18:45:15.130Z</time>
      </trkpt>
      <trkpt lat="48.8429" lon="2.38453">
        <ele>91.9</ele>
        <time>2015-05-05T18:45:16.145Z</time>
      </trkpt>
      <trkpt lat="48.84292" lon="2.38443">
        <ele>92.3</ele>
        <time>2015-05-05T18:45:17.158Z</time>
      </trkpt>
      <trkpt lat="48.84295" lon="2.38433">
        <ele>92.5</ele>
        <time>2015-05-05T18:45:18.163Z</time>
      </trkpt>
      <trkpt lat="48.84298" lon="2.38425">
        <ele>92.6</ele>
        <time>2015-05-05T18:45:19.172Z</time>
      </trkpt>
      <trkpt lat="48.84301" lon="2.38416">
        <ele>92.8</ele>
        <time>2015-05-05T18:45:20.187Z</time>
      </trkpt>
      <trkpt lat="48.84304" lon="2.38409">
        <ele>92.9</ele>
        <time>2015-05-05T18:45:21.240Z</time>
      </trkpt>
      <trkpt lat="48.84308" lon="2.38402">
        <ele>92.9</ele>
        <time>2015-05-05T18:45:22.214Z</time>
      </trkpt>
      <trkpt lat="48.84311" lon="2.38396">
        <ele>92.7</ele>
        <time>2015-05-05T18:45:23.098Z</time>
      </trkpt>
      <trkpt lat="48.84315" lon="2.3839">
        <ele>92.6</ele>
        <time>2015-05-05T18:45:24.125Z</time>
      </trkpt>
      <trkpt lat="48.84318" lon="2.38383">
        <ele>92.7</ele>
        <time>2015-05-05T18:45:25.133Z</time>
      </trkpt>
      <trkpt lat="48.84321" lon="2.38375">
        <ele>92.8</ele>
        <time>2015-05-05T18:45:26.154Z</time>
      </trkpt>
      <trkpt lat="48.84326" lon="2.38369">
        <ele>92.7</ele>
        <time>2015-05-05T18:45:27.160Z</time>
      </trkpt>
      <trkpt lat="48.84331" lon="2.38364">
        <ele>92.8</ele>
        <time>2015-05-05T18:45:28.185Z</time>
      </trkpt>
      <trkpt lat="48.84336" lon="2.3836">
        <ele>92.9</ele>
        <time>2015-05-05T18:45:29.190Z</time>
      </trkpt>
      <trkpt lat="48.84341" lon="2.38357">
        <ele>92.7</ele>
        <time>2015-05-05T18:45:30.197Z</time>
      </trkpt>
      <trkpt lat="48.84345" lon="2.38352">
        <ele>92.8</ele>
        <time>2015-05-05T18:45:31.201Z</time>
      </trkpt>
      <trkpt lat="48.84349" lon="2.38347">
        <ele>92.7</ele>
        <time>2015-05-05T18:45:32.214Z</time>
      </trkpt>
      <trkpt lat="48.84354" lon="2.38341">
        <ele>92.5</ele>
        <time>2015-05-05T18:45:33.131Z</time>
      </trkpt>
      <trkpt lat="48.84359" lon="2.38334">
        <ele>92.1</ele>
        <time>2015-05-05T18:45:34.234Z</time>
      </trkpt>
      <trkpt lat="48.84364" lon="2.3833">
        <ele>92.1</ele>
        <time>2015-05-05T18:45:35.114Z</time>
      </trkpt>
      <trkpt lat="48.84369" lon="2.38324">
        <ele>91.8</ele>
        <time>2015-05-05T18:45:36.129Z</time>
      </trkpt>
      <trkpt lat="48.84372" lon="2.38317">
        <ele>91.8</ele>
        <time>2015-05-05T18:45:37.128Z</time>
      </trkpt>
      <trkpt lat="48.84376" lon="2.38311">
        <ele>91.7</ele>
        <time>2015-05-05T18:45:38.137Z</time>
      </trkpt>
      <trkpt lat="48.84382" lon="2.38306">
        <ele>91.7</ele>
        <time>2015-05-05T18:45:39.142Z</time>
      </trkpt>
      <trkpt lat="48.84388" lon="2.38301">
        <ele>91.7</ele>
        <time>2015-05-05T18:45:40.167Z</time>
      </trkpt>
      <trkpt lat="48.84393" lon="2.38296">
        <ele>91.7</ele>
        <time>2015-05-05T18:45:41.178Z</time>
      </trkpt>
      <trkpt lat="48.84397" lon="2.38289">
        <ele>91.3</ele>
        <time>2015-05-05T18:45:42.178Z</time>
      </trkpt>
      <trkpt lat="48.84402" lon="2.38282">
        <ele>91.1</ele>
        <time>2015-05-05T18:45:43.190Z</time>
      </trkpt>
      <trkpt lat="48.84406" lon="2.38276">
        <ele>90.7</ele>
        <time>2015-05-05T18:45:44.123Z</time>
      </trkpt>
      <trkpt lat="48.84411" lon="2.38271">
        <ele>90.8</ele>
        <time>2015-05-05T18:45:45.133Z</time>
      </trkpt>
      <trkpt lat="48.84414" lon="2.38265">
        <ele>90.7</ele>
        <time>2015-05-05T18:45:46.142Z</time>
      </trkpt>
      <trkpt lat="48.84417" lon="2.38259">
        <ele>90.7</ele>
        <time>2015-05-05T18:45:47.152Z</time>
      </trkpt>
      <trkpt lat="48.8442" lon="2.38253">
        <ele>90.6</ele>
        <time>2015-05-05T18:45:48.166Z</time>
      </trkpt>
      <trkpt lat="48.84425" lon="2.38249">
        <ele>90.4</ele>
        <time>2015-05-05T18:45:49.172Z</time>
      </trkpt>
      <trkpt lat="48.84427" lon="2.38243">
        <ele>89.7</ele>
        <time>2015-05-05T18:45:50.182Z</time>
      </trkpt>
      <trkpt lat="48.84422" lon="2.38231">
        <ele>86</ele>
        <time>2015-05-05T18:45:51.187Z</time>
      </trkpt>
      <trkpt lat="48.84419" lon="2.3822">
        <ele>81.8</ele>
        <time>2015-05-05T18:45:52.194Z</time>
      </trkpt>
      <trkpt lat="48.84419" lon="2.38213">
        <ele>80.5</ele>
        <time>2015-05-05T18:45:53.099Z</time>
      </trkpt>
      <trkpt lat="48.84423" lon="2.38203">
        <ele>81.1</ele>
        <time>2015-05-05T18:45:55.133Z</time>
      </trkpt>
      <trkpt lat="48.84425" lon="2.38199">
        <ele>81.3</ele>
        <time>2015-05-05T18:45:56.192Z</time>
      </trkpt>
      <trkpt lat="48.84428" lon="2.3819">
        <ele>82.3</ele>
        <time>2015-05-05T18:45:58.167Z</time>
      </trkpt>
      <trkpt lat="48.84429" lon="2.38186">
        <ele>82.8</ele>
        <time>2015-05-05T18:45:59.190Z</time>
      </trkpt>
      <trkpt lat="48.8443" lon="2.38176">
        <ele>85.3</ele>
        <time>2015-05-05T18:46:03.264Z</time>
      </trkpt>
      <trkpt lat="48.8443" lon="2.38173">
        <ele>85.7</ele>
        <time>2015-05-05T18:46:04.301Z</time>
      </trkpt>
      <trkpt lat="48.84433" lon="2.38161">
        <ele>87</ele>
        <time>2015-05-05T18:46:07.165Z</time>
      </trkpt>
      <trkpt lat="48.84434" lon="2.38155">
        <ele>87.7</ele>
        <time>2015-05-05T18:46:08.207Z</time>
      </trkpt>
      <trkpt lat="48.84438" lon="2.38143">
        <ele>88.8</ele>
        <time>2015-05-05T18:46:10.243Z</time>
      </trkpt>
      <trkpt lat="48.8444" lon="2.38137">
        <ele>89.1</ele>
        <time>2015-05-05T18:46:11.154Z</time>
      </trkpt>
      <trkpt lat="48.84444" lon="2.38127">
        <ele>89.9</ele>
        <time>2015-05-05T18:46:13.201Z</time>
      </trkpt>
      <trkpt lat="48.84446" lon="2.38121">
        <ele>89.6</ele>
        <time>2015-05-05T18:46:14.206Z</time>
      </trkpt>
      <trkpt lat="48.84448" lon="2.38115">
        <ele>89.3</ele>
        <time>2015-05-05T18:46:15.142Z</time>
      </trkpt>
      <trkpt lat="48.84451" lon="2.38109">
        <ele>89</ele>
        <time>2015-05-05T18:46:16.172Z</time>
      </trkpt>
      <trkpt lat="48.84454" lon="2.38104">
        <ele>88.9</ele>
        <time>2015-05-05T18:46:17.217Z</time>
      </trkpt>
      <trkpt lat="48.84457" lon="2.38099">
        <ele>88.5</ele>
        <time>2015-05-05T18:46:18.163Z</time>
      </trkpt>
      <trkpt lat="48.8446" lon="2.38093">
        <ele>88.5</ele>
        <time>2015-05-05T18:46:19.137Z</time>
      </trkpt>
      <trkpt lat="48.84464" lon="2.38088">
        <ele>88.5</ele>
        <time>2015-05-05T18:46:20.148Z</time>
      </trkpt>
      <trkpt lat="48.84467" lon="2.38083">
        <ele>88.6</ele>
        <time>2015-05-05T18:46:21.133Z</time>
      </trkpt>
      <trkpt lat="48.84471" lon="2.38078">
        <ele>88.5</ele>
        <time>2015-05-05T18:46:22.187Z</time>
      </trkpt>
      <trkpt lat="48.84474" lon="2.38072">
        <ele>88.4</ele>
        <time>2015-05-05T18:46:23.155Z</time>
      </trkpt>
      <trkpt lat="48.84478" lon="2.38066">
        <ele>88.4</ele>
        <time>2015-05-05T18:46:24.139Z</time>
      </trkpt>
      <trkpt lat="48.84481" lon="2.38061">
        <ele>88.4</ele>
        <time>2015-05-05T18:46:25.146Z</time>
      </trkpt>
      <trkpt lat="48.84483" lon="2.38054">
        <ele>88.4</ele>
        <time>2015-05-05T18:46:26.181Z</time>
      </trkpt>
      <trkpt lat="48.84486" lon="2.38046">
        <ele>88.3</ele>
        <time>2015-05-05T18:46:27.210Z</time>
      </trkpt>
      <trkpt lat="48.84488" lon="2.38038">
        <ele>88.2</ele>
        <time>2015-05-05T18:46:28.225Z</time>
      </trkpt>
      <trkpt lat="48.84491" lon="2.3803">
        <ele>88.1</ele>
        <time>2015-05-05T18:46:29.101Z</time>
      </trkpt>
      <trkpt lat="48.84493" lon="2.38022">
        <ele>88.2</ele>
        <time>2015-05-05T18:46:30.135Z</time>
      </trkpt>
      <trkpt lat="48.84496" lon="2.38013">
        <ele>88.2</ele>
        <time>2015-05-05T18:46:31.125Z</time>
      </trkpt>
      <trkpt lat="48.84497" lon="2.38004">
        <ele>88.2</ele>
        <time>2015-05-05T18:46:32.169Z</time>
      </trkpt>
      <trkpt lat="48.84499" lon="2.37995">
        <ele>88.1</ele>
        <time>2015-05-05T18:46:33.183Z</time>
      </trkpt>
      <trkpt lat="48.84501" lon="2.37985">
        <ele>88.1</ele>
        <time>2015-05-05T18:46:34.206Z</time>
      </trkpt>
      <trkpt lat="48.84503" lon="2.37976">
        <ele>88.3</ele>
        <time>2015-05-05T18:46:35.109Z</time>
      </trkpt>
      <trkpt lat="48.84505" lon="2.37967">
        <ele>88.4</ele>
        <time>2015-05-05T18:46:36.160Z</time>
      </trkpt>
      <trkpt lat="48.84508" lon="2.37959">
        <ele>88.6</ele>
        <time>2015-05-05T18:46:37.116Z</time>
      </trkpt>
      <trkpt lat="48.84511" lon="2.37951">
        <ele>88.7</ele>
        <time>2015-05-05T18:46:38.126Z</time>
      </trkpt>
      <trkpt lat="48.84514" lon="2.37944">
        <ele>88.7</ele>
        <time>2015-05-05T18:46:39.167Z</time>
      </trkpt>
      <trkpt lat="48.84517" lon="2.37938">
        <ele>88.6</ele>
        <time>2015-05-05T18:46:40.177Z</time>
      </trkpt>
      <trkpt lat="48.8452" lon="2.37932">
        <ele>88.6</ele>
        <time>2015-05-05T18:46:41.197Z</time>
      </trkpt>
      <trkpt lat="48.84523" lon="2.37927">
        <ele>88.6</ele>
        <time>2015-05-05T18:46:42.205Z</time>
      </trkpt>
      <trkpt lat="48.84527" lon="2.37922">
        <ele>88.4</ele>
        <time>2015-05-05T18:46:43.122Z</time>
      </trkpt>
      <trkpt lat="48.8453" lon="2.37916">
        <ele>88.3</ele>
        <time>2015-05-05T18:46:44.114Z</time>
      </trkpt>
      <trkpt lat="48.84534" lon="2.37911">
        <ele>88.2</ele>
        <time>2015-05-05T18:46:45.122Z</time>
      </trkpt>
      <trkpt lat="48.84538" lon="2.37907">
        <ele>88.3</ele>
        <time>2015-05-05T18:46:46.158Z</time>
      </trkpt>
      <trkpt lat="48.84542" lon="2.37902">
        <ele>88.1</ele>
        <time>2015-05-05T18:46:47.176Z</time>
      </trkpt>
      <trkpt lat="48.84546" lon="2.37897">
        <ele>88.2</ele>
        <time>2015-05-05T18:46:48.184Z</time>
      </trkpt>
      <trkpt lat="48.84551" lon="2.37891">
        <ele>88.2</ele>
        <time>2015-05-05T18:46:49.205Z</time>
      </trkpt>
      <trkpt lat="48.84557" lon="2.37887">
        <ele>88.6</ele>
        <time>2015-05-05T18:46:50.201Z</time>
      </trkpt>
      <trkpt lat="48.84561" lon="2.37881">
        <ele>88.6</ele>
        <time>2015-05-05T18:46:51.115Z</time>
      </trkpt>
      <trkpt lat="48.84564" lon="2.37876">
        <ele>88.4</ele>
        <time>2015-05-05T18:46:52.157Z</time>
      </trkpt>
      <trkpt lat="48.84568" lon="2.37871">
        <ele>88.4</ele>
        <time>2015-05-05T18:46:53.203Z</time>
      </trkpt>
      <trkpt lat="48.84572" lon="2.37866">
        <ele>88.1</ele>
        <time>2015-05-05T18:46:54.210Z</time>
      </trkpt>
      <trkpt lat="48.84577" lon="2.37861">
        <ele>88</ele>
        <time>2015-05-05T18:46:55.117Z</time>
      </trkpt>
      <trkpt lat="48.84582" lon="2.37857">
        <ele>87.9</ele>
        <time>2015-05-05T18:46:56.126Z</time>
      </trkpt>
      <trkpt lat="48.84588" lon="2.37852">
        <ele>87.7</ele>
        <time>2015-05-05T18:46:57.132Z</time>
      </trkpt>
      <trkpt lat="48.84594" lon="2.37847">
        <ele>87.5</ele>
        <time>2015-05-05T18:46:58.162Z</time>
      </trkpt>
      <trkpt lat="48.84599" lon="2.37842">
        <ele>87.4</ele>
        <time>2015-05-05T18:46:59.181Z</time>
      </trkpt>
      <trkpt lat="48.84604" lon="2.37837">
        <ele>87.2</ele>
        <time>2015-05-05T18:47:00.192Z</time>
      </trkpt>
      <trkpt lat="48.84609" lon="2.37832">
        <ele>86.9</ele>
        <time>2015-05-05T18:47:01.196Z</time>
      </trkpt>
      <trkpt lat="48.84612" lon="2.37827">
        <ele>86.7</ele>
        <time>2015-05-05T18:47:02.201Z</time>
      </trkpt>
      <trkpt lat="48.84615" lon="2.37821">
        <ele>86.3</ele>
        <time>2015-05-05T18:47:03.116Z</time>
      </trkpt>
      <trkpt lat="48.84618" lon="2.37816">
        <ele>86.2</ele>
        <time>2015-05-05T18:47:04.204Z</time>
      </trkpt>
      <trkpt lat="48.84624" lon="2.37806">
        <ele>85.7</ele>
        <time>2015-05-05T18:47:06.192Z</time>
      </trkpt>
      <trkpt lat="48.84624" lon="2.37799">
        <ele>84.4</ele>
        <time>2015-05-05T18:47:07.183Z</time>
      </trkpt>
      <trkpt lat="48.84625" lon="2.37793">
        <ele>83.9</ele>
        <time>2015-05-05T18:47:08.189Z</time>
      </trkpt>
      <trkpt lat="48.84629" lon="2.37787">
        <ele>84.4</ele>
        <time>2015-05-05T18:47:09.281Z</time>
      </trkpt>
      <trkpt lat="48.84633" lon="2.37781">
        <ele>84.8</ele>
        <time>2015-05-05T18:47:10.161Z</time>
      </trkpt>
      <trkpt lat="48.84635" lon="2.37774">
        <ele>85</ele>
        <time>2015-05-05T18:47:11.167Z</time>
      </trkpt>
      <trkpt lat="48.8464" lon="2.37765">
        <ele>84.7</ele>
        <time>2015-05-05T18:47:13.197Z</time>
      </trkpt>
      <trkpt lat="48.84642" lon="2.37759">
        <ele>84.7</ele>
        <time>2015-05-05T18:47:14.136Z</time>
      </trkpt>
      <trkpt lat="48.84644" lon="2.37752">
        <ele>84.7</ele>
        <time>2015-05-05T18:47:15.224Z</time>
      </trkpt>
      <trkpt lat="48.84647" lon="2.37746">
        <ele>84.9</ele>
        <time>2015-05-05T18:47:16.230Z</time>
      </trkpt>
      <trkpt lat="48.8465" lon="2.37739">
        <ele>85</ele>
        <time>2015-05-05T18:47:17.096Z</time>
      </trkpt>
      <trkpt lat="48.84654" lon="2.37732">
        <ele>85.2</ele>
        <time>2015-05-05T18:47:18.145Z</time>
      </trkpt>
      <trkpt lat="48.84657" lon="2.37724">
        <ele>85.4</ele>
        <time>2015-05-05T18:47:19.179Z</time>
      </trkpt>
      <trkpt lat="48.8466" lon="2.37717">
        <ele>85.5</ele>
        <time>2015-05-05T18:47:20.211Z</time>
      </trkpt>
      <trkpt lat="48.84662" lon="2.3771">
        <ele>85.6</ele>
        <time>2015-05-05T18:47:21.127Z</time>
      </trkpt>
      <trkpt lat="48.84665" lon="2.37701">
        <ele>85.4</ele>
        <time>2015-05-05T18:47:22.186Z</time>
      </trkpt>
      <trkpt lat="48.84669" lon="2.37688">
        <ele>86.1</ele>
        <time>2015-05-05T18:47:23.198Z</time>
      </trkpt>
      <trkpt lat="48.84674" lon="2.37682">
        <ele>86.2</ele>
        <time>2015-05-05T18:47:24.202Z</time>
      </trkpt>
      <trkpt lat="48.84679" lon="2.37677">
        <ele>86.3</ele>
        <time>2015-05-05T18:47:25.202Z</time>
      </trkpt>
      <trkpt lat="48.84684" lon="2.37673">
        <ele>86.2</ele>
        <time>2015-05-05T18:47:26.202Z</time>
      </trkpt>
      <trkpt lat="48.84689" lon="2.37669">
        <ele>86.3</ele>
        <time>2015-05-05T18:47:27.122Z</time>
      </trkpt>
      <trkpt lat="48.84693" lon="2.37664">
        <ele>86.5</ele>
        <time>2015-05-05T18:47:28.223Z</time>
      </trkpt>
      <trkpt lat="48.84698" lon="2.37659">
        <ele>86.8</ele>
        <time>2015-05-05T18:47:29.119Z</time>
      </trkpt>
      <trkpt lat="48.84703" lon="2.37653">
        <ele>86.9</ele>
        <time>2015-05-05T18:47:30.123Z</time>
      </trkpt>
      <trkpt lat="48.84708" lon="2.37649">
        <ele>87</ele>
        <time>2015-05-05T18:47:31.136Z</time>
      </trkpt>
      <trkpt lat="48.84714" lon="2.37644">
        <ele>87</ele>
        <time>2015-05-05T18:47:32.155Z</time>
      </trkpt>
      <trkpt lat="48.84718" lon="2.37639">
        <ele>87</ele>
        <time>2015-05-05T18:47:33.162Z</time>
      </trkpt>
      <trkpt lat="48.84721" lon="2.37633">
        <ele>86.9</ele>
        <time>2015-05-05T18:47:34.176Z</time>
      </trkpt>
      <trkpt lat="48.84725" lon="2.37628">
        <ele>86.7</ele>
        <time>2015-05-05T18:47:35.185Z</time>
      </trkpt>
      <trkpt lat="48.84728" lon="2.37622">
        <ele>86.4</ele>
        <time>2015-05-05T18:47:36.200Z</time>
      </trkpt>
      <trkpt lat="48.8473" lon="2.37613">
        <ele>86.3</ele>
        <time>2015-05-05T18:47:37.209Z</time>
      </trkpt>
      <trkpt lat="48.84732" lon="2.37605">
        <ele>86.3</ele>
        <time>2015-05-05T18:47:38.117Z</time>
      </trkpt>
      <trkpt lat="48.84733" lon="2.37597">
        <ele>86.5</ele>
        <time>2015-05-05T18:47:39.124Z</time>
      </trkpt>
      <trkpt lat="48.84736" lon="2.37589">
        <ele>86.3</ele>
        <time>2015-05-05T18:47:40.156Z</time>
      </trkpt>
      <trkpt lat="48.84739" lon="2.37581">
        <ele>85.8</ele>
        <time>2015-05-05T18:47:41.155Z</time>
      </trkpt>
      <trkpt lat="48.8474" lon="2.37573">
        <ele>85.8</ele>
        <time>2015-05-05T18:47:42.181Z</time>
      </trkpt>
      <trkpt lat="48.84742" lon="2.37565">
        <ele>86.1</ele>
        <time>2015-05-05T18:47:43.187Z</time>
      </trkpt>
      <trkpt lat="48.84745" lon="2.37557">
        <ele>86.3</ele>
        <time>2015-05-05T18:47:44.195Z</time>
      </trkpt>
      <trkpt lat="48.84748" lon="2.37549">
        <ele>86.6</ele>
        <time>2015-05-05T18:47:45.120Z</time>
      </trkpt>
      <trkpt lat="48.84751" lon="2.37542">
        <ele>86.8</ele>
        <time>2015-05-05T18:47:46.223Z</time>
      </trkpt>
      <trkpt lat="48.84755" lon="2.37534">
        <ele>87</ele>
        <time>2015-05-05T18:47:47.108Z</time>
      </trkpt>
      <trkpt lat="48.84758" lon="2.37527">
        <ele>87.2</ele>
        <time>2015-05-05T18:47:48.156Z</time>
      </trkpt>
      <trkpt lat="48.84761" lon="2.3752">
        <ele>87.3</ele>
        <time>2015-05-05T18:47:49.177Z</time>
      </trkpt>
      <trkpt lat="48.84764" lon="2.37513">
        <ele>87.4</ele>
        <time>2015-05-05T18:47:50.192Z</time>
      </trkpt>
      <trkpt lat="48.84767" lon="2.37505">
        <ele>87.3</ele>
        <time>2015-05-05T18:47:51.118Z</time>
      </trkpt>
      <trkpt lat="48.84769" lon="2.37497">
        <ele>87.4</ele>
        <time>2015-05-05T18:47:52.219Z</time>
      </trkpt>
      <trkpt lat="48.84771" lon="2.3749">
        <ele>87.5</ele>
        <time>2015-05-05T18:47:53.130Z</time>
      </trkpt>
      <trkpt lat="48.84774" lon="2.37483">
        <ele>87.7</ele>
        <time>2015-05-05T18:47:54.125Z</time>
      </trkpt>
      <trkpt lat="48.84777" lon="2.37476">
        <ele>87.9</ele>
        <time>2015-05-05T18:47:55.134Z</time>
      </trkpt>
      <trkpt lat="48.84781" lon="2.37469">
        <ele>87.9</ele>
        <time>2015-05-05T18:47:56.153Z</time>
      </trkpt>
      <trkpt lat="48.84784" lon="2.37461">
        <ele>87.7</ele>
        <time>2015-05-05T18:47:57.155Z</time>
      </trkpt>
      <trkpt lat="48.84785" lon="2.37451">
        <ele>86.9</ele>
        <time>2015-05-05T18:47:58.190Z</time>
      </trkpt>
      <trkpt lat="48.84788" lon="2.37444">
        <ele>86.8</ele>
        <time>2015-05-05T18:47:59.098Z</time>
      </trkpt>
      <trkpt lat="48.84792" lon="2.37437">
        <ele>87.2</ele>
        <time>2015-05-05T18:48:00.134Z</time>
      </trkpt>
      <trkpt lat="48.84794" lon="2.3743">
        <ele>87.5</ele>
        <time>2015-05-05T18:48:01.153Z</time>
      </trkpt>
      <trkpt lat="48.84797" lon="2.37425">
        <ele>88</ele>
        <time>2015-05-05T18:48:02.164Z</time>
      </trkpt>
      <trkpt lat="48.84801" lon="2.37419">
        <ele>88.1</ele>
        <time>2015-05-05T18:48:03.168Z</time>
      </trkpt>
      <trkpt lat="48.84803" lon="2.37412">
        <ele>88.2</ele>
        <time>2015-05-05T18:48:04.208Z</time>
      </trkpt>
      <trkpt lat="48.84806" lon="2.37407">
        <ele>88.4</ele>
        <time>2015-05-05T18:48:05.121Z</time>
      </trkpt>
      <trkpt lat="48.8481" lon="2.37402">
        <ele>88.5</ele>
        <time>2015-05-05T18:48:06.098Z</time>
      </trkpt>
      <trkpt lat="48.84813" lon="2.37397">
        <ele>88.5</ele>
        <time>2015-05-05T18:48:07.116Z</time>
      </trkpt>
      <trkpt lat="48.84817" lon="2.37392">
        <ele>88.6</ele>
        <time>2015-05-05T18:48:08.125Z</time>
      </trkpt>
      <trkpt lat="48.84822" lon="2.37385">
        <ele>88.5</ele>
        <time>2015-05-05T18:48:09.135Z</time>
      </trkpt>
      <trkpt lat="48.84826" lon="2.37379">
        <ele>88.7</ele>
        <time>2015-05-05T18:48:10.148Z</time>
      </trkpt>
      <trkpt lat="48.84831" lon="2.37372">
        <ele>88.9</ele>
        <time>2015-05-05T18:48:11.158Z</time>
      </trkpt>
      <trkpt lat="48.84835" lon="2.37365">
        <ele>88.9</ele>
        <time>2015-05-05T18:48:12.169Z</time>
      </trkpt>
      <trkpt lat="48.84839" lon="2.37359">
        <ele>88.8</ele>
        <time>2015-05-05T18:48:13.172Z</time>
      </trkpt>
      <trkpt lat="48.84843" lon="2.37352">
        <ele>88.9</ele>
        <time>2015-05-05T18:48:14.181Z</time>
      </trkpt>
      <trkpt lat="48.84846" lon="2.37345">
        <ele>89.1</ele>
        <time>2015-05-05T18:48:15.213Z</time>
      </trkpt>
      <trkpt lat="48.84849" lon="2.37337">
        <ele>89.3</ele>
        <time>2015-05-05T18:48:16.224Z</time>
      </trkpt>
      <trkpt lat="48.84852" lon="2.37329">
        <ele>89.3</ele>
        <time>2015-05-05T18:48:17.123Z</time>
      </trkpt>
      <trkpt lat="48.84855" lon="2.37321">
        <ele>89.3</ele>
        <time>2015-05-05T18:48:18.140Z</time>
      </trkpt>
      <trkpt lat="48.84859" lon="2.37315">
        <ele>89.4</ele>
        <time>2015-05-05T18:48:19.158Z</time>
      </trkpt>
      <trkpt lat="48.84861" lon="2.37309">
        <ele>89.5</ele>
        <time>2015-05-05T18:48:20.166Z</time>
      </trkpt>
      <trkpt lat="48.84865" lon="2.37303">
        <ele>89.8</ele>
        <time>2015-05-05T18:48:21.187Z</time>
      </trkpt>
      <trkpt lat="48.84866" lon="2.37295">
        <ele>90.1</ele>
        <time>2015-05-05T18:48:22.204Z</time>
      </trkpt>
      <trkpt lat="48.84868" lon="2.3729">
        <ele>90.1</ele>
        <time>2015-05-05T18:48:23.381Z</time>
      </trkpt>
      <trkpt lat="48.84875" lon="2.37296">
        <ele>90.3</ele>
        <time>2015-05-05T18:48:27.199Z</time>
      </trkpt>
      <trkpt lat="48.84878" lon="2.37301">
        <ele>90.1</ele>
        <time>2015-05-05T18:48:28.222Z</time>
      </trkpt>
      <trkpt lat="48.84882" lon="2.37306">
        <ele>90</ele>
        <time>2015-05-05T18:48:29.235Z</time>
      </trkpt>
      <trkpt lat="48.84885" lon="2.37311">
        <ele>90</ele>
        <time>2015-05-05T18:48:30.125Z</time>
      </trkpt>
      <trkpt lat="48.8489" lon="2.37316">
        <ele>89.9</ele>
        <time>2015-05-05T18:48:31.162Z</time>
      </trkpt>
      <trkpt lat="48.84895" lon="2.37322">
        <ele>89.9</ele>
        <time>2015-05-05T18:48:32.170Z</time>
      </trkpt>
      <trkpt lat="48.84898" lon="2.37327">
        <ele>90.1</ele>
        <time>2015-05-05T18:48:33.180Z</time>
      </trkpt>
      <trkpt lat="48.84902" lon="2.37333">
        <ele>90.3</ele>
        <time>2015-05-05T18:48:34.211Z</time>
      </trkpt>
      <trkpt lat="48.84905" lon="2.37339">
        <ele>90.4</ele>
        <time>2015-05-05T18:48:35.117Z</time>
      </trkpt>
      <trkpt lat="48.84909" lon="2.37344">
        <ele>90.5</ele>
        <time>2015-05-05T18:48:36.152Z</time>
      </trkpt>
      <trkpt lat="48.84913" lon="2.3735">
        <ele>90.6</ele>
        <time>2015-05-05T18:48:37.186Z</time>
      </trkpt>
      <trkpt lat="48.84918" lon="2.37356">
        <ele>90.3</ele>
        <time>2015-05-05T18:48:38.197Z</time>
      </trkpt>
      <trkpt lat="48.84923" lon="2.37362">
        <ele>90.3</ele>
        <time>2015-05-05T18:48:39.163Z</time>
      </trkpt>
      <trkpt lat="48.84927" lon="2.37367">
        <ele>90.1</ele>
        <time>2015-05-05T18:48:40.170Z</time>
      </trkpt>
      <trkpt lat="48.84932" lon="2.37374">
        <ele>89.9</ele>
        <time>2015-05-05T18:48:41.181Z</time>
      </trkpt>
      <trkpt lat="48.84937" lon="2.37382">
        <ele>89.8</ele>
        <time>2015-05-05T18:48:42.188Z</time>
      </trkpt>
      <trkpt lat="48.84942" lon="2.37388">
        <ele>89.6</ele>
        <time>2015-05-05T18:48:43.112Z</time>
      </trkpt>
      <trkpt lat="48.84946" lon="2.37395">
        <ele>89.6</ele>
        <time>2015-05-05T18:48:44.113Z</time>
      </trkpt>
      <trkpt lat="48.84949" lon="2.37401">
        <ele>89.6</ele>
        <time>2015-05-05T18:48:45.119Z</time>
      </trkpt>
      <trkpt lat="48.84953" lon="2.37406">
        <ele>89.6</ele>
        <time>2015-05-05T18:48:46.156Z</time>
      </trkpt>
      <trkpt lat="48.84957" lon="2.37411">
        <ele>89.5</ele>
        <time>2015-05-05T18:48:47.158Z</time>
      </trkpt>
      <trkpt lat="48.8496" lon="2.37415">
        <ele>89.5</ele>
        <time>2015-05-05T18:48:48.162Z</time>
      </trkpt>
      <trkpt lat="48.84968" lon="2.37422">
        <ele>89.8</ele>
        <time>2015-05-05T18:48:50.176Z</time>
      </trkpt>
      <trkpt lat="48.84972" lon="2.37426">
        <ele>89.5</ele>
        <time>2015-05-05T18:48:51.245Z</time>
      </trkpt>
      <trkpt lat="48.84978" lon="2.37435">
        <ele>89.4</ele>
        <time>2015-05-05T18:48:53.119Z</time>
      </trkpt>
      <trkpt lat="48.8498" lon="2.3744">
        <ele>89.5</ele>
        <time>2015-05-05T18:48:54.184Z</time>
      </trkpt>
      <trkpt lat="48.84986" lon="2.37448">
        <ele>89.6</ele>
        <time>2015-05-05T18:48:56.157Z</time>
      </trkpt>
      <trkpt lat="48.84989" lon="2.37452">
        <ele>89.6</ele>
        <time>2015-05-05T18:48:57.176Z</time>
      </trkpt>
      <trkpt lat="48.84993" lon="2.37455">
        <ele>89.5</ele>
        <time>2015-05-05T18:48:58.210Z</time>
      </trkpt>
      <trkpt lat="48.84997" lon="2.37459">
        <ele>89.3</ele>
        <time>2015-05-05T18:48:59.127Z</time>
      </trkpt>
      <trkpt lat="48.85" lon="2.37464">
        <ele>89.1</ele>
        <time>2015-05-05T18:49:00.148Z</time>
      </trkpt>
      <trkpt lat="48.85004" lon="2.37467">
        <ele>88.8</ele>
        <time>2015-05-05T18:49:01.147Z</time>
      </trkpt>
      <trkpt lat="48.85007" lon="2.37472">
        <ele>88.5</ele>
        <time>2015-05-05T18:49:02.154Z</time>
      </trkpt>
      <trkpt lat="48.85011" lon="2.37477">
        <ele>88.2</ele>
        <time>2015-05-05T18:49:03.155Z</time>
      </trkpt>
      <trkpt lat="48.85016" lon="2.37481">
        <ele>88</ele>
        <time>2015-05-05T18:49:04.170Z</time>
      </trkpt>
      <trkpt lat="48.85021" lon="2.37485">
        <ele>87.8</ele>
        <time>2015-05-05T18:49:05.178Z</time>
      </trkpt>
      <trkpt lat="48.85027" lon="2.37489">
        <ele>87.7</ele>
        <time>2015-05-05T18:49:06.202Z</time>
      </trkpt>
      <trkpt lat="48.85032" lon="2.37492">
        <ele>87.6</ele>
        <time>2015-05-05T18:49:07.115Z</time>
      </trkpt>
      <trkpt lat="48.85037" lon="2.37496">
        <ele>87.6</ele>
        <time>2015-05-05T18:49:08.130Z</time>
      </trkpt>
      <trkpt lat="48.8504" lon="2.37501">
        <ele>87.5</ele>
        <time>2015-05-05T18:49:09.078Z</time>
      </trkpt>
      <trkpt lat="48.85044" lon="2.37505">
        <ele>87.5</ele>
        <time>2015-05-05T18:49:10.155Z</time>
      </trkpt>
      <trkpt lat="48.85047" lon="2.3751">
        <ele>87.5</ele>
        <time>2015-05-05T18:49:11.175Z</time>
      </trkpt>
      <trkpt lat="48.85051" lon="2.37514">
        <ele>87.6</ele>
        <time>2015-05-05T18:49:12.127Z</time>
      </trkpt>
      <trkpt lat="48.85055" lon="2.37519">
        <ele>87.6</ele>
        <time>2015-05-05T18:49:13.159Z</time>
      </trkpt>
      <trkpt lat="48.8506" lon="2.37524">
        <ele>87.7</ele>
        <time>2015-05-05T18:49:14.181Z</time>
      </trkpt>
      <trkpt lat="48.85063" lon="2.37529">
        <ele>87.7</ele>
        <time>2015-05-05T18:49:15.208Z</time>
      </trkpt>
      <trkpt lat="48.85068" lon="2.37537">
        <ele>88.1</ele>
        <time>2015-05-05T18:49:17.183Z</time>
      </trkpt>
      <trkpt lat="48.8507" lon="2.3754">
        <ele>88.4</ele>
        <time>2015-05-05T18:49:18.146Z</time>
      </trkpt>
      <trkpt lat="48.85072" lon="2.3755">
        <ele>90.4</ele>
        <time>2015-05-05T18:49:23.163Z</time>
      </trkpt>
      <trkpt lat="48.85076" lon="2.37553">
        <ele>91</ele>
        <time>2015-05-05T18:49:24.168Z</time>
      </trkpt>
      <trkpt lat="48.85083" lon="2.3756">
        <ele>91.3</ele>
        <time>2015-05-05T18:49:26.152Z</time>
      </trkpt>
      <trkpt lat="48.85085" lon="2.37563">
        <ele>91.6</ele>
        <time>2015-05-05T18:49:27.197Z</time>
      </trkpt>
      <trkpt lat="48.85092" lon="2.37567">
        <ele>92.2</ele>
        <time>2015-05-05T18:49:30.138Z</time>
      </trkpt>
      <trkpt lat="48.85094" lon="2.3757">
        <ele>92.4</ele>
        <time>2015-05-05T18:49:31.146Z</time>
      </trkpt>
      <trkpt lat="48.85096" lon="2.37578">
        <ele>92.6</ele>
        <time>2015-05-05T18:49:32.186Z</time>
      </trkpt>
      <trkpt lat="48.85098" lon="2.37586">
        <ele>93.1</ele>
        <time>2015-05-05T18:49:33.203Z</time>
      </trkpt>
      <trkpt lat="48.85104" lon="2.37591">
        <ele>93.2</ele>
        <time>2015-05-05T18:49:35.128Z</time>
      </trkpt>
      <trkpt lat="48.85107" lon="2.37592">
        <ele>93.2</ele>
        <time>2015-05-05T18:49:36.155Z</time>
      </trkpt>
      <trkpt lat="48.85114" lon="2.37594">
        <ele>93.5</ele>
        <time>2015-05-05T18:49:40.339Z</time>
      </trkpt>
      <trkpt lat="48.85116" lon="2.37595">
        <ele>94</ele>
        <time>2015-05-05T18:49:41.157Z</time>
      </trkpt>
      <trkpt lat="48.85118" lon="2.37597">
        <ele>94.6</ele>
        <time>2015-05-05T18:49:42.230Z</time>
      </trkpt>
      <trkpt lat="48.85119" lon="2.37598">
        <ele>94.8</ele>
        <time>2015-05-05T18:49:43.120Z</time>
      </trkpt>
      <trkpt lat="48.8512" lon="2.37599">
        <ele>94.8</ele>
        <time>2015-05-05T18:49:44.134Z</time>
      </trkpt>
      <trkpt lat="48.85126" lon="2.3759">
        <ele>100.6</ele>
        <time>2015-05-05T18:50:04.198Z</time>
      </trkpt>
      <trkpt lat="48.85127" lon="2.37587">
        <ele>100.6</ele>
        <time>2015-05-05T18:50:05.118Z</time>
      </trkpt>
      <trkpt lat="48.85131" lon="2.37576">
        <ele>100.5</ele>
        <time>2015-05-05T18:50:08.144Z</time>
      </trkpt>
      <trkpt lat="48.85132" lon="2.3757">
        <ele>100.4</ele>
        <time>2015-05-05T18:50:09.168Z</time>
      </trkpt>
      <trkpt lat="48.85134" lon="2.37563">
        <ele>100.1</ele>
        <time>2015-05-05T18:50:10.153Z</time>
      </trkpt>
      <trkpt lat="48.85135" lon="2.37556">
        <ele>100</ele>
        <time>2015-05-05T18:50:11.153Z</time>
      </trkpt>
      <trkpt lat="48.85136" lon="2.37548">
        <ele>99.6</ele>
        <time>2015-05-05T18:50:12.185Z</time>
      </trkpt>
      <trkpt lat="48.85137" lon="2.37539">
        <ele>99.4</ele>
        <time>2015-05-05T18:50:13.201Z</time>
      </trkpt>
      <trkpt lat="48.85138" lon="2.37531">
        <ele>99.4</ele>
        <time>2015-05-05T18:50:14.117Z</time>
      </trkpt>
      <trkpt lat="48.85139" lon="2.37524">
        <ele>99.3</ele>
        <time>2015-05-05T18:50:15.126Z</time>
      </trkpt>
      <trkpt lat="48.8514" lon="2.37516">
        <ele>99</ele>
        <time>2015-05-05T18:50:16.151Z</time>
      </trkpt>
      <trkpt lat="48.85142" lon="2.3751">
        <ele>98.9</ele>
        <time>2015-05-05T18:50:17.159Z</time>
      </trkpt>
      <trkpt lat="48.85143" lon="2.37503">
        <ele>98.9</ele>
        <time>2015-05-05T18:50:18.169Z</time>
      </trkpt>
      <trkpt lat="48.85145" lon="2.37497">
        <ele>98.7</ele>
        <time>2015-05-05T18:50:19.212Z</time>
      </trkpt>
      <trkpt lat="48.85147" lon="2.37489">
        <ele>98.7</ele>
        <time>2015-05-05T18:50:20.138Z</time>
      </trkpt>
      <trkpt lat="48.85149" lon="2.37481">
        <ele>98.6</ele>
        <time>2015-05-05T18:50:21.124Z</time>
      </trkpt>
      <trkpt lat="48.85152" lon="2.37473">
        <ele>98.6</ele>
        <time>2015-05-05T18:50:22.159Z</time>
      </trkpt>
      <trkpt lat="48.85157" lon="2.37466">
        <ele>98.6</ele>
        <time>2015-05-05T18:50:23.165Z</time>
      </trkpt>
      <trkpt lat="48.85159" lon="2.37459">
        <ele>98.7</ele>
        <time>2015-05-05T18:50:24.199Z</time>
      </trkpt>
      <trkpt lat="48.85162" lon="2.3745">
        <ele>98.6</ele>
        <time>2015-05-05T18:50:25.123Z</time>
      </trkpt>
      <trkpt lat="48.85165" lon="2.37443">
        <ele>98.6</ele>
        <time>2015-05-05T18:50:26.101Z</time>
      </trkpt>
      <trkpt lat="48.85168" lon="2.37435">
        <ele>98.7</ele>
        <time>2015-05-05T18:50:27.115Z</time>
      </trkpt>
      <trkpt lat="48.85171" lon="2.37428">
        <ele>98.7</ele>
        <time>2015-05-05T18:50:28.139Z</time>
      </trkpt>
      <trkpt lat="48.85173" lon="2.37421">
        <ele>98.7</ele>
        <time>2015-05-05T18:50:29.173Z</time>
      </trkpt>
      <trkpt lat="48.85175" lon="2.37414">
        <ele>98.6</ele>
        <time>2015-05-05T18:50:30.113Z</time>
      </trkpt>
      <trkpt lat="48.85178" lon="2.37407">
        <ele>98.7</ele>
        <time>2015-05-05T18:50:31.114Z</time>
      </trkpt>
      <trkpt lat="48.8518" lon="2.37402">
        <ele>98.7</ele>
        <time>2015-05-05T18:50:32.117Z</time>
      </trkpt>
      <trkpt lat="48.85183" lon="2.37396">
        <ele>98.9</ele>
        <time>2015-05-05T18:50:33.124Z</time>
      </trkpt>
      <trkpt lat="48.85189" lon="2.37387">
        <ele>99.1</ele>
        <time>2015-05-05T18:50:35.162Z</time>
      </trkpt>
      <trkpt lat="48.85191" lon="2.37384">
        <ele>99.3</ele>
        <time>2015-05-05T18:50:36.174Z</time>
      </trkpt>
      <trkpt lat="48.85197" lon="2.37383">
        <ele>99.3</ele>
        <time>2015-05-05T18:50:40.233Z</time>
      </trkpt>
      <trkpt lat="48.85197" lon="2.37383">
        <ele>99.4</ele>
        <time>2015-05-05T18:50:41.113Z</time>
      </trkpt>
      <trkpt lat="48.85198" lon="2.37383">
        <ele>99.5</ele>
        <time>2015-05-05T18:50:42.133Z</time>
      </trkpt>
      <trkpt lat="48.85199" lon="2.37382">
        <ele>100.5</ele>
        <time>2015-05-05T18:50:45.175Z</time>
      </trkpt>
      <trkpt lat="48.85199" lon="2.37382">
        <ele>101</ele>
        <time>2015-05-05T18:50:46.218Z</time>
      </trkpt>
      <trkpt lat="48.85198" lon="2.37381">
        <ele>101.2</ele>
        <time>2015-05-05T18:50:56.145Z</time>
      </trkpt>
      <trkpt lat="48.852" lon="2.37381">
        <ele>101</ele>
        <time>2015-05-05T18:50:57.148Z</time>
      </trkpt>
      <trkpt lat="48.85205" lon="2.3737">
        <ele>101.2</ele>
        <time>2015-05-05T18:51:02.125Z</time>
      </trkpt>
      <trkpt lat="48.85206" lon="2.37364">
        <ele>101.3</ele>
        <time>2015-05-05T18:51:03.153Z</time>
      </trkpt>
      <trkpt lat="48.85208" lon="2.37353">
        <ele>101</ele>
        <time>2015-05-05T18:51:05.113Z</time>
      </trkpt>
      <trkpt lat="48.85211" lon="2.37348">
        <ele>100.8</ele>
        <time>2015-05-05T18:51:06.131Z</time>
      </trkpt>
      <trkpt lat="48.85213" lon="2.37338">
        <ele>100</ele>
        <time>2015-05-05T18:51:08.167Z</time>
      </trkpt>
      <trkpt lat="48.85214" lon="2.37332">
        <ele>99.5</ele>
        <time>2015-05-05T18:51:09.368Z</time>
      </trkpt>
      <trkpt lat="48.85216" lon="2.37326">
        <ele>99.5</ele>
        <time>2015-05-05T18:51:10.198Z</time>
      </trkpt>
      <trkpt lat="48.85218" lon="2.37319">
        <ele>99.5</ele>
        <time>2015-05-05T18:51:11.118Z</time>
      </trkpt>
      <trkpt lat="48.85221" lon="2.37313">
        <ele>99.4</ele>
        <time>2015-05-05T18:51:12.128Z</time>
      </trkpt>
      <trkpt lat="48.85222" lon="2.37305">
        <ele>99.5</ele>
        <time>2015-05-05T18:51:13.144Z</time>
      </trkpt>
      <trkpt lat="48.85224" lon="2.37299">
        <ele>99.6</ele>
        <time>2015-05-05T18:51:14.112Z</time>
      </trkpt>
      <trkpt lat="48.85227" lon="2.37291">
        <ele>99.5</ele>
        <time>2015-05-05T18:51:15.098Z</time>
      </trkpt>
      <trkpt lat="48.85228" lon="2.37284">
        <ele>99.5</ele>
        <time>2015-05-05T18:51:16.124Z</time>
      </trkpt>
      <trkpt lat="48.8523" lon="2.37279">
        <ele>99.3</ele>
        <time>2015-05-05T18:51:17.134Z</time>
      </trkpt>
      <trkpt lat="48.85232" lon="2.37273">
        <ele>99.2</ele>
        <time>2015-05-05T18:51:18.156Z</time>
      </trkpt>
      <trkpt lat="48.85232" lon="2.37265">
        <ele>99.5</ele>
        <time>2015-05-05T18:51:19.196Z</time>
      </trkpt>
      <trkpt lat="48.85233" lon="2.37257">
        <ele>99.7</ele>
        <time>2015-05-05T18:51:20.088Z</time>
      </trkpt>
      <trkpt lat="48.85234" lon="2.3725">
        <ele>100</ele>
        <time>2015-05-05T18:51:21.090Z</time>
      </trkpt>
      <trkpt lat="48.85234" lon="2.37243">
        <ele>100.1</ele>
        <time>2015-05-05T18:51:22.137Z</time>
      </trkpt>
      <trkpt lat="48.85235" lon="2.37236">
        <ele>100.4</ele>
        <time>2015-05-05T18:51:23.146Z</time>
      </trkpt>
      <trkpt lat="48.85236" lon="2.37229">
        <ele>100.7</ele>
        <time>2015-05-05T18:51:24.166Z</time>
      </trkpt>
      <trkpt lat="48.85237" lon="2.37221">
        <ele>101</ele>
        <time>2015-05-05T18:51:25.180Z</time>
      </trkpt>
      <trkpt lat="48.85238" lon="2.37214">
        <ele>101</ele>
        <time>2015-05-05T18:51:26.101Z</time>
      </trkpt>
      <trkpt lat="48.8524" lon="2.37208">
        <ele>100.9</ele>
        <time>2015-05-05T18:51:27.102Z</time>
      </trkpt>
      <trkpt lat="48.85241" lon="2.37202">
        <ele>100.7</ele>
        <time>2015-05-05T18:51:28.175Z</time>
      </trkpt>
      <trkpt lat="48.85243" lon="2.37195">
        <ele>100.7</ele>
        <time>2015-05-05T18:51:29.096Z</time>
      </trkpt>
      <trkpt lat="48.85245" lon="2.37188">
        <ele>100.7</ele>
        <time>2015-05-05T18:51:30.100Z</time>
      </trkpt>
      <trkpt lat="48.85248" lon="2.37181">
        <ele>100.7</ele>
        <time>2015-05-05T18:51:31.117Z</time>
      </trkpt>
      <trkpt lat="48.85251" lon="2.37174">
        <ele>100.7</ele>
        <time>2015-05-05T18:51:32.128Z</time>
      </trkpt>
      <trkpt lat="48.85254" lon="2.37167">
        <ele>100.6</ele>
        <time>2015-05-05T18:51:33.183Z</time>
      </trkpt>
      <trkpt lat="48.85256" lon="2.37161">
        <ele>100.8</ele>
        <time>2015-05-05T18:51:34.212Z</time>
      </trkpt>
      <trkpt lat="48.85259" lon="2.37154">
        <ele>100.9</ele>
        <time>2015-05-05T18:51:35.110Z</time>
      </trkpt>
      <trkpt lat="48.85262" lon="2.37146">
        <ele>100.9</ele>
        <time>2015-05-05T18:51:36.105Z</time>
      </trkpt>
      <trkpt lat="48.85264" lon="2.37138">
        <ele>100.9</ele>
        <time>2015-05-05T18:51:37.121Z</time>
      </trkpt>
      <trkpt lat="48.85268" lon="2.3713">
        <ele>100.9</ele>
        <time>2015-05-05T18:51:38.131Z</time>
      </trkpt>
      <trkpt lat="48.85272" lon="2.37122">
        <ele>101</ele>
        <time>2015-05-05T18:51:39.144Z</time>
      </trkpt>
      <trkpt lat="48.85276" lon="2.37115">
        <ele>101.1</ele>
        <time>2015-05-05T18:51:40.152Z</time>
      </trkpt>
      <trkpt lat="48.8528" lon="2.37108">
        <ele>101.2</ele>
        <time>2015-05-05T18:51:41.159Z</time>
      </trkpt>
      <trkpt lat="48.85284" lon="2.37101">
        <ele>101.1</ele>
        <time>2015-05-05T18:51:42.176Z</time>
      </trkpt>
      <trkpt lat="48.85288" lon="2.37096">
        <ele>101.2</ele>
        <time>2015-05-05T18:51:43.095Z</time>
      </trkpt>
      <trkpt lat="48.85294" lon="2.37092">
        <ele>101.2</ele>
        <time>2015-05-05T18:51:44.115Z</time>
      </trkpt>
      <trkpt lat="48.85299" lon="2.37089">
        <ele>101.2</ele>
        <time>2015-05-05T18:51:45.126Z</time>
      </trkpt>
      <trkpt lat="48.85304" lon="2.37086">
        <ele>101.4</ele>
        <time>2015-05-05T18:51:46.138Z</time>
      </trkpt>
      <trkpt lat="48.85308" lon="2.37081">
        <ele>101.3</ele>
        <time>2015-05-05T18:51:47.144Z</time>
      </trkpt>
      <trkpt lat="48.85313" lon="2.37077">
        <ele>101.2</ele>
        <time>2015-05-05T18:51:48.157Z</time>
      </trkpt>
      <trkpt lat="48.85316" lon="2.37072">
        <ele>100.9</ele>
        <time>2015-05-05T18:51:49.163Z</time>
      </trkpt>
      <trkpt lat="48.85318" lon="2.37059">
        <ele>98.6</ele>
        <time>2015-05-05T18:51:51.105Z</time>
      </trkpt>
      <trkpt lat="48.8532" lon="2.37053">
        <ele>98.1</ele>
        <time>2015-05-05T18:51:52.145Z</time>
      </trkpt>
      <trkpt lat="48.85324" lon="2.37044">
        <ele>97.3</ele>
        <time>2015-05-05T18:51:54.100Z</time>
      </trkpt>
      <trkpt lat="48.85326" lon="2.3704">
        <ele>97.3</ele>
        <time>2015-05-05T18:51:55.146Z</time>
      </trkpt>
      <trkpt lat="48.85332" lon="2.37038">
        <ele>95.2</ele>
        <time>2015-05-05T18:51:57.240Z</time>
      </trkpt>
      <trkpt lat="48.85337" lon="2.37043">
        <ele>93.1</ele>
        <time>2015-05-05T18:51:58.297Z</time>
      </trkpt>
      <trkpt lat="48.85342" lon="2.37049">
        <ele>92.1</ele>
        <time>2015-05-05T18:51:59.127Z</time>
      </trkpt>
      <trkpt lat="48.85345" lon="2.37054">
        <ele>91.6</ele>
        <time>2015-05-05T18:52:00.139Z</time>
      </trkpt>
      <trkpt lat="48.85351" lon="2.37062">
        <ele>91.5</ele>
        <time>2015-05-05T18:52:02.178Z</time>
      </trkpt>
      <trkpt lat="48.85355" lon="2.37065">
        <ele>91.5</ele>
        <time>2015-05-05T18:52:03.215Z</time>
      </trkpt>
      <trkpt lat="48.85359" lon="2.37069">
        <ele>91.4</ele>
        <time>2015-05-05T18:52:04.227Z</time>
      </trkpt>
      <trkpt lat="48.85363" lon="2.37073">
        <ele>91.4</ele>
        <time>2015-05-05T18:52:05.111Z</time>
      </trkpt>
      <trkpt lat="48.85368" lon="2.37077">
        <ele>91.4</ele>
        <time>2015-05-05T18:52:06.115Z</time>
      </trkpt>
      <trkpt lat="48.85372" lon="2.37082">
        <ele>91.3</ele>
        <time>2015-05-05T18:52:07.115Z</time>
      </trkpt>
      <trkpt lat="48.85376" lon="2.37086">
        <ele>91.3</ele>
        <time>2015-05-05T18:52:08.122Z</time>
      </trkpt>
      <trkpt lat="48.85381" lon="2.3709">
        <ele>91.4</ele>
        <time>2015-05-05T18:52:09.121Z</time>
      </trkpt>
      <trkpt lat="48.85386" lon="2.37094">
        <ele>91.4</ele>
        <time>2015-05-05T18:52:10.160Z</time>
      </trkpt>
      <trkpt lat="48.85391" lon="2.37097">
        <ele>91.4</ele>
        <time>2015-05-05T18:52:11.173Z</time>
      </trkpt>
      <trkpt lat="48.85398" lon="2.37104">
        <ele>91.5</ele>
        <time>2015-05-05T18:52:13.111Z</time>
      </trkpt>
      <trkpt lat="48.85403" lon="2.37109">
        <ele>91.6</ele>
        <time>2015-05-05T18:52:14.135Z</time>
      </trkpt>
      <trkpt lat="48.85408" lon="2.37113">
        <ele>91.5</ele>
        <time>2015-05-05T18:52:15.206Z</time>
      </trkpt>
      <trkpt lat="48.85413" lon="2.37117">
        <ele>91.4</ele>
        <time>2015-05-05T18:52:16.199Z</time>
      </trkpt>
      <trkpt lat="48.85418" lon="2.37122">
        <ele>91.3</ele>
        <time>2015-05-05T18:52:17.121Z</time>
      </trkpt>
      <trkpt lat="48.85423" lon="2.37127">
        <ele>91.3</ele>
        <time>2015-05-05T18:52:18.123Z</time>
      </trkpt>
      <trkpt lat="48.85428" lon="2.37133">
        <ele>91.4</ele>
        <time>2015-05-05T18:52:19.130Z</time>
      </trkpt>
      <trkpt lat="48.85432" lon="2.3714">
        <ele>91.5</ele>
        <time>2015-05-05T18:52:20.136Z</time>
      </trkpt>
      <trkpt lat="48.85436" lon="2.37149">
        <ele>91.6</ele>
        <time>2015-05-05T18:52:21.149Z</time>
      </trkpt>
      <trkpt lat="48.85437" lon="2.37158">
        <ele>91.6</ele>
        <time>2015-05-05T18:52:22.154Z</time>
      </trkpt>
      <trkpt lat="48.8544" lon="2.37167">
        <ele>91.7</ele>
        <time>2015-05-05T18:52:23.165Z</time>
      </trkpt>
      <trkpt lat="48.85444" lon="2.37176">
        <ele>91.7</ele>
        <time>2015-05-05T18:52:24.171Z</time>
      </trkpt>
      <trkpt lat="48.85447" lon="2.37185">
        <ele>91.7</ele>
        <time>2015-05-05T18:52:25.192Z</time>
      </trkpt>
      <trkpt lat="48.85449" lon="2.37194">
        <ele>91.7</ele>
        <time>2015-05-05T18:52:26.108Z</time>
      </trkpt>
      <trkpt lat="48.85451" lon="2.37204">
        <ele>91.7</ele>
        <time>2015-05-05T18:52:27.107Z</time>
      </trkpt>
      <trkpt lat="48.85452" lon="2.37214">
        <ele>91.5</ele>
        <time>2015-05-05T18:52:28.148Z</time>
      </trkpt>
      <trkpt lat="48.85456" lon="2.37224">
        <ele>91.5</ele>
        <time>2015-05-05T18:52:29.154Z</time>
      </trkpt>
      <trkpt lat="48.85458" lon="2.37233">
        <ele>91.4</ele>
        <time>2015-05-05T18:52:30.166Z</time>
      </trkpt>
      <trkpt lat="48.8546" lon="2.37244">
        <ele>91.4</ele>
        <time>2015-05-05T18:52:31.178Z</time>
      </trkpt>
      <trkpt lat="48.85462" lon="2.37254">
        <ele>91.3</ele>
        <time>2015-05-05T18:52:32.183Z</time>
      </trkpt>
      <trkpt lat="48.85469" lon="2.37264">
        <ele>91.7</ele>
        <time>2015-05-05T18:52:33.207Z</time>
      </trkpt>
      <trkpt lat="48.85477" lon="2.37273">
        <ele>92.3</ele>
        <time>2015-05-05T18:52:34.219Z</time>
      </trkpt>
      <trkpt lat="48.85479" lon="2.37282">
        <ele>92.4</ele>
        <time>2015-05-05T18:52:35.093Z</time>
      </trkpt>
      <trkpt lat="48.85481" lon="2.3729">
        <ele>92.5</ele>
        <time>2015-05-05T18:52:36.109Z</time>
      </trkpt>
      <trkpt lat="48.85483" lon="2.37299">
        <ele>92.5</ele>
        <time>2015-05-05T18:52:37.123Z</time>
      </trkpt>
      <trkpt lat="48.85487" lon="2.37307">
        <ele>92.5</ele>
        <time>2015-05-05T18:52:38.141Z</time>
      </trkpt>
      <trkpt lat="48.85491" lon="2.37315">
        <ele>92.6</ele>
        <time>2015-05-05T18:52:39.150Z</time>
      </trkpt>
      <trkpt lat="48.85494" lon="2.37323">
        <ele>92.5</ele>
        <time>2015-05-05T18:52:40.163Z</time>
      </trkpt>
      <trkpt lat="48.85497" lon="2.37331">
        <ele>92.5</ele>
        <time>2015-05-05T18:52:41.178Z</time>
      </trkpt>
      <trkpt lat="48.85499" lon="2.37337">
        <ele>92.6</ele>
        <time>2015-05-05T18:52:42.093Z</time>
      </trkpt>
      <trkpt lat="48.85501" lon="2.37345">
        <ele>92.6</ele>
        <time>2015-05-05T18:52:43.103Z</time>
      </trkpt>
      <trkpt lat="48.85507" lon="2.37353">
        <ele>93.6</ele>
        <time>2015-05-05T18:52:44.133Z</time>
      </trkpt>
      <trkpt lat="48.85511" lon="2.3736">
        <ele>93.9</ele>
        <time>2015-05-05T18:52:45.137Z</time>
      </trkpt>
      <trkpt lat="48.85513" lon="2.37368">
        <ele>94</ele>
        <time>2015-05-05T18:52:46.148Z</time>
      </trkpt>
      <trkpt lat="48.85516" lon="2.3738">
        <ele>94</ele>
        <time>2015-05-05T18:52:48.155Z</time>
      </trkpt>
      <trkpt lat="48.85518" lon="2.37386">
        <ele>93.9</ele>
        <time>2015-05-05T18:52:49.165Z</time>
      </trkpt>
      <trkpt lat="48.85519" lon="2.37393">
        <ele>93.8</ele>
        <time>2015-05-05T18:52:50.191Z</time>
      </trkpt>
      <trkpt lat="48.8552" lon="2.37402">
        <ele>93.8</ele>
        <time>2015-05-05T18:52:51.097Z</time>
      </trkpt>
      <trkpt lat="48.85521" lon="2.37413">
        <ele>93.7</ele>
        <time>2015-05-05T18:52:52.130Z</time>
      </trkpt>
      <trkpt lat="48.85522" lon="2.37421">
        <ele>93.6</ele>
        <time>2015-05-05T18:52:53.131Z</time>
      </trkpt>
      <trkpt lat="48.85523" lon="2.3743">
        <ele>93.5</ele>
        <time>2015-05-05T18:52:54.142Z</time>
      </trkpt>
      <trkpt lat="48.85524" lon="2.37438">
        <ele>93.4</ele>
        <time>2015-05-05T18:52:55.155Z</time>
      </trkpt>
      <trkpt lat="48.85527" lon="2.37445">
        <ele>93.1</ele>
        <time>2015-05-05T18:52:56.165Z</time>
      </trkpt>
      <trkpt lat="48.85531" lon="2.37451">
        <ele>93</ele>
        <time>2015-05-05T18:52:57.169Z</time>
      </trkpt>
      <trkpt lat="48.85537" lon="2.37459">
        <ele>93.6</ele>
        <time>2015-05-05T18:52:58.181Z</time>
      </trkpt>
      <trkpt lat="48.85542" lon="2.37466">
        <ele>94.3</ele>
        <time>2015-05-05T18:52:59.186Z</time>
      </trkpt>
      <trkpt lat="48.85547" lon="2.37473">
        <ele>94.9</ele>
        <time>2015-05-05T18:53:00.203Z</time>
      </trkpt>
      <trkpt lat="48.8555" lon="2.37479">
        <ele>95.4</ele>
        <time>2015-05-05T18:53:01.122Z</time>
      </trkpt>
      <trkpt lat="48.85553" lon="2.37485">
        <ele>95.5</ele>
        <time>2015-05-05T18:53:02.121Z</time>
      </trkpt>
      <trkpt lat="48.85555" lon="2.37491">
        <ele>95.6</ele>
        <time>2015-05-05T18:53:03.123Z</time>
      </trkpt>
      <trkpt lat="48.85558" lon="2.37498">
        <ele>95.9</ele>
        <time>2015-05-05T18:53:04.158Z</time>
      </trkpt>
      <trkpt lat="48.85561" lon="2.37504">
        <ele>95.9</ele>
        <time>2015-05-05T18:53:05.166Z</time>
      </trkpt>
      <trkpt lat="48.85563" lon="2.3751">
        <ele>96</ele>
        <time>2015-05-05T18:53:06.173Z</time>
      </trkpt>
      <trkpt lat="48.85565" lon="2.37516">
        <ele>96.1</ele>
        <time>2015-05-05T18:53:07.189Z</time>
      </trkpt>
      <trkpt lat="48.85567" lon="2.37523">
        <ele>96.2</ele>
        <time>2015-05-05T18:53:08.126Z</time>
      </trkpt>
      <trkpt lat="48.85569" lon="2.37529">
        <ele>96.5</ele>
        <time>2015-05-05T18:53:09.114Z</time>
      </trkpt>
      <trkpt lat="48.85574" lon="2.37539">
        <ele>96.5</ele>
        <time>2015-05-05T18:53:11.167Z</time>
      </trkpt>
      <trkpt lat="48.85576" lon="2.37544">
        <ele>96.4</ele>
        <time>2015-05-05T18:53:12.182Z</time>
      </trkpt>
      <trkpt lat="48.85579" lon="2.37549">
        <ele>96.5</ele>
        <time>2015-05-05T18:53:13.121Z</time>
      </trkpt>
      <trkpt lat="48.85583" lon="2.37555">
        <ele>96.7</ele>
        <time>2015-05-05T18:53:14.111Z</time>
      </trkpt>
      <trkpt lat="48.85585" lon="2.37561">
        <ele>97</ele>
        <time>2015-05-05T18:53:15.127Z</time>
      </trkpt>
      <trkpt lat="48.85588" lon="2.37567">
        <ele>97</ele>
        <time>2015-05-05T18:53:16.158Z</time>
      </trkpt>
      <trkpt lat="48.8559" lon="2.37576">
        <ele>97</ele>
        <time>2015-05-05T18:53:17.160Z</time>
      </trkpt>
      <trkpt lat="48.85593" lon="2.37584">
        <ele>97</ele>
        <time>2015-05-05T18:53:18.163Z</time>
      </trkpt>
      <trkpt lat="48.85595" lon="2.37591">
        <ele>96.9</ele>
        <time>2015-05-05T18:53:19.174Z</time>
      </trkpt>
      <trkpt lat="48.85598" lon="2.37598">
        <ele>97</ele>
        <time>2015-05-05T18:53:20.190Z</time>
      </trkpt>
      <trkpt lat="48.856" lon="2.37606">
        <ele>96.9</ele>
        <time>2015-05-05T18:53:21.114Z</time>
      </trkpt>
      <trkpt lat="48.85601" lon="2.37613">
        <ele>96.8</ele>
        <time>2015-05-05T18:53:22.152Z</time>
      </trkpt>
      <trkpt lat="48.85605" lon="2.3762">
        <ele>96.7</ele>
        <time>2015-05-05T18:53:23.197Z</time>
      </trkpt>
      <trkpt lat="48.85606" lon="2.37627">
        <ele>96.7</ele>
        <time>2015-05-05T18:53:24.208Z</time>
      </trkpt>
      <trkpt lat="48.85608" lon="2.37635">
        <ele>96.8</ele>
        <time>2015-05-05T18:53:25.110Z</time>
      </trkpt>
      <trkpt lat="48.8561" lon="2.37643">
        <ele>96.7</ele>
        <time>2015-05-05T18:53:26.112Z</time>
      </trkpt>
      <trkpt lat="48.85612" lon="2.3765">
        <ele>96.8</ele>
        <time>2015-05-05T18:53:27.126Z</time>
      </trkpt>
      <trkpt lat="48.85613" lon="2.37658">
        <ele>96.9</ele>
        <time>2015-05-05T18:53:28.157Z</time>
      </trkpt>
      <trkpt lat="48.85615" lon="2.37666">
        <ele>96.8</ele>
        <time>2015-05-05T18:53:29.175Z</time>
      </trkpt>
      <trkpt lat="48.85617" lon="2.37673">
        <ele>96.8</ele>
        <time>2015-05-05T18:53:30.185Z</time>
      </trkpt>
      <trkpt lat="48.85621" lon="2.3768">
        <ele>97.2</ele>
        <time>2015-05-05T18:53:31.193Z</time>
      </trkpt>
      <trkpt lat="48.85627" lon="2.37687">
        <ele>97.5</ele>
        <time>2015-05-05T18:53:32.122Z</time>
      </trkpt>
      <trkpt lat="48.85633" lon="2.37694">
        <ele>97.4</ele>
        <time>2015-05-05T18:53:33.118Z</time>
      </trkpt>
      <trkpt lat="48.85637" lon="2.37701">
        <ele>97.6</ele>
        <time>2015-05-05T18:53:34.153Z</time>
      </trkpt>
      <trkpt lat="48.85639" lon="2.37707">
        <ele>97.3</ele>
        <time>2015-05-05T18:53:35.170Z</time>
      </trkpt>
      <trkpt lat="48.85641" lon="2.37713">
        <ele>97</ele>
        <time>2015-05-05T18:53:36.180Z</time>
      </trkpt>
      <trkpt lat="48.85643" lon="2.3772">
        <ele>96.6</ele>
        <time>2015-05-05T18:53:37.193Z</time>
      </trkpt>
      <trkpt lat="48.85644" lon="2.37726">
        <ele>96.5</ele>
        <time>2015-05-05T18:53:38.096Z</time>
      </trkpt>
      <trkpt lat="48.85646" lon="2.37733">
        <ele>96.4</ele>
        <time>2015-05-05T18:53:39.121Z</time>
      </trkpt>
      <trkpt lat="48.85647" lon="2.3774">
        <ele>96.1</ele>
        <time>2015-05-05T18:53:40.156Z</time>
      </trkpt>
      <trkpt lat="48.85649" lon="2.37746">
        <ele>96.1</ele>
        <time>2015-05-05T18:53:41.165Z</time>
      </trkpt>
      <trkpt lat="48.85651" lon="2.37753">
        <ele>96</ele>
        <time>2015-05-05T18:53:42.168Z</time>
      </trkpt>
      <trkpt lat="48.85653" lon="2.37759">
        <ele>95.8</ele>
        <time>2015-05-05T18:53:43.088Z</time>
      </trkpt>
      <trkpt lat="48.85655" lon="2.37766">
        <ele>95.8</ele>
        <time>2015-05-05T18:53:44.202Z</time>
      </trkpt>
      <trkpt lat="48.85659" lon="2.37771">
        <ele>95.8</ele>
        <time>2015-05-05T18:53:45.153Z</time>
      </trkpt>
      <trkpt lat="48.85662" lon="2.37776">
        <ele>95.8</ele>
        <time>2015-05-05T18:53:46.230Z</time>
      </trkpt>
      <trkpt lat="48.85666" lon="2.37781">
        <ele>95.8</ele>
        <time>2015-05-05T18:53:47.126Z</time>
      </trkpt>
      <trkpt lat="48.85669" lon="2.37787">
        <ele>95.8</ele>
        <time>2015-05-05T18:53:48.143Z</time>
      </trkpt>
      <trkpt lat="48.85672" lon="2.37795">
        <ele>95.8</ele>
        <time>2015-05-05T18:53:49.171Z</time>
      </trkpt>
      <trkpt lat="48.85677" lon="2.37803">
        <ele>96.1</ele>
        <time>2015-05-05T18:53:50.178Z</time>
      </trkpt>
      <trkpt lat="48.85678" lon="2.37811">
        <ele>96.2</ele>
        <time>2015-05-05T18:53:51.180Z</time>
      </trkpt>
      <trkpt lat="48.8568" lon="2.3782">
        <ele>96.3</ele>
        <time>2015-05-05T18:53:52.183Z</time>
      </trkpt>
      <trkpt lat="48.85681" lon="2.37829">
        <ele>96.4</ele>
        <time>2015-05-05T18:53:53.108Z</time>
      </trkpt>
      <trkpt lat="48.85684" lon="2.37837">
        <ele>96.5</ele>
        <time>2015-05-05T18:53:54.108Z</time>
      </trkpt>
      <trkpt lat="48.85687" lon="2.37844">
        <ele>96.5</ele>
        <time>2015-05-05T18:53:55.164Z</time>
      </trkpt>
      <trkpt lat="48.8569" lon="2.37852">
        <ele>96.5</ele>
        <time>2015-05-05T18:53:56.173Z</time>
      </trkpt>
      <trkpt lat="48.85693" lon="2.37859">
        <ele>96.4</ele>
        <time>2015-05-05T18:53:57.108Z</time>
      </trkpt>
      <trkpt lat="48.85696" lon="2.37866">
        <ele>96.3</ele>
        <time>2015-05-05T18:53:58.139Z</time>
      </trkpt>
      <trkpt lat="48.85699" lon="2.37874">
        <ele>96.4</ele>
        <time>2015-05-05T18:53:59.096Z</time>
      </trkpt>
      <trkpt lat="48.85702" lon="2.37882">
        <ele>96.5</ele>
        <time>2015-05-05T18:54:00.160Z</time>
      </trkpt>
      <trkpt lat="48.85705" lon="2.37889">
        <ele>96.5</ele>
        <time>2015-05-05T18:54:01.178Z</time>
      </trkpt>
      <trkpt lat="48.85708" lon="2.37895">
        <ele>96.6</ele>
        <time>2015-05-05T18:54:02.185Z</time>
      </trkpt>
      <trkpt lat="48.85713" lon="2.37905">
        <ele>96.8</ele>
        <time>2015-05-05T18:54:04.143Z</time>
      </trkpt>
      <trkpt lat="48.85715" lon="2.3791">
        <ele>96.9</ele>
        <time>2015-05-05T18:54:05.148Z</time>
      </trkpt>
      <trkpt lat="48.85719" lon="2.37915">
        <ele>96.6</ele>
        <time>2015-05-05T18:54:06.102Z</time>
      </trkpt>
      <trkpt lat="48.85721" lon="2.37921">
        <ele>97</ele>
        <time>2015-05-05T18:54:07.109Z</time>
      </trkpt>
      <trkpt lat="48.85724" lon="2.37928">
        <ele>97.4</ele>
        <time>2015-05-05T18:54:08.126Z</time>
      </trkpt>
      <trkpt lat="48.85729" lon="2.37933">
        <ele>96.8</ele>
        <time>2015-05-05T18:54:09.147Z</time>
      </trkpt>
      <trkpt lat="48.85733" lon="2.37937">
        <ele>96.1</ele>
        <time>2015-05-05T18:54:10.152Z</time>
      </trkpt>
      <trkpt lat="48.85737" lon="2.37941">
        <ele>95.8</ele>
        <time>2015-05-05T18:54:11.160Z</time>
      </trkpt>
      <trkpt lat="48.8574" lon="2.37951">
        <ele>96.1</ele>
        <time>2015-05-05T18:54:13.190Z</time>
      </trkpt>
      <trkpt lat="48.85742" lon="2.37956">
        <ele>96.2</ele>
        <time>2015-05-05T18:54:14.194Z</time>
      </trkpt>
      <trkpt lat="48.85746" lon="2.37966">
        <ele>95.9</ele>
        <time>2015-05-05T18:54:16.178Z</time>
      </trkpt>
      <trkpt lat="48.85748" lon="2.37971">
        <ele>95.9</ele>
        <time>2015-05-05T18:54:17.194Z</time>
      </trkpt>
      <trkpt lat="48.85753" lon="2.37982">
        <ele>96.4</ele>
        <time>2015-05-05T18:54:19.119Z</time>
      </trkpt>
      <trkpt lat="48.85755" lon="2.37987">
        <ele>96.5</ele>
        <time>2015-05-05T18:54:20.146Z</time>
      </trkpt>
      <trkpt lat="48.85758" lon="2.37997">
        <ele>96.6</ele>
        <time>2015-05-05T18:54:22.209Z</time>
      </trkpt>
      <trkpt lat="48.8576" lon="2.38004">
        <ele>96.5</ele>
        <time>2015-05-05T18:54:23.141Z</time>
      </trkpt>
      <trkpt lat="48.85761" lon="2.3801">
        <ele>96.5</ele>
        <time>2015-05-05T18:54:24.123Z</time>
      </trkpt>
      <trkpt lat="48.85762" lon="2.38017">
        <ele>96.6</ele>
        <time>2015-05-05T18:54:25.127Z</time>
      </trkpt>
      <trkpt lat="48.85765" lon="2.38028">
        <ele>96.8</ele>
        <time>2015-05-05T18:54:27.156Z</time>
      </trkpt>
      <trkpt lat="48.85766" lon="2.38034">
        <ele>96.9</ele>
        <time>2015-05-05T18:54:28.196Z</time>
      </trkpt>
      <trkpt lat="48.85767" lon="2.38046">
        <ele>97.5</ele>
        <time>2015-05-05T18:54:30.150Z</time>
      </trkpt>
      <trkpt lat="48.85769" lon="2.38052">
        <ele>98.2</ele>
        <time>2015-05-05T18:54:31.172Z</time>
      </trkpt>
      <trkpt lat="48.85771" lon="2.38065">
        <ele>99</ele>
        <time>2015-05-05T18:54:33.207Z</time>
      </trkpt>
      <trkpt lat="48.85772" lon="2.38071">
        <ele>99.4</ele>
        <time>2015-05-05T18:54:34.223Z</time>
      </trkpt>
      <trkpt lat="48.85774" lon="2.38084">
        <ele>99.5</ele>
        <time>2015-05-05T18:54:36.143Z</time>
      </trkpt>
      <trkpt lat="48.85775" lon="2.38091">
        <ele>99.4</ele>
        <time>2015-05-05T18:54:37.157Z</time>
      </trkpt>
      <trkpt lat="48.85777" lon="2.38097">
        <ele>99.6</ele>
        <time>2015-05-05T18:54:38.303Z</time>
      </trkpt>
      <trkpt lat="48.85779" lon="2.38103">
        <ele>99.9</ele>
        <time>2015-05-05T18:54:39.212Z</time>
      </trkpt>
      <trkpt lat="48.85782" lon="2.38115">
        <ele>100.3</ele>
        <time>2015-05-05T18:54:39.794Z</time>
      </trkpt>
      <trkpt lat="48.85786" lon="2.38121">
        <ele>101</ele>
        <time>2015-05-05T18:54:42.181Z</time>
      </trkpt>
      <trkpt lat="48.8579" lon="2.38132">
        <ele>101.5</ele>
        <time>2015-05-05T18:54:44.897Z</time>
      </trkpt>
      <trkpt lat="48.85793" lon="2.38137">
        <ele>101.5</ele>
        <time>2015-05-05T18:54:45.133Z</time>
      </trkpt>
      <trkpt lat="48.85796" lon="2.38149">
        <ele>101.5</ele>
        <time>2015-05-05T18:54:47.180Z</time>
      </trkpt>
      <trkpt lat="48.85797" lon="2.38154">
        <ele>101.4</ele>
        <time>2015-05-05T18:54:48.100Z</time>
      </trkpt>
      <trkpt lat="48.85799" lon="2.3816">
        <ele>101.3</ele>
        <time>2015-05-05T18:54:49.109Z</time>
      </trkpt>
      <trkpt lat="48.85802" lon="2.38166">
        <ele>101.2</ele>
        <time>2015-05-05T18:54:50.119Z</time>
      </trkpt>
      <trkpt lat="48.85805" lon="2.38172">
        <ele>101.2</ele>
        <time>2015-05-05T18:54:51.131Z</time>
      </trkpt>
      <trkpt lat="48.85808" lon="2.38178">
        <ele>101.2</ele>
        <time>2015-05-05T18:54:52.155Z</time>
      </trkpt>
      <trkpt lat="48.85809" lon="2.38191">
        <ele>100.9</ele>
        <time>2015-05-05T18:54:55.022Z</time>
      </trkpt>
      <trkpt lat="48.85809" lon="2.38198">
        <ele>100.7</ele>
        <time>2015-05-05T18:54:55.090Z</time>
      </trkpt>
      <trkpt lat="48.8581" lon="2.38205">
        <ele>100.8</ele>
        <time>2015-05-05T18:54:56.128Z</time>
      </trkpt>
      <trkpt lat="48.8581" lon="2.38212">
        <ele>100.7</ele>
        <time>2015-05-05T18:54:57.137Z</time>
      </trkpt>
      <trkpt lat="48.8581" lon="2.38219">
        <ele>100.8</ele>
        <time>2015-05-05T18:54:58.175Z</time>
      </trkpt>
      <trkpt lat="48.8581" lon="2.38227">
        <ele>100.7</ele>
        <time>2015-05-05T18:54:59.187Z</time>
      </trkpt>
      <trkpt lat="48.85812" lon="2.38234">
        <ele>100.6</ele>
        <time>2015-05-05T18:55:00.352Z</time>
      </trkpt>
      <trkpt lat="48.85815" lon="2.3824">
        <ele>100.6</ele>
        <time>2015-05-05T18:55:01.122Z</time>
      </trkpt>
      <trkpt lat="48.85818" lon="2.38246">
        <ele>100.6</ele>
        <time>2015-05-05T18:55:02.138Z</time>
      </trkpt>
      <trkpt lat="48.8582" lon="2.38253">
        <ele>100.5</ele>
        <time>2015-05-05T18:55:03.150Z</time>
      </trkpt>
      <trkpt lat="48.85822" lon="2.38259">
        <ele>100.5</ele>
        <time>2015-05-05T18:55:04.157Z</time>
      </trkpt>
      <trkpt lat="48.85823" lon="2.38266">
        <ele>100.6</ele>
        <time>2015-05-05T18:55:05.163Z</time>
      </trkpt>
      <trkpt lat="48.85824" lon="2.38273">
        <ele>100.4</ele>
        <time>2015-05-05T18:55:06.187Z</time>
      </trkpt>
      <trkpt lat="48.85825" lon="2.3828">
        <ele>100.4</ele>
        <time>2015-05-05T18:55:07.104Z</time>
      </trkpt>
      <trkpt lat="48.85825" lon="2.38287">
        <ele>100.3</ele>
        <time>2015-05-05T18:55:08.116Z</time>
      </trkpt>
      <trkpt lat="48.85826" lon="2.38294">
        <ele>100.3</ele>
        <time>2015-05-05T18:55:09.136Z</time>
      </trkpt>
      <trkpt lat="48.85828" lon="2.38301">
        <ele>100.2</ele>
        <time>2015-05-05T18:55:10.273Z</time>
      </trkpt>
      <trkpt lat="48.85829" lon="2.38309">
        <ele>100.3</ele>
        <time>2015-05-05T18:55:11.170Z</time>
      </trkpt>
      <trkpt lat="48.85832" lon="2.38315">
        <ele>100.2</ele>
        <time>2015-05-05T18:55:12.172Z</time>
      </trkpt>
      <trkpt lat="48.85835" lon="2.38322">
        <ele>100.3</ele>
        <time>2015-05-05T18:55:13.186Z</time>
      </trkpt>
      <trkpt lat="48.85837" lon="2.3833">
        <ele>100.3</ele>
        <time>2015-05-05T18:55:14.106Z</time>
      </trkpt>
      <trkpt lat="48.85839" lon="2.38339">
        <ele>100.2</ele>
        <time>2015-05-05T18:55:15.092Z</time>
      </trkpt>
      <trkpt lat="48.85841" lon="2.38349">
        <ele>100.2</ele>
        <time>2015-05-05T18:55:16.137Z</time>
      </trkpt>
      <trkpt lat="48.85842" lon="2.38359">
        <ele>100.3</ele>
        <time>2015-05-05T18:55:17.146Z</time>
      </trkpt>
      <trkpt lat="48.85845" lon="2.38368">
        <ele>100.4</ele>
        <time>2015-05-05T18:55:18.158Z</time>
      </trkpt>
      <trkpt lat="48.85846" lon="2.38379">
        <ele>100.1</ele>
        <time>2015-05-05T18:55:19.164Z</time>
      </trkpt>
      <trkpt lat="48.8585" lon="2.38388">
        <ele>99.9</ele>
        <time>2015-05-05T18:55:20.173Z</time>
      </trkpt>
      <trkpt lat="48.85854" lon="2.38397">
        <ele>99.8</ele>
        <time>2015-05-05T18:55:21.180Z</time>
      </trkpt>
      <trkpt lat="48.85856" lon="2.38407">
        <ele>100.1</ele>
        <time>2015-05-05T18:55:22.225Z</time>
      </trkpt>
      <trkpt lat="48.85858" lon="2.38416">
        <ele>100.3</ele>
        <time>2015-05-05T18:55:23.110Z</time>
      </trkpt>
      <trkpt lat="48.8586" lon="2.38426">
        <ele>100.3</ele>
        <time>2015-05-05T18:55:24.134Z</time>
      </trkpt>
      <trkpt lat="48.85861" lon="2.38436">
        <ele>100.2</ele>
        <time>2015-05-05T18:55:25.166Z</time>
      </trkpt>
      <trkpt lat="48.85862" lon="2.38446">
        <ele>100.1</ele>
        <time>2015-05-05T18:55:26.118Z</time>
      </trkpt>
      <trkpt lat="48.85863" lon="2.38456">
        <ele>100</ele>
        <time>2015-05-05T18:55:27.110Z</time>
      </trkpt>
      <trkpt lat="48.85866" lon="2.38466">
        <ele>99.8</ele>
        <time>2015-05-05T18:55:28.150Z</time>
      </trkpt>
      <trkpt lat="48.85868" lon="2.38474">
        <ele>99.8</ele>
        <time>2015-05-05T18:55:29.148Z</time>
      </trkpt>
      <trkpt lat="48.85871" lon="2.38483">
        <ele>99.7</ele>
        <time>2015-05-05T18:55:30.166Z</time>
      </trkpt>
      <trkpt lat="48.85874" lon="2.38493">
        <ele>99.6</ele>
        <time>2015-05-05T18:55:31.173Z</time>
      </trkpt>
      <trkpt lat="48.85876" lon="2.38502">
        <ele>99.4</ele>
        <time>2015-05-05T18:55:32.181Z</time>
      </trkpt>
      <trkpt lat="48.85878" lon="2.3851">
        <ele>99.3</ele>
        <time>2015-05-05T18:55:33.192Z</time>
      </trkpt>
      <trkpt lat="48.8588" lon="2.3852">
        <ele>99.7</ele>
        <time>2015-05-05T18:55:34.204Z</time>
      </trkpt>
      <trkpt lat="48.85883" lon="2.38529">
        <ele>99.8</ele>
        <time>2015-05-05T18:55:35.110Z</time>
      </trkpt>
      <trkpt lat="48.85885" lon="2.38538">
        <ele>100.1</ele>
        <time>2015-05-05T18:55:36.123Z</time>
      </trkpt>
      <trkpt lat="48.85887" lon="2.38547">
        <ele>100.5</ele>
        <time>2015-05-05T18:55:37.195Z</time>
      </trkpt>
      <trkpt lat="48.85889" lon="2.38557">
        <ele>100.9</ele>
        <time>2015-05-05T18:55:38.147Z</time>
      </trkpt>
      <trkpt lat="48.85892" lon="2.38566">
        <ele>101.2</ele>
        <time>2015-05-05T18:55:39.151Z</time>
      </trkpt>
      <trkpt lat="48.85894" lon="2.38574">
        <ele>101.5</ele>
        <time>2015-05-05T18:55:40.162Z</time>
      </trkpt>
      <trkpt lat="48.85897" lon="2.38582">
        <ele>101.6</ele>
        <time>2015-05-05T18:55:41.171Z</time>
      </trkpt>
      <trkpt lat="48.85899" lon="2.3859">
        <ele>101.7</ele>
        <time>2015-05-05T18:55:42.183Z</time>
      </trkpt>
      <trkpt lat="48.85902" lon="2.38598">
        <ele>101.8</ele>
        <time>2015-05-05T18:55:43.148Z</time>
      </trkpt>
      <trkpt lat="48.85904" lon="2.38605">
        <ele>102.2</ele>
        <time>2015-05-05T18:55:44.101Z</time>
      </trkpt>
      <trkpt lat="48.85906" lon="2.38612">
        <ele>102.5</ele>
        <time>2015-05-05T18:55:45.107Z</time>
      </trkpt>
      <trkpt lat="48.85909" lon="2.38619">
        <ele>102.9</ele>
        <time>2015-05-05T18:55:46.137Z</time>
      </trkpt>
      <trkpt lat="48.85911" lon="2.38626">
        <ele>103.2</ele>
        <time>2015-05-05T18:55:47.149Z</time>
      </trkpt>
      <trkpt lat="48.85914" lon="2.38633">
        <ele>103.5</ele>
        <time>2015-05-05T18:55:48.153Z</time>
      </trkpt>
      <trkpt lat="48.85916" lon="2.3864">
        <ele>104</ele>
        <time>2015-05-05T18:55:49.166Z</time>
      </trkpt>
      <trkpt lat="48.85919" lon="2.38647">
        <ele>104.5</ele>
        <time>2015-05-05T18:55:50.093Z</time>
      </trkpt>
      <trkpt lat="48.85922" lon="2.38654">
        <ele>104.9</ele>
        <time>2015-05-05T18:55:51.098Z</time>
      </trkpt>
      <trkpt lat="48.85924" lon="2.3866">
        <ele>105.1</ele>
        <time>2015-05-05T18:55:52.133Z</time>
      </trkpt>
      <trkpt lat="48.85926" lon="2.38666">
        <ele>105.6</ele>
        <time>2015-05-05T18:55:53.135Z</time>
      </trkpt>
      <trkpt lat="48.8593" lon="2.38677">
        <ele>106.2</ele>
        <time>2015-05-05T18:55:55.154Z</time>
      </trkpt>
      <trkpt lat="48.85932" lon="2.38683">
        <ele>106.3</ele>
        <time>2015-05-05T18:55:56.077Z</time>
      </trkpt>
      <trkpt lat="48.85934" lon="2.38689">
        <ele>106.4</ele>
        <time>2015-05-05T18:55:57.095Z</time>
      </trkpt>
      <trkpt lat="48.85936" lon="2.38695">
        <ele>106.4</ele>
        <time>2015-05-05T18:55:58.157Z</time>
      </trkpt>
      <trkpt lat="48.85937" lon="2.38703">
        <ele>106.7</ele>
        <time>2015-05-05T18:55:59.170Z</time>
      </trkpt>
      <trkpt lat="48.85939" lon="2.3871">
        <ele>106.8</ele>
        <time>2015-05-05T18:56:00.190Z</time>
      </trkpt>
      <trkpt lat="48.85942" lon="2.38718">
        <ele>106.8</ele>
        <time>2015-05-05T18:56:01.139Z</time>
      </trkpt>
      <trkpt lat="48.85945" lon="2.38726">
        <ele>106.6</ele>
        <time>2015-05-05T18:56:02.089Z</time>
      </trkpt>
      <trkpt lat="48.85949" lon="2.38734">
        <ele>106.6</ele>
        <time>2015-05-05T18:56:03.100Z</time>
      </trkpt>
      <trkpt lat="48.85952" lon="2.38743">
        <ele>106.7</ele>
        <time>2015-05-05T18:56:04.133Z</time>
      </trkpt>
      <trkpt lat="48.85954" lon="2.38752">
        <ele>106.9</ele>
        <time>2015-05-05T18:56:05.143Z</time>
      </trkpt>
      <trkpt lat="48.85956" lon="2.3876">
        <ele>107</ele>
        <time>2015-05-05T18:56:06.166Z</time>
      </trkpt>
      <trkpt lat="48.85959" lon="2.38768">
        <ele>107</ele>
        <time>2015-05-05T18:56:07.095Z</time>
      </trkpt>
      <trkpt lat="48.85962" lon="2.38776">
        <ele>107.3</ele>
        <time>2015-05-05T18:56:08.111Z</time>
      </trkpt>
      <trkpt lat="48.85964" lon="2.38784">
        <ele>107.5</ele>
        <time>2015-05-05T18:56:09.100Z</time>
      </trkpt>
      <trkpt lat="48.85965" lon="2.38792">
        <ele>107.6</ele>
        <time>2015-05-05T18:56:10.128Z</time>
      </trkpt>
      <trkpt lat="48.85967" lon="2.388">
        <ele>107.5</ele>
        <time>2015-05-05T18:56:11.167Z</time>
      </trkpt>
      <trkpt lat="48.8597" lon="2.38808">
        <ele>107.3</ele>
        <time>2015-05-05T18:56:12.181Z</time>
      </trkpt>
      <trkpt lat="48.85972" lon="2.38816">
        <ele>107.1</ele>
        <time>2015-05-05T18:56:13.076Z</time>
      </trkpt>
      <trkpt lat="48.85972" lon="2.38823">
        <ele>107</ele>
        <time>2015-05-05T18:56:14.100Z</time>
      </trkpt>
      <trkpt lat="48.85972" lon="2.3883">
        <ele>106.6</ele>
        <time>2015-05-05T18:56:15.131Z</time>
      </trkpt>
      <trkpt lat="48.85971" lon="2.38837">
        <ele>106.5</ele>
        <time>2015-05-05T18:56:16.128Z</time>
      </trkpt>
      <trkpt lat="48.85972" lon="2.38849">
        <ele>106.8</ele>
        <time>2015-05-05T18:56:18.167Z</time>
      </trkpt>
      <trkpt lat="48.85974" lon="2.38854">
        <ele>106.8</ele>
        <time>2015-05-05T18:56:19.090Z</time>
      </trkpt>
      <trkpt lat="48.85977" lon="2.38862">
        <ele>106.9</ele>
        <time>2015-05-05T18:56:21.136Z</time>
      </trkpt>
      <trkpt lat="48.85978" lon="2.38866">
        <ele>106.9</ele>
        <time>2015-05-05T18:56:22.144Z</time>
      </trkpt>
      <trkpt lat="48.85985" lon="2.38871">
        <ele>106.4</ele>
        <time>2015-05-05T18:56:27.098Z</time>
      </trkpt>
      <trkpt lat="48.85986" lon="2.38871">
        <ele>106.4</ele>
        <time>2015-05-05T18:56:28.583Z</time>
      </trkpt>
      <trkpt lat="48.85986" lon="2.3887">
        <ele>106.4</ele>
        <time>2015-05-05T18:56:34.188Z</time>
      </trkpt>
      <trkpt lat="48.85987" lon="2.38872">
        <ele>106.8</ele>
        <time>2015-05-05T18:56:35.121Z</time>
      </trkpt>
      <trkpt lat="48.85988" lon="2.38873">
        <ele>107</ele>
        <time>2015-05-05T18:56:36.090Z</time>
      </trkpt>
      <trkpt lat="48.85988" lon="2.38873">
        <ele>107</ele>
        <time>2015-05-05T18:56:37.121Z</time>
      </trkpt>
      <trkpt lat="48.85988" lon="2.38874">
        <ele>106.9</ele>
        <time>2015-05-05T18:56:58.174Z</time>
      </trkpt>
      <trkpt lat="48.85986" lon="2.38876">
        <ele>105.4</ele>
        <time>2015-05-05T18:56:59.185Z</time>
      </trkpt>
      <trkpt lat="48.85986" lon="2.38876">
        <ele>105.4</ele>
        <time>2015-05-05T18:57:00.130Z</time>
      </trkpt>
      <trkpt lat="48.85986" lon="2.38875">
        <ele>105.4</ele>
        <time>2015-05-05T18:57:01.119Z</time>
      </trkpt>
      <trkpt lat="48.85986" lon="2.38875">
        <ele>105.5</ele>
        <time>2015-05-05T18:57:23.135Z</time>
      </trkpt>
      <trkpt lat="48.85988" lon="2.38875">
        <ele>106.1</ele>
        <time>2015-05-05T18:57:24.141Z</time>
      </trkpt>
      <trkpt lat="48.85989" lon="2.38875">
        <ele>106.1</ele>
        <time>2015-05-05T18:57:27.221Z</time>
      </trkpt>
      <trkpt lat="48.85988" lon="2.38874">
        <ele>105.8</ele>
        <time>2015-05-05T18:57:28.143Z</time>
      </trkpt>
      <trkpt lat="48.85987" lon="2.38873">
        <ele>105.3</ele>
        <time>2015-05-05T18:58:49.702Z</time>
      </trkpt>
      <trkpt lat="48.85981" lon="2.38872">
        <ele>105.5</ele>
        <time>2015-05-05T18:58:50.101Z</time>
      </trkpt>
      <trkpt lat="48.85975" lon="2.38876">
        <ele>104.7</ele>
        <time>2015-05-05T18:58:55.080Z</time>
      </trkpt>
      <trkpt lat="48.85974" lon="2.38881">
        <ele>104.5</ele>
        <time>2015-05-05T18:58:56.131Z</time>
      </trkpt>
      <trkpt lat="48.85976" lon="2.38894">
        <ele>104.5</ele>
        <time>2015-05-05T18:59:00.146Z</time>
      </trkpt>
      <trkpt lat="48.85977" lon="2.38894">
        <ele>104.7</ele>
        <time>2015-05-05T18:59:01.142Z</time>
      </trkpt>
      <trkpt lat="48.85984" lon="2.38891">
        <ele>104.9</ele>
        <time>2015-05-05T18:59:03.179Z</time>
      </trkpt>
      <trkpt lat="48.85989" lon="2.38887">
        <ele>105.1</ele>
        <time>2015-05-05T18:59:04.249Z</time>
      </trkpt>
      <trkpt lat="48.85996" lon="2.38885">
        <ele>105.5</ele>
        <time>2015-05-05T18:59:05.136Z</time>
      </trkpt>
      <trkpt lat="48.86" lon="2.38883">
        <ele>105.6</ele>
        <time>2015-05-05T18:59:06.250Z</time>
      </trkpt>
      <trkpt lat="48.86006" lon="2.38881">
        <ele>105.8</ele>
        <time>2015-05-05T18:59:07.135Z</time>
      </trkpt>
      <trkpt lat="48.86012" lon="2.38878">
        <ele>106.1</ele>
        <time>2015-05-05T18:59:08.142Z</time>
      </trkpt>
      <trkpt lat="48.8602" lon="2.38874">
        <ele>106.6</ele>
        <time>2015-05-05T18:59:09.142Z</time>
      </trkpt>
      <trkpt lat="48.86025" lon="2.3887">
        <ele>106.9</ele>
        <time>2015-05-05T18:59:10.178Z</time>
      </trkpt>
      <trkpt lat="48.8603" lon="2.38866">
        <ele>107.4</ele>
        <time>2015-05-05T18:59:11.300Z</time>
      </trkpt>
      <trkpt lat="48.86036" lon="2.38862">
        <ele>107.9</ele>
        <time>2015-05-05T18:59:12.200Z</time>
      </trkpt>
      <trkpt lat="48.86042" lon="2.38858">
        <ele>108.3</ele>
        <time>2015-05-05T18:59:13.143Z</time>
      </trkpt>
      <trkpt lat="48.86047" lon="2.38855">
        <ele>108.6</ele>
        <time>2015-05-05T18:59:14.155Z</time>
      </trkpt>
      <trkpt lat="48.86053" lon="2.38852">
        <ele>109.2</ele>
        <time>2015-05-05T18:59:15.218Z</time>
      </trkpt>
      <trkpt lat="48.86059" lon="2.38849">
        <ele>109.5</ele>
        <time>2015-05-05T18:59:16.234Z</time>
      </trkpt>
      <trkpt lat="48.86065" lon="2.38846">
        <ele>109.8</ele>
        <time>2015-05-05T18:59:17.119Z</time>
      </trkpt>
      <trkpt lat="48.8607" lon="2.38842">
        <ele>110.1</ele>
        <time>2015-05-05T18:59:18.134Z</time>
      </trkpt>
      <trkpt lat="48.86076" lon="2.38839">
        <ele>110.4</ele>
        <time>2015-05-05T18:59:19.154Z</time>
      </trkpt>
      <trkpt lat="48.86082" lon="2.38836">
        <ele>110.9</ele>
        <time>2015-05-05T18:59:20.176Z</time>
      </trkpt>
      <trkpt lat="48.86088" lon="2.38833">
        <ele>110.9</ele>
        <time>2015-05-05T18:59:21.332Z</time>
      </trkpt>
      <trkpt lat="48.86094" lon="2.3883">
        <ele>111.2</ele>
        <time>2015-05-05T18:59:22.240Z</time>
      </trkpt>
      <trkpt lat="48.861" lon="2.38827">
        <ele>111.4</ele>
        <time>2015-05-05T18:59:23.153Z</time>
      </trkpt>
      <trkpt lat="48.86106" lon="2.38825">
        <ele>111.7</ele>
        <time>2015-05-05T18:59:24.183Z</time>
      </trkpt>
      <trkpt lat="48.86111" lon="2.38822">
        <ele>112.3</ele>
        <time>2015-05-05T18:59:25.210Z</time>
      </trkpt>
      <trkpt lat="48.86117" lon="2.3882">
        <ele>113</ele>
        <time>2015-05-05T18:59:26.212Z</time>
      </trkpt>
      <trkpt lat="48.86124" lon="2.38817">
        <ele>113.3</ele>
        <time>2015-05-05T18:59:27.143Z</time>
      </trkpt>
      <trkpt lat="48.86129" lon="2.38815">
        <ele>113.4</ele>
        <time>2015-05-05T18:59:28.187Z</time>
      </trkpt>
      <trkpt lat="48.86136" lon="2.38812">
        <ele>113.3</ele>
        <time>2015-05-05T18:59:29.278Z</time>
      </trkpt>
      <trkpt lat="48.86141" lon="2.3881">
        <ele>113.5</ele>
        <time>2015-05-05T18:59:30.125Z</time>
      </trkpt>
      <trkpt lat="48.86147" lon="2.38807">
        <ele>113.4</ele>
        <time>2015-05-05T18:59:31.135Z</time>
      </trkpt>
      <trkpt lat="48.86153" lon="2.38804">
        <ele>113.5</ele>
        <time>2015-05-05T18:59:32.175Z</time>
      </trkpt>
      <trkpt lat="48.86159" lon="2.38802">
        <ele>113.4</ele>
        <time>2015-05-05T18:59:33.195Z</time>
      </trkpt>
      <trkpt lat="48.86165" lon="2.388">
        <ele>113.3</ele>
        <time>2015-05-05T18:59:34.216Z</time>
      </trkpt>
      <trkpt lat="48.8617" lon="2.38798">
        <ele>113.4</ele>
        <time>2015-05-05T18:59:35.110Z</time>
      </trkpt>
      <trkpt lat="48.86176" lon="2.38796">
        <ele>113.3</ele>
        <time>2015-05-05T18:59:36.111Z</time>
      </trkpt>
      <trkpt lat="48.86181" lon="2.38795">
        <ele>113.3</ele>
        <time>2015-05-05T18:59:37.137Z</time>
      </trkpt>
      <trkpt lat="48.86187" lon="2.38792">
        <ele>113.2</ele>
        <time>2015-05-05T18:59:38.143Z</time>
      </trkpt>
      <trkpt lat="48.86192" lon="2.3879">
        <ele>113.4</ele>
        <time>2015-05-05T18:59:39.157Z</time>
      </trkpt>
      <trkpt lat="48.86197" lon="2.38789">
        <ele>113.5</ele>
        <time>2015-05-05T18:59:40.166Z</time>
      </trkpt>
      <trkpt lat="48.86203" lon="2.38787">
        <ele>113.5</ele>
        <time>2015-05-05T18:59:41.181Z</time>
      </trkpt>
      <trkpt lat="48.8621" lon="2.38784">
        <ele>114.1</ele>
        <time>2015-05-05T18:59:42.181Z</time>
      </trkpt>
      <trkpt lat="48.86215" lon="2.38781">
        <ele>114.1</ele>
        <time>2015-05-05T18:59:43.186Z</time>
      </trkpt>
      <trkpt lat="48.8622" lon="2.38779">
        <ele>114.2</ele>
        <time>2015-05-05T18:59:44.103Z</time>
      </trkpt>
      <trkpt lat="48.86225" lon="2.38776">
        <ele>114.2</ele>
        <time>2015-05-05T18:59:45.128Z</time>
      </trkpt>
      <trkpt lat="48.86229" lon="2.38773">
        <ele>114.5</ele>
        <time>2015-05-05T18:59:46.159Z</time>
      </trkpt>
      <trkpt lat="48.86234" lon="2.3877">
        <ele>114.6</ele>
        <time>2015-05-05T18:59:47.175Z</time>
      </trkpt>
      <trkpt lat="48.86239" lon="2.38767">
        <ele>114.8</ele>
        <time>2015-05-05T18:59:48.186Z</time>
      </trkpt>
      <trkpt lat="48.86243" lon="2.38765">
        <ele>114.9</ele>
        <time>2015-05-05T18:59:49.112Z</time>
      </trkpt>
      <trkpt lat="48.86247" lon="2.3876">
        <ele>115.2</ele>
        <time>2015-05-05T18:59:50.108Z</time>
      </trkpt>
      <trkpt lat="48.86254" lon="2.38755">
        <ele>115.5</ele>
        <time>2015-05-05T18:59:52.183Z</time>
      </trkpt>
      <trkpt lat="48.86258" lon="2.38753">
        <ele>115.5</ele>
        <time>2015-05-05T18:59:53.193Z</time>
      </trkpt>
      <trkpt lat="48.86266" lon="2.38749">
        <ele>115.9</ele>
        <time>2015-05-05T18:59:55.156Z</time>
      </trkpt>
      <trkpt lat="48.86269" lon="2.38746">
        <ele>116.1</ele>
        <time>2015-05-05T18:59:56.142Z</time>
      </trkpt>
      <trkpt lat="48.86275" lon="2.38742">
        <ele>116.4</ele>
        <time>2015-05-05T18:59:58.157Z</time>
      </trkpt>
      <trkpt lat="48.86278" lon="2.3874">
        <ele>116.8</ele>
        <time>2015-05-05T18:59:59.200Z</time>
      </trkpt>
      <trkpt lat="48.86285" lon="2.38734">
        <ele>117.3</ele>
        <time>2015-05-05T19:00:02.131Z</time>
      </trkpt>
      <trkpt lat="48.86286" lon="2.38731">
        <ele>117.4</ele>
        <time>2015-05-05T19:00:03.133Z</time>
      </trkpt>
      <trkpt lat="48.86284" lon="2.38722">
        <ele>116.9</ele>
        <time>2015-05-05T19:00:06.129Z</time>
      </trkpt>
      <trkpt lat="48.86283" lon="2.38718">
        <ele>117.7</ele>
        <time>2015-05-05T19:00:07.146Z</time>
      </trkpt>
      <trkpt lat="48.86284" lon="2.38705">
        <ele>118.2</ele>
        <time>2015-05-05T19:00:11.152Z</time>
      </trkpt>
      <trkpt lat="48.86285" lon="2.38701">
        <ele>118.4</ele>
        <time>2015-05-05T19:00:12.104Z</time>
      </trkpt>
      <trkpt lat="48.86287" lon="2.38692">
        <ele>118.8</ele>
        <time>2015-05-05T19:00:14.138Z</time>
      </trkpt>
      <trkpt lat="48.86287" lon="2.38687">
        <ele>118.9</ele>
        <time>2015-05-05T19:00:15.270Z</time>
      </trkpt>
      <trkpt lat="48.86289" lon="2.38677">
        <ele>119.1</ele>
        <time>2015-05-05T19:00:17.109Z</time>
      </trkpt>
      <trkpt lat="48.8629" lon="2.3867">
        <ele>119.2</ele>
        <time>2015-05-05T19:00:18.169Z</time>
      </trkpt>
      <trkpt lat="48.86292" lon="2.38663">
        <ele>119.3</ele>
        <time>2015-05-05T19:00:19.112Z</time>
      </trkpt>
      <trkpt lat="48.86293" lon="2.38655">
        <ele>119.3</ele>
        <time>2015-05-05T19:00:20.118Z</time>
      </trkpt>
      <trkpt lat="48.86294" lon="2.38646">
        <ele>119.6</ele>
        <time>2015-05-05T19:00:21.120Z</time>
      </trkpt>
      <trkpt lat="48.86296" lon="2.38637">
        <ele>119.9</ele>
        <time>2015-05-05T19:00:22.143Z</time>
      </trkpt>
      <trkpt lat="48.86297" lon="2.38629">
        <ele>120</ele>
        <time>2015-05-05T19:00:23.157Z</time>
      </trkpt>
      <trkpt lat="48.86298" lon="2.38623">
        <ele>120.1</ele>
        <time>2015-05-05T19:00:24.167Z</time>
      </trkpt>
      <trkpt lat="48.86299" lon="2.38615">
        <ele>120.1</ele>
        <time>2015-05-05T19:00:25.085Z</time>
      </trkpt>
      <trkpt lat="48.863" lon="2.38608">
        <ele>120.1</ele>
        <time>2015-05-05T19:00:26.109Z</time>
      </trkpt>
      <trkpt lat="48.86305" lon="2.38596">
        <ele>119.9</ele>
        <time>2015-05-05T19:00:28.153Z</time>
      </trkpt>
      <trkpt lat="48.86306" lon="2.38591">
        <ele>119.8</ele>
        <time>2015-05-05T19:00:29.078Z</time>
      </trkpt>
      <trkpt lat="48.86308" lon="2.38584">
        <ele>119.8</ele>
        <time>2015-05-05T19:00:30.084Z</time>
      </trkpt>
      <trkpt lat="48.8631" lon="2.38577">
        <ele>119.7</ele>
        <time>2015-05-05T19:00:31.127Z</time>
      </trkpt>
      <trkpt lat="48.86311" lon="2.38569">
        <ele>119.6</ele>
        <time>2015-05-05T19:00:32.164Z</time>
      </trkpt>
      <trkpt lat="48.86313" lon="2.38561">
        <ele>119.7</ele>
        <time>2015-05-05T19:00:33.173Z</time>
      </trkpt>
      <trkpt lat="48.86314" lon="2.38554">
        <ele>119.7</ele>
        <time>2015-05-05T19:00:34.188Z</time>
      </trkpt>
      <trkpt lat="48.86316" lon="2.38546">
        <ele>119.8</ele>
        <time>2015-05-05T19:00:35.086Z</time>
      </trkpt>
      <trkpt lat="48.86318" lon="2.38537">
        <ele>119.8</ele>
        <time>2015-05-05T19:00:36.105Z</time>
      </trkpt>
      <trkpt lat="48.86319" lon="2.38529">
        <ele>119.8</ele>
        <time>2015-05-05T19:00:37.109Z</time>
      </trkpt>
      <trkpt lat="48.86321" lon="2.3852">
        <ele>119.8</ele>
        <time>2015-05-05T19:00:38.116Z</time>
      </trkpt>
      <trkpt lat="48.86322" lon="2.38508">
        <ele>120.6</ele>
        <time>2015-05-05T19:00:39.122Z</time>
      </trkpt>
      <trkpt lat="48.86322" lon="2.38498">
        <ele>120.9</ele>
        <time>2015-05-05T19:00:40.128Z</time>
      </trkpt>
      <trkpt lat="48.86323" lon="2.38487">
        <ele>121.3</ele>
        <time>2015-05-05T19:00:41.148Z</time>
      </trkpt>
      <trkpt lat="48.86324" lon="2.38479">
        <ele>121.4</ele>
        <time>2015-05-05T19:00:42.149Z</time>
      </trkpt>
      <trkpt lat="48.86326" lon="2.38472">
        <ele>121.4</ele>
        <time>2015-05-05T19:00:43.166Z</time>
      </trkpt>
      <trkpt lat="48.86327" lon="2.38464">
        <ele>121.3</ele>
        <time>2015-05-05T19:00:44.177Z</time>
      </trkpt>
      <trkpt lat="48.8633" lon="2.38456">
        <ele>121.3</ele>
        <time>2015-05-05T19:00:45.094Z</time>
      </trkpt>
      <trkpt lat="48.86332" lon="2.38449">
        <ele>121.2</ele>
        <time>2015-05-05T19:00:46.115Z</time>
      </trkpt>
      <trkpt lat="48.86333" lon="2.38441">
        <ele>121.2</ele>
        <time>2015-05-05T19:00:47.112Z</time>
      </trkpt>
      <trkpt lat="48.86335" lon="2.38433">
        <ele>121.1</ele>
        <time>2015-05-05T19:00:48.134Z</time>
      </trkpt>
      <trkpt lat="48.86336" lon="2.38424">
        <ele>121</ele>
        <time>2015-05-05T19:00:49.149Z</time>
      </trkpt>
      <trkpt lat="48.86338" lon="2.38414">
        <ele>120.6</ele>
        <time>2015-05-05T19:00:50.155Z</time>
      </trkpt>
      <trkpt lat="48.8634" lon="2.38405">
        <ele>120.3</ele>
        <time>2015-05-05T19:00:51.071Z</time>
      </trkpt>
      <trkpt lat="48.86341" lon="2.38395">
        <ele>120.2</ele>
        <time>2015-05-05T19:00:52.108Z</time>
      </trkpt>
      <trkpt lat="48.86343" lon="2.38386">
        <ele>120.1</ele>
        <time>2015-05-05T19:00:53.100Z</time>
      </trkpt>
      <trkpt lat="48.86345" lon="2.38378">
        <ele>120.1</ele>
        <time>2015-05-05T19:00:54.154Z</time>
      </trkpt>
      <trkpt lat="48.86346" lon="2.38368">
        <ele>120</ele>
        <time>2015-05-05T19:00:55.138Z</time>
      </trkpt>
      <trkpt lat="48.86348" lon="2.38359">
        <ele>120</ele>
        <time>2015-05-05T19:00:56.169Z</time>
      </trkpt>
      <trkpt lat="48.86349" lon="2.38351">
        <ele>120</ele>
        <time>2015-05-05T19:00:57.102Z</time>
      </trkpt>
      <trkpt lat="48.86351" lon="2.38343">
        <ele>119.9</ele>
        <time>2015-05-05T19:00:58.152Z</time>
      </trkpt>
      <trkpt lat="48.86352" lon="2.38335">
        <ele>119.8</ele>
        <time>2015-05-05T19:00:59.130Z</time>
      </trkpt>
      <trkpt lat="48.86354" lon="2.38328">
        <ele>119.7</ele>
        <time>2015-05-05T19:01:00.137Z</time>
      </trkpt>
      <trkpt lat="48.86355" lon="2.38321">
        <ele>119.5</ele>
        <time>2015-05-05T19:01:01.151Z</time>
      </trkpt>
      <trkpt lat="48.86356" lon="2.38314">
        <ele>119.4</ele>
        <time>2015-05-05T19:01:02.087Z</time>
      </trkpt>
      <trkpt lat="48.86356" lon="2.38307">
        <ele>119.4</ele>
        <time>2015-05-05T19:01:03.111Z</time>
      </trkpt>
      <trkpt lat="48.86358" lon="2.38299">
        <ele>119.4</ele>
        <time>2015-05-05T19:01:04.286Z</time>
      </trkpt>
      <trkpt lat="48.8636" lon="2.38291">
        <ele>119.4</ele>
        <time>2015-05-05T19:01:05.078Z</time>
      </trkpt>
      <trkpt lat="48.86361" lon="2.38282">
        <ele>119.3</ele>
        <time>2015-05-05T19:01:06.092Z</time>
      </trkpt>
      <trkpt lat="48.86362" lon="2.38274">
        <ele>119.2</ele>
        <time>2015-05-05T19:01:07.096Z</time>
      </trkpt>
      <trkpt lat="48.86363" lon="2.38266">
        <ele>119.1</ele>
        <time>2015-05-05T19:01:08.097Z</time>
      </trkpt>
      <trkpt lat="48.86365" lon="2.38257">
        <ele>118.9</ele>
        <time>2015-05-05T19:01:09.106Z</time>
      </trkpt>
      <trkpt lat="48.86368" lon="2.38242">
        <ele>118.6</ele>
        <time>2015-05-05T19:01:11.161Z</time>
      </trkpt>
      <trkpt lat="48.8637" lon="2.38234">
        <ele>118.5</ele>
        <time>2015-05-05T19:01:12.106Z</time>
      </trkpt>
      <trkpt lat="48.86372" lon="2.38227">
        <ele>118.3</ele>
        <time>2015-05-05T19:01:13.120Z</time>
      </trkpt>
      <trkpt lat="48.86373" lon="2.3822">
        <ele>118.2</ele>
        <time>2015-05-05T19:01:14.078Z</time>
      </trkpt>
      <trkpt lat="48.86375" lon="2.38212">
        <ele>118</ele>
        <time>2015-05-05T19:01:15.116Z</time>
      </trkpt>
      <trkpt lat="48.86376" lon="2.38204">
        <ele>118</ele>
        <time>2015-05-05T19:01:16.122Z</time>
      </trkpt>
      <trkpt lat="48.86376" lon="2.38197">
        <ele>118</ele>
        <time>2015-05-05T19:01:17.130Z</time>
      </trkpt>
      <trkpt lat="48.86377" lon="2.38188">
        <ele>118.2</ele>
        <time>2015-05-05T19:01:18.163Z</time>
      </trkpt>
      <trkpt lat="48.86379" lon="2.3818">
        <ele>118.2</ele>
        <time>2015-05-05T19:01:19.078Z</time>
      </trkpt>
      <trkpt lat="48.86381" lon="2.38171">
        <ele>118.3</ele>
        <time>2015-05-05T19:01:20.181Z</time>
      </trkpt>
      <trkpt lat="48.86383" lon="2.38163">
        <ele>118.4</ele>
        <time>2015-05-05T19:01:21.129Z</time>
      </trkpt>
      <trkpt lat="48.86384" lon="2.38154">
        <ele>118.6</ele>
        <time>2015-05-05T19:01:22.134Z</time>
      </trkpt>
      <trkpt lat="48.86386" lon="2.38146">
        <ele>118.9</ele>
        <time>2015-05-05T19:01:23.148Z</time>
      </trkpt>
      <trkpt lat="48.86388" lon="2.38137">
        <ele>119.1</ele>
        <time>2015-05-05T19:01:24.086Z</time>
      </trkpt>
      <trkpt lat="48.8639" lon="2.3813">
        <ele>119.3</ele>
        <time>2015-05-05T19:01:25.085Z</time>
      </trkpt>
      <trkpt lat="48.86392" lon="2.38122">
        <ele>119.6</ele>
        <time>2015-05-05T19:01:26.114Z</time>
      </trkpt>
      <trkpt lat="48.86394" lon="2.38114">
        <ele>119.8</ele>
        <time>2015-05-05T19:01:27.113Z</time>
      </trkpt>
      <trkpt lat="48.86395" lon="2.38105">
        <ele>120.1</ele>
        <time>2015-05-05T19:01:28.138Z</time>
      </trkpt>
      <trkpt lat="48.86397" lon="2.38096">
        <ele>120.2</ele>
        <time>2015-05-05T19:01:29.309Z</time>
      </trkpt>
      <trkpt lat="48.86398" lon="2.38086">
        <ele>120.2</ele>
        <time>2015-05-05T19:01:30.081Z</time>
      </trkpt>
      <trkpt lat="48.86399" lon="2.38077">
        <ele>120.2</ele>
        <time>2015-05-05T19:01:31.123Z</time>
      </trkpt>
      <trkpt lat="48.864" lon="2.38068">
        <ele>120.2</ele>
        <time>2015-05-05T19:01:32.091Z</time>
      </trkpt>
      <trkpt lat="48.86402" lon="2.38058">
        <ele>120.1</ele>
        <time>2015-05-05T19:01:33.100Z</time>
      </trkpt>
      <trkpt lat="48.86403" lon="2.38048">
        <ele>120.2</ele>
        <time>2015-05-05T19:01:34.116Z</time>
      </trkpt>
      <trkpt lat="48.86405" lon="2.38039">
        <ele>120.2</ele>
        <time>2015-05-05T19:01:35.138Z</time>
      </trkpt>
      <trkpt lat="48.86406" lon="2.3803">
        <ele>120.2</ele>
        <time>2015-05-05T19:01:36.096Z</time>
      </trkpt>
      <trkpt lat="48.86409" lon="2.38021">
        <ele>120</ele>
        <time>2015-05-05T19:01:37.084Z</time>
      </trkpt>
      <trkpt lat="48.86413" lon="2.38012">
        <ele>120.1</ele>
        <time>2015-05-05T19:01:38.089Z</time>
      </trkpt>
      <trkpt lat="48.86415" lon="2.38003">
        <ele>120.1</ele>
        <time>2015-05-05T19:01:39.105Z</time>
      </trkpt>
      <trkpt lat="48.86416" lon="2.37996">
        <ele>120</ele>
        <time>2015-05-05T19:01:40.121Z</time>
      </trkpt>
      <trkpt lat="48.86417" lon="2.37988">
        <ele>119.9</ele>
        <time>2015-05-05T19:01:41.187Z</time>
      </trkpt>
      <trkpt lat="48.86419" lon="2.3798">
        <ele>120</ele>
        <time>2015-05-05T19:01:42.091Z</time>
      </trkpt>
      <trkpt lat="48.8642" lon="2.37971">
        <ele>120.1</ele>
        <time>2015-05-05T19:01:43.089Z</time>
      </trkpt>
      <trkpt lat="48.86422" lon="2.37962">
        <ele>120.2</ele>
        <time>2015-05-05T19:01:44.099Z</time>
      </trkpt>
      <trkpt lat="48.86423" lon="2.37953">
        <ele>120</ele>
        <time>2015-05-05T19:01:45.110Z</time>
      </trkpt>
      <trkpt lat="48.86424" lon="2.37944">
        <ele>119.9</ele>
        <time>2015-05-05T19:01:46.246Z</time>
      </trkpt>
      <trkpt lat="48.86426" lon="2.37936">
        <ele>119.8</ele>
        <time>2015-05-05T19:01:47.128Z</time>
      </trkpt>
      <trkpt lat="48.86427" lon="2.37928">
        <ele>119.6</ele>
        <time>2015-05-05T19:01:48.135Z</time>
      </trkpt>
      <trkpt lat="48.86429" lon="2.3792">
        <ele>119.5</ele>
        <time>2015-05-05T19:01:49.147Z</time>
      </trkpt>
      <trkpt lat="48.8643" lon="2.37912">
        <ele>119.3</ele>
        <time>2015-05-05T19:01:50.161Z</time>
      </trkpt>
      <trkpt lat="48.86431" lon="2.37903">
        <ele>119</ele>
        <time>2015-05-05T19:01:51.163Z</time>
      </trkpt>
      <trkpt lat="48.86433" lon="2.37894">
        <ele>118.7</ele>
        <time>2015-05-05T19:01:52.186Z</time>
      </trkpt>
      <trkpt lat="48.86434" lon="2.37885">
        <ele>118.6</ele>
        <time>2015-05-05T19:01:53.082Z</time>
      </trkpt>
      <trkpt lat="48.86435" lon="2.37877">
        <ele>118.6</ele>
        <time>2015-05-05T19:01:54.080Z</time>
      </trkpt>
      <trkpt lat="48.86437" lon="2.3787">
        <ele>118.3</ele>
        <time>2015-05-05T19:01:55.088Z</time>
      </trkpt>
      <trkpt lat="48.86439" lon="2.37862">
        <ele>118.2</ele>
        <time>2015-05-05T19:01:56.097Z</time>
      </trkpt>
      <trkpt lat="48.8644" lon="2.37855">
        <ele>117.9</ele>
        <time>2015-05-05T19:01:57.116Z</time>
      </trkpt>
      <trkpt lat="48.86442" lon="2.37847">
        <ele>117.6</ele>
        <time>2015-05-05T19:01:58.139Z</time>
      </trkpt>
      <trkpt lat="48.86443" lon="2.37839">
        <ele>117.5</ele>
        <time>2015-05-05T19:01:59.141Z</time>
      </trkpt>
      <trkpt lat="48.86444" lon="2.3783">
        <ele>117.3</ele>
        <time>2015-05-05T19:02:00.156Z</time>
      </trkpt>
      <trkpt lat="48.86446" lon="2.37819">
        <ele>118.3</ele>
        <time>2015-05-05T19:02:01.165Z</time>
      </trkpt>
      <trkpt lat="48.86448" lon="2.37811">
        <ele>118</ele>
        <time>2015-05-05T19:02:02.076Z</time>
      </trkpt>
      <trkpt lat="48.86449" lon="2.37804">
        <ele>117.8</ele>
        <time>2015-05-05T19:02:03.101Z</time>
      </trkpt>
      <trkpt lat="48.8645" lon="2.37797">
        <ele>117.6</ele>
        <time>2015-05-05T19:02:04.117Z</time>
      </trkpt>
      <trkpt lat="48.86451" lon="2.3779">
        <ele>117.7</ele>
        <time>2015-05-05T19:02:05.131Z</time>
      </trkpt>
      <trkpt lat="48.86452" lon="2.37783">
        <ele>117.7</ele>
        <time>2015-05-05T19:02:06.139Z</time>
      </trkpt>
      <trkpt lat="48.86454" lon="2.37775">
        <ele>117.6</ele>
        <time>2015-05-05T19:02:07.142Z</time>
      </trkpt>
      <trkpt lat="48.86455" lon="2.37767">
        <ele>117.6</ele>
        <time>2015-05-05T19:02:08.148Z</time>
      </trkpt>
      <trkpt lat="48.86456" lon="2.37758">
        <ele>117.6</ele>
        <time>2015-05-05T19:02:09.158Z</time>
      </trkpt>
      <trkpt lat="48.86458" lon="2.3775">
        <ele>117.5</ele>
        <time>2015-05-05T19:02:10.168Z</time>
      </trkpt>
      <trkpt lat="48.8646" lon="2.37741">
        <ele>117.5</ele>
        <time>2015-05-05T19:02:11.081Z</time>
      </trkpt>
      <trkpt lat="48.86462" lon="2.37732">
        <ele>117.4</ele>
        <time>2015-05-05T19:02:12.086Z</time>
      </trkpt>
      <trkpt lat="48.86464" lon="2.37724">
        <ele>117.3</ele>
        <time>2015-05-05T19:02:13.093Z</time>
      </trkpt>
      <trkpt lat="48.86466" lon="2.37715">
        <ele>117.3</ele>
        <time>2015-05-05T19:02:14.113Z</time>
      </trkpt>
      <trkpt lat="48.86467" lon="2.37706">
        <ele>117.1</ele>
        <time>2015-05-05T19:02:15.119Z</time>
      </trkpt>
      <trkpt lat="48.86469" lon="2.37698">
        <ele>117.2</ele>
        <time>2015-05-05T19:02:16.137Z</time>
      </trkpt>
      <trkpt lat="48.86471" lon="2.3769">
        <ele>117</ele>
        <time>2015-05-05T19:02:17.143Z</time>
      </trkpt>
      <trkpt lat="48.86474" lon="2.37682">
        <ele>116.9</ele>
        <time>2015-05-05T19:02:18.158Z</time>
      </trkpt>
      <trkpt lat="48.86476" lon="2.37674">
        <ele>116.9</ele>
        <time>2015-05-05T19:02:19.080Z</time>
      </trkpt>
      <trkpt lat="48.86478" lon="2.37665">
        <ele>116.8</ele>
        <time>2015-05-05T19:02:20.079Z</time>
      </trkpt>
      <trkpt lat="48.8648" lon="2.37657">
        <ele>116.9</ele>
        <time>2015-05-05T19:02:21.094Z</time>
      </trkpt>
      <trkpt lat="48.86482" lon="2.37649">
        <ele>116.9</ele>
        <time>2015-05-05T19:02:22.117Z</time>
      </trkpt>
      <trkpt lat="48.86484" lon="2.37641">
        <ele>117</ele>
        <time>2015-05-05T19:02:23.117Z</time>
      </trkpt>
      <trkpt lat="48.86485" lon="2.37634">
        <ele>117</ele>
        <time>2015-05-05T19:02:24.136Z</time>
      </trkpt>
      <trkpt lat="48.86486" lon="2.37627">
        <ele>117</ele>
        <time>2015-05-05T19:02:25.154Z</time>
      </trkpt>
      <trkpt lat="48.86486" lon="2.3762">
        <ele>116.9</ele>
        <time>2015-05-05T19:02:26.077Z</time>
      </trkpt>
      <trkpt lat="48.86487" lon="2.37613">
        <ele>116.8</ele>
        <time>2015-05-05T19:02:27.096Z</time>
      </trkpt>
      <trkpt lat="48.86488" lon="2.37606">
        <ele>116.6</ele>
        <time>2015-05-05T19:02:28.165Z</time>
      </trkpt>
      <trkpt lat="48.8649" lon="2.376">
        <ele>116.5</ele>
        <time>2015-05-05T19:02:29.057Z</time>
      </trkpt>
      <trkpt lat="48.86491" lon="2.37593">
        <ele>116.4</ele>
        <time>2015-05-05T19:02:30.079Z</time>
      </trkpt>
      <trkpt lat="48.86492" lon="2.37586">
        <ele>116.3</ele>
        <time>2015-05-05T19:02:31.084Z</time>
      </trkpt>
      <trkpt lat="48.86493" lon="2.37579">
        <ele>116.4</ele>
        <time>2015-05-05T19:02:32.107Z</time>
      </trkpt>
      <trkpt lat="48.86495" lon="2.37572">
        <ele>116.5</ele>
        <time>2015-05-05T19:02:33.135Z</time>
      </trkpt>
      <trkpt lat="48.86497" lon="2.37565">
        <ele>116.5</ele>
        <time>2015-05-05T19:02:34.145Z</time>
      </trkpt>
      <trkpt lat="48.86498" lon="2.37558">
        <ele>116.4</ele>
        <time>2015-05-05T19:02:35.151Z</time>
      </trkpt>
      <trkpt lat="48.865" lon="2.37551">
        <ele>116.4</ele>
        <time>2015-05-05T19:02:36.167Z</time>
      </trkpt>
      <trkpt lat="48.865" lon="2.37544">
        <ele>116.3</ele>
        <time>2015-05-05T19:02:37.208Z</time>
      </trkpt>
      <trkpt lat="48.86503" lon="2.37533">
        <ele>116.3</ele>
        <time>2015-05-05T19:02:40.173Z</time>
      </trkpt>
      <trkpt lat="48.86504" lon="2.37532">
        <ele>116.4</ele>
        <time>2015-05-05T19:02:41.158Z</time>
      </trkpt>
      <trkpt lat="48.8651" lon="2.37522">
        <ele>118.7</ele>
        <time>2015-05-05T19:02:52.146Z</time>
      </trkpt>
      <trkpt lat="48.86511" lon="2.37518">
        <ele>119</ele>
        <time>2015-05-05T19:02:53.165Z</time>
      </trkpt>
      <trkpt lat="48.86512" lon="2.37507">
        <ele>119.6</ele>
        <time>2015-05-05T19:02:55.102Z</time>
      </trkpt>
      <trkpt lat="48.86513" lon="2.375">
        <ele>119.9</ele>
        <time>2015-05-05T19:02:56.127Z</time>
      </trkpt>
      <trkpt lat="48.86515" lon="2.37488">
        <ele>120.3</ele>
        <time>2015-05-05T19:02:58.148Z</time>
      </trkpt>
      <trkpt lat="48.86515" lon="2.37484">
        <ele>120.5</ele>
        <time>2015-05-05T19:02:59.167Z</time>
      </trkpt>
      <trkpt lat="48.86517" lon="2.37473">
        <ele>120.9</ele>
        <time>2015-05-05T19:03:01.120Z</time>
      </trkpt>
      <trkpt lat="48.86519" lon="2.37466">
        <ele>121</ele>
        <time>2015-05-05T19:03:02.141Z</time>
      </trkpt>
      <trkpt lat="48.8652" lon="2.37454">
        <ele>121.2</ele>
        <time>2015-05-05T19:03:04.156Z</time>
      </trkpt>
      <trkpt lat="48.8652" lon="2.37449">
        <ele>121.3</ele>
        <time>2015-05-05T19:03:05.152Z</time>
      </trkpt>
      <trkpt lat="48.86521" lon="2.37435">
        <ele>120.9</ele>
        <time>2015-05-05T19:03:09.100Z</time>
      </trkpt>
      <trkpt lat="48.86521" lon="2.37434">
        <ele>120.8</ele>
        <time>2015-05-05T19:03:10.167Z</time>
      </trkpt>
      <trkpt lat="48.86523" lon="2.37421">
        <ele>121.4</ele>
        <time>2015-05-05T19:03:17.179Z</time>
      </trkpt>
      <trkpt lat="48.86524" lon="2.37417">
        <ele>121.4</ele>
        <time>2015-05-05T19:03:18.114Z</time>
      </trkpt>
      <trkpt lat="48.86525" lon="2.37404">
        <ele>121.2</ele>
        <time>2015-05-05T19:03:21.161Z</time>
      </trkpt>
      <trkpt lat="48.86525" lon="2.37399">
        <ele>121.1</ele>
        <time>2015-05-05T19:03:22.200Z</time>
      </trkpt>
      <trkpt lat="48.86525" lon="2.37388">
        <ele>120.9</ele>
        <time>2015-05-05T19:03:24.118Z</time>
      </trkpt>
      <trkpt lat="48.86525" lon="2.37382">
        <ele>120.6</ele>
        <time>2015-05-05T19:03:25.147Z</time>
      </trkpt>
      <trkpt lat="48.86526" lon="2.37376">
        <ele>120.4</ele>
        <time>2015-05-05T19:03:26.151Z</time>
      </trkpt>
      <trkpt lat="48.86527" lon="2.37369">
        <ele>120.1</ele>
        <time>2015-05-05T19:03:27.170Z</time>
      </trkpt>
      <trkpt lat="48.86529" lon="2.37361">
        <ele>119.9</ele>
        <time>2015-05-05T19:03:28.220Z</time>
      </trkpt>
      <trkpt lat="48.86531" lon="2.37354">
        <ele>119.8</ele>
        <time>2015-05-05T19:03:29.145Z</time>
      </trkpt>
      <trkpt lat="48.86532" lon="2.37346">
        <ele>119.6</ele>
        <time>2015-05-05T19:03:30.105Z</time>
      </trkpt>
      <trkpt lat="48.86535" lon="2.37338">
        <ele>119.4</ele>
        <time>2015-05-05T19:03:31.108Z</time>
      </trkpt>
      <trkpt lat="48.86537" lon="2.37329">
        <ele>119.2</ele>
        <time>2015-05-05T19:03:32.148Z</time>
      </trkpt>
      <trkpt lat="48.86539" lon="2.37321">
        <ele>119</ele>
        <time>2015-05-05T19:03:33.175Z</time>
      </trkpt>
      <trkpt lat="48.86541" lon="2.37313">
        <ele>118.8</ele>
        <time>2015-05-05T19:03:34.189Z</time>
      </trkpt>
      <trkpt lat="48.86543" lon="2.37304">
        <ele>118.6</ele>
        <time>2015-05-05T19:03:35.093Z</time>
      </trkpt>
      <trkpt lat="48.86545" lon="2.37296">
        <ele>118.2</ele>
        <time>2015-05-05T19:03:36.091Z</time>
      </trkpt>
      <trkpt lat="48.86547" lon="2.37287">
        <ele>118</ele>
        <time>2015-05-05T19:03:37.101Z</time>
      </trkpt>
      <trkpt lat="48.86548" lon="2.37279">
        <ele>117.8</ele>
        <time>2015-05-05T19:03:38.141Z</time>
      </trkpt>
      <trkpt lat="48.86551" lon="2.3727">
        <ele>117.7</ele>
        <time>2015-05-05T19:03:39.152Z</time>
      </trkpt>
      <trkpt lat="48.86552" lon="2.37261">
        <ele>117.8</ele>
        <time>2015-05-05T19:03:40.165Z</time>
      </trkpt>
      <trkpt lat="48.86554" lon="2.37252">
        <ele>117.9</ele>
        <time>2015-05-05T19:03:41.086Z</time>
      </trkpt>
      <trkpt lat="48.86556" lon="2.37243">
        <ele>117.8</ele>
        <time>2015-05-05T19:03:42.091Z</time>
      </trkpt>
      <trkpt lat="48.86558" lon="2.37234">
        <ele>117.7</ele>
        <time>2015-05-05T19:03:43.132Z</time>
      </trkpt>
      <trkpt lat="48.8656" lon="2.37225">
        <ele>117.5</ele>
        <time>2015-05-05T19:03:44.167Z</time>
      </trkpt>
      <trkpt lat="48.86562" lon="2.37216">
        <ele>117.2</ele>
        <time>2015-05-05T19:03:45.113Z</time>
      </trkpt>
      <trkpt lat="48.86563" lon="2.37208">
        <ele>117</ele>
        <time>2015-05-05T19:03:46.129Z</time>
      </trkpt>
      <trkpt lat="48.86563" lon="2.372">
        <ele>116.8</ele>
        <time>2015-05-05T19:03:47.126Z</time>
      </trkpt>
      <trkpt lat="48.86564" lon="2.37193">
        <ele>116.5</ele>
        <time>2015-05-05T19:03:48.129Z</time>
      </trkpt>
      <trkpt lat="48.86564" lon="2.37185">
        <ele>116.3</ele>
        <time>2015-05-05T19:03:49.155Z</time>
      </trkpt>
      <trkpt lat="48.86566" lon="2.37175">
        <ele>116.1</ele>
        <time>2015-05-05T19:03:50.106Z</time>
      </trkpt>
      <trkpt lat="48.86569" lon="2.37166">
        <ele>115.9</ele>
        <time>2015-05-05T19:03:51.126Z</time>
      </trkpt>
      <trkpt lat="48.86571" lon="2.37156">
        <ele>115.8</ele>
        <time>2015-05-05T19:03:52.154Z</time>
      </trkpt>
      <trkpt lat="48.86573" lon="2.37148">
        <ele>115.7</ele>
        <time>2015-05-05T19:03:53.079Z</time>
      </trkpt>
      <trkpt lat="48.86575" lon="2.37138">
        <ele>115.6</ele>
        <time>2015-05-05T19:03:54.099Z</time>
      </trkpt>
      <trkpt lat="48.86577" lon="2.37129">
        <ele>115.6</ele>
        <time>2015-05-05T19:03:55.120Z</time>
      </trkpt>
      <trkpt lat="48.86579" lon="2.3712">
        <ele>115.6</ele>
        <time>2015-05-05T19:03:56.124Z</time>
      </trkpt>
      <trkpt lat="48.86581" lon="2.3711">
        <ele>115.5</ele>
        <time>2015-05-05T19:03:57.139Z</time>
      </trkpt>
      <trkpt lat="48.86583" lon="2.37101">
        <ele>115.5</ele>
        <time>2015-05-05T19:03:58.153Z</time>
      </trkpt>
      <trkpt lat="48.86586" lon="2.37092">
        <ele>115.4</ele>
        <time>2015-05-05T19:03:59.161Z</time>
      </trkpt>
      <trkpt lat="48.86588" lon="2.37082">
        <ele>115.4</ele>
        <time>2015-05-05T19:04:00.085Z</time>
      </trkpt>
      <trkpt lat="48.8659" lon="2.37073">
        <ele>115.2</ele>
        <time>2015-05-05T19:04:01.108Z</time>
      </trkpt>
      <trkpt lat="48.86592" lon="2.37064">
        <ele>115</ele>
        <time>2015-05-05T19:04:02.092Z</time>
      </trkpt>
      <trkpt lat="48.86596" lon="2.37054">
        <ele>114.8</ele>
        <time>2015-05-05T19:04:03.103Z</time>
      </trkpt>
      <trkpt lat="48.866" lon="2.37044">
        <ele>114.4</ele>
        <time>2015-05-05T19:04:04.136Z</time>
      </trkpt>
      <trkpt lat="48.86602" lon="2.37034">
        <ele>113.9</ele>
        <time>2015-05-05T19:04:05.139Z</time>
      </trkpt>
      <trkpt lat="48.86604" lon="2.37025">
        <ele>113.4</ele>
        <time>2015-05-05T19:04:06.297Z</time>
      </trkpt>
      <trkpt lat="48.86605" lon="2.37016">
        <ele>113.2</ele>
        <time>2015-05-05T19:04:07.161Z</time>
      </trkpt>
      <trkpt lat="48.86606" lon="2.37007">
        <ele>112.9</ele>
        <time>2015-05-05T19:04:08.170Z</time>
      </trkpt>
      <trkpt lat="48.86608" lon="2.36998">
        <ele>112.8</ele>
        <time>2015-05-05T19:04:09.075Z</time>
      </trkpt>
      <trkpt lat="48.8661" lon="2.36991">
        <ele>112.8</ele>
        <time>2015-05-05T19:04:10.109Z</time>
      </trkpt>
      <trkpt lat="48.86611" lon="2.36984">
        <ele>112.8</ele>
        <time>2015-05-05T19:04:11.118Z</time>
      </trkpt>
      <trkpt lat="48.86613" lon="2.36972">
        <ele>112.6</ele>
        <time>2015-05-05T19:04:13.148Z</time>
      </trkpt>
      <trkpt lat="48.86613" lon="2.36967">
        <ele>112.6</ele>
        <time>2015-05-05T19:04:14.149Z</time>
      </trkpt>
      <trkpt lat="48.86614" lon="2.36954">
        <ele>113</ele>
        <time>2015-05-05T19:04:18.187Z</time>
      </trkpt>
      <trkpt lat="48.86615" lon="2.36953">
        <ele>113</ele>
        <time>2015-05-05T19:04:19.118Z</time>
      </trkpt>
      <trkpt lat="48.86617" lon="2.36943">
        <ele>115.7</ele>
        <time>2015-05-05T19:04:54.190Z</time>
      </trkpt>
      <trkpt lat="48.8662" lon="2.36941">
        <ele>116</ele>
        <time>2015-05-05T19:04:55.115Z</time>
      </trkpt>
      <trkpt lat="48.86625" lon="2.36935">
        <ele>116.4</ele>
        <time>2015-05-05T19:04:57.137Z</time>
      </trkpt>
      <trkpt lat="48.86629" lon="2.36932">
        <ele>116.7</ele>
        <time>2015-05-05T19:04:58.182Z</time>
      </trkpt>
      <trkpt lat="48.86633" lon="2.36929">
        <ele>116.9</ele>
        <time>2015-05-05T19:04:59.120Z</time>
      </trkpt>
      <trkpt lat="48.86637" lon="2.36925">
        <ele>117.2</ele>
        <time>2015-05-05T19:05:00.112Z</time>
      </trkpt>
      <trkpt lat="48.86641" lon="2.36921">
        <ele>117.4</ele>
        <time>2015-05-05T19:05:01.124Z</time>
      </trkpt>
      <trkpt lat="48.86645" lon="2.36917">
        <ele>117.6</ele>
        <time>2015-05-05T19:05:02.131Z</time>
      </trkpt>
      <trkpt lat="48.8665" lon="2.36913">
        <ele>117.9</ele>
        <time>2015-05-05T19:05:03.158Z</time>
      </trkpt>
      <trkpt lat="48.86654" lon="2.36908">
        <ele>118.2</ele>
        <time>2015-05-05T19:05:04.202Z</time>
      </trkpt>
      <trkpt lat="48.86659" lon="2.36904">
        <ele>118.4</ele>
        <time>2015-05-05T19:05:05.094Z</time>
      </trkpt>
      <trkpt lat="48.86664" lon="2.369">
        <ele>118.5</ele>
        <time>2015-05-05T19:05:06.100Z</time>
      </trkpt>
      <trkpt lat="48.86668" lon="2.36895">
        <ele>118.7</ele>
        <time>2015-05-05T19:05:07.135Z</time>
      </trkpt>
      <trkpt lat="48.86671" lon="2.36891">
        <ele>118.9</ele>
        <time>2015-05-05T19:05:08.158Z</time>
      </trkpt>
      <trkpt lat="48.86675" lon="2.36886">
        <ele>119.1</ele>
        <time>2015-05-05T19:05:09.180Z</time>
      </trkpt>
      <trkpt lat="48.86679" lon="2.36881">
        <ele>119.2</ele>
        <time>2015-05-05T19:05:10.184Z</time>
      </trkpt>
      <trkpt lat="48.86683" lon="2.36875">
        <ele>119.3</ele>
        <time>2015-05-05T19:05:11.098Z</time>
      </trkpt>
      <trkpt lat="48.86687" lon="2.3687">
        <ele>119.3</ele>
        <time>2015-05-05T19:05:12.095Z</time>
      </trkpt>
      <trkpt lat="48.86691" lon="2.36864">
        <ele>119.3</ele>
        <time>2015-05-05T19:05:13.109Z</time>
      </trkpt>
      <trkpt lat="48.86696" lon="2.36859">
        <ele>119.4</ele>
        <time>2015-05-05T19:05:14.127Z</time>
      </trkpt>
      <trkpt lat="48.86701" lon="2.36855">
        <ele>119.4</ele>
        <time>2015-05-05T19:05:15.138Z</time>
      </trkpt>
      <trkpt lat="48.86706" lon="2.36851">
        <ele>119.4</ele>
        <time>2015-05-05T19:05:16.147Z</time>
      </trkpt>
      <trkpt lat="48.8671" lon="2.36847">
        <ele>119.3</ele>
        <time>2015-05-05T19:05:17.159Z</time>
      </trkpt>
      <trkpt lat="48.86715" lon="2.36843">
        <ele>119.4</ele>
        <time>2015-05-05T19:05:18.097Z</time>
      </trkpt>
      <trkpt lat="48.8672" lon="2.3684">
        <ele>119.6</ele>
        <time>2015-05-05T19:05:19.100Z</time>
      </trkpt>
      <trkpt lat="48.86724" lon="2.36837">
        <ele>119.8</ele>
        <time>2015-05-05T19:05:20.112Z</time>
      </trkpt>
      <trkpt lat="48.86732" lon="2.36831">
        <ele>120.4</ele>
        <time>2015-05-05T19:05:22.141Z</time>
      </trkpt>
      <trkpt lat="48.86736" lon="2.36829">
        <ele>120.4</ele>
        <time>2015-05-05T19:05:23.156Z</time>
      </trkpt>
      <trkpt lat="48.86743" lon="2.36824">
        <ele>120.5</ele>
        <time>2015-05-05T19:05:25.098Z</time>
      </trkpt>
      <trkpt lat="48.86746" lon="2.36822">
        <ele>120.5</ele>
        <time>2015-05-05T19:05:26.124Z</time>
      </trkpt>
      <trkpt lat="48.86754" lon="2.36816">
        <ele>120.2</ele>
        <time>2015-05-05T19:05:28.149Z</time>
      </trkpt>
      <trkpt lat="48.86759" lon="2.36815">
        <ele>120.2</ele>
        <time>2015-05-05T19:05:29.153Z</time>
      </trkpt>
      <trkpt lat="48.86763" lon="2.36813">
        <ele>120.1</ele>
        <time>2015-05-05T19:05:30.108Z</time>
      </trkpt>
      <trkpt lat="48.86768" lon="2.36811">
        <ele>120.1</ele>
        <time>2015-05-05T19:05:31.104Z</time>
      </trkpt>
      <trkpt lat="48.86776" lon="2.36806">
        <ele>119.7</ele>
        <time>2015-05-05T19:05:33.234Z</time>
      </trkpt>
      <trkpt lat="48.86781" lon="2.36804">
        <ele>119.6</ele>
        <time>2015-05-05T19:05:34.175Z</time>
      </trkpt>
      <trkpt lat="48.86785" lon="2.368">
        <ele>118.4</ele>
        <time>2015-05-05T19:05:35.118Z</time>
      </trkpt>
      <trkpt lat="48.86789" lon="2.36797">
        <ele>118.3</ele>
        <time>2015-05-05T19:05:36.131Z</time>
      </trkpt>
      <trkpt lat="48.86794" lon="2.36794">
        <ele>118.2</ele>
        <time>2015-05-05T19:05:37.234Z</time>
      </trkpt>
      <trkpt lat="48.86799" lon="2.36791">
        <ele>118</ele>
        <time>2015-05-05T19:05:38.107Z</time>
      </trkpt>
      <trkpt lat="48.86805" lon="2.36788">
        <ele>117.7</ele>
        <time>2015-05-05T19:05:39.115Z</time>
      </trkpt>
      <trkpt lat="48.8681" lon="2.36786">
        <ele>117.6</ele>
        <time>2015-05-05T19:05:40.185Z</time>
      </trkpt>
      <trkpt lat="48.86817" lon="2.36778">
        <ele>117.3</ele>
        <time>2015-05-05T19:05:42.102Z</time>
      </trkpt>
      <trkpt lat="48.86821" lon="2.36776">
        <ele>117.2</ele>
        <time>2015-05-05T19:05:43.137Z</time>
      </trkpt>
      <trkpt lat="48.86826" lon="2.36773">
        <ele>117</ele>
        <time>2015-05-05T19:05:44.182Z</time>
      </trkpt>
      <trkpt lat="48.8683" lon="2.36771">
        <ele>117.2</ele>
        <time>2015-05-05T19:05:45.196Z</time>
      </trkpt>
      <trkpt lat="48.86835" lon="2.36767">
        <ele>117.1</ele>
        <time>2015-05-05T19:05:46.230Z</time>
      </trkpt>
      <trkpt lat="48.86839" lon="2.36765">
        <ele>117.1</ele>
        <time>2015-05-05T19:05:47.076Z</time>
      </trkpt>
      <trkpt lat="48.86844" lon="2.36762">
        <ele>117.1</ele>
        <time>2015-05-05T19:05:48.164Z</time>
      </trkpt>
      <trkpt lat="48.86848" lon="2.36759">
        <ele>117.1</ele>
        <time>2015-05-05T19:05:49.163Z</time>
      </trkpt>
      <trkpt lat="48.86855" lon="2.36751">
        <ele>116.9</ele>
        <time>2015-05-05T19:05:51.125Z</time>
      </trkpt>
      <trkpt lat="48.86859" lon="2.36748">
        <ele>117</ele>
        <time>2015-05-05T19:05:52.336Z</time>
      </trkpt>
      <trkpt lat="48.86863" lon="2.36745">
        <ele>116.9</ele>
        <time>2015-05-05T19:05:53.137Z</time>
      </trkpt>
      <trkpt lat="48.86868" lon="2.36742">
        <ele>117.1</ele>
        <time>2015-05-05T19:05:54.126Z</time>
      </trkpt>
      <trkpt lat="48.86872" lon="2.36739">
        <ele>117.1</ele>
        <time>2015-05-05T19:05:55.127Z</time>
      </trkpt>
      <trkpt lat="48.86877" lon="2.36737">
        <ele>116.3</ele>
        <time>2015-05-05T19:05:56.141Z</time>
      </trkpt>
      <trkpt lat="48.86882" lon="2.36734">
        <ele>116.3</ele>
        <time>2015-05-05T19:05:57.162Z</time>
      </trkpt>
      <trkpt lat="48.86887" lon="2.3673">
        <ele>116.4</ele>
        <time>2015-05-05T19:05:58.165Z</time>
      </trkpt>
      <trkpt lat="48.86891" lon="2.36726">
        <ele>116.5</ele>
        <time>2015-05-05T19:05:59.174Z</time>
      </trkpt>
      <trkpt lat="48.86897" lon="2.36723">
        <ele>116.5</ele>
        <time>2015-05-05T19:06:00.154Z</time>
      </trkpt>
      <trkpt lat="48.86902" lon="2.36719">
        <ele>116.5</ele>
        <time>2015-05-05T19:06:01.107Z</time>
      </trkpt>
      <trkpt lat="48.86906" lon="2.36715">
        <ele>116.4</ele>
        <time>2015-05-05T19:06:02.112Z</time>
      </trkpt>
      <trkpt lat="48.86911" lon="2.3671">
        <ele>116.3</ele>
        <time>2015-05-05T19:06:03.126Z</time>
      </trkpt>
      <trkpt lat="48.86915" lon="2.36707">
        <ele>116.3</ele>
        <time>2015-05-05T19:06:04.147Z</time>
      </trkpt>
      <trkpt lat="48.8692" lon="2.36704">
        <ele>116.3</ele>
        <time>2015-05-05T19:06:05.158Z</time>
      </trkpt>
      <trkpt lat="48.86925" lon="2.36701">
        <ele>116.3</ele>
        <time>2015-05-05T19:06:06.167Z</time>
      </trkpt>
      <trkpt lat="48.8693" lon="2.367">
        <ele>116.3</ele>
        <time>2015-05-05T19:06:07.193Z</time>
      </trkpt>
      <trkpt lat="48.86934" lon="2.36696">
        <ele>116.3</ele>
        <time>2015-05-05T19:06:08.096Z</time>
      </trkpt>
      <trkpt lat="48.86939" lon="2.36693">
        <ele>116.3</ele>
        <time>2015-05-05T19:06:09.100Z</time>
      </trkpt>
      <trkpt lat="48.86943" lon="2.36689">
        <ele>116.2</ele>
        <time>2015-05-05T19:06:10.134Z</time>
      </trkpt>
      <trkpt lat="48.86947" lon="2.36685">
        <ele>116.1</ele>
        <time>2015-05-05T19:06:11.155Z</time>
      </trkpt>
      <trkpt lat="48.86951" lon="2.36683">
        <ele>115.9</ele>
        <time>2015-05-05T19:06:12.169Z</time>
      </trkpt>
      <trkpt lat="48.86955" lon="2.3668">
        <ele>115.7</ele>
        <time>2015-05-05T19:06:13.103Z</time>
      </trkpt>
      <trkpt lat="48.8696" lon="2.36677">
        <ele>115.5</ele>
        <time>2015-05-05T19:06:14.095Z</time>
      </trkpt>
      <trkpt lat="48.86965" lon="2.36674">
        <ele>115.4</ele>
        <time>2015-05-05T19:06:15.103Z</time>
      </trkpt>
      <trkpt lat="48.86969" lon="2.36671">
        <ele>115.2</ele>
        <time>2015-05-05T19:06:16.123Z</time>
      </trkpt>
      <trkpt lat="48.86977" lon="2.36665">
        <ele>114.8</ele>
        <time>2015-05-05T19:06:18.165Z</time>
      </trkpt>
      <trkpt lat="48.86982" lon="2.36662">
        <ele>114.8</ele>
        <time>2015-05-05T19:06:19.179Z</time>
      </trkpt>
      <trkpt lat="48.86987" lon="2.36658">
        <ele>114.6</ele>
        <time>2015-05-05T19:06:20.102Z</time>
      </trkpt>
      <trkpt lat="48.86992" lon="2.36656">
        <ele>114.5</ele>
        <time>2015-05-05T19:06:21.080Z</time>
      </trkpt>
      <trkpt lat="48.86997" lon="2.36652">
        <ele>114.5</ele>
        <time>2015-05-05T19:06:22.133Z</time>
      </trkpt>
      <trkpt lat="48.87002" lon="2.36649">
        <ele>114.5</ele>
        <time>2015-05-05T19:06:23.149Z</time>
      </trkpt>
      <trkpt lat="48.87007" lon="2.36646">
        <ele>114.3</ele>
        <time>2015-05-05T19:06:24.156Z</time>
      </trkpt>
      <trkpt lat="48.87012" lon="2.36642">
        <ele>114.3</ele>
        <time>2015-05-05T19:06:25.177Z</time>
      </trkpt>
      <trkpt lat="48.87015" lon="2.36639">
        <ele>114.2</ele>
        <time>2015-05-05T19:06:26.113Z</time>
      </trkpt>
      <trkpt lat="48.87019" lon="2.36634">
        <ele>114.3</ele>
        <time>2015-05-05T19:06:27.139Z</time>
      </trkpt>
      <trkpt lat="48.87023" lon="2.36629">
        <ele>114.2</ele>
        <time>2015-05-05T19:06:28.147Z</time>
      </trkpt>
      <trkpt lat="48.87029" lon="2.36625">
        <ele>114.4</ele>
        <time>2015-05-05T19:06:29.146Z</time>
      </trkpt>
      <trkpt lat="48.87033" lon="2.3662">
        <ele>114.7</ele>
        <time>2015-05-05T19:06:30.155Z</time>
      </trkpt>
      <trkpt lat="48.87038" lon="2.36616">
        <ele>115.1</ele>
        <time>2015-05-05T19:06:31.164Z</time>
      </trkpt>
      <trkpt lat="48.87042" lon="2.36611">
        <ele>115.4</ele>
        <time>2015-05-05T19:06:32.166Z</time>
      </trkpt>
      <trkpt lat="48.87046" lon="2.36607">
        <ele>115.7</ele>
        <time>2015-05-05T19:06:33.086Z</time>
      </trkpt>
      <trkpt lat="48.8705" lon="2.36603">
        <ele>116.1</ele>
        <time>2015-05-05T19:06:34.128Z</time>
      </trkpt>
      <trkpt lat="48.87054" lon="2.36599">
        <ele>116.4</ele>
        <time>2015-05-05T19:06:35.139Z</time>
      </trkpt>
      <trkpt lat="48.87058" lon="2.36594">
        <ele>116.6</ele>
        <time>2015-05-05T19:06:36.116Z</time>
      </trkpt>
      <trkpt lat="48.87062" lon="2.36591">
        <ele>116.8</ele>
        <time>2015-05-05T19:06:37.108Z</time>
      </trkpt>
      <trkpt lat="48.87066" lon="2.36587">
        <ele>117.1</ele>
        <time>2015-05-05T19:06:38.329Z</time>
      </trkpt>
      <trkpt lat="48.8707" lon="2.36583">
        <ele>117.5</ele>
        <time>2015-05-05T19:06:39.132Z</time>
      </trkpt>
      <trkpt lat="48.87074" lon="2.3658">
        <ele>117.9</ele>
        <time>2015-05-05T19:06:40.182Z</time>
      </trkpt>
      <trkpt lat="48.87079" lon="2.36576">
        <ele>118.3</ele>
        <time>2015-05-05T19:06:41.208Z</time>
      </trkpt>
      <trkpt lat="48.87083" lon="2.36573">
        <ele>118.6</ele>
        <time>2015-05-05T19:06:42.110Z</time>
      </trkpt>
      <trkpt lat="48.87087" lon="2.3657">
        <ele>118.7</ele>
        <time>2015-05-05T19:06:43.119Z</time>
      </trkpt>
      <trkpt lat="48.87094" lon="2.36564">
        <ele>119.2</ele>
        <time>2015-05-05T19:06:45.171Z</time>
      </trkpt>
      <trkpt lat="48.87099" lon="2.36561">
        <ele>119.5</ele>
        <time>2015-05-05T19:06:46.187Z</time>
      </trkpt>
      <trkpt lat="48.87103" lon="2.36558">
        <ele>119.8</ele>
        <time>2015-05-05T19:06:46.548Z</time>
      </trkpt>
      <trkpt lat="48.87107" lon="2.36553">
        <ele>120</ele>
        <time>2015-05-05T19:06:48.102Z</time>
      </trkpt>
      <trkpt lat="48.8711" lon="2.36549">
        <ele>120.3</ele>
        <time>2015-05-05T19:06:49.181Z</time>
      </trkpt>
      <trkpt lat="48.87115" lon="2.36545">
        <ele>120.6</ele>
        <time>2015-05-05T19:06:50.070Z</time>
      </trkpt>
      <trkpt lat="48.87119" lon="2.36541">
        <ele>120.6</ele>
        <time>2015-05-05T19:06:51.608Z</time>
      </trkpt>
      <trkpt lat="48.87123" lon="2.36537">
        <ele>120.8</ele>
        <time>2015-05-05T19:06:52.152Z</time>
      </trkpt>
      <trkpt lat="48.87128" lon="2.36534">
        <ele>120.9</ele>
        <time>2015-05-05T19:06:53.149Z</time>
      </trkpt>
      <trkpt lat="48.87132" lon="2.36531">
        <ele>121</ele>
        <time>2015-05-05T19:06:54.152Z</time>
      </trkpt>
      <trkpt lat="48.87136" lon="2.36528">
        <ele>121.1</ele>
        <time>2015-05-05T19:06:55.167Z</time>
      </trkpt>
      <trkpt lat="48.87142" lon="2.36525">
        <ele>121.1</ele>
        <time>2015-05-05T19:06:56.164Z</time>
      </trkpt>
      <trkpt lat="48.87147" lon="2.36523">
        <ele>120.8</ele>
        <time>2015-05-05T19:06:57.110Z</time>
      </trkpt>
      <trkpt lat="48.87152" lon="2.3652">
        <ele>120.7</ele>
        <time>2015-05-05T19:06:58.173Z</time>
      </trkpt>
      <trkpt lat="48.8716" lon="2.36514">
        <ele>120.3</ele>
        <time>2015-05-05T19:07:00.147Z</time>
      </trkpt>
      <trkpt lat="48.87163" lon="2.36511">
        <ele>120.3</ele>
        <time>2015-05-05T19:07:01.097Z</time>
      </trkpt>
      <trkpt lat="48.8717" lon="2.36503">
        <ele>119.9</ele>
        <time>2015-05-05T19:07:03.132Z</time>
      </trkpt>
      <trkpt lat="48.87176" lon="2.36499">
        <ele>119.8</ele>
        <time>2015-05-05T19:07:04.477Z</time>
      </trkpt>
      <trkpt lat="48.8718" lon="2.36496">
        <ele>119.6</ele>
        <time>2015-05-05T19:07:05.101Z</time>
      </trkpt>
      <trkpt lat="48.87184" lon="2.36493">
        <ele>119.4</ele>
        <time>2015-05-05T19:07:06.110Z</time>
      </trkpt>
      <trkpt lat="48.87193" lon="2.36491">
        <ele>119.1</ele>
        <time>2015-05-05T19:07:08.146Z</time>
      </trkpt>
      <trkpt lat="48.87196" lon="2.36491">
        <ele>119</ele>
        <time>2015-05-05T19:07:09.157Z</time>
      </trkpt>
      <trkpt lat="48.87204" lon="2.36488">
        <ele>118.9</ele>
        <time>2015-05-05T19:07:11.137Z</time>
      </trkpt>
      <trkpt lat="48.87207" lon="2.36486">
        <ele>119</ele>
        <time>2015-05-05T19:07:12.166Z</time>
      </trkpt>
      <trkpt lat="48.87213" lon="2.36481">
        <ele>118.8</ele>
        <time>2015-05-05T19:07:14.170Z</time>
      </trkpt>
      <trkpt lat="48.87218" lon="2.36479">
        <ele>118.9</ele>
        <time>2015-05-05T19:07:15.163Z</time>
      </trkpt>
      <trkpt lat="48.87222" lon="2.36476">
        <ele>118.8</ele>
        <time>2015-05-05T19:07:16.103Z</time>
      </trkpt>
      <trkpt lat="48.87226" lon="2.36473">
        <ele>118.9</ele>
        <time>2015-05-05T19:07:17.120Z</time>
      </trkpt>
      <trkpt lat="48.8723" lon="2.36469">
        <ele>119</ele>
        <time>2015-05-05T19:07:18.146Z</time>
      </trkpt>
      <trkpt lat="48.87234" lon="2.36465">
        <ele>119.1</ele>
        <time>2015-05-05T19:07:19.160Z</time>
      </trkpt>
      <trkpt lat="48.87238" lon="2.36461">
        <ele>119.2</ele>
        <time>2015-05-05T19:07:20.460Z</time>
      </trkpt>
      <trkpt lat="48.87242" lon="2.36458">
        <ele>119.5</ele>
        <time>2015-05-05T19:07:21.116Z</time>
      </trkpt>
      <trkpt lat="48.8725" lon="2.36451">
        <ele>119.7</ele>
        <time>2015-05-05T19:07:23.160Z</time>
      </trkpt>
      <trkpt lat="48.87255" lon="2.36447">
        <ele>119.8</ele>
        <time>2015-05-05T19:07:24.182Z</time>
      </trkpt>
      <trkpt lat="48.87259" lon="2.36444">
        <ele>120</ele>
        <time>2015-05-05T19:07:25.512Z</time>
      </trkpt>
      <trkpt lat="48.87263" lon="2.36441">
        <ele>120.2</ele>
        <time>2015-05-05T19:07:26.101Z</time>
      </trkpt>
      <trkpt lat="48.87269" lon="2.36435">
        <ele>120</ele>
        <time>2015-05-05T19:07:28.148Z</time>
      </trkpt>
      <trkpt lat="48.87273" lon="2.36432">
        <ele>120</ele>
        <time>2015-05-05T19:07:29.151Z</time>
      </trkpt>
      <trkpt lat="48.87277" lon="2.3643">
        <ele>120</ele>
        <time>2015-05-05T19:07:30.546Z</time>
      </trkpt>
      <trkpt lat="48.87281" lon="2.36427">
        <ele>120.1</ele>
        <time>2015-05-05T19:07:31.094Z</time>
      </trkpt>
      <trkpt lat="48.87289" lon="2.36422">
        <ele>120.7</ele>
        <time>2015-05-05T19:07:33.066Z</time>
      </trkpt>
      <trkpt lat="48.87293" lon="2.36419">
        <ele>120.7</ele>
        <time>2015-05-05T19:07:34.144Z</time>
      </trkpt>
      <trkpt lat="48.873" lon="2.36411">
        <ele>120.3</ele>
        <time>2015-05-05T19:07:36.203Z</time>
      </trkpt>
      <trkpt lat="48.87304" lon="2.36409">
        <ele>120.4</ele>
        <time>2015-05-05T19:07:37.085Z</time>
      </trkpt>
      <trkpt lat="48.87312" lon="2.36407">
        <ele>120.3</ele>
        <time>2015-05-05T19:07:39.078Z</time>
      </trkpt>
      <trkpt lat="48.87316" lon="2.36405">
        <ele>120.2</ele>
        <time>2015-05-05T19:07:40.098Z</time>
      </trkpt>
      <trkpt lat="48.87321" lon="2.36404">
        <ele>120</ele>
        <time>2015-05-05T19:07:41.104Z</time>
      </trkpt>
      <trkpt lat="48.87325" lon="2.36402">
        <ele>119.7</ele>
        <time>2015-05-05T19:07:42.107Z</time>
      </trkpt>
      <trkpt lat="48.87332" lon="2.36398">
        <ele>119.5</ele>
        <time>2015-05-05T19:07:44.131Z</time>
      </trkpt>
      <trkpt lat="48.87336" lon="2.36396">
        <ele>119.3</ele>
        <time>2015-05-05T19:07:45.140Z</time>
      </trkpt>
      <trkpt lat="48.87343" lon="2.36393">
        <ele>118.9</ele>
        <time>2015-05-05T19:07:47.171Z</time>
      </trkpt>
      <trkpt lat="48.87345" lon="2.36392">
        <ele>118.7</ele>
        <time>2015-05-05T19:07:48.070Z</time>
      </trkpt>
      <trkpt lat="48.8735" lon="2.36389">
        <ele>118.6</ele>
        <time>2015-05-05T19:07:50.103Z</time>
      </trkpt>
      <trkpt lat="48.87354" lon="2.36387">
        <ele>118.6</ele>
        <time>2015-05-05T19:07:51.111Z</time>
      </trkpt>
      <trkpt lat="48.8736" lon="2.36387">
        <ele>118.6</ele>
        <time>2015-05-05T19:07:52.124Z</time>
      </trkpt>
      <trkpt lat="48.87364" lon="2.36384">
        <ele>118.7</ele>
        <time>2015-05-05T19:07:53.132Z</time>
      </trkpt>
      <trkpt lat="48.87368" lon="2.36379">
        <ele>118.5</ele>
        <time>2015-05-05T19:07:54.142Z</time>
      </trkpt>
      <trkpt lat="48.87374" lon="2.36374">
        <ele>118.4</ele>
        <time>2015-05-05T19:07:55.096Z</time>
      </trkpt>
      <trkpt lat="48.87379" lon="2.36371">
        <ele>118.4</ele>
        <time>2015-05-05T19:07:56.090Z</time>
      </trkpt>
      <trkpt lat="48.87385" lon="2.36368">
        <ele>118.3</ele>
        <time>2015-05-05T19:07:57.157Z</time>
      </trkpt>
      <trkpt lat="48.87391" lon="2.36365">
        <ele>117.9</ele>
        <time>2015-05-05T19:07:58.450Z</time>
      </trkpt>
      <trkpt lat="48.87403" lon="2.36362">
        <ele>117.3</ele>
        <time>2015-05-05T19:07:59.118Z</time>
      </trkpt>
      <trkpt lat="48.8741" lon="2.36361">
        <ele>117.1</ele>
        <time>2015-05-05T19:08:00.145Z</time>
      </trkpt>
      <trkpt lat="48.87417" lon="2.36361">
        <ele>117</ele>
        <time>2015-05-05T19:08:01.148Z</time>
      </trkpt>
      <trkpt lat="48.87424" lon="2.36362">
        <ele>116.9</ele>
        <time>2015-05-05T19:08:02.164Z</time>
      </trkpt>
      <trkpt lat="48.8743" lon="2.36363">
        <ele>116.9</ele>
        <time>2015-05-05T19:08:03.081Z</time>
      </trkpt>
      <trkpt lat="48.87435" lon="2.36365">
        <ele>116.8</ele>
        <time>2015-05-05T19:08:04.104Z</time>
      </trkpt>
      <trkpt lat="48.87439" lon="2.36366">
        <ele>116.6</ele>
        <time>2015-05-05T19:08:05.109Z</time>
      </trkpt>
      <trkpt lat="48.87444" lon="2.36368">
        <ele>116.2</ele>
        <time>2015-05-05T19:08:06.137Z</time>
      </trkpt>
      <trkpt lat="48.87448" lon="2.36371">
        <ele>115.9</ele>
        <time>2015-05-05T19:08:07.143Z</time>
      </trkpt>
      <trkpt lat="48.87454" lon="2.36375">
        <ele>114.5</ele>
        <time>2015-05-05T19:08:08.178Z</time>
      </trkpt>
      <trkpt lat="48.87461" lon="2.36382">
        <ele>112.1</ele>
        <time>2015-05-05T19:08:09.093Z</time>
      </trkpt>
      <trkpt lat="48.87467" lon="2.36385">
        <ele>110.9</ele>
        <time>2015-05-05T19:08:10.223Z</time>
      </trkpt>
      <trkpt lat="48.87472" lon="2.36389">
        <ele>109.8</ele>
        <time>2015-05-05T19:08:11.113Z</time>
      </trkpt>
      <trkpt lat="48.87478" lon="2.36393">
        <ele>108.8</ele>
        <time>2015-05-05T19:08:12.118Z</time>
      </trkpt>
      <trkpt lat="48.87482" lon="2.36396">
        <ele>108.5</ele>
        <time>2015-05-05T19:08:13.116Z</time>
      </trkpt>
      <trkpt lat="48.87487" lon="2.364">
        <ele>107.6</ele>
        <time>2015-05-05T19:08:14.123Z</time>
      </trkpt>
      <trkpt lat="48.87491" lon="2.36403">
        <ele>107.4</ele>
        <time>2015-05-05T19:08:15.128Z</time>
      </trkpt>
      <trkpt lat="48.87496" lon="2.36406">
        <ele>106.8</ele>
        <time>2015-05-05T19:08:16.138Z</time>
      </trkpt>
      <trkpt lat="48.87502" lon="2.36409">
        <ele>106.2</ele>
        <time>2015-05-05T19:08:17.305Z</time>
      </trkpt>
      <trkpt lat="48.87507" lon="2.36412">
        <ele>106.1</ele>
        <time>2015-05-05T19:08:18.177Z</time>
      </trkpt>
      <trkpt lat="48.87511" lon="2.36414">
        <ele>105.8</ele>
        <time>2015-05-05T19:08:19.090Z</time>
      </trkpt>
      <trkpt lat="48.87516" lon="2.36417">
        <ele>105.7</ele>
        <time>2015-05-05T19:08:20.096Z</time>
      </trkpt>
      <trkpt lat="48.8752" lon="2.36419">
        <ele>105.5</ele>
        <time>2015-05-05T19:08:21.109Z</time>
      </trkpt>
      <trkpt lat="48.87525" lon="2.36421">
        <ele>105.3</ele>
        <time>2015-05-05T19:08:22.132Z</time>
      </trkpt>
      <trkpt lat="48.87531" lon="2.36424">
        <ele>105</ele>
        <time>2015-05-05T19:08:23.129Z</time>
      </trkpt>
      <trkpt lat="48.87535" lon="2.36427">
        <ele>104.8</ele>
        <time>2015-05-05T19:08:24.134Z</time>
      </trkpt>
      <trkpt lat="48.87541" lon="2.36431">
        <ele>104.5</ele>
        <time>2015-05-05T19:08:25.151Z</time>
      </trkpt>
      <trkpt lat="48.87546" lon="2.36434">
        <ele>104</ele>
        <time>2015-05-05T19:08:26.163Z</time>
      </trkpt>
      <trkpt lat="48.87551" lon="2.36437">
        <ele>103.9</ele>
        <time>2015-05-05T19:08:27.170Z</time>
      </trkpt>
      <trkpt lat="48.87555" lon="2.36441">
        <ele>103.7</ele>
        <time>2015-05-05T19:08:28.165Z</time>
      </trkpt>
      <trkpt lat="48.8756" lon="2.36444">
        <ele>103.8</ele>
        <time>2015-05-05T19:08:29.091Z</time>
      </trkpt>
      <trkpt lat="48.87564" lon="2.36448">
        <ele>103.6</ele>
        <time>2015-05-05T19:08:30.321Z</time>
      </trkpt>
      <trkpt lat="48.87569" lon="2.3645">
        <ele>103.3</ele>
        <time>2015-05-05T19:08:31.100Z</time>
      </trkpt>
      <trkpt lat="48.87573" lon="2.36452">
        <ele>103.1</ele>
        <time>2015-05-05T19:08:32.105Z</time>
      </trkpt>
      <trkpt lat="48.87579" lon="2.36454">
        <ele>103.2</ele>
        <time>2015-05-05T19:08:33.125Z</time>
      </trkpt>
      <trkpt lat="48.87584" lon="2.36456">
        <ele>103.2</ele>
        <time>2015-05-05T19:08:34.149Z</time>
      </trkpt>
      <trkpt lat="48.87589" lon="2.36458">
        <ele>102.4</ele>
        <time>2015-05-05T19:08:35.154Z</time>
      </trkpt>
      <trkpt lat="48.87593" lon="2.36462">
        <ele>102.1</ele>
        <time>2015-05-05T19:08:36.197Z</time>
      </trkpt>
      <trkpt lat="48.87598" lon="2.36466">
        <ele>101.9</ele>
        <time>2015-05-05T19:08:37.103Z</time>
      </trkpt>
      <trkpt lat="48.87603" lon="2.3647">
        <ele>101.8</ele>
        <time>2015-05-05T19:08:38.138Z</time>
      </trkpt>
      <trkpt lat="48.87608" lon="2.36473">
        <ele>101.7</ele>
        <time>2015-05-05T19:08:39.155Z</time>
      </trkpt>
      <trkpt lat="48.87613" lon="2.36477">
        <ele>101.5</ele>
        <time>2015-05-05T19:08:40.163Z</time>
      </trkpt>
      <trkpt lat="48.87617" lon="2.36481">
        <ele>101.5</ele>
        <time>2015-05-05T19:08:41.172Z</time>
      </trkpt>
      <trkpt lat="48.87622" lon="2.36486">
        <ele>101.4</ele>
        <time>2015-05-05T19:08:42.182Z</time>
      </trkpt>
      <trkpt lat="48.87627" lon="2.36491">
        <ele>101.3</ele>
        <time>2015-05-05T19:08:43.101Z</time>
      </trkpt>
      <trkpt lat="48.87634" lon="2.36494">
        <ele>100.3</ele>
        <time>2015-05-05T19:08:44.113Z</time>
      </trkpt>
      <trkpt lat="48.87639" lon="2.36499">
        <ele>99.7</ele>
        <time>2015-05-05T19:08:45.118Z</time>
      </trkpt>
      <trkpt lat="48.87645" lon="2.36503">
        <ele>99.4</ele>
        <time>2015-05-05T19:08:46.146Z</time>
      </trkpt>
      <trkpt lat="48.87651" lon="2.36508">
        <ele>99.1</ele>
        <time>2015-05-05T19:08:47.152Z</time>
      </trkpt>
      <trkpt lat="48.87657" lon="2.36512">
        <ele>98.8</ele>
        <time>2015-05-05T19:08:48.160Z</time>
      </trkpt>
      <trkpt lat="48.87663" lon="2.36517">
        <ele>98.3</ele>
        <time>2015-05-05T19:08:49.168Z</time>
      </trkpt>
      <trkpt lat="48.87669" lon="2.36522">
        <ele>98.1</ele>
        <time>2015-05-05T19:08:50.179Z</time>
      </trkpt>
      <trkpt lat="48.87676" lon="2.36528">
        <ele>97.8</ele>
        <time>2015-05-05T19:08:51.187Z</time>
      </trkpt>
      <trkpt lat="48.87682" lon="2.36533">
        <ele>97.9</ele>
        <time>2015-05-05T19:08:52.200Z</time>
      </trkpt>
      <trkpt lat="48.87689" lon="2.36538">
        <ele>97.9</ele>
        <time>2015-05-05T19:08:53.115Z</time>
      </trkpt>
      <trkpt lat="48.87695" lon="2.36542">
        <ele>97.9</ele>
        <time>2015-05-05T19:08:54.112Z</time>
      </trkpt>
      <trkpt lat="48.877" lon="2.36547">
        <ele>98</ele>
        <time>2015-05-05T19:08:55.111Z</time>
      </trkpt>
      <trkpt lat="48.87706" lon="2.36552">
        <ele>98.3</ele>
        <time>2015-05-05T19:08:56.123Z</time>
      </trkpt>
      <trkpt lat="48.87711" lon="2.36557">
        <ele>98</ele>
        <time>2015-05-05T19:08:57.134Z</time>
      </trkpt>
      <trkpt lat="48.87718" lon="2.36561">
        <ele>98.1</ele>
        <time>2015-05-05T19:08:58.167Z</time>
      </trkpt>
      <trkpt lat="48.87723" lon="2.36566">
        <ele>98.4</ele>
        <time>2015-05-05T19:08:59.187Z</time>
      </trkpt>
      <trkpt lat="48.87728" lon="2.3657">
        <ele>98.5</ele>
        <time>2015-05-05T19:09:00.086Z</time>
      </trkpt>
      <trkpt lat="48.87732" lon="2.36574">
        <ele>98.7</ele>
        <time>2015-05-05T19:09:01.084Z</time>
      </trkpt>
      <trkpt lat="48.87738" lon="2.36581">
        <ele>99.1</ele>
        <time>2015-05-05T19:09:03.112Z</time>
      </trkpt>
      <trkpt lat="48.8774" lon="2.36585">
        <ele>99.3</ele>
        <time>2015-05-05T19:09:04.177Z</time>
      </trkpt>
      <trkpt lat="48.87742" lon="2.36592">
        <ele>100.3</ele>
        <time>2015-05-05T19:09:07.107Z</time>
      </trkpt>
      <trkpt lat="48.87741" lon="2.36592">
        <ele>100.1</ele>
        <time>2015-05-05T19:09:08.113Z</time>
      </trkpt>
      <trkpt lat="48.87741" lon="2.36592">
        <ele>99.8</ele>
        <time>2015-05-05T19:09:09.148Z</time>
      </trkpt>
      <trkpt lat="48.87741" lon="2.36592">
        <ele>100</ele>
        <time>2015-05-05T19:09:10.154Z</time>
      </trkpt>
      <trkpt lat="48.87741" lon="2.36589">
        <ele>99.9</ele>
        <time>2015-05-05T19:09:14.125Z</time>
      </trkpt>
      <trkpt lat="48.8774" lon="2.36588">
        <ele>99.9</ele>
        <time>2015-05-05T19:09:15.138Z</time>
      </trkpt>
      <trkpt lat="48.8774" lon="2.36589">
        <ele>99.8</ele>
        <time>2015-05-05T19:09:53.151Z</time>
      </trkpt>
      <trkpt lat="48.87737" lon="2.36581">
        <ele>101.3</ele>
        <time>2015-05-05T19:09:54.165Z</time>
      </trkpt>
      <trkpt lat="48.87731" lon="2.36581">
        <ele>103.3</ele>
        <time>2015-05-05T19:10:11.157Z</time>
      </trkpt>
      <trkpt lat="48.87731" lon="2.36581">
        <ele>103.3</ele>
        <time>2015-05-05T19:10:12.162Z</time>
      </trkpt>
      <trkpt lat="48.87731" lon="2.36582">
        <ele>103.4</ele>
        <time>2015-05-05T19:10:35.126Z</time>
      </trkpt>
      <trkpt lat="48.87726" lon="2.36583">
        <ele>104</ele>
        <time>2015-05-05T19:10:36.190Z</time>
      </trkpt>
      <trkpt lat="48.87725" lon="2.36583">
        <ele>104</ele>
        <time>2015-05-05T19:10:37.102Z</time>
      </trkpt>
      <trkpt lat="48.87725" lon="2.36583">
        <ele>104</ele>
        <time>2015-05-05T19:10:38.150Z</time>
      </trkpt>
      <trkpt lat="48.87725" lon="2.36584">
        <ele>104</ele>
        <time>2015-05-05T19:10:39.157Z</time>
      </trkpt>
      <trkpt lat="48.87725" lon="2.36584">
        <ele>104.2</ele>
        <time>2015-05-05T19:10:40.153Z</time>
      </trkpt>
      <trkpt lat="48.87725" lon="2.36584">
        <ele>104.4</ele>
        <time>2015-05-05T19:10:41.102Z</time>
      </trkpt>
      <trkpt lat="48.87724" lon="2.36585">
        <ele>104.5</ele>
        <time>2015-05-05T19:10:42.068Z</time>
      </trkpt>
      <trkpt lat="48.87724" lon="2.36585">
        <ele>104.5</ele>
        <time>2015-05-05T19:10:43.122Z</time>
      </trkpt>
      <trkpt lat="48.87724" lon="2.36586">
        <ele>104.7</ele>
        <time>2015-05-05T19:10:44.104Z</time>
      </trkpt>
      <trkpt lat="48.87723" lon="2.36586">
        <ele>104.8</ele>
        <time>2015-05-05T19:10:49.075Z</time>
      </trkpt>
      <trkpt lat="48.87723" lon="2.36586">
        <ele>105.3</ele>
        <time>2015-05-05T19:10:50.130Z</time>
      </trkpt>
      <trkpt lat="48.87722" lon="2.36584">
        <ele>105.5</ele>
        <time>2015-05-05T19:10:52.135Z</time>
      </trkpt>
      <trkpt lat="48.87722" lon="2.36584">
        <ele>105.6</ele>
        <time>2015-05-05T19:10:53.147Z</time>
      </trkpt>
      <trkpt lat="48.87722" lon="2.36584">
        <ele>105.8</ele>
        <time>2015-05-05T19:10:57.194Z</time>
      </trkpt>
      <trkpt lat="48.87723" lon="2.36585">
        <ele>106.1</ele>
        <time>2015-05-05T19:10:58.170Z</time>
      </trkpt>
      <trkpt lat="48.87732" lon="2.36589">
        <ele>106.1</ele>
        <time>2015-05-05T19:11:02.132Z</time>
      </trkpt>
      <trkpt lat="48.87735" lon="2.3659">
        <ele>106.4</ele>
        <time>2015-05-05T19:11:03.191Z</time>
      </trkpt>
      <trkpt lat="48.87741" lon="2.36595">
        <ele>106.7</ele>
        <time>2015-05-05T19:11:05.057Z</time>
      </trkpt>
      <trkpt lat="48.87744" lon="2.36598">
        <ele>106.7</ele>
        <time>2015-05-05T19:11:06.161Z</time>
      </trkpt>
      <trkpt lat="48.87752" lon="2.36603">
        <ele>105.9</ele>
        <time>2015-05-05T19:11:08.151Z</time>
      </trkpt>
      <trkpt lat="48.87756" lon="2.36606">
        <ele>105.4</ele>
        <time>2015-05-05T19:11:09.131Z</time>
      </trkpt>
      <trkpt lat="48.87761" lon="2.36609">
        <ele>104.8</ele>
        <time>2015-05-05T19:11:10.152Z</time>
      </trkpt>
      <trkpt lat="48.87766" lon="2.36613">
        <ele>104.5</ele>
        <time>2015-05-05T19:11:11.161Z</time>
      </trkpt>
      <trkpt lat="48.87771" lon="2.36616">
        <ele>104.2</ele>
        <time>2015-05-05T19:11:12.150Z</time>
      </trkpt>
      <trkpt lat="48.87776" lon="2.36619">
        <ele>104.2</ele>
        <time>2015-05-05T19:11:13.186Z</time>
      </trkpt>
      <trkpt lat="48.87779" lon="2.36622">
        <ele>104.1</ele>
        <time>2015-05-05T19:11:14.155Z</time>
      </trkpt>
      <trkpt lat="48.87784" lon="2.36625">
        <ele>103.9</ele>
        <time>2015-05-05T19:11:15.163Z</time>
      </trkpt>
      <trkpt lat="48.87791" lon="2.36631">
        <ele>103.7</ele>
        <time>2015-05-05T19:11:17.119Z</time>
      </trkpt>
      <trkpt lat="48.87795" lon="2.36634">
        <ele>103.7</ele>
        <time>2015-05-05T19:11:18.113Z</time>
      </trkpt>
      <trkpt lat="48.87799" lon="2.36638">
        <ele>103.5</ele>
        <time>2015-05-05T19:11:19.120Z</time>
      </trkpt>
      <trkpt lat="48.87804" lon="2.36641">
        <ele>103.5</ele>
        <time>2015-05-05T19:11:20.152Z</time>
      </trkpt>
      <trkpt lat="48.87809" lon="2.36644">
        <ele>103.4</ele>
        <time>2015-05-05T19:11:21.103Z</time>
      </trkpt>
      <trkpt lat="48.87814" lon="2.36648">
        <ele>103.3</ele>
        <time>2015-05-05T19:11:22.148Z</time>
      </trkpt>
      <trkpt lat="48.8782" lon="2.36651">
        <ele>103.3</ele>
        <time>2015-05-05T19:11:23.150Z</time>
      </trkpt>
      <trkpt lat="48.87829" lon="2.36657">
        <ele>101.8</ele>
        <time>2015-05-05T19:11:24.155Z</time>
      </trkpt>
      <trkpt lat="48.87837" lon="2.36661">
        <ele>101.3</ele>
        <time>2015-05-05T19:11:25.185Z</time>
      </trkpt>
      <trkpt lat="48.87843" lon="2.36665">
        <ele>100.9</ele>
        <time>2015-05-05T19:11:26.131Z</time>
      </trkpt>
      <trkpt lat="48.87848" lon="2.36669">
        <ele>100.6</ele>
        <time>2015-05-05T19:11:27.111Z</time>
      </trkpt>
      <trkpt lat="48.87853" lon="2.36674">
        <ele>100.4</ele>
        <time>2015-05-05T19:11:28.132Z</time>
      </trkpt>
      <trkpt lat="48.87858" lon="2.3668">
        <ele>100.1</ele>
        <time>2015-05-05T19:11:29.169Z</time>
      </trkpt>
      <trkpt lat="48.87864" lon="2.36685">
        <ele>99.7</ele>
        <time>2015-05-05T19:11:30.164Z</time>
      </trkpt>
      <trkpt lat="48.87869" lon="2.3669">
        <ele>99.2</ele>
        <time>2015-05-05T19:11:31.103Z</time>
      </trkpt>
      <trkpt lat="48.87874" lon="2.36694">
        <ele>99</ele>
        <time>2015-05-05T19:11:32.111Z</time>
      </trkpt>
      <trkpt lat="48.87879" lon="2.36699">
        <ele>98.8</ele>
        <time>2015-05-05T19:11:33.127Z</time>
      </trkpt>
      <trkpt lat="48.87884" lon="2.36703">
        <ele>98.5</ele>
        <time>2015-05-05T19:11:34.197Z</time>
      </trkpt>
      <trkpt lat="48.87889" lon="2.36708">
        <ele>98.6</ele>
        <time>2015-05-05T19:11:35.176Z</time>
      </trkpt>
      <trkpt lat="48.87894" lon="2.36712">
        <ele>98.2</ele>
        <time>2015-05-05T19:11:36.116Z</time>
      </trkpt>
      <trkpt lat="48.87898" lon="2.36716">
        <ele>98.1</ele>
        <time>2015-05-05T19:11:37.090Z</time>
      </trkpt>
      <trkpt lat="48.87903" lon="2.36719">
        <ele>97.7</ele>
        <time>2015-05-05T19:11:38.108Z</time>
      </trkpt>
      <trkpt lat="48.87907" lon="2.36723">
        <ele>97.7</ele>
        <time>2015-05-05T19:11:39.147Z</time>
      </trkpt>
      <trkpt lat="48.87911" lon="2.36726">
        <ele>97.7</ele>
        <time>2015-05-05T19:11:40.171Z</time>
      </trkpt>
      <trkpt lat="48.87916" lon="2.3673">
        <ele>97.6</ele>
        <time>2015-05-05T19:11:41.186Z</time>
      </trkpt>
      <trkpt lat="48.87921" lon="2.36734">
        <ele>97.7</ele>
        <time>2015-05-05T19:11:42.094Z</time>
      </trkpt>
      <trkpt lat="48.87926" lon="2.36737">
        <ele>97.6</ele>
        <time>2015-05-05T19:11:43.123Z</time>
      </trkpt>
      <trkpt lat="48.8793" lon="2.3674">
        <ele>97.9</ele>
        <time>2015-05-05T19:11:44.124Z</time>
      </trkpt>
      <trkpt lat="48.87935" lon="2.36744">
        <ele>98.3</ele>
        <time>2015-05-05T19:11:45.137Z</time>
      </trkpt>
      <trkpt lat="48.87939" lon="2.36747">
        <ele>98.6</ele>
        <time>2015-05-05T19:11:46.150Z</time>
      </trkpt>
      <trkpt lat="48.87945" lon="2.36749">
        <ele>98.8</ele>
        <time>2015-05-05T19:11:47.191Z</time>
      </trkpt>
      <trkpt lat="48.87949" lon="2.36751">
        <ele>99.1</ele>
        <time>2015-05-05T19:11:48.094Z</time>
      </trkpt>
      <trkpt lat="48.87955" lon="2.3676">
        <ele>99.8</ele>
        <time>2015-05-05T19:11:50.160Z</time>
      </trkpt>
      <trkpt lat="48.87957" lon="2.36765">
        <ele>100.2</ele>
        <time>2015-05-05T19:11:51.178Z</time>
      </trkpt>
      <trkpt lat="48.87958" lon="2.36778">
        <ele>101.3</ele>
        <time>2015-05-05T19:11:54.104Z</time>
      </trkpt>
      <trkpt lat="48.87959" lon="2.36782">
        <ele>101.4</ele>
        <time>2015-05-05T19:11:55.111Z</time>
      </trkpt>
      <trkpt lat="48.87961" lon="2.36792">
        <ele>101.3</ele>
        <time>2015-05-05T19:11:57.147Z</time>
      </trkpt>
      <trkpt lat="48.87963" lon="2.36797">
        <ele>101.2</ele>
        <time>2015-05-05T19:11:58.176Z</time>
      </trkpt>
      <trkpt lat="48.87969" lon="2.36807">
        <ele>101.4</ele>
        <time>2015-05-05T19:12:00.173Z</time>
      </trkpt>
      <trkpt lat="48.87972" lon="2.3681">
        <ele>101.6</ele>
        <time>2015-05-05T19:12:01.088Z</time>
      </trkpt>
      <trkpt lat="48.87976" lon="2.36814">
        <ele>101.5</ele>
        <time>2015-05-05T19:12:02.092Z</time>
      </trkpt>
      <trkpt lat="48.87981" lon="2.36817">
        <ele>101.7</ele>
        <time>2015-05-05T19:12:03.122Z</time>
      </trkpt>
      <trkpt lat="48.87985" lon="2.36821">
        <ele>101.8</ele>
        <time>2015-05-05T19:12:04.160Z</time>
      </trkpt>
      <trkpt lat="48.8799" lon="2.36826">
        <ele>102</ele>
        <time>2015-05-05T19:12:05.088Z</time>
      </trkpt>
      <trkpt lat="48.87994" lon="2.3683">
        <ele>102.1</ele>
        <time>2015-05-05T19:12:06.083Z</time>
      </trkpt>
      <trkpt lat="48.87998" lon="2.36835">
        <ele>102.2</ele>
        <time>2015-05-05T19:12:07.099Z</time>
      </trkpt>
      <trkpt lat="48.88002" lon="2.36839">
        <ele>102.2</ele>
        <time>2015-05-05T19:12:08.115Z</time>
      </trkpt>
      <trkpt lat="48.88006" lon="2.36843">
        <ele>102.2</ele>
        <time>2015-05-05T19:12:09.137Z</time>
      </trkpt>
      <trkpt lat="48.88009" lon="2.36848">
        <ele>102.2</ele>
        <time>2015-05-05T19:12:10.155Z</time>
      </trkpt>
      <trkpt lat="48.88013" lon="2.36853">
        <ele>102.4</ele>
        <time>2015-05-05T19:12:11.163Z</time>
      </trkpt>
      <trkpt lat="48.88017" lon="2.36858">
        <ele>102.6</ele>
        <time>2015-05-05T19:12:12.179Z</time>
      </trkpt>
      <trkpt lat="48.88022" lon="2.36863">
        <ele>102.6</ele>
        <time>2015-05-05T19:12:13.091Z</time>
      </trkpt>
      <trkpt lat="48.88027" lon="2.36867">
        <ele>102.6</ele>
        <time>2015-05-05T19:12:14.069Z</time>
      </trkpt>
      <trkpt lat="48.88032" lon="2.36871">
        <ele>102.8</ele>
        <time>2015-05-05T19:12:15.107Z</time>
      </trkpt>
      <trkpt lat="48.88037" lon="2.36875">
        <ele>102.7</ele>
        <time>2015-05-05T19:12:16.142Z</time>
      </trkpt>
      <trkpt lat="48.88042" lon="2.36879">
        <ele>102.7</ele>
        <time>2015-05-05T19:12:17.148Z</time>
      </trkpt>
      <trkpt lat="48.88047" lon="2.36883">
        <ele>102.6</ele>
        <time>2015-05-05T19:12:18.157Z</time>
      </trkpt>
      <trkpt lat="48.88052" lon="2.36887">
        <ele>102.6</ele>
        <time>2015-05-05T19:12:19.162Z</time>
      </trkpt>
      <trkpt lat="48.88056" lon="2.36892">
        <ele>102.8</ele>
        <time>2015-05-05T19:12:20.155Z</time>
      </trkpt>
      <trkpt lat="48.88061" lon="2.36896">
        <ele>102.9</ele>
        <time>2015-05-05T19:12:21.161Z</time>
      </trkpt>
      <trkpt lat="48.88065" lon="2.369">
        <ele>102.8</ele>
        <time>2015-05-05T19:12:22.202Z</time>
      </trkpt>
      <trkpt lat="48.8807" lon="2.36904">
        <ele>102.9</ele>
        <time>2015-05-05T19:12:23.105Z</time>
      </trkpt>
      <trkpt lat="48.88074" lon="2.36908">
        <ele>103</ele>
        <time>2015-05-05T19:12:24.113Z</time>
      </trkpt>
      <trkpt lat="48.88078" lon="2.36912">
        <ele>103</ele>
        <time>2015-05-05T19:12:25.117Z</time>
      </trkpt>
      <trkpt lat="48.88082" lon="2.36916">
        <ele>103.1</ele>
        <time>2015-05-05T19:12:26.125Z</time>
      </trkpt>
      <trkpt lat="48.88085" lon="2.36922">
        <ele>103.3</ele>
        <time>2015-05-05T19:12:27.137Z</time>
      </trkpt>
      <trkpt lat="48.88089" lon="2.36926">
        <ele>103.2</ele>
        <time>2015-05-05T19:12:28.174Z</time>
      </trkpt>
      <trkpt lat="48.88092" lon="2.36931">
        <ele>103</ele>
        <time>2015-05-05T19:12:29.183Z</time>
      </trkpt>
      <trkpt lat="48.881" lon="2.36937">
        <ele>103.2</ele>
        <time>2015-05-05T19:12:31.113Z</time>
      </trkpt>
      <trkpt lat="48.88104" lon="2.3694">
        <ele>103.4</ele>
        <time>2015-05-05T19:12:32.149Z</time>
      </trkpt>
      <trkpt lat="48.88109" lon="2.36943">
        <ele>103.2</ele>
        <time>2015-05-05T19:12:33.186Z</time>
      </trkpt>
      <trkpt lat="48.88113" lon="2.36947">
        <ele>103.2</ele>
        <time>2015-05-05T19:12:34.197Z</time>
      </trkpt>
      <trkpt lat="48.88117" lon="2.36951">
        <ele>103.3</ele>
        <time>2015-05-05T19:12:35.096Z</time>
      </trkpt>
      <trkpt lat="48.88121" lon="2.36954">
        <ele>103.4</ele>
        <time>2015-05-05T19:12:36.097Z</time>
      </trkpt>
      <trkpt lat="48.88128" lon="2.3696">
        <ele>104.2</ele>
        <time>2015-05-05T19:12:38.159Z</time>
      </trkpt>
      <trkpt lat="48.88131" lon="2.36964">
        <ele>104.5</ele>
        <time>2015-05-05T19:12:39.181Z</time>
      </trkpt>
      <trkpt lat="48.88134" lon="2.36971">
        <ele>104.5</ele>
        <time>2015-05-05T19:12:40.168Z</time>
      </trkpt>
      <trkpt lat="48.88137" lon="2.36976">
        <ele>104.4</ele>
        <time>2015-05-05T19:12:41.078Z</time>
      </trkpt>
      <trkpt lat="48.8814" lon="2.36981">
        <ele>104.4</ele>
        <time>2015-05-05T19:12:42.122Z</time>
      </trkpt>
      <trkpt lat="48.88143" lon="2.36989">
        <ele>105.4</ele>
        <time>2015-05-05T19:12:43.150Z</time>
      </trkpt>
      <trkpt lat="48.88146" lon="2.36998">
        <ele>107.6</ele>
        <time>2015-05-05T19:12:44.155Z</time>
      </trkpt>
      <trkpt lat="48.88147" lon="2.37002">
        <ele>108</ele>
        <time>2015-05-05T19:12:45.159Z</time>
      </trkpt>
      <trkpt lat="48.88153" lon="2.37009">
        <ele>108.8</ele>
        <time>2015-05-05T19:12:47.089Z</time>
      </trkpt>
      <trkpt lat="48.88156" lon="2.37015">
        <ele>108.8</ele>
        <time>2015-05-05T19:12:48.115Z</time>
      </trkpt>
      <trkpt lat="48.88162" lon="2.37024">
        <ele>109.5</ele>
        <time>2015-05-05T19:12:50.094Z</time>
      </trkpt>
      <trkpt lat="48.88166" lon="2.37025">
        <ele>109.5</ele>
        <time>2015-05-05T19:12:51.116Z</time>
      </trkpt>
      <trkpt lat="48.88174" lon="2.37026">
        <ele>110</ele>
        <time>2015-05-05T19:12:53.167Z</time>
      </trkpt>
      <trkpt lat="48.88178" lon="2.37027">
        <ele>110.1</ele>
        <time>2015-05-05T19:12:54.183Z</time>
      </trkpt>
      <trkpt lat="48.88187" lon="2.37028">
        <ele>110.5</ele>
        <time>2015-05-05T19:12:56.128Z</time>
      </trkpt>
      <trkpt lat="48.8819" lon="2.37027">
        <ele>110.6</ele>
        <time>2015-05-05T19:12:57.145Z</time>
      </trkpt>
      <trkpt lat="48.88198" lon="2.37026">
        <ele>110.7</ele>
        <time>2015-05-05T19:12:59.090Z</time>
      </trkpt>
      <trkpt lat="48.88202" lon="2.37024">
        <ele>110.8</ele>
        <time>2015-05-05T19:13:00.208Z</time>
      </trkpt>
      <trkpt lat="48.88209" lon="2.37021">
        <ele>111.1</ele>
        <time>2015-05-05T19:13:02.117Z</time>
      </trkpt>
      <trkpt lat="48.88211" lon="2.37019">
        <ele>111.2</ele>
        <time>2015-05-05T19:13:03.198Z</time>
      </trkpt>
      <trkpt lat="48.88216" lon="2.3702">
        <ele>111.3</ele>
        <time>2015-05-05T19:13:04.216Z</time>
      </trkpt>
      <trkpt lat="48.88221" lon="2.37021">
        <ele>111.2</ele>
        <time>2015-05-05T19:13:05.078Z</time>
      </trkpt>
      <trkpt lat="48.88228" lon="2.37023">
        <ele>111.3</ele>
        <time>2015-05-05T19:13:07.088Z</time>
      </trkpt>
      <trkpt lat="48.88234" lon="2.37025">
        <ele>111.4</ele>
        <time>2015-05-05T19:13:08.113Z</time>
      </trkpt>
      <trkpt lat="48.88241" lon="2.37026">
        <ele>111.7</ele>
        <time>2015-05-05T19:13:10.141Z</time>
      </trkpt>
      <trkpt lat="48.88244" lon="2.37026">
        <ele>112</ele>
        <time>2015-05-05T19:13:11.099Z</time>
      </trkpt>
      <trkpt lat="48.88253" lon="2.37024">
        <ele>112.7</ele>
        <time>2015-05-05T19:13:14.124Z</time>
      </trkpt>
      <trkpt lat="48.88256" lon="2.37022">
        <ele>113</ele>
        <time>2015-05-05T19:13:15.140Z</time>
      </trkpt>
      <trkpt lat="48.88262" lon="2.3702">
        <ele>113.6</ele>
        <time>2015-05-05T19:13:17.089Z</time>
      </trkpt>
      <trkpt lat="48.88266" lon="2.37019">
        <ele>113.7</ele>
        <time>2015-05-05T19:13:18.114Z</time>
      </trkpt>
      <trkpt lat="48.88273" lon="2.37016">
        <ele>114.1</ele>
        <time>2015-05-05T19:13:20.162Z</time>
      </trkpt>
      <trkpt lat="48.88276" lon="2.37015">
        <ele>114.2</ele>
        <time>2015-05-05T19:13:21.243Z</time>
      </trkpt>
      <trkpt lat="48.88283" lon="2.37011">
        <ele>114.1</ele>
        <time>2015-05-05T19:13:23.183Z</time>
      </trkpt>
      <trkpt lat="48.88286" lon="2.37009">
        <ele>114.3</ele>
        <time>2015-05-05T19:13:24.201Z</time>
      </trkpt>
      <trkpt lat="48.88293" lon="2.37006">
        <ele>114.3</ele>
        <time>2015-05-05T19:13:26.191Z</time>
      </trkpt>
      <trkpt lat="48.88297" lon="2.37003">
        <ele>114.4</ele>
        <time>2015-05-05T19:13:27.147Z</time>
      </trkpt>
      <trkpt lat="48.88301" lon="2.36998">
        <ele>114.6</ele>
        <time>2015-05-05T19:13:28.169Z</time>
      </trkpt>
      <trkpt lat="48.88305" lon="2.36993">
        <ele>115.1</ele>
        <time>2015-05-05T19:13:29.176Z</time>
      </trkpt>
      <trkpt lat="48.88311" lon="2.36986">
        <ele>115.4</ele>
        <time>2015-05-05T19:13:31.097Z</time>
      </trkpt>
      <trkpt lat="48.88315" lon="2.36984">
        <ele>115.5</ele>
        <time>2015-05-05T19:13:32.106Z</time>
      </trkpt>
      <trkpt lat="48.88323" lon="2.36979">
        <ele>115.5</ele>
        <time>2015-05-05T19:13:34.192Z</time>
      </trkpt>
      <trkpt lat="48.88326" lon="2.36977">
        <ele>115.6</ele>
        <time>2015-05-05T19:13:35.097Z</time>
      </trkpt>
      <trkpt lat="48.88332" lon="2.36973">
        <ele>115.9</ele>
        <time>2015-05-05T19:13:37.134Z</time>
      </trkpt>
      <trkpt lat="48.88335" lon="2.36971">
        <ele>116</ele>
        <time>2015-05-05T19:13:38.155Z</time>
      </trkpt>
      <trkpt lat="48.88341" lon="2.36962">
        <ele>116.5</ele>
        <time>2015-05-05T19:13:41.091Z</time>
      </trkpt>
      <trkpt lat="48.88343" lon="2.36958">
        <ele>116.6</ele>
        <time>2015-05-05T19:13:42.099Z</time>
      </trkpt>
      <trkpt lat="48.88342" lon="2.36949">
        <ele>116.8</ele>
        <time>2015-05-05T19:13:44.102Z</time>
      </trkpt>
      <trkpt lat="48.88341" lon="2.36943">
        <ele>117</ele>
        <time>2015-05-05T19:13:45.102Z</time>
      </trkpt>
      <trkpt lat="48.8834" lon="2.3694">
        <ele>116.9</ele>
        <time>2015-05-05T19:13:46.146Z</time>
      </trkpt>
      <trkpt lat="48.88339" lon="2.36936">
        <ele>116.4</ele>
        <time>2015-05-05T19:13:47.145Z</time>
      </trkpt>
      <trkpt lat="48.88339" lon="2.36934">
        <ele>116</ele>
        <time>2015-05-05T19:13:48.170Z</time>
      </trkpt>
      <trkpt lat="48.88344" lon="2.36931">
        <ele>115.5</ele>
        <time>2015-05-05T19:13:50.101Z</time>
      </trkpt>
      <trkpt lat="48.88347" lon="2.36929">
        <ele>115.4</ele>
        <time>2015-05-05T19:13:51.086Z</time>
      </trkpt>
      <trkpt lat="48.88351" lon="2.36927">
        <ele>115.2</ele>
        <time>2015-05-05T19:13:52.163Z</time>
      </trkpt>
      <trkpt lat="48.88359" lon="2.36927">
        <ele>114.4</ele>
        <time>2015-05-05T19:13:53.119Z</time>
      </trkpt>
      <trkpt lat="48.88359" lon="2.36927">
        <ele>114.4</ele>
        <time>2015-05-05T19:13:53.424Z</time>
      </trkpt>
      <trkpt lat="48.88371" lon="2.36928">
        <ele>113.3</ele>
        <time>2015-05-05T19:13:54.148Z</time>
      </trkpt>
      <trkpt lat="48.88381" lon="2.36929">
        <ele>112.4</ele>
        <time>2015-05-05T19:13:55.172Z</time>
      </trkpt>
      <trkpt lat="48.8839" lon="2.3693">
        <ele>112</ele>
        <time>2015-05-05T19:13:56.073Z</time>
      </trkpt>
      <trkpt lat="48.88399" lon="2.36931">
        <ele>111.6</ele>
        <time>2015-05-05T19:13:57.145Z</time>
      </trkpt>
      <trkpt lat="48.88408" lon="2.36933">
        <ele>111.3</ele>
        <time>2015-05-05T19:13:58.471Z</time>
      </trkpt>
      <trkpt lat="48.88417" lon="2.36935">
        <ele>111.5</ele>
        <time>2015-05-05T19:13:59.157Z</time>
      </trkpt>
      <trkpt lat="48.88424" lon="2.36939">
        <ele>111.3</ele>
        <time>2015-05-05T19:14:00.169Z</time>
      </trkpt>
      <trkpt lat="48.88432" lon="2.36943">
        <ele>111.2</ele>
        <time>2015-05-05T19:14:01.110Z</time>
      </trkpt>
      <trkpt lat="48.88442" lon="2.36947">
        <ele>111.8</ele>
        <time>2015-05-05T19:14:02.103Z</time>
      </trkpt>
      <trkpt lat="48.88449" lon="2.36952">
        <ele>112.4</ele>
        <time>2015-05-05T19:14:03.110Z</time>
      </trkpt>
      <trkpt lat="48.88457" lon="2.36956">
        <ele>113.1</ele>
        <time>2015-05-05T19:14:04.183Z</time>
      </trkpt>
      <trkpt lat="48.88464" lon="2.36961">
        <ele>113.3</ele>
        <time>2015-05-05T19:14:05.175Z</time>
      </trkpt>
      <trkpt lat="48.8847" lon="2.36966">
        <ele>113.8</ele>
        <time>2015-05-05T19:14:06.185Z</time>
      </trkpt>
      <trkpt lat="48.88475" lon="2.36973">
        <ele>114</ele>
        <time>2015-05-05T19:14:07.082Z</time>
      </trkpt>
      <trkpt lat="48.8848" lon="2.36979">
        <ele>114.3</ele>
        <time>2015-05-05T19:14:08.168Z</time>
      </trkpt>
      <trkpt lat="48.88484" lon="2.36985">
        <ele>114.4</ele>
        <time>2015-05-05T19:14:09.200Z</time>
      </trkpt>
      <trkpt lat="48.88489" lon="2.36991">
        <ele>114.5</ele>
        <time>2015-05-05T19:14:10.147Z</time>
      </trkpt>
      <trkpt lat="48.88494" lon="2.36998">
        <ele>114.7</ele>
        <time>2015-05-05T19:14:11.156Z</time>
      </trkpt>
      <trkpt lat="48.88499" lon="2.37004">
        <ele>114.8</ele>
        <time>2015-05-05T19:14:12.167Z</time>
      </trkpt>
      <trkpt lat="48.88505" lon="2.3701">
        <ele>115</ele>
        <time>2015-05-05T19:14:13.191Z</time>
      </trkpt>
      <trkpt lat="48.88509" lon="2.37016">
        <ele>114.5</ele>
        <time>2015-05-05T19:14:14.100Z</time>
      </trkpt>
      <trkpt lat="48.88514" lon="2.37022">
        <ele>114.2</ele>
        <time>2015-05-05T19:14:15.146Z</time>
      </trkpt>
      <trkpt lat="48.88519" lon="2.37028">
        <ele>114</ele>
        <time>2015-05-05T19:14:16.162Z</time>
      </trkpt>
      <trkpt lat="48.88523" lon="2.37033">
        <ele>113.7</ele>
        <time>2015-05-05T19:14:17.171Z</time>
      </trkpt>
      <trkpt lat="48.88528" lon="2.37039">
        <ele>113.6</ele>
        <time>2015-05-05T19:14:18.134Z</time>
      </trkpt>
      <trkpt lat="48.88533" lon="2.37045">
        <ele>113.6</ele>
        <time>2015-05-05T19:14:19.117Z</time>
      </trkpt>
      <trkpt lat="48.88538" lon="2.37051">
        <ele>113.8</ele>
        <time>2015-05-05T19:14:20.129Z</time>
      </trkpt>
      <trkpt lat="48.88543" lon="2.37057">
        <ele>113.9</ele>
        <time>2015-05-05T19:14:21.135Z</time>
      </trkpt>
      <trkpt lat="48.88548" lon="2.37062">
        <ele>114</ele>
        <time>2015-05-05T19:14:22.142Z</time>
      </trkpt>
      <trkpt lat="48.88553" lon="2.37068">
        <ele>113.9</ele>
        <time>2015-05-05T19:14:23.160Z</time>
      </trkpt>
      <trkpt lat="48.88557" lon="2.37074">
        <ele>113.8</ele>
        <time>2015-05-05T19:14:24.165Z</time>
      </trkpt>
      <trkpt lat="48.88562" lon="2.37079">
        <ele>113.8</ele>
        <time>2015-05-05T19:14:25.095Z</time>
      </trkpt>
      <trkpt lat="48.88567" lon="2.37085">
        <ele>113.7</ele>
        <time>2015-05-05T19:14:26.100Z</time>
      </trkpt>
      <trkpt lat="48.88572" lon="2.37091">
        <ele>113.7</ele>
        <time>2015-05-05T19:14:27.110Z</time>
      </trkpt>
      <trkpt lat="48.88577" lon="2.37096">
        <ele>113.6</ele>
        <time>2015-05-05T19:14:28.147Z</time>
      </trkpt>
      <trkpt lat="48.88582" lon="2.37102">
        <ele>113.6</ele>
        <time>2015-05-05T19:14:29.154Z</time>
      </trkpt>
      <trkpt lat="48.88586" lon="2.37108">
        <ele>113.6</ele>
        <time>2015-05-05T19:14:30.160Z</time>
      </trkpt>
      <trkpt lat="48.88591" lon="2.37114">
        <ele>113.7</ele>
        <time>2015-05-05T19:14:31.174Z</time>
      </trkpt>
      <trkpt lat="48.88595" lon="2.3712">
        <ele>113.7</ele>
        <time>2015-05-05T19:14:32.101Z</time>
      </trkpt>
      <trkpt lat="48.88601" lon="2.37125">
        <ele>113.9</ele>
        <time>2015-05-05T19:14:33.091Z</time>
      </trkpt>
      <trkpt lat="48.88606" lon="2.37132">
        <ele>113.8</ele>
        <time>2015-05-05T19:14:34.154Z</time>
      </trkpt>
      <trkpt lat="48.8861" lon="2.37139">
        <ele>113.8</ele>
        <time>2015-05-05T19:14:35.174Z</time>
      </trkpt>
      <trkpt lat="48.88615" lon="2.37146">
        <ele>113.9</ele>
        <time>2015-05-05T19:14:36.070Z</time>
      </trkpt>
      <trkpt lat="48.8862" lon="2.37154">
        <ele>113.8</ele>
        <time>2015-05-05T19:14:37.081Z</time>
      </trkpt>
      <trkpt lat="48.88625" lon="2.37161">
        <ele>113.9</ele>
        <time>2015-05-05T19:14:38.084Z</time>
      </trkpt>
      <trkpt lat="48.8863" lon="2.37168">
        <ele>113.9</ele>
        <time>2015-05-05T19:14:39.092Z</time>
      </trkpt>
      <trkpt lat="48.88636" lon="2.37175">
        <ele>114</ele>
        <time>2015-05-05T19:14:40.106Z</time>
      </trkpt>
      <trkpt lat="48.8864" lon="2.37181">
        <ele>114.2</ele>
        <time>2015-05-05T19:14:41.112Z</time>
      </trkpt>
      <trkpt lat="48.88645" lon="2.37187">
        <ele>114.3</ele>
        <time>2015-05-05T19:14:42.125Z</time>
      </trkpt>
      <trkpt lat="48.88649" lon="2.37194">
        <ele>114.3</ele>
        <time>2015-05-05T19:14:43.147Z</time>
      </trkpt>
      <trkpt lat="48.88653" lon="2.37201">
        <ele>114.4</ele>
        <time>2015-05-05T19:14:44.158Z</time>
      </trkpt>
      <trkpt lat="48.88657" lon="2.37209">
        <ele>114.6</ele>
        <time>2015-05-05T19:14:45.054Z</time>
      </trkpt>
      <trkpt lat="48.88662" lon="2.37216">
        <ele>114.6</ele>
        <time>2015-05-05T19:14:46.111Z</time>
      </trkpt>
      <trkpt lat="48.88666" lon="2.37223">
        <ele>114.7</ele>
        <time>2015-05-05T19:14:47.128Z</time>
      </trkpt>
      <trkpt lat="48.88672" lon="2.37229">
        <ele>114.7</ele>
        <time>2015-05-05T19:14:48.136Z</time>
      </trkpt>
      <trkpt lat="48.88677" lon="2.37236">
        <ele>114.8</ele>
        <time>2015-05-05T19:14:49.149Z</time>
      </trkpt>
      <trkpt lat="48.88683" lon="2.37243">
        <ele>114.8</ele>
        <time>2015-05-05T19:14:50.152Z</time>
      </trkpt>
      <trkpt lat="48.8869" lon="2.37249">
        <ele>114.7</ele>
        <time>2015-05-05T19:14:51.161Z</time>
      </trkpt>
      <trkpt lat="48.88696" lon="2.37256">
        <ele>114.6</ele>
        <time>2015-05-05T19:14:52.175Z</time>
      </trkpt>
      <trkpt lat="48.88702" lon="2.37262">
        <ele>114.4</ele>
        <time>2015-05-05T19:14:53.085Z</time>
      </trkpt>
      <trkpt lat="48.88708" lon="2.37268">
        <ele>114.3</ele>
        <time>2015-05-05T19:14:54.095Z</time>
      </trkpt>
      <trkpt lat="48.88713" lon="2.37273">
        <ele>114</ele>
        <time>2015-05-05T19:14:55.106Z</time>
      </trkpt>
      <trkpt lat="48.88718" lon="2.37279">
        <ele>113.9</ele>
        <time>2015-05-05T19:14:56.122Z</time>
      </trkpt>
      <trkpt lat="48.88723" lon="2.37284">
        <ele>113.9</ele>
        <time>2015-05-05T19:14:57.134Z</time>
      </trkpt>
      <trkpt lat="48.88729" lon="2.37289">
        <ele>113.9</ele>
        <time>2015-05-05T19:14:58.145Z</time>
      </trkpt>
      <trkpt lat="48.88734" lon="2.37294">
        <ele>113.9</ele>
        <time>2015-05-05T19:14:59.153Z</time>
      </trkpt>
      <trkpt lat="48.88739" lon="2.373">
        <ele>114</ele>
        <time>2015-05-05T19:15:00.168Z</time>
      </trkpt>
      <trkpt lat="48.88745" lon="2.37306">
        <ele>114.1</ele>
        <time>2015-05-05T19:15:01.098Z</time>
      </trkpt>
      <trkpt lat="48.8875" lon="2.37311">
        <ele>114.2</ele>
        <time>2015-05-05T19:15:02.100Z</time>
      </trkpt>
      <trkpt lat="48.88755" lon="2.37317">
        <ele>114.2</ele>
        <time>2015-05-05T19:15:03.118Z</time>
      </trkpt>
      <trkpt lat="48.8876" lon="2.37323">
        <ele>114.2</ele>
        <time>2015-05-05T19:15:04.155Z</time>
      </trkpt>
      <trkpt lat="48.88765" lon="2.37328">
        <ele>114.1</ele>
        <time>2015-05-05T19:15:05.173Z</time>
      </trkpt>
      <trkpt lat="48.88771" lon="2.37334">
        <ele>114.1</ele>
        <time>2015-05-05T19:15:06.071Z</time>
      </trkpt>
      <trkpt lat="48.88776" lon="2.3734">
        <ele>114.2</ele>
        <time>2015-05-05T19:15:07.091Z</time>
      </trkpt>
      <trkpt lat="48.88781" lon="2.37346">
        <ele>114.2</ele>
        <time>2015-05-05T19:15:08.094Z</time>
      </trkpt>
      <trkpt lat="48.88786" lon="2.37352">
        <ele>114.2</ele>
        <time>2015-05-05T19:15:09.145Z</time>
      </trkpt>
      <trkpt lat="48.88792" lon="2.37358">
        <ele>114.3</ele>
        <time>2015-05-05T19:15:10.152Z</time>
      </trkpt>
      <trkpt lat="48.88797" lon="2.37365">
        <ele>114.3</ele>
        <time>2015-05-05T19:15:11.052Z</time>
      </trkpt>
      <trkpt lat="48.88803" lon="2.37371">
        <ele>114.5</ele>
        <time>2015-05-05T19:15:12.073Z</time>
      </trkpt>
      <trkpt lat="48.88807" lon="2.37377">
        <ele>114.6</ele>
        <time>2015-05-05T19:15:13.383Z</time>
      </trkpt>
      <trkpt lat="48.88812" lon="2.37382">
        <ele>114.7</ele>
        <time>2015-05-05T19:15:14.100Z</time>
      </trkpt>
      <trkpt lat="48.88816" lon="2.37388">
        <ele>115.1</ele>
        <time>2015-05-05T19:15:15.110Z</time>
      </trkpt>
      <trkpt lat="48.8882" lon="2.37393">
        <ele>115</ele>
        <time>2015-05-05T19:15:16.129Z</time>
      </trkpt>
      <trkpt lat="48.88823" lon="2.37398">
        <ele>114.8</ele>
        <time>2015-05-05T19:15:17.138Z</time>
      </trkpt>
      <trkpt lat="48.88827" lon="2.37401">
        <ele>114.5</ele>
        <time>2015-05-05T19:15:18.144Z</time>
      </trkpt>
      <trkpt lat="48.88831" lon="2.37408">
        <ele>114.7</ele>
        <time>2015-05-05T19:15:20.156Z</time>
      </trkpt>
      <trkpt lat="48.88834" lon="2.3741">
        <ele>114.9</ele>
        <time>2015-05-05T19:15:21.093Z</time>
      </trkpt>
      <trkpt lat="48.88839" lon="2.37415">
        <ele>115.3</ele>
        <time>2015-05-05T19:15:23.129Z</time>
      </trkpt>
      <trkpt lat="48.88842" lon="2.37418">
        <ele>115.4</ele>
        <time>2015-05-05T19:15:24.146Z</time>
      </trkpt>
      <trkpt lat="48.88849" lon="2.37423">
        <ele>115.8</ele>
        <time>2015-05-05T19:15:26.073Z</time>
      </trkpt>
      <trkpt lat="48.88853" lon="2.37426">
        <ele>116.1</ele>
        <time>2015-05-05T19:15:27.119Z</time>
      </trkpt>
      <trkpt lat="48.88857" lon="2.37428">
        <ele>116.3</ele>
        <time>2015-05-05T19:15:28.160Z</time>
      </trkpt>
      <trkpt lat="48.88861" lon="2.37431">
        <ele>117.1</ele>
        <time>2015-05-05T19:15:29.079Z</time>
      </trkpt>
      <trkpt lat="48.88867" lon="2.37439">
        <ele>117.6</ele>
        <time>2015-05-05T19:15:31.105Z</time>
      </trkpt>
      <trkpt lat="48.88872" lon="2.37443">
        <ele>118.1</ele>
        <time>2015-05-05T19:15:32.192Z</time>
      </trkpt>
      <trkpt lat="48.88877" lon="2.37446">
        <ele>118.6</ele>
        <time>2015-05-05T19:15:33.092Z</time>
      </trkpt>
      <trkpt lat="48.88881" lon="2.37449">
        <ele>118.9</ele>
        <time>2015-05-05T19:15:34.140Z</time>
      </trkpt>
      <trkpt lat="48.88885" lon="2.37452">
        <ele>119.3</ele>
        <time>2015-05-05T19:15:35.140Z</time>
      </trkpt>
      <trkpt lat="48.88891" lon="2.37457">
        <ele>119.4</ele>
        <time>2015-05-05T19:15:36.149Z</time>
      </trkpt>
      <trkpt lat="48.88899" lon="2.37464">
        <ele>119</ele>
        <time>2015-05-05T19:15:37.161Z</time>
      </trkpt>
      <trkpt lat="48.88904" lon="2.37471">
        <ele>119</ele>
        <time>2015-05-05T19:15:38.083Z</time>
      </trkpt>
      <trkpt lat="48.8891" lon="2.37476">
        <ele>119.1</ele>
        <time>2015-05-05T19:15:39.080Z</time>
      </trkpt>
      <trkpt lat="48.88915" lon="2.37482">
        <ele>119.1</ele>
        <time>2015-05-05T19:15:40.132Z</time>
      </trkpt>
      <trkpt lat="48.8892" lon="2.37487">
        <ele>119.3</ele>
        <time>2015-05-05T19:15:41.149Z</time>
      </trkpt>
      <trkpt lat="48.88924" lon="2.37492">
        <ele>119.4</ele>
        <time>2015-05-05T19:15:42.174Z</time>
      </trkpt>
      <trkpt lat="48.88929" lon="2.37497">
        <ele>119.7</ele>
        <time>2015-05-05T19:15:43.094Z</time>
      </trkpt>
      <trkpt lat="48.88935" lon="2.37503">
        <ele>119.6</ele>
        <time>2015-05-05T19:15:44.096Z</time>
      </trkpt>
      <trkpt lat="48.8894" lon="2.3751">
        <ele>119.6</ele>
        <time>2015-05-05T19:15:45.100Z</time>
      </trkpt>
      <trkpt lat="48.88945" lon="2.37516">
        <ele>119.9</ele>
        <time>2015-05-05T19:15:46.141Z</time>
      </trkpt>
      <trkpt lat="48.8895" lon="2.37523">
        <ele>119.9</ele>
        <time>2015-05-05T19:15:47.139Z</time>
      </trkpt>
      <trkpt lat="48.88956" lon="2.37529">
        <ele>119.8</ele>
        <time>2015-05-05T19:15:48.151Z</time>
      </trkpt>
      <trkpt lat="48.88961" lon="2.37536">
        <ele>119.8</ele>
        <time>2015-05-05T19:15:49.158Z</time>
      </trkpt>
      <trkpt lat="48.88967" lon="2.37542">
        <ele>119.8</ele>
        <time>2015-05-05T19:15:50.169Z</time>
      </trkpt>
      <trkpt lat="48.88972" lon="2.37548">
        <ele>119.9</ele>
        <time>2015-05-05T19:15:51.182Z</time>
      </trkpt>
      <trkpt lat="48.88978" lon="2.37553">
        <ele>119.9</ele>
        <time>2015-05-05T19:15:52.202Z</time>
      </trkpt>
      <trkpt lat="48.88982" lon="2.37558">
        <ele>120.2</ele>
        <time>2015-05-05T19:15:53.076Z</time>
      </trkpt>
      <trkpt lat="48.88985" lon="2.37562">
        <ele>120.4</ele>
        <time>2015-05-05T19:15:54.100Z</time>
      </trkpt>
      <trkpt lat="48.88989" lon="2.37567">
        <ele>120.7</ele>
        <time>2015-05-05T19:15:55.100Z</time>
      </trkpt>
      <trkpt lat="48.88993" lon="2.37572">
        <ele>120.9</ele>
        <time>2015-05-05T19:15:56.106Z</time>
      </trkpt>
      <trkpt lat="48.88998" lon="2.37579">
        <ele>120.7</ele>
        <time>2015-05-05T19:15:57.115Z</time>
      </trkpt>
      <trkpt lat="48.89002" lon="2.37584">
        <ele>120.9</ele>
        <time>2015-05-05T19:15:58.147Z</time>
      </trkpt>
      <trkpt lat="48.89006" lon="2.37589">
        <ele>121.1</ele>
        <time>2015-05-05T19:15:59.146Z</time>
      </trkpt>
      <trkpt lat="48.8901" lon="2.37595">
        <ele>121.1</ele>
        <time>2015-05-05T19:16:00.069Z</time>
      </trkpt>
      <trkpt lat="48.89013" lon="2.37601">
        <ele>121.1</ele>
        <time>2015-05-05T19:16:01.061Z</time>
      </trkpt>
      <trkpt lat="48.89017" lon="2.37606">
        <ele>121.2</ele>
        <time>2015-05-05T19:16:02.150Z</time>
      </trkpt>
      <trkpt lat="48.89024" lon="2.37614">
        <ele>120.8</ele>
        <time>2015-05-05T19:16:03.214Z</time>
      </trkpt>
      <trkpt lat="48.8903" lon="2.37621">
        <ele>120.6</ele>
        <time>2015-05-05T19:16:04.182Z</time>
      </trkpt>
      <trkpt lat="48.89035" lon="2.37627">
        <ele>120.4</ele>
        <time>2015-05-05T19:16:05.106Z</time>
      </trkpt>
      <trkpt lat="48.8904" lon="2.37634">
        <ele>119.9</ele>
        <time>2015-05-05T19:16:06.139Z</time>
      </trkpt>
      <trkpt lat="48.89045" lon="2.37639">
        <ele>119.6</ele>
        <time>2015-05-05T19:16:07.149Z</time>
      </trkpt>
      <trkpt lat="48.89049" lon="2.37643">
        <ele>119.4</ele>
        <time>2015-05-05T19:16:08.164Z</time>
      </trkpt>
      <trkpt lat="48.89053" lon="2.37648">
        <ele>119.4</ele>
        <time>2015-05-05T19:16:09.139Z</time>
      </trkpt>
      <trkpt lat="48.89056" lon="2.37654">
        <ele>119.2</ele>
        <time>2015-05-05T19:16:10.164Z</time>
      </trkpt>
      <trkpt lat="48.89059" lon="2.37659">
        <ele>119.2</ele>
        <time>2015-05-05T19:16:11.199Z</time>
      </trkpt>
      <trkpt lat="48.89063" lon="2.37669">
        <ele>119.2</ele>
        <time>2015-05-05T19:16:14.145Z</time>
      </trkpt>
      <trkpt lat="48.89064" lon="2.3767">
        <ele>118.8</ele>
        <time>2015-05-05T19:16:15.194Z</time>
      </trkpt>
      <trkpt lat="48.89071" lon="2.37675">
        <ele>117.8</ele>
        <time>2015-05-05T19:16:22.150Z</time>
      </trkpt>
      <trkpt lat="48.89072" lon="2.37676">
        <ele>117.5</ele>
        <time>2015-05-05T19:16:23.068Z</time>
      </trkpt>
      <trkpt lat="48.89076" lon="2.37687">
        <ele>116.6</ele>
        <time>2015-05-05T19:16:27.068Z</time>
      </trkpt>
      <trkpt lat="48.89077" lon="2.3769">
        <ele>116.7</ele>
        <time>2015-05-05T19:16:28.201Z</time>
      </trkpt>
      <trkpt lat="48.89081" lon="2.37701">
        <ele>116.6</ele>
        <time>2015-05-05T19:16:31.210Z</time>
      </trkpt>
      <trkpt lat="48.89088" lon="2.37707">
        <ele>116.1</ele>
        <time>2015-05-05T19:16:32.148Z</time>
      </trkpt>
      <trkpt lat="48.89091" lon="2.37712">
        <ele>116.3</ele>
        <time>2015-05-05T19:16:33.074Z</time>
      </trkpt>
      <trkpt lat="48.89098" lon="2.37718">
        <ele>115.9</ele>
        <time>2015-05-05T19:16:34.160Z</time>
      </trkpt>
      <trkpt lat="48.89104" lon="2.37725">
        <ele>115.8</ele>
        <time>2015-05-05T19:16:35.171Z</time>
      </trkpt>
      <trkpt lat="48.8911" lon="2.37732">
        <ele>115.7</ele>
        <time>2015-05-05T19:16:36.176Z</time>
      </trkpt>
      <trkpt lat="48.89116" lon="2.37737">
        <ele>115.8</ele>
        <time>2015-05-05T19:16:37.146Z</time>
      </trkpt>
      <trkpt lat="48.89122" lon="2.37743">
        <ele>115.9</ele>
        <time>2015-05-05T19:16:38.134Z</time>
      </trkpt>
      <trkpt lat="48.89126" lon="2.37748">
        <ele>116.2</ele>
        <time>2015-05-05T19:16:39.140Z</time>
      </trkpt>
      <trkpt lat="48.8913" lon="2.37753">
        <ele>116.4</ele>
        <time>2015-05-05T19:16:40.148Z</time>
      </trkpt>
      <trkpt lat="48.89135" lon="2.37758">
        <ele>116.5</ele>
        <time>2015-05-05T19:16:41.087Z</time>
      </trkpt>
      <trkpt lat="48.8914" lon="2.37764">
        <ele>116.6</ele>
        <time>2015-05-05T19:16:42.083Z</time>
      </trkpt>
      <trkpt lat="48.89144" lon="2.3777">
        <ele>116.9</ele>
        <time>2015-05-05T19:16:43.091Z</time>
      </trkpt>
      <trkpt lat="48.89149" lon="2.37775">
        <ele>117.2</ele>
        <time>2015-05-05T19:16:44.094Z</time>
      </trkpt>
      <trkpt lat="48.89154" lon="2.3778">
        <ele>117.6</ele>
        <time>2015-05-05T19:16:45.113Z</time>
      </trkpt>
      <trkpt lat="48.89158" lon="2.37786">
        <ele>118</ele>
        <time>2015-05-05T19:16:46.148Z</time>
      </trkpt>
      <trkpt lat="48.89162" lon="2.37792">
        <ele>118.4</ele>
        <time>2015-05-05T19:16:47.165Z</time>
      </trkpt>
      <trkpt lat="48.89167" lon="2.37798">
        <ele>118.7</ele>
        <time>2015-05-05T19:16:48.175Z</time>
      </trkpt>
      <trkpt lat="48.89171" lon="2.37804">
        <ele>119</ele>
        <time>2015-05-05T19:16:49.070Z</time>
      </trkpt>
      <trkpt lat="48.89176" lon="2.3781">
        <ele>119.6</ele>
        <time>2015-05-05T19:16:50.119Z</time>
      </trkpt>
      <trkpt lat="48.89181" lon="2.37816">
        <ele>120</ele>
        <time>2015-05-05T19:16:51.158Z</time>
      </trkpt>
      <trkpt lat="48.89186" lon="2.37821">
        <ele>120.6</ele>
        <time>2015-05-05T19:16:52.179Z</time>
      </trkpt>
      <trkpt lat="48.8919" lon="2.37826">
        <ele>120.8</ele>
        <time>2015-05-05T19:16:53.180Z</time>
      </trkpt>
      <trkpt lat="48.89194" lon="2.37831">
        <ele>120.8</ele>
        <time>2015-05-05T19:16:54.091Z</time>
      </trkpt>
      <trkpt lat="48.89197" lon="2.37837">
        <ele>121.3</ele>
        <time>2015-05-05T19:16:55.097Z</time>
      </trkpt>
      <trkpt lat="48.89202" lon="2.3784">
        <ele>121.5</ele>
        <time>2015-05-05T19:16:56.107Z</time>
      </trkpt>
      <trkpt lat="48.89206" lon="2.37844">
        <ele>121.6</ele>
        <time>2015-05-05T19:16:57.123Z</time>
      </trkpt>
      <trkpt lat="48.89211" lon="2.37849">
        <ele>121.6</ele>
        <time>2015-05-05T19:16:58.140Z</time>
      </trkpt>
      <trkpt lat="48.89216" lon="2.37855">
        <ele>121.8</ele>
        <time>2015-05-05T19:16:59.170Z</time>
      </trkpt>
      <trkpt lat="48.89221" lon="2.3786">
        <ele>121.8</ele>
        <time>2015-05-05T19:17:00.100Z</time>
      </trkpt>
      <trkpt lat="48.89227" lon="2.37865">
        <ele>121.4</ele>
        <time>2015-05-05T19:17:01.089Z</time>
      </trkpt>
      <trkpt lat="48.89233" lon="2.3787">
        <ele>121.3</ele>
        <time>2015-05-05T19:17:02.091Z</time>
      </trkpt>
      <trkpt lat="48.89239" lon="2.37874">
        <ele>120.8</ele>
        <time>2015-05-05T19:17:03.097Z</time>
      </trkpt>
      <trkpt lat="48.89243" lon="2.37879">
        <ele>120.7</ele>
        <time>2015-05-05T19:17:04.153Z</time>
      </trkpt>
      <trkpt lat="48.89247" lon="2.37884">
        <ele>120.9</ele>
        <time>2015-05-05T19:17:05.164Z</time>
      </trkpt>
      <trkpt lat="48.8925" lon="2.37891">
        <ele>120.5</ele>
        <time>2015-05-05T19:17:06.168Z</time>
      </trkpt>
      <trkpt lat="48.89255" lon="2.37902">
        <ele>119.7</ele>
        <time>2015-05-05T19:17:08.181Z</time>
      </trkpt>
      <trkpt lat="48.89258" lon="2.37906">
        <ele>119.5</ele>
        <time>2015-05-05T19:17:09.114Z</time>
      </trkpt>
      <trkpt lat="48.89263" lon="2.37914">
        <ele>119.6</ele>
        <time>2015-05-05T19:17:11.146Z</time>
      </trkpt>
      <trkpt lat="48.89267" lon="2.37919">
        <ele>119.2</ele>
        <time>2015-05-05T19:17:12.162Z</time>
      </trkpt>
      <trkpt lat="48.89271" lon="2.37923">
        <ele>118.9</ele>
        <time>2015-05-05T19:17:13.062Z</time>
      </trkpt>
      <trkpt lat="48.89275" lon="2.37928">
        <ele>118.8</ele>
        <time>2015-05-05T19:17:14.085Z</time>
      </trkpt>
      <trkpt lat="48.89278" lon="2.37932">
        <ele>118.9</ele>
        <time>2015-05-05T19:17:15.087Z</time>
      </trkpt>
      <trkpt lat="48.89282" lon="2.37937">
        <ele>119</ele>
        <time>2015-05-05T19:17:16.136Z</time>
      </trkpt>
      <trkpt lat="48.89287" lon="2.37946">
        <ele>119.2</ele>
        <time>2015-05-05T19:17:18.078Z</time>
      </trkpt>
      <trkpt lat="48.89291" lon="2.3795">
        <ele>119.2</ele>
        <time>2015-05-05T19:17:19.080Z</time>
      </trkpt>
      <trkpt lat="48.89295" lon="2.37953">
        <ele>119.3</ele>
        <time>2015-05-05T19:17:20.116Z</time>
      </trkpt>
      <trkpt lat="48.89299" lon="2.37956">
        <ele>119.4</ele>
        <time>2015-05-05T19:17:21.129Z</time>
      </trkpt>
      <trkpt lat="48.89305" lon="2.37962">
        <ele>119.6</ele>
        <time>2015-05-05T19:17:23.157Z</time>
      </trkpt>
      <trkpt lat="48.89307" lon="2.37966">
        <ele>119.7</ele>
        <time>2015-05-05T19:17:24.129Z</time>
      </trkpt>
      <trkpt lat="48.89309" lon="2.37969">
        <ele>119.8</ele>
        <time>2015-05-05T19:17:25.106Z</time>
      </trkpt>
      <trkpt lat="48.89315" lon="2.37975">
        <ele>119.2</ele>
        <time>2015-05-05T19:17:26.107Z</time>
      </trkpt>
      <trkpt lat="48.89322" lon="2.37984">
        <ele>119.1</ele>
        <time>2015-05-05T19:17:28.150Z</time>
      </trkpt>
      <trkpt lat="48.89325" lon="2.37988">
        <ele>119</ele>
        <time>2015-05-05T19:17:29.153Z</time>
      </trkpt>
      <trkpt lat="48.89328" lon="2.37993">
        <ele>119</ele>
        <time>2015-05-05T19:17:30.166Z</time>
      </trkpt>
      <trkpt lat="48.89332" lon="2.37999">
        <ele>119</ele>
        <time>2015-05-05T19:17:31.096Z</time>
      </trkpt>
      <trkpt lat="48.89335" lon="2.38004">
        <ele>119.1</ele>
        <time>2015-05-05T19:17:32.108Z</time>
      </trkpt>
      <trkpt lat="48.89338" lon="2.3801">
        <ele>119.3</ele>
        <time>2015-05-05T19:17:33.126Z</time>
      </trkpt>
      <trkpt lat="48.89342" lon="2.38016">
        <ele>119.3</ele>
        <time>2015-05-05T19:17:34.182Z</time>
      </trkpt>
      <trkpt lat="48.89345" lon="2.38023">
        <ele>119.4</ele>
        <time>2015-05-05T19:17:35.082Z</time>
      </trkpt>
      <trkpt lat="48.89349" lon="2.3803">
        <ele>119.5</ele>
        <time>2015-05-05T19:17:36.091Z</time>
      </trkpt>
      <trkpt lat="48.89356" lon="2.38038">
        <ele>119</ele>
        <time>2015-05-05T19:17:37.102Z</time>
      </trkpt>
      <trkpt lat="48.89363" lon="2.38044">
        <ele>118.8</ele>
        <time>2015-05-05T19:17:38.102Z</time>
      </trkpt>
      <trkpt lat="48.8937" lon="2.38051">
        <ele>118.6</ele>
        <time>2015-05-05T19:17:39.119Z</time>
      </trkpt>
      <trkpt lat="48.89374" lon="2.38057">
        <ele>118.8</ele>
        <time>2015-05-05T19:17:40.128Z</time>
      </trkpt>
      <trkpt lat="48.89378" lon="2.38063">
        <ele>119</ele>
        <time>2015-05-05T19:17:41.145Z</time>
      </trkpt>
      <trkpt lat="48.89382" lon="2.3807">
        <ele>119.3</ele>
        <time>2015-05-05T19:17:42.149Z</time>
      </trkpt>
      <trkpt lat="48.89386" lon="2.38075">
        <ele>119.5</ele>
        <time>2015-05-05T19:17:43.150Z</time>
      </trkpt>
      <trkpt lat="48.8939" lon="2.38081">
        <ele>119.6</ele>
        <time>2015-05-05T19:17:44.076Z</time>
      </trkpt>
      <trkpt lat="48.89394" lon="2.38087">
        <ele>119.8</ele>
        <time>2015-05-05T19:17:45.177Z</time>
      </trkpt>
      <trkpt lat="48.89401" lon="2.38094">
        <ele>119.6</ele>
        <time>2015-05-05T19:17:46.191Z</time>
      </trkpt>
      <trkpt lat="48.89406" lon="2.38098">
        <ele>119.7</ele>
        <time>2015-05-05T19:17:47.088Z</time>
      </trkpt>
      <trkpt lat="48.8941" lon="2.38103">
        <ele>119.7</ele>
        <time>2015-05-05T19:17:48.094Z</time>
      </trkpt>
      <trkpt lat="48.89413" lon="2.38108">
        <ele>119.8</ele>
        <time>2015-05-05T19:17:49.105Z</time>
      </trkpt>
      <trkpt lat="48.89417" lon="2.38113">
        <ele>119.8</ele>
        <time>2015-05-05T19:17:50.129Z</time>
      </trkpt>
      <trkpt lat="48.8942" lon="2.38117">
        <ele>119.8</ele>
        <time>2015-05-05T19:17:51.132Z</time>
      </trkpt>
      <trkpt lat="48.89426" lon="2.38125">
        <ele>119.9</ele>
        <time>2015-05-05T19:17:53.170Z</time>
      </trkpt>
      <trkpt lat="48.89428" lon="2.38129">
        <ele>120.1</ele>
        <time>2015-05-05T19:17:54.177Z</time>
      </trkpt>
      <trkpt lat="48.89433" lon="2.38137">
        <ele>120.6</ele>
        <time>2015-05-05T19:17:56.098Z</time>
      </trkpt>
      <trkpt lat="48.89436" lon="2.3814">
        <ele>120.8</ele>
        <time>2015-05-05T19:17:57.175Z</time>
      </trkpt>
      <trkpt lat="48.8943" lon="2.38131">
        <ele>118.3</ele>
        <time>2015-05-05T19:18:05.056Z</time>
      </trkpt>
      <trkpt lat="48.89427" lon="2.38127">
        <ele>118.1</ele>
        <time>2015-05-05T19:18:06.084Z</time>
      </trkpt>
      <trkpt lat="48.89421" lon="2.38119">
        <ele>117.6</ele>
        <time>2015-05-05T19:18:08.105Z</time>
      </trkpt>
      <trkpt lat="48.89417" lon="2.38114">
        <ele>117.4</ele>
        <time>2015-05-05T19:18:09.147Z</time>
      </trkpt>
      <trkpt lat="48.89414" lon="2.38108">
        <ele>117.3</ele>
        <time>2015-05-05T19:18:10.162Z</time>
      </trkpt>
      <trkpt lat="48.89411" lon="2.38102">
        <ele>117.3</ele>
        <time>2015-05-05T19:18:11.056Z</time>
      </trkpt>
      <trkpt lat="48.89408" lon="2.38097">
        <ele>117.3</ele>
        <time>2015-05-05T19:18:12.095Z</time>
      </trkpt>
      <trkpt lat="48.89404" lon="2.38091">
        <ele>117.2</ele>
        <time>2015-05-05T19:18:13.100Z</time>
      </trkpt>
      <trkpt lat="48.89401" lon="2.38085">
        <ele>117.1</ele>
        <time>2015-05-05T19:18:14.116Z</time>
      </trkpt>
      <trkpt lat="48.89391" lon="2.38079">
        <ele>116.1</ele>
        <time>2015-05-05T19:18:15.090Z</time>
      </trkpt>
      <trkpt lat="48.89383" lon="2.38074">
        <ele>115.6</ele>
        <time>2015-05-05T19:18:16.124Z</time>
      </trkpt>
      <trkpt lat="48.89375" lon="2.3807">
        <ele>115.2</ele>
        <time>2015-05-05T19:18:17.122Z</time>
      </trkpt>
      <trkpt lat="48.89369" lon="2.38066">
        <ele>115.2</ele>
        <time>2015-05-05T19:18:18.176Z</time>
      </trkpt>
      <trkpt lat="48.89363" lon="2.38062">
        <ele>115.1</ele>
        <time>2015-05-05T19:18:19.070Z</time>
      </trkpt>
      <trkpt lat="48.89359" lon="2.38057">
        <ele>115.2</ele>
        <time>2015-05-05T19:18:20.081Z</time>
      </trkpt>
      <trkpt lat="48.89355" lon="2.38052">
        <ele>115.2</ele>
        <time>2015-05-05T19:18:21.113Z</time>
      </trkpt>
      <trkpt lat="48.8935" lon="2.38047">
        <ele>115.2</ele>
        <time>2015-05-05T19:18:22.177Z</time>
      </trkpt>
      <trkpt lat="48.89346" lon="2.38041">
        <ele>115.1</ele>
        <time>2015-05-05T19:18:23.056Z</time>
      </trkpt>
      <trkpt lat="48.89341" lon="2.38035">
        <ele>114.9</ele>
        <time>2015-05-05T19:18:24.104Z</time>
      </trkpt>
      <trkpt lat="48.89337" lon="2.3803">
        <ele>114.9</ele>
        <time>2015-05-05T19:18:25.140Z</time>
      </trkpt>
      <trkpt lat="48.89333" lon="2.38024">
        <ele>114.9</ele>
        <time>2015-05-05T19:18:26.158Z</time>
      </trkpt>
      <trkpt lat="48.89329" lon="2.38019">
        <ele>115</ele>
        <time>2015-05-05T19:18:27.073Z</time>
      </trkpt>
      <trkpt lat="48.89325" lon="2.38014">
        <ele>115.2</ele>
        <time>2015-05-05T19:18:28.176Z</time>
      </trkpt>
      <trkpt lat="48.89321" lon="2.3801">
        <ele>115.3</ele>
        <time>2015-05-05T19:18:29.071Z</time>
      </trkpt>
      <trkpt lat="48.89317" lon="2.38006">
        <ele>115.5</ele>
        <time>2015-05-05T19:18:30.076Z</time>
      </trkpt>
      <trkpt lat="48.8931" lon="2.37997">
        <ele>115.9</ele>
        <time>2015-05-05T19:18:32.104Z</time>
      </trkpt>
      <trkpt lat="48.89307" lon="2.37994">
        <ele>115.9</ele>
        <time>2015-05-05T19:18:33.116Z</time>
      </trkpt>
      <trkpt lat="48.893" lon="2.37986">
        <ele>115.9</ele>
        <time>2015-05-05T19:18:35.149Z</time>
      </trkpt>
      <trkpt lat="48.89297" lon="2.37981">
        <ele>115.8</ele>
        <time>2015-05-05T19:18:36.095Z</time>
      </trkpt>
      <trkpt lat="48.89294" lon="2.37974">
        <ele>115.6</ele>
        <time>2015-05-05T19:18:37.080Z</time>
      </trkpt>
      <trkpt lat="48.89291" lon="2.37968">
        <ele>115.3</ele>
        <time>2015-05-05T19:18:38.095Z</time>
      </trkpt>
      <trkpt lat="48.89287" lon="2.37963">
        <ele>115.1</ele>
        <time>2015-05-05T19:18:39.122Z</time>
      </trkpt>
      <trkpt lat="48.89284" lon="2.37959">
        <ele>115</ele>
        <time>2015-05-05T19:18:40.123Z</time>
      </trkpt>
      <trkpt lat="48.89278" lon="2.3795">
        <ele>114.4</ele>
        <time>2015-05-05T19:18:42.145Z</time>
      </trkpt>
      <trkpt lat="48.89275" lon="2.37947">
        <ele>114.3</ele>
        <time>2015-05-05T19:18:43.157Z</time>
      </trkpt>
      <trkpt lat="48.89269" lon="2.37941">
        <ele>114.4</ele>
        <time>2015-05-05T19:18:46.139Z</time>
      </trkpt>
      <trkpt lat="48.89266" lon="2.37939">
        <ele>114.3</ele>
        <time>2015-05-05T19:18:47.172Z</time>
      </trkpt>
      <trkpt lat="48.89259" lon="2.37934">
        <ele>114.4</ele>
        <time>2015-05-05T19:18:50.124Z</time>
      </trkpt>
      <trkpt lat="48.89256" lon="2.37933">
        <ele>114.4</ele>
        <time>2015-05-05T19:18:51.046Z</time>
      </trkpt>
      <trkpt lat="48.89251" lon="2.37928">
        <ele>114.3</ele>
        <time>2015-05-05T19:18:53.129Z</time>
      </trkpt>
      <trkpt lat="48.89248" lon="2.37923">
        <ele>114.1</ele>
        <time>2015-05-05T19:18:54.044Z</time>
      </trkpt>
      <trkpt lat="48.89243" lon="2.37916">
        <ele>114.8</ele>
        <time>2015-05-05T19:18:56.070Z</time>
      </trkpt>
      <trkpt lat="48.8924" lon="2.3791">
        <ele>115.2</ele>
        <time>2015-05-05T19:18:57.091Z</time>
      </trkpt>
      <trkpt lat="48.89234" lon="2.37902">
        <ele>115.6</ele>
        <time>2015-05-05T19:18:59.070Z</time>
      </trkpt>
      <trkpt lat="48.89231" lon="2.37899">
        <ele>115.7</ele>
        <time>2015-05-05T19:19:00.193Z</time>
      </trkpt>
      <trkpt lat="48.89225" lon="2.3789">
        <ele>116.2</ele>
        <time>2015-05-05T19:19:02.363Z</time>
      </trkpt>
      <trkpt lat="48.89222" lon="2.37886">
        <ele>116.3</ele>
        <time>2015-05-05T19:19:03.092Z</time>
      </trkpt>
      <trkpt lat="48.89218" lon="2.37881">
        <ele>116.4</ele>
        <time>2015-05-05T19:19:04.124Z</time>
      </trkpt>
      <trkpt lat="48.89213" lon="2.37877">
        <ele>116.6</ele>
        <time>2015-05-05T19:19:05.143Z</time>
      </trkpt>
      <trkpt lat="48.89208" lon="2.37872">
        <ele>116.6</ele>
        <time>2015-05-05T19:19:06.053Z</time>
      </trkpt>
      <trkpt lat="48.89204" lon="2.37866">
        <ele>116.5</ele>
        <time>2015-05-05T19:19:07.111Z</time>
      </trkpt>
      <trkpt lat="48.89199" lon="2.3786">
        <ele>116.6</ele>
        <time>2015-05-05T19:19:08.163Z</time>
      </trkpt>
      <trkpt lat="48.89195" lon="2.37854">
        <ele>116.8</ele>
        <time>2015-05-05T19:19:09.075Z</time>
      </trkpt>
      <trkpt lat="48.89191" lon="2.37847">
        <ele>116.9</ele>
        <time>2015-05-05T19:19:10.146Z</time>
      </trkpt>
      <trkpt lat="48.89187" lon="2.37841">
        <ele>116.8</ele>
        <time>2015-05-05T19:19:11.151Z</time>
      </trkpt>
      <trkpt lat="48.89184" lon="2.3783">
        <ele>116.3</ele>
        <time>2015-05-05T19:19:12.233Z</time>
      </trkpt>
      <trkpt lat="48.8918" lon="2.37823">
        <ele>116.5</ele>
        <time>2015-05-05T19:19:13.088Z</time>
      </trkpt>
      <trkpt lat="48.89176" lon="2.37816">
        <ele>116.8</ele>
        <time>2015-05-05T19:19:14.105Z</time>
      </trkpt>
      <trkpt lat="48.89172" lon="2.37808">
        <ele>116.9</ele>
        <time>2015-05-05T19:19:15.272Z</time>
      </trkpt>
      <trkpt lat="48.89168" lon="2.37799">
        <ele>116.9</ele>
        <time>2015-05-05T19:19:16.141Z</time>
      </trkpt>
      <trkpt lat="48.89164" lon="2.37791">
        <ele>116.8</ele>
        <time>2015-05-05T19:19:17.148Z</time>
      </trkpt>
      <trkpt lat="48.89161" lon="2.37784">
        <ele>116.7</ele>
        <time>2015-05-05T19:19:18.085Z</time>
      </trkpt>
      <trkpt lat="48.89157" lon="2.37777">
        <ele>116.7</ele>
        <time>2015-05-05T19:19:19.081Z</time>
      </trkpt>
      <trkpt lat="48.89152" lon="2.3777">
        <ele>116.6</ele>
        <time>2015-05-05T19:19:20.095Z</time>
      </trkpt>
      <trkpt lat="48.89148" lon="2.37764">
        <ele>116.5</ele>
        <time>2015-05-05T19:19:21.103Z</time>
      </trkpt>
      <trkpt lat="48.89143" lon="2.37757">
        <ele>116.6</ele>
        <time>2015-05-05T19:19:22.124Z</time>
      </trkpt>
      <trkpt lat="48.89139" lon="2.37751">
        <ele>116.9</ele>
        <time>2015-05-05T19:19:23.133Z</time>
      </trkpt>
      <trkpt lat="48.89135" lon="2.37745">
        <ele>117.1</ele>
        <time>2015-05-05T19:19:24.167Z</time>
      </trkpt>
      <trkpt lat="48.89131" lon="2.3774">
        <ele>117.5</ele>
        <time>2015-05-05T19:19:25.066Z</time>
      </trkpt>
      <trkpt lat="48.89128" lon="2.37735">
        <ele>117.8</ele>
        <time>2015-05-05T19:19:26.086Z</time>
      </trkpt>
      <trkpt lat="48.89124" lon="2.3773">
        <ele>118.1</ele>
        <time>2015-05-05T19:19:27.104Z</time>
      </trkpt>
      <trkpt lat="48.8912" lon="2.37726">
        <ele>118.2</ele>
        <time>2015-05-05T19:19:28.101Z</time>
      </trkpt>
      <trkpt lat="48.89117" lon="2.37721">
        <ele>118.4</ele>
        <time>2015-05-05T19:19:29.105Z</time>
      </trkpt>
      <trkpt lat="48.89113" lon="2.37715">
        <ele>118.5</ele>
        <time>2015-05-05T19:19:30.113Z</time>
      </trkpt>
      <trkpt lat="48.89109" lon="2.3771">
        <ele>118.6</ele>
        <time>2015-05-05T19:19:31.127Z</time>
      </trkpt>
      <trkpt lat="48.89105" lon="2.37705">
        <ele>118.7</ele>
        <time>2015-05-05T19:19:32.136Z</time>
      </trkpt>
      <trkpt lat="48.89102" lon="2.37701">
        <ele>118.7</ele>
        <time>2015-05-05T19:19:33.138Z</time>
      </trkpt>
      <trkpt lat="48.89094" lon="2.37693">
        <ele>119</ele>
        <time>2015-05-05T19:19:35.080Z</time>
      </trkpt>
      <trkpt lat="48.89091" lon="2.3769">
        <ele>119</ele>
        <time>2015-05-05T19:19:36.135Z</time>
      </trkpt>
      <trkpt lat="48.89084" lon="2.37682">
        <ele>119.2</ele>
        <time>2015-05-05T19:19:38.081Z</time>
      </trkpt>
      <trkpt lat="48.8908" lon="2.37678">
        <ele>119.2</ele>
        <time>2015-05-05T19:19:39.082Z</time>
      </trkpt>
      <trkpt lat="48.89076" lon="2.37673">
        <ele>119.2</ele>
        <time>2015-05-05T19:19:40.129Z</time>
      </trkpt>
      <trkpt lat="48.89073" lon="2.37669">
        <ele>119.3</ele>
        <time>2015-05-05T19:19:41.166Z</time>
      </trkpt>
      <trkpt lat="48.89069" lon="2.37665">
        <ele>119.3</ele>
        <time>2015-05-05T19:19:42.165Z</time>
      </trkpt>
      <trkpt lat="48.89065" lon="2.37661">
        <ele>119.7</ele>
        <time>2015-05-05T19:19:43.087Z</time>
      </trkpt>
      <trkpt lat="48.8906" lon="2.37651">
        <ele>119</ele>
        <time>2015-05-05T19:19:45.101Z</time>
      </trkpt>
      <trkpt lat="48.89055" lon="2.37649">
        <ele>119.1</ele>
        <time>2015-05-05T19:19:46.135Z</time>
      </trkpt>
      <trkpt lat="48.89051" lon="2.37646">
        <ele>119.4</ele>
        <time>2015-05-05T19:19:47.139Z</time>
      </trkpt>
      <trkpt lat="48.89047" lon="2.37642">
        <ele>119.4</ele>
        <time>2015-05-05T19:19:48.195Z</time>
      </trkpt>
      <trkpt lat="48.89043" lon="2.37638">
        <ele>119.5</ele>
        <time>2015-05-05T19:19:49.097Z</time>
      </trkpt>
      <trkpt lat="48.89039" lon="2.37633">
        <ele>119.5</ele>
        <time>2015-05-05T19:19:50.102Z</time>
      </trkpt>
      <trkpt lat="48.89035" lon="2.37629">
        <ele>119.3</ele>
        <time>2015-05-05T19:19:51.182Z</time>
      </trkpt>
      <trkpt lat="48.89031" lon="2.37625">
        <ele>119.6</ele>
        <time>2015-05-05T19:19:52.173Z</time>
      </trkpt>
      <trkpt lat="48.89027" lon="2.37621">
        <ele>119.5</ele>
        <time>2015-05-05T19:19:53.089Z</time>
      </trkpt>
      <trkpt lat="48.89023" lon="2.37617">
        <ele>119.8</ele>
        <time>2015-05-05T19:19:54.104Z</time>
      </trkpt>
      <trkpt lat="48.89019" lon="2.37614">
        <ele>120</ele>
        <time>2015-05-05T19:19:55.126Z</time>
      </trkpt>
      <trkpt lat="48.89014" lon="2.3761">
        <ele>120.2</ele>
        <time>2015-05-05T19:19:56.079Z</time>
      </trkpt>
      <trkpt lat="48.89009" lon="2.37605">
        <ele>120.7</ele>
        <time>2015-05-05T19:19:57.149Z</time>
      </trkpt>
      <trkpt lat="48.89006" lon="2.37599">
        <ele>120.6</ele>
        <time>2015-05-05T19:19:58.158Z</time>
      </trkpt>
      <trkpt lat="48.89001" lon="2.37593">
        <ele>120.7</ele>
        <time>2015-05-05T19:19:59.171Z</time>
      </trkpt>
      <trkpt lat="48.88997" lon="2.37588">
        <ele>120.7</ele>
        <time>2015-05-05T19:20:00.184Z</time>
      </trkpt>
      <trkpt lat="48.8899" lon="2.37581">
        <ele>121.1</ele>
        <time>2015-05-05T19:20:02.117Z</time>
      </trkpt>
      <trkpt lat="48.88987" lon="2.37578">
        <ele>121.3</ele>
        <time>2015-05-05T19:20:03.142Z</time>
      </trkpt>
      <trkpt lat="48.88983" lon="2.37573">
        <ele>121.5</ele>
        <time>2015-05-05T19:20:04.143Z</time>
      </trkpt>
      <trkpt lat="48.88978" lon="2.37567">
        <ele>121.6</ele>
        <time>2015-05-05T19:20:05.157Z</time>
      </trkpt>
      <trkpt lat="48.88973" lon="2.37562">
        <ele>121.8</ele>
        <time>2015-05-05T19:20:06.244Z</time>
      </trkpt>
      <trkpt lat="48.88968" lon="2.37555">
        <ele>121.8</ele>
        <time>2015-05-05T19:20:07.077Z</time>
      </trkpt>
      <trkpt lat="48.88965" lon="2.37546">
        <ele>122</ele>
        <time>2015-05-05T19:20:08.092Z</time>
      </trkpt>
      <trkpt lat="48.88961" lon="2.37539">
        <ele>122.1</ele>
        <time>2015-05-05T19:20:09.126Z</time>
      </trkpt>
      <trkpt lat="48.88956" lon="2.37532">
        <ele>122.3</ele>
        <time>2015-05-05T19:20:10.168Z</time>
      </trkpt>
      <trkpt lat="48.88952" lon="2.37526">
        <ele>122.5</ele>
        <time>2015-05-05T19:20:11.075Z</time>
      </trkpt>
      <trkpt lat="48.88948" lon="2.37519">
        <ele>122.5</ele>
        <time>2015-05-05T19:20:12.098Z</time>
      </trkpt>
      <trkpt lat="48.88944" lon="2.37514">
        <ele>122.5</ele>
        <time>2015-05-05T19:20:13.098Z</time>
      </trkpt>
      <trkpt lat="48.88939" lon="2.3751">
        <ele>122.7</ele>
        <time>2015-05-05T19:20:14.119Z</time>
      </trkpt>
      <trkpt lat="48.88934" lon="2.37505">
        <ele>123</ele>
        <time>2015-05-05T19:20:15.123Z</time>
      </trkpt>
      <trkpt lat="48.88929" lon="2.37501">
        <ele>123</ele>
        <time>2015-05-05T19:20:16.138Z</time>
      </trkpt>
      <trkpt lat="48.88925" lon="2.37498">
        <ele>123.3</ele>
        <time>2015-05-05T19:20:17.148Z</time>
      </trkpt>
      <trkpt lat="48.88921" lon="2.37494">
        <ele>123.5</ele>
        <time>2015-05-05T19:20:18.150Z</time>
      </trkpt>
      <trkpt lat="48.88917" lon="2.3749">
        <ele>123.7</ele>
        <time>2015-05-05T19:20:19.155Z</time>
      </trkpt>
      <trkpt lat="48.88913" lon="2.37487">
        <ele>124</ele>
        <time>2015-05-05T19:20:20.085Z</time>
      </trkpt>
      <trkpt lat="48.88909" lon="2.37482">
        <ele>124.3</ele>
        <time>2015-05-05T19:20:21.085Z</time>
      </trkpt>
      <trkpt lat="48.88905" lon="2.37478">
        <ele>124.4</ele>
        <time>2015-05-05T19:20:22.113Z</time>
      </trkpt>
      <trkpt lat="48.88901" lon="2.37473">
        <ele>124.3</ele>
        <time>2015-05-05T19:20:23.122Z</time>
      </trkpt>
      <trkpt lat="48.88897" lon="2.37468">
        <ele>124.4</ele>
        <time>2015-05-05T19:20:24.139Z</time>
      </trkpt>
      <trkpt lat="48.88892" lon="2.37463">
        <ele>124.4</ele>
        <time>2015-05-05T19:20:25.161Z</time>
      </trkpt>
      <trkpt lat="48.88887" lon="2.37458">
        <ele>124.4</ele>
        <time>2015-05-05T19:20:26.171Z</time>
      </trkpt>
      <trkpt lat="48.88883" lon="2.37451">
        <ele>124.4</ele>
        <time>2015-05-05T19:20:27.187Z</time>
      </trkpt>
      <trkpt lat="48.88879" lon="2.37446">
        <ele>124.4</ele>
        <time>2015-05-05T19:20:28.196Z</time>
      </trkpt>
      <trkpt lat="48.88877" lon="2.37438">
        <ele>123.8</ele>
        <time>2015-05-05T19:20:29.103Z</time>
      </trkpt>
      <trkpt lat="48.88873" lon="2.37431">
        <ele>123.5</ele>
        <time>2015-05-05T19:20:30.118Z</time>
      </trkpt>
      <trkpt lat="48.88868" lon="2.37427">
        <ele>123.6</ele>
        <time>2015-05-05T19:20:31.128Z</time>
      </trkpt>
      <trkpt lat="48.88864" lon="2.37422">
        <ele>123.6</ele>
        <time>2015-05-05T19:20:32.153Z</time>
      </trkpt>
      <trkpt lat="48.88859" lon="2.37419">
        <ele>123.8</ele>
        <time>2015-05-05T19:20:33.056Z</time>
      </trkpt>
      <trkpt lat="48.88855" lon="2.37416">
        <ele>123.9</ele>
        <time>2015-05-05T19:20:34.119Z</time>
      </trkpt>
      <trkpt lat="48.88851" lon="2.37413">
        <ele>124</ele>
        <time>2015-05-05T19:20:35.127Z</time>
      </trkpt>
      <trkpt lat="48.88844" lon="2.37408">
        <ele>124.3</ele>
        <time>2015-05-05T19:20:37.139Z</time>
      </trkpt>
      <trkpt lat="48.88842" lon="2.37406">
        <ele>124.4</ele>
        <time>2015-05-05T19:20:38.169Z</time>
      </trkpt>
      <trkpt lat="48.88838" lon="2.374">
        <ele>124.7</ele>
        <time>2015-05-05T19:20:41.156Z</time>
      </trkpt>
      <trkpt lat="48.88838" lon="2.37398">
        <ele>124.6</ele>
        <time>2015-05-05T19:20:42.054Z</time>
      </trkpt>
      <trkpt lat="48.88838" lon="2.37397">
        <ele>124.6</ele>
        <time>2015-05-05T19:20:43.071Z</time>
      </trkpt>
      <trkpt lat="48.88837" lon="2.37396">
        <ele>124.4</ele>
        <time>2015-05-05T19:20:44.090Z</time>
      </trkpt>
      <trkpt lat="48.88828" lon="2.37395">
        <ele>124.6</ele>
        <time>2015-05-05T19:20:48.068Z</time>
      </trkpt>
      <trkpt lat="48.88825" lon="2.37392">
        <ele>124.8</ele>
        <time>2015-05-05T19:20:49.099Z</time>
      </trkpt>
      <trkpt lat="48.88818" lon="2.37385">
        <ele>125.1</ele>
        <time>2015-05-05T19:20:51.132Z</time>
      </trkpt>
      <trkpt lat="48.88814" lon="2.37381">
        <ele>125.1</ele>
        <time>2015-05-05T19:20:52.149Z</time>
      </trkpt>
      <trkpt lat="48.88807" lon="2.37372">
        <ele>124.9</ele>
        <time>2015-05-05T19:20:54.154Z</time>
      </trkpt>
      <trkpt lat="48.88804" lon="2.37367">
        <ele>124.9</ele>
        <time>2015-05-05T19:20:55.056Z</time>
      </trkpt>
      <trkpt lat="48.888" lon="2.3736">
        <ele>124.9</ele>
        <time>2015-05-05T19:20:56.085Z</time>
      </trkpt>
      <trkpt lat="48.88796" lon="2.37354">
        <ele>124.7</ele>
        <time>2015-05-05T19:20:57.113Z</time>
      </trkpt>
      <trkpt lat="48.88793" lon="2.37347">
        <ele>124.7</ele>
        <time>2015-05-05T19:20:58.175Z</time>
      </trkpt>
      <trkpt lat="48.88789" lon="2.37342">
        <ele>124.5</ele>
        <time>2015-05-05T19:20:59.084Z</time>
      </trkpt>
      <trkpt lat="48.88785" lon="2.37335">
        <ele>124.3</ele>
        <time>2015-05-05T19:21:00.109Z</time>
      </trkpt>
      <trkpt lat="48.88782" lon="2.37329">
        <ele>123.9</ele>
        <time>2015-05-05T19:21:01.106Z</time>
      </trkpt>
      <trkpt lat="48.88779" lon="2.37321">
        <ele>123.4</ele>
        <time>2015-05-05T19:21:02.150Z</time>
      </trkpt>
      <trkpt lat="48.88776" lon="2.37313">
        <ele>123.1</ele>
        <time>2015-05-05T19:21:03.151Z</time>
      </trkpt>
      <trkpt lat="48.88772" lon="2.37307">
        <ele>123.1</ele>
        <time>2015-05-05T19:21:04.158Z</time>
      </trkpt>
      <trkpt lat="48.88767" lon="2.37299">
        <ele>123.4</ele>
        <time>2015-05-05T19:21:05.068Z</time>
      </trkpt>
      <trkpt lat="48.88763" lon="2.37293">
        <ele>123.5</ele>
        <time>2015-05-05T19:21:06.064Z</time>
      </trkpt>
      <trkpt lat="48.88759" lon="2.37288">
        <ele>123.4</ele>
        <time>2015-05-05T19:21:07.079Z</time>
      </trkpt>
      <trkpt lat="48.88754" lon="2.37284">
        <ele>123.4</ele>
        <time>2015-05-05T19:21:08.129Z</time>
      </trkpt>
      <trkpt lat="48.8875" lon="2.37281">
        <ele>123.4</ele>
        <time>2015-05-05T19:21:09.139Z</time>
      </trkpt>
      <trkpt lat="48.88743" lon="2.37275">
        <ele>122.8</ele>
        <time>2015-05-05T19:21:11.068Z</time>
      </trkpt>
      <trkpt lat="48.88739" lon="2.37272">
        <ele>122.8</ele>
        <time>2015-05-05T19:21:12.106Z</time>
      </trkpt>
      <trkpt lat="48.88735" lon="2.3727">
        <ele>123.1</ele>
        <time>2015-05-05T19:21:13.072Z</time>
      </trkpt>
      <trkpt lat="48.88729" lon="2.37269">
        <ele>124</ele>
        <time>2015-05-05T19:21:14.069Z</time>
      </trkpt>
      <trkpt lat="48.88725" lon="2.37265">
        <ele>124</ele>
        <time>2015-05-05T19:21:15.156Z</time>
      </trkpt>
      <trkpt lat="48.88721" lon="2.37261">
        <ele>124</ele>
        <time>2015-05-05T19:21:16.168Z</time>
      </trkpt>
      <trkpt lat="48.88718" lon="2.37256">
        <ele>123.9</ele>
        <time>2015-05-05T19:21:17.070Z</time>
      </trkpt>
      <trkpt lat="48.88715" lon="2.37251">
        <ele>123.7</ele>
        <time>2015-05-05T19:21:18.075Z</time>
      </trkpt>
      <trkpt lat="48.8871" lon="2.37246">
        <ele>123.6</ele>
        <time>2015-05-05T19:21:19.086Z</time>
      </trkpt>
      <trkpt lat="48.88706" lon="2.37241">
        <ele>123.5</ele>
        <time>2015-05-05T19:21:20.092Z</time>
      </trkpt>
      <trkpt lat="48.88702" lon="2.37235">
        <ele>123.3</ele>
        <time>2015-05-05T19:21:21.111Z</time>
      </trkpt>
      <trkpt lat="48.88698" lon="2.37228">
        <ele>123</ele>
        <time>2015-05-05T19:21:22.133Z</time>
      </trkpt>
      <trkpt lat="48.88694" lon="2.37222">
        <ele>122.5</ele>
        <time>2015-05-05T19:21:23.145Z</time>
      </trkpt>
      <trkpt lat="48.8869" lon="2.37216">
        <ele>122.3</ele>
        <time>2015-05-05T19:21:24.065Z</time>
      </trkpt>
      <trkpt lat="48.88686" lon="2.3721">
        <ele>121.9</ele>
        <time>2015-05-05T19:21:25.070Z</time>
      </trkpt>
      <trkpt lat="48.88681" lon="2.37205">
        <ele>121.4</ele>
        <time>2015-05-05T19:21:26.080Z</time>
      </trkpt>
      <trkpt lat="48.88675" lon="2.37196">
        <ele>121.4</ele>
        <time>2015-05-05T19:21:28.144Z</time>
      </trkpt>
      <trkpt lat="48.88671" lon="2.37192">
        <ele>121.2</ele>
        <time>2015-05-05T19:21:29.087Z</time>
      </trkpt>
      <trkpt lat="48.88667" lon="2.37187">
        <ele>120.8</ele>
        <time>2015-05-05T19:21:30.105Z</time>
      </trkpt>
      <trkpt lat="48.88663" lon="2.37183">
        <ele>120.7</ele>
        <time>2015-05-05T19:21:31.166Z</time>
      </trkpt>
      <trkpt lat="48.88659" lon="2.37178">
        <ele>120.5</ele>
        <time>2015-05-05T19:21:32.065Z</time>
      </trkpt>
      <trkpt lat="48.88654" lon="2.37172">
        <ele>120.3</ele>
        <time>2015-05-05T19:21:33.055Z</time>
      </trkpt>
      <trkpt lat="48.8865" lon="2.37167">
        <ele>120.4</ele>
        <time>2015-05-05T19:21:34.120Z</time>
      </trkpt>
      <trkpt lat="48.88646" lon="2.37161">
        <ele>120.4</ele>
        <time>2015-05-05T19:21:35.129Z</time>
      </trkpt>
      <trkpt lat="48.88642" lon="2.37156">
        <ele>120.3</ele>
        <time>2015-05-05T19:21:36.144Z</time>
      </trkpt>
      <trkpt lat="48.88637" lon="2.37152">
        <ele>120.2</ele>
        <time>2015-05-05T19:21:37.160Z</time>
      </trkpt>
      <trkpt lat="48.88633" lon="2.37148">
        <ele>120.1</ele>
        <time>2015-05-05T19:21:38.050Z</time>
      </trkpt>
      <trkpt lat="48.88629" lon="2.37144">
        <ele>120</ele>
        <time>2015-05-05T19:21:39.068Z</time>
      </trkpt>
      <trkpt lat="48.88626" lon="2.37141">
        <ele>119.7</ele>
        <time>2015-05-05T19:21:40.127Z</time>
      </trkpt>
      <trkpt lat="48.88622" lon="2.37136">
        <ele>119.4</ele>
        <time>2015-05-05T19:21:41.171Z</time>
      </trkpt>
      <trkpt lat="48.88618" lon="2.37131">
        <ele>119.2</ele>
        <time>2015-05-05T19:21:42.068Z</time>
      </trkpt>
      <trkpt lat="48.88614" lon="2.37126">
        <ele>119.3</ele>
        <time>2015-05-05T19:21:43.076Z</time>
      </trkpt>
      <trkpt lat="48.8861" lon="2.37119">
        <ele>119.3</ele>
        <time>2015-05-05T19:21:44.090Z</time>
      </trkpt>
      <trkpt lat="48.88606" lon="2.37113">
        <ele>119.4</ele>
        <time>2015-05-05T19:21:45.098Z</time>
      </trkpt>
      <trkpt lat="48.88603" lon="2.37109">
        <ele>119.6</ele>
        <time>2015-05-05T19:21:46.117Z</time>
      </trkpt>
      <trkpt lat="48.88599" lon="2.37105">
        <ele>119.7</ele>
        <time>2015-05-05T19:21:47.133Z</time>
      </trkpt>
      <trkpt lat="48.88594" lon="2.371">
        <ele>119.7</ele>
        <time>2015-05-05T19:21:48.147Z</time>
      </trkpt>
      <trkpt lat="48.8859" lon="2.37095">
        <ele>119.8</ele>
        <time>2015-05-05T19:21:49.174Z</time>
      </trkpt>
      <trkpt lat="48.88586" lon="2.3709">
        <ele>119.8</ele>
        <time>2015-05-05T19:21:50.087Z</time>
      </trkpt>
      <trkpt lat="48.88582" lon="2.37085">
        <ele>119.9</ele>
        <time>2015-05-05T19:21:51.133Z</time>
      </trkpt>
      <trkpt lat="48.88578" lon="2.37082">
        <ele>120.1</ele>
        <time>2015-05-05T19:21:52.139Z</time>
      </trkpt>
      <trkpt lat="48.88574" lon="2.37078">
        <ele>120.4</ele>
        <time>2015-05-05T19:21:53.163Z</time>
      </trkpt>
      <trkpt lat="48.8857" lon="2.37074">
        <ele>120.7</ele>
        <time>2015-05-05T19:21:54.064Z</time>
      </trkpt>
      <trkpt lat="48.88566" lon="2.37069">
        <ele>120.9</ele>
        <time>2015-05-05T19:21:55.070Z</time>
      </trkpt>
      <trkpt lat="48.88562" lon="2.37064">
        <ele>121</ele>
        <time>2015-05-05T19:21:56.075Z</time>
      </trkpt>
      <trkpt lat="48.88558" lon="2.3706">
        <ele>121.2</ele>
        <time>2015-05-05T19:21:57.083Z</time>
      </trkpt>
      <trkpt lat="48.88555" lon="2.37055">
        <ele>121.3</ele>
        <time>2015-05-05T19:21:58.136Z</time>
      </trkpt>
      <trkpt lat="48.88551" lon="2.3705">
        <ele>121.4</ele>
        <time>2015-05-05T19:21:59.074Z</time>
      </trkpt>
      <trkpt lat="48.88547" lon="2.37044">
        <ele>121.7</ele>
        <time>2015-05-05T19:22:00.078Z</time>
      </trkpt>
      <trkpt lat="48.88543" lon="2.37038">
        <ele>121.7</ele>
        <time>2015-05-05T19:22:01.085Z</time>
      </trkpt>
      <trkpt lat="48.88539" lon="2.37032">
        <ele>122.1</ele>
        <time>2015-05-05T19:22:02.113Z</time>
      </trkpt>
      <trkpt lat="48.88535" lon="2.37027">
        <ele>122.3</ele>
        <time>2015-05-05T19:22:03.176Z</time>
      </trkpt>
      <trkpt lat="48.88532" lon="2.37022">
        <ele>122.4</ele>
        <time>2015-05-05T19:22:04.102Z</time>
      </trkpt>
      <trkpt lat="48.88529" lon="2.37017">
        <ele>122.5</ele>
        <time>2015-05-05T19:22:05.066Z</time>
      </trkpt>
      <trkpt lat="48.88525" lon="2.37012">
        <ele>122.5</ele>
        <time>2015-05-05T19:22:06.070Z</time>
      </trkpt>
      <trkpt lat="48.88522" lon="2.37008">
        <ele>122.6</ele>
        <time>2015-05-05T19:22:07.082Z</time>
      </trkpt>
      <trkpt lat="48.88519" lon="2.37003">
        <ele>122.8</ele>
        <time>2015-05-05T19:22:08.104Z</time>
      </trkpt>
      <trkpt lat="48.88515" lon="2.36999">
        <ele>123.1</ele>
        <time>2015-05-05T19:22:09.123Z</time>
      </trkpt>
      <trkpt lat="48.88508" lon="2.36996">
        <ele>124.6</ele>
        <time>2015-05-05T19:22:10.141Z</time>
      </trkpt>
      <trkpt lat="48.88503" lon="2.36992">
        <ele>125.5</ele>
        <time>2015-05-05T19:22:11.062Z</time>
      </trkpt>
      <trkpt lat="48.885" lon="2.36987">
        <ele>125.9</ele>
        <time>2015-05-05T19:22:12.065Z</time>
      </trkpt>
      <trkpt lat="48.88496" lon="2.36982">
        <ele>125.8</ele>
        <time>2015-05-05T19:22:13.074Z</time>
      </trkpt>
      <trkpt lat="48.8849" lon="2.36974">
        <ele>125.5</ele>
        <time>2015-05-05T19:22:15.101Z</time>
      </trkpt>
      <trkpt lat="48.88486" lon="2.36971">
        <ele>125.5</ele>
        <time>2015-05-05T19:22:16.141Z</time>
      </trkpt>
      <trkpt lat="48.88482" lon="2.36966">
        <ele>125.4</ele>
        <time>2015-05-05T19:22:17.158Z</time>
      </trkpt>
      <trkpt lat="48.88479" lon="2.36961">
        <ele>125.4</ele>
        <time>2015-05-05T19:22:18.048Z</time>
      </trkpt>
      <trkpt lat="48.88475" lon="2.36955">
        <ele>125.5</ele>
        <time>2015-05-05T19:22:19.343Z</time>
      </trkpt>
      <trkpt lat="48.88471" lon="2.3695">
        <ele>125.6</ele>
        <time>2015-05-05T19:22:20.115Z</time>
      </trkpt>
      <trkpt lat="48.88468" lon="2.36945">
        <ele>125.8</ele>
        <time>2015-05-05T19:22:21.127Z</time>
      </trkpt>
      <trkpt lat="48.88464" lon="2.36939">
        <ele>126.8</ele>
        <time>2015-05-05T19:22:22.149Z</time>
      </trkpt>
      <trkpt lat="48.88457" lon="2.36934">
        <ele>127</ele>
        <time>2015-05-05T19:22:24.500Z</time>
      </trkpt>
      <trkpt lat="48.88453" lon="2.36931">
        <ele>127</ele>
        <time>2015-05-05T19:22:25.106Z</time>
      </trkpt>
      <trkpt lat="48.88446" lon="2.36924">
        <ele>127.3</ele>
        <time>2015-05-05T19:22:27.161Z</time>
      </trkpt>
      <trkpt lat="48.88444" lon="2.36914">
        <ele>127.6</ele>
        <time>2015-05-05T19:22:28.207Z</time>
      </trkpt>
      <trkpt lat="48.88437" lon="2.36907">
        <ele>128</ele>
        <time>2015-05-05T19:22:30.084Z</time>
      </trkpt>
      <trkpt lat="48.88434" lon="2.36903">
        <ele>128.1</ele>
        <time>2015-05-05T19:22:31.094Z</time>
      </trkpt>
      <trkpt lat="48.88427" lon="2.36896">
        <ele>128.5</ele>
        <time>2015-05-05T19:22:33.084Z</time>
      </trkpt>
      <trkpt lat="48.88423" lon="2.36892">
        <ele>129.4</ele>
        <time>2015-05-05T19:22:34.206Z</time>
      </trkpt>
      <trkpt lat="48.88416" lon="2.36885">
        <ele>131.2</ele>
        <time>2015-05-05T19:22:36.105Z</time>
      </trkpt>
      <trkpt lat="48.88413" lon="2.3688">
        <ele>132</ele>
        <time>2015-05-05T19:22:37.123Z</time>
      </trkpt>
      <trkpt lat="48.88408" lon="2.36869">
        <ele>132.2</ele>
        <time>2015-05-05T19:22:40.235Z</time>
      </trkpt>
      <trkpt lat="48.88407" lon="2.36865">
        <ele>131.9</ele>
        <time>2015-05-05T19:22:41.053Z</time>
      </trkpt>
      <trkpt lat="48.88414" lon="2.36863">
        <ele>120</ele>
        <time>2015-05-05T19:23:01.084Z</time>
      </trkpt>
      <trkpt lat="48.88414" lon="2.36863">
        <ele>120.2</ele>
        <time>2015-05-05T19:23:02.080Z</time>
      </trkpt>
      <trkpt lat="48.88414" lon="2.36864">
        <ele>120.2</ele>
        <time>2015-05-05T19:23:45.176Z</time>
      </trkpt>
      <trkpt lat="48.88417" lon="2.36865">
        <ele>116.2</ele>
        <time>2015-05-05T19:23:46.205Z</time>
      </trkpt>
      <trkpt lat="48.88411" lon="2.36855">
        <ele>116.2</ele>
        <time>2015-05-05T19:23:52.166Z</time>
      </trkpt>
      <trkpt lat="48.8841" lon="2.36853">
        <ele>116.3</ele>
        <time>2015-05-05T19:23:53.151Z</time>
      </trkpt>
      <trkpt lat="48.88403" lon="2.36851">
        <ele>116.7</ele>
        <time>2015-05-05T19:23:57.117Z</time>
      </trkpt>
      <trkpt lat="48.884" lon="2.36851">
        <ele>116.5</ele>
        <time>2015-05-05T19:23:58.153Z</time>
      </trkpt>
      <trkpt lat="48.88394" lon="2.36852">
        <ele>116.4</ele>
        <time>2015-05-05T19:24:00.076Z</time>
      </trkpt>
      <trkpt lat="48.8839" lon="2.36851">
        <ele>116.5</ele>
        <time>2015-05-05T19:24:01.106Z</time>
      </trkpt>
      <trkpt lat="48.88383" lon="2.36849">
        <ele>116.4</ele>
        <time>2015-05-05T19:24:04.175Z</time>
      </trkpt>
      <trkpt lat="48.88381" lon="2.36846">
        <ele>116.5</ele>
        <time>2015-05-05T19:24:05.099Z</time>
      </trkpt>
      <trkpt lat="48.88375" lon="2.36837">
        <ele>116.8</ele>
        <time>2015-05-05T19:24:08.106Z</time>
      </trkpt>
      <trkpt lat="48.88372" lon="2.36835">
        <ele>117.1</ele>
        <time>2015-05-05T19:24:09.090Z</time>
      </trkpt>
      <trkpt lat="48.88367" lon="2.36829">
        <ele>117.5</ele>
        <time>2015-05-05T19:24:11.105Z</time>
      </trkpt>
      <trkpt lat="48.88365" lon="2.36825">
        <ele>117.4</ele>
        <time>2015-05-05T19:24:12.158Z</time>
      </trkpt>
      <trkpt lat="48.88361" lon="2.36817">
        <ele>117.5</ele>
        <time>2015-05-05T19:24:14.076Z</time>
      </trkpt>
      <trkpt lat="48.88358" lon="2.36814">
        <ele>117.7</ele>
        <time>2015-05-05T19:24:15.086Z</time>
      </trkpt>
      <trkpt lat="48.88353" lon="2.36807">
        <ele>117.9</ele>
        <time>2015-05-05T19:24:17.144Z</time>
      </trkpt>
      <trkpt lat="48.8835" lon="2.36803">
        <ele>118.1</ele>
        <time>2015-05-05T19:24:18.060Z</time>
      </trkpt>
      <trkpt lat="48.88343" lon="2.36795">
        <ele>118.4</ele>
        <time>2015-05-05T19:24:20.095Z</time>
      </trkpt>
      <trkpt lat="48.8834" lon="2.36792">
        <ele>118.4</ele>
        <time>2015-05-05T19:24:21.116Z</time>
      </trkpt>
      <trkpt lat="48.88334" lon="2.36786">
        <ele>118.7</ele>
        <time>2015-05-05T19:24:23.583Z</time>
      </trkpt>
      <trkpt lat="48.8833" lon="2.36782">
        <ele>118.9</ele>
        <time>2015-05-05T19:24:24.121Z</time>
      </trkpt>
      <trkpt lat="48.88323" lon="2.36775">
        <ele>119</ele>
        <time>2015-05-05T19:24:26.076Z</time>
      </trkpt>
      <trkpt lat="48.8832" lon="2.36772">
        <ele>119</ele>
        <time>2015-05-05T19:24:27.070Z</time>
      </trkpt>
      <trkpt lat="48.88315" lon="2.36764">
        <ele>118.6</ele>
        <time>2015-05-05T19:24:29.089Z</time>
      </trkpt>
      <trkpt lat="48.88313" lon="2.36761">
        <ele>118.6</ele>
        <time>2015-05-05T19:24:30.093Z</time>
      </trkpt>
      <trkpt lat="48.88306" lon="2.36753">
        <ele>118.6</ele>
        <time>2015-05-05T19:24:33.077Z</time>
      </trkpt>
      <trkpt lat="48.88303" lon="2.3675">
        <ele>118.6</ele>
        <time>2015-05-05T19:24:33.132Z</time>
      </trkpt>
      <trkpt lat="48.88299" lon="2.36744">
        <ele>118.7</ele>
        <time>2015-05-05T19:24:35.045Z</time>
      </trkpt>
      <trkpt lat="48.88297" lon="2.3674">
        <ele>118.9</ele>
        <time>2015-05-05T19:24:36.056Z</time>
      </trkpt>
      <trkpt lat="48.88293" lon="2.36732">
        <ele>119</ele>
        <time>2015-05-05T19:24:38.152Z</time>
      </trkpt>
      <trkpt lat="48.8829" lon="2.36728">
        <ele>118.9</ele>
        <time>2015-05-05T19:24:39.097Z</time>
      </trkpt>
      <trkpt lat="48.88285" lon="2.36721">
        <ele>118.8</ele>
        <time>2015-05-05T19:24:41.126Z</time>
      </trkpt>
      <trkpt lat="48.88281" lon="2.36718">
        <ele>118.8</ele>
        <time>2015-05-05T19:24:42.031Z</time>
      </trkpt>
      <trkpt lat="48.88274" lon="2.36712">
        <ele>119</ele>
        <time>2015-05-05T19:24:44.076Z</time>
      </trkpt>
      <trkpt lat="48.88271" lon="2.36708">
        <ele>119</ele>
        <time>2015-05-05T19:24:45.090Z</time>
      </trkpt>
      <trkpt lat="48.88264" lon="2.367">
        <ele>119.1</ele>
        <time>2015-05-05T19:24:47.112Z</time>
      </trkpt>
      <trkpt lat="48.88259" lon="2.36694">
        <ele>119</ele>
        <time>2015-05-05T19:24:48.058Z</time>
      </trkpt>
      <trkpt lat="48.88254" lon="2.3669">
        <ele>118.8</ele>
        <time>2015-05-05T19:24:49.100Z</time>
      </trkpt>
      <trkpt lat="48.88244" lon="2.36685">
        <ele>118.1</ele>
        <time>2015-05-05T19:24:50.112Z</time>
      </trkpt>
      <trkpt lat="48.88234" lon="2.3668">
        <ele>117.4</ele>
        <time>2015-05-05T19:24:51.060Z</time>
      </trkpt>
      <trkpt lat="48.88227" lon="2.36675">
        <ele>117.1</ele>
        <time>2015-05-05T19:24:52.092Z</time>
      </trkpt>
      <trkpt lat="48.88221" lon="2.36671">
        <ele>116.7</ele>
        <time>2015-05-05T19:24:53.094Z</time>
      </trkpt>
      <trkpt lat="48.88216" lon="2.36668">
        <ele>116.5</ele>
        <time>2015-05-05T19:24:53.412Z</time>
      </trkpt>
      <trkpt lat="48.8821" lon="2.36664">
        <ele>116.2</ele>
        <time>2015-05-05T19:24:55.157Z</time>
      </trkpt>
      <trkpt lat="48.88204" lon="2.36658">
        <ele>115.9</ele>
        <time>2015-05-05T19:24:56.069Z</time>
      </trkpt>
      <trkpt lat="48.88199" lon="2.36651">
        <ele>115.5</ele>
        <time>2015-05-05T19:24:57.073Z</time>
      </trkpt>
      <trkpt lat="48.88195" lon="2.36644">
        <ele>115.3</ele>
        <time>2015-05-05T19:24:58.471Z</time>
      </trkpt>
      <trkpt lat="48.88191" lon="2.36638">
        <ele>115</ele>
        <time>2015-05-05T19:24:59.112Z</time>
      </trkpt>
      <trkpt lat="48.88187" lon="2.36631">
        <ele>114.8</ele>
        <time>2015-05-05T19:25:00.130Z</time>
      </trkpt>
      <trkpt lat="48.88184" lon="2.36624">
        <ele>114.6</ele>
        <time>2015-05-05T19:25:01.121Z</time>
      </trkpt>
      <trkpt lat="48.8818" lon="2.36617">
        <ele>114.8</ele>
        <time>2015-05-05T19:25:02.127Z</time>
      </trkpt>
      <trkpt lat="48.88177" lon="2.36611">
        <ele>115.2</ele>
        <time>2015-05-05T19:25:03.149Z</time>
      </trkpt>
      <trkpt lat="48.88175" lon="2.36606">
        <ele>115.5</ele>
        <time>2015-05-05T19:25:04.151Z</time>
      </trkpt>
      <trkpt lat="48.88172" lon="2.366">
        <ele>115.8</ele>
        <time>2015-05-05T19:25:05.061Z</time>
      </trkpt>
      <trkpt lat="48.88168" lon="2.3659">
        <ele>116.3</ele>
        <time>2015-05-05T19:25:07.072Z</time>
      </trkpt>
      <trkpt lat="48.88165" lon="2.36587">
        <ele>116.4</ele>
        <time>2015-05-05T19:25:08.094Z</time>
      </trkpt>
      <trkpt lat="48.88158" lon="2.36579">
        <ele>116.2</ele>
        <time>2015-05-05T19:25:13.120Z</time>
      </trkpt>
      <trkpt lat="48.88157" lon="2.36578">
        <ele>116.2</ele>
        <time>2015-05-05T19:25:14.131Z</time>
      </trkpt>
      <trkpt lat="48.8815" lon="2.36573">
        <ele>116.4</ele>
        <time>2015-05-05T19:25:19.095Z</time>
      </trkpt>
      <trkpt lat="48.88149" lon="2.36571">
        <ele>116.5</ele>
        <time>2015-05-05T19:25:20.119Z</time>
      </trkpt>
      <trkpt lat="48.88143" lon="2.36566">
        <ele>116.8</ele>
        <time>2015-05-05T19:25:23.089Z</time>
      </trkpt>
      <trkpt lat="48.8814" lon="2.36565">
        <ele>117</ele>
        <time>2015-05-05T19:25:24.093Z</time>
      </trkpt>
      <trkpt lat="48.88135" lon="2.36561">
        <ele>117.1</ele>
        <time>2015-05-05T19:25:26.150Z</time>
      </trkpt>
      <trkpt lat="48.88132" lon="2.36558">
        <ele>117.1</ele>
        <time>2015-05-05T19:25:27.086Z</time>
      </trkpt>
      <trkpt lat="48.88129" lon="2.36549">
        <ele>117.4</ele>
        <time>2015-05-05T19:25:29.113Z</time>
      </trkpt>
      <trkpt lat="48.88127" lon="2.36545">
        <ele>117.6</ele>
        <time>2015-05-05T19:25:30.127Z</time>
      </trkpt>
      <trkpt lat="48.88123" lon="2.36537">
        <ele>118</ele>
        <time>2015-05-05T19:25:32.069Z</time>
      </trkpt>
      <trkpt lat="48.88121" lon="2.36533">
        <ele>118</ele>
        <time>2015-05-05T19:25:33.109Z</time>
      </trkpt>
      <trkpt lat="48.88114" lon="2.36527">
        <ele>119.1</ele>
        <time>2015-05-05T19:25:36.055Z</time>
      </trkpt>
      <trkpt lat="48.88112" lon="2.36525">
        <ele>119</ele>
        <time>2015-05-05T19:25:37.065Z</time>
      </trkpt>
      <trkpt lat="48.88107" lon="2.36519">
        <ele>119.1</ele>
        <time>2015-05-05T19:25:39.075Z</time>
      </trkpt>
      <trkpt lat="48.88105" lon="2.36515">
        <ele>119.1</ele>
        <time>2015-05-05T19:25:40.122Z</time>
      </trkpt>
      <trkpt lat="48.88098" lon="2.36506">
        <ele>119.4</ele>
        <time>2015-05-05T19:25:42.058Z</time>
      </trkpt>
      <trkpt lat="48.88094" lon="2.36501">
        <ele>119.3</ele>
        <time>2015-05-05T19:25:43.092Z</time>
      </trkpt>
      <trkpt lat="48.88091" lon="2.36496">
        <ele>119.4</ele>
        <time>2015-05-05T19:25:44.100Z</time>
      </trkpt>
      <trkpt lat="48.88087" lon="2.36491">
        <ele>119.4</ele>
        <time>2015-05-05T19:25:45.148Z</time>
      </trkpt>
      <trkpt lat="48.88083" lon="2.36486">
        <ele>119.4</ele>
        <time>2015-05-05T19:25:46.088Z</time>
      </trkpt>
      <trkpt lat="48.88079" lon="2.36482">
        <ele>119.5</ele>
        <time>2015-05-05T19:25:47.088Z</time>
      </trkpt>
      <trkpt lat="48.88075" lon="2.36477">
        <ele>119.4</ele>
        <time>2015-05-05T19:25:48.099Z</time>
      </trkpt>
      <trkpt lat="48.88071" lon="2.36472">
        <ele>119.5</ele>
        <time>2015-05-05T19:25:49.127Z</time>
      </trkpt>
      <trkpt lat="48.88067" lon="2.36468">
        <ele>119.4</ele>
        <time>2015-05-05T19:25:50.059Z</time>
      </trkpt>
      <trkpt lat="48.88063" lon="2.36463">
        <ele>119.3</ele>
        <time>2015-05-05T19:25:51.061Z</time>
      </trkpt>
      <trkpt lat="48.88059" lon="2.36458">
        <ele>119.3</ele>
        <time>2015-05-05T19:25:52.111Z</time>
      </trkpt>
      <trkpt lat="48.88055" lon="2.36453">
        <ele>119.5</ele>
        <time>2015-05-05T19:25:53.123Z</time>
      </trkpt>
      <trkpt lat="48.8805" lon="2.36448">
        <ele>119.5</ele>
        <time>2015-05-05T19:25:54.124Z</time>
      </trkpt>
      <trkpt lat="48.88046" lon="2.36443">
        <ele>119.6</ele>
        <time>2015-05-05T19:25:55.134Z</time>
      </trkpt>
      <trkpt lat="48.88042" lon="2.36438">
        <ele>119.6</ele>
        <time>2015-05-05T19:25:56.067Z</time>
      </trkpt>
      <trkpt lat="48.88037" lon="2.36432">
        <ele>119.8</ele>
        <time>2015-05-05T19:25:57.059Z</time>
      </trkpt>
      <trkpt lat="48.88033" lon="2.36426">
        <ele>119.9</ele>
        <time>2015-05-05T19:25:58.107Z</time>
      </trkpt>
      <trkpt lat="48.88029" lon="2.36422">
        <ele>120</ele>
        <time>2015-05-05T19:25:59.117Z</time>
      </trkpt>
      <trkpt lat="48.88023" lon="2.36413">
        <ele>120.1</ele>
        <time>2015-05-05T19:26:01.133Z</time>
      </trkpt>
      <trkpt lat="48.8802" lon="2.36409">
        <ele>120</ele>
        <time>2015-05-05T19:26:02.141Z</time>
      </trkpt>
      <trkpt lat="48.88017" lon="2.36404">
        <ele>120</ele>
        <time>2015-05-05T19:26:03.057Z</time>
      </trkpt>
      <trkpt lat="48.88013" lon="2.36399">
        <ele>119.9</ele>
        <time>2015-05-05T19:26:04.158Z</time>
      </trkpt>
      <trkpt lat="48.88009" lon="2.36393">
        <ele>119.7</ele>
        <time>2015-05-05T19:26:05.054Z</time>
      </trkpt>
      <trkpt lat="48.88005" lon="2.36388">
        <ele>119.7</ele>
        <time>2015-05-05T19:26:06.058Z</time>
      </trkpt>
      <trkpt lat="48.88001" lon="2.36384">
        <ele>119.7</ele>
        <time>2015-05-05T19:26:07.087Z</time>
      </trkpt>
      <trkpt lat="48.87997" lon="2.36381">
        <ele>119.7</ele>
        <time>2015-05-05T19:26:08.116Z</time>
      </trkpt>
      <trkpt lat="48.87992" lon="2.36376">
        <ele>119.7</ele>
        <time>2015-05-05T19:26:09.128Z</time>
      </trkpt>
      <trkpt lat="48.87988" lon="2.36371">
        <ele>119.7</ele>
        <time>2015-05-05T19:26:10.146Z</time>
      </trkpt>
      <trkpt lat="48.87981" lon="2.36364">
        <ele>119.4</ele>
        <time>2015-05-05T19:26:11.157Z</time>
      </trkpt>
      <trkpt lat="48.87972" lon="2.36358">
        <ele>118.9</ele>
        <time>2015-05-05T19:26:12.054Z</time>
      </trkpt>
      <trkpt lat="48.87964" lon="2.36351">
        <ele>118.6</ele>
        <time>2015-05-05T19:26:13.070Z</time>
      </trkpt>
      <trkpt lat="48.87961" lon="2.36346">
        <ele>118.7</ele>
        <time>2015-05-05T19:26:14.162Z</time>
      </trkpt>
      <trkpt lat="48.87954" lon="2.36338">
        <ele>119</ele>
        <time>2015-05-05T19:26:16.111Z</time>
      </trkpt>
      <trkpt lat="48.8795" lon="2.36332">
        <ele>119.2</ele>
        <time>2015-05-05T19:26:17.117Z</time>
      </trkpt>
      <trkpt lat="48.87946" lon="2.36326">
        <ele>119.4</ele>
        <time>2015-05-05T19:26:18.134Z</time>
      </trkpt>
      <trkpt lat="48.87942" lon="2.36321">
        <ele>119.6</ele>
        <time>2015-05-05T19:26:19.272Z</time>
      </trkpt>
      <trkpt lat="48.8794" lon="2.36315">
        <ele>119.7</ele>
        <time>2015-05-05T19:26:20.240Z</time>
      </trkpt>
      <trkpt lat="48.87937" lon="2.36309">
        <ele>119.8</ele>
        <time>2015-05-05T19:26:21.064Z</time>
      </trkpt>
      <trkpt lat="48.87931" lon="2.363">
        <ele>119.9</ele>
        <time>2015-05-05T19:26:23.105Z</time>
      </trkpt>
      <trkpt lat="48.87928" lon="2.36296">
        <ele>120</ele>
        <time>2015-05-05T19:26:24.128Z</time>
      </trkpt>
      <trkpt lat="48.87923" lon="2.36285">
        <ele>120.1</ele>
        <time>2015-05-05T19:26:26.078Z</time>
      </trkpt>
      <trkpt lat="48.87918" lon="2.36279">
        <ele>120</ele>
        <time>2015-05-05T19:26:27.096Z</time>
      </trkpt>
      <trkpt lat="48.87909" lon="2.36272">
        <ele>119.7</ele>
        <time>2015-05-05T19:26:28.110Z</time>
      </trkpt>
      <trkpt lat="48.87902" lon="2.36265">
        <ele>119.4</ele>
        <time>2015-05-05T19:26:29.185Z</time>
      </trkpt>
      <trkpt lat="48.87898" lon="2.36259">
        <ele>119.3</ele>
        <time>2015-05-05T19:26:30.131Z</time>
      </trkpt>
      <trkpt lat="48.87895" lon="2.36248">
        <ele>119.8</ele>
        <time>2015-05-05T19:26:31.050Z</time>
      </trkpt>
      <trkpt lat="48.87891" lon="2.36242">
        <ele>120</ele>
        <time>2015-05-05T19:26:32.053Z</time>
      </trkpt>
      <trkpt lat="48.87887" lon="2.36236">
        <ele>120</ele>
        <time>2015-05-05T19:26:33.067Z</time>
      </trkpt>
      <trkpt lat="48.87884" lon="2.36231">
        <ele>120</ele>
        <time>2015-05-05T19:26:34.096Z</time>
      </trkpt>
      <trkpt lat="48.87879" lon="2.36226">
        <ele>120</ele>
        <time>2015-05-05T19:26:35.112Z</time>
      </trkpt>
      <trkpt lat="48.87874" lon="2.36223">
        <ele>119.9</ele>
        <time>2015-05-05T19:26:36.144Z</time>
      </trkpt>
      <trkpt lat="48.87869" lon="2.36219">
        <ele>119.9</ele>
        <time>2015-05-05T19:26:37.036Z</time>
      </trkpt>
      <trkpt lat="48.87865" lon="2.36214">
        <ele>119.7</ele>
        <time>2015-05-05T19:26:38.057Z</time>
      </trkpt>
      <trkpt lat="48.87858" lon="2.36208">
        <ele>119.3</ele>
        <time>2015-05-05T19:26:40.096Z</time>
      </trkpt>
      <trkpt lat="48.87855" lon="2.36204">
        <ele>119</ele>
        <time>2015-05-05T19:26:41.354Z</time>
      </trkpt>
      <trkpt lat="48.87848" lon="2.36196">
        <ele>119.1</ele>
        <time>2015-05-05T19:26:43.071Z</time>
      </trkpt>
      <trkpt lat="48.87844" lon="2.36192">
        <ele>119.2</ele>
        <time>2015-05-05T19:26:44.111Z</time>
      </trkpt>
      <trkpt lat="48.8784" lon="2.36187">
        <ele>119.4</ele>
        <time>2015-05-05T19:26:45.125Z</time>
      </trkpt>
      <trkpt lat="48.87836" lon="2.36184">
        <ele>119.6</ele>
        <time>2015-05-05T19:26:46.151Z</time>
      </trkpt>
      <trkpt lat="48.87832" lon="2.3618">
        <ele>119.6</ele>
        <time>2015-05-05T19:26:47.074Z</time>
      </trkpt>
      <trkpt lat="48.87827" lon="2.36176">
        <ele>119.8</ele>
        <time>2015-05-05T19:26:48.045Z</time>
      </trkpt>
      <trkpt lat="48.8782" lon="2.36174">
        <ele>119.7</ele>
        <time>2015-05-05T19:26:49.065Z</time>
      </trkpt>
      <trkpt lat="48.87813" lon="2.36173">
        <ele>119.9</ele>
        <time>2015-05-05T19:26:50.078Z</time>
      </trkpt>
      <trkpt lat="48.87807" lon="2.36171">
        <ele>120.1</ele>
        <time>2015-05-05T19:26:51.083Z</time>
      </trkpt>
      <trkpt lat="48.878" lon="2.36168">
        <ele>120.2</ele>
        <time>2015-05-05T19:26:52.126Z</time>
      </trkpt>
      <trkpt lat="48.87791" lon="2.36161">
        <ele>122.7</ele>
        <time>2015-05-05T19:26:53.128Z</time>
      </trkpt>
      <trkpt lat="48.87784" lon="2.36157">
        <ele>122.7</ele>
        <time>2015-05-05T19:26:54.151Z</time>
      </trkpt>
      <trkpt lat="48.87777" lon="2.36154">
        <ele>122.7</ele>
        <time>2015-05-05T19:26:55.046Z</time>
      </trkpt>
      <trkpt lat="48.8777" lon="2.36149">
        <ele>123</ele>
        <time>2015-05-05T19:26:56.077Z</time>
      </trkpt>
      <trkpt lat="48.87763" lon="2.36144">
        <ele>122.5</ele>
        <time>2015-05-05T19:26:57.087Z</time>
      </trkpt>
      <trkpt lat="48.87757" lon="2.36139">
        <ele>122.4</ele>
        <time>2015-05-05T19:26:58.113Z</time>
      </trkpt>
      <trkpt lat="48.8775" lon="2.36134">
        <ele>122.2</ele>
        <time>2015-05-05T19:26:59.127Z</time>
      </trkpt>
      <trkpt lat="48.87743" lon="2.36131">
        <ele>121.8</ele>
        <time>2015-05-05T19:27:00.060Z</time>
      </trkpt>
      <trkpt lat="48.87736" lon="2.36129">
        <ele>121</ele>
        <time>2015-05-05T19:27:01.074Z</time>
      </trkpt>
      <trkpt lat="48.8773" lon="2.36124">
        <ele>120.8</ele>
        <time>2015-05-05T19:27:02.095Z</time>
      </trkpt>
      <trkpt lat="48.87723" lon="2.36121">
        <ele>120.7</ele>
        <time>2015-05-05T19:27:03.301Z</time>
      </trkpt>
      <trkpt lat="48.87717" lon="2.36118">
        <ele>120.7</ele>
        <time>2015-05-05T19:27:04.140Z</time>
      </trkpt>
      <trkpt lat="48.87711" lon="2.36115">
        <ele>120.9</ele>
        <time>2015-05-05T19:27:05.152Z</time>
      </trkpt>
      <trkpt lat="48.87704" lon="2.36111">
        <ele>120.9</ele>
        <time>2015-05-05T19:27:06.160Z</time>
      </trkpt>
      <trkpt lat="48.87698" lon="2.36107">
        <ele>121.2</ele>
        <time>2015-05-05T19:27:07.159Z</time>
      </trkpt>
      <trkpt lat="48.87691" lon="2.36102">
        <ele>121.2</ele>
        <time>2015-05-05T19:27:08.094Z</time>
      </trkpt>
      <trkpt lat="48.87684" lon="2.361">
        <ele>121.5</ele>
        <time>2015-05-05T19:27:09.086Z</time>
      </trkpt>
      <trkpt lat="48.87677" lon="2.36097">
        <ele>121.9</ele>
        <time>2015-05-05T19:27:10.127Z</time>
      </trkpt>
      <trkpt lat="48.8767" lon="2.36094">
        <ele>122.2</ele>
        <time>2015-05-05T19:27:11.131Z</time>
      </trkpt>
      <trkpt lat="48.87663" lon="2.36091">
        <ele>122.6</ele>
        <time>2015-05-05T19:27:12.147Z</time>
      </trkpt>
      <trkpt lat="48.87656" lon="2.3609">
        <ele>122.7</ele>
        <time>2015-05-05T19:27:13.153Z</time>
      </trkpt>
      <trkpt lat="48.87649" lon="2.36088">
        <ele>123</ele>
        <time>2015-05-05T19:27:14.149Z</time>
      </trkpt>
      <trkpt lat="48.87642" lon="2.36086">
        <ele>123</ele>
        <time>2015-05-05T19:27:15.161Z</time>
      </trkpt>
      <trkpt lat="48.87636" lon="2.36082">
        <ele>122.7</ele>
        <time>2015-05-05T19:27:16.416Z</time>
      </trkpt>
      <trkpt lat="48.8763" lon="2.36079">
        <ele>122.9</ele>
        <time>2015-05-05T19:27:17.079Z</time>
      </trkpt>
      <trkpt lat="48.87624" lon="2.36074">
        <ele>123.2</ele>
        <time>2015-05-05T19:27:18.083Z</time>
      </trkpt>
      <trkpt lat="48.87618" lon="2.3607">
        <ele>123.3</ele>
        <time>2015-05-05T19:27:19.094Z</time>
      </trkpt>
      <trkpt lat="48.87612" lon="2.36065">
        <ele>123.2</ele>
        <time>2015-05-05T19:27:20.096Z</time>
      </trkpt>
      <trkpt lat="48.87606" lon="2.36063">
        <ele>122.8</ele>
        <time>2015-05-05T19:27:21.110Z</time>
      </trkpt>
      <trkpt lat="48.876" lon="2.36059">
        <ele>122.8</ele>
        <time>2015-05-05T19:27:22.112Z</time>
      </trkpt>
      <trkpt lat="48.87594" lon="2.36055">
        <ele>122.9</ele>
        <time>2015-05-05T19:27:23.121Z</time>
      </trkpt>
      <trkpt lat="48.87588" lon="2.36051">
        <ele>122.7</ele>
        <time>2015-05-05T19:27:24.162Z</time>
      </trkpt>
      <trkpt lat="48.87584" lon="2.36045">
        <ele>122.5</ele>
        <time>2015-05-05T19:27:25.053Z</time>
      </trkpt>
      <trkpt lat="48.8758" lon="2.3604">
        <ele>122</ele>
        <time>2015-05-05T19:27:26.071Z</time>
      </trkpt>
      <trkpt lat="48.87576" lon="2.36035">
        <ele>121.2</ele>
        <time>2015-05-05T19:27:27.075Z</time>
      </trkpt>
      <trkpt lat="48.87573" lon="2.3603">
        <ele>120.7</ele>
        <time>2015-05-05T19:27:28.112Z</time>
      </trkpt>
      <trkpt lat="48.87569" lon="2.36024">
        <ele>120.2</ele>
        <time>2015-05-05T19:27:29.285Z</time>
      </trkpt>
      <trkpt lat="48.87565" lon="2.36019">
        <ele>119.7</ele>
        <time>2015-05-05T19:27:30.130Z</time>
      </trkpt>
      <trkpt lat="48.87562" lon="2.36013">
        <ele>119.2</ele>
        <time>2015-05-05T19:27:31.137Z</time>
      </trkpt>
      <trkpt lat="48.87558" lon="2.36007">
        <ele>119</ele>
        <time>2015-05-05T19:27:32.066Z</time>
      </trkpt>
      <trkpt lat="48.87554" lon="2.36">
        <ele>118.8</ele>
        <time>2015-05-05T19:27:33.073Z</time>
      </trkpt>
      <trkpt lat="48.87551" lon="2.35995">
        <ele>118.7</ele>
        <time>2015-05-05T19:27:34.112Z</time>
      </trkpt>
      <trkpt lat="48.87547" lon="2.35989">
        <ele>118.3</ele>
        <time>2015-05-05T19:27:35.119Z</time>
      </trkpt>
      <trkpt lat="48.87545" lon="2.35983">
        <ele>118.3</ele>
        <time>2015-05-05T19:27:36.124Z</time>
      </trkpt>
      <trkpt lat="48.87542" lon="2.35976">
        <ele>117.9</ele>
        <time>2015-05-05T19:27:37.125Z</time>
      </trkpt>
      <trkpt lat="48.87538" lon="2.35969">
        <ele>117.1</ele>
        <time>2015-05-05T19:27:38.058Z</time>
      </trkpt>
      <trkpt lat="48.87534" lon="2.35962">
        <ele>116.9</ele>
        <time>2015-05-05T19:27:39.030Z</time>
      </trkpt>
      <trkpt lat="48.8753" lon="2.35954">
        <ele>116.5</ele>
        <time>2015-05-05T19:27:40.102Z</time>
      </trkpt>
      <trkpt lat="48.87528" lon="2.35946">
        <ele>115.3</ele>
        <time>2015-05-05T19:27:41.101Z</time>
      </trkpt>
      <trkpt lat="48.87525" lon="2.35939">
        <ele>115.1</ele>
        <time>2015-05-05T19:27:42.098Z</time>
      </trkpt>
      <trkpt lat="48.87522" lon="2.35932">
        <ele>115</ele>
        <time>2015-05-05T19:27:43.106Z</time>
      </trkpt>
      <trkpt lat="48.87518" lon="2.35924">
        <ele>113.8</ele>
        <time>2015-05-05T19:27:44.111Z</time>
      </trkpt>
      <trkpt lat="48.87515" lon="2.35916">
        <ele>113.2</ele>
        <time>2015-05-05T19:27:45.110Z</time>
      </trkpt>
      <trkpt lat="48.87512" lon="2.35908">
        <ele>112.9</ele>
        <time>2015-05-05T19:27:46.113Z</time>
      </trkpt>
      <trkpt lat="48.87508" lon="2.35902">
        <ele>112.7</ele>
        <time>2015-05-05T19:27:47.127Z</time>
      </trkpt>
      <trkpt lat="48.87503" lon="2.35897">
        <ele>112.4</ele>
        <time>2015-05-05T19:27:48.141Z</time>
      </trkpt>
      <trkpt lat="48.87497" lon="2.35893">
        <ele>112.2</ele>
        <time>2015-05-05T19:27:49.071Z</time>
      </trkpt>
      <trkpt lat="48.87492" lon="2.3589">
        <ele>112.1</ele>
        <time>2015-05-05T19:27:50.101Z</time>
      </trkpt>
      <trkpt lat="48.87485" lon="2.35888">
        <ele>112.3</ele>
        <time>2015-05-05T19:27:51.126Z</time>
      </trkpt>
      <trkpt lat="48.87479" lon="2.35885">
        <ele>112.4</ele>
        <time>2015-05-05T19:27:52.149Z</time>
      </trkpt>
      <trkpt lat="48.87474" lon="2.35881">
        <ele>112.4</ele>
        <time>2015-05-05T19:27:53.064Z</time>
      </trkpt>
      <trkpt lat="48.87468" lon="2.35878">
        <ele>112.6</ele>
        <time>2015-05-05T19:27:54.079Z</time>
      </trkpt>
      <trkpt lat="48.87461" lon="2.35874">
        <ele>112.6</ele>
        <time>2015-05-05T19:27:55.115Z</time>
      </trkpt>
      <trkpt lat="48.87455" lon="2.35871">
        <ele>112.8</ele>
        <time>2015-05-05T19:27:56.096Z</time>
      </trkpt>
      <trkpt lat="48.87449" lon="2.35867">
        <ele>112.9</ele>
        <time>2015-05-05T19:27:57.105Z</time>
      </trkpt>
      <trkpt lat="48.87443" lon="2.35864">
        <ele>113</ele>
        <time>2015-05-05T19:27:58.119Z</time>
      </trkpt>
      <trkpt lat="48.87436" lon="2.3586">
        <ele>113</ele>
        <time>2015-05-05T19:27:59.129Z</time>
      </trkpt>
      <trkpt lat="48.87431" lon="2.35856">
        <ele>113</ele>
        <time>2015-05-05T19:28:00.170Z</time>
      </trkpt>
      <trkpt lat="48.87425" lon="2.35853">
        <ele>113</ele>
        <time>2015-05-05T19:28:01.068Z</time>
      </trkpt>
      <trkpt lat="48.87419" lon="2.35849">
        <ele>112.9</ele>
        <time>2015-05-05T19:28:02.078Z</time>
      </trkpt>
      <trkpt lat="48.87413" lon="2.35846">
        <ele>113</ele>
        <time>2015-05-05T19:28:03.087Z</time>
      </trkpt>
      <trkpt lat="48.87408" lon="2.35844">
        <ele>112.7</ele>
        <time>2015-05-05T19:28:04.108Z</time>
      </trkpt>
      <trkpt lat="48.87403" lon="2.35842">
        <ele>112.4</ele>
        <time>2015-05-05T19:28:05.115Z</time>
      </trkpt>
      <trkpt lat="48.87398" lon="2.3584">
        <ele>112.3</ele>
        <time>2015-05-05T19:28:06.136Z</time>
      </trkpt>
      <trkpt lat="48.87393" lon="2.35839">
        <ele>112.1</ele>
        <time>2015-05-05T19:28:07.150Z</time>
      </trkpt>
      <trkpt lat="48.87385" lon="2.35838">
        <ele>111.4</ele>
        <time>2015-05-05T19:28:10.131Z</time>
      </trkpt>
      <trkpt lat="48.87383" lon="2.35838">
        <ele>111.3</ele>
        <time>2015-05-05T19:28:11.127Z</time>
      </trkpt>
      <trkpt lat="48.8738" lon="2.35837">
        <ele>111.1</ele>
        <time>2015-05-05T19:28:14.079Z</time>
      </trkpt>
      <trkpt lat="48.87381" lon="2.35837">
        <ele>110.6</ele>
        <time>2015-05-05T19:28:15.076Z</time>
      </trkpt>
      <trkpt lat="48.87381" lon="2.35837">
        <ele>110.5</ele>
        <time>2015-05-05T19:28:24.125Z</time>
      </trkpt>
      <trkpt lat="48.87384" lon="2.35834">
        <ele>108.4</ele>
        <time>2015-05-05T19:28:25.155Z</time>
      </trkpt>
      <trkpt lat="48.87387" lon="2.35834">
        <ele>105.8</ele>
        <time>2015-05-05T19:28:29.079Z</time>
      </trkpt>
      <trkpt lat="48.87387" lon="2.35835">
        <ele>106</ele>
        <time>2015-05-05T19:28:30.092Z</time>
      </trkpt>
      <trkpt lat="48.87386" lon="2.35837">
        <ele>106.3</ele>
        <time>2015-05-05T19:28:33.175Z</time>
      </trkpt>
      <trkpt lat="48.87385" lon="2.35837">
        <ele>107.8</ele>
        <time>2015-05-05T19:28:34.192Z</time>
      </trkpt>
      <trkpt lat="48.87384" lon="2.35838">
        <ele>108.6</ele>
        <time>2015-05-05T19:28:36.098Z</time>
      </trkpt>
      <trkpt lat="48.87384" lon="2.35838">
        <ele>108.8</ele>
        <time>2015-05-05T19:28:37.094Z</time>
      </trkpt>
      <trkpt lat="48.87384" lon="2.35838">
        <ele>108.9</ele>
        <time>2015-05-05T19:28:38.148Z</time>
      </trkpt>
      <trkpt lat="48.87377" lon="2.3584">
        <ele>109.7</ele>
        <time>2015-05-05T19:28:58.191Z</time>
      </trkpt>
      <trkpt lat="48.87375" lon="2.3584">
        <ele>109.8</ele>
        <time>2015-05-05T19:28:59.098Z</time>
      </trkpt>
      <trkpt lat="48.87369" lon="2.35841">
        <ele>109.2</ele>
        <time>2015-05-05T19:29:01.149Z</time>
      </trkpt>
      <trkpt lat="48.87364" lon="2.35837">
        <ele>108.6</ele>
        <time>2015-05-05T19:29:02.095Z</time>
      </trkpt>
      <trkpt lat="48.87357" lon="2.35833">
        <ele>108.2</ele>
        <time>2015-05-05T19:29:04.139Z</time>
      </trkpt>
      <trkpt lat="48.87353" lon="2.35831">
        <ele>108</ele>
        <time>2015-05-05T19:29:05.070Z</time>
      </trkpt>
      <trkpt lat="48.87346" lon="2.35825">
        <ele>107.7</ele>
        <time>2015-05-05T19:29:07.086Z</time>
      </trkpt>
      <trkpt lat="48.87341" lon="2.35823">
        <ele>107.6</ele>
        <time>2015-05-05T19:29:08.126Z</time>
      </trkpt>
      <trkpt lat="48.87336" lon="2.35821">
        <ele>107.3</ele>
        <time>2015-05-05T19:29:09.148Z</time>
      </trkpt>
      <trkpt lat="48.87332" lon="2.35819">
        <ele>107.2</ele>
        <time>2015-05-05T19:29:10.155Z</time>
      </trkpt>
      <trkpt lat="48.87326" lon="2.35817">
        <ele>107</ele>
        <time>2015-05-05T19:29:11.038Z</time>
      </trkpt>
      <trkpt lat="48.87322" lon="2.35813">
        <ele>106.9</ele>
        <time>2015-05-05T19:29:12.043Z</time>
      </trkpt>
      <trkpt lat="48.87317" lon="2.35809">
        <ele>106.7</ele>
        <time>2015-05-05T19:29:13.060Z</time>
      </trkpt>
      <trkpt lat="48.87312" lon="2.35806">
        <ele>106.7</ele>
        <time>2015-05-05T19:29:14.088Z</time>
      </trkpt>
      <trkpt lat="48.87306" lon="2.35803">
        <ele>106.5</ele>
        <time>2015-05-05T19:29:15.107Z</time>
      </trkpt>
      <trkpt lat="48.87301" lon="2.358">
        <ele>106.2</ele>
        <time>2015-05-05T19:29:16.118Z</time>
      </trkpt>
      <trkpt lat="48.87295" lon="2.35798">
        <ele>106.2</ele>
        <time>2015-05-05T19:29:17.039Z</time>
      </trkpt>
      <trkpt lat="48.8729" lon="2.35796">
        <ele>106.1</ele>
        <time>2015-05-05T19:29:18.067Z</time>
      </trkpt>
      <trkpt lat="48.87284" lon="2.35793">
        <ele>106.1</ele>
        <time>2015-05-05T19:29:19.078Z</time>
      </trkpt>
      <trkpt lat="48.87279" lon="2.35789">
        <ele>105.9</ele>
        <time>2015-05-05T19:29:20.097Z</time>
      </trkpt>
      <trkpt lat="48.87275" lon="2.35784">
        <ele>105.8</ele>
        <time>2015-05-05T19:29:21.064Z</time>
      </trkpt>
      <trkpt lat="48.8727" lon="2.3578">
        <ele>105.5</ele>
        <time>2015-05-05T19:29:22.115Z</time>
      </trkpt>
      <trkpt lat="48.87265" lon="2.35777">
        <ele>105.3</ele>
        <time>2015-05-05T19:29:23.155Z</time>
      </trkpt>
      <trkpt lat="48.8726" lon="2.35774">
        <ele>105.1</ele>
        <time>2015-05-05T19:29:24.074Z</time>
      </trkpt>
      <trkpt lat="48.87256" lon="2.35771">
        <ele>105.1</ele>
        <time>2015-05-05T19:29:25.070Z</time>
      </trkpt>
      <trkpt lat="48.87251" lon="2.35768">
        <ele>105.1</ele>
        <time>2015-05-05T19:29:26.109Z</time>
      </trkpt>
      <trkpt lat="48.87246" lon="2.35766">
        <ele>105.1</ele>
        <time>2015-05-05T19:29:27.148Z</time>
      </trkpt>
      <trkpt lat="48.8724" lon="2.35764">
        <ele>105.1</ele>
        <time>2015-05-05T19:29:28.151Z</time>
      </trkpt>
      <trkpt lat="48.87234" lon="2.35762">
        <ele>105.3</ele>
        <time>2015-05-05T19:29:29.065Z</time>
      </trkpt>
      <trkpt lat="48.87228" lon="2.3576">
        <ele>105.5</ele>
        <time>2015-05-05T19:29:30.142Z</time>
      </trkpt>
      <trkpt lat="48.87221" lon="2.35757">
        <ele>105.8</ele>
        <time>2015-05-05T19:29:31.156Z</time>
      </trkpt>
      <trkpt lat="48.87215" lon="2.35752">
        <ele>105.8</ele>
        <time>2015-05-05T19:29:32.150Z</time>
      </trkpt>
      <trkpt lat="48.8721" lon="2.35748">
        <ele>105.8</ele>
        <time>2015-05-05T19:29:33.057Z</time>
      </trkpt>
      <trkpt lat="48.87205" lon="2.35743">
        <ele>105.9</ele>
        <time>2015-05-05T19:29:34.084Z</time>
      </trkpt>
      <trkpt lat="48.872" lon="2.3574">
        <ele>106.2</ele>
        <time>2015-05-05T19:29:35.081Z</time>
      </trkpt>
      <trkpt lat="48.87195" lon="2.35737">
        <ele>106.1</ele>
        <time>2015-05-05T19:29:36.092Z</time>
      </trkpt>
      <trkpt lat="48.87189" lon="2.35734">
        <ele>106.1</ele>
        <time>2015-05-05T19:29:37.118Z</time>
      </trkpt>
      <trkpt lat="48.87184" lon="2.35731">
        <ele>106.1</ele>
        <time>2015-05-05T19:29:38.136Z</time>
      </trkpt>
      <trkpt lat="48.87178" lon="2.35727">
        <ele>106</ele>
        <time>2015-05-05T19:29:39.029Z</time>
      </trkpt>
      <trkpt lat="48.87173" lon="2.35724">
        <ele>105.8</ele>
        <time>2015-05-05T19:29:40.068Z</time>
      </trkpt>
      <trkpt lat="48.87168" lon="2.3572">
        <ele>105.7</ele>
        <time>2015-05-05T19:29:41.074Z</time>
      </trkpt>
      <trkpt lat="48.87163" lon="2.35717">
        <ele>105.7</ele>
        <time>2015-05-05T19:29:42.110Z</time>
      </trkpt>
      <trkpt lat="48.87157" lon="2.35714">
        <ele>105.5</ele>
        <time>2015-05-05T19:29:43.114Z</time>
      </trkpt>
      <trkpt lat="48.87151" lon="2.35711">
        <ele>105.4</ele>
        <time>2015-05-05T19:29:44.121Z</time>
      </trkpt>
      <trkpt lat="48.87145" lon="2.35708">
        <ele>105.5</ele>
        <time>2015-05-05T19:29:45.030Z</time>
      </trkpt>
      <trkpt lat="48.87139" lon="2.35704">
        <ele>105.3</ele>
        <time>2015-05-05T19:29:46.069Z</time>
      </trkpt>
      <trkpt lat="48.87134" lon="2.35699">
        <ele>105.2</ele>
        <time>2015-05-05T19:29:47.077Z</time>
      </trkpt>
      <trkpt lat="48.87129" lon="2.35696">
        <ele>105.1</ele>
        <time>2015-05-05T19:29:48.102Z</time>
      </trkpt>
      <trkpt lat="48.87123" lon="2.35691">
        <ele>105.2</ele>
        <time>2015-05-05T19:29:49.123Z</time>
      </trkpt>
      <trkpt lat="48.87118" lon="2.35687">
        <ele>105.2</ele>
        <time>2015-05-05T19:29:50.029Z</time>
      </trkpt>
      <trkpt lat="48.87113" lon="2.35684">
        <ele>105.4</ele>
        <time>2015-05-05T19:29:51.091Z</time>
      </trkpt>
      <trkpt lat="48.87108" lon="2.35682">
        <ele>105.4</ele>
        <time>2015-05-05T19:29:52.097Z</time>
      </trkpt>
      <trkpt lat="48.87103" lon="2.3568">
        <ele>105.3</ele>
        <time>2015-05-05T19:29:53.031Z</time>
      </trkpt>
      <trkpt lat="48.87098" lon="2.35677">
        <ele>105.3</ele>
        <time>2015-05-05T19:29:54.042Z</time>
      </trkpt>
      <trkpt lat="48.87094" lon="2.35674">
        <ele>105.2</ele>
        <time>2015-05-05T19:29:55.058Z</time>
      </trkpt>
      <trkpt lat="48.87089" lon="2.3567">
        <ele>105.2</ele>
        <time>2015-05-05T19:29:56.063Z</time>
      </trkpt>
      <trkpt lat="48.87085" lon="2.35667">
        <ele>105.3</ele>
        <time>2015-05-05T19:29:57.089Z</time>
      </trkpt>
      <trkpt lat="48.8708" lon="2.35666">
        <ele>105.4</ele>
        <time>2015-05-05T19:29:58.101Z</time>
      </trkpt>
      <trkpt lat="48.87075" lon="2.35664">
        <ele>105.6</ele>
        <time>2015-05-05T19:29:59.114Z</time>
      </trkpt>
      <trkpt lat="48.8707" lon="2.35661">
        <ele>105.6</ele>
        <time>2015-05-05T19:30:00.019Z</time>
      </trkpt>
      <trkpt lat="48.87065" lon="2.35658">
        <ele>105.7</ele>
        <time>2015-05-05T19:30:01.135Z</time>
      </trkpt>
      <trkpt lat="48.8706" lon="2.35655">
        <ele>105.6</ele>
        <time>2015-05-05T19:30:02.039Z</time>
      </trkpt>
      <trkpt lat="48.87055" lon="2.35652">
        <ele>105.5</ele>
        <time>2015-05-05T19:30:03.055Z</time>
      </trkpt>
      <trkpt lat="48.87049" lon="2.35649">
        <ele>105.5</ele>
        <time>2015-05-05T19:30:04.100Z</time>
      </trkpt>
      <trkpt lat="48.87044" lon="2.35645">
        <ele>105.6</ele>
        <time>2015-05-05T19:30:05.107Z</time>
      </trkpt>
      <trkpt lat="48.87039" lon="2.35642">
        <ele>105.6</ele>
        <time>2015-05-05T19:30:06.116Z</time>
      </trkpt>
      <trkpt lat="48.87033" lon="2.35638">
        <ele>105.6</ele>
        <time>2015-05-05T19:30:07.155Z</time>
      </trkpt>
      <trkpt lat="48.87028" lon="2.35635">
        <ele>105.8</ele>
        <time>2015-05-05T19:30:08.049Z</time>
      </trkpt>
      <trkpt lat="48.87022" lon="2.35632">
        <ele>106.2</ele>
        <time>2015-05-05T19:30:09.071Z</time>
      </trkpt>
      <trkpt lat="48.87017" lon="2.35629">
        <ele>106.5</ele>
        <time>2015-05-05T19:30:10.111Z</time>
      </trkpt>
      <trkpt lat="48.87011" lon="2.35626">
        <ele>106.5</ele>
        <time>2015-05-05T19:30:11.123Z</time>
      </trkpt>
      <trkpt lat="48.87005" lon="2.35623">
        <ele>106.6</ele>
        <time>2015-05-05T19:30:12.125Z</time>
      </trkpt>
      <trkpt lat="48.86999" lon="2.3562">
        <ele>106.8</ele>
        <time>2015-05-05T19:30:13.052Z</time>
      </trkpt>
      <trkpt lat="48.86994" lon="2.35617">
        <ele>107</ele>
        <time>2015-05-05T19:30:14.046Z</time>
      </trkpt>
      <trkpt lat="48.86988" lon="2.35614">
        <ele>107.3</ele>
        <time>2015-05-05T19:30:15.062Z</time>
      </trkpt>
      <trkpt lat="48.86982" lon="2.3561">
        <ele>107.3</ele>
        <time>2015-05-05T19:30:16.091Z</time>
      </trkpt>
      <trkpt lat="48.86977" lon="2.35606">
        <ele>107.3</ele>
        <time>2015-05-05T19:30:17.108Z</time>
      </trkpt>
      <trkpt lat="48.86971" lon="2.35602">
        <ele>107.3</ele>
        <time>2015-05-05T19:30:18.117Z</time>
      </trkpt>
      <trkpt lat="48.86966" lon="2.35599">
        <ele>107.2</ele>
        <time>2015-05-05T19:30:19.126Z</time>
      </trkpt>
      <trkpt lat="48.86961" lon="2.35596">
        <ele>107.1</ele>
        <time>2015-05-05T19:30:20.126Z</time>
      </trkpt>
      <trkpt lat="48.86956" lon="2.35593">
        <ele>107.3</ele>
        <time>2015-05-05T19:30:21.139Z</time>
      </trkpt>
      <trkpt lat="48.86951" lon="2.3559">
        <ele>107.4</ele>
        <time>2015-05-05T19:30:22.163Z</time>
      </trkpt>
      <trkpt lat="48.86946" lon="2.35587">
        <ele>107.5</ele>
        <time>2015-05-05T19:30:23.054Z</time>
      </trkpt>
      <trkpt lat="48.86942" lon="2.35586">
        <ele>107.4</ele>
        <time>2015-05-05T19:30:24.064Z</time>
      </trkpt>
      <trkpt lat="48.86937" lon="2.35584">
        <ele>107.5</ele>
        <time>2015-05-05T19:30:25.078Z</time>
      </trkpt>
      <trkpt lat="48.86932" lon="2.35582">
        <ele>107.8</ele>
        <time>2015-05-05T19:30:26.084Z</time>
      </trkpt>
      <trkpt lat="48.86925" lon="2.35578">
        <ele>108</ele>
        <time>2015-05-05T19:30:28.109Z</time>
      </trkpt>
      <trkpt lat="48.86922" lon="2.35576">
        <ele>108.1</ele>
        <time>2015-05-05T19:30:29.147Z</time>
      </trkpt>
      <trkpt lat="48.86917" lon="2.35567">
        <ele>107.6</ele>
        <time>2015-05-05T19:30:31.105Z</time>
      </trkpt>
      <trkpt lat="48.86915" lon="2.35561">
        <ele>107.1</ele>
        <time>2015-05-05T19:30:32.115Z</time>
      </trkpt>
      <trkpt lat="48.86911" lon="2.35552">
        <ele>106.7</ele>
        <time>2015-05-05T19:30:34.139Z</time>
      </trkpt>
      <trkpt lat="48.8691" lon="2.35549">
        <ele>106.6</ele>
        <time>2015-05-05T19:30:35.059Z</time>
      </trkpt>
      <trkpt lat="48.86906" lon="2.35546">
        <ele>105.9</ele>
        <time>2015-05-05T19:30:39.090Z</time>
      </trkpt>
      <trkpt lat="48.86906" lon="2.35547">
        <ele>105.7</ele>
        <time>2015-05-05T19:30:40.152Z</time>
      </trkpt>
      <trkpt lat="48.86908" lon="2.35547">
        <ele>105.5</ele>
        <time>2015-05-05T19:30:41.149Z</time>
      </trkpt>
      <trkpt lat="48.86908" lon="2.35545">
        <ele>105.2</ele>
        <time>2015-05-05T19:30:44.071Z</time>
      </trkpt>
      <trkpt lat="48.86908" lon="2.35544">
        <ele>105.1</ele>
        <time>2015-05-05T19:30:45.072Z</time>
      </trkpt>
      <trkpt lat="48.86908" lon="2.35543">
        <ele>105.3</ele>
        <time>2015-05-05T19:30:46.120Z</time>
      </trkpt>
      <trkpt lat="48.86908" lon="2.35544">
        <ele>105.8</ele>
        <time>2015-05-05T19:30:47.126Z</time>
      </trkpt>
      <trkpt lat="48.86909" lon="2.35543">
        <ele>105.9</ele>
        <time>2015-05-05T19:30:48.131Z</time>
      </trkpt>
      <trkpt lat="48.86905" lon="2.35545">
        <ele>105.8</ele>
        <time>2015-05-05T19:30:57.072Z</time>
      </trkpt>
      <trkpt lat="48.86899" lon="2.35543">
        <ele>105.3</ele>
        <time>2015-05-05T19:30:58.133Z</time>
      </trkpt>
      <trkpt lat="48.86892" lon="2.3554">
        <ele>104.7</ele>
        <time>2015-05-05T19:30:59.037Z</time>
      </trkpt>
      <trkpt lat="48.86887" lon="2.35538">
        <ele>104.6</ele>
        <time>2015-05-05T19:31:00.079Z</time>
      </trkpt>
      <trkpt lat="48.86882" lon="2.35535">
        <ele>104.4</ele>
        <time>2015-05-05T19:31:00.872Z</time>
      </trkpt>
      <trkpt lat="48.86877" lon="2.35533">
        <ele>104.3</ele>
        <time>2015-05-05T19:31:02.103Z</time>
      </trkpt>
      <trkpt lat="48.86872" lon="2.35532">
        <ele>104.2</ele>
        <time>2015-05-05T19:31:03.665Z</time>
      </trkpt>
      <trkpt lat="48.86867" lon="2.3553">
        <ele>104</ele>
        <time>2015-05-05T19:31:04.167Z</time>
      </trkpt>
      <trkpt lat="48.86863" lon="2.35528">
        <ele>103.7</ele>
        <time>2015-05-05T19:31:05.045Z</time>
      </trkpt>
      <trkpt lat="48.86858" lon="2.35527">
        <ele>103.5</ele>
        <time>2015-05-05T19:31:06.120Z</time>
      </trkpt>
      <trkpt lat="48.86854" lon="2.35525">
        <ele>103.3</ele>
        <time>2015-05-05T19:31:07.137Z</time>
      </trkpt>
      <trkpt lat="48.86848" lon="2.35523">
        <ele>103</ele>
        <time>2015-05-05T19:31:08.050Z</time>
      </trkpt>
      <trkpt lat="48.86843" lon="2.35521">
        <ele>102.8</ele>
        <time>2015-05-05T19:31:09.071Z</time>
      </trkpt>
      <trkpt lat="48.86839" lon="2.35518">
        <ele>102.5</ele>
        <time>2015-05-05T19:31:10.096Z</time>
      </trkpt>
      <trkpt lat="48.86834" lon="2.35516">
        <ele>102.4</ele>
        <time>2015-05-05T19:31:11.109Z</time>
      </trkpt>
      <trkpt lat="48.86829" lon="2.35513">
        <ele>102.3</ele>
        <time>2015-05-05T19:31:12.125Z</time>
      </trkpt>
      <trkpt lat="48.86822" lon="2.35511">
        <ele>102.7</ele>
        <time>2015-05-05T19:31:13.141Z</time>
      </trkpt>
      <trkpt lat="48.86816" lon="2.3551">
        <ele>102.9</ele>
        <time>2015-05-05T19:31:14.061Z</time>
      </trkpt>
      <trkpt lat="48.8681" lon="2.35508">
        <ele>103</ele>
        <time>2015-05-05T19:31:15.055Z</time>
      </trkpt>
      <trkpt lat="48.86803" lon="2.35506">
        <ele>103</ele>
        <time>2015-05-05T19:31:16.086Z</time>
      </trkpt>
      <trkpt lat="48.86797" lon="2.35504">
        <ele>103</ele>
        <time>2015-05-05T19:31:17.050Z</time>
      </trkpt>
      <trkpt lat="48.86791" lon="2.35502">
        <ele>103.1</ele>
        <time>2015-05-05T19:31:18.046Z</time>
      </trkpt>
      <trkpt lat="48.86785" lon="2.355">
        <ele>103.2</ele>
        <time>2015-05-05T19:31:19.070Z</time>
      </trkpt>
      <trkpt lat="48.8678" lon="2.35497">
        <ele>103.3</ele>
        <time>2015-05-05T19:31:20.074Z</time>
      </trkpt>
      <trkpt lat="48.86775" lon="2.35495">
        <ele>103.4</ele>
        <time>2015-05-05T19:31:21.102Z</time>
      </trkpt>
      <trkpt lat="48.86769" lon="2.35492">
        <ele>103.4</ele>
        <time>2015-05-05T19:31:22.110Z</time>
      </trkpt>
      <trkpt lat="48.86764" lon="2.35489">
        <ele>103.4</ele>
        <time>2015-05-05T19:31:23.053Z</time>
      </trkpt>
      <trkpt lat="48.86759" lon="2.35487">
        <ele>103.3</ele>
        <time>2015-05-05T19:31:24.249Z</time>
      </trkpt>
      <trkpt lat="48.86753" lon="2.35486">
        <ele>103.2</ele>
        <time>2015-05-05T19:31:25.074Z</time>
      </trkpt>
      <trkpt lat="48.86746" lon="2.35485">
        <ele>103.2</ele>
        <time>2015-05-05T19:31:26.086Z</time>
      </trkpt>
      <trkpt lat="48.8674" lon="2.35483">
        <ele>103.4</ele>
        <time>2015-05-05T19:31:27.097Z</time>
      </trkpt>
      <trkpt lat="48.86735" lon="2.3548">
        <ele>103.4</ele>
        <time>2015-05-05T19:31:28.109Z</time>
      </trkpt>
      <trkpt lat="48.8673" lon="2.35476">
        <ele>103.4</ele>
        <time>2015-05-05T19:31:29.115Z</time>
      </trkpt>
      <trkpt lat="48.86725" lon="2.35473">
        <ele>103.3</ele>
        <time>2015-05-05T19:31:30.122Z</time>
      </trkpt>
      <trkpt lat="48.8672" lon="2.3547">
        <ele>103</ele>
        <time>2015-05-05T19:31:31.148Z</time>
      </trkpt>
      <trkpt lat="48.86713" lon="2.35469">
        <ele>103.2</ele>
        <time>2015-05-05T19:31:32.053Z</time>
      </trkpt>
      <trkpt lat="48.86707" lon="2.35467">
        <ele>103.3</ele>
        <time>2015-05-05T19:31:33.073Z</time>
      </trkpt>
      <trkpt lat="48.86701" lon="2.35465">
        <ele>103.4</ele>
        <time>2015-05-05T19:31:34.144Z</time>
      </trkpt>
      <trkpt lat="48.86695" lon="2.35462">
        <ele>103.1</ele>
        <time>2015-05-05T19:31:35.049Z</time>
      </trkpt>
      <trkpt lat="48.86691" lon="2.35458">
        <ele>102.9</ele>
        <time>2015-05-05T19:31:36.066Z</time>
      </trkpt>
      <trkpt lat="48.86685" lon="2.35455">
        <ele>102.7</ele>
        <time>2015-05-05T19:31:37.287Z</time>
      </trkpt>
      <trkpt lat="48.8668" lon="2.35452">
        <ele>103</ele>
        <time>2015-05-05T19:31:38.097Z</time>
      </trkpt>
      <trkpt lat="48.86674" lon="2.35448">
        <ele>103.7</ele>
        <time>2015-05-05T19:31:39.157Z</time>
      </trkpt>
      <trkpt lat="48.86667" lon="2.35445">
        <ele>104.6</ele>
        <time>2015-05-05T19:31:40.174Z</time>
      </trkpt>
      <trkpt lat="48.86663" lon="2.3544">
        <ele>104.9</ele>
        <time>2015-05-05T19:31:41.083Z</time>
      </trkpt>
      <trkpt lat="48.86658" lon="2.35435">
        <ele>105.2</ele>
        <time>2015-05-05T19:31:42.102Z</time>
      </trkpt>
      <trkpt lat="48.86654" lon="2.3543">
        <ele>105.4</ele>
        <time>2015-05-05T19:31:43.148Z</time>
      </trkpt>
      <trkpt lat="48.86649" lon="2.35426">
        <ele>105.6</ele>
        <time>2015-05-05T19:31:44.064Z</time>
      </trkpt>
      <trkpt lat="48.86645" lon="2.3542">
        <ele>105.8</ele>
        <time>2015-05-05T19:31:45.076Z</time>
      </trkpt>
      <trkpt lat="48.8664" lon="2.35415">
        <ele>106.1</ele>
        <time>2015-05-05T19:31:46.111Z</time>
      </trkpt>
      <trkpt lat="48.86636" lon="2.3541">
        <ele>106.3</ele>
        <time>2015-05-05T19:31:47.124Z</time>
      </trkpt>
      <trkpt lat="48.86631" lon="2.35406">
        <ele>106.1</ele>
        <time>2015-05-05T19:31:48.127Z</time>
      </trkpt>
      <trkpt lat="48.86627" lon="2.35403">
        <ele>106.2</ele>
        <time>2015-05-05T19:31:49.137Z</time>
      </trkpt>
      <trkpt lat="48.86623" lon="2.35399">
        <ele>106.2</ele>
        <time>2015-05-05T19:31:50.055Z</time>
      </trkpt>
      <trkpt lat="48.86619" lon="2.35396">
        <ele>106.2</ele>
        <time>2015-05-05T19:31:51.057Z</time>
      </trkpt>
      <trkpt lat="48.86614" lon="2.35393">
        <ele>106.2</ele>
        <time>2015-05-05T19:31:52.089Z</time>
      </trkpt>
      <trkpt lat="48.86608" lon="2.35386">
        <ele>106.1</ele>
        <time>2015-05-05T19:31:54.094Z</time>
      </trkpt>
      <trkpt lat="48.86605" lon="2.35382">
        <ele>106.2</ele>
        <time>2015-05-05T19:31:55.117Z</time>
      </trkpt>
      <trkpt lat="48.86599" lon="2.35377">
        <ele>106</ele>
        <time>2015-05-05T19:31:57.170Z</time>
      </trkpt>
      <trkpt lat="48.86596" lon="2.35375">
        <ele>106.2</ele>
        <time>2015-05-05T19:31:58.220Z</time>
      </trkpt>
      <trkpt lat="48.86593" lon="2.35384">
        <ele>105.7</ele>
        <time>2015-05-05T19:32:02.106Z</time>
      </trkpt>
      <trkpt lat="48.86592" lon="2.35389">
        <ele>105.6</ele>
        <time>2015-05-05T19:32:03.116Z</time>
      </trkpt>
      <trkpt lat="48.8659" lon="2.35401">
        <ele>105.3</ele>
        <time>2015-05-05T19:32:05.063Z</time>
      </trkpt>
      <trkpt lat="48.86589" lon="2.35408">
        <ele>105.2</ele>
        <time>2015-05-05T19:32:06.088Z</time>
      </trkpt>
      <trkpt lat="48.86587" lon="2.35414">
        <ele>105.1</ele>
        <time>2015-05-05T19:32:07.107Z</time>
      </trkpt>
      <trkpt lat="48.86585" lon="2.35421">
        <ele>104.9</ele>
        <time>2015-05-05T19:32:08.120Z</time>
      </trkpt>
      <trkpt lat="48.86586" lon="2.35427">
        <ele>104.7</ele>
        <time>2015-05-05T19:32:09.136Z</time>
      </trkpt>
      <trkpt lat="48.86586" lon="2.35434">
        <ele>104.4</ele>
        <time>2015-05-05T19:32:10.144Z</time>
      </trkpt>
      <trkpt lat="48.86588" lon="2.35445">
        <ele>101.9</ele>
        <time>2015-05-05T19:32:11.065Z</time>
      </trkpt>
      <trkpt lat="48.8659" lon="2.35458">
        <ele>98.7</ele>
        <time>2015-05-05T19:32:12.065Z</time>
      </trkpt>
      <trkpt lat="48.86593" lon="2.35467">
        <ele>97.4</ele>
        <time>2015-05-05T19:32:13.090Z</time>
      </trkpt>
      <trkpt lat="48.86594" lon="2.35476">
        <ele>96.2</ele>
        <time>2015-05-05T19:32:14.095Z</time>
      </trkpt>
      <trkpt lat="48.86593" lon="2.35483">
        <ele>96.3</ele>
        <time>2015-05-05T19:32:15.116Z</time>
      </trkpt>
      <trkpt lat="48.86591" lon="2.3549">
        <ele>96.4</ele>
        <time>2015-05-05T19:32:16.154Z</time>
      </trkpt>
      <trkpt lat="48.86589" lon="2.35497">
        <ele>96.6</ele>
        <time>2015-05-05T19:32:17.061Z</time>
      </trkpt>
      <trkpt lat="48.86586" lon="2.35503">
        <ele>96.5</ele>
        <time>2015-05-05T19:32:18.063Z</time>
      </trkpt>
      <trkpt lat="48.86579" lon="2.35511">
        <ele>96.1</ele>
        <time>2015-05-05T19:32:19.075Z</time>
      </trkpt>
      <trkpt lat="48.86574" lon="2.35517">
        <ele>95.8</ele>
        <time>2015-05-05T19:32:20.084Z</time>
      </trkpt>
      <trkpt lat="48.8657" lon="2.35522">
        <ele>95.5</ele>
        <time>2015-05-05T19:32:21.092Z</time>
      </trkpt>
      <trkpt lat="48.86567" lon="2.35527">
        <ele>95.3</ele>
        <time>2015-05-05T19:32:22.105Z</time>
      </trkpt>
      <trkpt lat="48.86563" lon="2.35535">
        <ele>95.3</ele>
        <time>2015-05-05T19:32:25.142Z</time>
      </trkpt>
      <trkpt lat="48.86561" lon="2.35538">
        <ele>95.5</ele>
        <time>2015-05-05T19:32:26.092Z</time>
      </trkpt>
      <trkpt lat="48.86559" lon="2.35549">
        <ele>95.6</ele>
        <time>2015-05-05T19:32:29.160Z</time>
      </trkpt>
      <trkpt lat="48.86559" lon="2.35555">
        <ele>94.9</ele>
        <time>2015-05-05T19:32:30.088Z</time>
      </trkpt>
      <trkpt lat="48.8656" lon="2.35566">
        <ele>93</ele>
        <time>2015-05-05T19:32:32.149Z</time>
      </trkpt>
      <trkpt lat="48.8656" lon="2.35571">
        <ele>92.3</ele>
        <time>2015-05-05T19:32:33.092Z</time>
      </trkpt>
      <trkpt lat="48.86552" lon="2.35574">
        <ele>91.1</ele>
        <time>2015-05-05T19:33:22.190Z</time>
      </trkpt>
      <trkpt lat="48.86552" lon="2.35585">
        <ele>88.9</ele>
        <time>2015-05-05T19:33:23.100Z</time>
      </trkpt>
      <trkpt lat="48.86557" lon="2.35594">
        <ele>88.7</ele>
        <time>2015-05-05T19:33:32.085Z</time>
      </trkpt>
      <trkpt lat="48.86557" lon="2.35596">
        <ele>88.9</ele>
        <time>2015-05-05T19:33:33.171Z</time>
      </trkpt>
      <trkpt lat="48.86558" lon="2.356">
        <ele>88.8</ele>
        <time>2015-05-05T19:33:55.103Z</time>
      </trkpt>
      <trkpt lat="48.86558" lon="2.356">
        <ele>88.8</ele>
        <time>2015-05-05T19:33:56.115Z</time>
      </trkpt>
      <trkpt lat="48.86558" lon="2.356">
        <ele>88.6</ele>
        <time>2015-05-05T19:34:27.098Z</time>
      </trkpt>
      <trkpt lat="48.86559" lon="2.35601">
        <ele>88.8</ele>
        <time>2015-05-05T19:34:28.130Z</time>
      </trkpt>
      <trkpt lat="48.86559" lon="2.356">
        <ele>88.6</ele>
        <time>2015-05-05T19:34:29.049Z</time>
      </trkpt>
      <trkpt lat="48.86559" lon="2.356">
        <ele>88.5</ele>
        <time>2015-05-05T19:34:30.072Z</time>
      </trkpt>
      <trkpt lat="48.86559" lon="2.356">
        <ele>88.4</ele>
        <time>2015-05-05T19:37:19.019Z</time>
      </trkpt>
      <trkpt lat="48.86563" lon="2.35597">
        <ele>91.2</ele>
        <time>2015-05-05T19:37:20.048Z</time>
      </trkpt>
      <trkpt lat="48.86563" lon="2.35597">
        <ele>91.3</ele>
        <time>2015-05-05T19:37:21.075Z</time>
      </trkpt>
      <trkpt lat="48.86563" lon="2.35597">
        <ele>91.2</ele>
        <time>2015-05-05T19:37:22.121Z</time>
      </trkpt>
      <trkpt lat="48.86562" lon="2.35597">
        <ele>91.1</ele>
        <time>2015-05-05T19:37:23.058Z</time>
      </trkpt>
      <trkpt lat="48.86562" lon="2.35597">
        <ele>91.2</ele>
        <time>2015-05-05T19:37:24.068Z</time>
      </trkpt>
      <trkpt lat="48.86562" lon="2.35597">
        <ele>90.9</ele>
        <time>2015-05-05T19:38:24.037Z</time>
      </trkpt>
      <trkpt lat="48.8656" lon="2.35598">
        <ele>93</ele>
        <time>2015-05-05T19:38:25.068Z</time>
      </trkpt>
      <trkpt lat="48.86559" lon="2.35597">
        <ele>93</ele>
        <time>2015-05-05T19:38:26.108Z</time>
      </trkpt>
      <trkpt lat="48.86559" lon="2.35596">
        <ele>92.7</ele>
        <time>2015-05-05T19:39:52.085Z</time>
      </trkpt>
      <trkpt lat="48.86559" lon="2.35595">
        <ele>94.6</ele>
        <time>2015-05-05T19:39:53.198Z</time>
      </trkpt>
      <trkpt lat="48.86559" lon="2.35594">
        <ele>94.7</ele>
        <time>2015-05-05T19:39:54.030Z</time>
      </trkpt>
      <trkpt lat="48.86559" lon="2.35594">
        <ele>94.8</ele>
        <time>2015-05-05T19:39:55.038Z</time>
      </trkpt>
      <trkpt lat="48.86559" lon="2.35594">
        <ele>94.8</ele>
        <time>2015-05-05T19:40:08.044Z</time>
      </trkpt>
      <trkpt lat="48.86558" lon="2.35594">
        <ele>94.9</ele>
        <time>2015-05-05T19:40:09.046Z</time>
      </trkpt>
      <trkpt lat="48.86552" lon="2.35586">
        <ele>94.3</ele>
        <time>2015-05-05T19:40:16.103Z</time>
      </trkpt>
      <trkpt lat="48.86551" lon="2.35584">
        <ele>94.1</ele>
        <time>2015-05-05T19:40:17.112Z</time>
      </trkpt>
      <trkpt lat="48.86546" lon="2.35574">
        <ele>94.1</ele>
        <time>2015-05-05T19:40:23.348Z</time>
      </trkpt>
      <trkpt lat="48.86545" lon="2.35573">
        <ele>94.1</ele>
        <time>2015-05-05T19:40:24.100Z</time>
      </trkpt>
      <trkpt lat="48.86545" lon="2.35573">
        <ele>94.1</ele>
        <time>2015-05-05T19:40:26.153Z</time>
      </trkpt>
      <trkpt lat="48.86545" lon="2.35574">
        <ele>94</ele>
        <time>2015-05-05T19:40:27.026Z</time>
      </trkpt>
      <trkpt lat="48.86545" lon="2.35574">
        <ele>94</ele>
        <time>2015-05-05T19:40:35.078Z</time>
      </trkpt>
      <trkpt lat="48.86543" lon="2.35574">
        <ele>94.2</ele>
        <time>2015-05-05T19:40:36.189Z</time>
      </trkpt>
      <trkpt lat="48.86537" lon="2.35571">
        <ele>94.1</ele>
        <time>2015-05-05T19:40:39.066Z</time>
      </trkpt>
      <trkpt lat="48.86533" lon="2.35568">
        <ele>93.8</ele>
        <time>2015-05-05T19:40:40.106Z</time>
      </trkpt>
      <trkpt lat="48.86526" lon="2.35563">
        <ele>93.6</ele>
        <time>2015-05-05T19:40:42.045Z</time>
      </trkpt>
      <trkpt lat="48.86522" lon="2.35561">
        <ele>93.7</ele>
        <time>2015-05-05T19:40:43.060Z</time>
      </trkpt>
      <trkpt lat="48.86514" lon="2.35555">
        <ele>93.6</ele>
        <time>2015-05-05T19:40:45.091Z</time>
      </trkpt>
      <trkpt lat="48.8651" lon="2.35552">
        <ele>93.6</ele>
        <time>2015-05-05T19:40:46.128Z</time>
      </trkpt>
      <trkpt lat="48.86505" lon="2.3555">
        <ele>93.7</ele>
        <time>2015-05-05T19:40:47.028Z</time>
      </trkpt>
      <trkpt lat="48.86499" lon="2.35548">
        <ele>93.6</ele>
        <time>2015-05-05T19:40:48.026Z</time>
      </trkpt>
      <trkpt lat="48.86494" lon="2.35548">
        <ele>93.7</ele>
        <time>2015-05-05T19:40:49.063Z</time>
      </trkpt>
      <trkpt lat="48.86489" lon="2.35547">
        <ele>93.8</ele>
        <time>2015-05-05T19:40:50.123Z</time>
      </trkpt>
      <trkpt lat="48.86484" lon="2.35545">
        <ele>93.8</ele>
        <time>2015-05-05T19:40:51.040Z</time>
      </trkpt>
      <trkpt lat="48.86479" lon="2.35543">
        <ele>93.9</ele>
        <time>2015-05-05T19:40:52.071Z</time>
      </trkpt>
      <trkpt lat="48.86474" lon="2.3554">
        <ele>93.9</ele>
        <time>2015-05-05T19:40:53.159Z</time>
      </trkpt>
      <trkpt lat="48.86469" lon="2.35538">
        <ele>94</ele>
        <time>2015-05-05T19:40:54.045Z</time>
      </trkpt>
      <trkpt lat="48.86463" lon="2.35535">
        <ele>93.9</ele>
        <time>2015-05-05T19:40:55.086Z</time>
      </trkpt>
      <trkpt lat="48.86457" lon="2.35533">
        <ele>93.9</ele>
        <time>2015-05-05T19:40:56.055Z</time>
      </trkpt>
      <trkpt lat="48.86452" lon="2.3553">
        <ele>93.9</ele>
        <time>2015-05-05T19:40:57.034Z</time>
      </trkpt>
      <trkpt lat="48.86447" lon="2.35527">
        <ele>93.9</ele>
        <time>2015-05-05T19:40:58.068Z</time>
      </trkpt>
      <trkpt lat="48.86441" lon="2.35524">
        <ele>93.9</ele>
        <time>2015-05-05T19:40:59.068Z</time>
      </trkpt>
      <trkpt lat="48.86436" lon="2.35521">
        <ele>93.9</ele>
        <time>2015-05-05T19:41:00.080Z</time>
      </trkpt>
      <trkpt lat="48.86431" lon="2.35518">
        <ele>94</ele>
        <time>2015-05-05T19:41:01.086Z</time>
      </trkpt>
      <trkpt lat="48.86426" lon="2.35516">
        <ele>93.9</ele>
        <time>2015-05-05T19:41:02.107Z</time>
      </trkpt>
      <trkpt lat="48.86421" lon="2.35513">
        <ele>94</ele>
        <time>2015-05-05T19:41:03.039Z</time>
      </trkpt>
      <trkpt lat="48.86416" lon="2.3551">
        <ele>93.9</ele>
        <time>2015-05-05T19:41:04.105Z</time>
      </trkpt>
      <trkpt lat="48.86411" lon="2.35506">
        <ele>93.9</ele>
        <time>2015-05-05T19:41:05.130Z</time>
      </trkpt>
      <trkpt lat="48.86406" lon="2.35503">
        <ele>93.9</ele>
        <time>2015-05-05T19:41:06.034Z</time>
      </trkpt>
      <trkpt lat="48.86401" lon="2.35501">
        <ele>94</ele>
        <time>2015-05-05T19:41:07.047Z</time>
      </trkpt>
      <trkpt lat="48.86396" lon="2.35498">
        <ele>94</ele>
        <time>2015-05-05T19:41:08.059Z</time>
      </trkpt>
      <trkpt lat="48.86391" lon="2.35495">
        <ele>94.1</ele>
        <time>2015-05-05T19:41:09.070Z</time>
      </trkpt>
      <trkpt lat="48.86385" lon="2.35493">
        <ele>93.9</ele>
        <time>2015-05-05T19:41:10.103Z</time>
      </trkpt>
      <trkpt lat="48.8638" lon="2.3549">
        <ele>93.9</ele>
        <time>2015-05-05T19:41:11.119Z</time>
      </trkpt>
      <trkpt lat="48.86375" lon="2.35486">
        <ele>94.1</ele>
        <time>2015-05-05T19:41:12.030Z</time>
      </trkpt>
      <trkpt lat="48.8637" lon="2.35482">
        <ele>94.2</ele>
        <time>2015-05-05T19:41:13.047Z</time>
      </trkpt>
      <trkpt lat="48.86366" lon="2.35478">
        <ele>94.4</ele>
        <time>2015-05-05T19:41:14.050Z</time>
      </trkpt>
      <trkpt lat="48.86361" lon="2.35474">
        <ele>94.5</ele>
        <time>2015-05-05T19:41:15.111Z</time>
      </trkpt>
      <trkpt lat="48.86355" lon="2.35472">
        <ele>94.7</ele>
        <time>2015-05-05T19:41:16.125Z</time>
      </trkpt>
      <trkpt lat="48.86351" lon="2.35467">
        <ele>94.6</ele>
        <time>2015-05-05T19:41:17.018Z</time>
      </trkpt>
      <trkpt lat="48.86347" lon="2.35463">
        <ele>94.5</ele>
        <time>2015-05-05T19:41:18.029Z</time>
      </trkpt>
      <trkpt lat="48.86343" lon="2.35458">
        <ele>94.2</ele>
        <time>2015-05-05T19:41:19.037Z</time>
      </trkpt>
      <trkpt lat="48.86339" lon="2.35453">
        <ele>94.2</ele>
        <time>2015-05-05T19:41:20.037Z</time>
      </trkpt>
      <trkpt lat="48.86334" lon="2.35448">
        <ele>94.2</ele>
        <time>2015-05-05T19:41:21.043Z</time>
      </trkpt>
      <trkpt lat="48.86329" lon="2.35445">
        <ele>94.2</ele>
        <time>2015-05-05T19:41:22.088Z</time>
      </trkpt>
      <trkpt lat="48.86325" lon="2.35439">
        <ele>94.3</ele>
        <time>2015-05-05T19:41:23.077Z</time>
      </trkpt>
      <trkpt lat="48.86321" lon="2.35434">
        <ele>94.2</ele>
        <time>2015-05-05T19:41:24.087Z</time>
      </trkpt>
      <trkpt lat="48.86317" lon="2.35429">
        <ele>94.1</ele>
        <time>2015-05-05T19:41:25.099Z</time>
      </trkpt>
      <trkpt lat="48.86313" lon="2.35425">
        <ele>94</ele>
        <time>2015-05-05T19:41:26.114Z</time>
      </trkpt>
      <trkpt lat="48.86309" lon="2.35421">
        <ele>94</ele>
        <time>2015-05-05T19:41:27.059Z</time>
      </trkpt>
      <trkpt lat="48.86305" lon="2.35416">
        <ele>94</ele>
        <time>2015-05-05T19:41:28.128Z</time>
      </trkpt>
      <trkpt lat="48.86298" lon="2.35409">
        <ele>93.9</ele>
        <time>2015-05-05T19:41:30.113Z</time>
      </trkpt>
      <trkpt lat="48.86294" lon="2.35406">
        <ele>93.6</ele>
        <time>2015-05-05T19:41:31.063Z</time>
      </trkpt>
      <trkpt lat="48.86287" lon="2.35401">
        <ele>93.1</ele>
        <time>2015-05-05T19:41:33.027Z</time>
      </trkpt>
      <trkpt lat="48.86283" lon="2.35398">
        <ele>92.8</ele>
        <time>2015-05-05T19:41:34.124Z</time>
      </trkpt>
      <trkpt lat="48.86278" lon="2.35398">
        <ele>92.9</ele>
        <time>2015-05-05T19:41:35.057Z</time>
      </trkpt>
      <trkpt lat="48.86271" lon="2.35404">
        <ele>93.7</ele>
        <time>2015-05-05T19:41:36.065Z</time>
      </trkpt>
      <trkpt lat="48.86266" lon="2.35405">
        <ele>94</ele>
        <time>2015-05-05T19:41:37.086Z</time>
      </trkpt>
      <trkpt lat="48.8626" lon="2.35407">
        <ele>94.4</ele>
        <time>2015-05-05T19:41:38.093Z</time>
      </trkpt>
      <trkpt lat="48.86252" lon="2.35403">
        <ele>94.5</ele>
        <time>2015-05-05T19:41:40.134Z</time>
      </trkpt>
      <trkpt lat="48.86248" lon="2.354">
        <ele>94.3</ele>
        <time>2015-05-05T19:41:41.095Z</time>
      </trkpt>
      <trkpt lat="48.8624" lon="2.35395">
        <ele>93.9</ele>
        <time>2015-05-05T19:41:43.096Z</time>
      </trkpt>
      <trkpt lat="48.86236" lon="2.35392">
        <ele>94.2</ele>
        <time>2015-05-05T19:41:44.094Z</time>
      </trkpt>
      <trkpt lat="48.8623" lon="2.35391">
        <ele>94.5</ele>
        <time>2015-05-05T19:41:45.178Z</time>
      </trkpt>
      <trkpt lat="48.86223" lon="2.35393">
        <ele>95.2</ele>
        <time>2015-05-05T19:41:46.099Z</time>
      </trkpt>
      <trkpt lat="48.86216" lon="2.35393">
        <ele>95.8</ele>
        <time>2015-05-05T19:41:47.113Z</time>
      </trkpt>
      <trkpt lat="48.8621" lon="2.35393">
        <ele>95.9</ele>
        <time>2015-05-05T19:41:48.032Z</time>
      </trkpt>
      <trkpt lat="48.86205" lon="2.35391">
        <ele>96.1</ele>
        <time>2015-05-05T19:41:49.034Z</time>
      </trkpt>
      <trkpt lat="48.86199" lon="2.35389">
        <ele>96.3</ele>
        <time>2015-05-05T19:41:50.044Z</time>
      </trkpt>
      <trkpt lat="48.86194" lon="2.35386">
        <ele>96.3</ele>
        <time>2015-05-05T19:41:51.055Z</time>
      </trkpt>
      <trkpt lat="48.8619" lon="2.35382">
        <ele>96.2</ele>
        <time>2015-05-05T19:41:52.065Z</time>
      </trkpt>
      <trkpt lat="48.86185" lon="2.35376">
        <ele>96</ele>
        <time>2015-05-05T19:41:53.076Z</time>
      </trkpt>
      <trkpt lat="48.8618" lon="2.35372">
        <ele>96</ele>
        <time>2015-05-05T19:41:54.084Z</time>
      </trkpt>
      <trkpt lat="48.86175" lon="2.35369">
        <ele>95.8</ele>
        <time>2015-05-05T19:41:55.092Z</time>
      </trkpt>
      <trkpt lat="48.8617" lon="2.35366">
        <ele>96</ele>
        <time>2015-05-05T19:41:56.099Z</time>
      </trkpt>
      <trkpt lat="48.86164" lon="2.35364">
        <ele>96.1</ele>
        <time>2015-05-05T19:41:57.106Z</time>
      </trkpt>
      <trkpt lat="48.86158" lon="2.35362">
        <ele>96.2</ele>
        <time>2015-05-05T19:41:58.114Z</time>
      </trkpt>
      <trkpt lat="48.86152" lon="2.35361">
        <ele>96.4</ele>
        <time>2015-05-05T19:41:59.040Z</time>
      </trkpt>
      <trkpt lat="48.86146" lon="2.35358">
        <ele>97</ele>
        <time>2015-05-05T19:42:00.059Z</time>
      </trkpt>
      <trkpt lat="48.86141" lon="2.35354">
        <ele>97.5</ele>
        <time>2015-05-05T19:42:01.091Z</time>
      </trkpt>
      <trkpt lat="48.86136" lon="2.35349">
        <ele>98.2</ele>
        <time>2015-05-05T19:42:02.097Z</time>
      </trkpt>
      <trkpt lat="48.86131" lon="2.35346">
        <ele>98.9</ele>
        <time>2015-05-05T19:42:03.112Z</time>
      </trkpt>
      <trkpt lat="48.86125" lon="2.35344">
        <ele>99.7</ele>
        <time>2015-05-05T19:42:04.136Z</time>
      </trkpt>
      <trkpt lat="48.8612" lon="2.35342">
        <ele>100.2</ele>
        <time>2015-05-05T19:42:05.044Z</time>
      </trkpt>
      <trkpt lat="48.86115" lon="2.35335">
        <ele>101.3</ele>
        <time>2015-05-05T19:42:06.051Z</time>
      </trkpt>
      <trkpt lat="48.8611" lon="2.35333">
        <ele>101.6</ele>
        <time>2015-05-05T19:42:07.085Z</time>
      </trkpt>
      <trkpt lat="48.86105" lon="2.3533">
        <ele>101.9</ele>
        <time>2015-05-05T19:42:08.107Z</time>
      </trkpt>
      <trkpt lat="48.86099" lon="2.35328">
        <ele>102.1</ele>
        <time>2015-05-05T19:42:09.123Z</time>
      </trkpt>
      <trkpt lat="48.86094" lon="2.35324">
        <ele>102.6</ele>
        <time>2015-05-05T19:42:10.134Z</time>
      </trkpt>
      <trkpt lat="48.86089" lon="2.35321">
        <ele>103.1</ele>
        <time>2015-05-05T19:42:11.056Z</time>
      </trkpt>
      <trkpt lat="48.86083" lon="2.35317">
        <ele>103.6</ele>
        <time>2015-05-05T19:42:12.074Z</time>
      </trkpt>
      <trkpt lat="48.86078" lon="2.35314">
        <ele>103.8</ele>
        <time>2015-05-05T19:42:13.088Z</time>
      </trkpt>
      <trkpt lat="48.86072" lon="2.35311">
        <ele>104</ele>
        <time>2015-05-05T19:42:14.098Z</time>
      </trkpt>
      <trkpt lat="48.86066" lon="2.35308">
        <ele>104.1</ele>
        <time>2015-05-05T19:42:15.115Z</time>
      </trkpt>
      <trkpt lat="48.8606" lon="2.35306">
        <ele>104.3</ele>
        <time>2015-05-05T19:42:16.119Z</time>
      </trkpt>
      <trkpt lat="48.86054" lon="2.35303">
        <ele>104.6</ele>
        <time>2015-05-05T19:42:17.120Z</time>
      </trkpt>
      <trkpt lat="48.86048" lon="2.35302">
        <ele>104.9</ele>
        <time>2015-05-05T19:42:18.130Z</time>
      </trkpt>
      <trkpt lat="48.86042" lon="2.35299">
        <ele>105.2</ele>
        <time>2015-05-05T19:42:19.048Z</time>
      </trkpt>
      <trkpt lat="48.86036" lon="2.35296">
        <ele>105.5</ele>
        <time>2015-05-05T19:42:20.065Z</time>
      </trkpt>
      <trkpt lat="48.8603" lon="2.35294">
        <ele>105.7</ele>
        <time>2015-05-05T19:42:21.114Z</time>
      </trkpt>
      <trkpt lat="48.86024" lon="2.35291">
        <ele>105.8</ele>
        <time>2015-05-05T19:42:22.124Z</time>
      </trkpt>
      <trkpt lat="48.8602" lon="2.35286">
        <ele>105.9</ele>
        <time>2015-05-05T19:42:23.133Z</time>
      </trkpt>
      <trkpt lat="48.86015" lon="2.35281">
        <ele>105.7</ele>
        <time>2015-05-05T19:42:24.055Z</time>
      </trkpt>
      <trkpt lat="48.86011" lon="2.35277">
        <ele>105.6</ele>
        <time>2015-05-05T19:42:25.065Z</time>
      </trkpt>
      <trkpt lat="48.86006" lon="2.35273">
        <ele>105.6</ele>
        <time>2015-05-05T19:42:26.093Z</time>
      </trkpt>
      <trkpt lat="48.86001" lon="2.35271">
        <ele>105.7</ele>
        <time>2015-05-05T19:42:27.092Z</time>
      </trkpt>
      <trkpt lat="48.85995" lon="2.35268">
        <ele>105.8</ele>
        <time>2015-05-05T19:42:28.105Z</time>
      </trkpt>
      <trkpt lat="48.8599" lon="2.35267">
        <ele>105.9</ele>
        <time>2015-05-05T19:42:29.108Z</time>
      </trkpt>
      <trkpt lat="48.85985" lon="2.35265">
        <ele>106</ele>
        <time>2015-05-05T19:42:30.112Z</time>
      </trkpt>
      <trkpt lat="48.8598" lon="2.35263">
        <ele>106</ele>
        <time>2015-05-05T19:42:31.048Z</time>
      </trkpt>
      <trkpt lat="48.85975" lon="2.35262">
        <ele>106.1</ele>
        <time>2015-05-05T19:42:32.049Z</time>
      </trkpt>
      <trkpt lat="48.85967" lon="2.35257">
        <ele>106.1</ele>
        <time>2015-05-05T19:42:34.091Z</time>
      </trkpt>
      <trkpt lat="48.85963" lon="2.35254">
        <ele>105.9</ele>
        <time>2015-05-05T19:42:35.098Z</time>
      </trkpt>
      <trkpt lat="48.85959" lon="2.35252">
        <ele>105.8</ele>
        <time>2015-05-05T19:42:36.131Z</time>
      </trkpt>
      <trkpt lat="48.85954" lon="2.35251">
        <ele>106.2</ele>
        <time>2015-05-05T19:42:37.059Z</time>
      </trkpt>
      <trkpt lat="48.85948" lon="2.35251">
        <ele>106.8</ele>
        <time>2015-05-05T19:42:38.053Z</time>
      </trkpt>
      <trkpt lat="48.85945" lon="2.35246">
        <ele>106.6</ele>
        <time>2015-05-05T19:42:39.059Z</time>
      </trkpt>
      <trkpt lat="48.85937" lon="2.35242">
        <ele>106.3</ele>
        <time>2015-05-05T19:42:41.091Z</time>
      </trkpt>
      <trkpt lat="48.85931" lon="2.35242">
        <ele>106.9</ele>
        <time>2015-05-05T19:42:42.135Z</time>
      </trkpt>
      <trkpt lat="48.85924" lon="2.35243">
        <ele>107.5</ele>
        <time>2015-05-05T19:42:43.057Z</time>
      </trkpt>
      <trkpt lat="48.85918" lon="2.35242">
        <ele>108</ele>
        <time>2015-05-05T19:42:44.052Z</time>
      </trkpt>
      <trkpt lat="48.85912" lon="2.35241">
        <ele>108.5</ele>
        <time>2015-05-05T19:42:45.061Z</time>
      </trkpt>
      <trkpt lat="48.85906" lon="2.35239">
        <ele>108.8</ele>
        <time>2015-05-05T19:42:46.089Z</time>
      </trkpt>
      <trkpt lat="48.85901" lon="2.35237">
        <ele>109</ele>
        <time>2015-05-05T19:42:47.096Z</time>
      </trkpt>
      <trkpt lat="48.85895" lon="2.35235">
        <ele>109.2</ele>
        <time>2015-05-05T19:42:48.109Z</time>
      </trkpt>
      <trkpt lat="48.8589" lon="2.35233">
        <ele>109.5</ele>
        <time>2015-05-05T19:42:49.128Z</time>
      </trkpt>
      <trkpt lat="48.85886" lon="2.35231">
        <ele>109.5</ele>
        <time>2015-05-05T19:42:50.130Z</time>
      </trkpt>
      <trkpt lat="48.85881" lon="2.35228">
        <ele>109.5</ele>
        <time>2015-05-05T19:42:51.046Z</time>
      </trkpt>
      <trkpt lat="48.85877" lon="2.35225">
        <ele>109.6</ele>
        <time>2015-05-05T19:42:52.093Z</time>
      </trkpt>
      <trkpt lat="48.85872" lon="2.35222">
        <ele>109.6</ele>
        <time>2015-05-05T19:42:53.088Z</time>
      </trkpt>
      <trkpt lat="48.85868" lon="2.35219">
        <ele>109.5</ele>
        <time>2015-05-05T19:42:54.108Z</time>
      </trkpt>
      <trkpt lat="48.85863" lon="2.35216">
        <ele>109.6</ele>
        <time>2015-05-05T19:42:55.129Z</time>
      </trkpt>
      <trkpt lat="48.85858" lon="2.35214">
        <ele>109.8</ele>
        <time>2015-05-05T19:42:56.041Z</time>
      </trkpt>
      <trkpt lat="48.85854" lon="2.35212">
        <ele>109.9</ele>
        <time>2015-05-05T19:42:57.043Z</time>
      </trkpt>
      <trkpt lat="48.85849" lon="2.3521">
        <ele>109.9</ele>
        <time>2015-05-05T19:42:58.073Z</time>
      </trkpt>
      <trkpt lat="48.85845" lon="2.35207">
        <ele>110</ele>
        <time>2015-05-05T19:42:59.075Z</time>
      </trkpt>
      <trkpt lat="48.85841" lon="2.35205">
        <ele>110.1</ele>
        <time>2015-05-05T19:43:00.092Z</time>
      </trkpt>
      <trkpt lat="48.85836" lon="2.35202">
        <ele>110.1</ele>
        <time>2015-05-05T19:43:01.098Z</time>
      </trkpt>
      <trkpt lat="48.85831" lon="2.352">
        <ele>110.1</ele>
        <time>2015-05-05T19:43:02.108Z</time>
      </trkpt>
      <trkpt lat="48.85827" lon="2.35197">
        <ele>110.1</ele>
        <time>2015-05-05T19:43:03.046Z</time>
      </trkpt>
      <trkpt lat="48.85823" lon="2.35193">
        <ele>110.1</ele>
        <time>2015-05-05T19:43:04.146Z</time>
      </trkpt>
      <trkpt lat="48.85815" lon="2.35189">
        <ele>109.8</ele>
        <time>2015-05-05T19:43:06.067Z</time>
      </trkpt>
      <trkpt lat="48.85811" lon="2.35186">
        <ele>109.8</ele>
        <time>2015-05-05T19:43:07.089Z</time>
      </trkpt>
      <trkpt lat="48.85804" lon="2.3518">
        <ele>109.7</ele>
        <time>2015-05-05T19:43:09.125Z</time>
      </trkpt>
      <trkpt lat="48.85799" lon="2.35177">
        <ele>109.6</ele>
        <time>2015-05-05T19:43:10.214Z</time>
      </trkpt>
      <trkpt lat="48.85795" lon="2.35174">
        <ele>109.5</ele>
        <time>2015-05-05T19:43:11.089Z</time>
      </trkpt>
      <trkpt lat="48.8579" lon="2.35172">
        <ele>109.4</ele>
        <time>2015-05-05T19:43:12.095Z</time>
      </trkpt>
      <trkpt lat="48.85786" lon="2.35168">
        <ele>109.3</ele>
        <time>2015-05-05T19:43:13.108Z</time>
      </trkpt>
      <trkpt lat="48.85781" lon="2.35165">
        <ele>109.1</ele>
        <time>2015-05-05T19:43:14.109Z</time>
      </trkpt>
      <trkpt lat="48.85776" lon="2.35162">
        <ele>109</ele>
        <time>2015-05-05T19:43:15.123Z</time>
      </trkpt>
      <trkpt lat="48.85771" lon="2.3516">
        <ele>109</ele>
        <time>2015-05-05T19:43:16.133Z</time>
      </trkpt>
      <trkpt lat="48.85766" lon="2.35157">
        <ele>109</ele>
        <time>2015-05-05T19:43:17.041Z</time>
      </trkpt>
      <trkpt lat="48.85762" lon="2.35155">
        <ele>108.9</ele>
        <time>2015-05-05T19:43:18.056Z</time>
      </trkpt>
      <trkpt lat="48.85753" lon="2.35153">
        <ele>108.9</ele>
        <time>2015-05-05T19:43:20.104Z</time>
      </trkpt>
      <trkpt lat="48.85749" lon="2.35151">
        <ele>108.7</ele>
        <time>2015-05-05T19:43:21.051Z</time>
      </trkpt>
      <trkpt lat="48.85743" lon="2.35145">
        <ele>108.4</ele>
        <time>2015-05-05T19:43:23.067Z</time>
      </trkpt>
      <trkpt lat="48.85742" lon="2.35139">
        <ele>108.1</ele>
        <time>2015-05-05T19:43:24.099Z</time>
      </trkpt>
      <trkpt lat="48.85742" lon="2.3513">
        <ele>107.9</ele>
        <time>2015-05-05T19:43:25.130Z</time>
      </trkpt>
      <trkpt lat="48.85743" lon="2.35121">
        <ele>107.6</ele>
        <time>2015-05-05T19:43:26.043Z</time>
      </trkpt>
      <trkpt lat="48.85743" lon="2.35114">
        <ele>107.4</ele>
        <time>2015-05-05T19:43:27.064Z</time>
      </trkpt>
      <trkpt lat="48.85742" lon="2.35107">
        <ele>107.6</ele>
        <time>2015-05-05T19:43:28.144Z</time>
      </trkpt>
      <trkpt lat="48.8574" lon="2.35101">
        <ele>107.6</ele>
        <time>2015-05-05T19:43:29.052Z</time>
      </trkpt>
      <trkpt lat="48.85729" lon="2.35021">
        <ele>106.7</ele>
        <time>2015-05-05T19:43:40.094Z</time>
      </trkpt>
      <trkpt lat="48.8573" lon="2.35011">
        <ele>106.8</ele>
        <time>2015-05-05T19:43:42.126Z</time>
      </trkpt>
      <trkpt lat="48.85729" lon="2.35006">
        <ele>107</ele>
        <time>2015-05-05T19:43:43.039Z</time>
      </trkpt>
      <trkpt lat="48.85731" lon="2.34995">
        <ele>106.6</ele>
        <time>2015-05-05T19:43:45.082Z</time>
      </trkpt>
      <trkpt lat="48.85732" lon="2.34989">
        <ele>106.3</ele>
        <time>2015-05-05T19:43:46.113Z</time>
      </trkpt>
      <trkpt lat="48.85731" lon="2.34977">
        <ele>105.5</ele>
        <time>2015-05-05T19:43:52.067Z</time>
      </trkpt>
      <trkpt lat="48.85729" lon="2.34976">
        <ele>105.5</ele>
        <time>2015-05-05T19:43:53.055Z</time>
      </trkpt>
      <trkpt lat="48.85728" lon="2.34976">
        <ele>105.5</ele>
        <time>2015-05-05T19:43:54.036Z</time>
      </trkpt>
      <trkpt lat="48.85727" lon="2.34976">
        <ele>105.6</ele>
        <time>2015-05-05T19:43:55.044Z</time>
      </trkpt>
      <trkpt lat="48.85719" lon="2.34978">
        <ele>104.8</ele>
        <time>2015-05-05T19:43:59.005Z</time>
      </trkpt>
      <trkpt lat="48.85717" lon="2.34979">
        <ele>104.8</ele>
        <time>2015-05-05T19:44:00.100Z</time>
      </trkpt>
      <trkpt lat="48.85711" lon="2.34985">
        <ele>104.6</ele>
        <time>2015-05-05T19:44:04.168Z</time>
      </trkpt>
      <trkpt lat="48.85709" lon="2.34988">
        <ele>104.7</ele>
        <time>2015-05-05T19:44:05.012Z</time>
      </trkpt>
      <trkpt lat="48.85704" lon="2.34997">
        <ele>104.6</ele>
        <time>2015-05-05T19:44:08.082Z</time>
      </trkpt>
      <trkpt lat="48.85703" lon="2.35">
        <ele>104.6</ele>
        <time>2015-05-05T19:44:09.370Z</time>
      </trkpt>
      <trkpt lat="48.85699" lon="2.35011">
        <ele>104.6</ele>
        <time>2015-05-05T19:44:13.013Z</time>
      </trkpt>
      <trkpt lat="48.85698" lon="2.35015">
        <ele>104.6</ele>
        <time>2015-05-05T19:44:14.034Z</time>
      </trkpt>
      <trkpt lat="48.85691" lon="2.35023">
        <ele>104.2</ele>
        <time>2015-05-05T19:44:17.122Z</time>
      </trkpt>
      <trkpt lat="48.85686" lon="2.35027">
        <ele>103.8</ele>
        <time>2015-05-05T19:44:18.026Z</time>
      </trkpt>
      <trkpt lat="48.8568" lon="2.35034">
        <ele>103.4</ele>
        <time>2015-05-05T19:44:20.078Z</time>
      </trkpt>
      <trkpt lat="48.85677" lon="2.35039">
        <ele>103.2</ele>
        <time>2015-05-05T19:44:21.097Z</time>
      </trkpt>
      <trkpt lat="48.8567" lon="2.35046">
        <ele>102.7</ele>
        <time>2015-05-05T19:44:23.091Z</time>
      </trkpt>
      <trkpt lat="48.85667" lon="2.35051">
        <ele>102.6</ele>
        <time>2015-05-05T19:44:24.102Z</time>
      </trkpt>
      <trkpt lat="48.85665" lon="2.35064">
        <ele>103.1</ele>
        <time>2015-05-05T19:44:26.179Z</time>
      </trkpt>
      <trkpt lat="48.85662" lon="2.3507">
        <ele>102.6</ele>
        <time>2015-05-05T19:44:27.097Z</time>
      </trkpt>
      <trkpt lat="48.85659" lon="2.35081">
        <ele>101.5</ele>
        <time>2015-05-05T19:44:29.062Z</time>
      </trkpt>
      <trkpt lat="48.85659" lon="2.3509">
        <ele>102.3</ele>
        <time>2015-05-05T19:44:30.094Z</time>
      </trkpt>
      <trkpt lat="48.85652" lon="2.35097">
        <ele>102.2</ele>
        <time>2015-05-05T19:44:33.332Z</time>
      </trkpt>
      <trkpt lat="48.85649" lon="2.35097">
        <ele>102.1</ele>
        <time>2015-05-05T19:44:34.119Z</time>
      </trkpt>
      <trkpt lat="48.85643" lon="2.35093">
        <ele>102.2</ele>
        <time>2015-05-05T19:44:38.062Z</time>
      </trkpt>
      <trkpt lat="48.85643" lon="2.35093">
        <ele>102.4</ele>
        <time>2015-05-05T19:44:39.055Z</time>
      </trkpt>
      <trkpt lat="48.85642" lon="2.35093">
        <ele>103</ele>
        <time>2015-05-05T19:44:53.105Z</time>
      </trkpt>
      <trkpt lat="48.85641" lon="2.35098">
        <ele>103.9</ele>
        <time>2015-05-05T19:44:54.116Z</time>
      </trkpt>
      <trkpt lat="48.85639" lon="2.35101">
        <ele>103.8</ele>
        <time>2015-05-05T19:44:56.080Z</time>
      </trkpt>
      <trkpt lat="48.85639" lon="2.35102">
        <ele>103.8</ele>
        <time>2015-05-05T19:44:57.093Z</time>
      </trkpt>
      <trkpt lat="48.8564" lon="2.35102">
        <ele>103.7</ele>
        <time>2015-05-05T19:44:58.115Z</time>
      </trkpt>
      <trkpt lat="48.85639" lon="2.35103">
        <ele>103.6</ele>
        <time>2015-05-05T19:45:00.156Z</time>
      </trkpt>
      <trkpt lat="48.85639" lon="2.35103">
        <ele>103.4</ele>
        <time>2015-05-05T19:45:01.044Z</time>
      </trkpt>
      <trkpt lat="48.85638" lon="2.35103">
        <ele>103.3</ele>
        <time>2015-05-05T19:46:00.046Z</time>
      </trkpt>
      <trkpt lat="48.85635" lon="2.35103">
        <ele>105.4</ele>
        <time>2015-05-05T19:46:01.182Z</time>
      </trkpt>
      <trkpt lat="48.85635" lon="2.35102">
        <ele>105.5</ele>
        <time>2015-05-05T19:46:02.071Z</time>
      </trkpt>
      <trkpt lat="48.85635" lon="2.35102">
        <ele>105.6</ele>
        <time>2015-05-05T19:46:03.105Z</time>
      </trkpt>
      <trkpt lat="48.85643" lon="2.35104">
        <ele>104.7</ele>
        <time>2015-05-05T19:46:18.060Z</time>
      </trkpt>
      <trkpt lat="48.85645" lon="2.35105">
        <ele>104.7</ele>
        <time>2015-05-05T19:46:19.193Z</time>
      </trkpt>
      <trkpt lat="48.85654" lon="2.35104">
        <ele>103.8</ele>
        <time>2015-05-05T19:46:22.136Z</time>
      </trkpt>
      <trkpt lat="48.85657" lon="2.35102">
        <ele>103.5</ele>
        <time>2015-05-05T19:46:23.048Z</time>
      </trkpt>
      <trkpt lat="48.85664" lon="2.35097">
        <ele>103.1</ele>
        <time>2015-05-05T19:46:26.104Z</time>
      </trkpt>
      <trkpt lat="48.85666" lon="2.35095">
        <ele>102.9</ele>
        <time>2015-05-05T19:46:27.163Z</time>
      </trkpt>
      <trkpt lat="48.85671" lon="2.3509">
        <ele>102.6</ele>
        <time>2015-05-05T19:46:29.043Z</time>
      </trkpt>
      <trkpt lat="48.85673" lon="2.35085">
        <ele>102.3</ele>
        <time>2015-05-05T19:46:30.159Z</time>
      </trkpt>
      <trkpt lat="48.85679" lon="2.35075">
        <ele>101.8</ele>
        <time>2015-05-05T19:46:32.064Z</time>
      </trkpt>
      <trkpt lat="48.85681" lon="2.3507">
        <ele>101.7</ele>
        <time>2015-05-05T19:46:33.162Z</time>
      </trkpt>
      <trkpt lat="48.85686" lon="2.35059">
        <ele>101.1</ele>
        <time>2015-05-05T19:46:35.037Z</time>
      </trkpt>
      <trkpt lat="48.85689" lon="2.35054">
        <ele>100.7</ele>
        <time>2015-05-05T19:46:36.107Z</time>
      </trkpt>
      <trkpt lat="48.85693" lon="2.35043">
        <ele>100.2</ele>
        <time>2015-05-05T19:46:38.037Z</time>
      </trkpt>
      <trkpt lat="48.85696" lon="2.35039">
        <ele>99.8</ele>
        <time>2015-05-05T19:46:39.080Z</time>
      </trkpt>
      <trkpt lat="48.857" lon="2.35027">
        <ele>99.3</ele>
        <time>2015-05-05T19:46:41.029Z</time>
      </trkpt>
      <trkpt lat="48.85703" lon="2.35021">
        <ele>98.7</ele>
        <time>2015-05-05T19:46:42.071Z</time>
      </trkpt>
      <trkpt lat="48.85707" lon="2.3501">
        <ele>98.3</ele>
        <time>2015-05-05T19:46:44.044Z</time>
      </trkpt>
      <trkpt lat="48.85708" lon="2.35004">
        <ele>98</ele>
        <time>2015-05-05T19:46:45.105Z</time>
      </trkpt>
      <trkpt lat="48.85712" lon="2.34993">
        <ele>97.9</ele>
        <time>2015-05-05T19:46:47.016Z</time>
      </trkpt>
      <trkpt lat="48.85712" lon="2.34986">
        <ele>97.8</ele>
        <time>2015-05-05T19:46:48.055Z</time>
      </trkpt>
      <trkpt lat="48.85713" lon="2.34979">
        <ele>97.8</ele>
        <time>2015-05-05T19:46:49.138Z</time>
      </trkpt>
      <trkpt lat="48.85714" lon="2.34971">
        <ele>97.9</ele>
        <time>2015-05-05T19:46:50.114Z</time>
      </trkpt>
      <trkpt lat="48.85717" lon="2.3496">
        <ele>97.8</ele>
        <time>2015-05-05T19:46:52.103Z</time>
      </trkpt>
      <trkpt lat="48.85719" lon="2.34954">
        <ele>97.9</ele>
        <time>2015-05-05T19:46:53.089Z</time>
      </trkpt>
      <trkpt lat="48.8572" lon="2.34944">
        <ele>97.9</ele>
        <time>2015-05-05T19:46:55.205Z</time>
      </trkpt>
      <trkpt lat="48.85719" lon="2.34939">
        <ele>98</ele>
        <time>2015-05-05T19:46:56.022Z</time>
      </trkpt>
      <trkpt lat="48.85716" lon="2.34933">
        <ele>97.7</ele>
        <time>2015-05-05T19:46:57.060Z</time>
      </trkpt>
      <trkpt lat="48.8571" lon="2.34927">
        <ele>97.4</ele>
        <time>2015-05-05T19:46:58.155Z</time>
      </trkpt>
      <trkpt lat="48.85705" lon="2.34921">
        <ele>97.3</ele>
        <time>2015-05-05T19:46:59.050Z</time>
      </trkpt>
      <trkpt lat="48.857" lon="2.34918">
        <ele>97.2</ele>
        <time>2015-05-05T19:47:00.047Z</time>
      </trkpt>
      <trkpt lat="48.85696" lon="2.34915">
        <ele>97.2</ele>
        <time>2015-05-05T19:47:01.062Z</time>
      </trkpt>
      <trkpt lat="48.85692" lon="2.34912">
        <ele>97.2</ele>
        <time>2015-05-05T19:47:02.079Z</time>
      </trkpt>
      <trkpt lat="48.85684" lon="2.34908">
        <ele>97.3</ele>
        <time>2015-05-05T19:47:04.108Z</time>
      </trkpt>
      <trkpt lat="48.85681" lon="2.34907">
        <ele>97.3</ele>
        <time>2015-05-05T19:47:05.045Z</time>
      </trkpt>
      <trkpt lat="48.85674" lon="2.34905">
        <ele>96.6</ele>
        <time>2015-05-05T19:47:11.185Z</time>
      </trkpt>
      <trkpt lat="48.85674" lon="2.34904">
        <ele>96.5</ele>
        <time>2015-05-05T19:47:12.081Z</time>
      </trkpt>
      <trkpt lat="48.85675" lon="2.34904">
        <ele>96.3</ele>
        <time>2015-05-05T19:47:30.812Z</time>
      </trkpt>
      <trkpt lat="48.85676" lon="2.34895">
        <ele>97</ele>
        <time>2015-05-05T19:47:31.075Z</time>
      </trkpt>
      <trkpt lat="48.85678" lon="2.34896">
        <ele>96.7</ele>
        <time>2015-05-05T19:47:33.115Z</time>
      </trkpt>
      <trkpt lat="48.85678" lon="2.34895">
        <ele>96.5</ele>
        <time>2015-05-05T19:47:34.107Z</time>
      </trkpt>
      <trkpt lat="48.85678" lon="2.34894">
        <ele>96.5</ele>
        <time>2015-05-05T19:47:38.147Z</time>
      </trkpt>
      <trkpt lat="48.85678" lon="2.34893">
        <ele>96.4</ele>
        <time>2015-05-05T19:47:39.084Z</time>
      </trkpt>
      <trkpt lat="48.85671" lon="2.3489">
        <ele>96.2</ele>
        <time>2015-05-05T19:47:43.155Z</time>
      </trkpt>
      <trkpt lat="48.85668" lon="2.3489">
        <ele>96</ele>
        <time>2015-05-05T19:47:44.069Z</time>
      </trkpt>
      <trkpt lat="48.8566" lon="2.34887">
        <ele>96</ele>
        <time>2015-05-05T19:47:46.144Z</time>
      </trkpt>
      <trkpt lat="48.85655" lon="2.34885">
        <ele>96</ele>
        <time>2015-05-05T19:47:47.041Z</time>
      </trkpt>
      <trkpt lat="48.85648" lon="2.34881">
        <ele>95.7</ele>
        <time>2015-05-05T19:47:49.054Z</time>
      </trkpt>
      <trkpt lat="48.85645" lon="2.34879">
        <ele>95.7</ele>
        <time>2015-05-05T19:47:50.064Z</time>
      </trkpt>
      <trkpt lat="48.85637" lon="2.34875">
        <ele>95.9</ele>
        <time>2015-05-05T19:47:52.111Z</time>
      </trkpt>
      <trkpt lat="48.85634" lon="2.34873">
        <ele>95.9</ele>
        <time>2015-05-05T19:47:53.110Z</time>
      </trkpt>
      <trkpt lat="48.85625" lon="2.34867">
        <ele>96.3</ele>
        <time>2015-05-05T19:47:55.063Z</time>
      </trkpt>
      <trkpt lat="48.85622" lon="2.34865">
        <ele>96.3</ele>
        <time>2015-05-05T19:47:56.103Z</time>
      </trkpt>
      <trkpt lat="48.85614" lon="2.34861">
        <ele>96.6</ele>
        <time>2015-05-05T19:47:58.756Z</time>
      </trkpt>
      <trkpt lat="48.8561" lon="2.34859">
        <ele>96.5</ele>
        <time>2015-05-05T19:47:59.110Z</time>
      </trkpt>
      <trkpt lat="48.85601" lon="2.34855">
        <ele>96</ele>
        <time>2015-05-05T19:48:01.153Z</time>
      </trkpt>
      <trkpt lat="48.85597" lon="2.34852">
        <ele>95.8</ele>
        <time>2015-05-05T19:48:02.162Z</time>
      </trkpt>
      <trkpt lat="48.85592" lon="2.34849">
        <ele>95.8</ele>
        <time>2015-05-05T19:48:03.803Z</time>
      </trkpt>
      <trkpt lat="48.85587" lon="2.34846">
        <ele>95.8</ele>
        <time>2015-05-05T19:48:04.177Z</time>
      </trkpt>
      <trkpt lat="48.85583" lon="2.34843">
        <ele>95.5</ele>
        <time>2015-05-05T19:48:05.090Z</time>
      </trkpt>
      <trkpt lat="48.85578" lon="2.34841">
        <ele>95.1</ele>
        <time>2015-05-05T19:48:06.126Z</time>
      </trkpt>
      <trkpt lat="48.85573" lon="2.34838">
        <ele>94.8</ele>
        <time>2015-05-05T19:48:07.147Z</time>
      </trkpt>
      <trkpt lat="48.85568" lon="2.34835">
        <ele>94.5</ele>
        <time>2015-05-05T19:48:08.067Z</time>
      </trkpt>
      <trkpt lat="48.85564" lon="2.34832">
        <ele>94</ele>
        <time>2015-05-05T19:48:09.043Z</time>
      </trkpt>
      <trkpt lat="48.85559" lon="2.3483">
        <ele>93.6</ele>
        <time>2015-05-05T19:48:10.136Z</time>
      </trkpt>
      <trkpt lat="48.85553" lon="2.34827">
        <ele>93.6</ele>
        <time>2015-05-05T19:48:11.055Z</time>
      </trkpt>
      <trkpt lat="48.85548" lon="2.34823">
        <ele>93.3</ele>
        <time>2015-05-05T19:48:12.071Z</time>
      </trkpt>
      <trkpt lat="48.85543" lon="2.3482">
        <ele>93.4</ele>
        <time>2015-05-05T19:48:13.092Z</time>
      </trkpt>
      <trkpt lat="48.85539" lon="2.34817">
        <ele>93.3</ele>
        <time>2015-05-05T19:48:14.104Z</time>
      </trkpt>
      <trkpt lat="48.85533" lon="2.34813">
        <ele>93.1</ele>
        <time>2015-05-05T19:48:15.025Z</time>
      </trkpt>
      <trkpt lat="48.85528" lon="2.3481">
        <ele>93.3</ele>
        <time>2015-05-05T19:48:16.099Z</time>
      </trkpt>
      <trkpt lat="48.85523" lon="2.34807">
        <ele>93.5</ele>
        <time>2015-05-05T19:48:17.116Z</time>
      </trkpt>
      <trkpt lat="48.85517" lon="2.34804">
        <ele>93.5</ele>
        <time>2015-05-05T19:48:18.139Z</time>
      </trkpt>
      <trkpt lat="48.85512" lon="2.34801">
        <ele>93.4</ele>
        <time>2015-05-05T19:48:19.069Z</time>
      </trkpt>
      <trkpt lat="48.85507" lon="2.34798">
        <ele>93.3</ele>
        <time>2015-05-05T19:48:20.077Z</time>
      </trkpt>
      <trkpt lat="48.85502" lon="2.34795">
        <ele>93.3</ele>
        <time>2015-05-05T19:48:21.100Z</time>
      </trkpt>
      <trkpt lat="48.85496" lon="2.34792">
        <ele>93.3</ele>
        <time>2015-05-05T19:48:22.114Z</time>
      </trkpt>
      <trkpt lat="48.85491" lon="2.34789">
        <ele>93.5</ele>
        <time>2015-05-05T19:48:23.016Z</time>
      </trkpt>
      <trkpt lat="48.85485" lon="2.34786">
        <ele>93.6</ele>
        <time>2015-05-05T19:48:24.043Z</time>
      </trkpt>
      <trkpt lat="48.8548" lon="2.34782">
        <ele>93.6</ele>
        <time>2015-05-05T19:48:25.063Z</time>
      </trkpt>
      <trkpt lat="48.85474" lon="2.3478">
        <ele>93.7</ele>
        <time>2015-05-05T19:48:26.078Z</time>
      </trkpt>
      <trkpt lat="48.85469" lon="2.34776">
        <ele>93.6</ele>
        <time>2015-05-05T19:48:27.107Z</time>
      </trkpt>
      <trkpt lat="48.85464" lon="2.34772">
        <ele>93.5</ele>
        <time>2015-05-05T19:48:28.147Z</time>
      </trkpt>
      <trkpt lat="48.85459" lon="2.34768">
        <ele>93.3</ele>
        <time>2015-05-05T19:48:29.052Z</time>
      </trkpt>
      <trkpt lat="48.85454" lon="2.34765">
        <ele>93.2</ele>
        <time>2015-05-05T19:48:30.063Z</time>
      </trkpt>
      <trkpt lat="48.85449" lon="2.34761">
        <ele>93.2</ele>
        <time>2015-05-05T19:48:31.083Z</time>
      </trkpt>
      <trkpt lat="48.85444" lon="2.34757">
        <ele>93.2</ele>
        <time>2015-05-05T19:48:32.099Z</time>
      </trkpt>
      <trkpt lat="48.85438" lon="2.34753">
        <ele>93.1</ele>
        <time>2015-05-05T19:48:33.043Z</time>
      </trkpt>
      <trkpt lat="48.85433" lon="2.3475">
        <ele>93.1</ele>
        <time>2015-05-05T19:48:34.092Z</time>
      </trkpt>
      <trkpt lat="48.85427" lon="2.34747">
        <ele>93.2</ele>
        <time>2015-05-05T19:48:35.106Z</time>
      </trkpt>
      <trkpt lat="48.85421" lon="2.34745">
        <ele>93.4</ele>
        <time>2015-05-05T19:48:36.140Z</time>
      </trkpt>
      <trkpt lat="48.85416" lon="2.34742">
        <ele>93.4</ele>
        <time>2015-05-05T19:48:37.028Z</time>
      </trkpt>
      <trkpt lat="48.85411" lon="2.34737">
        <ele>93.5</ele>
        <time>2015-05-05T19:48:38.038Z</time>
      </trkpt>
      <trkpt lat="48.85406" lon="2.34733">
        <ele>93.4</ele>
        <time>2015-05-05T19:48:39.051Z</time>
      </trkpt>
      <trkpt lat="48.85401" lon="2.3473">
        <ele>93.3</ele>
        <time>2015-05-05T19:48:40.080Z</time>
      </trkpt>
      <trkpt lat="48.85396" lon="2.34726">
        <ele>93.2</ele>
        <time>2015-05-05T19:48:41.089Z</time>
      </trkpt>
      <trkpt lat="48.8539" lon="2.34723">
        <ele>93.3</ele>
        <time>2015-05-05T19:48:42.115Z</time>
      </trkpt>
      <trkpt lat="48.85385" lon="2.34721">
        <ele>93.3</ele>
        <time>2015-05-05T19:48:43.035Z</time>
      </trkpt>
      <trkpt lat="48.8538" lon="2.34718">
        <ele>93.2</ele>
        <time>2015-05-05T19:48:44.055Z</time>
      </trkpt>
      <trkpt lat="48.85374" lon="2.34716">
        <ele>93.2</ele>
        <time>2015-05-05T19:48:45.067Z</time>
      </trkpt>
      <trkpt lat="48.85368" lon="2.34714">
        <ele>93.3</ele>
        <time>2015-05-05T19:48:46.086Z</time>
      </trkpt>
      <trkpt lat="48.85363" lon="2.34711">
        <ele>93.1</ele>
        <time>2015-05-05T19:48:47.110Z</time>
      </trkpt>
      <trkpt lat="48.85357" lon="2.3471">
        <ele>93.1</ele>
        <time>2015-05-05T19:48:48.119Z</time>
      </trkpt>
      <trkpt lat="48.85353" lon="2.34708">
        <ele>92.8</ele>
        <time>2015-05-05T19:48:49.061Z</time>
      </trkpt>
      <trkpt lat="48.85349" lon="2.34706">
        <ele>92.6</ele>
        <time>2015-05-05T19:48:50.065Z</time>
      </trkpt>
      <trkpt lat="48.85344" lon="2.34703">
        <ele>92.8</ele>
        <time>2015-05-05T19:48:51.056Z</time>
      </trkpt>
      <trkpt lat="48.8534" lon="2.34701">
        <ele>92.6</ele>
        <time>2015-05-05T19:48:52.098Z</time>
      </trkpt>
      <trkpt lat="48.85332" lon="2.34697">
        <ele>92.5</ele>
        <time>2015-05-05T19:48:54.056Z</time>
      </trkpt>
      <trkpt lat="48.85329" lon="2.34694">
        <ele>92.5</ele>
        <time>2015-05-05T19:48:55.073Z</time>
      </trkpt>
      <trkpt lat="48.85321" lon="2.34691">
        <ele>92.4</ele>
        <time>2015-05-05T19:48:58.181Z</time>
      </trkpt>
      <trkpt lat="48.85319" lon="2.3469">
        <ele>92.7</ele>
        <time>2015-05-05T19:48:59.102Z</time>
      </trkpt>
      <trkpt lat="48.85317" lon="2.34689">
        <ele>93.7</ele>
        <time>2015-05-05T19:49:01.053Z</time>
      </trkpt>
      <trkpt lat="48.85317" lon="2.34689">
        <ele>94.1</ele>
        <time>2015-05-05T19:49:02.074Z</time>
      </trkpt>
      <trkpt lat="48.85317" lon="2.34689">
        <ele>94</ele>
        <time>2015-05-05T19:49:11.093Z</time>
      </trkpt>
      <trkpt lat="48.85316" lon="2.3469">
        <ele>95</ele>
        <time>2015-05-05T19:49:12.117Z</time>
      </trkpt>
      <trkpt lat="48.85314" lon="2.3469">
        <ele>95.1</ele>
        <time>2015-05-05T19:49:18.042Z</time>
      </trkpt>
      <trkpt lat="48.85314" lon="2.3469">
        <ele>95.2</ele>
        <time>2015-05-05T19:49:19.076Z</time>
      </trkpt>
      <trkpt lat="48.85313" lon="2.3469">
        <ele>95.2</ele>
        <time>2015-05-05T19:49:27.208Z</time>
      </trkpt>
      <trkpt lat="48.85312" lon="2.34689">
        <ele>95.5</ele>
        <time>2015-05-05T19:49:28.123Z</time>
      </trkpt>
      <trkpt lat="48.85304" lon="2.34685">
        <ele>95.7</ele>
        <time>2015-05-05T19:49:31.145Z</time>
      </trkpt>
      <trkpt lat="48.85301" lon="2.34683">
        <ele>95.3</ele>
        <time>2015-05-05T19:49:32.126Z</time>
      </trkpt>
      <trkpt lat="48.85293" lon="2.34679">
        <ele>95.2</ele>
        <time>2015-05-05T19:49:34.156Z</time>
      </trkpt>
      <trkpt lat="48.85289" lon="2.34677">
        <ele>95.1</ele>
        <time>2015-05-05T19:49:35.040Z</time>
      </trkpt>
      <trkpt lat="48.85285" lon="2.34674">
        <ele>94.9</ele>
        <time>2015-05-05T19:49:36.042Z</time>
      </trkpt>
      <trkpt lat="48.8528" lon="2.34671">
        <ele>94.7</ele>
        <time>2015-05-05T19:49:37.050Z</time>
      </trkpt>
      <trkpt lat="48.85273" lon="2.34666">
        <ele>94.9</ele>
        <time>2015-05-05T19:49:39.063Z</time>
      </trkpt>
      <trkpt lat="48.85269" lon="2.34663">
        <ele>95</ele>
        <time>2015-05-05T19:49:40.126Z</time>
      </trkpt>
      <trkpt lat="48.85261" lon="2.34658">
        <ele>95.6</ele>
        <time>2015-05-05T19:49:42.039Z</time>
      </trkpt>
      <trkpt lat="48.85256" lon="2.34656">
        <ele>95.7</ele>
        <time>2015-05-05T19:49:43.196Z</time>
      </trkpt>
      <trkpt lat="48.85252" lon="2.34653">
        <ele>95.6</ele>
        <time>2015-05-05T19:49:44.067Z</time>
      </trkpt>
      <trkpt lat="48.85246" lon="2.34649">
        <ele>96.1</ele>
        <time>2015-05-05T19:49:45.263Z</time>
      </trkpt>
      <trkpt lat="48.85241" lon="2.34646">
        <ele>96.4</ele>
        <time>2015-05-05T19:49:46.091Z</time>
      </trkpt>
      <trkpt lat="48.85237" lon="2.34643">
        <ele>96.7</ele>
        <time>2015-05-05T19:49:47.093Z</time>
      </trkpt>
      <trkpt lat="48.85231" lon="2.34639">
        <ele>96.9</ele>
        <time>2015-05-05T19:49:48.101Z</time>
      </trkpt>
      <trkpt lat="48.85225" lon="2.34634">
        <ele>97.1</ele>
        <time>2015-05-05T19:49:49.016Z</time>
      </trkpt>
      <trkpt lat="48.8522" lon="2.3463">
        <ele>97.3</ele>
        <time>2015-05-05T19:49:50.026Z</time>
      </trkpt>
      <trkpt lat="48.85213" lon="2.34625">
        <ele>97.3</ele>
        <time>2015-05-05T19:49:51.040Z</time>
      </trkpt>
      <trkpt lat="48.85207" lon="2.3462">
        <ele>97.3</ele>
        <time>2015-05-05T19:49:52.048Z</time>
      </trkpt>
      <trkpt lat="48.85202" lon="2.34616">
        <ele>97.5</ele>
        <time>2015-05-05T19:49:53.060Z</time>
      </trkpt>
      <trkpt lat="48.85196" lon="2.34613">
        <ele>97.7</ele>
        <time>2015-05-05T19:49:54.072Z</time>
      </trkpt>
      <trkpt lat="48.85191" lon="2.3461">
        <ele>97.5</ele>
        <time>2015-05-05T19:49:55.085Z</time>
      </trkpt>
      <trkpt lat="48.85186" lon="2.34607">
        <ele>97.5</ele>
        <time>2015-05-05T19:49:56.104Z</time>
      </trkpt>
      <trkpt lat="48.85182" lon="2.34605">
        <ele>97.5</ele>
        <time>2015-05-05T19:49:57.109Z</time>
      </trkpt>
      <trkpt lat="48.85177" lon="2.34602">
        <ele>97.5</ele>
        <time>2015-05-05T19:49:58.115Z</time>
      </trkpt>
      <trkpt lat="48.85173" lon="2.346">
        <ele>97.4</ele>
        <time>2015-05-05T19:49:59.046Z</time>
      </trkpt>
      <trkpt lat="48.85164" lon="2.34597">
        <ele>97.7</ele>
        <time>2015-05-05T19:50:01.063Z</time>
      </trkpt>
      <trkpt lat="48.8516" lon="2.34596">
        <ele>97.7</ele>
        <time>2015-05-05T19:50:02.066Z</time>
      </trkpt>
      <trkpt lat="48.85155" lon="2.34595">
        <ele>97.7</ele>
        <time>2015-05-05T19:50:03.117Z</time>
      </trkpt>
      <trkpt lat="48.8515" lon="2.34593">
        <ele>97.8</ele>
        <time>2015-05-05T19:50:04.122Z</time>
      </trkpt>
      <trkpt lat="48.85146" lon="2.34592">
        <ele>98</ele>
        <time>2015-05-05T19:50:05.014Z</time>
      </trkpt>
      <trkpt lat="48.85141" lon="2.3459">
        <ele>98.2</ele>
        <time>2015-05-05T19:50:06.035Z</time>
      </trkpt>
      <trkpt lat="48.85136" lon="2.34587">
        <ele>98.2</ele>
        <time>2015-05-05T19:50:07.106Z</time>
      </trkpt>
      <trkpt lat="48.85131" lon="2.34585">
        <ele>98.3</ele>
        <time>2015-05-05T19:50:08.063Z</time>
      </trkpt>
      <trkpt lat="48.85125" lon="2.34584">
        <ele>98.6</ele>
        <time>2015-05-05T19:50:09.090Z</time>
      </trkpt>
      <trkpt lat="48.8512" lon="2.34582">
        <ele>98.6</ele>
        <time>2015-05-05T19:50:10.095Z</time>
      </trkpt>
      <trkpt lat="48.85112" lon="2.34578">
        <ele>98.6</ele>
        <time>2015-05-05T19:50:12.029Z</time>
      </trkpt>
      <trkpt lat="48.85108" lon="2.34577">
        <ele>98.5</ele>
        <time>2015-05-05T19:50:13.065Z</time>
      </trkpt>
      <trkpt lat="48.851" lon="2.34574">
        <ele>98.3</ele>
        <time>2015-05-05T19:50:15.123Z</time>
      </trkpt>
      <trkpt lat="48.85097" lon="2.34573">
        <ele>98.3</ele>
        <time>2015-05-05T19:50:16.148Z</time>
      </trkpt>
      <trkpt lat="48.8509" lon="2.34565">
        <ele>99.4</ele>
        <time>2015-05-05T19:50:20.021Z</time>
      </trkpt>
      <trkpt lat="48.85088" lon="2.34566">
        <ele>99.3</ele>
        <time>2015-05-05T19:50:21.025Z</time>
      </trkpt>
      <trkpt lat="48.85082" lon="2.3456">
        <ele>99.6</ele>
        <time>2015-05-05T19:50:39.092Z</time>
      </trkpt>
      <trkpt lat="48.85081" lon="2.34555">
        <ele>99.4</ele>
        <time>2015-05-05T19:50:40.124Z</time>
      </trkpt>
      <trkpt lat="48.85074" lon="2.34551">
        <ele>99.9</ele>
        <time>2015-05-05T19:50:46.143Z</time>
      </trkpt>
      <trkpt lat="48.85071" lon="2.3455">
        <ele>100.1</ele>
        <time>2015-05-05T19:50:47.039Z</time>
      </trkpt>
      <trkpt lat="48.85064" lon="2.34547">
        <ele>100.1</ele>
        <time>2015-05-05T19:50:49.045Z</time>
      </trkpt>
      <trkpt lat="48.85061" lon="2.34545">
        <ele>100.2</ele>
        <time>2015-05-05T19:50:50.066Z</time>
      </trkpt>
      <trkpt lat="48.85055" lon="2.34541">
        <ele>100.5</ele>
        <time>2015-05-05T19:50:52.143Z</time>
      </trkpt>
      <trkpt lat="48.85051" lon="2.3454">
        <ele>100.5</ele>
        <time>2015-05-05T19:50:53.037Z</time>
      </trkpt>
      <trkpt lat="48.85043" lon="2.34537">
        <ele>100.1</ele>
        <time>2015-05-05T19:50:55.158Z</time>
      </trkpt>
      <trkpt lat="48.85039" lon="2.34536">
        <ele>100.3</ele>
        <time>2015-05-05T19:50:56.054Z</time>
      </trkpt>
      <trkpt lat="48.85033" lon="2.34535">
        <ele>100.4</ele>
        <time>2015-05-05T19:50:58.236Z</time>
      </trkpt>
      <trkpt lat="48.85029" lon="2.34534">
        <ele>100.5</ele>
        <time>2015-05-05T19:50:59.018Z</time>
      </trkpt>
      <trkpt lat="48.85022" lon="2.3453">
        <ele>100.9</ele>
        <time>2015-05-05T19:51:01.106Z</time>
      </trkpt>
      <trkpt lat="48.85018" lon="2.34528">
        <ele>100.7</ele>
        <time>2015-05-05T19:51:02.121Z</time>
      </trkpt>
      <trkpt lat="48.8501" lon="2.34524">
        <ele>100.7</ele>
        <time>2015-05-05T19:51:04.123Z</time>
      </trkpt>
      <trkpt lat="48.85006" lon="2.34522">
        <ele>100.8</ele>
        <time>2015-05-05T19:51:05.031Z</time>
      </trkpt>
      <trkpt lat="48.85001" lon="2.34519">
        <ele>100.9</ele>
        <time>2015-05-05T19:51:06.051Z</time>
      </trkpt>
      <trkpt lat="48.84997" lon="2.34517">
        <ele>101.3</ele>
        <time>2015-05-05T19:51:07.064Z</time>
      </trkpt>
      <trkpt lat="48.84989" lon="2.34512">
        <ele>101.8</ele>
        <time>2015-05-05T19:51:09.296Z</time>
      </trkpt>
      <trkpt lat="48.84985" lon="2.34508">
        <ele>101.9</ele>
        <time>2015-05-05T19:51:10.183Z</time>
      </trkpt>
      <trkpt lat="48.84981" lon="2.34505">
        <ele>102</ele>
        <time>2015-05-05T19:51:11.033Z</time>
      </trkpt>
      <trkpt lat="48.84976" lon="2.34502">
        <ele>101.9</ele>
        <time>2015-05-05T19:51:12.056Z</time>
      </trkpt>
      <trkpt lat="48.84972" lon="2.345">
        <ele>101.9</ele>
        <time>2015-05-05T19:51:13.458Z</time>
      </trkpt>
      <trkpt lat="48.84967" lon="2.34499">
        <ele>102</ele>
        <time>2015-05-05T19:51:14.069Z</time>
      </trkpt>
      <trkpt lat="48.84963" lon="2.34496">
        <ele>101.8</ele>
        <time>2015-05-05T19:51:15.092Z</time>
      </trkpt>
      <trkpt lat="48.84958" lon="2.34494">
        <ele>101.5</ele>
        <time>2015-05-05T19:51:16.120Z</time>
      </trkpt>
      <trkpt lat="48.84951" lon="2.34489">
        <ele>101.1</ele>
        <time>2015-05-05T19:51:18.554Z</time>
      </trkpt>
      <trkpt lat="48.84946" lon="2.34486">
        <ele>101</ele>
        <time>2015-05-05T19:51:19.050Z</time>
      </trkpt>
      <trkpt lat="48.84941" lon="2.34482">
        <ele>101</ele>
        <time>2015-05-05T19:51:20.064Z</time>
      </trkpt>
      <trkpt lat="48.84937" lon="2.34479">
        <ele>101</ele>
        <time>2015-05-05T19:51:21.001Z</time>
      </trkpt>
      <trkpt lat="48.84932" lon="2.34476">
        <ele>101.1</ele>
        <time>2015-05-05T19:51:22.064Z</time>
      </trkpt>
      <trkpt lat="48.84927" lon="2.34474">
        <ele>101.2</ele>
        <time>2015-05-05T19:51:23.104Z</time>
      </trkpt>
      <trkpt lat="48.84919" lon="2.3447">
        <ele>101.3</ele>
        <time>2015-05-05T19:51:25.026Z</time>
      </trkpt>
      <trkpt lat="48.84916" lon="2.34468">
        <ele>101.3</ele>
        <time>2015-05-05T19:51:26.014Z</time>
      </trkpt>
      <trkpt lat="48.84909" lon="2.34464">
        <ele>101.3</ele>
        <time>2015-05-05T19:51:28.127Z</time>
      </trkpt>
      <trkpt lat="48.84905" lon="2.34462">
        <ele>101.2</ele>
        <time>2015-05-05T19:51:29.026Z</time>
      </trkpt>
      <trkpt lat="48.84898" lon="2.34459">
        <ele>101.4</ele>
        <time>2015-05-05T19:51:31.058Z</time>
      </trkpt>
      <trkpt lat="48.84895" lon="2.34457">
        <ele>101.5</ele>
        <time>2015-05-05T19:51:32.086Z</time>
      </trkpt>
      <trkpt lat="48.84889" lon="2.34453">
        <ele>101.7</ele>
        <time>2015-05-05T19:51:34.061Z</time>
      </trkpt>
      <trkpt lat="48.84886" lon="2.34451">
        <ele>101.9</ele>
        <time>2015-05-05T19:51:35.083Z</time>
      </trkpt>
      <trkpt lat="48.84879" lon="2.34449">
        <ele>102.3</ele>
        <time>2015-05-05T19:51:37.033Z</time>
      </trkpt>
      <trkpt lat="48.84875" lon="2.34449">
        <ele>102.6</ele>
        <time>2015-05-05T19:51:38.059Z</time>
      </trkpt>
      <trkpt lat="48.84869" lon="2.34447">
        <ele>103.4</ele>
        <time>2015-05-05T19:51:40.072Z</time>
      </trkpt>
      <trkpt lat="48.84866" lon="2.34447">
        <ele>103.5</ele>
        <time>2015-05-05T19:51:41.079Z</time>
      </trkpt>
      <trkpt lat="48.84859" lon="2.34444">
        <ele>103.8</ele>
        <time>2015-05-05T19:51:43.250Z</time>
      </trkpt>
      <trkpt lat="48.84856" lon="2.34441">
        <ele>103.8</ele>
        <time>2015-05-05T19:51:44.098Z</time>
      </trkpt>
      <trkpt lat="48.8485" lon="2.34437">
        <ele>104.1</ele>
        <time>2015-05-05T19:51:46.067Z</time>
      </trkpt>
      <trkpt lat="48.84846" lon="2.34435">
        <ele>104.3</ele>
        <time>2015-05-05T19:51:47.037Z</time>
      </trkpt>
      <trkpt lat="48.8484" lon="2.34432">
        <ele>104.7</ele>
        <time>2015-05-05T19:51:49.096Z</time>
      </trkpt>
      <trkpt lat="48.84837" lon="2.34431">
        <ele>104.5</ele>
        <time>2015-05-05T19:51:50.111Z</time>
      </trkpt>
      <trkpt lat="48.84831" lon="2.34428">
        <ele>104.6</ele>
        <time>2015-05-05T19:51:52.056Z</time>
      </trkpt>
      <trkpt lat="48.84828" lon="2.34427">
        <ele>104.8</ele>
        <time>2015-05-05T19:51:53.113Z</time>
      </trkpt>
      <trkpt lat="48.84822" lon="2.34425">
        <ele>105.5</ele>
        <time>2015-05-05T19:51:55.039Z</time>
      </trkpt>
      <trkpt lat="48.84819" lon="2.34424">
        <ele>105.6</ele>
        <time>2015-05-05T19:51:56.042Z</time>
      </trkpt>
      <trkpt lat="48.84811" lon="2.3442">
        <ele>106.1</ele>
        <time>2015-05-05T19:51:59.049Z</time>
      </trkpt>
      <trkpt lat="48.84808" lon="2.34419">
        <ele>106.3</ele>
        <time>2015-05-05T19:52:00.074Z</time>
      </trkpt>
      <trkpt lat="48.84802" lon="2.34416">
        <ele>106.6</ele>
        <time>2015-05-05T19:52:02.057Z</time>
      </trkpt>
      <trkpt lat="48.84798" lon="2.34414">
        <ele>106.6</ele>
        <time>2015-05-05T19:52:03.063Z</time>
      </trkpt>
      <trkpt lat="48.84791" lon="2.34412">
        <ele>106.6</ele>
        <time>2015-05-05T19:52:05.076Z</time>
      </trkpt>
      <trkpt lat="48.84788" lon="2.3441">
        <ele>106.9</ele>
        <time>2015-05-05T19:52:06.081Z</time>
      </trkpt>
      <trkpt lat="48.84782" lon="2.34406">
        <ele>107.3</ele>
        <time>2015-05-05T19:52:08.608Z</time>
      </trkpt>
      <trkpt lat="48.84779" lon="2.34404">
        <ele>107.5</ele>
        <time>2015-05-05T19:52:09.035Z</time>
      </trkpt>
      <trkpt lat="48.84773" lon="2.344">
        <ele>108.1</ele>
        <time>2015-05-05T19:52:11.067Z</time>
      </trkpt>
      <trkpt lat="48.8477" lon="2.34399">
        <ele>108.4</ele>
        <time>2015-05-05T19:52:12.073Z</time>
      </trkpt>
      <trkpt lat="48.84763" lon="2.34395">
        <ele>109</ele>
        <time>2015-05-05T19:52:15.032Z</time>
      </trkpt>
      <trkpt lat="48.8476" lon="2.34393">
        <ele>109.2</ele>
        <time>2015-05-05T19:52:16.090Z</time>
      </trkpt>
      <trkpt lat="48.84752" lon="2.34388">
        <ele>109.8</ele>
        <time>2015-05-05T19:52:19.049Z</time>
      </trkpt>
      <trkpt lat="48.8475" lon="2.34387">
        <ele>110</ele>
        <time>2015-05-05T19:52:20.031Z</time>
      </trkpt>
      <trkpt lat="48.84744" lon="2.34385">
        <ele>110.4</ele>
        <time>2015-05-05T19:52:22.126Z</time>
      </trkpt>
      <trkpt lat="48.84741" lon="2.34384">
        <ele>110.5</ele>
        <time>2015-05-05T19:52:23.033Z</time>
      </trkpt>
      <trkpt lat="48.84735" lon="2.3438">
        <ele>110.8</ele>
        <time>2015-05-05T19:52:25.052Z</time>
      </trkpt>
      <trkpt lat="48.84732" lon="2.34379">
        <ele>110.7</ele>
        <time>2015-05-05T19:52:26.076Z</time>
      </trkpt>
      <trkpt lat="48.84727" lon="2.34374">
        <ele>110.7</ele>
        <time>2015-05-05T19:52:28.133Z</time>
      </trkpt>
      <trkpt lat="48.84724" lon="2.34372">
        <ele>110.8</ele>
        <time>2015-05-05T19:52:29.037Z</time>
      </trkpt>
      <trkpt lat="48.84717" lon="2.34367">
        <ele>111.7</ele>
        <time>2015-05-05T19:52:32.093Z</time>
      </trkpt>
      <trkpt lat="48.84714" lon="2.34365">
        <ele>111.9</ele>
        <time>2015-05-05T19:52:33.142Z</time>
      </trkpt>
      <trkpt lat="48.84708" lon="2.34361">
        <ele>112.8</ele>
        <time>2015-05-05T19:52:35.153Z</time>
      </trkpt>
      <trkpt lat="48.84705" lon="2.34359">
        <ele>113.1</ele>
        <time>2015-05-05T19:52:36.032Z</time>
      </trkpt>
      <trkpt lat="48.84697" lon="2.34356">
        <ele>114.1</ele>
        <time>2015-05-05T19:52:39.044Z</time>
      </trkpt>
      <trkpt lat="48.84695" lon="2.34356">
        <ele>114.2</ele>
        <time>2015-05-05T19:52:40.102Z</time>
      </trkpt>
      <trkpt lat="48.8469" lon="2.34345">
        <ele>115.3</ele>
        <time>2015-05-05T19:52:45.131Z</time>
      </trkpt>
      <trkpt lat="48.84691" lon="2.34343">
        <ele>115.1</ele>
        <time>2015-05-05T19:52:46.148Z</time>
      </trkpt>
      <trkpt lat="48.84686" lon="2.34334">
        <ele>114.3</ele>
        <time>2015-05-05T19:53:00.068Z</time>
      </trkpt>
      <trkpt lat="48.84686" lon="2.34333">
        <ele>114.3</ele>
        <time>2015-05-05T19:53:01.050Z</time>
      </trkpt>
      <trkpt lat="48.84685" lon="2.34333">
        <ele>114.3</ele>
        <time>2015-05-05T19:53:02.055Z</time>
      </trkpt>
      <trkpt lat="48.84685" lon="2.34333">
        <ele>114</ele>
        <time>2015-05-05T19:53:03.459Z</time>
      </trkpt>
      <trkpt lat="48.84684" lon="2.34333">
        <ele>113.9</ele>
        <time>2015-05-05T19:53:04.100Z</time>
      </trkpt>
      <trkpt lat="48.84684" lon="2.34333">
        <ele>113.9</ele>
        <time>2015-05-05T19:53:05.111Z</time>
      </trkpt>
      <trkpt lat="48.84683" lon="2.34332">
        <ele>113.9</ele>
        <time>2015-05-05T19:53:07.037Z</time>
      </trkpt>
      <trkpt lat="48.84683" lon="2.34332">
        <ele>114.2</ele>
        <time>2015-05-05T19:53:08.070Z</time>
      </trkpt>
      <trkpt lat="48.84685" lon="2.34334">
        <ele>114.6</ele>
        <time>2015-05-05T19:53:20.131Z</time>
      </trkpt>
      <trkpt lat="48.84685" lon="2.34337">
        <ele>114.3</ele>
        <time>2015-05-05T19:53:21.157Z</time>
      </trkpt>
      <trkpt lat="48.84683" lon="2.34326">
        <ele>114.4</ele>
        <time>2015-05-05T19:53:30.052Z</time>
      </trkpt>
      <trkpt lat="48.84684" lon="2.34323">
        <ele>113.8</ele>
        <time>2015-05-05T19:53:31.100Z</time>
      </trkpt>
      <trkpt lat="48.84689" lon="2.34312">
        <ele>112.9</ele>
        <time>2015-05-05T19:53:34.111Z</time>
      </trkpt>
      <trkpt lat="48.84691" lon="2.34307">
        <ele>112.6</ele>
        <time>2015-05-05T19:53:35.038Z</time>
      </trkpt>
      <trkpt lat="48.84694" lon="2.34296">
        <ele>112.4</ele>
        <time>2015-05-05T19:53:37.077Z</time>
      </trkpt>
      <trkpt lat="48.84695" lon="2.34289">
        <ele>112.4</ele>
        <time>2015-05-05T19:53:38.100Z</time>
      </trkpt>
      <trkpt lat="48.84699" lon="2.34277">
        <ele>112</ele>
        <time>2015-05-05T19:53:40.076Z</time>
      </trkpt>
      <trkpt lat="48.84701" lon="2.34271">
        <ele>111.8</ele>
        <time>2015-05-05T19:53:41.007Z</time>
      </trkpt>
      <trkpt lat="48.84704" lon="2.34265">
        <ele>111.6</ele>
        <time>2015-05-05T19:53:42.046Z</time>
      </trkpt>
      <trkpt lat="48.84706" lon="2.34259">
        <ele>111.3</ele>
        <time>2015-05-05T19:53:43.050Z</time>
      </trkpt>
      <trkpt lat="48.84708" lon="2.34251">
        <ele>111</ele>
        <time>2015-05-05T19:53:44.048Z</time>
      </trkpt>
      <trkpt lat="48.8471" lon="2.34244">
        <ele>111</ele>
        <time>2015-05-05T19:53:45.066Z</time>
      </trkpt>
      <trkpt lat="48.84712" lon="2.34237">
        <ele>111</ele>
        <time>2015-05-05T19:53:46.063Z</time>
      </trkpt>
      <trkpt lat="48.84714" lon="2.34229">
        <ele>110.7</ele>
        <time>2015-05-05T19:53:47.052Z</time>
      </trkpt>
      <trkpt lat="48.84716" lon="2.34221">
        <ele>110.4</ele>
        <time>2015-05-05T19:53:48.661Z</time>
      </trkpt>
      <trkpt lat="48.84718" lon="2.34214">
        <ele>110.5</ele>
        <time>2015-05-05T19:53:49.071Z</time>
      </trkpt>
      <trkpt lat="48.84721" lon="2.34202">
        <ele>110.4</ele>
        <time>2015-05-05T19:53:51.101Z</time>
      </trkpt>
      <trkpt lat="48.84722" lon="2.34197">
        <ele>110.2</ele>
        <time>2015-05-05T19:53:52.140Z</time>
      </trkpt>
      <trkpt lat="48.84726" lon="2.34191">
        <ele>110.1</ele>
        <time>2015-05-05T19:53:53.026Z</time>
      </trkpt>
      <trkpt lat="48.84728" lon="2.34184">
        <ele>109.9</ele>
        <time>2015-05-05T19:53:54.024Z</time>
      </trkpt>
      <trkpt lat="48.84729" lon="2.34178">
        <ele>109.8</ele>
        <time>2015-05-05T19:53:55.025Z</time>
      </trkpt>
      <trkpt lat="48.8473" lon="2.3417">
        <ele>109.6</ele>
        <time>2015-05-05T19:53:56.032Z</time>
      </trkpt>
      <trkpt lat="48.84731" lon="2.34161">
        <ele>109.3</ele>
        <time>2015-05-05T19:53:57.042Z</time>
      </trkpt>
      <trkpt lat="48.84733" lon="2.34154">
        <ele>109.1</ele>
        <time>2015-05-05T19:53:58.055Z</time>
      </trkpt>
      <trkpt lat="48.84736" lon="2.34148">
        <ele>109</ele>
        <time>2015-05-05T19:53:59.059Z</time>
      </trkpt>
      <trkpt lat="48.84739" lon="2.34143">
        <ele>108.8</ele>
        <time>2015-05-05T19:54:00.078Z</time>
      </trkpt>
      <trkpt lat="48.84742" lon="2.34132">
        <ele>108.7</ele>
        <time>2015-05-05T19:54:02.018Z</time>
      </trkpt>
      <trkpt lat="48.84743" lon="2.34126">
        <ele>108.6</ele>
        <time>2015-05-05T19:54:03.047Z</time>
      </trkpt>
      <trkpt lat="48.84746" lon="2.34114">
        <ele>108.5</ele>
        <time>2015-05-05T19:54:05.083Z</time>
      </trkpt>
      <trkpt lat="48.8475" lon="2.34109">
        <ele>108.4</ele>
        <time>2015-05-05T19:54:06.063Z</time>
      </trkpt>
      <trkpt lat="48.84754" lon="2.34098">
        <ele>108.2</ele>
        <time>2015-05-05T19:54:08.024Z</time>
      </trkpt>
      <trkpt lat="48.84756" lon="2.34092">
        <ele>107.9</ele>
        <time>2015-05-05T19:54:09.091Z</time>
      </trkpt>
      <trkpt lat="48.84757" lon="2.34085">
        <ele>107.7</ele>
        <time>2015-05-05T19:54:10.119Z</time>
      </trkpt>
      <trkpt lat="48.84756" lon="2.34077">
        <ele>107.5</ele>
        <time>2015-05-05T19:54:11.011Z</time>
      </trkpt>
      <trkpt lat="48.84756" lon="2.34069">
        <ele>107.5</ele>
        <time>2015-05-05T19:54:12.028Z</time>
      </trkpt>
      <trkpt lat="48.84755" lon="2.3406">
        <ele>108.2</ele>
        <time>2015-05-05T19:54:13.062Z</time>
      </trkpt>
      <trkpt lat="48.8475" lon="2.34054">
        <ele>108.3</ele>
        <time>2015-05-05T19:54:14.074Z</time>
      </trkpt>
      <trkpt lat="48.84744" lon="2.3405">
        <ele>107.9</ele>
        <time>2015-05-05T19:54:15.080Z</time>
      </trkpt>
      <trkpt lat="48.84738" lon="2.3405">
        <ele>107.7</ele>
        <time>2015-05-05T19:54:16.133Z</time>
      </trkpt>
      <trkpt lat="48.8473" lon="2.3405">
        <ele>107.7</ele>
        <time>2015-05-05T19:54:17.049Z</time>
      </trkpt>
      <trkpt lat="48.84723" lon="2.3405">
        <ele>107.5</ele>
        <time>2015-05-05T19:54:18.071Z</time>
      </trkpt>
      <trkpt lat="48.84718" lon="2.34052">
        <ele>107.2</ele>
        <time>2015-05-05T19:54:19.082Z</time>
      </trkpt>
      <trkpt lat="48.84712" lon="2.34052">
        <ele>107.2</ele>
        <time>2015-05-05T19:54:20.096Z</time>
      </trkpt>
      <trkpt lat="48.84707" lon="2.34051">
        <ele>107.2</ele>
        <time>2015-05-05T19:54:21.105Z</time>
      </trkpt>
      <trkpt lat="48.84703" lon="2.3405">
        <ele>107.3</ele>
        <time>2015-05-05T19:54:22.112Z</time>
      </trkpt>
      <trkpt lat="48.84697" lon="2.3405">
        <ele>107.6</ele>
        <time>2015-05-05T19:54:23.126Z</time>
      </trkpt>
      <trkpt lat="48.84693" lon="2.3405">
        <ele>107.7</ele>
        <time>2015-05-05T19:54:24.047Z</time>
      </trkpt>
      <trkpt lat="48.84688" lon="2.34048">
        <ele>107.8</ele>
        <time>2015-05-05T19:54:25.050Z</time>
      </trkpt>
      <trkpt lat="48.84683" lon="2.34047">
        <ele>108.2</ele>
        <time>2015-05-05T19:54:26.056Z</time>
      </trkpt>
      <trkpt lat="48.84679" lon="2.34045">
        <ele>108.4</ele>
        <time>2015-05-05T19:54:27.066Z</time>
      </trkpt>
      <trkpt lat="48.8467" lon="2.34042">
        <ele>108.7</ele>
        <time>2015-05-05T19:54:29.039Z</time>
      </trkpt>
      <trkpt lat="48.84665" lon="2.34039">
        <ele>108.4</ele>
        <time>2015-05-05T19:54:30.063Z</time>
      </trkpt>
      <trkpt lat="48.8466" lon="2.34037">
        <ele>108.1</ele>
        <time>2015-05-05T19:54:31.031Z</time>
      </trkpt>
      <trkpt lat="48.84657" lon="2.34034">
        <ele>108.1</ele>
        <time>2015-05-05T19:54:32.028Z</time>
      </trkpt>
      <trkpt lat="48.8465" lon="2.34027">
        <ele>108.2</ele>
        <time>2015-05-05T19:54:34.063Z</time>
      </trkpt>
      <trkpt lat="48.84647" lon="2.34023">
        <ele>108.4</ele>
        <time>2015-05-05T19:54:35.078Z</time>
      </trkpt>
      <trkpt lat="48.84639" lon="2.34019">
        <ele>108.6</ele>
        <time>2015-05-05T19:54:37.033Z</time>
      </trkpt>
      <trkpt lat="48.84635" lon="2.34016">
        <ele>108.8</ele>
        <time>2015-05-05T19:54:38.045Z</time>
      </trkpt>
      <trkpt lat="48.84628" lon="2.3401">
        <ele>109.1</ele>
        <time>2015-05-05T19:54:40.115Z</time>
      </trkpt>
      <trkpt lat="48.84625" lon="2.34006">
        <ele>108.8</ele>
        <time>2015-05-05T19:54:41.062Z</time>
      </trkpt>
      <trkpt lat="48.8462" lon="2.34">
        <ele>108.4</ele>
        <time>2015-05-05T19:54:42.037Z</time>
      </trkpt>
      <trkpt lat="48.84614" lon="2.33996">
        <ele>108</ele>
        <time>2015-05-05T19:54:43.036Z</time>
      </trkpt>
      <trkpt lat="48.84609" lon="2.33994">
        <ele>107.8</ele>
        <time>2015-05-05T19:54:44.057Z</time>
      </trkpt>
      <trkpt lat="48.84604" lon="2.33991">
        <ele>107.3</ele>
        <time>2015-05-05T19:54:45.066Z</time>
      </trkpt>
      <trkpt lat="48.84599" lon="2.33988">
        <ele>107.3</ele>
        <time>2015-05-05T19:54:46.078Z</time>
      </trkpt>
      <trkpt lat="48.84593" lon="2.33986">
        <ele>107.4</ele>
        <time>2015-05-05T19:54:47.080Z</time>
      </trkpt>
      <trkpt lat="48.84587" lon="2.33984">
        <ele>107.6</ele>
        <time>2015-05-05T19:54:48.098Z</time>
      </trkpt>
      <trkpt lat="48.84582" lon="2.33982">
        <ele>107.6</ele>
        <time>2015-05-05T19:54:49.103Z</time>
      </trkpt>
      <trkpt lat="48.84576" lon="2.3398">
        <ele>107.7</ele>
        <time>2015-05-05T19:54:50.111Z</time>
      </trkpt>
      <trkpt lat="48.8457" lon="2.33978">
        <ele>107.6</ele>
        <time>2015-05-05T19:54:51.124Z</time>
      </trkpt>
      <trkpt lat="48.84564" lon="2.33975">
        <ele>107.6</ele>
        <time>2015-05-05T19:54:52.140Z</time>
      </trkpt>
      <trkpt lat="48.84559" lon="2.33972">
        <ele>107.8</ele>
        <time>2015-05-05T19:54:53.036Z</time>
      </trkpt>
      <trkpt lat="48.84554" lon="2.33969">
        <ele>107.9</ele>
        <time>2015-05-05T19:54:54.035Z</time>
      </trkpt>
      <trkpt lat="48.84549" lon="2.33966">
        <ele>108</ele>
        <time>2015-05-05T19:54:55.052Z</time>
      </trkpt>
      <trkpt lat="48.84544" lon="2.33963">
        <ele>107.9</ele>
        <time>2015-05-05T19:54:56.074Z</time>
      </trkpt>
      <trkpt lat="48.84539" lon="2.33959">
        <ele>108</ele>
        <time>2015-05-05T19:54:57.132Z</time>
      </trkpt>
      <trkpt lat="48.84535" lon="2.33956">
        <ele>108.3</ele>
        <time>2015-05-05T19:54:58.160Z</time>
      </trkpt>
      <trkpt lat="48.8453" lon="2.33953">
        <ele>108.4</ele>
        <time>2015-05-05T19:54:59.029Z</time>
      </trkpt>
      <trkpt lat="48.84525" lon="2.33951">
        <ele>108.6</ele>
        <time>2015-05-05T19:55:00.037Z</time>
      </trkpt>
      <trkpt lat="48.84521" lon="2.33948">
        <ele>108.6</ele>
        <time>2015-05-05T19:55:01.057Z</time>
      </trkpt>
      <trkpt lat="48.84516" lon="2.33945">
        <ele>108.6</ele>
        <time>2015-05-05T19:55:02.081Z</time>
      </trkpt>
      <trkpt lat="48.84512" lon="2.33943">
        <ele>108.4</ele>
        <time>2015-05-05T19:55:03.098Z</time>
      </trkpt>
      <trkpt lat="48.84507" lon="2.33941">
        <ele>108.5</ele>
        <time>2015-05-05T19:55:04.128Z</time>
      </trkpt>
      <trkpt lat="48.84503" lon="2.33938">
        <ele>108.7</ele>
        <time>2015-05-05T19:55:05.035Z</time>
      </trkpt>
      <trkpt lat="48.84498" lon="2.33937">
        <ele>108.9</ele>
        <time>2015-05-05T19:55:06.063Z</time>
      </trkpt>
      <trkpt lat="48.84492" lon="2.3394">
        <ele>109.6</ele>
        <time>2015-05-05T19:55:07.069Z</time>
      </trkpt>
      <trkpt lat="48.84486" lon="2.33942">
        <ele>109.9</ele>
        <time>2015-05-05T19:55:08.129Z</time>
      </trkpt>
      <trkpt lat="48.84481" lon="2.3394">
        <ele>109.9</ele>
        <time>2015-05-05T19:55:09.130Z</time>
      </trkpt>
      <trkpt lat="48.84473" lon="2.33937">
        <ele>109.9</ele>
        <time>2015-05-05T19:55:11.034Z</time>
      </trkpt>
      <trkpt lat="48.84468" lon="2.33937">
        <ele>110</ele>
        <time>2015-05-05T19:55:12.058Z</time>
      </trkpt>
      <trkpt lat="48.84463" lon="2.33936">
        <ele>110</ele>
        <time>2015-05-05T19:55:13.095Z</time>
      </trkpt>
      <trkpt lat="48.84458" lon="2.33934">
        <ele>110.1</ele>
        <time>2015-05-05T19:55:14.104Z</time>
      </trkpt>
      <trkpt lat="48.84454" lon="2.33931">
        <ele>110.2</ele>
        <time>2015-05-05T19:55:15.120Z</time>
      </trkpt>
      <trkpt lat="48.8445" lon="2.33927">
        <ele>110.5</ele>
        <time>2015-05-05T19:55:16.129Z</time>
      </trkpt>
      <trkpt lat="48.84442" lon="2.33922">
        <ele>110.2</ele>
        <time>2015-05-05T19:55:18.061Z</time>
      </trkpt>
      <trkpt lat="48.84438" lon="2.3392">
        <ele>110.4</ele>
        <time>2015-05-05T19:55:19.077Z</time>
      </trkpt>
      <trkpt lat="48.84431" lon="2.33914">
        <ele>110.4</ele>
        <time>2015-05-05T19:55:21.061Z</time>
      </trkpt>
      <trkpt lat="48.84427" lon="2.33911">
        <ele>110.3</ele>
        <time>2015-05-05T19:55:22.078Z</time>
      </trkpt>
      <trkpt lat="48.8442" lon="2.33904">
        <ele>110.4</ele>
        <time>2015-05-05T19:55:24.098Z</time>
      </trkpt>
      <trkpt lat="48.84416" lon="2.33901">
        <ele>110.6</ele>
        <time>2015-05-05T19:55:25.112Z</time>
      </trkpt>
      <trkpt lat="48.84412" lon="2.33898">
        <ele>110.7</ele>
        <time>2015-05-05T19:55:24.876Z</time>
      </trkpt>
      <trkpt lat="48.84408" lon="2.33895">
        <ele>110.7</ele>
        <time>2015-05-05T19:55:27.046Z</time>
      </trkpt>
      <trkpt lat="48.84403" lon="2.33891">
        <ele>110.5</ele>
        <time>2015-05-05T19:55:28.294Z</time>
      </trkpt>
      <trkpt lat="48.84399" lon="2.33888">
        <ele>110.4</ele>
        <time>2015-05-05T19:55:29.173Z</time>
      </trkpt>
      <trkpt lat="48.84394" lon="2.33884">
        <ele>110.2</ele>
        <time>2015-05-05T19:55:30.066Z</time>
      </trkpt>
      <trkpt lat="48.84389" lon="2.33881">
        <ele>110.1</ele>
        <time>2015-05-05T19:55:31.081Z</time>
      </trkpt>
      <trkpt lat="48.84384" lon="2.33878">
        <ele>110</ele>
        <time>2015-05-05T19:55:32.086Z</time>
      </trkpt>
      <trkpt lat="48.84379" lon="2.33875">
        <ele>110</ele>
        <time>2015-05-05T19:55:33.102Z</time>
      </trkpt>
      <trkpt lat="48.84372" lon="2.33869">
        <ele>110</ele>
        <time>2015-05-05T19:55:35.101Z</time>
      </trkpt>
      <trkpt lat="48.84368" lon="2.33866">
        <ele>110.2</ele>
        <time>2015-05-05T19:55:36.113Z</time>
      </trkpt>
      <trkpt lat="48.84361" lon="2.33861">
        <ele>110.3</ele>
        <time>2015-05-05T19:55:38.057Z</time>
      </trkpt>
      <trkpt lat="48.84357" lon="2.33858">
        <ele>110.4</ele>
        <time>2015-05-05T19:55:39.081Z</time>
      </trkpt>
      <trkpt lat="48.84352" lon="2.33855">
        <ele>110.4</ele>
        <time>2015-05-05T19:55:40.108Z</time>
      </trkpt>
      <trkpt lat="48.84347" lon="2.33851">
        <ele>110.2</ele>
        <time>2015-05-05T19:55:41.115Z</time>
      </trkpt>
      <trkpt lat="48.8434" lon="2.3385">
        <ele>110.2</ele>
        <time>2015-05-05T19:55:42.032Z</time>
      </trkpt>
      <trkpt lat="48.84334" lon="2.33851">
        <ele>110.3</ele>
        <time>2015-05-05T19:55:43.070Z</time>
      </trkpt>
      <trkpt lat="48.84328" lon="2.3385">
        <ele>110.3</ele>
        <time>2015-05-05T19:55:44.079Z</time>
      </trkpt>
      <trkpt lat="48.84324" lon="2.33848">
        <ele>110.2</ele>
        <time>2015-05-05T19:55:45.090Z</time>
      </trkpt>
      <trkpt lat="48.84319" lon="2.33847">
        <ele>110.3</ele>
        <time>2015-05-05T19:55:46.113Z</time>
      </trkpt>
      <trkpt lat="48.84314" lon="2.33843">
        <ele>110.2</ele>
        <time>2015-05-05T19:55:47.122Z</time>
      </trkpt>
      <trkpt lat="48.8431" lon="2.33838">
        <ele>110.2</ele>
        <time>2015-05-05T19:55:48.042Z</time>
      </trkpt>
      <trkpt lat="48.84305" lon="2.33834">
        <ele>110.3</ele>
        <time>2015-05-05T19:55:49.006Z</time>
      </trkpt>
      <trkpt lat="48.843" lon="2.3383">
        <ele>110.2</ele>
        <time>2015-05-05T19:55:48.957Z</time>
      </trkpt>
      <trkpt lat="48.84295" lon="2.33826">
        <ele>110.4</ele>
        <time>2015-05-05T19:55:51.068Z</time>
      </trkpt>
      <trkpt lat="48.84291" lon="2.33823">
        <ele>110.3</ele>
        <time>2015-05-05T19:55:52.096Z</time>
      </trkpt>
      <trkpt lat="48.84286" lon="2.33819">
        <ele>110.3</ele>
        <time>2015-05-05T19:55:53.013Z</time>
      </trkpt>
      <trkpt lat="48.8428" lon="2.33815">
        <ele>110.5</ele>
        <time>2015-05-05T19:55:54.068Z</time>
      </trkpt>
      <trkpt lat="48.84275" lon="2.33812">
        <ele>110.4</ele>
        <time>2015-05-05T19:55:55.092Z</time>
      </trkpt>
      <trkpt lat="48.84271" lon="2.33808">
        <ele>110.3</ele>
        <time>2015-05-05T19:55:56.111Z</time>
      </trkpt>
      <trkpt lat="48.84267" lon="2.33803">
        <ele>110.1</ele>
        <time>2015-05-05T19:55:57.126Z</time>
      </trkpt>
      <trkpt lat="48.84263" lon="2.33797">
        <ele>110.2</ele>
        <time>2015-05-05T19:55:58.154Z</time>
      </trkpt>
      <trkpt lat="48.84258" lon="2.33794">
        <ele>110.4</ele>
        <time>2015-05-05T19:55:59.033Z</time>
      </trkpt>
      <trkpt lat="48.84253" lon="2.33792">
        <ele>110.7</ele>
        <time>2015-05-05T19:56:00.064Z</time>
      </trkpt>
      <trkpt lat="48.84249" lon="2.3379">
        <ele>110.7</ele>
        <time>2015-05-05T19:56:01.075Z</time>
      </trkpt>
      <trkpt lat="48.84244" lon="2.33789">
        <ele>110.9</ele>
        <time>2015-05-05T19:56:02.128Z</time>
      </trkpt>
      <trkpt lat="48.8424" lon="2.33785">
        <ele>111.1</ele>
        <time>2015-05-05T19:56:03.039Z</time>
      </trkpt>
      <trkpt lat="48.84236" lon="2.33782">
        <ele>111.2</ele>
        <time>2015-05-05T19:56:04.076Z</time>
      </trkpt>
      <trkpt lat="48.84232" lon="2.33778">
        <ele>111.2</ele>
        <time>2015-05-05T19:56:05.094Z</time>
      </trkpt>
      <trkpt lat="48.84225" lon="2.33773">
        <ele>111.2</ele>
        <time>2015-05-05T19:56:07.043Z</time>
      </trkpt>
      <trkpt lat="48.84221" lon="2.3377">
        <ele>111</ele>
        <time>2015-05-05T19:56:08.063Z</time>
      </trkpt>
      <trkpt lat="48.84213" lon="2.33766">
        <ele>111</ele>
        <time>2015-05-05T19:56:10.083Z</time>
      </trkpt>
      <trkpt lat="48.84209" lon="2.33763">
        <ele>110.9</ele>
        <time>2015-05-05T19:56:11.107Z</time>
      </trkpt>
      <trkpt lat="48.84205" lon="2.3376">
        <ele>110.9</ele>
        <time>2015-05-05T19:56:12.026Z</time>
      </trkpt>
      <trkpt lat="48.84201" lon="2.33757">
        <ele>110.7</ele>
        <time>2015-05-05T19:56:13.051Z</time>
      </trkpt>
      <trkpt lat="48.84195" lon="2.33756">
        <ele>110.6</ele>
        <time>2015-05-05T19:56:14.050Z</time>
      </trkpt>
      <trkpt lat="48.8419" lon="2.33754">
        <ele>110.9</ele>
        <time>2015-05-05T19:56:15.050Z</time>
      </trkpt>
      <trkpt lat="48.84185" lon="2.3375">
        <ele>111</ele>
        <time>2015-05-05T19:56:16.083Z</time>
      </trkpt>
      <trkpt lat="48.8418" lon="2.33747">
        <ele>110.8</ele>
        <time>2015-05-05T19:56:17.089Z</time>
      </trkpt>
      <trkpt lat="48.84174" lon="2.33744">
        <ele>111</ele>
        <time>2015-05-05T19:56:18.039Z</time>
      </trkpt>
      <trkpt lat="48.84168" lon="2.33742">
        <ele>111.2</ele>
        <time>2015-05-05T19:56:19.031Z</time>
      </trkpt>
      <trkpt lat="48.84161" lon="2.3374">
        <ele>111.3</ele>
        <time>2015-05-05T19:56:20.041Z</time>
      </trkpt>
      <trkpt lat="48.84154" lon="2.33738">
        <ele>111.6</ele>
        <time>2015-05-05T19:56:21.053Z</time>
      </trkpt>
      <trkpt lat="48.84147" lon="2.33737">
        <ele>111.8</ele>
        <time>2015-05-05T19:56:22.097Z</time>
      </trkpt>
      <trkpt lat="48.8414" lon="2.33737">
        <ele>112.1</ele>
        <time>2015-05-05T19:56:23.101Z</time>
      </trkpt>
      <trkpt lat="48.84133" lon="2.33736">
        <ele>112.4</ele>
        <time>2015-05-05T19:56:24.044Z</time>
      </trkpt>
      <trkpt lat="48.84127" lon="2.33734">
        <ele>112.7</ele>
        <time>2015-05-05T19:56:25.029Z</time>
      </trkpt>
      <trkpt lat="48.84121" lon="2.33732">
        <ele>113</ele>
        <time>2015-05-05T19:56:26.057Z</time>
      </trkpt>
      <trkpt lat="48.84114" lon="2.33731">
        <ele>113.5</ele>
        <time>2015-05-05T19:56:27.141Z</time>
      </trkpt>
      <trkpt lat="48.84108" lon="2.33729">
        <ele>114.1</ele>
        <time>2015-05-05T19:56:28.078Z</time>
      </trkpt>
      <trkpt lat="48.84101" lon="2.33727">
        <ele>114.4</ele>
        <time>2015-05-05T19:56:29.082Z</time>
      </trkpt>
      <trkpt lat="48.84096" lon="2.33725">
        <ele>114.6</ele>
        <time>2015-05-05T19:56:30.091Z</time>
      </trkpt>
      <trkpt lat="48.8409" lon="2.33721">
        <ele>114.8</ele>
        <time>2015-05-05T19:56:31.102Z</time>
      </trkpt>
      <trkpt lat="48.84086" lon="2.33716">
        <ele>115.2</ele>
        <time>2015-05-05T19:56:32.109Z</time>
      </trkpt>
      <trkpt lat="48.8408" lon="2.33712">
        <ele>115.3</ele>
        <time>2015-05-05T19:56:33.035Z</time>
      </trkpt>
      <trkpt lat="48.84075" lon="2.33707">
        <ele>115.3</ele>
        <time>2015-05-05T19:56:34.144Z</time>
      </trkpt>
      <trkpt lat="48.8407" lon="2.33703">
        <ele>115.6</ele>
        <time>2015-05-05T19:56:35.044Z</time>
      </trkpt>
      <trkpt lat="48.84066" lon="2.33697">
        <ele>115.6</ele>
        <time>2015-05-05T19:56:36.058Z</time>
      </trkpt>
      <trkpt lat="48.84061" lon="2.33692">
        <ele>115.6</ele>
        <time>2015-05-05T19:56:37.066Z</time>
      </trkpt>
      <trkpt lat="48.84057" lon="2.33688">
        <ele>115.7</ele>
        <time>2015-05-05T19:56:38.080Z</time>
      </trkpt>
      <trkpt lat="48.84053" lon="2.33683">
        <ele>115.7</ele>
        <time>2015-05-05T19:56:39.097Z</time>
      </trkpt>
      <trkpt lat="48.84048" lon="2.33679">
        <ele>115.7</ele>
        <time>2015-05-05T19:56:40.101Z</time>
      </trkpt>
      <trkpt lat="48.84044" lon="2.33675">
        <ele>115.9</ele>
        <time>2015-05-05T19:56:41.112Z</time>
      </trkpt>
      <trkpt lat="48.8404" lon="2.33671">
        <ele>115.8</ele>
        <time>2015-05-05T19:56:42.112Z</time>
      </trkpt>
      <trkpt lat="48.84035" lon="2.33668">
        <ele>116</ele>
        <time>2015-05-05T19:56:43.136Z</time>
      </trkpt>
      <trkpt lat="48.84027" lon="2.33665">
        <ele>115.9</ele>
        <time>2015-05-05T19:56:45.073Z</time>
      </trkpt>
      <trkpt lat="48.84023" lon="2.33663">
        <ele>115.7</ele>
        <time>2015-05-05T19:56:46.144Z</time>
      </trkpt>
      <trkpt lat="48.84018" lon="2.33661">
        <ele>115.8</ele>
        <time>2015-05-05T19:56:47.115Z</time>
      </trkpt>
      <trkpt lat="48.84014" lon="2.33659">
        <ele>115.8</ele>
        <time>2015-05-05T19:56:48.124Z</time>
      </trkpt>
      <trkpt lat="48.84005" lon="2.33658">
        <ele>115.7</ele>
        <time>2015-05-05T19:56:50.105Z</time>
      </trkpt>
      <trkpt lat="48.84001" lon="2.33659">
        <ele>115.2</ele>
        <time>2015-05-05T19:56:51.147Z</time>
      </trkpt>
      <trkpt lat="48.83994" lon="2.33658">
        <ele>115.5</ele>
        <time>2015-05-05T19:56:53.045Z</time>
      </trkpt>
      <trkpt lat="48.83991" lon="2.33655">
        <ele>115.7</ele>
        <time>2015-05-05T19:56:54.136Z</time>
      </trkpt>
      <trkpt lat="48.83986" lon="2.33648">
        <ele>116</ele>
        <time>2015-05-05T19:56:56.058Z</time>
      </trkpt>
      <trkpt lat="48.83984" lon="2.33643">
        <ele>115.8</ele>
        <time>2015-05-05T19:56:57.080Z</time>
      </trkpt>
      <trkpt lat="48.83982" lon="2.33632">
        <ele>115.2</ele>
        <time>2015-05-05T19:56:59.110Z</time>
      </trkpt>
      <trkpt lat="48.83982" lon="2.33628">
        <ele>115.1</ele>
        <time>2015-05-05T19:57:00.059Z</time>
      </trkpt>
      <trkpt lat="48.83982" lon="2.33619">
        <ele>114.9</ele>
        <time>2015-05-05T19:57:02.093Z</time>
      </trkpt>
      <trkpt lat="48.83982" lon="2.33614">
        <ele>114.9</ele>
        <time>2015-05-05T19:57:03.109Z</time>
      </trkpt>
      <trkpt lat="48.83984" lon="2.33604">
        <ele>114.7</ele>
        <time>2015-05-05T19:57:05.076Z</time>
      </trkpt>
      <trkpt lat="48.83984" lon="2.33599">
        <ele>114.5</ele>
        <time>2015-05-05T19:57:06.071Z</time>
      </trkpt>
      <trkpt lat="48.83988" lon="2.33587">
        <ele>113.9</ele>
        <time>2015-05-05T19:57:09.108Z</time>
      </trkpt>
      <trkpt lat="48.83989" lon="2.33583">
        <ele>113.6</ele>
        <time>2015-05-05T19:57:10.120Z</time>
      </trkpt>
      <trkpt lat="48.83992" lon="2.33575">
        <ele>113.2</ele>
        <time>2015-05-05T19:57:12.058Z</time>
      </trkpt>
      <trkpt lat="48.83992" lon="2.3357">
        <ele>113</ele>
        <time>2015-05-05T19:57:13.064Z</time>
      </trkpt>
      <trkpt lat="48.83997" lon="2.33561">
        <ele>112.9</ele>
        <time>2015-05-05T19:57:15.127Z</time>
      </trkpt>
      <trkpt lat="48.84" lon="2.33556">
        <ele>112.7</ele>
        <time>2015-05-05T19:57:16.163Z</time>
      </trkpt>
      <trkpt lat="48.84004" lon="2.33545">
        <ele>112.5</ele>
        <time>2015-05-05T19:57:18.038Z</time>
      </trkpt>
      <trkpt lat="48.84006" lon="2.3354">
        <ele>112.5</ele>
        <time>2015-05-05T19:57:19.080Z</time>
      </trkpt>
      <trkpt lat="48.84008" lon="2.33527">
        <ele>112.4</ele>
        <time>2015-05-05T19:57:21.090Z</time>
      </trkpt>
      <trkpt lat="48.84009" lon="2.33521">
        <ele>112.3</ele>
        <time>2015-05-05T19:57:22.162Z</time>
      </trkpt>
      <trkpt lat="48.8401" lon="2.33508">
        <ele>112.1</ele>
        <time>2015-05-05T19:57:24.088Z</time>
      </trkpt>
      <trkpt lat="48.8401" lon="2.33501">
        <ele>111.9</ele>
        <time>2015-05-05T19:57:25.156Z</time>
      </trkpt>
      <trkpt lat="48.84011" lon="2.33488">
        <ele>111.8</ele>
        <time>2015-05-05T19:57:27.047Z</time>
      </trkpt>
      <trkpt lat="48.84014" lon="2.33484">
        <ele>111.5</ele>
        <time>2015-05-05T19:57:28.161Z</time>
      </trkpt>
      <trkpt lat="48.84018" lon="2.33473">
        <ele>111.3</ele>
        <time>2015-05-05T19:57:30.037Z</time>
      </trkpt>
      <trkpt lat="48.84021" lon="2.33468">
        <ele>111.1</ele>
        <time>2015-05-05T19:57:31.100Z</time>
      </trkpt>
      <trkpt lat="48.84022" lon="2.33462">
        <ele>110.9</ele>
        <time>2015-05-05T19:57:32.121Z</time>
      </trkpt>
      <trkpt lat="48.84024" lon="2.33455">
        <ele>110.9</ele>
        <time>2015-05-05T19:57:33.139Z</time>
      </trkpt>
      <trkpt lat="48.84029" lon="2.33444">
        <ele>110.5</ele>
        <time>2015-05-05T19:57:35.041Z</time>
      </trkpt>
      <trkpt lat="48.8403" lon="2.33438">
        <ele>110.3</ele>
        <time>2015-05-05T19:57:36.079Z</time>
      </trkpt>
      <trkpt lat="48.84036" lon="2.33429">
        <ele>109.9</ele>
        <time>2015-05-05T19:57:38.052Z</time>
      </trkpt>
      <trkpt lat="48.84038" lon="2.33424">
        <ele>109.7</ele>
        <time>2015-05-05T19:57:39.142Z</time>
      </trkpt>
      <trkpt lat="48.84044" lon="2.33415">
        <ele>109.4</ele>
        <time>2015-05-05T19:57:41.059Z</time>
      </trkpt>
      <trkpt lat="48.84047" lon="2.3341">
        <ele>109.4</ele>
        <time>2015-05-05T19:57:42.076Z</time>
      </trkpt>
      <trkpt lat="48.84053" lon="2.33401">
        <ele>109.3</ele>
        <time>2015-05-05T19:57:44.056Z</time>
      </trkpt>
      <trkpt lat="48.84057" lon="2.33397">
        <ele>109.2</ele>
        <time>2015-05-05T19:57:45.111Z</time>
      </trkpt>
      <trkpt lat="48.8406" lon="2.33392">
        <ele>109</ele>
        <time>2015-05-05T19:57:46.092Z</time>
      </trkpt>
      <trkpt lat="48.84064" lon="2.33387">
        <ele>109</ele>
        <time>2015-05-05T19:57:47.091Z</time>
      </trkpt>
      <trkpt lat="48.84067" lon="2.33382">
        <ele>109</ele>
        <time>2015-05-05T19:57:48.108Z</time>
      </trkpt>
      <trkpt lat="48.84071" lon="2.33378">
        <ele>108.9</ele>
        <time>2015-05-05T19:57:49.027Z</time>
      </trkpt>
      <trkpt lat="48.84075" lon="2.33372">
        <ele>108.6</ele>
        <time>2015-05-05T19:57:50.044Z</time>
      </trkpt>
      <trkpt lat="48.84079" lon="2.33366">
        <ele>108.6</ele>
        <time>2015-05-05T19:57:51.070Z</time>
      </trkpt>
      <trkpt lat="48.84084" lon="2.33361">
        <ele>108.4</ele>
        <time>2015-05-05T19:57:52.101Z</time>
      </trkpt>
      <trkpt lat="48.84089" lon="2.33356">
        <ele>108.2</ele>
        <time>2015-05-05T19:57:53.115Z</time>
      </trkpt>
      <trkpt lat="48.84093" lon="2.3335">
        <ele>108</ele>
        <time>2015-05-05T19:57:54.127Z</time>
      </trkpt>
      <trkpt lat="48.84097" lon="2.33345">
        <ele>107.9</ele>
        <time>2015-05-05T19:57:54.998Z</time>
      </trkpt>
      <trkpt lat="48.841" lon="2.33339">
        <ele>107.7</ele>
        <time>2015-05-05T19:57:56.043Z</time>
      </trkpt>
      <trkpt lat="48.84103" lon="2.33332">
        <ele>107.6</ele>
        <time>2015-05-05T19:57:57.079Z</time>
      </trkpt>
      <trkpt lat="48.84107" lon="2.33324">
        <ele>107.4</ele>
        <time>2015-05-05T19:57:58.042Z</time>
      </trkpt>
      <trkpt lat="48.84109" lon="2.33317">
        <ele>107.2</ele>
        <time>2015-05-05T19:57:59.061Z</time>
      </trkpt>
      <trkpt lat="48.84113" lon="2.33309">
        <ele>107.1</ele>
        <time>2015-05-05T19:58:00.082Z</time>
      </trkpt>
      <trkpt lat="48.84118" lon="2.33301">
        <ele>107</ele>
        <time>2015-05-05T19:58:01.074Z</time>
      </trkpt>
      <trkpt lat="48.84122" lon="2.33293">
        <ele>106.9</ele>
        <time>2015-05-05T19:58:02.086Z</time>
      </trkpt>
      <trkpt lat="48.84126" lon="2.33284">
        <ele>107.4</ele>
        <time>2015-05-05T19:58:03.019Z</time>
      </trkpt>
      <trkpt lat="48.84129" lon="2.33273">
        <ele>107.8</ele>
        <time>2015-05-05T19:58:04.108Z</time>
      </trkpt>
      <trkpt lat="48.84132" lon="2.33262">
        <ele>108.1</ele>
        <time>2015-05-05T19:58:05.050Z</time>
      </trkpt>
      <trkpt lat="48.84136" lon="2.33252">
        <ele>108.1</ele>
        <time>2015-05-05T19:58:06.081Z</time>
      </trkpt>
      <trkpt lat="48.84139" lon="2.3324">
        <ele>108.7</ele>
        <time>2015-05-05T19:58:07.135Z</time>
      </trkpt>
      <trkpt lat="48.84144" lon="2.3323">
        <ele>109</ele>
        <time>2015-05-05T19:58:08.003Z</time>
      </trkpt>
      <trkpt lat="48.84148" lon="2.33219">
        <ele>108.9</ele>
        <time>2015-05-05T19:58:09.063Z</time>
      </trkpt>
      <trkpt lat="48.84152" lon="2.33209">
        <ele>109</ele>
        <time>2015-05-05T19:58:10.216Z</time>
      </trkpt>
      <trkpt lat="48.84156" lon="2.33195">
        <ele>108.8</ele>
        <time>2015-05-05T19:58:11.033Z</time>
      </trkpt>
      <trkpt lat="48.84159" lon="2.33184">
        <ele>108.5</ele>
        <time>2015-05-05T19:58:12.039Z</time>
      </trkpt>
      <trkpt lat="48.84161" lon="2.3317">
        <ele>108.8</ele>
        <time>2015-05-05T19:58:13.053Z</time>
      </trkpt>
      <trkpt lat="48.84161" lon="2.33157">
        <ele>109.3</ele>
        <time>2015-05-05T19:58:14.033Z</time>
      </trkpt>
      <trkpt lat="48.84161" lon="2.33143">
        <ele>109.4</ele>
        <time>2015-05-05T19:58:15.019Z</time>
      </trkpt>
      <trkpt lat="48.84164" lon="2.33131">
        <ele>109.1</ele>
        <time>2015-05-05T19:58:16.062Z</time>
      </trkpt>
      <trkpt lat="48.84166" lon="2.33118">
        <ele>109.1</ele>
        <time>2015-05-05T19:58:17.068Z</time>
      </trkpt>
      <trkpt lat="48.84168" lon="2.33106">
        <ele>109</ele>
        <time>2015-05-05T19:58:18.080Z</time>
      </trkpt>
      <trkpt lat="48.8417" lon="2.33093">
        <ele>109</ele>
        <time>2015-05-05T19:58:19.091Z</time>
      </trkpt>
      <trkpt lat="48.84171" lon="2.33082">
        <ele>108.9</ele>
        <time>2015-05-05T19:58:20.100Z</time>
      </trkpt>
      <trkpt lat="48.8417" lon="2.33069">
        <ele>108.9</ele>
        <time>2015-05-05T19:58:21.097Z</time>
      </trkpt>
      <trkpt lat="48.84172" lon="2.33059">
        <ele>108.3</ele>
        <time>2015-05-05T19:58:22.126Z</time>
      </trkpt>
      <trkpt lat="48.84173" lon="2.33048">
        <ele>107.8</ele>
        <time>2015-05-05T19:58:23.011Z</time>
      </trkpt>
      <trkpt lat="48.84175" lon="2.33038">
        <ele>107.1</ele>
        <time>2015-05-05T19:58:24.042Z</time>
      </trkpt>
      <trkpt lat="48.84173" lon="2.33028">
        <ele>107.1</ele>
        <time>2015-05-05T19:58:25.067Z</time>
      </trkpt>
      <trkpt lat="48.84173" lon="2.33018">
        <ele>106.5</ele>
        <time>2015-05-05T19:58:26.100Z</time>
      </trkpt>
      <trkpt lat="48.84173" lon="2.33009">
        <ele>106.5</ele>
        <time>2015-05-05T19:58:27.014Z</time>
      </trkpt>
      <trkpt lat="48.84172" lon="2.33">
        <ele>106</ele>
        <time>2015-05-05T19:58:28.120Z</time>
      </trkpt>
      <trkpt lat="48.84173" lon="2.32994">
        <ele>106.4</ele>
        <time>2015-05-05T19:58:29.020Z</time>
      </trkpt>
      <trkpt lat="48.84173" lon="2.32983">
        <ele>104.4</ele>
        <time>2015-05-05T19:58:31.033Z</time>
      </trkpt>
      <trkpt lat="48.84174" lon="2.32979">
        <ele>104</ele>
        <time>2015-05-05T19:58:32.067Z</time>
      </trkpt>
      <trkpt lat="48.84181" lon="2.3298">
        <ele>105.8</ele>
        <time>2015-05-05T19:58:35.047Z</time>
      </trkpt>
      <trkpt lat="48.84184" lon="2.32983">
        <ele>106</ele>
        <time>2015-05-05T19:58:36.043Z</time>
      </trkpt>
      <trkpt lat="48.84188" lon="2.32973">
        <ele>107</ele>
        <time>2015-05-05T19:58:41.252Z</time>
      </trkpt>
      <trkpt lat="48.8419" lon="2.32969">
        <ele>107.1</ele>
        <time>2015-05-05T19:58:42.089Z</time>
      </trkpt>
      <trkpt lat="48.84195" lon="2.32961">
        <ele>106.7</ele>
        <time>2015-05-05T19:58:44.106Z</time>
      </trkpt>
      <trkpt lat="48.84197" lon="2.32958">
        <ele>106.2</ele>
        <time>2015-05-05T19:58:45.044Z</time>
      </trkpt>
      <trkpt lat="48.84199" lon="2.32948">
        <ele>106.6</ele>
        <time>2015-05-05T19:58:47.022Z</time>
      </trkpt>
      <trkpt lat="48.842" lon="2.32942">
        <ele>107.1</ele>
        <time>2015-05-05T19:58:48.033Z</time>
      </trkpt>
      <trkpt lat="48.84204" lon="2.32931">
        <ele>106.8</ele>
        <time>2015-05-05T19:58:50.074Z</time>
      </trkpt>
      <trkpt lat="48.84207" lon="2.32926">
        <ele>106.7</ele>
        <time>2015-05-05T19:58:51.086Z</time>
      </trkpt>
      <trkpt lat="48.84209" lon="2.32921">
        <ele>106.6</ele>
        <time>2015-05-05T19:58:52.107Z</time>
      </trkpt>
      <trkpt lat="48.84212" lon="2.32914">
        <ele>106.9</ele>
        <time>2015-05-05T19:58:53.139Z</time>
      </trkpt>
      <trkpt lat="48.84214" lon="2.32908">
        <ele>107.3</ele>
        <time>2015-05-05T19:58:54.047Z</time>
      </trkpt>
      <trkpt lat="48.84216" lon="2.32901">
        <ele>107.8</ele>
        <time>2015-05-05T19:58:55.171Z</time>
      </trkpt>
      <trkpt lat="48.84218" lon="2.32894">
        <ele>107.7</ele>
        <time>2015-05-05T19:58:56.080Z</time>
      </trkpt>
      <trkpt lat="48.8422" lon="2.32888">
        <ele>107.7</ele>
        <time>2015-05-05T19:58:57.091Z</time>
      </trkpt>
      <trkpt lat="48.84219" lon="2.3288">
        <ele>107.6</ele>
        <time>2015-05-05T19:58:58.113Z</time>
      </trkpt>
      <trkpt lat="48.8422" lon="2.32872">
        <ele>107.4</ele>
        <time>2015-05-05T19:58:59.029Z</time>
      </trkpt>
      <trkpt lat="48.84218" lon="2.32863">
        <ele>107.5</ele>
        <time>2015-05-05T19:59:00.046Z</time>
      </trkpt>
      <trkpt lat="48.8422" lon="2.32857">
        <ele>107.3</ele>
        <time>2015-05-05T19:59:01.060Z</time>
      </trkpt>
      <trkpt lat="48.84222" lon="2.3285">
        <ele>107.3</ele>
        <time>2015-05-05T19:59:02.083Z</time>
      </trkpt>
      <trkpt lat="48.84224" lon="2.32843">
        <ele>107.1</ele>
        <time>2015-05-05T19:59:03.097Z</time>
      </trkpt>
      <trkpt lat="48.84227" lon="2.32835">
        <ele>106.9</ele>
        <time>2015-05-05T19:59:04.126Z</time>
      </trkpt>
      <trkpt lat="48.8423" lon="2.32828">
        <ele>106.5</ele>
        <time>2015-05-05T19:59:05.049Z</time>
      </trkpt>
      <trkpt lat="48.84233" lon="2.3282">
        <ele>106.3</ele>
        <time>2015-05-05T19:59:06.077Z</time>
      </trkpt>
      <trkpt lat="48.84237" lon="2.32813">
        <ele>106.4</ele>
        <time>2015-05-05T19:59:07.100Z</time>
      </trkpt>
      <trkpt lat="48.84242" lon="2.32806">
        <ele>105.8</ele>
        <time>2015-05-05T19:59:08.022Z</time>
      </trkpt>
      <trkpt lat="48.84246" lon="2.32798">
        <ele>105.8</ele>
        <time>2015-05-05T19:59:09.021Z</time>
      </trkpt>
      <trkpt lat="48.8425" lon="2.32792">
        <ele>105.6</ele>
        <time>2015-05-05T19:59:10.073Z</time>
      </trkpt>
      <trkpt lat="48.84254" lon="2.32786">
        <ele>105.4</ele>
        <time>2015-05-05T19:59:11.069Z</time>
      </trkpt>
      <trkpt lat="48.84258" lon="2.32779">
        <ele>105.1</ele>
        <time>2015-05-05T19:59:12.076Z</time>
      </trkpt>
      <trkpt lat="48.84262" lon="2.32772">
        <ele>104.8</ele>
        <time>2015-05-05T19:59:13.095Z</time>
      </trkpt>
      <trkpt lat="48.84265" lon="2.32765">
        <ele>104.6</ele>
        <time>2015-05-05T19:59:14.013Z</time>
      </trkpt>
      <trkpt lat="48.84268" lon="2.32757">
        <ele>104.7</ele>
        <time>2015-05-05T19:59:15.024Z</time>
      </trkpt>
      <trkpt lat="48.84271" lon="2.32749">
        <ele>104.5</ele>
        <time>2015-05-05T19:59:16.036Z</time>
      </trkpt>
      <trkpt lat="48.84274" lon="2.3274">
        <ele>104</ele>
        <time>2015-05-05T19:59:17.053Z</time>
      </trkpt>
      <trkpt lat="48.84278" lon="2.32733">
        <ele>103.8</ele>
        <time>2015-05-05T19:59:18.076Z</time>
      </trkpt>
      <trkpt lat="48.84282" lon="2.32726">
        <ele>103.7</ele>
        <time>2015-05-05T19:59:19.079Z</time>
      </trkpt>
      <trkpt lat="48.84284" lon="2.32718">
        <ele>103.6</ele>
        <time>2015-05-05T19:59:20.013Z</time>
      </trkpt>
      <trkpt lat="48.84286" lon="2.3271">
        <ele>103.6</ele>
        <time>2015-05-05T19:59:21.012Z</time>
      </trkpt>
      <trkpt lat="48.84287" lon="2.32701">
        <ele>103.5</ele>
        <time>2015-05-05T19:59:22.066Z</time>
      </trkpt>
      <trkpt lat="48.84289" lon="2.32693">
        <ele>103.4</ele>
        <time>2015-05-05T19:59:23.067Z</time>
      </trkpt>
      <trkpt lat="48.84291" lon="2.32686">
        <ele>103</ele>
        <time>2015-05-05T19:59:24.079Z</time>
      </trkpt>
      <trkpt lat="48.84293" lon="2.32678">
        <ele>103</ele>
        <time>2015-05-05T19:59:25.089Z</time>
      </trkpt>
      <trkpt lat="48.84297" lon="2.32671">
        <ele>102.9</ele>
        <time>2015-05-05T19:59:26.109Z</time>
      </trkpt>
      <trkpt lat="48.843" lon="2.32665">
        <ele>102.8</ele>
        <time>2015-05-05T19:59:27.116Z</time>
      </trkpt>
      <trkpt lat="48.84304" lon="2.32659">
        <ele>102.7</ele>
        <time>2015-05-05T19:59:28.139Z</time>
      </trkpt>
      <trkpt lat="48.84309" lon="2.32654">
        <ele>102.3</ele>
        <time>2015-05-05T19:59:29.019Z</time>
      </trkpt>
      <trkpt lat="48.84313" lon="2.32648">
        <ele>101.9</ele>
        <time>2015-05-05T19:59:30.023Z</time>
      </trkpt>
      <trkpt lat="48.84315" lon="2.32641">
        <ele>101.7</ele>
        <time>2015-05-05T19:59:31.033Z</time>
      </trkpt>
      <trkpt lat="48.84318" lon="2.32633">
        <ele>101.7</ele>
        <time>2015-05-05T19:59:32.043Z</time>
      </trkpt>
      <trkpt lat="48.8432" lon="2.32625">
        <ele>101.6</ele>
        <time>2015-05-05T19:59:33.051Z</time>
      </trkpt>
      <trkpt lat="48.84321" lon="2.32616">
        <ele>101.5</ele>
        <time>2015-05-05T19:59:34.085Z</time>
      </trkpt>
      <trkpt lat="48.84323" lon="2.32607">
        <ele>101.5</ele>
        <time>2015-05-05T19:59:35.107Z</time>
      </trkpt>
      <trkpt lat="48.84326" lon="2.32598">
        <ele>101.2</ele>
        <time>2015-05-05T19:59:36.029Z</time>
      </trkpt>
      <trkpt lat="48.84329" lon="2.3259">
        <ele>101.2</ele>
        <time>2015-05-05T19:59:37.006Z</time>
      </trkpt>
      <trkpt lat="48.84332" lon="2.32582">
        <ele>101.2</ele>
        <time>2015-05-05T19:59:38.020Z</time>
      </trkpt>
      <trkpt lat="48.84335" lon="2.32575">
        <ele>101.1</ele>
        <time>2015-05-05T19:59:39.036Z</time>
      </trkpt>
      <trkpt lat="48.84338" lon="2.32567">
        <ele>100.8</ele>
        <time>2015-05-05T19:59:40.053Z</time>
      </trkpt>
      <trkpt lat="48.84342" lon="2.3256">
        <ele>100.7</ele>
        <time>2015-05-05T19:59:41.079Z</time>
      </trkpt>
      <trkpt lat="48.84346" lon="2.32553">
        <ele>100.7</ele>
        <time>2015-05-05T19:59:42.085Z</time>
      </trkpt>
      <trkpt lat="48.84349" lon="2.32546">
        <ele>100.8</ele>
        <time>2015-05-05T19:59:43.029Z</time>
      </trkpt>
      <trkpt lat="48.84351" lon="2.32538">
        <ele>101.1</ele>
        <time>2015-05-05T19:59:44.020Z</time>
      </trkpt>
      <trkpt lat="48.84354" lon="2.32529">
        <ele>101.1</ele>
        <time>2015-05-05T19:59:45.026Z</time>
      </trkpt>
      <trkpt lat="48.84356" lon="2.32521">
        <ele>100.8</ele>
        <time>2015-05-05T19:59:46.083Z</time>
      </trkpt>
      <trkpt lat="48.84356" lon="2.32512">
        <ele>100.8</ele>
        <time>2015-05-05T19:59:47.093Z</time>
      </trkpt>
      <trkpt lat="48.84357" lon="2.32502">
        <ele>100.7</ele>
        <time>2015-05-05T19:59:48.111Z</time>
      </trkpt>
      <trkpt lat="48.84359" lon="2.32494">
        <ele>100.6</ele>
        <time>2015-05-05T19:59:49.123Z</time>
      </trkpt>
      <trkpt lat="48.8436" lon="2.32487">
        <ele>101</ele>
        <time>2015-05-05T19:59:50.045Z</time>
      </trkpt>
      <trkpt lat="48.84362" lon="2.32479">
        <ele>101</ele>
        <time>2015-05-05T19:59:51.061Z</time>
      </trkpt>
      <trkpt lat="48.84364" lon="2.32471">
        <ele>101.2</ele>
        <time>2015-05-05T19:59:52.085Z</time>
      </trkpt>
      <trkpt lat="48.84366" lon="2.32464">
        <ele>101.2</ele>
        <time>2015-05-05T19:59:53.109Z</time>
      </trkpt>
      <trkpt lat="48.84368" lon="2.32456">
        <ele>101.3</ele>
        <time>2015-05-05T19:59:54.073Z</time>
      </trkpt>
      <trkpt lat="48.84371" lon="2.32448">
        <ele>101.4</ele>
        <time>2015-05-05T19:59:55.044Z</time>
      </trkpt>
      <trkpt lat="48.84373" lon="2.32441">
        <ele>101.5</ele>
        <time>2015-05-05T19:59:56.048Z</time>
      </trkpt>
      <trkpt lat="48.84376" lon="2.32433">
        <ele>101.5</ele>
        <time>2015-05-05T19:59:57.056Z</time>
      </trkpt>
      <trkpt lat="48.84379" lon="2.32426">
        <ele>101.7</ele>
        <time>2015-05-05T19:59:58.135Z</time>
      </trkpt>
      <trkpt lat="48.84381" lon="2.32418">
        <ele>101.9</ele>
        <time>2015-05-05T19:59:59.042Z</time>
      </trkpt>
      <trkpt lat="48.84383" lon="2.3241">
        <ele>102</ele>
        <time>2015-05-05T20:00:00.062Z</time>
      </trkpt>
      <trkpt lat="48.84386" lon="2.32402">
        <ele>102.1</ele>
        <time>2015-05-05T20:00:01.066Z</time>
      </trkpt>
      <trkpt lat="48.84388" lon="2.32393">
        <ele>102.1</ele>
        <time>2015-05-05T20:00:02.088Z</time>
      </trkpt>
      <trkpt lat="48.84391" lon="2.32381">
        <ele>103.9</ele>
        <time>2015-05-05T20:00:03.087Z</time>
      </trkpt>
      <trkpt lat="48.84393" lon="2.32372">
        <ele>104.5</ele>
        <time>2015-05-05T20:00:04.107Z</time>
      </trkpt>
      <trkpt lat="48.84395" lon="2.32362">
        <ele>105.2</ele>
        <time>2015-05-05T20:00:05.113Z</time>
      </trkpt>
      <trkpt lat="48.84396" lon="2.32353">
        <ele>105.5</ele>
        <time>2015-05-05T20:00:06.126Z</time>
      </trkpt>
      <trkpt lat="48.84397" lon="2.32345">
        <ele>105.2</ele>
        <time>2015-05-05T20:00:07.145Z</time>
      </trkpt>
      <trkpt lat="48.84398" lon="2.32335">
        <ele>105.2</ele>
        <time>2015-05-05T20:00:08.040Z</time>
      </trkpt>
      <trkpt lat="48.84398" lon="2.32326">
        <ele>105.1</ele>
        <time>2015-05-05T20:00:09.053Z</time>
      </trkpt>
      <trkpt lat="48.84401" lon="2.32317">
        <ele>105.1</ele>
        <time>2015-05-05T20:00:10.087Z</time>
      </trkpt>
      <trkpt lat="48.84403" lon="2.32309">
        <ele>105.2</ele>
        <time>2015-05-05T20:00:11.083Z</time>
      </trkpt>
      <trkpt lat="48.84405" lon="2.32301">
        <ele>105.1</ele>
        <time>2015-05-05T20:00:12.088Z</time>
      </trkpt>
      <trkpt lat="48.84406" lon="2.32291">
        <ele>105.4</ele>
        <time>2015-05-05T20:00:13.096Z</time>
      </trkpt>
      <trkpt lat="48.84407" lon="2.32281">
        <ele>105.4</ele>
        <time>2015-05-05T20:00:14.114Z</time>
      </trkpt>
      <trkpt lat="48.84409" lon="2.32273">
        <ele>105.5</ele>
        <time>2015-05-05T20:00:15.126Z</time>
      </trkpt>
      <trkpt lat="48.84409" lon="2.32264">
        <ele>105.8</ele>
        <time>2015-05-05T20:00:16.138Z</time>
      </trkpt>
      <trkpt lat="48.8441" lon="2.32256">
        <ele>105.9</ele>
        <time>2015-05-05T20:00:17.036Z</time>
      </trkpt>
      <trkpt lat="48.84413" lon="2.32248">
        <ele>106.2</ele>
        <time>2015-05-05T20:00:18.044Z</time>
      </trkpt>
      <trkpt lat="48.84417" lon="2.32241">
        <ele>106.2</ele>
        <time>2015-05-05T20:00:19.052Z</time>
      </trkpt>
      <trkpt lat="48.84421" lon="2.32234">
        <ele>106</ele>
        <time>2015-05-05T20:00:20.064Z</time>
      </trkpt>
      <trkpt lat="48.84424" lon="2.32227">
        <ele>106</ele>
        <time>2015-05-05T20:00:21.083Z</time>
      </trkpt>
      <trkpt lat="48.84427" lon="2.3222">
        <ele>105.9</ele>
        <time>2015-05-05T20:00:22.096Z</time>
      </trkpt>
      <trkpt lat="48.84428" lon="2.32212">
        <ele>105.8</ele>
        <time>2015-05-05T20:00:23.013Z</time>
      </trkpt>
      <trkpt lat="48.84431" lon="2.32205">
        <ele>105.8</ele>
        <time>2015-05-05T20:00:24.029Z</time>
      </trkpt>
      <trkpt lat="48.84433" lon="2.32197">
        <ele>105.7</ele>
        <time>2015-05-05T20:00:25.042Z</time>
      </trkpt>
      <trkpt lat="48.84435" lon="2.32191">
        <ele>105.5</ele>
        <time>2015-05-05T20:00:26.068Z</time>
      </trkpt>
      <trkpt lat="48.84438" lon="2.32185">
        <ele>105.1</ele>
        <time>2015-05-05T20:00:27.081Z</time>
      </trkpt>
      <trkpt lat="48.8444" lon="2.32178">
        <ele>105</ele>
        <time>2015-05-05T20:00:28.083Z</time>
      </trkpt>
      <trkpt lat="48.84443" lon="2.32172">
        <ele>105</ele>
        <time>2015-05-05T20:00:29.288Z</time>
      </trkpt>
      <trkpt lat="48.84446" lon="2.32167">
        <ele>104.8</ele>
        <time>2015-05-05T20:00:30.002Z</time>
      </trkpt>
      <trkpt lat="48.84446" lon="2.32159">
        <ele>104.5</ele>
        <time>2015-05-05T20:00:31.033Z</time>
      </trkpt>
      <trkpt lat="48.84448" lon="2.32152">
        <ele>104.5</ele>
        <time>2015-05-05T20:00:32.039Z</time>
      </trkpt>
      <trkpt lat="48.84451" lon="2.32145">
        <ele>104.2</ele>
        <time>2015-05-05T20:00:33.123Z</time>
      </trkpt>
      <trkpt lat="48.84453" lon="2.32138">
        <ele>104</ele>
        <time>2015-05-05T20:00:34.148Z</time>
      </trkpt>
      <trkpt lat="48.84458" lon="2.32134">
        <ele>104.2</ele>
        <time>2015-05-05T20:00:35.029Z</time>
      </trkpt>
      <trkpt lat="48.84464" lon="2.3213">
        <ele>104.3</ele>
        <time>2015-05-05T20:00:36.029Z</time>
      </trkpt>
      <trkpt lat="48.84469" lon="2.32125">
        <ele>104.1</ele>
        <time>2015-05-05T20:00:37.043Z</time>
      </trkpt>
      <trkpt lat="48.84473" lon="2.32119">
        <ele>104.2</ele>
        <time>2015-05-05T20:00:38.060Z</time>
      </trkpt>
      <trkpt lat="48.84475" lon="2.32111">
        <ele>104.1</ele>
        <time>2015-05-05T20:00:39.075Z</time>
      </trkpt>
      <trkpt lat="48.84477" lon="2.32102">
        <ele>104</ele>
        <time>2015-05-05T20:00:40.097Z</time>
      </trkpt>
      <trkpt lat="48.84479" lon="2.32093">
        <ele>103.9</ele>
        <time>2015-05-05T20:00:41.108Z</time>
      </trkpt>
      <trkpt lat="48.8448" lon="2.32084">
        <ele>103.7</ele>
        <time>2015-05-05T20:00:42.118Z</time>
      </trkpt>
      <trkpt lat="48.84484" lon="2.32076">
        <ele>103.5</ele>
        <time>2015-05-05T20:00:43.033Z</time>
      </trkpt>
      <trkpt lat="48.84487" lon="2.32068">
        <ele>103</ele>
        <time>2015-05-05T20:00:44.033Z</time>
      </trkpt>
      <trkpt lat="48.84489" lon="2.3206">
        <ele>102.5</ele>
        <time>2015-05-05T20:00:45.040Z</time>
      </trkpt>
      <trkpt lat="48.84493" lon="2.32052">
        <ele>103.2</ele>
        <time>2015-05-05T20:00:46.075Z</time>
      </trkpt>
      <trkpt lat="48.84496" lon="2.32044">
        <ele>103.2</ele>
        <time>2015-05-05T20:00:47.082Z</time>
      </trkpt>
      <trkpt lat="48.845" lon="2.32036">
        <ele>103.4</ele>
        <time>2015-05-05T20:00:48.109Z</time>
      </trkpt>
      <trkpt lat="48.84502" lon="2.32029">
        <ele>102.6</ele>
        <time>2015-05-05T20:00:49.033Z</time>
      </trkpt>
      <trkpt lat="48.84502" lon="2.3202">
        <ele>102.4</ele>
        <time>2015-05-05T20:00:50.030Z</time>
      </trkpt>
      <trkpt lat="48.84503" lon="2.32013">
        <ele>101.9</ele>
        <time>2015-05-05T20:00:51.036Z</time>
      </trkpt>
      <trkpt lat="48.84506" lon="2.32005">
        <ele>101</ele>
        <time>2015-05-05T20:00:52.062Z</time>
      </trkpt>
      <trkpt lat="48.84509" lon="2.31998">
        <ele>100.5</ele>
        <time>2015-05-05T20:00:53.065Z</time>
      </trkpt>
      <trkpt lat="48.84513" lon="2.31992">
        <ele>100.2</ele>
        <time>2015-05-05T20:00:54.076Z</time>
      </trkpt>
      <trkpt lat="48.84517" lon="2.31985">
        <ele>99.8</ele>
        <time>2015-05-05T20:00:55.181Z</time>
      </trkpt>
      <trkpt lat="48.84518" lon="2.31975">
        <ele>99.7</ele>
        <time>2015-05-05T20:00:56.029Z</time>
      </trkpt>
      <trkpt lat="48.8452" lon="2.31965">
        <ele>99</ele>
        <time>2015-05-05T20:00:57.030Z</time>
      </trkpt>
      <trkpt lat="48.8452" lon="2.31954">
        <ele>99.2</ele>
        <time>2015-05-05T20:00:58.059Z</time>
      </trkpt>
      <trkpt lat="48.84522" lon="2.31945">
        <ele>99.2</ele>
        <time>2015-05-05T20:00:59.062Z</time>
      </trkpt>
      <trkpt lat="48.84524" lon="2.31936">
        <ele>98.8</ele>
        <time>2015-05-05T20:01:00.081Z</time>
      </trkpt>
      <trkpt lat="48.84527" lon="2.31927">
        <ele>98.9</ele>
        <time>2015-05-05T20:01:01.086Z</time>
      </trkpt>
      <trkpt lat="48.84529" lon="2.31916">
        <ele>99</ele>
        <time>2015-05-05T20:01:02.110Z</time>
      </trkpt>
      <trkpt lat="48.84534" lon="2.31909">
        <ele>99.2</ele>
        <time>2015-05-05T20:01:03.120Z</time>
      </trkpt>
      <trkpt lat="48.8454" lon="2.31904">
        <ele>99.5</ele>
        <time>2015-05-05T20:01:04.131Z</time>
      </trkpt>
      <trkpt lat="48.84543" lon="2.31895">
        <ele>99.3</ele>
        <time>2015-05-05T20:01:05.026Z</time>
      </trkpt>
      <trkpt lat="48.8455" lon="2.31891">
        <ele>99.3</ele>
        <time>2015-05-05T20:01:06.034Z</time>
      </trkpt>
      <trkpt lat="48.84552" lon="2.31881">
        <ele>99.5</ele>
        <time>2015-05-05T20:01:07.039Z</time>
      </trkpt>
      <trkpt lat="48.84556" lon="2.31874">
        <ele>99.6</ele>
        <time>2015-05-05T20:01:08.050Z</time>
      </trkpt>
      <trkpt lat="48.84584" lon="2.31827">
        <ele>98.6</ele>
        <time>2015-05-05T20:01:14.057Z</time>
      </trkpt>
      <trkpt lat="48.8459" lon="2.31811">
        <ele>98.3</ele>
        <time>2015-05-05T20:01:16.128Z</time>
      </trkpt>
      <trkpt lat="48.84594" lon="2.31803">
        <ele>98.1</ele>
        <time>2015-05-05T20:01:17.001Z</time>
      </trkpt>
      <trkpt lat="48.84598" lon="2.31795">
        <ele>98.3</ele>
        <time>2015-05-05T20:01:18.023Z</time>
      </trkpt>
      <trkpt lat="48.84604" lon="2.31789">
        <ele>98.2</ele>
        <time>2015-05-05T20:01:19.038Z</time>
      </trkpt>
      <trkpt lat="48.84611" lon="2.31784">
        <ele>97.9</ele>
        <time>2015-05-05T20:01:20.048Z</time>
      </trkpt>
      <trkpt lat="48.84617" lon="2.31779">
        <ele>98</ele>
        <time>2015-05-05T20:01:21.056Z</time>
      </trkpt>
      <trkpt lat="48.84623" lon="2.31773">
        <ele>98</ele>
        <time>2015-05-05T20:01:22.102Z</time>
      </trkpt>
      <trkpt lat="48.84629" lon="2.31768">
        <ele>97.8</ele>
        <time>2015-05-05T20:01:23.075Z</time>
      </trkpt>
      <trkpt lat="48.84635" lon="2.31762">
        <ele>98</ele>
        <time>2015-05-05T20:01:24.084Z</time>
      </trkpt>
      <trkpt lat="48.84637" lon="2.31754">
        <ele>98.2</ele>
        <time>2015-05-05T20:01:25.092Z</time>
      </trkpt>
      <trkpt lat="48.84639" lon="2.31747">
        <ele>98.3</ele>
        <time>2015-05-05T20:01:26.019Z</time>
      </trkpt>
      <trkpt lat="48.84638" lon="2.31735">
        <ele>98.4</ele>
        <time>2015-05-05T20:01:27.022Z</time>
      </trkpt>
      <trkpt lat="48.8464" lon="2.31727">
        <ele>98.4</ele>
        <time>2015-05-05T20:01:28.061Z</time>
      </trkpt>
      <trkpt lat="48.84641" lon="2.31719">
        <ele>98.1</ele>
        <time>2015-05-05T20:01:29.069Z</time>
      </trkpt>
      <trkpt lat="48.84644" lon="2.31712">
        <ele>98</ele>
        <time>2015-05-05T20:01:30.103Z</time>
      </trkpt>
      <trkpt lat="48.84648" lon="2.31707">
        <ele>97.8</ele>
        <time>2015-05-05T20:01:31.017Z</time>
      </trkpt>
      <trkpt lat="48.84652" lon="2.31703">
        <ele>97.9</ele>
        <time>2015-05-05T20:01:32.016Z</time>
      </trkpt>
      <trkpt lat="48.84656" lon="2.31699">
        <ele>98.2</ele>
        <time>2015-05-05T20:01:33.030Z</time>
      </trkpt>
      <trkpt lat="48.84663" lon="2.31697">
        <ele>98.5</ele>
        <time>2015-05-05T20:01:34.084Z</time>
      </trkpt>
      <trkpt lat="48.84667" lon="2.31694">
        <ele>98.5</ele>
        <time>2015-05-05T20:01:35.078Z</time>
      </trkpt>
      <trkpt lat="48.84672" lon="2.3169">
        <ele>98.3</ele>
        <time>2015-05-05T20:01:36.100Z</time>
      </trkpt>
      <trkpt lat="48.84676" lon="2.31685">
        <ele>97.7</ele>
        <time>2015-05-05T20:01:37.015Z</time>
      </trkpt>
      <trkpt lat="48.8468" lon="2.31681">
        <ele>97.4</ele>
        <time>2015-05-05T20:01:38.018Z</time>
      </trkpt>
      <trkpt lat="48.84683" lon="2.3167">
        <ele>97</ele>
        <time>2015-05-05T20:01:40.055Z</time>
      </trkpt>
      <trkpt lat="48.84682" lon="2.31663">
        <ele>97.1</ele>
        <time>2015-05-05T20:01:40.989Z</time>
      </trkpt>
      <trkpt lat="48.8468" lon="2.31654">
        <ele>96.9</ele>
        <time>2015-05-05T20:01:42.043Z</time>
      </trkpt>
      <trkpt lat="48.84678" lon="2.31647">
        <ele>96.8</ele>
        <time>2015-05-05T20:01:43.036Z</time>
      </trkpt>
      <trkpt lat="48.84676" lon="2.31637">
        <ele>96.5</ele>
        <time>2015-05-05T20:01:45.108Z</time>
      </trkpt>
      <trkpt lat="48.84675" lon="2.31633">
        <ele>96.3</ele>
        <time>2015-05-05T20:01:46.030Z</time>
      </trkpt>
      <trkpt lat="48.84674" lon="2.31626">
        <ele>96.3</ele>
        <time>2015-05-05T20:01:47.030Z</time>
      </trkpt>
      <trkpt lat="48.84671" lon="2.31619">
        <ele>96.1</ele>
        <time>2015-05-05T20:01:48.183Z</time>
      </trkpt>
      <trkpt lat="48.84668" lon="2.31612">
        <ele>96.4</ele>
        <time>2015-05-05T20:01:49.023Z</time>
      </trkpt>
      <trkpt lat="48.84665" lon="2.31604">
        <ele>96.9</ele>
        <time>2015-05-05T20:01:50.017Z</time>
      </trkpt>
      <trkpt lat="48.84663" lon="2.31597">
        <ele>96.7</ele>
        <time>2015-05-05T20:01:51.037Z</time>
      </trkpt>
      <trkpt lat="48.84662" lon="2.31588">
        <ele>97</ele>
        <time>2015-05-05T20:01:52.060Z</time>
      </trkpt>
      <trkpt lat="48.84635" lon="2.31504">
        <ele>94.5</ele>
        <time>2015-05-05T20:02:03.047Z</time>
      </trkpt>
      <trkpt lat="48.84631" lon="2.31496">
        <ele>94.9</ele>
        <time>2015-05-05T20:02:04.095Z</time>
      </trkpt>
      <trkpt lat="48.84629" lon="2.31489">
        <ele>95.2</ele>
        <time>2015-05-05T20:02:05.107Z</time>
      </trkpt>
      <trkpt lat="48.84625" lon="2.31482">
        <ele>95.1</ele>
        <time>2015-05-05T20:02:06.077Z</time>
      </trkpt>
      <trkpt lat="48.84622" lon="2.31475">
        <ele>95.2</ele>
        <time>2015-05-05T20:02:07.029Z</time>
      </trkpt>
      <trkpt lat="48.84618" lon="2.31467">
        <ele>95.3</ele>
        <time>2015-05-05T20:02:08.294Z</time>
      </trkpt>
      <trkpt lat="48.84615" lon="2.31458">
        <ele>95.4</ele>
        <time>2015-05-05T20:02:09.049Z</time>
      </trkpt>
      <trkpt lat="48.84612" lon="2.31447">
        <ele>95</ele>
        <time>2015-05-05T20:02:10.106Z</time>
      </trkpt>
      <trkpt lat="48.84609" lon="2.31439">
        <ele>94.9</ele>
        <time>2015-05-05T20:02:11.111Z</time>
      </trkpt>
      <trkpt lat="48.84607" lon="2.3143">
        <ele>94.9</ele>
        <time>2015-05-05T20:02:12.023Z</time>
      </trkpt>
      <trkpt lat="48.84602" lon="2.31412">
        <ele>94.7</ele>
        <time>2015-05-05T20:02:14.090Z</time>
      </trkpt>
      <trkpt lat="48.84601" lon="2.31402">
        <ele>94.5</ele>
        <time>2015-05-05T20:02:15.115Z</time>
      </trkpt>
      <trkpt lat="48.846" lon="2.31393">
        <ele>94.6</ele>
        <time>2015-05-05T20:02:16.122Z</time>
      </trkpt>
      <trkpt lat="48.84598" lon="2.31383">
        <ele>94.6</ele>
        <time>2015-05-05T20:02:17.022Z</time>
      </trkpt>
      <trkpt lat="48.84597" lon="2.31374">
        <ele>95</ele>
        <time>2015-05-05T20:02:18.030Z</time>
      </trkpt>
      <trkpt lat="48.84597" lon="2.31366">
        <ele>95.1</ele>
        <time>2015-05-05T20:02:19.053Z</time>
      </trkpt>
      <trkpt lat="48.84596" lon="2.31359">
        <ele>95.2</ele>
        <time>2015-05-05T20:02:20.067Z</time>
      </trkpt>
      <trkpt lat="48.84594" lon="2.31352">
        <ele>95.6</ele>
        <time>2015-05-05T20:02:21.048Z</time>
      </trkpt>
      <trkpt lat="48.84592" lon="2.31344">
        <ele>95.6</ele>
        <time>2015-05-05T20:02:22.067Z</time>
      </trkpt>
      <trkpt lat="48.84589" lon="2.31336">
        <ele>95.7</ele>
        <time>2015-05-05T20:02:23.077Z</time>
      </trkpt>
      <trkpt lat="48.84586" lon="2.31327">
        <ele>95.9</ele>
        <time>2015-05-05T20:02:24.089Z</time>
      </trkpt>
      <trkpt lat="48.84583" lon="2.31317">
        <ele>96.1</ele>
        <time>2015-05-05T20:02:25.027Z</time>
      </trkpt>
      <trkpt lat="48.84579" lon="2.31308">
        <ele>96.3</ele>
        <time>2015-05-05T20:02:26.037Z</time>
      </trkpt>
      <trkpt lat="48.84576" lon="2.313">
        <ele>96.7</ele>
        <time>2015-05-05T20:02:27.051Z</time>
      </trkpt>
      <trkpt lat="48.84574" lon="2.31291">
        <ele>97.2</ele>
        <time>2015-05-05T20:02:28.062Z</time>
      </trkpt>
      <trkpt lat="48.84571" lon="2.31282">
        <ele>97.7</ele>
        <time>2015-05-05T20:02:29.069Z</time>
      </trkpt>
      <trkpt lat="48.84568" lon="2.31272">
        <ele>98.5</ele>
        <time>2015-05-05T20:02:30.075Z</time>
      </trkpt>
      <trkpt lat="48.84566" lon="2.31264">
        <ele>98.8</ele>
        <time>2015-05-05T20:02:31.090Z</time>
      </trkpt>
      <trkpt lat="48.84564" lon="2.31258">
        <ele>100.1</ele>
        <time>2015-05-05T20:02:32.019Z</time>
      </trkpt>
      <trkpt lat="48.84559" lon="2.31245">
        <ele>100.7</ele>
        <time>2015-05-05T20:02:34.083Z</time>
      </trkpt>
      <trkpt lat="48.84555" lon="2.31238">
        <ele>101.2</ele>
        <time>2015-05-05T20:02:35.095Z</time>
      </trkpt>
      <trkpt lat="48.84552" lon="2.31231">
        <ele>101.6</ele>
        <time>2015-05-05T20:02:36.014Z</time>
      </trkpt>
      <trkpt lat="48.84549" lon="2.31222">
        <ele>101.5</ele>
        <time>2015-05-05T20:02:37.017Z</time>
      </trkpt>
      <trkpt lat="48.84547" lon="2.31214">
        <ele>101.1</ele>
        <time>2015-05-05T20:02:38.027Z</time>
      </trkpt>
      <trkpt lat="48.84545" lon="2.31206">
        <ele>100.1</ele>
        <time>2015-05-05T20:02:39.027Z</time>
      </trkpt>
      <trkpt lat="48.84543" lon="2.31198">
        <ele>99.4</ele>
        <time>2015-05-05T20:02:40.061Z</time>
      </trkpt>
      <trkpt lat="48.84542" lon="2.3119">
        <ele>98.9</ele>
        <time>2015-05-05T20:02:41.082Z</time>
      </trkpt>
      <trkpt lat="48.8454" lon="2.31183">
        <ele>98.5</ele>
        <time>2015-05-05T20:02:42.095Z</time>
      </trkpt>
      <trkpt lat="48.84538" lon="2.31171">
        <ele>99</ele>
        <time>2015-05-05T20:02:44.013Z</time>
      </trkpt>
      <trkpt lat="48.84537" lon="2.31166">
        <ele>99</ele>
        <time>2015-05-05T20:02:45.001Z</time>
      </trkpt>
      <trkpt lat="48.84534" lon="2.31154">
        <ele>98.8</ele>
        <time>2015-05-05T20:02:47.062Z</time>
      </trkpt>
      <trkpt lat="48.84532" lon="2.31148">
        <ele>98.8</ele>
        <time>2015-05-05T20:02:48.079Z</time>
      </trkpt>
      <trkpt lat="48.84529" lon="2.31138">
        <ele>98.9</ele>
        <time>2015-05-05T20:02:50.036Z</time>
      </trkpt>
      <trkpt lat="48.84529" lon="2.31133">
        <ele>98.3</ele>
        <time>2015-05-05T20:02:51.068Z</time>
      </trkpt>
      <trkpt lat="48.84525" lon="2.31121">
        <ele>97.2</ele>
        <time>2015-05-05T20:02:54.049Z</time>
      </trkpt>
      <trkpt lat="48.84524" lon="2.31118">
        <ele>97.1</ele>
        <time>2015-05-05T20:02:55.051Z</time>
      </trkpt>
      <trkpt lat="48.84519" lon="2.31108">
        <ele>96.6</ele>
        <time>2015-05-05T20:02:57.060Z</time>
      </trkpt>
      <trkpt lat="48.84518" lon="2.31105">
        <ele>96.2</ele>
        <time>2015-05-05T20:02:58.098Z</time>
      </trkpt>
      <trkpt lat="48.84512" lon="2.31095">
        <ele>96.5</ele>
        <time>2015-05-05T20:03:01.051Z</time>
      </trkpt>
      <trkpt lat="48.8451" lon="2.31091">
        <ele>96.8</ele>
        <time>2015-05-05T20:03:02.058Z</time>
      </trkpt>
      <trkpt lat="48.84506" lon="2.31083">
        <ele>96.3</ele>
        <time>2015-05-05T20:03:04.085Z</time>
      </trkpt>
      <trkpt lat="48.84504" lon="2.3108">
        <ele>96.2</ele>
        <time>2015-05-05T20:03:05.121Z</time>
      </trkpt>
      <trkpt lat="48.84504" lon="2.3108">
        <ele>96.2</ele>
        <time>2015-05-05T20:03:08.098Z</time>
      </trkpt>
      <trkpt lat="48.84498" lon="2.31068">
        <ele>97.7</ele>
        <time>2015-05-05T20:03:09.131Z</time>
      </trkpt>
      <trkpt lat="48.84494" lon="2.31063">
        <ele>97.8</ele>
        <time>2015-05-05T20:03:10.147Z</time>
      </trkpt>
      <trkpt lat="48.84492" lon="2.31056">
        <ele>98</ele>
        <time>2015-05-05T20:03:11.046Z</time>
      </trkpt>
      <trkpt lat="48.84489" lon="2.31046">
        <ele>98.5</ele>
        <time>2015-05-05T20:03:13.094Z</time>
      </trkpt>
      <trkpt lat="48.84487" lon="2.31041">
        <ele>98.7</ele>
        <time>2015-05-05T20:03:14.108Z</time>
      </trkpt>
      <trkpt lat="48.84482" lon="2.3103">
        <ele>98.6</ele>
        <time>2015-05-05T20:03:16.131Z</time>
      </trkpt>
      <trkpt lat="48.84479" lon="2.31027">
        <ele>98.9</ele>
        <time>2015-05-05T20:03:17.021Z</time>
      </trkpt>
      <trkpt lat="48.84476" lon="2.31015">
        <ele>99.1</ele>
        <time>2015-05-05T20:03:19.043Z</time>
      </trkpt>
      <trkpt lat="48.84474" lon="2.31009">
        <ele>99.4</ele>
        <time>2015-05-05T20:03:20.056Z</time>
      </trkpt>
      <trkpt lat="48.84472" lon="2.31002">
        <ele>99.6</ele>
        <time>2015-05-05T20:03:21.069Z</time>
      </trkpt>
      <trkpt lat="48.8447" lon="2.30995">
        <ele>99.8</ele>
        <time>2015-05-05T20:03:22.081Z</time>
      </trkpt>
      <trkpt lat="48.84468" lon="2.30989">
        <ele>100.2</ele>
        <time>2015-05-05T20:03:23.053Z</time>
      </trkpt>
      <trkpt lat="48.84465" lon="2.30983">
        <ele>100.4</ele>
        <time>2015-05-05T20:03:24.009Z</time>
      </trkpt>
      <trkpt lat="48.84463" lon="2.30975">
        <ele>100.7</ele>
        <time>2015-05-05T20:03:25.130Z</time>
      </trkpt>
      <trkpt lat="48.84461" lon="2.30968">
        <ele>100.9</ele>
        <time>2015-05-05T20:03:26.042Z</time>
      </trkpt>
      <trkpt lat="48.84458" lon="2.30961">
        <ele>100.9</ele>
        <time>2015-05-05T20:03:27.040Z</time>
      </trkpt>
      <trkpt lat="48.84457" lon="2.30952">
        <ele>101.7</ele>
        <time>2015-05-05T20:03:28.080Z</time>
      </trkpt>
      <trkpt lat="48.84455" lon="2.30944">
        <ele>101.8</ele>
        <time>2015-05-05T20:03:29.583Z</time>
      </trkpt>
      <trkpt lat="48.84453" lon="2.30936">
        <ele>102.4</ele>
        <time>2015-05-05T20:03:30.070Z</time>
      </trkpt>
      <trkpt lat="48.84452" lon="2.30927">
        <ele>102.6</ele>
        <time>2015-05-05T20:03:31.062Z</time>
      </trkpt>
      <trkpt lat="48.8445" lon="2.30918">
        <ele>102.6</ele>
        <time>2015-05-05T20:03:32.074Z</time>
      </trkpt>
      <trkpt lat="48.84447" lon="2.30911">
        <ele>102.9</ele>
        <time>2015-05-05T20:03:33.122Z</time>
      </trkpt>
      <trkpt lat="48.84443" lon="2.30904">
        <ele>103</ele>
        <time>2015-05-05T20:03:34.093Z</time>
      </trkpt>
      <trkpt lat="48.84439" lon="2.30895">
        <ele>102.8</ele>
        <time>2015-05-05T20:03:35.011Z</time>
      </trkpt>
      <trkpt lat="48.84437" lon="2.30887">
        <ele>102.6</ele>
        <time>2015-05-05T20:03:36.026Z</time>
      </trkpt>
      <trkpt lat="48.84436" lon="2.30878">
        <ele>102.5</ele>
        <time>2015-05-05T20:03:37.027Z</time>
      </trkpt>
      <trkpt lat="48.84436" lon="2.30871">
        <ele>102.6</ele>
        <time>2015-05-05T20:03:38.028Z</time>
      </trkpt>
      <trkpt lat="48.84434" lon="2.30865">
        <ele>102.7</ele>
        <time>2015-05-05T20:03:39.036Z</time>
      </trkpt>
      <trkpt lat="48.84433" lon="2.30857">
        <ele>102.6</ele>
        <time>2015-05-05T20:03:40.053Z</time>
      </trkpt>
      <trkpt lat="48.84432" lon="2.30848">
        <ele>102.1</ele>
        <time>2015-05-05T20:03:41.081Z</time>
      </trkpt>
      <trkpt lat="48.84431" lon="2.3084">
        <ele>102.1</ele>
        <time>2015-05-05T20:03:42.091Z</time>
      </trkpt>
      <trkpt lat="48.84428" lon="2.30833">
        <ele>102.4</ele>
        <time>2015-05-05T20:03:43.012Z</time>
      </trkpt>
      <trkpt lat="48.84424" lon="2.30825">
        <ele>102.5</ele>
        <time>2015-05-05T20:03:44.047Z</time>
      </trkpt>
      <trkpt lat="48.84421" lon="2.30816">
        <ele>102.7</ele>
        <time>2015-05-05T20:03:45.063Z</time>
      </trkpt>
      <trkpt lat="48.84418" lon="2.30805">
        <ele>102.6</ele>
        <time>2015-05-05T20:03:46.126Z</time>
      </trkpt>
      <trkpt lat="48.84415" lon="2.30796">
        <ele>102.8</ele>
        <time>2015-05-05T20:03:47.020Z</time>
      </trkpt>
      <trkpt lat="48.84413" lon="2.30788">
        <ele>103.1</ele>
        <time>2015-05-05T20:03:48.027Z</time>
      </trkpt>
      <trkpt lat="48.84411" lon="2.3078">
        <ele>103.1</ele>
        <time>2015-05-05T20:03:49.039Z</time>
      </trkpt>
      <trkpt lat="48.84409" lon="2.30771">
        <ele>103</ele>
        <time>2015-05-05T20:03:50.055Z</time>
      </trkpt>
      <trkpt lat="48.84408" lon="2.30765">
        <ele>102.7</ele>
        <time>2015-05-05T20:03:51.072Z</time>
      </trkpt>
      <trkpt lat="48.84407" lon="2.30758">
        <ele>103</ele>
        <time>2015-05-05T20:03:52.079Z</time>
      </trkpt>
      <trkpt lat="48.84405" lon="2.30751">
        <ele>103.3</ele>
        <time>2015-05-05T20:03:53.090Z</time>
      </trkpt>
      <trkpt lat="48.84403" lon="2.30743">
        <ele>103.7</ele>
        <time>2015-05-05T20:03:54.101Z</time>
      </trkpt>
      <trkpt lat="48.84401" lon="2.30735">
        <ele>103.9</ele>
        <time>2015-05-05T20:03:55.113Z</time>
      </trkpt>
      <trkpt lat="48.84398" lon="2.30726">
        <ele>104.5</ele>
        <time>2015-05-05T20:03:56.021Z</time>
      </trkpt>
      <trkpt lat="48.84394" lon="2.30718">
        <ele>104.8</ele>
        <time>2015-05-05T20:03:57.049Z</time>
      </trkpt>
      <trkpt lat="48.84391" lon="2.30709">
        <ele>104.8</ele>
        <time>2015-05-05T20:03:58.080Z</time>
      </trkpt>
      <trkpt lat="48.8439" lon="2.30701">
        <ele>104.5</ele>
        <time>2015-05-05T20:03:58.994Z</time>
      </trkpt>
      <trkpt lat="48.84387" lon="2.30693">
        <ele>104.8</ele>
        <time>2015-05-05T20:04:00.022Z</time>
      </trkpt>
      <trkpt lat="48.84386" lon="2.30685">
        <ele>105.2</ele>
        <time>2015-05-05T20:04:01.031Z</time>
      </trkpt>
      <trkpt lat="48.84384" lon="2.30679">
        <ele>105.8</ele>
        <time>2015-05-05T20:04:02.041Z</time>
      </trkpt>
      <trkpt lat="48.84381" lon="2.30672">
        <ele>105.9</ele>
        <time>2015-05-05T20:04:03.061Z</time>
      </trkpt>
      <trkpt lat="48.84378" lon="2.30666">
        <ele>106</ele>
        <time>2015-05-05T20:04:04.110Z</time>
      </trkpt>
      <trkpt lat="48.84375" lon="2.3066">
        <ele>106.8</ele>
        <time>2015-05-05T20:04:05.018Z</time>
      </trkpt>
      <trkpt lat="48.84374" lon="2.30654">
        <ele>106.9</ele>
        <time>2015-05-05T20:04:06.013Z</time>
      </trkpt>
      <trkpt lat="48.84372" lon="2.30647">
        <ele>106.9</ele>
        <time>2015-05-05T20:04:07.067Z</time>
      </trkpt>
      <trkpt lat="48.84371" lon="2.30639">
        <ele>106.8</ele>
        <time>2015-05-05T20:04:08.082Z</time>
      </trkpt>
      <trkpt lat="48.84369" lon="2.30632">
        <ele>107</ele>
        <time>2015-05-05T20:04:09.095Z</time>
      </trkpt>
      <trkpt lat="48.84366" lon="2.30624">
        <ele>107.2</ele>
        <time>2015-05-05T20:04:10.105Z</time>
      </trkpt>
      <trkpt lat="48.84363" lon="2.30616">
        <ele>107.6</ele>
        <time>2015-05-05T20:04:11.009Z</time>
      </trkpt>
      <trkpt lat="48.84361" lon="2.30608">
        <ele>107.7</ele>
        <time>2015-05-05T20:04:12.003Z</time>
      </trkpt>
      <trkpt lat="48.84358" lon="2.306">
        <ele>107.7</ele>
        <time>2015-05-05T20:04:13.031Z</time>
      </trkpt>
      <trkpt lat="48.84356" lon="2.30591">
        <ele>107.8</ele>
        <time>2015-05-05T20:04:14.040Z</time>
      </trkpt>
      <trkpt lat="48.84354" lon="2.30581">
        <ele>107.8</ele>
        <time>2015-05-05T20:04:15.056Z</time>
      </trkpt>
      <trkpt lat="48.84352" lon="2.30571">
        <ele>107.6</ele>
        <time>2015-05-05T20:04:16.065Z</time>
      </trkpt>
      <trkpt lat="48.84349" lon="2.30562">
        <ele>107.7</ele>
        <time>2015-05-05T20:04:17.105Z</time>
      </trkpt>
      <trkpt lat="48.84347" lon="2.30554">
        <ele>108.2</ele>
        <time>2015-05-05T20:04:18.040Z</time>
      </trkpt>
      <trkpt lat="48.84345" lon="2.30545">
        <ele>108.3</ele>
        <time>2015-05-05T20:04:19.029Z</time>
      </trkpt>
      <trkpt lat="48.84342" lon="2.30536">
        <ele>108.7</ele>
        <time>2015-05-05T20:04:20.037Z</time>
      </trkpt>
      <trkpt lat="48.8434" lon="2.30527">
        <ele>108.9</ele>
        <time>2015-05-05T20:04:21.043Z</time>
      </trkpt>
      <trkpt lat="48.84337" lon="2.30517">
        <ele>109.2</ele>
        <time>2015-05-05T20:04:22.057Z</time>
      </trkpt>
      <trkpt lat="48.84335" lon="2.30508">
        <ele>109.3</ele>
        <time>2015-05-05T20:04:23.074Z</time>
      </trkpt>
      <trkpt lat="48.84335" lon="2.30499">
        <ele>109.7</ele>
        <time>2015-05-05T20:04:24.093Z</time>
      </trkpt>
      <trkpt lat="48.84333" lon="2.3049">
        <ele>109.6</ele>
        <time>2015-05-05T20:04:25.106Z</time>
      </trkpt>
      <trkpt lat="48.8433" lon="2.30481">
        <ele>109.5</ele>
        <time>2015-05-05T20:04:26.029Z</time>
      </trkpt>
      <trkpt lat="48.84328" lon="2.30473">
        <ele>110</ele>
        <time>2015-05-05T20:04:27.045Z</time>
      </trkpt>
      <trkpt lat="48.84325" lon="2.30464">
        <ele>110.6</ele>
        <time>2015-05-05T20:04:28.158Z</time>
      </trkpt>
      <trkpt lat="48.84322" lon="2.30454">
        <ele>110.9</ele>
        <time>2015-05-05T20:04:29.028Z</time>
      </trkpt>
      <trkpt lat="48.84319" lon="2.30445">
        <ele>111.3</ele>
        <time>2015-05-05T20:04:30.031Z</time>
      </trkpt>
      <trkpt lat="48.84316" lon="2.30437">
        <ele>111.1</ele>
        <time>2015-05-05T20:04:31.051Z</time>
      </trkpt>
      <trkpt lat="48.84313" lon="2.30429">
        <ele>111.2</ele>
        <time>2015-05-05T20:04:32.061Z</time>
      </trkpt>
      <trkpt lat="48.8431" lon="2.3042">
        <ele>111.4</ele>
        <time>2015-05-05T20:04:33.125Z</time>
      </trkpt>
      <trkpt lat="48.84307" lon="2.30412">
        <ele>111.6</ele>
        <time>2015-05-05T20:04:34.100Z</time>
      </trkpt>
      <trkpt lat="48.84306" lon="2.30405">
        <ele>112.1</ele>
        <time>2015-05-05T20:04:35.025Z</time>
      </trkpt>
      <trkpt lat="48.84305" lon="2.30397">
        <ele>112.4</ele>
        <time>2015-05-05T20:04:36.023Z</time>
      </trkpt>
      <trkpt lat="48.84303" lon="2.30389">
        <ele>113</ele>
        <time>2015-05-05T20:04:37.038Z</time>
      </trkpt>
      <trkpt lat="48.843" lon="2.30381">
        <ele>113.5</ele>
        <time>2015-05-05T20:04:38.049Z</time>
      </trkpt>
      <trkpt lat="48.84298" lon="2.30373">
        <ele>113.6</ele>
        <time>2015-05-05T20:04:39.130Z</time>
      </trkpt>
      <trkpt lat="48.84296" lon="2.30365">
        <ele>113.6</ele>
        <time>2015-05-05T20:04:40.140Z</time>
      </trkpt>
      <trkpt lat="48.84294" lon="2.30357">
        <ele>114.2</ele>
        <time>2015-05-05T20:04:41.017Z</time>
      </trkpt>
      <trkpt lat="48.84291" lon="2.3035">
        <ele>114.7</ele>
        <time>2015-05-05T20:04:42.031Z</time>
      </trkpt>
      <trkpt lat="48.84288" lon="2.30344">
        <ele>114.7</ele>
        <time>2015-05-05T20:04:43.058Z</time>
      </trkpt>
      <trkpt lat="48.84286" lon="2.30338">
        <ele>114.9</ele>
        <time>2015-05-05T20:04:44.064Z</time>
      </trkpt>
      <trkpt lat="48.84282" lon="2.30327">
        <ele>115</ele>
        <time>2015-05-05T20:04:46.117Z</time>
      </trkpt>
      <trkpt lat="48.84279" lon="2.30322">
        <ele>115.4</ele>
        <time>2015-05-05T20:04:47.086Z</time>
      </trkpt>
      <trkpt lat="48.84276" lon="2.30316">
        <ele>115.8</ele>
        <time>2015-05-05T20:04:48.012Z</time>
      </trkpt>
      <trkpt lat="48.84274" lon="2.30311">
        <ele>115.6</ele>
        <time>2015-05-05T20:04:49.019Z</time>
      </trkpt>
      <trkpt lat="48.84272" lon="2.30304">
        <ele>115.3</ele>
        <time>2015-05-05T20:04:50.049Z</time>
      </trkpt>
      <trkpt lat="48.84271" lon="2.30295">
        <ele>114.8</ele>
        <time>2015-05-05T20:04:51.063Z</time>
      </trkpt>
      <trkpt lat="48.84267" lon="2.30283">
        <ele>114.5</ele>
        <time>2015-05-05T20:04:53.095Z</time>
      </trkpt>
      <trkpt lat="48.84263" lon="2.30271">
        <ele>114.3</ele>
        <time>2015-05-05T20:04:55.066Z</time>
      </trkpt>
      <trkpt lat="48.8426" lon="2.30262">
        <ele>114.4</ele>
        <time>2015-05-05T20:04:56.036Z</time>
      </trkpt>
      <trkpt lat="48.84258" lon="2.30252">
        <ele>114.9</ele>
        <time>2015-05-05T20:04:57.057Z</time>
      </trkpt>
      <trkpt lat="48.84255" lon="2.30245">
        <ele>115.2</ele>
        <time>2015-05-05T20:04:58.050Z</time>
      </trkpt>
      <trkpt lat="48.84252" lon="2.30239">
        <ele>116</ele>
        <time>2015-05-05T20:04:59.069Z</time>
      </trkpt>
      <trkpt lat="48.84249" lon="2.30233">
        <ele>116.7</ele>
        <time>2015-05-05T20:05:00.237Z</time>
      </trkpt>
      <trkpt lat="48.84246" lon="2.30226">
        <ele>116.5</ele>
        <time>2015-05-05T20:05:01.102Z</time>
      </trkpt>
      <trkpt lat="48.84243" lon="2.30219">
        <ele>116.5</ele>
        <time>2015-05-05T20:05:02.008Z</time>
      </trkpt>
      <trkpt lat="48.8424" lon="2.30211">
        <ele>116.4</ele>
        <time>2015-05-05T20:05:03.022Z</time>
      </trkpt>
      <trkpt lat="48.84238" lon="2.30204">
        <ele>116.7</ele>
        <time>2015-05-05T20:05:04.039Z</time>
      </trkpt>
      <trkpt lat="48.8423" lon="2.30183">
        <ele>116.6</ele>
        <time>2015-05-05T20:05:06.978Z</time>
      </trkpt>
      <trkpt lat="48.84228" lon="2.30174">
        <ele>117.6</ele>
        <time>2015-05-05T20:05:08.012Z</time>
      </trkpt>
      <trkpt lat="48.84225" lon="2.30165">
        <ele>117.8</ele>
        <time>2015-05-05T20:05:09.024Z</time>
      </trkpt>
      <trkpt lat="48.84223" lon="2.30157">
        <ele>117.9</ele>
        <time>2015-05-05T20:05:10.057Z</time>
      </trkpt>
      <trkpt lat="48.84221" lon="2.30149">
        <ele>117.8</ele>
        <time>2015-05-05T20:05:11.083Z</time>
      </trkpt>
      <trkpt lat="48.84219" lon="2.30142">
        <ele>117.5</ele>
        <time>2015-05-05T20:05:12.006Z</time>
      </trkpt>
      <trkpt lat="48.84218" lon="2.30134">
        <ele>117.4</ele>
        <time>2015-05-05T20:05:13.005Z</time>
      </trkpt>
      <trkpt lat="48.84216" lon="2.30126">
        <ele>116.8</ele>
        <time>2015-05-05T20:05:14.019Z</time>
      </trkpt>
      <trkpt lat="48.84214" lon="2.30117">
        <ele>116.3</ele>
        <time>2015-05-05T20:05:15.025Z</time>
      </trkpt>
      <trkpt lat="48.84211" lon="2.30111">
        <ele>116.3</ele>
        <time>2015-05-05T20:05:16.045Z</time>
      </trkpt>
      <trkpt lat="48.84208" lon="2.30103">
        <ele>115.9</ele>
        <time>2015-05-05T20:05:17.062Z</time>
      </trkpt>
      <trkpt lat="48.84206" lon="2.30093">
        <ele>115.7</ele>
        <time>2015-05-05T20:05:18.077Z</time>
      </trkpt>
      <trkpt lat="48.84203" lon="2.30084">
        <ele>115.7</ele>
        <time>2015-05-05T20:05:19.102Z</time>
      </trkpt>
      <trkpt lat="48.84201" lon="2.30074">
        <ele>115.8</ele>
        <time>2015-05-05T20:05:20.101Z</time>
      </trkpt>
      <trkpt lat="48.84198" lon="2.30064">
        <ele>116.1</ele>
        <time>2015-05-05T20:05:20.983Z</time>
      </trkpt>
      <trkpt lat="48.84196" lon="2.30055">
        <ele>116</ele>
        <time>2015-05-05T20:05:22.043Z</time>
      </trkpt>
      <trkpt lat="48.8419" lon="2.30037">
        <ele>115.6</ele>
        <time>2015-05-05T20:05:24.048Z</time>
      </trkpt>
      <trkpt lat="48.84187" lon="2.3003">
        <ele>115.9</ele>
        <time>2015-05-05T20:05:25.075Z</time>
      </trkpt>
      <trkpt lat="48.84185" lon="2.3002">
        <ele>116.4</ele>
        <time>2015-05-05T20:05:26.079Z</time>
      </trkpt>
      <trkpt lat="48.84182" lon="2.30012">
        <ele>116.7</ele>
        <time>2015-05-05T20:05:27.094Z</time>
      </trkpt>
      <trkpt lat="48.84179" lon="2.30003">
        <ele>116.5</ele>
        <time>2015-05-05T20:05:28.105Z</time>
      </trkpt>
      <trkpt lat="48.84179" lon="2.29993">
        <ele>116.1</ele>
        <time>2015-05-05T20:05:29.008Z</time>
      </trkpt>
      <trkpt lat="48.84178" lon="2.29985">
        <ele>115.9</ele>
        <time>2015-05-05T20:05:30.017Z</time>
      </trkpt>
      <trkpt lat="48.84176" lon="2.29976">
        <ele>115.6</ele>
        <time>2015-05-05T20:05:31.025Z</time>
      </trkpt>
      <trkpt lat="48.84173" lon="2.29969">
        <ele>115.3</ele>
        <time>2015-05-05T20:05:32.036Z</time>
      </trkpt>
      <trkpt lat="48.84171" lon="2.29961">
        <ele>115.1</ele>
        <time>2015-05-05T20:05:33.058Z</time>
      </trkpt>
      <trkpt lat="48.8417" lon="2.29955">
        <ele>114.8</ele>
        <time>2015-05-05T20:05:34.072Z</time>
      </trkpt>
      <trkpt lat="48.8417" lon="2.29947">
        <ele>115</ele>
        <time>2015-05-05T20:05:35.104Z</time>
      </trkpt>
      <trkpt lat="48.8417" lon="2.29938">
        <ele>114.7</ele>
        <time>2015-05-05T20:05:36.108Z</time>
      </trkpt>
      <trkpt lat="48.84168" lon="2.29928">
        <ele>114.8</ele>
        <time>2015-05-05T20:05:37.120Z</time>
      </trkpt>
      <trkpt lat="48.84165" lon="2.2992">
        <ele>115.1</ele>
        <time>2015-05-05T20:05:38.021Z</time>
      </trkpt>
      <trkpt lat="48.84163" lon="2.29912">
        <ele>115</ele>
        <time>2015-05-05T20:05:39.015Z</time>
      </trkpt>
      <trkpt lat="48.84147" lon="2.29872">
        <ele>115.1</ele>
        <time>2015-05-05T20:05:44.123Z</time>
      </trkpt>
      <trkpt lat="48.84144" lon="2.29864">
        <ele>115</ele>
        <time>2015-05-05T20:05:45.015Z</time>
      </trkpt>
      <trkpt lat="48.8414" lon="2.29855">
        <ele>115.3</ele>
        <time>2015-05-05T20:05:46.050Z</time>
      </trkpt>
      <trkpt lat="48.84136" lon="2.29847">
        <ele>115.9</ele>
        <time>2015-05-05T20:05:47.061Z</time>
      </trkpt>
      <trkpt lat="48.84133" lon="2.29838">
        <ele>116.1</ele>
        <time>2015-05-05T20:05:48.066Z</time>
      </trkpt>
      <trkpt lat="48.8413" lon="2.29827">
        <ele>116.6</ele>
        <time>2015-05-05T20:05:49.088Z</time>
      </trkpt>
      <trkpt lat="48.84127" lon="2.29817">
        <ele>116.8</ele>
        <time>2015-05-05T20:05:50.096Z</time>
      </trkpt>
      <trkpt lat="48.84125" lon="2.29807">
        <ele>116.6</ele>
        <time>2015-05-05T20:05:51.007Z</time>
      </trkpt>
      <trkpt lat="48.84123" lon="2.29798">
        <ele>116.8</ele>
        <time>2015-05-05T20:05:52.060Z</time>
      </trkpt>
      <trkpt lat="48.84121" lon="2.29789">
        <ele>117.2</ele>
        <time>2015-05-05T20:05:53.055Z</time>
      </trkpt>
      <trkpt lat="48.8412" lon="2.29782">
        <ele>117.5</ele>
        <time>2015-05-05T20:05:54.089Z</time>
      </trkpt>
      <trkpt lat="48.84118" lon="2.29776">
        <ele>117.5</ele>
        <time>2015-05-05T20:05:54.996Z</time>
      </trkpt>
      <trkpt lat="48.84115" lon="2.29768">
        <ele>117.5</ele>
        <time>2015-05-05T20:05:56.007Z</time>
      </trkpt>
      <trkpt lat="48.84113" lon="2.2976">
        <ele>117.5</ele>
        <time>2015-05-05T20:05:57.029Z</time>
      </trkpt>
      <trkpt lat="48.8411" lon="2.2975">
        <ele>117.2</ele>
        <time>2015-05-05T20:05:58.041Z</time>
      </trkpt>
      <trkpt lat="48.84106" lon="2.2974">
        <ele>117.1</ele>
        <time>2015-05-05T20:05:59.044Z</time>
      </trkpt>
      <trkpt lat="48.84103" lon="2.2973">
        <ele>117.2</ele>
        <time>2015-05-05T20:06:00.060Z</time>
      </trkpt>
      <trkpt lat="48.841" lon="2.29721">
        <ele>117.2</ele>
        <time>2015-05-05T20:06:01.078Z</time>
      </trkpt>
      <trkpt lat="48.84097" lon="2.29712">
        <ele>117.7</ele>
        <time>2015-05-05T20:06:02.092Z</time>
      </trkpt>
      <trkpt lat="48.84095" lon="2.29703">
        <ele>117.8</ele>
        <time>2015-05-05T20:06:03.099Z</time>
      </trkpt>
      <trkpt lat="48.84092" lon="2.29695">
        <ele>118</ele>
        <time>2015-05-05T20:06:04.108Z</time>
      </trkpt>
      <trkpt lat="48.8409" lon="2.29684">
        <ele>118.2</ele>
        <time>2015-05-05T20:06:06.032Z</time>
      </trkpt>
      <trkpt lat="48.84089" lon="2.29678">
        <ele>117.6</ele>
        <time>2015-05-05T20:06:07.043Z</time>
      </trkpt>
      <trkpt lat="48.84086" lon="2.29671">
        <ele>117.4</ele>
        <time>2015-05-05T20:06:08.051Z</time>
      </trkpt>
      <trkpt lat="48.84083" lon="2.29662">
        <ele>117.5</ele>
        <time>2015-05-05T20:06:09.062Z</time>
      </trkpt>
      <trkpt lat="48.84081" lon="2.29654">
        <ele>117.6</ele>
        <time>2015-05-05T20:06:10.058Z</time>
      </trkpt>
      <trkpt lat="48.84076" lon="2.29645">
        <ele>117.6</ele>
        <time>2015-05-05T20:06:11.010Z</time>
      </trkpt>
      <trkpt lat="48.84072" lon="2.29638">
        <ele>117.6</ele>
        <time>2015-05-05T20:06:12.022Z</time>
      </trkpt>
      <trkpt lat="48.84069" lon="2.29632">
        <ele>117.5</ele>
        <time>2015-05-05T20:06:13.041Z</time>
      </trkpt>
      <trkpt lat="48.84068" lon="2.29625">
        <ele>117.3</ele>
        <time>2015-05-05T20:06:14.059Z</time>
      </trkpt>
      <trkpt lat="48.84067" lon="2.29618">
        <ele>117</ele>
        <time>2015-05-05T20:06:15.060Z</time>
      </trkpt>
      <trkpt lat="48.84064" lon="2.29608">
        <ele>117.3</ele>
        <time>2015-05-05T20:06:17.001Z</time>
      </trkpt>
      <trkpt lat="48.84062" lon="2.296">
        <ele>117.9</ele>
        <time>2015-05-05T20:06:18.025Z</time>
      </trkpt>
      <trkpt lat="48.84059" lon="2.29593">
        <ele>118.7</ele>
        <time>2015-05-05T20:06:19.085Z</time>
      </trkpt>
      <trkpt lat="48.84058" lon="2.29588">
        <ele>119.1</ele>
        <time>2015-05-05T20:06:20.002Z</time>
      </trkpt>
      <trkpt lat="48.84054" lon="2.29575">
        <ele>119.4</ele>
        <time>2015-05-05T20:06:23.049Z</time>
      </trkpt>
      <trkpt lat="48.84052" lon="2.2957">
        <ele>119.4</ele>
        <time>2015-05-05T20:06:24.066Z</time>
      </trkpt>
      <trkpt lat="48.84049" lon="2.29564">
        <ele>119.3</ele>
        <time>2015-05-05T20:06:25.260Z</time>
      </trkpt>
      <trkpt lat="48.84046" lon="2.29557">
        <ele>119.1</ele>
        <time>2015-05-05T20:06:25.991Z</time>
      </trkpt>
      <trkpt lat="48.84043" lon="2.29551">
        <ele>119</ele>
        <time>2015-05-05T20:06:27.011Z</time>
      </trkpt>
      <trkpt lat="48.84042" lon="2.29545">
        <ele>118.5</ele>
        <time>2015-05-05T20:06:28.024Z</time>
      </trkpt>
      <trkpt lat="48.84039" lon="2.29533">
        <ele>118</ele>
        <time>2015-05-05T20:06:30.075Z</time>
      </trkpt>
      <trkpt lat="48.84036" lon="2.29528">
        <ele>117.8</ele>
        <time>2015-05-05T20:06:31.083Z</time>
      </trkpt>
      <trkpt lat="48.84034" lon="2.29521">
        <ele>117.7</ele>
        <time>2015-05-05T20:06:31.995Z</time>
      </trkpt>
      <trkpt lat="48.84031" lon="2.29512">
        <ele>117.6</ele>
        <time>2015-05-05T20:06:33.007Z</time>
      </trkpt>
      <trkpt lat="48.84028" lon="2.29504">
        <ele>117.4</ele>
        <time>2015-05-05T20:06:34.063Z</time>
      </trkpt>
      <trkpt lat="48.84025" lon="2.29496">
        <ele>117.5</ele>
        <time>2015-05-05T20:06:35.049Z</time>
      </trkpt>
      <trkpt lat="48.84022" lon="2.29487">
        <ele>117.3</ele>
        <time>2015-05-05T20:06:36.061Z</time>
      </trkpt>
      <trkpt lat="48.84019" lon="2.29478">
        <ele>117.2</ele>
        <time>2015-05-05T20:06:37.070Z</time>
      </trkpt>
      <trkpt lat="48.84018" lon="2.29469">
        <ele>116.8</ele>
        <time>2015-05-05T20:06:37.993Z</time>
      </trkpt>
      <trkpt lat="48.84015" lon="2.29461">
        <ele>116.7</ele>
        <time>2015-05-05T20:06:38.998Z</time>
      </trkpt>
      <trkpt lat="48.84012" lon="2.29453">
        <ele>116.4</ele>
        <time>2015-05-05T20:06:40.021Z</time>
      </trkpt>
      <trkpt lat="48.84009" lon="2.29446">
        <ele>116.2</ele>
        <time>2015-05-05T20:06:41.035Z</time>
      </trkpt>
      <trkpt lat="48.84004" lon="2.29434">
        <ele>115.5</ele>
        <time>2015-05-05T20:06:42.047Z</time>
      </trkpt>
      <trkpt lat="48.83996" lon="2.29413">
        <ele>114.5</ele>
        <time>2015-05-05T20:06:44.022Z</time>
      </trkpt>
      <trkpt lat="48.83986" lon="2.29378">
        <ele>113.6</ele>
        <time>2015-05-05T20:06:48.022Z</time>
      </trkpt>
      <trkpt lat="48.83985" lon="2.29369">
        <ele>113.6</ele>
        <time>2015-05-05T20:06:49.036Z</time>
      </trkpt>
      <trkpt lat="48.83983" lon="2.29362">
        <ele>113.6</ele>
        <time>2015-05-05T20:06:50.055Z</time>
      </trkpt>
      <trkpt lat="48.83979" lon="2.29355">
        <ele>113.6</ele>
        <time>2015-05-05T20:06:51.002Z</time>
      </trkpt>
      <trkpt lat="48.83976" lon="2.29348">
        <ele>113.4</ele>
        <time>2015-05-05T20:06:52.288Z</time>
      </trkpt>
      <trkpt lat="48.83974" lon="2.2934">
        <ele>112.9</ele>
        <time>2015-05-05T20:06:53.091Z</time>
      </trkpt>
      <trkpt lat="48.83972" lon="2.29333">
        <ele>112.5</ele>
        <time>2015-05-05T20:06:54.002Z</time>
      </trkpt>
      <trkpt lat="48.83969" lon="2.29327">
        <ele>112.3</ele>
        <time>2015-05-05T20:06:55.026Z</time>
      </trkpt>
      <trkpt lat="48.83967" lon="2.2932">
        <ele>112.3</ele>
        <time>2015-05-05T20:06:56.025Z</time>
      </trkpt>
      <trkpt lat="48.83965" lon="2.29314">
        <ele>112.6</ele>
        <time>2015-05-05T20:06:57.046Z</time>
      </trkpt>
      <trkpt lat="48.83964" lon="2.29305">
        <ele>113.8</ele>
        <time>2015-05-05T20:06:58.052Z</time>
      </trkpt>
      <trkpt lat="48.83961" lon="2.29299">
        <ele>114.3</ele>
        <time>2015-05-05T20:06:59.004Z</time>
      </trkpt>
      <trkpt lat="48.83959" lon="2.29291">
        <ele>113.9</ele>
        <time>2015-05-05T20:07:00.037Z</time>
      </trkpt>
      <trkpt lat="48.83957" lon="2.29284">
        <ele>113.8</ele>
        <time>2015-05-05T20:07:01.048Z</time>
      </trkpt>
      <trkpt lat="48.83954" lon="2.29277">
        <ele>113</ele>
        <time>2015-05-05T20:07:02.098Z</time>
      </trkpt>
      <trkpt lat="48.83949" lon="2.29265">
        <ele>112</ele>
        <time>2015-05-05T20:07:04.042Z</time>
      </trkpt>
      <trkpt lat="48.83946" lon="2.2926">
        <ele>111.9</ele>
        <time>2015-05-05T20:07:05.267Z</time>
      </trkpt>
      <trkpt lat="48.83941" lon="2.2925">
        <ele>111.8</ele>
        <time>2015-05-05T20:07:07.065Z</time>
      </trkpt>
      <trkpt lat="48.83939" lon="2.29245">
        <ele>111.9</ele>
        <time>2015-05-05T20:07:08.080Z</time>
      </trkpt>
      <trkpt lat="48.83934" lon="2.29234">
        <ele>111.8</ele>
        <time>2015-05-05T20:07:10.134Z</time>
      </trkpt>
      <trkpt lat="48.83933" lon="2.29229">
        <ele>112.1</ele>
        <time>2015-05-05T20:07:11.117Z</time>
      </trkpt>
      <trkpt lat="48.83929" lon="2.29218">
        <ele>112</ele>
        <time>2015-05-05T20:07:14.037Z</time>
      </trkpt>
      <trkpt lat="48.83929" lon="2.29216">
        <ele>111.5</ele>
        <time>2015-05-05T20:07:15.028Z</time>
      </trkpt>
      <trkpt lat="48.8393" lon="2.29209">
        <ele>101.8</ele>
        <time>2015-05-05T20:08:48.115Z</time>
      </trkpt>
      <trkpt lat="48.83925" lon="2.29188">
        <ele>97.9</ele>
        <time>2015-05-05T20:09:20.088Z</time>
      </trkpt>
      <trkpt lat="48.83922" lon="2.29175">
        <ele>97.4</ele>
        <time>2015-05-05T20:09:24.097Z</time>
      </trkpt>
      <trkpt lat="48.8392" lon="2.2917">
        <ele>97.3</ele>
        <time>2015-05-05T20:09:24.999Z</time>
      </trkpt>
      <trkpt lat="48.83917" lon="2.29158">
        <ele>97.5</ele>
        <time>2015-05-05T20:09:27.168Z</time>
      </trkpt>
      <trkpt lat="48.83917" lon="2.2915">
        <ele>97.8</ele>
        <time>2015-05-05T20:09:28.059Z</time>
      </trkpt>
      <trkpt lat="48.83915" lon="2.29138">
        <ele>97.6</ele>
        <time>2015-05-05T20:09:30.023Z</time>
      </trkpt>
      <trkpt lat="48.83915" lon="2.29132">
        <ele>97.5</ele>
        <time>2015-05-05T20:09:31.062Z</time>
      </trkpt>
      <trkpt lat="48.83911" lon="2.2912">
        <ele>97.2</ele>
        <time>2015-05-05T20:09:33.036Z</time>
      </trkpt>
      <trkpt lat="48.83908" lon="2.29114">
        <ele>97.2</ele>
        <time>2015-05-05T20:09:34.098Z</time>
      </trkpt>
      <trkpt lat="48.83906" lon="2.29108">
        <ele>97.1</ele>
        <time>2015-05-05T20:09:35.122Z</time>
      </trkpt>
      <trkpt lat="48.83905" lon="2.29101">
        <ele>97.2</ele>
        <time>2015-05-05T20:09:35.995Z</time>
      </trkpt>
      <trkpt lat="48.83903" lon="2.29094">
        <ele>97.2</ele>
        <time>2015-05-05T20:09:37.009Z</time>
      </trkpt>
      <trkpt lat="48.839" lon="2.29088">
        <ele>97</ele>
        <time>2015-05-05T20:09:38.039Z</time>
      </trkpt>
      <trkpt lat="48.83897" lon="2.29082">
        <ele>96.8</ele>
        <time>2015-05-05T20:09:39.072Z</time>
      </trkpt>
      <trkpt lat="48.83895" lon="2.29075">
        <ele>96.4</ele>
        <time>2015-05-05T20:09:40.088Z</time>
      </trkpt>
      <trkpt lat="48.83893" lon="2.29068">
        <ele>96.2</ele>
        <time>2015-05-05T20:09:41.140Z</time>
      </trkpt>
      <trkpt lat="48.83892" lon="2.2906">
        <ele>95.9</ele>
        <time>2015-05-05T20:09:42.022Z</time>
      </trkpt>
      <trkpt lat="48.8389" lon="2.29053">
        <ele>95.8</ele>
        <time>2015-05-05T20:09:43.074Z</time>
      </trkpt>
      <trkpt lat="48.83888" lon="2.29045">
        <ele>95.6</ele>
        <time>2015-05-05T20:09:44.055Z</time>
      </trkpt>
      <trkpt lat="48.83887" lon="2.29037">
        <ele>95.6</ele>
        <time>2015-05-05T20:09:44.956Z</time>
      </trkpt>
      <trkpt lat="48.83886" lon="2.29027">
        <ele>95.7</ele>
        <time>2015-05-05T20:09:46.046Z</time>
      </trkpt>
      <trkpt lat="48.83869" lon="2.28976">
        <ele>95.8</ele>
        <time>2015-05-05T20:09:54.046Z</time>
      </trkpt>
      <trkpt lat="48.83863" lon="2.28968">
        <ele>96.9</ele>
        <time>2015-05-05T20:09:55.980Z</time>
      </trkpt>
      <trkpt lat="48.8386" lon="2.28963">
        <ele>97.2</ele>
        <time>2015-05-05T20:09:57.028Z</time>
      </trkpt>
      <trkpt lat="48.83855" lon="2.28954">
        <ele>97.7</ele>
        <time>2015-05-05T20:09:59.078Z</time>
      </trkpt>
      <trkpt lat="48.83853" lon="2.28951">
        <ele>98.1</ele>
        <time>2015-05-05T20:09:59.986Z</time>
      </trkpt>
      <trkpt lat="48.83851" lon="2.28945">
        <ele>98.8</ele>
        <time>2015-05-05T20:10:02.059Z</time>
      </trkpt>
      <trkpt lat="48.83853" lon="2.28934">
        <ele>98.7</ele>
        <time>2015-05-05T20:10:03.068Z</time>
      </trkpt>
      <trkpt lat="48.83852" lon="2.28925">
        <ele>99.2</ele>
        <time>2015-05-05T20:10:04.097Z</time>
      </trkpt>
      <trkpt lat="48.83851" lon="2.28916">
        <ele>99.8</ele>
        <time>2015-05-05T20:10:05Z</time>
      </trkpt>
      <trkpt lat="48.83843" lon="2.28893">
        <ele>99.9</ele>
        <time>2015-05-05T20:10:08.081Z</time>
      </trkpt>
      <trkpt lat="48.83842" lon="2.28885">
        <ele>100</ele>
        <time>2015-05-05T20:10:09.084Z</time>
      </trkpt>
      <trkpt lat="48.83839" lon="2.28877">
        <ele>100.2</ele>
        <time>2015-05-05T20:10:10.096Z</time>
      </trkpt>
      <trkpt lat="48.83811" lon="2.28753">
        <ele>101</ele>
        <time>2015-05-05T20:10:27.076Z</time>
      </trkpt>
      <trkpt lat="48.8381" lon="2.28746">
        <ele>101.5</ele>
        <time>2015-05-05T20:10:28.915Z</time>
      </trkpt>
      <trkpt lat="48.83809" lon="2.28738">
        <ele>102.1</ele>
        <time>2015-05-05T20:10:28.985Z</time>
      </trkpt>
      <trkpt lat="48.83809" lon="2.2873">
        <ele>102.5</ele>
        <time>2015-05-05T20:10:30.001Z</time>
      </trkpt>
      <trkpt lat="48.83807" lon="2.28724">
        <ele>102.8</ele>
        <time>2015-05-05T20:10:31.044Z</time>
      </trkpt>
      <trkpt lat="48.83806" lon="2.28717">
        <ele>103.2</ele>
        <time>2015-05-05T20:10:32.061Z</time>
      </trkpt>
      <trkpt lat="48.83804" lon="2.2871">
        <ele>103.5</ele>
        <time>2015-05-05T20:10:33.077Z</time>
      </trkpt>
      <trkpt lat="48.83803" lon="2.28703">
        <ele>103.7</ele>
        <time>2015-05-05T20:10:34.083Z</time>
      </trkpt>
      <trkpt lat="48.838" lon="2.28695">
        <ele>104.1</ele>
        <time>2015-05-05T20:10:35.092Z</time>
      </trkpt>
      <trkpt lat="48.83796" lon="2.28686">
        <ele>104.4</ele>
        <time>2015-05-05T20:10:36.031Z</time>
      </trkpt>
      <trkpt lat="48.83793" lon="2.28676">
        <ele>104.7</ele>
        <time>2015-05-05T20:10:37.045Z</time>
      </trkpt>
      <trkpt lat="48.8379" lon="2.28665">
        <ele>105.8</ele>
        <time>2015-05-05T20:10:38.115Z</time>
      </trkpt>
      <trkpt lat="48.83788" lon="2.28655">
        <ele>106.7</ele>
        <time>2015-05-05T20:10:39.075Z</time>
      </trkpt>
      <trkpt lat="48.83785" lon="2.28644">
        <ele>106.7</ele>
        <time>2015-05-05T20:10:40.103Z</time>
      </trkpt>
      <trkpt lat="48.83782" lon="2.28635">
        <ele>106.1</ele>
        <time>2015-05-05T20:10:41.106Z</time>
      </trkpt>
      <trkpt lat="48.83781" lon="2.28625">
        <ele>106.1</ele>
        <time>2015-05-05T20:10:42.027Z</time>
      </trkpt>
      <trkpt lat="48.83761" lon="2.28558">
        <ele>102.6</ele>
        <time>2015-05-05T20:10:51.053Z</time>
      </trkpt>
      <trkpt lat="48.83757" lon="2.28552">
        <ele>102.4</ele>
        <time>2015-05-05T20:10:52.086Z</time>
      </trkpt>
      <trkpt lat="48.83754" lon="2.28544">
        <ele>102.5</ele>
        <time>2015-05-05T20:10:53.089Z</time>
      </trkpt>
      <trkpt lat="48.83752" lon="2.28535">
        <ele>103.1</ele>
        <time>2015-05-05T20:10:54.003Z</time>
      </trkpt>
      <trkpt lat="48.83749" lon="2.28528">
        <ele>103.1</ele>
        <time>2015-05-05T20:10:55.016Z</time>
      </trkpt>
      <trkpt lat="48.83746" lon="2.28521">
        <ele>102.9</ele>
        <time>2015-05-05T20:10:56.022Z</time>
      </trkpt>
      <trkpt lat="48.83744" lon="2.28515">
        <ele>103.1</ele>
        <time>2015-05-05T20:10:57.037Z</time>
      </trkpt>
      <trkpt lat="48.83741" lon="2.28502">
        <ele>103.9</ele>
        <time>2015-05-05T20:10:59.066Z</time>
      </trkpt>
      <trkpt lat="48.83739" lon="2.28495">
        <ele>104</ele>
        <time>2015-05-05T20:11:00.080Z</time>
      </trkpt>
      <trkpt lat="48.83735" lon="2.28484">
        <ele>104.2</ele>
        <time>2015-05-05T20:11:02.045Z</time>
      </trkpt>
      <trkpt lat="48.83733" lon="2.28477">
        <ele>104.5</ele>
        <time>2015-05-05T20:11:03.138Z</time>
      </trkpt>
      <trkpt lat="48.8373" lon="2.28468">
        <ele>104.6</ele>
        <time>2015-05-05T20:11:04.052Z</time>
      </trkpt>
      <trkpt lat="48.83727" lon="2.28461">
        <ele>104.7</ele>
        <time>2015-05-05T20:11:05.049Z</time>
      </trkpt>
      <trkpt lat="48.83723" lon="2.28453">
        <ele>104.9</ele>
        <time>2015-05-05T20:11:06.071Z</time>
      </trkpt>
      <trkpt lat="48.8372" lon="2.28445">
        <ele>105.4</ele>
        <time>2015-05-05T20:11:07.078Z</time>
      </trkpt>
      <trkpt lat="48.83717" lon="2.28438">
        <ele>105.8</ele>
        <time>2015-05-05T20:11:08.099Z</time>
      </trkpt>
      <trkpt lat="48.83714" lon="2.28432">
        <ele>106.7</ele>
        <time>2015-05-05T20:11:09.105Z</time>
      </trkpt>
      <trkpt lat="48.83711" lon="2.28424">
        <ele>107.2</ele>
        <time>2015-05-05T20:11:10.111Z</time>
      </trkpt>
      <trkpt lat="48.83707" lon="2.28416">
        <ele>107.5</ele>
        <time>2015-05-05T20:11:10.989Z</time>
      </trkpt>
      <trkpt lat="48.83703" lon="2.28408">
        <ele>107.8</ele>
        <time>2015-05-05T20:11:12.019Z</time>
      </trkpt>
      <trkpt lat="48.83698" lon="2.284">
        <ele>108.1</ele>
        <time>2015-05-05T20:11:13.027Z</time>
      </trkpt>
      <trkpt lat="48.83695" lon="2.28393">
        <ele>108.2</ele>
        <time>2015-05-05T20:11:14.036Z</time>
      </trkpt>
      <trkpt lat="48.83691" lon="2.28384">
        <ele>108</ele>
        <time>2015-05-05T20:11:15.049Z</time>
      </trkpt>
      <trkpt lat="48.83687" lon="2.28377">
        <ele>108.1</ele>
        <time>2015-05-05T20:11:16.055Z</time>
      </trkpt>
      <trkpt lat="48.83685" lon="2.28372">
        <ele>108.2</ele>
        <time>2015-05-05T20:11:17.060Z</time>
      </trkpt>
      <trkpt lat="48.83682" lon="2.28364">
        <ele>108.5</ele>
        <time>2015-05-05T20:11:19.079Z</time>
      </trkpt>
      <trkpt lat="48.83679" lon="2.2836">
        <ele>108.3</ele>
        <time>2015-05-05T20:11:20.039Z</time>
      </trkpt>
      <trkpt lat="48.83675" lon="2.28351">
        <ele>107.1</ele>
        <time>2015-05-05T20:11:22.064Z</time>
      </trkpt>
      <trkpt lat="48.83672" lon="2.28343">
        <ele>106.5</ele>
        <time>2015-05-05T20:11:23.078Z</time>
      </trkpt>
      <trkpt lat="48.8367" lon="2.28334">
        <ele>106</ele>
        <time>2015-05-05T20:11:24.086Z</time>
      </trkpt>
      <trkpt lat="48.83669" lon="2.28324">
        <ele>105.5</ele>
        <time>2015-05-05T20:11:25.126Z</time>
      </trkpt>
      <trkpt lat="48.83668" lon="2.28317">
        <ele>104.7</ele>
        <time>2015-05-05T20:11:26.014Z</time>
      </trkpt>
      <trkpt lat="48.83666" lon="2.28309">
        <ele>104.9</ele>
        <time>2015-05-05T20:11:27.031Z</time>
      </trkpt>
      <trkpt lat="48.83663" lon="2.283">
        <ele>105.1</ele>
        <time>2015-05-05T20:11:28.075Z</time>
      </trkpt>
      <trkpt lat="48.8366" lon="2.28292">
        <ele>105.1</ele>
        <time>2015-05-05T20:11:29.072Z</time>
      </trkpt>
      <trkpt lat="48.83658" lon="2.28286">
        <ele>105.1</ele>
        <time>2015-05-05T20:11:30.046Z</time>
      </trkpt>
      <trkpt lat="48.83653" lon="2.28276">
        <ele>105.2</ele>
        <time>2015-05-05T20:11:31.019Z</time>
      </trkpt>
      <trkpt lat="48.83646" lon="2.28255">
        <ele>104.6</ele>
        <time>2015-05-05T20:11:34.073Z</time>
      </trkpt>
      <trkpt lat="48.83642" lon="2.28247">
        <ele>104.6</ele>
        <time>2015-05-05T20:11:35.015Z</time>
      </trkpt>
      <trkpt lat="48.83639" lon="2.2824">
        <ele>104.4</ele>
        <time>2015-05-05T20:11:36.022Z</time>
      </trkpt>
      <trkpt lat="48.83637" lon="2.28233">
        <ele>104.4</ele>
        <time>2015-05-05T20:11:37.055Z</time>
      </trkpt>
      <trkpt lat="48.83635" lon="2.28227">
        <ele>104.1</ele>
        <time>2015-05-05T20:11:38.093Z</time>
      </trkpt>
      <trkpt lat="48.83632" lon="2.28219">
        <ele>103.8</ele>
        <time>2015-05-05T20:11:38.995Z</time>
      </trkpt>
      <trkpt lat="48.8363" lon="2.28212">
        <ele>103.9</ele>
        <time>2015-05-05T20:11:40.025Z</time>
      </trkpt>
      <trkpt lat="48.83627" lon="2.28206">
        <ele>103.9</ele>
        <time>2015-05-05T20:11:41.050Z</time>
      </trkpt>
      <trkpt lat="48.83624" lon="2.282">
        <ele>103.7</ele>
        <time>2015-05-05T20:11:42.018Z</time>
      </trkpt>
      <trkpt lat="48.83622" lon="2.28194">
        <ele>103.5</ele>
        <time>2015-05-05T20:11:43.006Z</time>
      </trkpt>
      <trkpt lat="48.8362" lon="2.28188">
        <ele>103.7</ele>
        <time>2015-05-05T20:11:44.018Z</time>
      </trkpt>
      <trkpt lat="48.83619" lon="2.28181">
        <ele>103.6</ele>
        <time>2015-05-05T20:11:45.098Z</time>
      </trkpt>
      <trkpt lat="48.83617" lon="2.28175">
        <ele>103.4</ele>
        <time>2015-05-05T20:11:46.105Z</time>
      </trkpt>
      <trkpt lat="48.83614" lon="2.28168">
        <ele>103.5</ele>
        <time>2015-05-05T20:11:47.008Z</time>
      </trkpt>
      <trkpt lat="48.83611" lon="2.28162">
        <ele>103.5</ele>
        <time>2015-05-05T20:11:48.018Z</time>
      </trkpt>
      <trkpt lat="48.83608" lon="2.28156">
        <ele>103.4</ele>
        <time>2015-05-05T20:11:49.036Z</time>
      </trkpt>
      <trkpt lat="48.83605" lon="2.2815">
        <ele>103.3</ele>
        <time>2015-05-05T20:11:50.042Z</time>
      </trkpt>
      <trkpt lat="48.83603" lon="2.28146">
        <ele>102.6</ele>
        <time>2015-05-05T20:11:51.054Z</time>
      </trkpt>
      <trkpt lat="48.83597" lon="2.28137">
        <ele>102</ele>
        <time>2015-05-05T20:11:53.104Z</time>
      </trkpt>
      <trkpt lat="48.83595" lon="2.28133">
        <ele>101.5</ele>
        <time>2015-05-05T20:11:54.072Z</time>
      </trkpt>
      <trkpt lat="48.8359" lon="2.28124">
        <ele>102.1</ele>
        <time>2015-05-05T20:11:57.034Z</time>
      </trkpt>
      <trkpt lat="48.83583" lon="2.2812">
        <ele>101.9</ele>
        <time>2015-05-05T20:12:00.031Z</time>
      </trkpt>
      <trkpt lat="48.8358" lon="2.28119">
        <ele>102.2</ele>
        <time>2015-05-05T20:12:01.019Z</time>
      </trkpt>
      <trkpt lat="48.83572" lon="2.28117">
        <ele>102.2</ele>
        <time>2015-05-05T20:12:03.033Z</time>
      </trkpt>
      <trkpt lat="48.83566" lon="2.28114">
        <ele>102.2</ele>
        <time>2015-05-05T20:12:04.087Z</time>
      </trkpt>
      <trkpt lat="48.83558" lon="2.28112">
        <ele>101.3</ele>
        <time>2015-05-05T20:12:06.081Z</time>
      </trkpt>
      <trkpt lat="48.83555" lon="2.28112">
        <ele>101.1</ele>
        <time>2015-05-05T20:12:07.093Z</time>
      </trkpt>
      <trkpt lat="48.83549" lon="2.28111">
        <ele>101.5</ele>
        <time>2015-05-05T20:12:09.013Z</time>
      </trkpt>
      <trkpt lat="48.83546" lon="2.2811">
        <ele>101.3</ele>
        <time>2015-05-05T20:12:10.051Z</time>
      </trkpt>
      <trkpt lat="48.8354" lon="2.28109">
        <ele>100.9</ele>
        <time>2015-05-05T20:12:12.092Z</time>
      </trkpt>
      <trkpt lat="48.83536" lon="2.28109">
        <ele>100.9</ele>
        <time>2015-05-05T20:12:13.010Z</time>
      </trkpt>
      <trkpt lat="48.8353" lon="2.28113">
        <ele>100.4</ele>
        <time>2015-05-05T20:12:15.063Z</time>
      </trkpt>
      <trkpt lat="48.83527" lon="2.28114">
        <ele>100.2</ele>
        <time>2015-05-05T20:12:16.081Z</time>
      </trkpt>
      <trkpt lat="48.83523" lon="2.28122">
        <ele>99.7</ele>
        <time>2015-05-05T20:12:18.024Z</time>
      </trkpt>
      <trkpt lat="48.83521" lon="2.28127">
        <ele>99.6</ele>
        <time>2015-05-05T20:12:19.042Z</time>
      </trkpt>
      <trkpt lat="48.83516" lon="2.28138">
        <ele>99</ele>
        <time>2015-05-05T20:12:21.023Z</time>
      </trkpt>
      <trkpt lat="48.83515" lon="2.28145">
        <ele>98.8</ele>
        <time>2015-05-05T20:12:22.111Z</time>
      </trkpt>
      <trkpt lat="48.83513" lon="2.28153">
        <ele>98.6</ele>
        <time>2015-05-05T20:12:23.033Z</time>
      </trkpt>
      <trkpt lat="48.83511" lon="2.28159">
        <ele>98.8</ele>
        <time>2015-05-05T20:12:24.024Z</time>
      </trkpt>
      <trkpt lat="48.83509" lon="2.28166">
        <ele>99</ele>
        <time>2015-05-05T20:12:25.046Z</time>
      </trkpt>
      <trkpt lat="48.83507" lon="2.28172">
        <ele>98.8</ele>
        <time>2015-05-05T20:12:26.072Z</time>
      </trkpt>
      <trkpt lat="48.83504" lon="2.28181">
        <ele>98.7</ele>
        <time>2015-05-05T20:12:26.583Z</time>
      </trkpt>
      <trkpt lat="48.83503" lon="2.28187">
        <ele>98.8</ele>
        <time>2015-05-05T20:12:28.993Z</time>
      </trkpt>
      <trkpt lat="48.835" lon="2.28198">
        <ele>98.8</ele>
        <time>2015-05-05T20:12:31.725Z</time>
      </trkpt>
      <trkpt lat="48.83499" lon="2.28205">
        <ele>99</ele>
        <time>2015-05-05T20:12:32.067Z</time>
      </trkpt>
      <trkpt lat="48.83495" lon="2.28215">
        <ele>99.2</ele>
        <time>2015-05-05T20:12:34.052Z</time>
      </trkpt>
      <trkpt lat="48.83493" lon="2.2822">
        <ele>99.1</ele>
        <time>2015-05-05T20:12:35.031Z</time>
      </trkpt>
      <trkpt lat="48.83489" lon="2.28229">
        <ele>99.2</ele>
        <time>2015-05-05T20:12:37.054Z</time>
      </trkpt>
      <trkpt lat="48.83487" lon="2.28235">
        <ele>99.3</ele>
        <time>2015-05-05T20:12:38.092Z</time>
      </trkpt>
      <trkpt lat="48.83484" lon="2.28245">
        <ele>99.4</ele>
        <time>2015-05-05T20:12:40.115Z</time>
      </trkpt>
      <trkpt lat="48.83481" lon="2.28251">
        <ele>99.2</ele>
        <time>2015-05-05T20:12:41.063Z</time>
      </trkpt>
      <trkpt lat="48.83477" lon="2.28263">
        <ele>98.9</ele>
        <time>2015-05-05T20:12:43.385Z</time>
      </trkpt>
      <trkpt lat="48.83474" lon="2.28268">
        <ele>98.8</ele>
        <time>2015-05-05T20:12:44.082Z</time>
      </trkpt>
      <trkpt lat="48.8347" lon="2.28279">
        <ele>99</ele>
        <time>2015-05-05T20:12:46.066Z</time>
      </trkpt>
      <trkpt lat="48.83468" lon="2.28284">
        <ele>99</ele>
        <time>2015-05-05T20:12:47.026Z</time>
      </trkpt>
      <trkpt lat="48.83463" lon="2.28295">
        <ele>98.9</ele>
        <time>2015-05-05T20:12:49.093Z</time>
      </trkpt>
      <trkpt lat="48.83461" lon="2.28301">
        <ele>98.7</ele>
        <time>2015-05-05T20:12:50.022Z</time>
      </trkpt>
      <trkpt lat="48.83457" lon="2.28312">
        <ele>98.7</ele>
        <time>2015-05-05T20:12:52.068Z</time>
      </trkpt>
      <trkpt lat="48.83455" lon="2.28317">
        <ele>98.5</ele>
        <time>2015-05-05T20:12:53.079Z</time>
      </trkpt>
      <trkpt lat="48.83451" lon="2.28327">
        <ele>98.4</ele>
        <time>2015-05-05T20:12:55.021Z</time>
      </trkpt>
      <trkpt lat="48.83448" lon="2.28332">
        <ele>98.2</ele>
        <time>2015-05-05T20:12:56.028Z</time>
      </trkpt>
      <trkpt lat="48.83444" lon="2.28341">
        <ele>97.7</ele>
        <time>2015-05-05T20:12:58.612Z</time>
      </trkpt>
      <trkpt lat="48.83442" lon="2.28346">
        <ele>98</ele>
        <time>2015-05-05T20:12:58.985Z</time>
      </trkpt>
      <trkpt lat="48.8344" lon="2.28353">
        <ele>98.4</ele>
        <time>2015-05-05T20:13:00.037Z</time>
      </trkpt>
      <trkpt lat="48.83439" lon="2.2836">
        <ele>98.6</ele>
        <time>2015-05-05T20:13:01.043Z</time>
      </trkpt>
      <trkpt lat="48.83435" lon="2.28371">
        <ele>98.3</ele>
        <time>2015-05-05T20:13:03.659Z</time>
      </trkpt>
      <trkpt lat="48.83433" lon="2.28376">
        <ele>98.1</ele>
        <time>2015-05-05T20:13:04.135Z</time>
      </trkpt>
      <trkpt lat="48.83432" lon="2.2838">
        <ele>98</ele>
        <time>2015-05-05T20:13:05.027Z</time>
      </trkpt>
      <trkpt lat="48.83428" lon="2.28387">
        <ele>98.8</ele>
        <time>2015-05-05T20:13:07.036Z</time>
      </trkpt>
      <trkpt lat="48.83422" lon="2.28393">
        <ele>99.4</ele>
        <time>2015-05-05T20:13:09.054Z</time>
      </trkpt>
      <trkpt lat="48.8342" lon="2.28395">
        <ele>99.3</ele>
        <time>2015-05-05T20:13:10.075Z</time>
      </trkpt>
      <trkpt lat="48.83413" lon="2.28399">
        <ele>99.4</ele>
        <time>2015-05-05T20:13:15.029Z</time>
      </trkpt>
      <trkpt lat="48.83411" lon="2.28398">
        <ele>99.3</ele>
        <time>2015-05-05T20:13:16.138Z</time>
      </trkpt>
      <trkpt lat="48.83403" lon="2.28396">
        <ele>99.6</ele>
        <time>2015-05-05T20:13:20.081Z</time>
      </trkpt>
      <trkpt lat="48.83401" lon="2.28393">
        <ele>100</ele>
        <time>2015-05-05T20:13:21.097Z</time>
      </trkpt>
      <trkpt lat="48.83396" lon="2.28385">
        <ele>100.2</ele>
        <time>2015-05-05T20:13:25.022Z</time>
      </trkpt>
      <trkpt lat="48.83394" lon="2.28381">
        <ele>99.7</ele>
        <time>2015-05-05T20:13:26.019Z</time>
      </trkpt>
      <trkpt lat="48.8339" lon="2.28372">
        <ele>99.5</ele>
        <time>2015-05-05T20:13:28.085Z</time>
      </trkpt>
      <trkpt lat="48.83387" lon="2.28367">
        <ele>99.5</ele>
        <time>2015-05-05T20:13:29.013Z</time>
      </trkpt>
      <trkpt lat="48.83384" lon="2.28362">
        <ele>99.6</ele>
        <time>2015-05-05T20:13:29.989Z</time>
      </trkpt>
      <trkpt lat="48.8338" lon="2.28357">
        <ele>99.7</ele>
        <time>2015-05-05T20:13:31Z</time>
      </trkpt>
      <trkpt lat="48.83378" lon="2.28352">
        <ele>99.9</ele>
        <time>2015-05-05T20:13:32.007Z</time>
      </trkpt>
      <trkpt lat="48.83373" lon="2.28346">
        <ele>99.9</ele>
        <time>2015-05-05T20:13:33.050Z</time>
      </trkpt>
      <trkpt lat="48.83368" lon="2.28337">
        <ele>100.2</ele>
        <time>2015-05-05T20:13:34.984Z</time>
      </trkpt>
      <trkpt lat="48.83365" lon="2.28334">
        <ele>100.1</ele>
        <time>2015-05-05T20:13:36.018Z</time>
      </trkpt>
      <trkpt lat="48.83362" lon="2.28328">
        <ele>99.4</ele>
        <time>2015-05-05T20:13:38.235Z</time>
      </trkpt>
      <trkpt lat="48.83359" lon="2.28322">
        <ele>98.8</ele>
        <time>2015-05-05T20:13:39.074Z</time>
      </trkpt>
      <trkpt lat="48.83354" lon="2.28316">
        <ele>98.6</ele>
        <time>2015-05-05T20:13:40.093Z</time>
      </trkpt>
      <trkpt lat="48.83352" lon="2.28311">
        <ele>97.9</ele>
        <time>2015-05-05T20:13:41.099Z</time>
      </trkpt>
      <trkpt lat="48.83347" lon="2.28301">
        <ele>96.7</ele>
        <time>2015-05-05T20:13:44.096Z</time>
      </trkpt>
      <trkpt lat="48.83344" lon="2.28298">
        <ele>96.9</ele>
        <time>2015-05-05T20:13:45.031Z</time>
      </trkpt>
      <trkpt lat="48.83341" lon="2.28293">
        <ele>96.7</ele>
        <time>2015-05-05T20:13:46.071Z</time>
      </trkpt>
      <trkpt lat="48.83338" lon="2.28287">
        <ele>96.8</ele>
        <time>2015-05-05T20:13:47.095Z</time>
      </trkpt>
      <trkpt lat="48.83334" lon="2.28276">
        <ele>96.3</ele>
        <time>2015-05-05T20:13:49.087Z</time>
      </trkpt>
      <trkpt lat="48.83331" lon="2.28271">
        <ele>96.5</ele>
        <time>2015-05-05T20:13:49.999Z</time>
      </trkpt>
      <trkpt lat="48.83326" lon="2.28264">
        <ele>96.3</ele>
        <time>2015-05-05T20:13:52.126Z</time>
      </trkpt>
      <trkpt lat="48.83325" lon="2.2826">
        <ele>96</ele>
        <time>2015-05-05T20:13:53.022Z</time>
      </trkpt>
      <trkpt lat="48.8332" lon="2.28253">
        <ele>95.6</ele>
        <time>2015-05-05T20:13:55.048Z</time>
      </trkpt>
      <trkpt lat="48.83317" lon="2.28249">
        <ele>95.6</ele>
        <time>2015-05-05T20:13:56.076Z</time>
      </trkpt>
      <trkpt lat="48.83314" lon="2.28245">
        <ele>95.9</ele>
        <time>2015-05-05T20:14:02.068Z</time>
      </trkpt>
      <trkpt lat="48.833" lon="2.28228">
        <ele>95.2</ele>
        <time>2015-05-05T20:14:03.083Z</time>
      </trkpt>
      <trkpt lat="48.83297" lon="2.28223">
        <ele>94.7</ele>
        <time>2015-05-05T20:14:04.124Z</time>
      </trkpt>
      <trkpt lat="48.83293" lon="2.28216">
        <ele>94.6</ele>
        <time>2015-05-05T20:14:05.011Z</time>
      </trkpt>
      <trkpt lat="48.83289" lon="2.2821">
        <ele>94.9</ele>
        <time>2015-05-05T20:14:06.037Z</time>
      </trkpt>
      <trkpt lat="48.83285" lon="2.28206">
        <ele>95</ele>
        <time>2015-05-05T20:14:07.040Z</time>
      </trkpt>
      <trkpt lat="48.8328" lon="2.282">
        <ele>95</ele>
        <time>2015-05-05T20:14:09.065Z</time>
      </trkpt>
      <trkpt lat="48.83277" lon="2.28199">
        <ele>95.2</ele>
        <time>2015-05-05T20:14:10.078Z</time>
      </trkpt>
      <trkpt lat="48.83271" lon="2.28194">
        <ele>95.8</ele>
        <time>2015-05-05T20:14:12.051Z</time>
      </trkpt>
      <trkpt lat="48.83267" lon="2.2819">
        <ele>96</ele>
        <time>2015-05-05T20:14:13.079Z</time>
      </trkpt>
      <trkpt lat="48.83262" lon="2.28184">
        <ele>96.2</ele>
        <time>2015-05-05T20:14:15.044Z</time>
      </trkpt>
      <trkpt lat="48.83255" lon="2.28176">
        <ele>95.6</ele>
        <time>2015-05-05T20:14:16.070Z</time>
      </trkpt>
      <trkpt lat="48.83248" lon="2.28168">
        <ele>95.4</ele>
        <time>2015-05-05T20:14:18.664Z</time>
      </trkpt>
      <trkpt lat="48.83244" lon="2.28165">
        <ele>95.5</ele>
        <time>2015-05-05T20:14:19.083Z</time>
      </trkpt>
      <trkpt lat="48.83239" lon="2.28158">
        <ele>95.8</ele>
        <time>2015-05-05T20:14:19.991Z</time>
      </trkpt>
      <trkpt lat="48.83235" lon="2.28154">
        <ele>95.5</ele>
        <time>2015-05-05T20:14:21.026Z</time>
      </trkpt>
      <trkpt lat="48.83231" lon="2.28148">
        <ele>95.5</ele>
        <time>2015-05-05T20:14:22.049Z</time>
      </trkpt>
      <trkpt lat="48.83227" lon="2.28143">
        <ele>95.5</ele>
        <time>2015-05-05T20:14:23.083Z</time>
      </trkpt>
      <trkpt lat="48.83227" lon="2.28143">
        <ele>95.5</ele>
        <time>2015-05-05T20:14:23.680Z</time>
      </trkpt>
      <trkpt lat="48.83222" lon="2.28131">
        <ele>95.2</ele>
        <time>2015-05-05T20:14:26.034Z</time>
      </trkpt>
      <trkpt lat="48.83212" lon="2.28103">
        <ele>94.9</ele>
        <time>2015-05-05T20:14:31.037Z</time>
      </trkpt>
      <trkpt lat="48.83206" lon="2.28099">
        <ele>94.7</ele>
        <time>2015-05-05T20:14:32.044Z</time>
      </trkpt>
      <trkpt lat="48.83201" lon="2.28097">
        <ele>94.4</ele>
        <time>2015-05-05T20:14:33.052Z</time>
      </trkpt>
      <trkpt lat="48.83193" lon="2.28095">
        <ele>94.8</ele>
        <time>2015-05-05T20:14:35.098Z</time>
      </trkpt>
      <trkpt lat="48.8319" lon="2.28095">
        <ele>95.4</ele>
        <time>2015-05-05T20:14:36.024Z</time>
      </trkpt>
      <trkpt lat="48.83182" lon="2.28095">
        <ele>93.4</ele>
        <time>2015-05-05T20:14:43.526Z</time>
      </trkpt>
      <trkpt lat="48.83181" lon="2.281">
        <ele>93.4</ele>
        <time>2015-05-05T20:14:44.023Z</time>
      </trkpt>
      <trkpt lat="48.83178" lon="2.28109">
        <ele>93.1</ele>
        <time>2015-05-05T20:14:46.137Z</time>
      </trkpt>
      <trkpt lat="48.83176" lon="2.28115">
        <ele>92.8</ele>
        <time>2015-05-05T20:14:47.028Z</time>
      </trkpt>
      <trkpt lat="48.83172" lon="2.28125">
        <ele>92.1</ele>
        <time>2015-05-05T20:14:49.001Z</time>
      </trkpt>
      <trkpt lat="48.8317" lon="2.2813">
        <ele>91.9</ele>
        <time>2015-05-05T20:14:50.030Z</time>
      </trkpt>
      <trkpt lat="48.83165" lon="2.28142">
        <ele>91.3</ele>
        <time>2015-05-05T20:14:52.073Z</time>
      </trkpt>
      <trkpt lat="48.83163" lon="2.28149">
        <ele>91.3</ele>
        <time>2015-05-05T20:14:53.070Z</time>
      </trkpt>
      <trkpt lat="48.8316" lon="2.28156">
        <ele>91.1</ele>
        <time>2015-05-05T20:14:54.136Z</time>
      </trkpt>
      <trkpt lat="48.83157" lon="2.28163">
        <ele>91</ele>
        <time>2015-05-05T20:14:55.034Z</time>
      </trkpt>
      <trkpt lat="48.83154" lon="2.2817">
        <ele>91</ele>
        <time>2015-05-05T20:14:56.028Z</time>
      </trkpt>
      <trkpt lat="48.83152" lon="2.28176">
        <ele>91</ele>
        <time>2015-05-05T20:14:57.055Z</time>
      </trkpt>
      <trkpt lat="48.8315" lon="2.28182">
        <ele>91</ele>
        <time>2015-05-05T20:14:58.070Z</time>
      </trkpt>
      <trkpt lat="48.83147" lon="2.28188">
        <ele>90.9</ele>
        <time>2015-05-05T20:14:59.086Z</time>
      </trkpt>
      <trkpt lat="48.83144" lon="2.28194">
        <ele>90.8</ele>
        <time>2015-05-05T20:15:00.010Z</time>
      </trkpt>
      <trkpt lat="48.83141" lon="2.28201">
        <ele>90.7</ele>
        <time>2015-05-05T20:15:01.045Z</time>
      </trkpt>
      <trkpt lat="48.83138" lon="2.28209">
        <ele>90.6</ele>
        <time>2015-05-05T20:15:02.097Z</time>
      </trkpt>
      <trkpt lat="48.83135" lon="2.28216">
        <ele>90.4</ele>
        <time>2015-05-05T20:15:03.001Z</time>
      </trkpt>
      <trkpt lat="48.83132" lon="2.28223">
        <ele>90.5</ele>
        <time>2015-05-05T20:15:04.045Z</time>
      </trkpt>
      <trkpt lat="48.8313" lon="2.2823">
        <ele>90.4</ele>
        <time>2015-05-05T20:15:05.041Z</time>
      </trkpt>
      <trkpt lat="48.83127" lon="2.28237">
        <ele>90.5</ele>
        <time>2015-05-05T20:15:06.057Z</time>
      </trkpt>
      <trkpt lat="48.83125" lon="2.28243">
        <ele>90.5</ele>
        <time>2015-05-05T20:15:07.065Z</time>
      </trkpt>
      <trkpt lat="48.83122" lon="2.28249">
        <ele>90.5</ele>
        <time>2015-05-05T20:15:08.071Z</time>
      </trkpt>
      <trkpt lat="48.8312" lon="2.28256">
        <ele>90.4</ele>
        <time>2015-05-05T20:15:09.097Z</time>
      </trkpt>
      <trkpt lat="48.83118" lon="2.28263">
        <ele>90.4</ele>
        <time>2015-05-05T20:15:10.103Z</time>
      </trkpt>
      <trkpt lat="48.83115" lon="2.28272">
        <ele>90.1</ele>
        <time>2015-05-05T20:15:10.984Z</time>
      </trkpt>
      <trkpt lat="48.83113" lon="2.2828">
        <ele>89.9</ele>
        <time>2015-05-05T20:15:12Z</time>
      </trkpt>
      <trkpt lat="48.83111" lon="2.28289">
        <ele>89.8</ele>
        <time>2015-05-05T20:15:13.010Z</time>
      </trkpt>
      <trkpt lat="48.83109" lon="2.28296">
        <ele>89.8</ele>
        <time>2015-05-05T20:15:14.020Z</time>
      </trkpt>
      <trkpt lat="48.83106" lon="2.28302">
        <ele>90</ele>
        <time>2015-05-05T20:15:15.032Z</time>
      </trkpt>
      <trkpt lat="48.83104" lon="2.2831">
        <ele>89.9</ele>
        <time>2015-05-05T20:15:16.046Z</time>
      </trkpt>
      <trkpt lat="48.83103" lon="2.28318">
        <ele>89.6</ele>
        <time>2015-05-05T20:15:17.062Z</time>
      </trkpt>
      <trkpt lat="48.831" lon="2.28324">
        <ele>89.5</ele>
        <time>2015-05-05T20:15:18.073Z</time>
      </trkpt>
      <trkpt lat="48.83098" lon="2.28331">
        <ele>89.4</ele>
        <time>2015-05-05T20:15:19.084Z</time>
      </trkpt>
      <trkpt lat="48.83092" lon="2.28341">
        <ele>89.6</ele>
        <time>2015-05-05T20:15:21.029Z</time>
      </trkpt>
      <trkpt lat="48.8309" lon="2.28348">
        <ele>89.5</ele>
        <time>2015-05-05T20:15:22.076Z</time>
      </trkpt>
      <trkpt lat="48.83087" lon="2.28353">
        <ele>88.9</ele>
        <time>2015-05-05T20:15:23.011Z</time>
      </trkpt>
      <trkpt lat="48.83085" lon="2.28359">
        <ele>88.7</ele>
        <time>2015-05-05T20:15:24.017Z</time>
      </trkpt>
      <trkpt lat="48.83082" lon="2.28365">
        <ele>88.3</ele>
        <time>2015-05-05T20:15:25.041Z</time>
      </trkpt>
      <trkpt lat="48.8308" lon="2.28371">
        <ele>88.3</ele>
        <time>2015-05-05T20:15:26.052Z</time>
      </trkpt>
      <trkpt lat="48.83077" lon="2.28376">
        <ele>88.3</ele>
        <time>2015-05-05T20:15:27.062Z</time>
      </trkpt>
      <trkpt lat="48.83074" lon="2.28383">
        <ele>88.2</ele>
        <time>2015-05-05T20:15:28.082Z</time>
      </trkpt>
      <trkpt lat="48.83072" lon="2.28389">
        <ele>88.2</ele>
        <time>2015-05-05T20:15:28.998Z</time>
      </trkpt>
      <trkpt lat="48.83069" lon="2.28395">
        <ele>88.3</ele>
        <time>2015-05-05T20:15:30.028Z</time>
      </trkpt>
      <trkpt lat="48.83067" lon="2.28402">
        <ele>88.2</ele>
        <time>2015-05-05T20:15:31.041Z</time>
      </trkpt>
      <trkpt lat="48.83065" lon="2.28408">
        <ele>88.3</ele>
        <time>2015-05-05T20:15:32.058Z</time>
      </trkpt>
      <trkpt lat="48.83062" lon="2.28414">
        <ele>88.6</ele>
        <time>2015-05-05T20:15:33.065Z</time>
      </trkpt>
      <trkpt lat="48.83059" lon="2.2842">
        <ele>88.8</ele>
        <time>2015-05-05T20:15:34.075Z</time>
      </trkpt>
      <trkpt lat="48.83056" lon="2.28431">
        <ele>88.9</ele>
        <time>2015-05-05T20:15:36.108Z</time>
      </trkpt>
      <trkpt lat="48.83054" lon="2.28436">
        <ele>88.6</ele>
        <time>2015-05-05T20:15:37.297Z</time>
      </trkpt>
      <trkpt lat="48.8305" lon="2.28447">
        <ele>88.5</ele>
        <time>2015-05-05T20:15:39.038Z</time>
      </trkpt>
      <trkpt lat="48.83048" lon="2.28451">
        <ele>88.4</ele>
        <time>2015-05-05T20:15:40.077Z</time>
      </trkpt>
      <trkpt lat="48.83043" lon="2.2846">
        <ele>88.7</ele>
        <time>2015-05-05T20:15:42.027Z</time>
      </trkpt>
      <trkpt lat="48.8304" lon="2.28464">
        <ele>89</ele>
        <time>2015-05-05T20:15:43.049Z</time>
      </trkpt>
      <trkpt lat="48.83034" lon="2.28468">
        <ele>89</ele>
        <time>2015-05-05T20:15:45.084Z</time>
      </trkpt>
      <trkpt lat="48.83031" lon="2.28467">
        <ele>89.6</ele>
        <time>2015-05-05T20:15:46.111Z</time>
      </trkpt>
      <trkpt lat="48.83024" lon="2.28464">
        <ele>90.3</ele>
        <time>2015-05-05T20:15:48.032Z</time>
      </trkpt>
      <trkpt lat="48.83022" lon="2.28462">
        <ele>90.4</ele>
        <time>2015-05-05T20:15:49.051Z</time>
      </trkpt>
      <trkpt lat="48.83019" lon="2.28459">
        <ele>90.5</ele>
        <time>2015-05-05T20:15:50.063Z</time>
      </trkpt>
      <trkpt lat="48.83012" lon="2.28454">
        <ele>90.8</ele>
        <time>2015-05-05T20:15:52.076Z</time>
      </trkpt>
      <trkpt lat="48.83006" lon="2.28455">
        <ele>90.8</ele>
        <time>2015-05-05T20:15:54.002Z</time>
      </trkpt>
      <trkpt lat="48.83003" lon="2.28458">
        <ele>90.8</ele>
        <time>2015-05-05T20:15:55.036Z</time>
      </trkpt>
      <trkpt lat="48.82996" lon="2.28465">
        <ele>91</ele>
        <time>2015-05-05T20:15:57.059Z</time>
      </trkpt>
      <trkpt lat="48.82993" lon="2.28469">
        <ele>91.4</ele>
        <time>2015-05-05T20:15:58.085Z</time>
      </trkpt>
      <trkpt lat="48.82986" lon="2.28478">
        <ele>92</ele>
        <time>2015-05-05T20:16:00.024Z</time>
      </trkpt>
      <trkpt lat="48.82983" lon="2.28483">
        <ele>92.2</ele>
        <time>2015-05-05T20:16:01.066Z</time>
      </trkpt>
      <trkpt lat="48.82977" lon="2.2849">
        <ele>92.7</ele>
        <time>2015-05-05T20:16:03.056Z</time>
      </trkpt>
      <trkpt lat="48.82973" lon="2.28494">
        <ele>93</ele>
        <time>2015-05-05T20:16:04.072Z</time>
      </trkpt>
      <trkpt lat="48.82967" lon="2.28501">
        <ele>93.2</ele>
        <time>2015-05-05T20:16:06.035Z</time>
      </trkpt>
      <trkpt lat="48.82964" lon="2.28505">
        <ele>93.3</ele>
        <time>2015-05-05T20:16:07.040Z</time>
      </trkpt>
      <trkpt lat="48.82958" lon="2.28513">
        <ele>93.2</ele>
        <time>2015-05-05T20:16:09.099Z</time>
      </trkpt>
      <trkpt lat="48.82955" lon="2.28517">
        <ele>93.5</ele>
        <time>2015-05-05T20:16:10.048Z</time>
      </trkpt>
      <trkpt lat="48.82948" lon="2.28526">
        <ele>93.7</ele>
        <time>2015-05-05T20:16:12.023Z</time>
      </trkpt>
      <trkpt lat="48.82945" lon="2.2853">
        <ele>93.8</ele>
        <time>2015-05-05T20:16:13.041Z</time>
      </trkpt>
      <trkpt lat="48.82939" lon="2.28538">
        <ele>93.6</ele>
        <time>2015-05-05T20:16:13.801Z</time>
      </trkpt>
      <trkpt lat="48.82937" lon="2.28542">
        <ele>93.6</ele>
        <time>2015-05-05T20:16:16.081Z</time>
      </trkpt>
      <trkpt lat="48.82932" lon="2.28551">
        <ele>94.1</ele>
        <time>2015-05-05T20:16:18.863Z</time>
      </trkpt>
      <trkpt lat="48.82928" lon="2.28553">
        <ele>94.5</ele>
        <time>2015-05-05T20:16:18.982Z</time>
      </trkpt>
      <trkpt lat="48.82923" lon="2.28554">
        <ele>94.8</ele>
        <time>2015-05-05T20:16:20.069Z</time>
      </trkpt>
      <trkpt lat="48.82918" lon="2.28555">
        <ele>95.3</ele>
        <time>2015-05-05T20:16:21.029Z</time>
      </trkpt>
      <trkpt lat="48.82911" lon="2.28558">
        <ele>96.3</ele>
        <time>2015-05-05T20:16:23.927Z</time>
      </trkpt>
      <trkpt lat="48.82907" lon="2.2856">
        <ele>96.4</ele>
        <time>2015-05-05T20:16:24.055Z</time>
      </trkpt>
      <trkpt lat="48.82901" lon="2.28563">
        <ele>97.1</ele>
        <time>2015-05-05T20:16:26.057Z</time>
      </trkpt>
      <trkpt lat="48.82897" lon="2.28564">
        <ele>97.4</ele>
        <time>2015-05-05T20:16:27.074Z</time>
      </trkpt>
      <trkpt lat="48.82888" lon="2.28565">
        <ele>98.1</ele>
        <time>2015-05-05T20:16:28.969Z</time>
      </trkpt>
      <trkpt lat="48.82885" lon="2.28565">
        <ele>98.6</ele>
        <time>2015-05-05T20:16:30.034Z</time>
      </trkpt>
      <trkpt lat="48.82877" lon="2.28567">
        <ele>99.2</ele>
        <time>2015-05-05T20:16:32.124Z</time>
      </trkpt>
      <trkpt lat="48.82874" lon="2.28568">
        <ele>99.4</ele>
        <time>2015-05-05T20:16:33.053Z</time>
      </trkpt>
      <trkpt lat="48.82867" lon="2.2857">
        <ele>99.6</ele>
        <time>2015-05-05T20:16:34.996Z</time>
      </trkpt>
      <trkpt lat="48.82862" lon="2.28572">
        <ele>100.3</ele>
        <time>2015-05-05T20:16:36.028Z</time>
      </trkpt>
      <trkpt lat="48.82853" lon="2.28574">
        <ele>100.5</ele>
        <time>2015-05-05T20:16:38.356Z</time>
      </trkpt>
      <trkpt lat="48.82849" lon="2.28575">
        <ele>100.8</ele>
        <time>2015-05-05T20:16:39.067Z</time>
      </trkpt>
      <trkpt lat="48.82841" lon="2.28576">
        <ele>100.7</ele>
        <time>2015-05-05T20:16:41.107Z</time>
      </trkpt>
      <trkpt lat="48.82837" lon="2.28575">
        <ele>100.7</ele>
        <time>2015-05-05T20:16:42Z</time>
      </trkpt>
      <trkpt lat="48.82829" lon="2.28575">
        <ele>100.9</ele>
        <time>2015-05-05T20:16:44.033Z</time>
      </trkpt>
      <trkpt lat="48.82824" lon="2.28576">
        <ele>101.1</ele>
        <time>2015-05-05T20:16:45.097Z</time>
      </trkpt>
      <trkpt lat="48.82816" lon="2.28579">
        <ele>101.5</ele>
        <time>2015-05-05T20:16:47.007Z</time>
      </trkpt>
      <trkpt lat="48.82795" lon="2.28582">
        <ele>100.9</ele>
        <time>2015-05-05T20:16:53.004Z</time>
      </trkpt>
      <trkpt lat="48.82787" lon="2.28587">
        <ele>101.6</ele>
        <time>2015-05-05T20:16:55.014Z</time>
      </trkpt>
      <trkpt lat="48.82782" lon="2.28589">
        <ele>101.9</ele>
        <time>2015-05-05T20:16:56.033Z</time>
      </trkpt>
      <trkpt lat="48.82773" lon="2.2859">
        <ele>102.6</ele>
        <time>2015-05-05T20:16:58.768Z</time>
      </trkpt>
      <trkpt lat="48.82769" lon="2.28592">
        <ele>103.1</ele>
        <time>2015-05-05T20:16:59.006Z</time>
      </trkpt>
      <trkpt lat="48.82761" lon="2.2859">
        <ele>103</ele>
        <time>2015-05-05T20:17:01.019Z</time>
      </trkpt>
      <trkpt lat="48.82758" lon="2.28591">
        <ele>103.3</ele>
        <time>2015-05-05T20:17:02.055Z</time>
      </trkpt>
      <trkpt lat="48.82752" lon="2.28594">
        <ele>103</ele>
        <time>2015-05-05T20:17:04.066Z</time>
      </trkpt>
      <trkpt lat="48.82749" lon="2.28596">
        <ele>102.9</ele>
        <time>2015-05-05T20:17:05.077Z</time>
      </trkpt>
      <trkpt lat="48.82742" lon="2.286">
        <ele>102.7</ele>
        <time>2015-05-05T20:17:07.118Z</time>
      </trkpt>
      <trkpt lat="48.82738" lon="2.28603">
        <ele>103</ele>
        <time>2015-05-05T20:17:08.028Z</time>
      </trkpt>
      <trkpt lat="48.8273" lon="2.28606">
        <ele>103.4</ele>
        <time>2015-05-05T20:17:08.925Z</time>
      </trkpt>
      <trkpt lat="48.82725" lon="2.28606">
        <ele>103.4</ele>
        <time>2015-05-05T20:17:11.092Z</time>
      </trkpt>
      <trkpt lat="48.8272" lon="2.28607">
        <ele>103.4</ele>
        <time>2015-05-05T20:17:12.104Z</time>
      </trkpt>
      <trkpt lat="48.82716" lon="2.28608">
        <ele>103.1</ele>
        <time>2015-05-05T20:17:13.054Z</time>
      </trkpt>
      <trkpt lat="48.8271" lon="2.28612">
        <ele>103.2</ele>
        <time>2015-05-05T20:17:15.008Z</time>
      </trkpt>
      <trkpt lat="48.82707" lon="2.28613">
        <ele>103</ele>
        <time>2015-05-05T20:17:16.029Z</time>
      </trkpt>
      <trkpt lat="48.82699" lon="2.28615">
        <ele>103</ele>
        <time>2015-05-05T20:17:19.027Z</time>
      </trkpt>
      <trkpt lat="48.82695" lon="2.28615">
        <ele>103.1</ele>
        <time>2015-05-05T20:17:19.069Z</time>
      </trkpt>
      <trkpt lat="48.82687" lon="2.28618">
        <ele>103.1</ele>
        <time>2015-05-05T20:17:21.225Z</time>
      </trkpt>
      <trkpt lat="48.82683" lon="2.2862">
        <ele>103.3</ele>
        <time>2015-05-05T20:17:22.064Z</time>
      </trkpt>
      <trkpt lat="48.82676" lon="2.28622">
        <ele>103.6</ele>
        <time>2015-05-05T20:17:24.081Z</time>
      </trkpt>
      <trkpt lat="48.82672" lon="2.28623">
        <ele>104.1</ele>
        <time>2015-05-05T20:17:25.075Z</time>
      </trkpt>
      <trkpt lat="48.82664" lon="2.28627">
        <ele>104.8</ele>
        <time>2015-05-05T20:17:28.060Z</time>
      </trkpt>
      <trkpt lat="48.8266" lon="2.28628">
        <ele>105.1</ele>
        <time>2015-05-05T20:17:29.076Z</time>
      </trkpt>
      <trkpt lat="48.82654" lon="2.28628">
        <ele>105.5</ele>
        <time>2015-05-05T20:17:31.023Z</time>
      </trkpt>
      <trkpt lat="48.82651" lon="2.28628">
        <ele>105.7</ele>
        <time>2015-05-05T20:17:32.034Z</time>
      </trkpt>
      <trkpt lat="48.82643" lon="2.28627">
        <ele>106.4</ele>
        <time>2015-05-05T20:17:35.069Z</time>
      </trkpt>
      <trkpt lat="48.82641" lon="2.28626">
        <ele>106.5</ele>
        <time>2015-05-05T20:17:36.088Z</time>
      </trkpt>
      <trkpt lat="48.82638" lon="2.28626">
        <ele>106.8</ele>
        <time>2015-05-05T20:17:42.075Z</time>
      </trkpt>
      <trkpt lat="48.82617" lon="2.28637">
        <ele>108.8</ele>
        <time>2015-05-05T20:17:53.025Z</time>
      </trkpt>
      <trkpt lat="48.8261" lon="2.28644">
        <ele>109.1</ele>
        <time>2015-05-05T20:17:56.077Z</time>
      </trkpt>
      <trkpt lat="48.82607" lon="2.28646">
        <ele>109.3</ele>
        <time>2015-05-05T20:17:57.013Z</time>
      </trkpt>
      <trkpt lat="48.82601" lon="2.28649">
        <ele>109.7</ele>
        <time>2015-05-05T20:17:59.069Z</time>
      </trkpt>
      <trkpt lat="48.82597" lon="2.28652">
        <ele>109.8</ele>
        <time>2015-05-05T20:18:00.022Z</time>
      </trkpt>
      <trkpt lat="48.82591" lon="2.28655">
        <ele>109.9</ele>
        <time>2015-05-05T20:18:02.066Z</time>
      </trkpt>
      <trkpt lat="48.82586" lon="2.28657">
        <ele>109.9</ele>
        <time>2015-05-05T20:18:03.073Z</time>
      </trkpt>
      <trkpt lat="48.82582" lon="2.2866">
        <ele>109.9</ele>
        <time>2015-05-05T20:18:04.089Z</time>
      </trkpt>
      <trkpt lat="48.82578" lon="2.28664">
        <ele>110</ele>
        <time>2015-05-05T20:18:04.992Z</time>
      </trkpt>
      <trkpt lat="48.82574" lon="2.28667">
        <ele>110.4</ele>
        <time>2015-05-05T20:18:06Z</time>
      </trkpt>
      <trkpt lat="48.8257" lon="2.28669">
        <ele>110.5</ele>
        <time>2015-05-05T20:18:07.057Z</time>
      </trkpt>
      <trkpt lat="48.82565" lon="2.28671">
        <ele>110.8</ele>
        <time>2015-05-05T20:18:08.662Z</time>
      </trkpt>
      <trkpt lat="48.82561" lon="2.28672">
        <ele>110.9</ele>
        <time>2015-05-05T20:18:08.990Z</time>
      </trkpt>
      <trkpt lat="48.82554" lon="2.28675">
        <ele>111.8</ele>
        <time>2015-05-05T20:18:11.081Z</time>
      </trkpt>
      <trkpt lat="48.8255" lon="2.28677">
        <ele>111.9</ele>
        <time>2015-05-05T20:18:12.098Z</time>
      </trkpt>
      <trkpt lat="48.82546" lon="2.28679">
        <ele>111.5</ele>
        <time>2015-05-05T20:18:13.026Z</time>
      </trkpt>
      <trkpt lat="48.82542" lon="2.28681">
        <ele>111.5</ele>
        <time>2015-05-05T20:18:14.033Z</time>
      </trkpt>
      <trkpt lat="48.82535" lon="2.28685">
        <ele>111.9</ele>
        <time>2015-05-05T20:18:16.059Z</time>
      </trkpt>
      <trkpt lat="48.82533" lon="2.28688">
        <ele>112.3</ele>
        <time>2015-05-05T20:18:17.080Z</time>
      </trkpt>
      <trkpt lat="48.82527" lon="2.28692">
        <ele>113.1</ele>
        <time>2015-05-05T20:18:19.047Z</time>
      </trkpt>
      <trkpt lat="48.82524" lon="2.28695">
        <ele>113.5</ele>
        <time>2015-05-05T20:18:20.079Z</time>
      </trkpt>
      <trkpt lat="48.82518" lon="2.28699">
        <ele>114.5</ele>
        <time>2015-05-05T20:18:23.898Z</time>
      </trkpt>
      <trkpt lat="48.82516" lon="2.28699">
        <ele>114.8</ele>
        <time>2015-05-05T20:18:25.034Z</time>
      </trkpt>
      <trkpt lat="48.82513" lon="2.28702">
        <ele>115.5</ele>
        <time>2015-05-05T20:18:51.037Z</time>
      </trkpt>
      <trkpt lat="48.82479" lon="2.28687">
        <ele>127</ele>
        <time>2015-05-05T20:19:37.065Z</time>
      </trkpt>
      <trkpt lat="48.82479" lon="2.28687">
        <ele>127</ele>
        <time>2015-05-05T20:19:49.039Z</time>
      </trkpt>
      <trkpt lat="48.82519" lon="2.28721">
        <ele>135.8</ele>
        <time>2015-05-05T20:19:58.961Z</time>
      </trkpt>
      <trkpt lat="48.82515" lon="2.28722">
        <ele>139.6</ele>
        <time>2015-05-05T20:21:09.043Z</time>
      </trkpt>
      <trkpt lat="48.82508" lon="2.28718">
        <ele>139.8</ele>
        <time>2015-05-05T20:21:10.073Z</time>
      </trkpt>
      <trkpt lat="48.825" lon="2.2872">
        <ele>138.6</ele>
        <time>2015-05-05T20:21:12.105Z</time>
      </trkpt>
      <trkpt lat="48.82496" lon="2.28723">
        <ele>137.6</ele>
        <time>2015-05-05T20:21:13Z</time>
      </trkpt>
      <trkpt lat="48.82492" lon="2.28726">
        <ele>136.8</ele>
        <time>2015-05-05T20:21:14.065Z</time>
      </trkpt>
      <trkpt lat="48.82487" lon="2.2873">
        <ele>135.8</ele>
        <time>2015-05-05T20:21:15.079Z</time>
      </trkpt>
      <trkpt lat="48.82482" lon="2.28733">
        <ele>135.7</ele>
        <time>2015-05-05T20:21:16.086Z</time>
      </trkpt>
      <trkpt lat="48.82476" lon="2.28734">
        <ele>135.5</ele>
        <time>2015-05-05T20:21:17.045Z</time>
      </trkpt>
      <trkpt lat="48.8247" lon="2.28736">
        <ele>135.2</ele>
        <time>2015-05-05T20:21:18.033Z</time>
      </trkpt>
      <trkpt lat="48.82465" lon="2.28737">
        <ele>134.9</ele>
        <time>2015-05-05T20:21:19.031Z</time>
      </trkpt>
      <trkpt lat="48.82458" lon="2.28741">
        <ele>134.8</ele>
        <time>2015-05-05T20:21:21.054Z</time>
      </trkpt>
      <trkpt lat="48.82455" lon="2.28742">
        <ele>134.9</ele>
        <time>2015-05-05T20:21:22.068Z</time>
      </trkpt>
      <trkpt lat="48.82446" lon="2.28745">
        <ele>134.8</ele>
        <time>2015-05-05T20:21:24.026Z</time>
      </trkpt>
      <trkpt lat="48.82442" lon="2.28748">
        <ele>134.9</ele>
        <time>2015-05-05T20:21:25.115Z</time>
      </trkpt>
      <trkpt lat="48.82438" lon="2.28749">
        <ele>134.9</ele>
        <time>2015-05-05T20:21:26.019Z</time>
      </trkpt>
      <trkpt lat="48.82433" lon="2.28753">
        <ele>134.7</ele>
        <time>2015-05-05T20:21:27.034Z</time>
      </trkpt>
      <trkpt lat="48.82427" lon="2.28758">
        <ele>134.4</ele>
        <time>2015-05-05T20:21:29.085Z</time>
      </trkpt>
      <trkpt lat="48.82424" lon="2.28758">
        <ele>134.2</ele>
        <time>2015-05-05T20:21:30.019Z</time>
      </trkpt>
      <trkpt lat="48.82416" lon="2.28762">
        <ele>133.9</ele>
        <time>2015-05-05T20:21:33.034Z</time>
      </trkpt>
      <trkpt lat="48.82408" lon="2.28764">
        <ele>131.7</ele>
        <time>2015-05-05T20:21:34.033Z</time>
      </trkpt>
      <trkpt lat="48.82403" lon="2.28766">
        <ele>131</ele>
        <time>2015-05-05T20:21:35.088Z</time>
      </trkpt>
      <trkpt lat="48.82397" lon="2.28769">
        <ele>130.3</ele>
        <time>2015-05-05T20:21:36.094Z</time>
      </trkpt>
      <trkpt lat="48.82392" lon="2.28772">
        <ele>130.2</ele>
        <time>2015-05-05T20:21:36.978Z</time>
      </trkpt>
      <trkpt lat="48.82388" lon="2.28776">
        <ele>130.1</ele>
        <time>2015-05-05T20:21:38.028Z</time>
      </trkpt>
      <trkpt lat="48.82383" lon="2.28779">
        <ele>129.6</ele>
        <time>2015-05-05T20:21:39.695Z</time>
      </trkpt>
      <trkpt lat="48.82377" lon="2.28782">
        <ele>128.9</ele>
        <time>2015-05-05T20:21:40.051Z</time>
      </trkpt>
      <trkpt lat="48.82373" lon="2.28785">
        <ele>128.3</ele>
        <time>2015-05-05T20:21:41.060Z</time>
      </trkpt>
      <trkpt lat="48.82369" lon="2.28788">
        <ele>128.4</ele>
        <time>2015-05-05T20:21:42.072Z</time>
      </trkpt>
      <trkpt lat="48.82364" lon="2.28792">
        <ele>128.2</ele>
        <time>2015-05-05T20:21:42.984Z</time>
      </trkpt>
      <trkpt lat="48.8236" lon="2.28795">
        <ele>128</ele>
        <time>2015-05-05T20:21:43.988Z</time>
      </trkpt>
      <trkpt lat="48.82356" lon="2.28799">
        <ele>128</ele>
        <time>2015-05-05T20:21:45.023Z</time>
      </trkpt>
      <trkpt lat="48.82351" lon="2.28802">
        <ele>128</ele>
        <time>2015-05-05T20:21:46.028Z</time>
      </trkpt>
      <trkpt lat="48.82347" lon="2.28805">
        <ele>128</ele>
        <time>2015-05-05T20:21:47.038Z</time>
      </trkpt>
      <trkpt lat="48.82342" lon="2.28809">
        <ele>128.1</ele>
        <time>2015-05-05T20:21:48.042Z</time>
      </trkpt>
      <trkpt lat="48.82338" lon="2.28812">
        <ele>128.2</ele>
        <time>2015-05-05T20:21:49.763Z</time>
      </trkpt>
      <trkpt lat="48.82333" lon="2.28816">
        <ele>128.4</ele>
        <time>2015-05-05T20:21:50.059Z</time>
      </trkpt>
      <trkpt lat="48.82329" lon="2.28819">
        <ele>128.5</ele>
        <time>2015-05-05T20:21:51.073Z</time>
      </trkpt>
      <trkpt lat="48.82324" lon="2.28824">
        <ele>128.8</ele>
        <time>2015-05-05T20:21:52.094Z</time>
      </trkpt>
      <trkpt lat="48.8232" lon="2.28827">
        <ele>129.1</ele>
        <time>2015-05-05T20:21:53.015Z</time>
      </trkpt>
      <trkpt lat="48.82315" lon="2.28832">
        <ele>129.4</ele>
        <time>2015-05-05T20:21:54.025Z</time>
      </trkpt>
      <trkpt lat="48.82311" lon="2.28836">
        <ele>129.5</ele>
        <time>2015-05-05T20:21:55.044Z</time>
      </trkpt>
      <trkpt lat="48.82306" lon="2.2884">
        <ele>129.6</ele>
        <time>2015-05-05T20:21:56.102Z</time>
      </trkpt>
      <trkpt lat="48.82298" lon="2.28845">
        <ele>129.8</ele>
        <time>2015-05-05T20:21:58.049Z</time>
      </trkpt>
      <trkpt lat="48.82294" lon="2.28847">
        <ele>129.3</ele>
        <time>2015-05-05T20:21:59.058Z</time>
      </trkpt>
      <trkpt lat="48.82287" lon="2.28853">
        <ele>129</ele>
        <time>2015-05-05T20:22:01.083Z</time>
      </trkpt>
      <trkpt lat="48.82282" lon="2.28854">
        <ele>129.2</ele>
        <time>2015-05-05T20:22:02.011Z</time>
      </trkpt>
      <trkpt lat="48.82278" lon="2.28857">
        <ele>129.3</ele>
        <time>2015-05-05T20:22:03.006Z</time>
      </trkpt>
      <trkpt lat="48.82273" lon="2.28859">
        <ele>129.5</ele>
        <time>2015-05-05T20:22:04.050Z</time>
      </trkpt>
      <trkpt lat="48.82269" lon="2.28861">
        <ele>129.6</ele>
        <time>2015-05-05T20:22:05.054Z</time>
      </trkpt>
      <trkpt lat="48.82264" lon="2.28862">
        <ele>129.4</ele>
        <time>2015-05-05T20:22:06.062Z</time>
      </trkpt>
      <trkpt lat="48.82256" lon="2.28869">
        <ele>128.9</ele>
        <time>2015-05-05T20:22:08.003Z</time>
      </trkpt>
      <trkpt lat="48.82252" lon="2.28873">
        <ele>128.6</ele>
        <time>2015-05-05T20:22:09.009Z</time>
      </trkpt>
      <trkpt lat="48.82248" lon="2.28878">
        <ele>128.6</ele>
        <time>2015-05-05T20:22:10.053Z</time>
      </trkpt>
      <trkpt lat="48.82244" lon="2.28882">
        <ele>128.5</ele>
        <time>2015-05-05T20:22:11.069Z</time>
      </trkpt>
      <trkpt lat="48.8224" lon="2.28886">
        <ele>128.3</ele>
        <time>2015-05-05T20:22:12.090Z</time>
      </trkpt>
      <trkpt lat="48.82236" lon="2.28889">
        <ele>128.4</ele>
        <time>2015-05-05T20:22:13.095Z</time>
      </trkpt>
      <trkpt lat="48.82228" lon="2.28895">
        <ele>128.4</ele>
        <time>2015-05-05T20:22:15.007Z</time>
      </trkpt>
      <trkpt lat="48.82224" lon="2.28899">
        <ele>128.7</ele>
        <time>2015-05-05T20:22:16.078Z</time>
      </trkpt>
      <trkpt lat="48.8222" lon="2.28903">
        <ele>128.8</ele>
        <time>2015-05-05T20:22:17.011Z</time>
      </trkpt>
      <trkpt lat="48.82215" lon="2.28907">
        <ele>129.2</ele>
        <time>2015-05-05T20:22:18.018Z</time>
      </trkpt>
      <trkpt lat="48.82211" lon="2.28912">
        <ele>129.5</ele>
        <time>2015-05-05T20:22:19.032Z</time>
      </trkpt>
      <trkpt lat="48.82206" lon="2.28915">
        <ele>129.7</ele>
        <time>2015-05-05T20:22:20.043Z</time>
      </trkpt>
      <trkpt lat="48.82201" lon="2.28919">
        <ele>129.9</ele>
        <time>2015-05-05T20:22:21.043Z</time>
      </trkpt>
      <trkpt lat="48.82196" lon="2.28922">
        <ele>130.4</ele>
        <time>2015-05-05T20:22:22.054Z</time>
      </trkpt>
      <trkpt lat="48.82192" lon="2.28926">
        <ele>130.8</ele>
        <time>2015-05-05T20:22:23.081Z</time>
      </trkpt>
      <trkpt lat="48.82189" lon="2.28932">
        <ele>130.7</ele>
        <time>2015-05-05T20:22:24.088Z</time>
      </trkpt>
      <trkpt lat="48.82186" lon="2.28938">
        <ele>130.8</ele>
        <time>2015-05-05T20:22:25.015Z</time>
      </trkpt>
      <trkpt lat="48.82182" lon="2.28942">
        <ele>130.9</ele>
        <time>2015-05-05T20:22:26.042Z</time>
      </trkpt>
      <trkpt lat="48.82174" lon="2.28949">
        <ele>130.9</ele>
        <time>2015-05-05T20:22:28.062Z</time>
      </trkpt>
      <trkpt lat="48.8217" lon="2.28953">
        <ele>130.8</ele>
        <time>2015-05-05T20:22:29.075Z</time>
      </trkpt>
      <trkpt lat="48.82165" lon="2.28955">
        <ele>131</ele>
        <time>2015-05-05T20:22:30.007Z</time>
      </trkpt>
      <trkpt lat="48.82161" lon="2.28959">
        <ele>130.7</ele>
        <time>2015-05-05T20:22:31.008Z</time>
      </trkpt>
      <trkpt lat="48.82156" lon="2.28961">
        <ele>130.5</ele>
        <time>2015-05-05T20:22:32.008Z</time>
      </trkpt>
      <trkpt lat="48.82152" lon="2.28964">
        <ele>130.5</ele>
        <time>2015-05-05T20:22:33.044Z</time>
      </trkpt>
      <trkpt lat="48.82145" lon="2.28968">
        <ele>130.6</ele>
        <time>2015-05-05T20:22:34.973Z</time>
      </trkpt>
      <trkpt lat="48.82142" lon="2.28971">
        <ele>130.6</ele>
        <time>2015-05-05T20:22:36.004Z</time>
      </trkpt>
      <trkpt lat="48.82135" lon="2.2898">
        <ele>130</ele>
        <time>2015-05-05T20:22:39.011Z</time>
      </trkpt>
      <trkpt lat="48.82133" lon="2.28984">
        <ele>129.7</ele>
        <time>2015-05-05T20:22:40.039Z</time>
      </trkpt>
      <trkpt lat="48.82128" lon="2.28991">
        <ele>129.4</ele>
        <time>2015-05-05T20:22:41.997Z</time>
      </trkpt>
      <trkpt lat="48.82125" lon="2.28994">
        <ele>129.3</ele>
        <time>2015-05-05T20:22:43.061Z</time>
      </trkpt>
      <trkpt lat="48.82117" lon="2.28999">
        <ele>128.8</ele>
        <time>2015-05-05T20:22:44.987Z</time>
      </trkpt>
      <trkpt lat="48.82113" lon="2.29001">
        <ele>128.4</ele>
        <time>2015-05-05T20:22:46.024Z</time>
      </trkpt>
      <trkpt lat="48.82105" lon="2.29005">
        <ele>128.2</ele>
        <time>2015-05-05T20:22:48.590Z</time>
      </trkpt>
      <trkpt lat="48.82102" lon="2.29008">
        <ele>128.1</ele>
        <time>2015-05-05T20:22:49.100Z</time>
      </trkpt>
      <trkpt lat="48.82094" lon="2.29012">
        <ele>127.7</ele>
        <time>2015-05-05T20:22:51.021Z</time>
      </trkpt>
      <trkpt lat="48.82091" lon="2.29013">
        <ele>127.4</ele>
        <time>2015-05-05T20:22:52.059Z</time>
      </trkpt>
      <trkpt lat="48.82084" lon="2.29016">
        <ele>126.8</ele>
        <time>2015-05-05T20:22:54.022Z</time>
      </trkpt>
      <trkpt lat="48.82081" lon="2.29018">
        <ele>126.5</ele>
        <time>2015-05-05T20:22:55.017Z</time>
      </trkpt>
      <trkpt lat="48.82074" lon="2.29025">
        <ele>126.4</ele>
        <time>2015-05-05T20:22:57.033Z</time>
      </trkpt>
      <trkpt lat="48.82071" lon="2.29028">
        <ele>126.3</ele>
        <time>2015-05-05T20:22:58.097Z</time>
      </trkpt>
      <trkpt lat="48.82064" lon="2.29035">
        <ele>126.3</ele>
        <time>2015-05-05T20:23:00.101Z</time>
      </trkpt>
      <trkpt lat="48.82062" lon="2.29038">
        <ele>126.3</ele>
        <time>2015-05-05T20:23:01.008Z</time>
      </trkpt>
      <trkpt lat="48.82058" lon="2.29038">
        <ele>126.6</ele>
        <time>2015-05-05T20:23:02.034Z</time>
      </trkpt>
      <trkpt lat="48.82053" lon="2.29039">
        <ele>126.7</ele>
        <time>2015-05-05T20:23:03.035Z</time>
      </trkpt>
      <trkpt lat="48.82045" lon="2.29043">
        <ele>126</ele>
        <time>2015-05-05T20:23:05.278Z</time>
      </trkpt>
      <trkpt lat="48.82041" lon="2.29044">
        <ele>125.8</ele>
        <time>2015-05-05T20:23:06.057Z</time>
      </trkpt>
      <trkpt lat="48.82035" lon="2.29047">
        <ele>126</ele>
        <time>2015-05-05T20:23:08.733Z</time>
      </trkpt>
      <trkpt lat="48.82032" lon="2.29049">
        <ele>126</ele>
        <time>2015-05-05T20:23:09.009Z</time>
      </trkpt>
      <trkpt lat="48.82027" lon="2.29056">
        <ele>126.6</ele>
        <time>2015-05-05T20:23:12.062Z</time>
      </trkpt>
      <trkpt lat="48.82025" lon="2.29059">
        <ele>126.8</ele>
        <time>2015-05-05T20:23:13.080Z</time>
      </trkpt>
      <trkpt lat="48.82022" lon="2.29068">
        <ele>127.8</ele>
        <time>2015-05-05T20:23:16.133Z</time>
      </trkpt>
      <trkpt lat="48.82021" lon="2.29073">
        <ele>127.9</ele>
        <time>2015-05-05T20:23:17.030Z</time>
      </trkpt>
      <trkpt lat="48.82018" lon="2.29083">
        <ele>128.1</ele>
        <time>2015-05-05T20:23:19.058Z</time>
      </trkpt>
      <trkpt lat="48.82018" lon="2.29087">
        <ele>128.3</ele>
        <time>2015-05-05T20:23:20.111Z</time>
      </trkpt>
      <trkpt lat="48.82018" lon="2.29099">
        <ele>128.7</ele>
        <time>2015-05-05T20:23:22.115Z</time>
      </trkpt>
      <trkpt lat="48.82018" lon="2.29104">
        <ele>128.6</ele>
        <time>2015-05-05T20:23:23.055Z</time>
      </trkpt>
      <trkpt lat="48.82018" lon="2.29115">
        <ele>129.1</ele>
        <time>2015-05-05T20:23:25.049Z</time>
      </trkpt>
      <trkpt lat="48.82018" lon="2.2912">
        <ele>129.3</ele>
        <time>2015-05-05T20:23:26.055Z</time>
      </trkpt>
      <trkpt lat="48.82015" lon="2.2913">
        <ele>129.1</ele>
        <time>2015-05-05T20:23:28.139Z</time>
      </trkpt>
      <trkpt lat="48.82014" lon="2.29135">
        <ele>129.2</ele>
        <time>2015-05-05T20:23:29.026Z</time>
      </trkpt>
      <trkpt lat="48.82011" lon="2.29145">
        <ele>129</ele>
        <time>2015-05-05T20:23:31.260Z</time>
      </trkpt>
      <trkpt lat="48.82009" lon="2.2915">
        <ele>129</ele>
        <time>2015-05-05T20:23:32.013Z</time>
      </trkpt>
      <trkpt lat="48.82006" lon="2.29162">
        <ele>128.8</ele>
        <time>2015-05-05T20:23:34.039Z</time>
      </trkpt>
      <trkpt lat="48.82004" lon="2.29169">
        <ele>128.9</ele>
        <time>2015-05-05T20:23:35.058Z</time>
      </trkpt>
      <trkpt lat="48.82003" lon="2.29177">
        <ele>128.9</ele>
        <time>2015-05-05T20:23:35.977Z</time>
      </trkpt>
      <trkpt lat="48.82001" lon="2.29184">
        <ele>128.8</ele>
        <time>2015-05-05T20:23:37.095Z</time>
      </trkpt>
      <trkpt lat="48.81999" lon="2.29192">
        <ele>128.7</ele>
        <time>2015-05-05T20:23:38.223Z</time>
      </trkpt>
      <trkpt lat="48.81996" lon="2.29201">
        <ele>128.6</ele>
        <time>2015-05-05T20:23:38.998Z</time>
      </trkpt>
      <trkpt lat="48.81994" lon="2.29208">
        <ele>128.5</ele>
        <time>2015-05-05T20:23:40.056Z</time>
      </trkpt>
      <trkpt lat="48.81991" lon="2.29216">
        <ele>128.5</ele>
        <time>2015-05-05T20:23:41.063Z</time>
      </trkpt>
      <trkpt lat="48.81991" lon="2.29226">
        <ele>128.4</ele>
        <time>2015-05-05T20:23:41.969Z</time>
      </trkpt>
      <trkpt lat="48.81989" lon="2.29234">
        <ele>128.4</ele>
        <time>2015-05-05T20:23:43.014Z</time>
      </trkpt>
      <trkpt lat="48.81988" lon="2.29242">
        <ele>128.4</ele>
        <time>2015-05-05T20:23:44.047Z</time>
      </trkpt>
      <trkpt lat="48.81986" lon="2.29248">
        <ele>128.5</ele>
        <time>2015-05-05T20:23:45.059Z</time>
      </trkpt>
      <trkpt lat="48.81984" lon="2.29255">
        <ele>128.7</ele>
        <time>2015-05-05T20:23:46.028Z</time>
      </trkpt>
      <trkpt lat="48.81983" lon="2.29261">
        <ele>128.9</ele>
        <time>2015-05-05T20:23:46.992Z</time>
      </trkpt>
      <trkpt lat="48.81981" lon="2.29268">
        <ele>129</ele>
        <time>2015-05-05T20:23:48.017Z</time>
      </trkpt>
      <trkpt lat="48.8198" lon="2.29275">
        <ele>128.9</ele>
        <time>2015-05-05T20:23:49.015Z</time>
      </trkpt>
      <trkpt lat="48.81978" lon="2.29282">
        <ele>128.9</ele>
        <time>2015-05-05T20:23:50.035Z</time>
      </trkpt>
      <trkpt lat="48.81976" lon="2.29289">
        <ele>129.1</ele>
        <time>2015-05-05T20:23:50.995Z</time>
      </trkpt>
      <trkpt lat="48.81974" lon="2.29297">
        <ele>129.1</ele>
        <time>2015-05-05T20:23:52.119Z</time>
      </trkpt>
      <trkpt lat="48.81972" lon="2.29304">
        <ele>129.1</ele>
        <time>2015-05-05T20:23:53.021Z</time>
      </trkpt>
      <trkpt lat="48.8197" lon="2.29312">
        <ele>130.2</ele>
        <time>2015-05-05T20:23:54.042Z</time>
      </trkpt>
      <trkpt lat="48.81968" lon="2.29319">
        <ele>130.5</ele>
        <time>2015-05-05T20:23:55.054Z</time>
      </trkpt>
      <trkpt lat="48.81966" lon="2.29325">
        <ele>130.3</ele>
        <time>2015-05-05T20:23:56.071Z</time>
      </trkpt>
      <trkpt lat="48.81964" lon="2.29333">
        <ele>130.4</ele>
        <time>2015-05-05T20:23:56.989Z</time>
      </trkpt>
      <trkpt lat="48.81961" lon="2.29339">
        <ele>130.2</ele>
        <time>2015-05-05T20:23:58.099Z</time>
      </trkpt>
      <trkpt lat="48.81958" lon="2.29345">
        <ele>130.1</ele>
        <time>2015-05-05T20:23:58.990Z</time>
      </trkpt>
      <trkpt lat="48.81954" lon="2.29358">
        <ele>130.1</ele>
        <time>2015-05-05T20:24:01.027Z</time>
      </trkpt>
      <trkpt lat="48.81954" lon="2.29362">
        <ele>130.1</ele>
        <time>2015-05-05T20:24:02.085Z</time>
      </trkpt>
      <trkpt lat="48.81952" lon="2.29369">
        <ele>130.3</ele>
        <time>2015-05-05T20:24:04.045Z</time>
      </trkpt>
      <trkpt lat="48.81949" lon="2.29378">
        <ele>130.2</ele>
        <time>2015-05-05T20:24:06.044Z</time>
      </trkpt>
      <trkpt lat="48.81948" lon="2.29387">
        <ele>130.3</ele>
        <time>2015-05-05T20:24:06.968Z</time>
      </trkpt>
      <trkpt lat="48.81948" lon="2.29396">
        <ele>130</ele>
        <time>2015-05-05T20:24:07.971Z</time>
      </trkpt>
      <trkpt lat="48.81946" lon="2.29405">
        <ele>129.8</ele>
        <time>2015-05-05T20:24:08.989Z</time>
      </trkpt>
      <trkpt lat="48.81945" lon="2.29411">
        <ele>129.9</ele>
        <time>2015-05-05T20:24:10.029Z</time>
      </trkpt>
      <trkpt lat="48.81943" lon="2.29418">
        <ele>129.9</ele>
        <time>2015-05-05T20:24:11.049Z</time>
      </trkpt>
      <trkpt lat="48.81942" lon="2.29425">
        <ele>129.8</ele>
        <time>2015-05-05T20:24:12.051Z</time>
      </trkpt>
      <trkpt lat="48.81941" lon="2.29437">
        <ele>129.6</ele>
        <time>2015-05-05T20:24:14.266Z</time>
      </trkpt>
      <trkpt lat="48.81939" lon="2.29446">
        <ele>129.5</ele>
        <time>2015-05-05T20:24:15.001Z</time>
      </trkpt>
      <trkpt lat="48.81937" lon="2.29455">
        <ele>128.8</ele>
        <time>2015-05-05T20:24:16.013Z</time>
      </trkpt>
      <trkpt lat="48.81934" lon="2.29463">
        <ele>127.5</ele>
        <time>2015-05-05T20:24:17.047Z</time>
      </trkpt>
      <trkpt lat="48.81932" lon="2.29471">
        <ele>126.8</ele>
        <time>2015-05-05T20:24:17.983Z</time>
      </trkpt>
      <trkpt lat="48.81931" lon="2.29477">
        <ele>126.3</ele>
        <time>2015-05-05T20:24:18.991Z</time>
      </trkpt>
      <trkpt lat="48.81931" lon="2.2949">
        <ele>126.7</ele>
        <time>2015-05-05T20:24:22.035Z</time>
      </trkpt>
      <trkpt lat="48.81932" lon="2.29495">
        <ele>126.7</ele>
        <time>2015-05-05T20:24:23.076Z</time>
      </trkpt>
      <trkpt lat="48.81934" lon="2.29505">
        <ele>126.8</ele>
        <time>2015-05-05T20:24:24.997Z</time>
      </trkpt>
      <trkpt lat="48.81935" lon="2.29517">
        <ele>127</ele>
        <time>2015-05-05T20:24:27.005Z</time>
      </trkpt>
      <trkpt lat="48.81937" lon="2.29528">
        <ele>127.1</ele>
        <time>2015-05-05T20:24:28.998Z</time>
      </trkpt>
      <trkpt lat="48.81938" lon="2.29532">
        <ele>127.2</ele>
        <time>2015-05-05T20:24:31.071Z</time>
      </trkpt>
      <trkpt lat="48.81937" lon="2.29545">
        <ele>127.6</ele>
        <time>2015-05-05T20:24:35.057Z</time>
      </trkpt>
      <trkpt lat="48.81937" lon="2.2955">
        <ele>127.6</ele>
        <time>2015-05-05T20:24:36.065Z</time>
      </trkpt>
      <trkpt lat="48.81933" lon="2.29558">
        <ele>128.5</ele>
        <time>2015-05-05T20:24:38.058Z</time>
      </trkpt>
      <trkpt lat="48.81931" lon="2.29562">
        <ele>129</ele>
        <time>2015-05-05T20:24:39.073Z</time>
      </trkpt>
      <trkpt lat="48.81927" lon="2.29572">
        <ele>129.2</ele>
        <time>2015-05-05T20:24:41.740Z</time>
      </trkpt>
      <trkpt lat="48.81926" lon="2.29576">
        <ele>129.3</ele>
        <time>2015-05-05T20:24:41.992Z</time>
      </trkpt>
      <trkpt lat="48.81922" lon="2.29586">
        <ele>131.3</ele>
        <time>2015-05-05T20:24:45.045Z</time>
      </trkpt>
      <trkpt lat="48.81921" lon="2.29589">
        <ele>131.5</ele>
        <time>2015-05-05T20:24:46.055Z</time>
      </trkpt>
      <trkpt lat="48.8192" lon="2.29599">
        <ele>130.8</ele>
        <time>2015-05-05T20:24:48.003Z</time>
      </trkpt>
      <trkpt lat="48.8192" lon="2.29604">
        <ele>130.6</ele>
        <time>2015-05-05T20:24:49.017Z</time>
      </trkpt>
      <trkpt lat="48.8192" lon="2.29616">
        <ele>130.2</ele>
        <time>2015-05-05T20:24:51.902Z</time>
      </trkpt>
      <trkpt lat="48.81921" lon="2.29622">
        <ele>130.7</ele>
        <time>2015-05-05T20:24:52.073Z</time>
      </trkpt>
      <trkpt lat="48.81923" lon="2.29633">
        <ele>131.6</ele>
        <time>2015-05-05T20:24:54.025Z</time>
      </trkpt>
      <trkpt lat="48.81924" lon="2.29639">
        <ele>131.3</ele>
        <time>2015-05-05T20:24:55.023Z</time>
      </trkpt>
      <trkpt lat="48.81924" lon="2.29651">
        <ele>131</ele>
        <time>2015-05-05T20:24:57.057Z</time>
      </trkpt>
      <trkpt lat="48.81923" lon="2.29658">
        <ele>131.1</ele>
        <time>2015-05-05T20:24:58.075Z</time>
      </trkpt>
      <trkpt lat="48.81923" lon="2.29665">
        <ele>131.5</ele>
        <time>2015-05-05T20:24:59.016Z</time>
      </trkpt>
      <trkpt lat="48.81922" lon="2.29672">
        <ele>131.6</ele>
        <time>2015-05-05T20:25:00.068Z</time>
      </trkpt>
      <trkpt lat="48.81922" lon="2.29686">
        <ele>131.4</ele>
        <time>2015-05-05T20:25:02.072Z</time>
      </trkpt>
      <trkpt lat="48.81922" lon="2.29693">
        <ele>131.4</ele>
        <time>2015-05-05T20:25:03.010Z</time>
      </trkpt>
      <trkpt lat="48.81921" lon="2.297">
        <ele>131.3</ele>
        <time>2015-05-05T20:25:04.055Z</time>
      </trkpt>
      <trkpt lat="48.81921" lon="2.29707">
        <ele>131.3</ele>
        <time>2015-05-05T20:25:05.037Z</time>
      </trkpt>
      <trkpt lat="48.81921" lon="2.29714">
        <ele>131.3</ele>
        <time>2015-05-05T20:25:06.068Z</time>
      </trkpt>
      <trkpt lat="48.8192" lon="2.29722">
        <ele>131.2</ele>
        <time>2015-05-05T20:25:07.062Z</time>
      </trkpt>
      <trkpt lat="48.81921" lon="2.2973">
        <ele>131.3</ele>
        <time>2015-05-05T20:25:08.082Z</time>
      </trkpt>
      <trkpt lat="48.81921" lon="2.29738">
        <ele>131.3</ele>
        <time>2015-05-05T20:25:09.042Z</time>
      </trkpt>
      <trkpt lat="48.81921" lon="2.29746">
        <ele>131.4</ele>
        <time>2015-05-05T20:25:10.044Z</time>
      </trkpt>
      <trkpt lat="48.81922" lon="2.29755">
        <ele>131.7</ele>
        <time>2015-05-05T20:25:10.979Z</time>
      </trkpt>
      <trkpt lat="48.81922" lon="2.29763">
        <ele>131.7</ele>
        <time>2015-05-05T20:25:12.002Z</time>
      </trkpt>
      <trkpt lat="48.81922" lon="2.29771">
        <ele>131.8</ele>
        <time>2015-05-05T20:25:13.004Z</time>
      </trkpt>
      <trkpt lat="48.81923" lon="2.29778">
        <ele>131.8</ele>
        <time>2015-05-05T20:25:14.010Z</time>
      </trkpt>
      <trkpt lat="48.81924" lon="2.29785">
        <ele>131.7</ele>
        <time>2015-05-05T20:25:15.023Z</time>
      </trkpt>
      <trkpt lat="48.81925" lon="2.29796">
        <ele>131.9</ele>
        <time>2015-05-05T20:25:17.040Z</time>
      </trkpt>
      <trkpt lat="48.81926" lon="2.29801">
        <ele>132.4</ele>
        <time>2015-05-05T20:25:18.071Z</time>
      </trkpt>
      <trkpt lat="48.81928" lon="2.29811">
        <ele>132.8</ele>
        <time>2015-05-05T20:25:20.005Z</time>
      </trkpt>
      <trkpt lat="48.81929" lon="2.29818">
        <ele>132.7</ele>
        <time>2015-05-05T20:25:21.036Z</time>
      </trkpt>
      <trkpt lat="48.81929" lon="2.29832">
        <ele>132.8</ele>
        <time>2015-05-05T20:25:23.010Z</time>
      </trkpt>
      <trkpt lat="48.81929" lon="2.29839">
        <ele>132.6</ele>
        <time>2015-05-05T20:25:24.039Z</time>
      </trkpt>
      <trkpt lat="48.81927" lon="2.29846">
        <ele>132.6</ele>
        <time>2015-05-05T20:25:25.056Z</time>
      </trkpt>
      <trkpt lat="48.81925" lon="2.29853">
        <ele>132.6</ele>
        <time>2015-05-05T20:25:26.065Z</time>
      </trkpt>
      <trkpt lat="48.81924" lon="2.2986">
        <ele>132.3</ele>
        <time>2015-05-05T20:25:27.005Z</time>
      </trkpt>
      <trkpt lat="48.81923" lon="2.29867">
        <ele>132</ele>
        <time>2015-05-05T20:25:28.122Z</time>
      </trkpt>
      <trkpt lat="48.81921" lon="2.29874">
        <ele>131.8</ele>
        <time>2015-05-05T20:25:29.004Z</time>
      </trkpt>
      <trkpt lat="48.81921" lon="2.29881">
        <ele>131.4</ele>
        <time>2015-05-05T20:25:30.004Z</time>
      </trkpt>
      <trkpt lat="48.81921" lon="2.29894">
        <ele>131.3</ele>
        <time>2015-05-05T20:25:32.042Z</time>
      </trkpt>
      <trkpt lat="48.81922" lon="2.299">
        <ele>131.2</ele>
        <time>2015-05-05T20:25:32.979Z</time>
      </trkpt>
      <trkpt lat="48.8192" lon="2.29913">
        <ele>131.4</ele>
        <time>2015-05-05T20:25:35.053Z</time>
      </trkpt>
      <trkpt lat="48.8192" lon="2.29919">
        <ele>131.4</ele>
        <time>2015-05-05T20:25:36.065Z</time>
      </trkpt>
      <trkpt lat="48.81919" lon="2.29931">
        <ele>131.9</ele>
        <time>2015-05-05T20:25:38.240Z</time>
      </trkpt>
      <trkpt lat="48.81919" lon="2.29937">
        <ele>132</ele>
        <time>2015-05-05T20:25:39.009Z</time>
      </trkpt>
      <trkpt lat="48.81918" lon="2.29945">
        <ele>131.7</ele>
        <time>2015-05-05T20:25:40.036Z</time>
      </trkpt>
      <trkpt lat="48.81918" lon="2.29952">
        <ele>131.4</ele>
        <time>2015-05-05T20:25:41.041Z</time>
      </trkpt>
      <trkpt lat="48.81919" lon="2.29959">
        <ele>130.9</ele>
        <time>2015-05-05T20:25:42.058Z</time>
      </trkpt>
      <trkpt lat="48.81919" lon="2.29969">
        <ele>131.5</ele>
        <time>2015-05-05T20:25:42.985Z</time>
      </trkpt>
      <trkpt lat="48.8192" lon="2.29976">
        <ele>131.8</ele>
        <time>2015-05-05T20:25:44.008Z</time>
      </trkpt>
      <trkpt lat="48.8192" lon="2.29983">
        <ele>131.3</ele>
        <time>2015-05-05T20:25:45.029Z</time>
      </trkpt>
      <trkpt lat="48.8192" lon="2.29991">
        <ele>131.1</ele>
        <time>2015-05-05T20:25:46.058Z</time>
      </trkpt>
      <trkpt lat="48.81921" lon="2.29998">
        <ele>131.1</ele>
        <time>2015-05-05T20:25:47.062Z</time>
      </trkpt>
      <trkpt lat="48.81924" lon="2.30011">
        <ele>131.5</ele>
        <time>2015-05-05T20:25:48.980Z</time>
      </trkpt>
      <trkpt lat="48.81927" lon="2.30016">
        <ele>132.3</ele>
        <time>2015-05-05T20:25:50.029Z</time>
      </trkpt>
      <trkpt lat="48.81926" lon="2.30029">
        <ele>131.3</ele>
        <time>2015-05-05T20:25:52.069Z</time>
      </trkpt>
      <trkpt lat="48.81925" lon="2.30036">
        <ele>131.3</ele>
        <time>2015-05-05T20:25:52.984Z</time>
      </trkpt>
      <trkpt lat="48.81925" lon="2.30043">
        <ele>131.2</ele>
        <time>2015-05-05T20:25:54.013Z</time>
      </trkpt>
      <trkpt lat="48.81923" lon="2.3005">
        <ele>130.7</ele>
        <time>2015-05-05T20:25:55.028Z</time>
      </trkpt>
      <trkpt lat="48.81923" lon="2.30058">
        <ele>130.5</ele>
        <time>2015-05-05T20:25:56.005Z</time>
      </trkpt>
      <trkpt lat="48.81924" lon="2.30065">
        <ele>130.2</ele>
        <time>2015-05-05T20:25:57.021Z</time>
      </trkpt>
      <trkpt lat="48.81924" lon="2.30072">
        <ele>130</ele>
        <time>2015-05-05T20:25:58.116Z</time>
      </trkpt>
      <trkpt lat="48.81925" lon="2.30078">
        <ele>129.8</ele>
        <time>2015-05-05T20:25:59.015Z</time>
      </trkpt>
      <trkpt lat="48.81924" lon="2.30089">
        <ele>129.8</ele>
        <time>2015-05-05T20:26:01.007Z</time>
      </trkpt>
      <trkpt lat="48.81924" lon="2.30095">
        <ele>129.7</ele>
        <time>2015-05-05T20:26:02.012Z</time>
      </trkpt>
      <trkpt lat="48.81923" lon="2.30107">
        <ele>129.3</ele>
        <time>2015-05-05T20:26:04.054Z</time>
      </trkpt>
      <trkpt lat="48.81924" lon="2.30113">
        <ele>129.2</ele>
        <time>2015-05-05T20:26:05.064Z</time>
      </trkpt>
      <trkpt lat="48.81924" lon="2.3012">
        <ele>129</ele>
        <time>2015-05-05T20:26:05.976Z</time>
      </trkpt>
      <trkpt lat="48.81925" lon="2.30127">
        <ele>129.1</ele>
        <time>2015-05-05T20:26:06.990Z</time>
      </trkpt>
      <trkpt lat="48.81925" lon="2.30134">
        <ele>129.3</ele>
        <time>2015-05-05T20:26:08Z</time>
      </trkpt>
      <trkpt lat="48.81925" lon="2.30142">
        <ele>129</ele>
        <time>2015-05-05T20:26:09.008Z</time>
      </trkpt>
      <trkpt lat="48.81925" lon="2.30151">
        <ele>128.6</ele>
        <time>2015-05-05T20:26:10.873Z</time>
      </trkpt>
      <trkpt lat="48.81925" lon="2.30161">
        <ele>128.4</ele>
        <time>2015-05-05T20:26:11.034Z</time>
      </trkpt>
      <trkpt lat="48.81925" lon="2.3017">
        <ele>128.2</ele>
        <time>2015-05-05T20:26:12.054Z</time>
      </trkpt>
      <trkpt lat="48.81925" lon="2.30179">
        <ele>128</ele>
        <time>2015-05-05T20:26:13.069Z</time>
      </trkpt>
      <trkpt lat="48.81925" lon="2.30189">
        <ele>128</ele>
        <time>2015-05-05T20:26:13.981Z</time>
      </trkpt>
      <trkpt lat="48.81925" lon="2.30198">
        <ele>128.4</ele>
        <time>2015-05-05T20:26:14.991Z</time>
      </trkpt>
      <trkpt lat="48.81926" lon="2.30208">
        <ele>129.1</ele>
        <time>2015-05-05T20:26:15.939Z</time>
      </trkpt>
      <trkpt lat="48.81926" lon="2.30217">
        <ele>129.6</ele>
        <time>2015-05-05T20:26:17.013Z</time>
      </trkpt>
      <trkpt lat="48.81926" lon="2.30227">
        <ele>130</ele>
        <time>2015-05-05T20:26:18.025Z</time>
      </trkpt>
      <trkpt lat="48.81925" lon="2.30238">
        <ele>130.3</ele>
        <time>2015-05-05T20:26:19.043Z</time>
      </trkpt>
      <trkpt lat="48.81924" lon="2.30248">
        <ele>130.9</ele>
        <time>2015-05-05T20:26:20.065Z</time>
      </trkpt>
      <trkpt lat="48.81924" lon="2.30258">
        <ele>131.7</ele>
        <time>2015-05-05T20:26:20.978Z</time>
      </trkpt>
      <trkpt lat="48.81924" lon="2.30269">
        <ele>132.9</ele>
        <time>2015-05-05T20:26:22.027Z</time>
      </trkpt>
      <trkpt lat="48.81923" lon="2.30279">
        <ele>133.8</ele>
        <time>2015-05-05T20:26:23.040Z</time>
      </trkpt>
      <trkpt lat="48.81923" lon="2.30287">
        <ele>133.7</ele>
        <time>2015-05-05T20:26:24.046Z</time>
      </trkpt>
      <trkpt lat="48.81923" lon="2.30294">
        <ele>133.9</ele>
        <time>2015-05-05T20:26:25.052Z</time>
      </trkpt>
      <trkpt lat="48.81923" lon="2.30303">
        <ele>134.1</ele>
        <time>2015-05-05T20:26:26.055Z</time>
      </trkpt>
      <trkpt lat="48.81923" lon="2.3031">
        <ele>134.2</ele>
        <time>2015-05-05T20:26:27.080Z</time>
      </trkpt>
      <trkpt lat="48.81922" lon="2.30318">
        <ele>134.2</ele>
        <time>2015-05-05T20:26:28.144Z</time>
      </trkpt>
      <trkpt lat="48.81921" lon="2.30326">
        <ele>134.4</ele>
        <time>2015-05-05T20:26:29.037Z</time>
      </trkpt>
      <trkpt lat="48.81922" lon="2.30335">
        <ele>135.1</ele>
        <time>2015-05-05T20:26:30.053Z</time>
      </trkpt>
      <trkpt lat="48.81925" lon="2.30343">
        <ele>135.2</ele>
        <time>2015-05-05T20:26:31.026Z</time>
      </trkpt>
      <trkpt lat="48.81928" lon="2.30352">
        <ele>135.3</ele>
        <time>2015-05-05T20:26:31.992Z</time>
      </trkpt>
      <trkpt lat="48.81931" lon="2.30361">
        <ele>135.5</ele>
        <time>2015-05-05T20:26:33.004Z</time>
      </trkpt>
      <trkpt lat="48.81934" lon="2.3037">
        <ele>136.1</ele>
        <time>2015-05-05T20:26:34.052Z</time>
      </trkpt>
      <trkpt lat="48.81936" lon="2.30379">
        <ele>136.7</ele>
        <time>2015-05-05T20:26:35.049Z</time>
      </trkpt>
      <trkpt lat="48.81938" lon="2.3039">
        <ele>138.2</ele>
        <time>2015-05-05T20:26:36.065Z</time>
      </trkpt>
      <trkpt lat="48.81938" lon="2.304">
        <ele>138.9</ele>
        <time>2015-05-05T20:26:36.986Z</time>
      </trkpt>
      <trkpt lat="48.81938" lon="2.3041">
        <ele>139.4</ele>
        <time>2015-05-05T20:26:37.985Z</time>
      </trkpt>
      <trkpt lat="48.81938" lon="2.30418">
        <ele>139.2</ele>
        <time>2015-05-05T20:26:39.008Z</time>
      </trkpt>
      <trkpt lat="48.81937" lon="2.30427">
        <ele>138.9</ele>
        <time>2015-05-05T20:26:40.048Z</time>
      </trkpt>
      <trkpt lat="48.81937" lon="2.30439">
        <ele>139.6</ele>
        <time>2015-05-05T20:26:41.059Z</time>
      </trkpt>
      <trkpt lat="48.81937" lon="2.30449">
        <ele>139.9</ele>
        <time>2015-05-05T20:26:42.069Z</time>
      </trkpt>
      <trkpt lat="48.81937" lon="2.30459">
        <ele>140</ele>
        <time>2015-05-05T20:26:42.986Z</time>
      </trkpt>
      <trkpt lat="48.81938" lon="2.30469">
        <ele>140.2</ele>
        <time>2015-05-05T20:26:43.985Z</time>
      </trkpt>
      <trkpt lat="48.81939" lon="2.30484">
        <ele>141.2</ele>
        <time>2015-05-05T20:26:45.011Z</time>
      </trkpt>
      <trkpt lat="48.8194" lon="2.30498">
        <ele>143.1</ele>
        <time>2015-05-05T20:26:46.025Z</time>
      </trkpt>
      <trkpt lat="48.81942" lon="2.30509">
        <ele>143.6</ele>
        <time>2015-05-05T20:26:47.031Z</time>
      </trkpt>
      <trkpt lat="48.81944" lon="2.30518">
        <ele>143.9</ele>
        <time>2015-05-05T20:26:48.048Z</time>
      </trkpt>
      <trkpt lat="48.81945" lon="2.30528">
        <ele>143.9</ele>
        <time>2015-05-05T20:26:48.991Z</time>
      </trkpt>
      <trkpt lat="48.81946" lon="2.30538">
        <ele>144.3</ele>
        <time>2015-05-05T20:26:49.992Z</time>
      </trkpt>
      <trkpt lat="48.81948" lon="2.30548">
        <ele>145</ele>
        <time>2015-05-05T20:26:51Z</time>
      </trkpt>
      <trkpt lat="48.81948" lon="2.30558">
        <ele>145.1</ele>
        <time>2015-05-05T20:26:52.028Z</time>
      </trkpt>
      <trkpt lat="48.8195" lon="2.30567">
        <ele>144.8</ele>
        <time>2015-05-05T20:26:53.066Z</time>
      </trkpt>
      <trkpt lat="48.81951" lon="2.30576">
        <ele>144.7</ele>
        <time>2015-05-05T20:26:53.988Z</time>
      </trkpt>
      <trkpt lat="48.8195" lon="2.30585">
        <ele>144.6</ele>
        <time>2015-05-05T20:26:55.001Z</time>
      </trkpt>
      <trkpt lat="48.81951" lon="2.30594">
        <ele>144.7</ele>
        <time>2015-05-05T20:26:56.011Z</time>
      </trkpt>
      <trkpt lat="48.81952" lon="2.30602">
        <ele>144.9</ele>
        <time>2015-05-05T20:26:57.023Z</time>
      </trkpt>
      <trkpt lat="48.81953" lon="2.3061">
        <ele>144.9</ele>
        <time>2015-05-05T20:26:58.029Z</time>
      </trkpt>
      <trkpt lat="48.81954" lon="2.30618">
        <ele>145.1</ele>
        <time>2015-05-05T20:26:59.048Z</time>
      </trkpt>
      <trkpt lat="48.81955" lon="2.30626">
        <ele>145.2</ele>
        <time>2015-05-05T20:27:00.033Z</time>
      </trkpt>
      <trkpt lat="48.81957" lon="2.30634">
        <ele>145.2</ele>
        <time>2015-05-05T20:27:00.997Z</time>
      </trkpt>
      <trkpt lat="48.81959" lon="2.30642">
        <ele>145.3</ele>
        <time>2015-05-05T20:27:02.024Z</time>
      </trkpt>
      <trkpt lat="48.81962" lon="2.3065">
        <ele>145.5</ele>
        <time>2015-05-05T20:27:03.039Z</time>
      </trkpt>
      <trkpt lat="48.81964" lon="2.30657">
        <ele>146</ele>
        <time>2015-05-05T20:27:04.043Z</time>
      </trkpt>
      <trkpt lat="48.81965" lon="2.30665">
        <ele>146</ele>
        <time>2015-05-05T20:27:05.091Z</time>
      </trkpt>
      <trkpt lat="48.81966" lon="2.30672">
        <ele>145.8</ele>
        <time>2015-05-05T20:27:06Z</time>
      </trkpt>
      <trkpt lat="48.81968" lon="2.30684">
        <ele>145.4</ele>
        <time>2015-05-05T20:27:08.015Z</time>
      </trkpt>
      <trkpt lat="48.8197" lon="2.3069">
        <ele>144.8</ele>
        <time>2015-05-05T20:27:09.030Z</time>
      </trkpt>
      <trkpt lat="48.81972" lon="2.30696">
        <ele>144.4</ele>
        <time>2015-05-05T20:27:10.102Z</time>
      </trkpt>
      <trkpt lat="48.81972" lon="2.30704">
        <ele>144</ele>
        <time>2015-05-05T20:27:10.977Z</time>
      </trkpt>
      <trkpt lat="48.81973" lon="2.30712">
        <ele>143.5</ele>
        <time>2015-05-05T20:27:11.992Z</time>
      </trkpt>
      <trkpt lat="48.81973" lon="2.3072">
        <ele>143</ele>
        <time>2015-05-05T20:27:13.002Z</time>
      </trkpt>
      <trkpt lat="48.81975" lon="2.30727">
        <ele>142.6</ele>
        <time>2015-05-05T20:27:14.016Z</time>
      </trkpt>
      <trkpt lat="48.81977" lon="2.30734">
        <ele>142.4</ele>
        <time>2015-05-05T20:27:15.027Z</time>
      </trkpt>
      <trkpt lat="48.81979" lon="2.30741">
        <ele>142.2</ele>
        <time>2015-05-05T20:27:16.035Z</time>
      </trkpt>
      <trkpt lat="48.8198" lon="2.30748">
        <ele>142</ele>
        <time>2015-05-05T20:27:17.048Z</time>
      </trkpt>
      <trkpt lat="48.81982" lon="2.30755">
        <ele>142</ele>
        <time>2015-05-05T20:27:18.062Z</time>
      </trkpt>
      <trkpt lat="48.81984" lon="2.30762">
        <ele>141.9</ele>
        <time>2015-05-05T20:27:18.981Z</time>
      </trkpt>
      <trkpt lat="48.81985" lon="2.3077">
        <ele>141.5</ele>
        <time>2015-05-05T20:27:19.998Z</time>
      </trkpt>
      <trkpt lat="48.81987" lon="2.30777">
        <ele>141.4</ele>
        <time>2015-05-05T20:27:20.993Z</time>
      </trkpt>
      <trkpt lat="48.8199" lon="2.3079">
        <ele>141.3</ele>
        <time>2015-05-05T20:27:23.023Z</time>
      </trkpt>
      <trkpt lat="48.81991" lon="2.30795">
        <ele>141.5</ele>
        <time>2015-05-05T20:27:24.036Z</time>
      </trkpt>
      <trkpt lat="48.81994" lon="2.30805">
        <ele>141.4</ele>
        <time>2015-05-05T20:27:26.068Z</time>
      </trkpt>
      <trkpt lat="48.81995" lon="2.30813">
        <ele>141.4</ele>
        <time>2015-05-05T20:27:27.007Z</time>
      </trkpt>
      <trkpt lat="48.81996" lon="2.30819">
        <ele>141.2</ele>
        <time>2015-05-05T20:27:28.014Z</time>
      </trkpt>
      <trkpt lat="48.81998" lon="2.30827">
        <ele>141.3</ele>
        <time>2015-05-05T20:27:29.022Z</time>
      </trkpt>
      <trkpt lat="48.82" lon="2.30834">
        <ele>141.7</ele>
        <time>2015-05-05T20:27:30.030Z</time>
      </trkpt>
      <trkpt lat="48.82002" lon="2.30841">
        <ele>141.8</ele>
        <time>2015-05-05T20:27:31.047Z</time>
      </trkpt>
      <trkpt lat="48.82004" lon="2.30849">
        <ele>142.1</ele>
        <time>2015-05-05T20:27:32.059Z</time>
      </trkpt>
      <trkpt lat="48.82005" lon="2.30856">
        <ele>142.1</ele>
        <time>2015-05-05T20:27:33.070Z</time>
      </trkpt>
      <trkpt lat="48.82006" lon="2.30864">
        <ele>142.2</ele>
        <time>2015-05-05T20:27:34.077Z</time>
      </trkpt>
      <trkpt lat="48.82006" lon="2.30871">
        <ele>142.4</ele>
        <time>2015-05-05T20:27:34.963Z</time>
      </trkpt>
      <trkpt lat="48.82004" lon="2.30877">
        <ele>142.5</ele>
        <time>2015-05-05T20:27:35.987Z</time>
      </trkpt>
      <trkpt lat="48.82002" lon="2.30885">
        <ele>142.8</ele>
        <time>2015-05-05T20:27:36.995Z</time>
      </trkpt>
      <trkpt lat="48.82" lon="2.30891">
        <ele>143.2</ele>
        <time>2015-05-05T20:27:37.999Z</time>
      </trkpt>
      <trkpt lat="48.81999" lon="2.30899">
        <ele>143.3</ele>
        <time>2015-05-05T20:27:39.006Z</time>
      </trkpt>
      <trkpt lat="48.81998" lon="2.30907">
        <ele>143.1</ele>
        <time>2015-05-05T20:27:40.031Z</time>
      </trkpt>
      <trkpt lat="48.81999" lon="2.30914">
        <ele>142.9</ele>
        <time>2015-05-05T20:27:41.032Z</time>
      </trkpt>
      <trkpt lat="48.81999" lon="2.30921">
        <ele>142.7</ele>
        <time>2015-05-05T20:27:42.214Z</time>
      </trkpt>
      <trkpt lat="48.81998" lon="2.30927">
        <ele>142.4</ele>
        <time>2015-05-05T20:27:43.058Z</time>
      </trkpt>
      <trkpt lat="48.81997" lon="2.30934">
        <ele>142.1</ele>
        <time>2015-05-05T20:27:44.086Z</time>
      </trkpt>
      <trkpt lat="48.81995" lon="2.3094">
        <ele>141.9</ele>
        <time>2015-05-05T20:27:44.984Z</time>
      </trkpt>
      <trkpt lat="48.81994" lon="2.30954">
        <ele>141.9</ele>
        <time>2015-05-05T20:27:46.991Z</time>
      </trkpt>
      <trkpt lat="48.81994" lon="2.30961">
        <ele>141.6</ele>
        <time>2015-05-05T20:27:48.027Z</time>
      </trkpt>
      <trkpt lat="48.81994" lon="2.30968">
        <ele>141.3</ele>
        <time>2015-05-05T20:27:49.042Z</time>
      </trkpt>
      <trkpt lat="48.81993" lon="2.30975">
        <ele>141.1</ele>
        <time>2015-05-05T20:27:50.065Z</time>
      </trkpt>
      <trkpt lat="48.81992" lon="2.30987">
        <ele>140.6</ele>
        <time>2015-05-05T20:27:52.022Z</time>
      </trkpt>
      <trkpt lat="48.81992" lon="2.30992">
        <ele>140.4</ele>
        <time>2015-05-05T20:27:53.072Z</time>
      </trkpt>
      <trkpt lat="48.81991" lon="2.31004">
        <ele>140.2</ele>
        <time>2015-05-05T20:27:55.004Z</time>
      </trkpt>
      <trkpt lat="48.81991" lon="2.31012">
        <ele>140.3</ele>
        <time>2015-05-05T20:27:56.027Z</time>
      </trkpt>
      <trkpt lat="48.81991" lon="2.31022">
        <ele>139.6</ele>
        <time>2015-05-05T20:27:58.052Z</time>
      </trkpt>
      <trkpt lat="48.81991" lon="2.31029">
        <ele>138.7</ele>
        <time>2015-05-05T20:27:59.081Z</time>
      </trkpt>
      <trkpt lat="48.81989" lon="2.3104">
        <ele>137.7</ele>
        <time>2015-05-05T20:28:01.011Z</time>
      </trkpt>
      <trkpt lat="48.81989" lon="2.31043">
        <ele>136.8</ele>
        <time>2015-05-05T20:28:02.018Z</time>
      </trkpt>
      <trkpt lat="48.81987" lon="2.31054">
        <ele>135.7</ele>
        <time>2015-05-05T20:28:04.080Z</time>
      </trkpt>
      <trkpt lat="48.81986" lon="2.31062">
        <ele>136.4</ele>
        <time>2015-05-05T20:28:05.012Z</time>
      </trkpt>
      <trkpt lat="48.81987" lon="2.3107">
        <ele>137.1</ele>
        <time>2015-05-05T20:28:06.034Z</time>
      </trkpt>
      <trkpt lat="48.81987" lon="2.31079">
        <ele>138.3</ele>
        <time>2015-05-05T20:28:07.043Z</time>
      </trkpt>
      <trkpt lat="48.81989" lon="2.31086">
        <ele>138.7</ele>
        <time>2015-05-05T20:28:08.059Z</time>
      </trkpt>
      <trkpt lat="48.81991" lon="2.31092">
        <ele>139.1</ele>
        <time>2015-05-05T20:28:08.986Z</time>
      </trkpt>
      <trkpt lat="48.81994" lon="2.31097">
        <ele>139.3</ele>
        <time>2015-05-05T20:28:10.052Z</time>
      </trkpt>
      <trkpt lat="48.81998" lon="2.31102">
        <ele>139.8</ele>
        <time>2015-05-05T20:28:10.990Z</time>
      </trkpt>
      <trkpt lat="48.82003" lon="2.3111">
        <ele>140.7</ele>
        <time>2015-05-05T20:28:13.007Z</time>
      </trkpt>
      <trkpt lat="48.82005" lon="2.31113">
        <ele>141</ele>
        <time>2015-05-05T20:28:14.006Z</time>
      </trkpt>
      <trkpt lat="48.82009" lon="2.3112">
        <ele>141.7</ele>
        <time>2015-05-05T20:28:16.041Z</time>
      </trkpt>
      <trkpt lat="48.82013" lon="2.31123">
        <ele>141.7</ele>
        <time>2015-05-05T20:28:16.972Z</time>
      </trkpt>
      <trkpt lat="48.82017" lon="2.31128">
        <ele>141.7</ele>
        <time>2015-05-05T20:28:18.019Z</time>
      </trkpt>
      <trkpt lat="48.82021" lon="2.31133">
        <ele>141.7</ele>
        <time>2015-05-05T20:28:19.033Z</time>
      </trkpt>
      <trkpt lat="48.82026" lon="2.31137">
        <ele>142.5</ele>
        <time>2015-05-05T20:28:20.045Z</time>
      </trkpt>
      <trkpt lat="48.82032" lon="2.31145">
        <ele>142.5</ele>
        <time>2015-05-05T20:28:21.054Z</time>
      </trkpt>
      <trkpt lat="48.82037" lon="2.3115">
        <ele>142.1</ele>
        <time>2015-05-05T20:28:22.085Z</time>
      </trkpt>
      <trkpt lat="48.82043" lon="2.31153">
        <ele>141.9</ele>
        <time>2015-05-05T20:28:22.989Z</time>
      </trkpt>
      <trkpt lat="48.82048" lon="2.31156">
        <ele>142.2</ele>
        <time>2015-05-05T20:28:24.015Z</time>
      </trkpt>
      <trkpt lat="48.82053" lon="2.3116">
        <ele>142.4</ele>
        <time>2015-05-05T20:28:25.051Z</time>
      </trkpt>
      <trkpt lat="48.82058" lon="2.31165">
        <ele>142.4</ele>
        <time>2015-05-05T20:28:26.086Z</time>
      </trkpt>
      <trkpt lat="48.82062" lon="2.31169">
        <ele>142.6</ele>
        <time>2015-05-05T20:28:26.994Z</time>
      </trkpt>
      <trkpt lat="48.82067" lon="2.31176">
        <ele>142.9</ele>
        <time>2015-05-05T20:28:29.045Z</time>
      </trkpt>
      <trkpt lat="48.82071" lon="2.3118">
        <ele>142.9</ele>
        <time>2015-05-05T20:28:30.188Z</time>
      </trkpt>
      <trkpt lat="48.82076" lon="2.31189">
        <ele>142.8</ele>
        <time>2015-05-05T20:28:32.086Z</time>
      </trkpt>
      <trkpt lat="48.82079" lon="2.31193">
        <ele>142.8</ele>
        <time>2015-05-05T20:28:33.010Z</time>
      </trkpt>
      <trkpt lat="48.82083" lon="2.31197">
        <ele>142.8</ele>
        <time>2015-05-05T20:28:34.030Z</time>
      </trkpt>
      <trkpt lat="48.82089" lon="2.31201">
        <ele>143</ele>
        <time>2015-05-05T20:28:35.047Z</time>
      </trkpt>
      <trkpt lat="48.82094" lon="2.31206">
        <ele>143.2</ele>
        <time>2015-05-05T20:28:36.054Z</time>
      </trkpt>
      <trkpt lat="48.82098" lon="2.31211">
        <ele>143.4</ele>
        <time>2015-05-05T20:28:37.065Z</time>
      </trkpt>
      <trkpt lat="48.82102" lon="2.31217">
        <ele>143.7</ele>
        <time>2015-05-05T20:28:38.345Z</time>
      </trkpt>
      <trkpt lat="48.82106" lon="2.31224">
        <ele>143.8</ele>
        <time>2015-05-05T20:28:38.990Z</time>
      </trkpt>
      <trkpt lat="48.8211" lon="2.31235">
        <ele>143.5</ele>
        <time>2015-05-05T20:28:41.039Z</time>
      </trkpt>
      <trkpt lat="48.82112" lon="2.31241">
        <ele>143.6</ele>
        <time>2015-05-05T20:28:41.960Z</time>
      </trkpt>
      <trkpt lat="48.82114" lon="2.31252">
        <ele>143.4</ele>
        <time>2015-05-05T20:28:44.049Z</time>
      </trkpt>
      <trkpt lat="48.82117" lon="2.31258">
        <ele>143.8</ele>
        <time>2015-05-05T20:28:45.065Z</time>
      </trkpt>
      <trkpt lat="48.82119" lon="2.31263">
        <ele>143.5</ele>
        <time>2015-05-05T20:28:46.684Z</time>
      </trkpt>
      <trkpt lat="48.82122" lon="2.31272">
        <ele>143.3</ele>
        <time>2015-05-05T20:28:46.963Z</time>
      </trkpt>
      <trkpt lat="48.82126" lon="2.3128">
        <ele>143.1</ele>
        <time>2015-05-05T20:28:48.054Z</time>
      </trkpt>
      <trkpt lat="48.82129" lon="2.31289">
        <ele>142.7</ele>
        <time>2015-05-05T20:28:49.084Z</time>
      </trkpt>
      <trkpt lat="48.82132" lon="2.31297">
        <ele>142.3</ele>
        <time>2015-05-05T20:28:49.998Z</time>
      </trkpt>
      <trkpt lat="48.82134" lon="2.31305">
        <ele>142</ele>
        <time>2015-05-05T20:28:51.028Z</time>
      </trkpt>
      <trkpt lat="48.82138" lon="2.3131">
        <ele>142.3</ele>
        <time>2015-05-05T20:28:52.036Z</time>
      </trkpt>
      <trkpt lat="48.82141" lon="2.31316">
        <ele>142.3</ele>
        <time>2015-05-05T20:28:53.047Z</time>
      </trkpt>
      <trkpt lat="48.82144" lon="2.31321">
        <ele>142.5</ele>
        <time>2015-05-05T20:28:53.986Z</time>
      </trkpt>
      <trkpt lat="48.82147" lon="2.3133">
        <ele>142.2</ele>
        <time>2015-05-05T20:28:54.988Z</time>
      </trkpt>
      <trkpt lat="48.82151" lon="2.31337">
        <ele>142.2</ele>
        <time>2015-05-05T20:28:56.902Z</time>
      </trkpt>
      <trkpt lat="48.82156" lon="2.31345">
        <ele>142</ele>
        <time>2015-05-05T20:28:57.042Z</time>
      </trkpt>
      <trkpt lat="48.82159" lon="2.31352">
        <ele>142</ele>
        <time>2015-05-05T20:28:58.046Z</time>
      </trkpt>
      <trkpt lat="48.82164" lon="2.31358">
        <ele>142.3</ele>
        <time>2015-05-05T20:28:59.053Z</time>
      </trkpt>
      <trkpt lat="48.82172" lon="2.31361">
        <ele>142.7</ele>
        <time>2015-05-05T20:29:00.128Z</time>
      </trkpt>
      <trkpt lat="48.82181" lon="2.31364">
        <ele>143.5</ele>
        <time>2015-05-05T20:29:00.991Z</time>
      </trkpt>
      <trkpt lat="48.82189" lon="2.31367">
        <ele>144.1</ele>
        <time>2015-05-05T20:29:01.997Z</time>
      </trkpt>
      <trkpt lat="48.82195" lon="2.31372">
        <ele>144.6</ele>
        <time>2015-05-05T20:29:03.005Z</time>
      </trkpt>
      <trkpt lat="48.82201" lon="2.3138">
        <ele>144.7</ele>
        <time>2015-05-05T20:29:04.130Z</time>
      </trkpt>
      <trkpt lat="48.82208" lon="2.31392">
        <ele>144.5</ele>
        <time>2015-05-05T20:29:05.088Z</time>
      </trkpt>
      <trkpt lat="48.82213" lon="2.31402">
        <ele>144.5</ele>
        <time>2015-05-05T20:29:05.984Z</time>
      </trkpt>
      <trkpt lat="48.82218" lon="2.31413">
        <ele>144.4</ele>
        <time>2015-05-05T20:29:06.989Z</time>
      </trkpt>
      <trkpt lat="48.82223" lon="2.31422">
        <ele>144.4</ele>
        <time>2015-05-05T20:29:08.003Z</time>
      </trkpt>
      <trkpt lat="48.82229" lon="2.31429">
        <ele>144.4</ele>
        <time>2015-05-05T20:29:09.010Z</time>
      </trkpt>
      <trkpt lat="48.82235" lon="2.31435">
        <ele>144.1</ele>
        <time>2015-05-05T20:29:10.028Z</time>
      </trkpt>
      <trkpt lat="48.82239" lon="2.31442">
        <ele>143.7</ele>
        <time>2015-05-05T20:29:11.037Z</time>
      </trkpt>
      <trkpt lat="48.82241" lon="2.31449">
        <ele>143.5</ele>
        <time>2015-05-05T20:29:12.046Z</time>
      </trkpt>
      <trkpt lat="48.82244" lon="2.31455">
        <ele>143.2</ele>
        <time>2015-05-05T20:29:13.051Z</time>
      </trkpt>
      <trkpt lat="48.82248" lon="2.31461">
        <ele>142.9</ele>
        <time>2015-05-05T20:29:13.976Z</time>
      </trkpt>
      <trkpt lat="48.82251" lon="2.31467">
        <ele>142.4</ele>
        <time>2015-05-05T20:29:14.977Z</time>
      </trkpt>
      <trkpt lat="48.82256" lon="2.31476">
        <ele>141.4</ele>
        <time>2015-05-05T20:29:17.023Z</time>
      </trkpt>
      <trkpt lat="48.8226" lon="2.3148">
        <ele>141.2</ele>
        <time>2015-05-05T20:29:18.031Z</time>
      </trkpt>
      <trkpt lat="48.82261" lon="2.31491">
        <ele>138.4</ele>
        <time>2015-05-05T20:29:28.076Z</time>
      </trkpt>
      <trkpt lat="48.82261" lon="2.31499">
        <ele>135.5</ele>
        <time>2015-05-05T20:29:29.031Z</time>
      </trkpt>
      <trkpt lat="48.82265" lon="2.31507">
        <ele>134.7</ele>
        <time>2015-05-05T20:29:33.020Z</time>
      </trkpt>
      <trkpt lat="48.82267" lon="2.31509">
        <ele>134.4</ele>
        <time>2015-05-05T20:29:34.070Z</time>
      </trkpt>
      <trkpt lat="48.82273" lon="2.31515">
        <ele>133.8</ele>
        <time>2015-05-05T20:29:36.038Z</time>
      </trkpt>
      <trkpt lat="48.82276" lon="2.31519">
        <ele>133.6</ele>
        <time>2015-05-05T20:29:37.018Z</time>
      </trkpt>
      <trkpt lat="48.82278" lon="2.31527">
        <ele>133</ele>
        <time>2015-05-05T20:29:39.001Z</time>
      </trkpt>
      <trkpt lat="48.8228" lon="2.31532">
        <ele>132.7</ele>
        <time>2015-05-05T20:29:40.055Z</time>
      </trkpt>
      <trkpt lat="48.82283" lon="2.31538">
        <ele>132.4</ele>
        <time>2015-05-05T20:29:41.084Z</time>
      </trkpt>
      <trkpt lat="48.82286" lon="2.31543">
        <ele>132.1</ele>
        <time>2015-05-05T20:29:41.997Z</time>
      </trkpt>
      <trkpt lat="48.82289" lon="2.31549">
        <ele>132.6</ele>
        <time>2015-05-05T20:29:43.001Z</time>
      </trkpt>
      <trkpt lat="48.82291" lon="2.31556">
        <ele>132.5</ele>
        <time>2015-05-05T20:29:44.016Z</time>
      </trkpt>
      <trkpt lat="48.82293" lon="2.31562">
        <ele>132.4</ele>
        <time>2015-05-05T20:29:45.029Z</time>
      </trkpt>
      <trkpt lat="48.82296" lon="2.31567">
        <ele>132.1</ele>
        <time>2015-05-05T20:29:46.042Z</time>
      </trkpt>
      <trkpt lat="48.82298" lon="2.31573">
        <ele>132</ele>
        <time>2015-05-05T20:29:47.048Z</time>
      </trkpt>
      <trkpt lat="48.82301" lon="2.31578">
        <ele>132.1</ele>
        <time>2015-05-05T20:29:48.066Z</time>
      </trkpt>
      <trkpt lat="48.82306" lon="2.31588">
        <ele>131.7</ele>
        <time>2015-05-05T20:29:50.006Z</time>
      </trkpt>
      <trkpt lat="48.82307" lon="2.31593">
        <ele>131.2</ele>
        <time>2015-05-05T20:29:51.030Z</time>
      </trkpt>
      <trkpt lat="48.82308" lon="2.31603">
        <ele>131.2</ele>
        <time>2015-05-05T20:29:53.183Z</time>
      </trkpt>
      <trkpt lat="48.82309" lon="2.31607">
        <ele>130.9</ele>
        <time>2015-05-05T20:29:54.069Z</time>
      </trkpt>
      <trkpt lat="48.82313" lon="2.31617">
        <ele>130.9</ele>
        <time>2015-05-05T20:29:55.995Z</time>
      </trkpt>
      <trkpt lat="48.82316" lon="2.31624">
        <ele>130.7</ele>
        <time>2015-05-05T20:29:57.043Z</time>
      </trkpt>
      <trkpt lat="48.82319" lon="2.3163">
        <ele>130.6</ele>
        <time>2015-05-05T20:29:58.051Z</time>
      </trkpt>
      <trkpt lat="48.82321" lon="2.31637">
        <ele>130.7</ele>
        <time>2015-05-05T20:29:59.147Z</time>
      </trkpt>
      <trkpt lat="48.82326" lon="2.31644">
        <ele>130.4</ele>
        <time>2015-05-05T20:30:00.064Z</time>
      </trkpt>
      <trkpt lat="48.8233" lon="2.3165">
        <ele>129.8</ele>
        <time>2015-05-05T20:30:01.080Z</time>
      </trkpt>
      <trkpt lat="48.82333" lon="2.31658">
        <ele>129.9</ele>
        <time>2015-05-05T20:30:02Z</time>
      </trkpt>
      <trkpt lat="48.82336" lon="2.31667">
        <ele>129.5</ele>
        <time>2015-05-05T20:30:03.014Z</time>
      </trkpt>
      <trkpt lat="48.82338" lon="2.31674">
        <ele>129.2</ele>
        <time>2015-05-05T20:30:04.057Z</time>
      </trkpt>
      <trkpt lat="48.82341" lon="2.31681">
        <ele>128.9</ele>
        <time>2015-05-05T20:30:05.074Z</time>
      </trkpt>
      <trkpt lat="48.82345" lon="2.31689">
        <ele>128.7</ele>
        <time>2015-05-05T20:30:06.084Z</time>
      </trkpt>
      <trkpt lat="48.82348" lon="2.31697">
        <ele>128.6</ele>
        <time>2015-05-05T20:30:06.988Z</time>
      </trkpt>
      <trkpt lat="48.82352" lon="2.31704">
        <ele>128.5</ele>
        <time>2015-05-05T20:30:08.055Z</time>
      </trkpt>
      <trkpt lat="48.82357" lon="2.31711">
        <ele>128.5</ele>
        <time>2015-05-05T20:30:09.069Z</time>
      </trkpt>
      <trkpt lat="48.82362" lon="2.31718">
        <ele>128.4</ele>
        <time>2015-05-05T20:30:10.104Z</time>
      </trkpt>
      <trkpt lat="48.82366" lon="2.31726">
        <ele>128</ele>
        <time>2015-05-05T20:30:10.995Z</time>
      </trkpt>
      <trkpt lat="48.82369" lon="2.31733">
        <ele>128.1</ele>
        <time>2015-05-05T20:30:12.010Z</time>
      </trkpt>
      <trkpt lat="48.82371" lon="2.3174">
        <ele>128</ele>
        <time>2015-05-05T20:30:13.017Z</time>
      </trkpt>
      <trkpt lat="48.82374" lon="2.31747">
        <ele>127.8</ele>
        <time>2015-05-05T20:30:14.023Z</time>
      </trkpt>
      <trkpt lat="48.82378" lon="2.31755">
        <ele>127.1</ele>
        <time>2015-05-05T20:30:15.034Z</time>
      </trkpt>
      <trkpt lat="48.82381" lon="2.31762">
        <ele>126.5</ele>
        <time>2015-05-05T20:30:16.048Z</time>
      </trkpt>
      <trkpt lat="48.82385" lon="2.31769">
        <ele>126.1</ele>
        <time>2015-05-05T20:30:17.062Z</time>
      </trkpt>
      <trkpt lat="48.82389" lon="2.31777">
        <ele>126.1</ele>
        <time>2015-05-05T20:30:17.987Z</time>
      </trkpt>
      <trkpt lat="48.82402" lon="2.31814">
        <ele>126</ele>
        <time>2015-05-05T20:30:23.050Z</time>
      </trkpt>
      <trkpt lat="48.82405" lon="2.31822">
        <ele>125.7</ele>
        <time>2015-05-05T20:30:23.968Z</time>
      </trkpt>
      <trkpt lat="48.82411" lon="2.31829">
        <ele>125.6</ele>
        <time>2015-05-05T20:30:24.972Z</time>
      </trkpt>
      <trkpt lat="48.82416" lon="2.31836">
        <ele>125.5</ele>
        <time>2015-05-05T20:30:26.002Z</time>
      </trkpt>
      <trkpt lat="48.82419" lon="2.31844">
        <ele>125.4</ele>
        <time>2015-05-05T20:30:27.012Z</time>
      </trkpt>
      <trkpt lat="48.82423" lon="2.3185">
        <ele>125.2</ele>
        <time>2015-05-05T20:30:28.025Z</time>
      </trkpt>
      <trkpt lat="48.82426" lon="2.31857">
        <ele>124.6</ele>
        <time>2015-05-05T20:30:29.043Z</time>
      </trkpt>
      <trkpt lat="48.82428" lon="2.31864">
        <ele>123.7</ele>
        <time>2015-05-05T20:30:30.052Z</time>
      </trkpt>
      <trkpt lat="48.8243" lon="2.3187">
        <ele>123.2</ele>
        <time>2015-05-05T20:30:31.061Z</time>
      </trkpt>
      <trkpt lat="48.8243" lon="2.31877">
        <ele>122.8</ele>
        <time>2015-05-05T20:30:32.066Z</time>
      </trkpt>
      <trkpt lat="48.82429" lon="2.31885">
        <ele>123.8</ele>
        <time>2015-05-05T20:30:32.986Z</time>
      </trkpt>
      <trkpt lat="48.82426" lon="2.31892">
        <ele>124.4</ele>
        <time>2015-05-05T20:30:34.095Z</time>
      </trkpt>
      <trkpt lat="48.82424" lon="2.31899">
        <ele>125.6</ele>
        <time>2015-05-05T20:30:34.969Z</time>
      </trkpt>
      <trkpt lat="48.82423" lon="2.31905">
        <ele>127.5</ele>
        <time>2015-05-05T20:30:36.013Z</time>
      </trkpt>
      <trkpt lat="48.82422" lon="2.31912">
        <ele>129.2</ele>
        <time>2015-05-05T20:30:37.013Z</time>
      </trkpt>
      <trkpt lat="48.82423" lon="2.31925">
        <ele>131.1</ele>
        <time>2015-05-05T20:30:39.011Z</time>
      </trkpt>
      <trkpt lat="48.82425" lon="2.31931">
        <ele>132.9</ele>
        <time>2015-05-05T20:30:40.022Z</time>
      </trkpt>
      <trkpt lat="48.8243" lon="2.31942">
        <ele>133.7</ele>
        <time>2015-05-05T20:30:42.113Z</time>
      </trkpt>
      <trkpt lat="48.82432" lon="2.31948">
        <ele>134.7</ele>
        <time>2015-05-05T20:30:42.990Z</time>
      </trkpt>
      <trkpt lat="48.82436" lon="2.31956">
        <ele>131</ele>
        <time>2015-05-05T20:30:45.038Z</time>
      </trkpt>
      <trkpt lat="48.82438" lon="2.31961">
        <ele>129.5</ele>
        <time>2015-05-05T20:30:46.082Z</time>
      </trkpt>
      <trkpt lat="48.82441" lon="2.31965">
        <ele>131</ele>
        <time>2015-05-05T20:30:47.033Z</time>
      </trkpt>
      <trkpt lat="48.82444" lon="2.3197">
        <ele>130.2</ele>
        <time>2015-05-05T20:30:47.999Z</time>
      </trkpt>
      <trkpt lat="48.82445" lon="2.31984">
        <ele>131.4</ele>
        <time>2015-05-05T20:30:50.025Z</time>
      </trkpt>
      <trkpt lat="48.82445" lon="2.31992">
        <ele>133.3</ele>
        <time>2015-05-05T20:30:51.044Z</time>
      </trkpt>
      <trkpt lat="48.82446" lon="2.31999">
        <ele>131.8</ele>
        <time>2015-05-05T20:30:52.063Z</time>
      </trkpt>
      <trkpt lat="48.82444" lon="2.32006">
        <ele>131.8</ele>
        <time>2015-05-05T20:30:52.985Z</time>
      </trkpt>
      <trkpt lat="48.82442" lon="2.32013">
        <ele>130.7</ele>
        <time>2015-05-05T20:30:54.001Z</time>
      </trkpt>
      <trkpt lat="48.8244" lon="2.3202">
        <ele>129.2</ele>
        <time>2015-05-05T20:30:55.010Z</time>
      </trkpt>
      <trkpt lat="48.82437" lon="2.32027">
        <ele>127.2</ele>
        <time>2015-05-05T20:30:56.028Z</time>
      </trkpt>
      <trkpt lat="48.82436" lon="2.32033">
        <ele>126.6</ele>
        <time>2015-05-05T20:30:57.038Z</time>
      </trkpt>
      <trkpt lat="48.82435" lon="2.32046">
        <ele>127.2</ele>
        <time>2015-05-05T20:30:59.054Z</time>
      </trkpt>
      <trkpt lat="48.82433" lon="2.32055">
        <ele>126.5</ele>
        <time>2015-05-05T20:31:00.049Z</time>
      </trkpt>
      <trkpt lat="48.82431" lon="2.32064">
        <ele>126.4</ele>
        <time>2015-05-05T20:31:01.014Z</time>
      </trkpt>
      <trkpt lat="48.8243" lon="2.32072">
        <ele>126.5</ele>
        <time>2015-05-05T20:31:02.046Z</time>
      </trkpt>
      <trkpt lat="48.82428" lon="2.32081">
        <ele>126.2</ele>
        <time>2015-05-05T20:31:03.181Z</time>
      </trkpt>
      <trkpt lat="48.82426" lon="2.3209">
        <ele>126.2</ele>
        <time>2015-05-05T20:31:04.020Z</time>
      </trkpt>
      <trkpt lat="48.82424" lon="2.32099">
        <ele>126.1</ele>
        <time>2015-05-05T20:31:05.033Z</time>
      </trkpt>
      <trkpt lat="48.82422" lon="2.32108">
        <ele>126</ele>
        <time>2015-05-05T20:31:06.067Z</time>
      </trkpt>
      <trkpt lat="48.82418" lon="2.32116">
        <ele>125</ele>
        <time>2015-05-05T20:31:06.984Z</time>
      </trkpt>
      <trkpt lat="48.82415" lon="2.32125">
        <ele>123.2</ele>
        <time>2015-05-05T20:31:07.980Z</time>
      </trkpt>
      <trkpt lat="48.82412" lon="2.32135">
        <ele>123.3</ele>
        <time>2015-05-05T20:31:09.026Z</time>
      </trkpt>
      <trkpt lat="48.8241" lon="2.32146">
        <ele>123.2</ele>
        <time>2015-05-05T20:31:09.996Z</time>
      </trkpt>
      <trkpt lat="48.82407" lon="2.32156">
        <ele>123.4</ele>
        <time>2015-05-05T20:31:10.960Z</time>
      </trkpt>
      <trkpt lat="48.82405" lon="2.32166">
        <ele>123.2</ele>
        <time>2015-05-05T20:31:11.982Z</time>
      </trkpt>
      <trkpt lat="48.82403" lon="2.32176">
        <ele>123.3</ele>
        <time>2015-05-05T20:31:13.006Z</time>
      </trkpt>
      <trkpt lat="48.82401" lon="2.32185">
        <ele>123.3</ele>
        <time>2015-05-05T20:31:14.042Z</time>
      </trkpt>
      <trkpt lat="48.82399" lon="2.32192">
        <ele>123.1</ele>
        <time>2015-05-05T20:31:14.959Z</time>
      </trkpt>
      <trkpt lat="48.82398" lon="2.322">
        <ele>123.2</ele>
        <time>2015-05-05T20:31:15.995Z</time>
      </trkpt>
      <trkpt lat="48.82396" lon="2.32209">
        <ele>122.9</ele>
        <time>2015-05-05T20:31:17.038Z</time>
      </trkpt>
      <trkpt lat="48.82394" lon="2.32216">
        <ele>122.6</ele>
        <time>2015-05-05T20:31:18.010Z</time>
      </trkpt>
      <trkpt lat="48.82393" lon="2.32225">
        <ele>122.2</ele>
        <time>2015-05-05T20:31:19.022Z</time>
      </trkpt>
      <trkpt lat="48.82391" lon="2.32234">
        <ele>122.2</ele>
        <time>2015-05-05T20:31:20.035Z</time>
      </trkpt>
      <trkpt lat="48.8239" lon="2.32242">
        <ele>122</ele>
        <time>2015-05-05T20:31:21.041Z</time>
      </trkpt>
      <trkpt lat="48.82389" lon="2.3225">
        <ele>121.7</ele>
        <time>2015-05-05T20:31:22.048Z</time>
      </trkpt>
      <trkpt lat="48.82387" lon="2.32258">
        <ele>121.6</ele>
        <time>2015-05-05T20:31:22.961Z</time>
      </trkpt>
      <trkpt lat="48.82385" lon="2.32266">
        <ele>121.7</ele>
        <time>2015-05-05T20:31:23.986Z</time>
      </trkpt>
      <trkpt lat="48.82384" lon="2.32274">
        <ele>121.7</ele>
        <time>2015-05-05T20:31:24.993Z</time>
      </trkpt>
      <trkpt lat="48.82383" lon="2.32281">
        <ele>121.6</ele>
        <time>2015-05-05T20:31:26.010Z</time>
      </trkpt>
      <trkpt lat="48.82381" lon="2.32287">
        <ele>120.5</ele>
        <time>2015-05-05T20:31:27.017Z</time>
      </trkpt>
      <trkpt lat="48.8238" lon="2.32294">
        <ele>120.2</ele>
        <time>2015-05-05T20:31:28.040Z</time>
      </trkpt>
      <trkpt lat="48.82379" lon="2.32301">
        <ele>121</ele>
        <time>2015-05-05T20:31:29.050Z</time>
      </trkpt>
      <trkpt lat="48.82378" lon="2.32308">
        <ele>122.8</ele>
        <time>2015-05-05T20:31:30.055Z</time>
      </trkpt>
      <trkpt lat="48.82377" lon="2.32314">
        <ele>123</ele>
        <time>2015-05-05T20:31:30.983Z</time>
      </trkpt>
      <trkpt lat="48.82377" lon="2.32321">
        <ele>123.9</ele>
        <time>2015-05-05T20:31:31.982Z</time>
      </trkpt>
      <trkpt lat="48.82382" lon="2.32331">
        <ele>123.4</ele>
        <time>2015-05-05T20:31:35.978Z</time>
      </trkpt>
      <trkpt lat="48.82385" lon="2.32331">
        <ele>124.3</ele>
        <time>2015-05-05T20:31:37.002Z</time>
      </trkpt>
      <trkpt lat="48.8239" lon="2.32328">
        <ele>125.5</ele>
        <time>2015-05-05T20:31:38.047Z</time>
      </trkpt>
      <trkpt lat="48.82394" lon="2.32326">
        <ele>125.7</ele>
        <time>2015-05-05T20:31:39.058Z</time>
      </trkpt>
      <trkpt lat="48.82401" lon="2.3233">
        <ele>128</ele>
        <time>2015-05-05T20:31:43.034Z</time>
      </trkpt>
      <trkpt lat="48.82403" lon="2.32331">
        <ele>128.4</ele>
        <time>2015-05-05T20:31:43.995Z</time>
      </trkpt>
      <trkpt lat="48.82407" lon="2.32335">
        <ele>128.3</ele>
        <time>2015-05-05T20:31:44.982Z</time>
      </trkpt>
      <trkpt lat="48.82411" lon="2.32339">
        <ele>128.3</ele>
        <time>2015-05-05T20:31:46.008Z</time>
      </trkpt>
      <trkpt lat="48.82417" lon="2.32346">
        <ele>128.4</ele>
        <time>2015-05-05T20:31:48.030Z</time>
      </trkpt>
      <trkpt lat="48.82421" lon="2.32348">
        <ele>128.3</ele>
        <time>2015-05-05T20:31:49.064Z</time>
      </trkpt>
      <trkpt lat="48.8243" lon="2.32349">
        <ele>128.5</ele>
        <time>2015-05-05T20:31:49.982Z</time>
      </trkpt>
      <trkpt lat="48.82434" lon="2.32351">
        <ele>127.9</ele>
        <time>2015-05-05T20:31:51.031Z</time>
      </trkpt>
      <trkpt lat="48.82441" lon="2.32359">
        <ele>127.1</ele>
        <time>2015-05-05T20:31:52.947Z</time>
      </trkpt>
      <trkpt lat="48.82443" lon="2.32363">
        <ele>127.1</ele>
        <time>2015-05-05T20:31:54.300Z</time>
      </trkpt>
      <trkpt lat="48.8245" lon="2.32372">
        <ele>127.2</ele>
        <time>2015-05-05T20:31:56.965Z</time>
      </trkpt>
      <trkpt lat="48.82454" lon="2.32373">
        <ele>127.1</ele>
        <time>2015-05-05T20:31:58.095Z</time>
      </trkpt>
      <trkpt lat="48.82462" lon="2.32375">
        <ele>127.2</ele>
        <time>2015-05-05T20:31:59.983Z</time>
      </trkpt>
      <trkpt lat="48.82468" lon="2.32377">
        <ele>127.2</ele>
        <time>2015-05-05T20:32:01.002Z</time>
      </trkpt>
      <trkpt lat="48.82474" lon="2.32381">
        <ele>127.2</ele>
        <time>2015-05-05T20:32:01.953Z</time>
      </trkpt>
      <trkpt lat="48.8248" lon="2.32384">
        <ele>126.9</ele>
        <time>2015-05-05T20:32:02.962Z</time>
      </trkpt>
      <trkpt lat="48.82487" lon="2.32384">
        <ele>126.7</ele>
        <time>2015-05-05T20:32:04.003Z</time>
      </trkpt>
      <trkpt lat="48.82492" lon="2.32388">
        <ele>127.3</ele>
        <time>2015-05-05T20:32:05Z</time>
      </trkpt>
      <trkpt lat="48.82498" lon="2.32391">
        <ele>127.6</ele>
        <time>2015-05-05T20:32:06.027Z</time>
      </trkpt>
      <trkpt lat="48.82505" lon="2.32394">
        <ele>127.5</ele>
        <time>2015-05-05T20:32:07.076Z</time>
      </trkpt>
      <trkpt lat="48.82513" lon="2.32396">
        <ele>128.3</ele>
        <time>2015-05-05T20:32:07.965Z</time>
      </trkpt>
      <trkpt lat="48.82518" lon="2.32399">
        <ele>128.6</ele>
        <time>2015-05-05T20:32:08.982Z</time>
      </trkpt>
      <trkpt lat="48.82526" lon="2.32406">
        <ele>128.7</ele>
        <time>2015-05-05T20:32:11.020Z</time>
      </trkpt>
      <trkpt lat="48.8253" lon="2.3241">
        <ele>128.7</ele>
        <time>2015-05-05T20:32:11.964Z</time>
      </trkpt>
      <trkpt lat="48.82535" lon="2.32414">
        <ele>128.7</ele>
        <time>2015-05-05T20:32:12.966Z</time>
      </trkpt>
      <trkpt lat="48.8254" lon="2.32418">
        <ele>128.7</ele>
        <time>2015-05-05T20:32:13.991Z</time>
      </trkpt>
      <trkpt lat="48.82545" lon="2.32422">
        <ele>128.8</ele>
        <time>2015-05-05T20:32:15.021Z</time>
      </trkpt>
      <trkpt lat="48.82551" lon="2.32424">
        <ele>128.7</ele>
        <time>2015-05-05T20:32:16.033Z</time>
      </trkpt>
      <trkpt lat="48.82557" lon="2.32426">
        <ele>128.8</ele>
        <time>2015-05-05T20:32:17.041Z</time>
      </trkpt>
      <trkpt lat="48.82561" lon="2.32429">
        <ele>128.9</ele>
        <time>2015-05-05T20:32:17.947Z</time>
      </trkpt>
      <trkpt lat="48.82565" lon="2.32432">
        <ele>129</ele>
        <time>2015-05-05T20:32:18.975Z</time>
      </trkpt>
      <trkpt lat="48.82571" lon="2.32432">
        <ele>129.2</ele>
        <time>2015-05-05T20:32:19.975Z</time>
      </trkpt>
      <trkpt lat="48.82577" lon="2.3244">
        <ele>129.2</ele>
        <time>2015-05-05T20:32:21.997Z</time>
      </trkpt>
      <trkpt lat="48.82582" lon="2.32444">
        <ele>129.3</ele>
        <time>2015-05-05T20:32:23.010Z</time>
      </trkpt>
      <trkpt lat="48.8259" lon="2.32449">
        <ele>129</ele>
        <time>2015-05-05T20:32:25.044Z</time>
      </trkpt>
      <trkpt lat="48.82593" lon="2.32453">
        <ele>128.9</ele>
        <time>2015-05-05T20:32:25.953Z</time>
      </trkpt>
      <trkpt lat="48.82601" lon="2.32457">
        <ele>128.6</ele>
        <time>2015-05-05T20:32:27.994Z</time>
      </trkpt>
      <trkpt lat="48.82605" lon="2.3246">
        <ele>128.6</ele>
        <time>2015-05-05T20:32:29.007Z</time>
      </trkpt>
      <trkpt lat="48.82609" lon="2.32464">
        <ele>128.6</ele>
        <time>2015-05-05T20:32:30.018Z</time>
      </trkpt>
      <trkpt lat="48.82614" lon="2.3247">
        <ele>128.7</ele>
        <time>2015-05-05T20:32:31.022Z</time>
      </trkpt>
      <trkpt lat="48.8262" lon="2.32474">
        <ele>128.7</ele>
        <time>2015-05-05T20:32:32.040Z</time>
      </trkpt>
      <trkpt lat="48.82626" lon="2.32477">
        <ele>128.7</ele>
        <time>2015-05-05T20:32:32.954Z</time>
      </trkpt>
      <trkpt lat="48.82632" lon="2.3248">
        <ele>128.8</ele>
        <time>2015-05-05T20:32:34.062Z</time>
      </trkpt>
      <trkpt lat="48.82639" lon="2.32484">
        <ele>128.9</ele>
        <time>2015-05-05T20:32:34.985Z</time>
      </trkpt>
      <trkpt lat="48.82645" lon="2.32488">
        <ele>128.8</ele>
        <time>2015-05-05T20:32:35.966Z</time>
      </trkpt>
      <trkpt lat="48.82649" lon="2.32492">
        <ele>128.9</ele>
        <time>2015-05-05T20:32:36.967Z</time>
      </trkpt>
      <trkpt lat="48.82653" lon="2.32496">
        <ele>128.9</ele>
        <time>2015-05-05T20:32:37.996Z</time>
      </trkpt>
      <trkpt lat="48.82658" lon="2.325">
        <ele>129</ele>
        <time>2015-05-05T20:32:39.020Z</time>
      </trkpt>
      <trkpt lat="48.82664" lon="2.32499">
        <ele>129.4</ele>
        <time>2015-05-05T20:32:40.086Z</time>
      </trkpt>
      <trkpt lat="48.8267" lon="2.32497">
        <ele>129.2</ele>
        <time>2015-05-05T20:32:40.970Z</time>
      </trkpt>
      <trkpt lat="48.82678" lon="2.32496">
        <ele>128.9</ele>
        <time>2015-05-05T20:32:41.984Z</time>
      </trkpt>
      <trkpt lat="48.82686" lon="2.32497">
        <ele>129</ele>
        <time>2015-05-05T20:32:42.990Z</time>
      </trkpt>
      <trkpt lat="48.82697" lon="2.32502">
        <ele>128.9</ele>
        <time>2015-05-05T20:32:43.997Z</time>
      </trkpt>
      <trkpt lat="48.82705" lon="2.32508">
        <ele>128.9</ele>
        <time>2015-05-05T20:32:45.016Z</time>
      </trkpt>
      <trkpt lat="48.82712" lon="2.32513">
        <ele>128.9</ele>
        <time>2015-05-05T20:32:46.105Z</time>
      </trkpt>
      <trkpt lat="48.82718" lon="2.32519">
        <ele>128.2</ele>
        <time>2015-05-05T20:32:46.977Z</time>
      </trkpt>
      <trkpt lat="48.82723" lon="2.32525">
        <ele>128.4</ele>
        <time>2015-05-05T20:32:47.978Z</time>
      </trkpt>
      <trkpt lat="48.82728" lon="2.3253">
        <ele>128.5</ele>
        <time>2015-05-05T20:32:49Z</time>
      </trkpt>
      <trkpt lat="48.82733" lon="2.32535">
        <ele>128.6</ele>
        <time>2015-05-05T20:32:50.009Z</time>
      </trkpt>
      <trkpt lat="48.82737" lon="2.32542">
        <ele>128.5</ele>
        <time>2015-05-05T20:32:51.034Z</time>
      </trkpt>
      <trkpt lat="48.82741" lon="2.32547">
        <ele>128.6</ele>
        <time>2015-05-05T20:32:52.041Z</time>
      </trkpt>
      <trkpt lat="48.82744" lon="2.32556">
        <ele>129.1</ele>
        <time>2015-05-05T20:32:53.048Z</time>
      </trkpt>
      <trkpt lat="48.82747" lon="2.32563">
        <ele>129.3</ele>
        <time>2015-05-05T20:32:53.965Z</time>
      </trkpt>
      <trkpt lat="48.82748" lon="2.3257">
        <ele>129.3</ele>
        <time>2015-05-05T20:32:54.948Z</time>
      </trkpt>
      <trkpt lat="48.8275" lon="2.32576">
        <ele>129.4</ele>
        <time>2015-05-05T20:32:55.965Z</time>
      </trkpt>
      <trkpt lat="48.82752" lon="2.32583">
        <ele>129.5</ele>
        <time>2015-05-05T20:32:56.981Z</time>
      </trkpt>
      <trkpt lat="48.82754" lon="2.32589">
        <ele>130</ele>
        <time>2015-05-05T20:32:58.024Z</time>
      </trkpt>
      <trkpt lat="48.82755" lon="2.32596">
        <ele>130.2</ele>
        <time>2015-05-05T20:32:59.036Z</time>
      </trkpt>
      <trkpt lat="48.82756" lon="2.32603">
        <ele>130.4</ele>
        <time>2015-05-05T20:33:00.040Z</time>
      </trkpt>
      <trkpt lat="48.82759" lon="2.32614">
        <ele>131</ele>
        <time>2015-05-05T20:33:01.950Z</time>
      </trkpt>
      <trkpt lat="48.82761" lon="2.32618">
        <ele>131.2</ele>
        <time>2015-05-05T20:33:03.065Z</time>
      </trkpt>
      <trkpt lat="48.82762" lon="2.32628">
        <ele>131.2</ele>
        <time>2015-05-05T20:33:04.956Z</time>
      </trkpt>
      <trkpt lat="48.82763" lon="2.32633">
        <ele>131.7</ele>
        <time>2015-05-05T20:33:05.992Z</time>
      </trkpt>
      <trkpt lat="48.82766" lon="2.3264">
        <ele>133</ele>
        <time>2015-05-05T20:33:08.024Z</time>
      </trkpt>
      <trkpt lat="48.82768" lon="2.32644">
        <ele>133.2</ele>
        <time>2015-05-05T20:33:09.055Z</time>
      </trkpt>
      <trkpt lat="48.82769" lon="2.32657">
        <ele>131.3</ele>
        <time>2015-05-05T20:33:11.977Z</time>
      </trkpt>
      <trkpt lat="48.8277" lon="2.32659">
        <ele>131.1</ele>
        <time>2015-05-05T20:33:12.979Z</time>
      </trkpt>
      <trkpt lat="48.82778" lon="2.32663">
        <ele>133</ele>
        <time>2015-05-05T20:33:18.991Z</time>
      </trkpt>
      <trkpt lat="48.82778" lon="2.32667">
        <ele>133.1</ele>
        <time>2015-05-05T20:33:19.995Z</time>
      </trkpt>
      <trkpt lat="48.82779" lon="2.3268">
        <ele>132.9</ele>
        <time>2015-05-05T20:33:23.030Z</time>
      </trkpt>
      <trkpt lat="48.82779" lon="2.32683">
        <ele>133.2</ele>
        <time>2015-05-05T20:33:24.047Z</time>
      </trkpt>
      <trkpt lat="48.82779" lon="2.32695">
        <ele>133.8</ele>
        <time>2015-05-05T20:33:27.017Z</time>
      </trkpt>
      <trkpt lat="48.8278" lon="2.32698">
        <ele>133.4</ele>
        <time>2015-05-05T20:33:28.059Z</time>
      </trkpt>
      <trkpt lat="48.8278" lon="2.32704">
        <ele>132.6</ele>
        <time>2015-05-05T20:33:55.072Z</time>
      </trkpt>
      <trkpt lat="48.82801" lon="2.32705">
        <ele>130.2</ele>
        <time>2015-05-05T20:33:56.060Z</time>
      </trkpt>
      <trkpt lat="48.82806" lon="2.32715">
        <ele>129.3</ele>
        <time>2015-05-05T20:33:58.055Z</time>
      </trkpt>
      <trkpt lat="48.82808" lon="2.32719">
        <ele>128.9</ele>
        <time>2015-05-05T20:33:59.060Z</time>
      </trkpt>
      <trkpt lat="48.82811" lon="2.32724">
        <ele>128.7</ele>
        <time>2015-05-05T20:33:59.970Z</time>
      </trkpt>
      <trkpt lat="48.82819" lon="2.32727">
        <ele>129</ele>
        <time>2015-05-05T20:34:01.025Z</time>
      </trkpt>
      <trkpt lat="48.82825" lon="2.32732">
        <ele>129.2</ele>
        <time>2015-05-05T20:34:02.101Z</time>
      </trkpt>
      <trkpt lat="48.82831" lon="2.32736">
        <ele>129.5</ele>
        <time>2015-05-05T20:34:03.099Z</time>
      </trkpt>
      <trkpt lat="48.82838" lon="2.32741">
        <ele>130.3</ele>
        <time>2015-05-05T20:34:04.036Z</time>
      </trkpt>
      <trkpt lat="48.82842" lon="2.32745">
        <ele>130.5</ele>
        <time>2015-05-05T20:34:05.030Z</time>
      </trkpt>
      <trkpt lat="48.82846" lon="2.32749">
        <ele>130.8</ele>
        <time>2015-05-05T20:34:06.051Z</time>
      </trkpt>
      <trkpt lat="48.8285" lon="2.32753">
        <ele>131.1</ele>
        <time>2015-05-05T20:34:07.066Z</time>
      </trkpt>
      <trkpt lat="48.82856" lon="2.32759">
        <ele>131</ele>
        <time>2015-05-05T20:34:07.981Z</time>
      </trkpt>
      <trkpt lat="48.82862" lon="2.32763">
        <ele>131.2</ele>
        <time>2015-05-05T20:34:08.976Z</time>
      </trkpt>
      <trkpt lat="48.82867" lon="2.32768">
        <ele>131.2</ele>
        <time>2015-05-05T20:34:10.022Z</time>
      </trkpt>
      <trkpt lat="48.82872" lon="2.32774">
        <ele>131.4</ele>
        <time>2015-05-05T20:34:11.026Z</time>
      </trkpt>
      <trkpt lat="48.82876" lon="2.32782">
        <ele>131.5</ele>
        <time>2015-05-05T20:34:13.041Z</time>
      </trkpt>
      <trkpt lat="48.82879" lon="2.32786">
        <ele>131.7</ele>
        <time>2015-05-05T20:34:14.051Z</time>
      </trkpt>
      <trkpt lat="48.82882" lon="2.3279">
        <ele>131.9</ele>
        <time>2015-05-05T20:34:15.038Z</time>
      </trkpt>
      <trkpt lat="48.82886" lon="2.32795">
        <ele>132</ele>
        <time>2015-05-05T20:34:16.044Z</time>
      </trkpt>
      <trkpt lat="48.82889" lon="2.328">
        <ele>132.1</ele>
        <time>2015-05-05T20:34:17.053Z</time>
      </trkpt>
      <trkpt lat="48.82893" lon="2.32806">
        <ele>131.8</ele>
        <time>2015-05-05T20:34:18.066Z</time>
      </trkpt>
      <trkpt lat="48.829" lon="2.32814">
        <ele>131.3</ele>
        <time>2015-05-05T20:34:19.993Z</time>
      </trkpt>
      <trkpt lat="48.82904" lon="2.32815">
        <ele>131.2</ele>
        <time>2015-05-05T20:34:21.020Z</time>
      </trkpt>
      <trkpt lat="48.8291" lon="2.32817">
        <ele>131.5</ele>
        <time>2015-05-05T20:34:22.043Z</time>
      </trkpt>
      <trkpt lat="48.82917" lon="2.32819">
        <ele>131.7</ele>
        <time>2015-05-05T20:34:23.041Z</time>
      </trkpt>
      <trkpt lat="48.82923" lon="2.3282">
        <ele>131.8</ele>
        <time>2015-05-05T20:34:24.047Z</time>
      </trkpt>
      <trkpt lat="48.82932" lon="2.32826">
        <ele>131.8</ele>
        <time>2015-05-05T20:34:25.057Z</time>
      </trkpt>
      <trkpt lat="48.82938" lon="2.32832">
        <ele>131.9</ele>
        <time>2015-05-05T20:34:25.991Z</time>
      </trkpt>
      <trkpt lat="48.82944" lon="2.32839">
        <ele>131.9</ele>
        <time>2015-05-05T20:34:26.991Z</time>
      </trkpt>
      <trkpt lat="48.82949" lon="2.32845">
        <ele>131.5</ele>
        <time>2015-05-05T20:34:28.037Z</time>
      </trkpt>
      <trkpt lat="48.82954" lon="2.32851">
        <ele>131.6</ele>
        <time>2015-05-05T20:34:29.045Z</time>
      </trkpt>
      <trkpt lat="48.82961" lon="2.32855">
        <ele>131.8</ele>
        <time>2015-05-05T20:34:30.049Z</time>
      </trkpt>
      <trkpt lat="48.82966" lon="2.32861">
        <ele>131.8</ele>
        <time>2015-05-05T20:34:31.056Z</time>
      </trkpt>
      <trkpt lat="48.82971" lon="2.32867">
        <ele>131.9</ele>
        <time>2015-05-05T20:34:32.073Z</time>
      </trkpt>
      <trkpt lat="48.82976" lon="2.32871">
        <ele>132.1</ele>
        <time>2015-05-05T20:34:32.995Z</time>
      </trkpt>
      <trkpt lat="48.82982" lon="2.32875">
        <ele>132.4</ele>
        <time>2015-05-05T20:34:34.111Z</time>
      </trkpt>
      <trkpt lat="48.82988" lon="2.3288">
        <ele>132.6</ele>
        <time>2015-05-05T20:34:34.997Z</time>
      </trkpt>
      <trkpt lat="48.82995" lon="2.32885">
        <ele>132.8</ele>
        <time>2015-05-05T20:34:36.008Z</time>
      </trkpt>
      <trkpt lat="48.83002" lon="2.32891">
        <ele>132.8</ele>
        <time>2015-05-05T20:34:37.020Z</time>
      </trkpt>
      <trkpt lat="48.8301" lon="2.32896">
        <ele>133</ele>
        <time>2015-05-05T20:34:38.028Z</time>
      </trkpt>
      <trkpt lat="48.83017" lon="2.32901">
        <ele>133.1</ele>
        <time>2015-05-05T20:34:39.041Z</time>
      </trkpt>
      <trkpt lat="48.83023" lon="2.32906">
        <ele>133.3</ele>
        <time>2015-05-05T20:34:40.073Z</time>
      </trkpt>
      <trkpt lat="48.8303" lon="2.3291">
        <ele>133.3</ele>
        <time>2015-05-05T20:34:41.069Z</time>
      </trkpt>
      <trkpt lat="48.83035" lon="2.32914">
        <ele>133.5</ele>
        <time>2015-05-05T20:34:42.077Z</time>
      </trkpt>
      <trkpt lat="48.83039" lon="2.32917">
        <ele>133.6</ele>
        <time>2015-05-05T20:34:43.091Z</time>
      </trkpt>
      <trkpt lat="48.83044" lon="2.32921">
        <ele>133.9</ele>
        <time>2015-05-05T20:34:43.993Z</time>
      </trkpt>
      <trkpt lat="48.83049" lon="2.32925">
        <ele>134.2</ele>
        <time>2015-05-05T20:34:45.027Z</time>
      </trkpt>
      <trkpt lat="48.83054" lon="2.32928">
        <ele>134.6</ele>
        <time>2015-05-05T20:34:46.089Z</time>
      </trkpt>
      <trkpt lat="48.83059" lon="2.32932">
        <ele>135</ele>
        <time>2015-05-05T20:34:47.086Z</time>
      </trkpt>
      <trkpt lat="48.83065" lon="2.32937">
        <ele>135.2</ele>
        <time>2015-05-05T20:34:48.005Z</time>
      </trkpt>
      <trkpt lat="48.83072" lon="2.3294">
        <ele>135.9</ele>
        <time>2015-05-05T20:34:48.997Z</time>
      </trkpt>
      <trkpt lat="48.83079" lon="2.32944">
        <ele>136.3</ele>
        <time>2015-05-05T20:34:50.015Z</time>
      </trkpt>
      <trkpt lat="48.83085" lon="2.32949">
        <ele>136.4</ele>
        <time>2015-05-05T20:34:51.069Z</time>
      </trkpt>
      <trkpt lat="48.83092" lon="2.32956">
        <ele>135.1</ele>
        <time>2015-05-05T20:34:53.061Z</time>
      </trkpt>
      <trkpt lat="48.83095" lon="2.3296">
        <ele>135.2</ele>
        <time>2015-05-05T20:34:54.083Z</time>
      </trkpt>
      <trkpt lat="48.83099" lon="2.32963">
        <ele>135.4</ele>
        <time>2015-05-05T20:34:55.005Z</time>
      </trkpt>
      <trkpt lat="48.83104" lon="2.32966">
        <ele>135.4</ele>
        <time>2015-05-05T20:34:56.004Z</time>
      </trkpt>
      <trkpt lat="48.83108" lon="2.3297">
        <ele>135.6</ele>
        <time>2015-05-05T20:34:57.014Z</time>
      </trkpt>
      <trkpt lat="48.83113" lon="2.32972">
        <ele>135.4</ele>
        <time>2015-05-05T20:34:58.037Z</time>
      </trkpt>
      <trkpt lat="48.83118" lon="2.32976">
        <ele>135.1</ele>
        <time>2015-05-05T20:34:59.050Z</time>
      </trkpt>
      <trkpt lat="48.83123" lon="2.3298">
        <ele>135.3</ele>
        <time>2015-05-05T20:35:00.069Z</time>
      </trkpt>
      <trkpt lat="48.83128" lon="2.32984">
        <ele>135.3</ele>
        <time>2015-05-05T20:35:00.972Z</time>
      </trkpt>
      <trkpt lat="48.83132" lon="2.32988">
        <ele>135.8</ele>
        <time>2015-05-05T20:35:02.003Z</time>
      </trkpt>
      <trkpt lat="48.83136" lon="2.32993">
        <ele>136.3</ele>
        <time>2015-05-05T20:35:03.019Z</time>
      </trkpt>
      <trkpt lat="48.8314" lon="2.32997">
        <ele>136.8</ele>
        <time>2015-05-05T20:35:04.041Z</time>
      </trkpt>
      <trkpt lat="48.83144" lon="2.33002">
        <ele>137</ele>
        <time>2015-05-05T20:35:05.030Z</time>
      </trkpt>
      <trkpt lat="48.83149" lon="2.33006">
        <ele>136.8</ele>
        <time>2015-05-05T20:35:06.041Z</time>
      </trkpt>
      <trkpt lat="48.83153" lon="2.33011">
        <ele>137</ele>
        <time>2015-05-05T20:35:07.044Z</time>
      </trkpt>
      <trkpt lat="48.83158" lon="2.33016">
        <ele>137.3</ele>
        <time>2015-05-05T20:35:08.063Z</time>
      </trkpt>
      <trkpt lat="48.83162" lon="2.33021">
        <ele>137.4</ele>
        <time>2015-05-05T20:35:09.030Z</time>
      </trkpt>
      <trkpt lat="48.83165" lon="2.33026">
        <ele>137.5</ele>
        <time>2015-05-05T20:35:10.116Z</time>
      </trkpt>
      <trkpt lat="48.83169" lon="2.33032">
        <ele>137.3</ele>
        <time>2015-05-05T20:35:11.022Z</time>
      </trkpt>
      <trkpt lat="48.83172" lon="2.33036">
        <ele>137.5</ele>
        <time>2015-05-05T20:35:12.051Z</time>
      </trkpt>
      <trkpt lat="48.83176" lon="2.3304">
        <ele>137.4</ele>
        <time>2015-05-05T20:35:13.028Z</time>
      </trkpt>
      <trkpt lat="48.8318" lon="2.33043">
        <ele>137.3</ele>
        <time>2015-05-05T20:35:14.052Z</time>
      </trkpt>
      <trkpt lat="48.83187" lon="2.33046">
        <ele>136.2</ele>
        <time>2015-05-05T20:35:14.987Z</time>
      </trkpt>
      <trkpt lat="48.83195" lon="2.33049">
        <ele>135.4</ele>
        <time>2015-05-05T20:35:16.020Z</time>
      </trkpt>
      <trkpt lat="48.832" lon="2.33054">
        <ele>135.8</ele>
        <time>2015-05-05T20:35:17.021Z</time>
      </trkpt>
      <trkpt lat="48.83206" lon="2.3306">
        <ele>136</ele>
        <time>2015-05-05T20:35:18.036Z</time>
      </trkpt>
      <trkpt lat="48.83213" lon="2.33065">
        <ele>136.3</ele>
        <time>2015-05-05T20:35:19.047Z</time>
      </trkpt>
      <trkpt lat="48.83221" lon="2.33072">
        <ele>136.4</ele>
        <time>2015-05-05T20:35:20.065Z</time>
      </trkpt>
      <trkpt lat="48.8323" lon="2.33077">
        <ele>136.8</ele>
        <time>2015-05-05T20:35:21.075Z</time>
      </trkpt>
      <trkpt lat="48.83236" lon="2.33081">
        <ele>137</ele>
        <time>2015-05-05T20:35:22.086Z</time>
      </trkpt>
      <trkpt lat="48.83242" lon="2.33086">
        <ele>137.1</ele>
        <time>2015-05-05T20:35:23.057Z</time>
      </trkpt>
      <trkpt lat="48.83247" lon="2.3309">
        <ele>137.2</ele>
        <time>2015-05-05T20:35:23.994Z</time>
      </trkpt>
      <trkpt lat="48.83253" lon="2.33095">
        <ele>137.6</ele>
        <time>2015-05-05T20:35:25Z</time>
      </trkpt>
      <trkpt lat="48.83259" lon="2.33099">
        <ele>137.9</ele>
        <time>2015-05-05T20:35:26.007Z</time>
      </trkpt>
      <trkpt lat="48.83264" lon="2.33104">
        <ele>138.2</ele>
        <time>2015-05-05T20:35:27.015Z</time>
      </trkpt>
      <trkpt lat="48.83268" lon="2.33109">
        <ele>138.3</ele>
        <time>2015-05-05T20:35:28.022Z</time>
      </trkpt>
      <trkpt lat="48.83273" lon="2.33114">
        <ele>138.3</ele>
        <time>2015-05-05T20:35:29.032Z</time>
      </trkpt>
      <trkpt lat="48.83279" lon="2.33118">
        <ele>138.4</ele>
        <time>2015-05-05T20:35:30.035Z</time>
      </trkpt>
      <trkpt lat="48.83285" lon="2.33122">
        <ele>138.4</ele>
        <time>2015-05-05T20:35:31.041Z</time>
      </trkpt>
      <trkpt lat="48.8329" lon="2.33125">
        <ele>138.5</ele>
        <time>2015-05-05T20:35:32.007Z</time>
      </trkpt>
      <trkpt lat="48.83294" lon="2.33129">
        <ele>138.5</ele>
        <time>2015-05-05T20:35:33.020Z</time>
      </trkpt>
      <trkpt lat="48.83299" lon="2.33133">
        <ele>138.7</ele>
        <time>2015-05-05T20:35:34.128Z</time>
      </trkpt>
      <trkpt lat="48.83304" lon="2.33137">
        <ele>138.9</ele>
        <time>2015-05-05T20:35:34.984Z</time>
      </trkpt>
      <trkpt lat="48.83308" lon="2.33142">
        <ele>139</ele>
        <time>2015-05-05T20:35:36.007Z</time>
      </trkpt>
      <trkpt lat="48.83311" lon="2.33147">
        <ele>139.1</ele>
        <time>2015-05-05T20:35:37.012Z</time>
      </trkpt>
      <trkpt lat="48.83317" lon="2.33151">
        <ele>139.8</ele>
        <time>2015-05-05T20:35:38.062Z</time>
      </trkpt>
      <trkpt lat="48.83321" lon="2.33155">
        <ele>140.2</ele>
        <time>2015-05-05T20:35:38.966Z</time>
      </trkpt>
      <trkpt lat="48.83326" lon="2.33159">
        <ele>140.4</ele>
        <time>2015-05-05T20:35:40.024Z</time>
      </trkpt>
      <trkpt lat="48.83331" lon="2.33163">
        <ele>140.4</ele>
        <time>2015-05-05T20:35:41.033Z</time>
      </trkpt>
      <trkpt lat="48.83335" lon="2.33165">
        <ele>139.3</ele>
        <time>2015-05-05T20:35:41.981Z</time>
      </trkpt>
      <trkpt lat="48.83341" lon="2.33167">
        <ele>138.4</ele>
        <time>2015-05-05T20:35:42.990Z</time>
      </trkpt>
      <trkpt lat="48.83346" lon="2.3317">
        <ele>138.5</ele>
        <time>2015-05-05T20:35:44.003Z</time>
      </trkpt>
      <trkpt lat="48.83351" lon="2.33173">
        <ele>138.5</ele>
        <time>2015-05-05T20:35:45.066Z</time>
      </trkpt>
      <trkpt lat="48.83357" lon="2.33177">
        <ele>138.4</ele>
        <time>2015-05-05T20:35:46.099Z</time>
      </trkpt>
      <trkpt lat="48.83361" lon="2.33181">
        <ele>138.3</ele>
        <time>2015-05-05T20:35:46.981Z</time>
      </trkpt>
      <trkpt lat="48.83367" lon="2.33188">
        <ele>138.4</ele>
        <time>2015-05-05T20:35:48.991Z</time>
      </trkpt>
      <trkpt lat="48.8337" lon="2.33192">
        <ele>138.5</ele>
        <time>2015-05-05T20:35:50.052Z</time>
      </trkpt>
      <trkpt lat="48.83376" lon="2.332">
        <ele>139</ele>
        <time>2015-05-05T20:35:53.041Z</time>
      </trkpt>
      <trkpt lat="48.83378" lon="2.33202">
        <ele>139.3</ele>
        <time>2015-05-05T20:35:54.055Z</time>
      </trkpt>
      <trkpt lat="48.83385" lon="2.33203">
        <ele>137.7</ele>
        <time>2015-05-05T20:35:58.986Z</time>
      </trkpt>
      <trkpt lat="48.83387" lon="2.33204">
        <ele>136.8</ele>
        <time>2015-05-05T20:36:00.073Z</time>
      </trkpt>
      <trkpt lat="48.83392" lon="2.33212">
        <ele>135.5</ele>
        <time>2015-05-05T20:36:02.971Z</time>
      </trkpt>
      <trkpt lat="48.83395" lon="2.33215">
        <ele>135</ele>
        <time>2015-05-05T20:36:04.107Z</time>
      </trkpt>
      <trkpt lat="48.83403" lon="2.33219">
        <ele>133.6</ele>
        <time>2015-05-05T20:36:05.984Z</time>
      </trkpt>
      <trkpt lat="48.83406" lon="2.33222">
        <ele>133.1</ele>
        <time>2015-05-05T20:36:07.057Z</time>
      </trkpt>
      <trkpt lat="48.83413" lon="2.33226">
        <ele>132.3</ele>
        <time>2015-05-05T20:36:08.968Z</time>
      </trkpt>
      <trkpt lat="48.83417" lon="2.33228">
        <ele>132.3</ele>
        <time>2015-05-05T20:36:10.049Z</time>
      </trkpt>
      <trkpt lat="48.83424" lon="2.33235">
        <ele>132.7</ele>
        <time>2015-05-05T20:36:12.003Z</time>
      </trkpt>
      <trkpt lat="48.83428" lon="2.33239">
        <ele>132.2</ele>
        <time>2015-05-05T20:36:13.020Z</time>
      </trkpt>
      <trkpt lat="48.83432" lon="2.33244">
        <ele>132.5</ele>
        <time>2015-05-05T20:36:14.067Z</time>
      </trkpt>
      <trkpt lat="48.83436" lon="2.33248">
        <ele>132.3</ele>
        <time>2015-05-05T20:36:15.078Z</time>
      </trkpt>
      <trkpt lat="48.83441" lon="2.33257">
        <ele>132.2</ele>
        <time>2015-05-05T20:36:17Z</time>
      </trkpt>
      <trkpt lat="48.83443" lon="2.33263">
        <ele>132</ele>
        <time>2015-05-05T20:36:18.065Z</time>
      </trkpt>
      <trkpt lat="48.8345" lon="2.33271">
        <ele>131.9</ele>
        <time>2015-05-05T20:36:20.026Z</time>
      </trkpt>
      <trkpt lat="48.83453" lon="2.33272">
        <ele>131.5</ele>
        <time>2015-05-05T20:36:21.057Z</time>
      </trkpt>
      <trkpt lat="48.83461" lon="2.33276">
        <ele>131.1</ele>
        <time>2015-05-05T20:36:22.988Z</time>
      </trkpt>
      <trkpt lat="48.83465" lon="2.33278">
        <ele>131</ele>
        <time>2015-05-05T20:36:24.054Z</time>
      </trkpt>
      <trkpt lat="48.83472" lon="2.33281">
        <ele>130.8</ele>
        <time>2015-05-05T20:36:26.003Z</time>
      </trkpt>
      <trkpt lat="48.83475" lon="2.33282">
        <ele>130.3</ele>
        <time>2015-05-05T20:36:27.067Z</time>
      </trkpt>
      <trkpt lat="48.83475" lon="2.33286">
        <ele>128.1</ele>
        <time>2015-05-05T20:36:53.992Z</time>
      </trkpt>
      <trkpt lat="48.83465" lon="2.33278">
        <ele>124.3</ele>
        <time>2015-05-05T20:36:55Z</time>
      </trkpt>
      <trkpt lat="48.8347" lon="2.33282">
        <ele>124.7</ele>
        <time>2015-05-05T20:36:57.047Z</time>
      </trkpt>
      <trkpt lat="48.83473" lon="2.33284">
        <ele>125.4</ele>
        <time>2015-05-05T20:36:58.051Z</time>
      </trkpt>
      <trkpt lat="48.83479" lon="2.33289">
        <ele>126.3</ele>
        <time>2015-05-05T20:37:00.271Z</time>
      </trkpt>
      <trkpt lat="48.83483" lon="2.33292">
        <ele>126.8</ele>
        <time>2015-05-05T20:37:01.012Z</time>
      </trkpt>
      <trkpt lat="48.8349" lon="2.33299">
        <ele>127.8</ele>
        <time>2015-05-05T20:37:03.064Z</time>
      </trkpt>
      <trkpt lat="48.83496" lon="2.33307">
        <ele>127.8</ele>
        <time>2015-05-05T20:37:04.067Z</time>
      </trkpt>
      <trkpt lat="48.835" lon="2.33313">
        <ele>128.1</ele>
        <time>2015-05-05T20:37:04.995Z</time>
      </trkpt>
      <trkpt lat="48.83503" lon="2.33319">
        <ele>128.3</ele>
        <time>2015-05-05T20:37:06.025Z</time>
      </trkpt>
      <trkpt lat="48.83507" lon="2.33326">
        <ele>128.7</ele>
        <time>2015-05-05T20:37:07.035Z</time>
      </trkpt>
      <trkpt lat="48.83511" lon="2.33332">
        <ele>128.7</ele>
        <time>2015-05-05T20:37:08.045Z</time>
      </trkpt>
      <trkpt lat="48.83516" lon="2.33339">
        <ele>128.9</ele>
        <time>2015-05-05T20:37:09.077Z</time>
      </trkpt>
      <trkpt lat="48.8352" lon="2.33344">
        <ele>129.1</ele>
        <time>2015-05-05T20:37:10.179Z</time>
      </trkpt>
      <trkpt lat="48.83522" lon="2.3335">
        <ele>129.4</ele>
        <time>2015-05-05T20:37:11.581Z</time>
      </trkpt>
      <trkpt lat="48.83525" lon="2.33356">
        <ele>129.8</ele>
        <time>2015-05-05T20:37:12.008Z</time>
      </trkpt>
      <trkpt lat="48.83529" lon="2.33361">
        <ele>129.8</ele>
        <time>2015-05-05T20:37:13.022Z</time>
      </trkpt>
      <trkpt lat="48.83533" lon="2.33366">
        <ele>129.6</ele>
        <time>2015-05-05T20:37:14.035Z</time>
      </trkpt>
      <trkpt lat="48.83536" lon="2.33371">
        <ele>129.5</ele>
        <time>2015-05-05T20:37:15.053Z</time>
      </trkpt>
      <trkpt lat="48.83542" lon="2.33375">
        <ele>129.8</ele>
        <time>2015-05-05T20:37:16.058Z</time>
      </trkpt>
      <trkpt lat="48.83548" lon="2.33378">
        <ele>129.9</ele>
        <time>2015-05-05T20:37:17.073Z</time>
      </trkpt>
      <trkpt lat="48.83554" lon="2.33384">
        <ele>130.5</ele>
        <time>2015-05-05T20:37:17.968Z</time>
      </trkpt>
      <trkpt lat="48.83561" lon="2.33388">
        <ele>130.9</ele>
        <time>2015-05-05T20:37:18.992Z</time>
      </trkpt>
      <trkpt lat="48.83568" lon="2.33392">
        <ele>131.3</ele>
        <time>2015-05-05T20:37:20.017Z</time>
      </trkpt>
      <trkpt lat="48.83575" lon="2.33397">
        <ele>131.2</ele>
        <time>2015-05-05T20:37:21.030Z</time>
      </trkpt>
      <trkpt lat="48.83582" lon="2.334">
        <ele>131.1</ele>
        <time>2015-05-05T20:37:22.041Z</time>
      </trkpt>
      <trkpt lat="48.83589" lon="2.33403">
        <ele>130.3</ele>
        <time>2015-05-05T20:37:23.061Z</time>
      </trkpt>
      <trkpt lat="48.83596" lon="2.33406">
        <ele>130.2</ele>
        <time>2015-05-05T20:37:24.054Z</time>
      </trkpt>
      <trkpt lat="48.83604" lon="2.33411">
        <ele>130</ele>
        <time>2015-05-05T20:37:24.970Z</time>
      </trkpt>
      <trkpt lat="48.83612" lon="2.33415">
        <ele>130</ele>
        <time>2015-05-05T20:37:26.010Z</time>
      </trkpt>
      <trkpt lat="48.83619" lon="2.33419">
        <ele>129.9</ele>
        <time>2015-05-05T20:37:27.019Z</time>
      </trkpt>
      <trkpt lat="48.83625" lon="2.33424">
        <ele>129.7</ele>
        <time>2015-05-05T20:37:28.026Z</time>
      </trkpt>
      <trkpt lat="48.83632" lon="2.33427">
        <ele>129.1</ele>
        <time>2015-05-05T20:37:29.043Z</time>
      </trkpt>
      <trkpt lat="48.83637" lon="2.33433">
        <ele>129</ele>
        <time>2015-05-05T20:37:30.078Z</time>
      </trkpt>
      <trkpt lat="48.8364" lon="2.33439">
        <ele>128.8</ele>
        <time>2015-05-05T20:37:31.023Z</time>
      </trkpt>
      <trkpt lat="48.83645" lon="2.33444">
        <ele>128.9</ele>
        <time>2015-05-05T20:37:32.028Z</time>
      </trkpt>
      <trkpt lat="48.83651" lon="2.33449">
        <ele>129</ele>
        <time>2015-05-05T20:37:33.060Z</time>
      </trkpt>
      <trkpt lat="48.83656" lon="2.33455">
        <ele>129</ele>
        <time>2015-05-05T20:37:34.072Z</time>
      </trkpt>
      <trkpt lat="48.83662" lon="2.33461">
        <ele>129.1</ele>
        <time>2015-05-05T20:37:35.078Z</time>
      </trkpt>
      <trkpt lat="48.83668" lon="2.33469">
        <ele>128.8</ele>
        <time>2015-05-05T20:37:35.988Z</time>
      </trkpt>
      <trkpt lat="48.83675" lon="2.33476">
        <ele>128.8</ele>
        <time>2015-05-05T20:37:36.990Z</time>
      </trkpt>
      <trkpt lat="48.83681" lon="2.33481">
        <ele>128.3</ele>
        <time>2015-05-05T20:37:37.999Z</time>
      </trkpt>
      <trkpt lat="48.83688" lon="2.33487">
        <ele>128.1</ele>
        <time>2015-05-05T20:37:39.024Z</time>
      </trkpt>
      <trkpt lat="48.83695" lon="2.33494">
        <ele>127.8</ele>
        <time>2015-05-05T20:37:40.029Z</time>
      </trkpt>
      <trkpt lat="48.83703" lon="2.33501">
        <ele>127.7</ele>
        <time>2015-05-05T20:37:41.035Z</time>
      </trkpt>
      <trkpt lat="48.83711" lon="2.33508">
        <ele>127.3</ele>
        <time>2015-05-05T20:37:42.065Z</time>
      </trkpt>
      <trkpt lat="48.83719" lon="2.33517">
        <ele>127.2</ele>
        <time>2015-05-05T20:37:43.004Z</time>
      </trkpt>
      <trkpt lat="48.83727" lon="2.33524">
        <ele>126.8</ele>
        <time>2015-05-05T20:37:44.040Z</time>
      </trkpt>
      <trkpt lat="48.83735" lon="2.33532">
        <ele>126.4</ele>
        <time>2015-05-05T20:37:45.040Z</time>
      </trkpt>
      <trkpt lat="48.83746" lon="2.3354">
        <ele>127.1</ele>
        <time>2015-05-05T20:37:46.048Z</time>
      </trkpt>
      <trkpt lat="48.83754" lon="2.33546">
        <ele>127.1</ele>
        <time>2015-05-05T20:37:47.059Z</time>
      </trkpt>
      <trkpt lat="48.83761" lon="2.33553">
        <ele>126.8</ele>
        <time>2015-05-05T20:37:47.994Z</time>
      </trkpt>
      <trkpt lat="48.8377" lon="2.33561">
        <ele>126.2</ele>
        <time>2015-05-05T20:37:48.980Z</time>
      </trkpt>
      <trkpt lat="48.83777" lon="2.3357">
        <ele>125.8</ele>
        <time>2015-05-05T20:37:49.991Z</time>
      </trkpt>
      <trkpt lat="48.83783" lon="2.33578">
        <ele>125.8</ele>
        <time>2015-05-05T20:37:51.001Z</time>
      </trkpt>
      <trkpt lat="48.83788" lon="2.33586">
        <ele>126</ele>
        <time>2015-05-05T20:37:52.023Z</time>
      </trkpt>
      <trkpt lat="48.83795" lon="2.33592">
        <ele>125.6</ele>
        <time>2015-05-05T20:37:53.033Z</time>
      </trkpt>
      <trkpt lat="48.838" lon="2.33599">
        <ele>124.9</ele>
        <time>2015-05-05T20:37:54.044Z</time>
      </trkpt>
      <trkpt lat="48.83805" lon="2.33607">
        <ele>125</ele>
        <time>2015-05-05T20:37:55.045Z</time>
      </trkpt>
      <trkpt lat="48.8381" lon="2.33615">
        <ele>125.4</ele>
        <time>2015-05-05T20:37:56.065Z</time>
      </trkpt>
      <trkpt lat="48.83816" lon="2.33621">
        <ele>124.4</ele>
        <time>2015-05-05T20:37:57.010Z</time>
      </trkpt>
      <trkpt lat="48.83823" lon="2.33627">
        <ele>124.1</ele>
        <time>2015-05-05T20:37:58.046Z</time>
      </trkpt>
      <trkpt lat="48.83829" lon="2.33633">
        <ele>123.2</ele>
        <time>2015-05-05T20:37:58.979Z</time>
      </trkpt>
      <trkpt lat="48.83838" lon="2.3364">
        <ele>124.4</ele>
        <time>2015-05-05T20:37:59.974Z</time>
      </trkpt>
      <trkpt lat="48.83845" lon="2.33647">
        <ele>124.5</ele>
        <time>2015-05-05T20:38:00.983Z</time>
      </trkpt>
      <trkpt lat="48.83851" lon="2.33655">
        <ele>124.3</ele>
        <time>2015-05-05T20:38:01.988Z</time>
      </trkpt>
      <trkpt lat="48.83858" lon="2.33661">
        <ele>124.2</ele>
        <time>2015-05-05T20:38:03.011Z</time>
      </trkpt>
      <trkpt lat="48.83865" lon="2.33667">
        <ele>123.7</ele>
        <time>2015-05-05T20:38:04.024Z</time>
      </trkpt>
      <trkpt lat="48.83871" lon="2.33672">
        <ele>124.6</ele>
        <time>2015-05-05T20:38:05.039Z</time>
      </trkpt>
      <trkpt lat="48.83877" lon="2.33676">
        <ele>125.7</ele>
        <time>2015-05-05T20:38:06.047Z</time>
      </trkpt>
      <trkpt lat="48.83882" lon="2.33677">
        <ele>126.5</ele>
        <time>2015-05-05T20:38:07.056Z</time>
      </trkpt>
      <trkpt lat="48.83887" lon="2.33678">
        <ele>126.5</ele>
        <time>2015-05-05T20:38:08.071Z</time>
      </trkpt>
      <trkpt lat="48.83894" lon="2.33677">
        <ele>126.3</ele>
        <time>2015-05-05T20:38:08.980Z</time>
      </trkpt>
      <trkpt lat="48.839" lon="2.33677">
        <ele>126.6</ele>
        <time>2015-05-05T20:38:10.017Z</time>
      </trkpt>
      <trkpt lat="48.83905" lon="2.33677">
        <ele>127.2</ele>
        <time>2015-05-05T20:38:11.023Z</time>
      </trkpt>
      <trkpt lat="48.83911" lon="2.33677">
        <ele>127.6</ele>
        <time>2015-05-05T20:38:12.034Z</time>
      </trkpt>
      <trkpt lat="48.83917" lon="2.33676">
        <ele>127.7</ele>
        <time>2015-05-05T20:38:13.056Z</time>
      </trkpt>
      <trkpt lat="48.83922" lon="2.33676">
        <ele>128.4</ele>
        <time>2015-05-05T20:38:13.980Z</time>
      </trkpt>
      <trkpt lat="48.83927" lon="2.33677">
        <ele>129</ele>
        <time>2015-05-05T20:38:14.984Z</time>
      </trkpt>
      <trkpt lat="48.83931" lon="2.33676">
        <ele>129.3</ele>
        <time>2015-05-05T20:38:16.025Z</time>
      </trkpt>
      <trkpt lat="48.83939" lon="2.33675">
        <ele>127.3</ele>
        <time>2015-05-05T20:38:18.059Z</time>
      </trkpt>
      <trkpt lat="48.83942" lon="2.33674">
        <ele>125.7</ele>
        <time>2015-05-05T20:38:18.976Z</time>
      </trkpt>
      <trkpt lat="48.83951" lon="2.33675">
        <ele>123.1</ele>
        <time>2015-05-05T20:38:23.072Z</time>
      </trkpt>
      <trkpt lat="48.83953" lon="2.33676">
        <ele>123.1</ele>
        <time>2015-05-05T20:38:24.001Z</time>
      </trkpt>
      <trkpt lat="48.8396" lon="2.3368">
        <ele>123</ele>
        <time>2015-05-05T20:38:27.119Z</time>
      </trkpt>
      <trkpt lat="48.83962" lon="2.3368">
        <ele>123</ele>
        <time>2015-05-05T20:38:28.122Z</time>
      </trkpt>
      <trkpt lat="48.8397" lon="2.33679">
        <ele>123.1</ele>
        <time>2015-05-05T20:38:32.995Z</time>
      </trkpt>
      <trkpt lat="48.83972" lon="2.33678">
        <ele>123.2</ele>
        <time>2015-05-05T20:38:34.103Z</time>
      </trkpt>
      <trkpt lat="48.8398" lon="2.33676">
        <ele>122.8</ele>
        <time>2015-05-05T20:38:37.003Z</time>
      </trkpt>
      <trkpt lat="48.83983" lon="2.33677">
        <ele>122.8</ele>
        <time>2015-05-05T20:38:38.024Z</time>
      </trkpt>
      <trkpt lat="48.8399" lon="2.33679">
        <ele>123.1</ele>
        <time>2015-05-05T20:38:40.100Z</time>
      </trkpt>
      <trkpt lat="48.83994" lon="2.33681">
        <ele>123.3</ele>
        <time>2015-05-05T20:38:41.019Z</time>
      </trkpt>
      <trkpt lat="48.83998" lon="2.33683">
        <ele>123.3</ele>
        <time>2015-05-05T20:38:42.043Z</time>
      </trkpt>
      <trkpt lat="48.84002" lon="2.33685">
        <ele>123.2</ele>
        <time>2015-05-05T20:38:43.054Z</time>
      </trkpt>
      <trkpt lat="48.84007" lon="2.33687">
        <ele>123.4</ele>
        <time>2015-05-05T20:38:44.063Z</time>
      </trkpt>
      <trkpt lat="48.84012" lon="2.3369">
        <ele>123.6</ele>
        <time>2015-05-05T20:38:45.068Z</time>
      </trkpt>
      <trkpt lat="48.84018" lon="2.33694">
        <ele>123.4</ele>
        <time>2015-05-05T20:38:46.085Z</time>
      </trkpt>
      <trkpt lat="48.84024" lon="2.33697">
        <ele>123</ele>
        <time>2015-05-05T20:38:46.986Z</time>
      </trkpt>
      <trkpt lat="48.8403" lon="2.337">
        <ele>122.7</ele>
        <time>2015-05-05T20:38:47.991Z</time>
      </trkpt>
      <trkpt lat="48.84036" lon="2.33704">
        <ele>122.3</ele>
        <time>2015-05-05T20:38:49.012Z</time>
      </trkpt>
      <trkpt lat="48.84042" lon="2.33706">
        <ele>121.8</ele>
        <time>2015-05-05T20:38:50.018Z</time>
      </trkpt>
      <trkpt lat="48.84049" lon="2.33709">
        <ele>121.8</ele>
        <time>2015-05-05T20:38:51.025Z</time>
      </trkpt>
      <trkpt lat="48.84055" lon="2.33711">
        <ele>121.4</ele>
        <time>2015-05-05T20:38:52.075Z</time>
      </trkpt>
      <trkpt lat="48.8406" lon="2.33713">
        <ele>121</ele>
        <time>2015-05-05T20:38:53.057Z</time>
      </trkpt>
      <trkpt lat="48.84066" lon="2.33716">
        <ele>120.3</ele>
        <time>2015-05-05T20:38:54.065Z</time>
      </trkpt>
      <trkpt lat="48.84072" lon="2.33719">
        <ele>119.6</ele>
        <time>2015-05-05T20:38:55.079Z</time>
      </trkpt>
      <trkpt lat="48.84076" lon="2.33721">
        <ele>119</ele>
        <time>2015-05-05T20:38:55.991Z</time>
      </trkpt>
      <trkpt lat="48.84081" lon="2.33724">
        <ele>118.4</ele>
        <time>2015-05-05T20:38:57.018Z</time>
      </trkpt>
      <trkpt lat="48.84086" lon="2.33726">
        <ele>118.1</ele>
        <time>2015-05-05T20:38:58.029Z</time>
      </trkpt>
      <trkpt lat="48.8409" lon="2.33726">
        <ele>117.8</ele>
        <time>2015-05-05T20:38:59.040Z</time>
      </trkpt>
      <trkpt lat="48.84095" lon="2.33726">
        <ele>117.6</ele>
        <time>2015-05-05T20:39:00.057Z</time>
      </trkpt>
      <trkpt lat="48.84101" lon="2.33727">
        <ele>117.6</ele>
        <time>2015-05-05T20:39:01.070Z</time>
      </trkpt>
      <trkpt lat="48.84107" lon="2.33732">
        <ele>117.6</ele>
        <time>2015-05-05T20:39:02.086Z</time>
      </trkpt>
      <trkpt lat="48.84114" lon="2.33737">
        <ele>117.8</ele>
        <time>2015-05-05T20:39:02.991Z</time>
      </trkpt>
      <trkpt lat="48.84122" lon="2.33742">
        <ele>117.6</ele>
        <time>2015-05-05T20:39:04.069Z</time>
      </trkpt>
      <trkpt lat="48.84129" lon="2.33745">
        <ele>117.5</ele>
        <time>2015-05-05T20:39:05.076Z</time>
      </trkpt>
      <trkpt lat="48.84138" lon="2.3375">
        <ele>117.9</ele>
        <time>2015-05-05T20:39:05.987Z</time>
      </trkpt>
      <trkpt lat="48.84147" lon="2.33755">
        <ele>117.5</ele>
        <time>2015-05-05T20:39:06.998Z</time>
      </trkpt>
      <trkpt lat="48.84157" lon="2.33761">
        <ele>117.4</ele>
        <time>2015-05-05T20:39:08.016Z</time>
      </trkpt>
      <trkpt lat="48.84165" lon="2.33766">
        <ele>117.3</ele>
        <time>2015-05-05T20:39:09.027Z</time>
      </trkpt>
      <trkpt lat="48.84172" lon="2.33771">
        <ele>117.4</ele>
        <time>2015-05-05T20:39:10.032Z</time>
      </trkpt>
      <trkpt lat="48.8418" lon="2.33776">
        <ele>117.4</ele>
        <time>2015-05-05T20:39:11.054Z</time>
      </trkpt>
      <trkpt lat="48.84188" lon="2.33778">
        <ele>118.4</ele>
        <time>2015-05-05T20:39:12.057Z</time>
      </trkpt>
      <trkpt lat="48.84196" lon="2.33781">
        <ele>119.2</ele>
        <time>2015-05-05T20:39:13.061Z</time>
      </trkpt>
      <trkpt lat="48.84203" lon="2.33784">
        <ele>120.1</ele>
        <time>2015-05-05T20:39:13.968Z</time>
      </trkpt>
      <trkpt lat="48.84209" lon="2.33787">
        <ele>120.7</ele>
        <time>2015-05-05T20:39:14.995Z</time>
      </trkpt>
      <trkpt lat="48.84215" lon="2.33789">
        <ele>121.1</ele>
        <time>2015-05-05T20:39:16.028Z</time>
      </trkpt>
      <trkpt lat="48.8422" lon="2.33792">
        <ele>121.6</ele>
        <time>2015-05-05T20:39:17.043Z</time>
      </trkpt>
      <trkpt lat="48.84227" lon="2.33795">
        <ele>122.2</ele>
        <time>2015-05-05T20:39:18.055Z</time>
      </trkpt>
      <trkpt lat="48.84238" lon="2.33799">
        <ele>122.4</ele>
        <time>2015-05-05T20:39:19.061Z</time>
      </trkpt>
      <trkpt lat="48.84253" lon="2.33803">
        <ele>123.4</ele>
        <time>2015-05-05T20:39:19.978Z</time>
      </trkpt>
      <trkpt lat="48.84263" lon="2.33808">
        <ele>123.5</ele>
        <time>2015-05-05T20:39:20.986Z</time>
      </trkpt>
      <trkpt lat="48.8427" lon="2.33812">
        <ele>123.6</ele>
        <time>2015-05-05T20:39:22.020Z</time>
      </trkpt>
      <trkpt lat="48.84276" lon="2.33815">
        <ele>123.7</ele>
        <time>2015-05-05T20:39:23.019Z</time>
      </trkpt>
      <trkpt lat="48.84282" lon="2.33819">
        <ele>123.9</ele>
        <time>2015-05-05T20:39:24.024Z</time>
      </trkpt>
      <trkpt lat="48.84287" lon="2.33822">
        <ele>124.4</ele>
        <time>2015-05-05T20:39:25.030Z</time>
      </trkpt>
      <trkpt lat="48.84294" lon="2.33827">
        <ele>124.8</ele>
        <time>2015-05-05T20:39:26.035Z</time>
      </trkpt>
      <trkpt lat="48.84299" lon="2.33831">
        <ele>125</ele>
        <time>2015-05-05T20:39:27.045Z</time>
      </trkpt>
      <trkpt lat="48.84304" lon="2.33836">
        <ele>125.1</ele>
        <time>2015-05-05T20:39:28.052Z</time>
      </trkpt>
      <trkpt lat="48.84311" lon="2.33841">
        <ele>125.2</ele>
        <time>2015-05-05T20:39:29.067Z</time>
      </trkpt>
      <trkpt lat="48.84317" lon="2.33845">
        <ele>125.7</ele>
        <time>2015-05-05T20:39:29.979Z</time>
      </trkpt>
      <trkpt lat="48.84325" lon="2.33848">
        <ele>126.8</ele>
        <time>2015-05-05T20:39:30.986Z</time>
      </trkpt>
      <trkpt lat="48.84329" lon="2.33851">
        <ele>127.5</ele>
        <time>2015-05-05T20:39:31.996Z</time>
      </trkpt>
      <trkpt lat="48.84335" lon="2.33855">
        <ele>128.2</ele>
        <time>2015-05-05T20:39:33.015Z</time>
      </trkpt>
      <trkpt lat="48.84344" lon="2.33858">
        <ele>128.8</ele>
        <time>2015-05-05T20:39:34.054Z</time>
      </trkpt>
      <trkpt lat="48.84352" lon="2.33863">
        <ele>129.4</ele>
        <time>2015-05-05T20:39:34.975Z</time>
      </trkpt>
      <trkpt lat="48.84359" lon="2.33866">
        <ele>129.9</ele>
        <time>2015-05-05T20:39:35.950Z</time>
      </trkpt>
      <trkpt lat="48.84367" lon="2.33871">
        <ele>130.2</ele>
        <time>2015-05-05T20:39:36.984Z</time>
      </trkpt>
      <trkpt lat="48.84376" lon="2.33875">
        <ele>130.3</ele>
        <time>2015-05-05T20:39:37.995Z</time>
      </trkpt>
      <trkpt lat="48.84387" lon="2.33881">
        <ele>128.2</ele>
        <time>2015-05-05T20:39:39.027Z</time>
      </trkpt>
      <trkpt lat="48.84398" lon="2.33889">
        <ele>127.2</ele>
        <time>2015-05-05T20:39:39.983Z</time>
      </trkpt>
      <trkpt lat="48.84405" lon="2.33895">
        <ele>126.9</ele>
        <time>2015-05-05T20:39:40.947Z</time>
      </trkpt>
      <trkpt lat="48.84414" lon="2.33899">
        <ele>126</ele>
        <time>2015-05-05T20:39:41.958Z</time>
      </trkpt>
      <trkpt lat="48.84421" lon="2.33903">
        <ele>126.1</ele>
        <time>2015-05-05T20:39:42.995Z</time>
      </trkpt>
      <trkpt lat="48.84429" lon="2.33906">
        <ele>126.4</ele>
        <time>2015-05-05T20:39:44.023Z</time>
      </trkpt>
      <trkpt lat="48.84436" lon="2.3391">
        <ele>126.1</ele>
        <time>2015-05-05T20:39:45.050Z</time>
      </trkpt>
      <trkpt lat="48.84443" lon="2.33914">
        <ele>125.9</ele>
        <time>2015-05-05T20:39:46.066Z</time>
      </trkpt>
      <trkpt lat="48.8445" lon="2.33918">
        <ele>126.2</ele>
        <time>2015-05-05T20:39:47.022Z</time>
      </trkpt>
      <trkpt lat="48.84456" lon="2.33923">
        <ele>126</ele>
        <time>2015-05-05T20:39:48.024Z</time>
      </trkpt>
      <trkpt lat="48.84461" lon="2.33927">
        <ele>125.6</ele>
        <time>2015-05-05T20:39:49.060Z</time>
      </trkpt>
      <trkpt lat="48.84468" lon="2.33932">
        <ele>125.6</ele>
        <time>2015-05-05T20:39:50.078Z</time>
      </trkpt>
      <trkpt lat="48.84475" lon="2.33938">
        <ele>125.2</ele>
        <time>2015-05-05T20:39:50.985Z</time>
      </trkpt>
      <trkpt lat="48.84482" lon="2.33941">
        <ele>124.9</ele>
        <time>2015-05-05T20:39:52.063Z</time>
      </trkpt>
      <trkpt lat="48.84488" lon="2.33946">
        <ele>124.9</ele>
        <time>2015-05-05T20:39:52.992Z</time>
      </trkpt>
      <trkpt lat="48.84494" lon="2.33951">
        <ele>124.8</ele>
        <time>2015-05-05T20:39:53.993Z</time>
      </trkpt>
      <trkpt lat="48.845" lon="2.33954">
        <ele>125.1</ele>
        <time>2015-05-05T20:39:54.990Z</time>
      </trkpt>
      <trkpt lat="48.84506" lon="2.33958">
        <ele>125.7</ele>
        <time>2015-05-05T20:39:56Z</time>
      </trkpt>
      <trkpt lat="48.84511" lon="2.33962">
        <ele>126.2</ele>
        <time>2015-05-05T20:39:57.042Z</time>
      </trkpt>
      <trkpt lat="48.84516" lon="2.33968">
        <ele>126.3</ele>
        <time>2015-05-05T20:39:58.039Z</time>
      </trkpt>
      <trkpt lat="48.84521" lon="2.33973">
        <ele>126.1</ele>
        <time>2015-05-05T20:39:59.064Z</time>
      </trkpt>
      <trkpt lat="48.84525" lon="2.33977">
        <ele>126</ele>
        <time>2015-05-05T20:40:00.062Z</time>
      </trkpt>
      <trkpt lat="48.84529" lon="2.33981">
        <ele>126.3</ele>
        <time>2015-05-05T20:40:00.977Z</time>
      </trkpt>
      <trkpt lat="48.84533" lon="2.33985">
        <ele>126.4</ele>
        <time>2015-05-05T20:40:02.007Z</time>
      </trkpt>
      <trkpt lat="48.84537" lon="2.33988">
        <ele>126.7</ele>
        <time>2015-05-05T20:40:03.024Z</time>
      </trkpt>
      <trkpt lat="48.84543" lon="2.33991">
        <ele>126.9</ele>
        <time>2015-05-05T20:40:04.074Z</time>
      </trkpt>
      <trkpt lat="48.8455" lon="2.33994">
        <ele>126.4</ele>
        <time>2015-05-05T20:40:04.988Z</time>
      </trkpt>
      <trkpt lat="48.84558" lon="2.33996">
        <ele>126.6</ele>
        <time>2015-05-05T20:40:05.988Z</time>
      </trkpt>
      <trkpt lat="48.84567" lon="2.33997">
        <ele>126.4</ele>
        <time>2015-05-05T20:40:07.010Z</time>
      </trkpt>
      <trkpt lat="48.84576" lon="2.33999">
        <ele>126.1</ele>
        <time>2015-05-05T20:40:08.050Z</time>
      </trkpt>
      <trkpt lat="48.84585" lon="2.34002">
        <ele>125.6</ele>
        <time>2015-05-05T20:40:09.058Z</time>
      </trkpt>
      <trkpt lat="48.84595" lon="2.34007">
        <ele>124.9</ele>
        <time>2015-05-05T20:40:10.073Z</time>
      </trkpt>
      <trkpt lat="48.84607" lon="2.3401">
        <ele>122.7</ele>
        <time>2015-05-05T20:40:11.003Z</time>
      </trkpt>
      <trkpt lat="48.84616" lon="2.34011">
        <ele>121.2</ele>
        <time>2015-05-05T20:40:12.032Z</time>
      </trkpt>
      <trkpt lat="48.84625" lon="2.34013">
        <ele>120.4</ele>
        <time>2015-05-05T20:40:13.039Z</time>
      </trkpt>
      <trkpt lat="48.84633" lon="2.34017">
        <ele>119.9</ele>
        <time>2015-05-05T20:40:14.041Z</time>
      </trkpt>
      <trkpt lat="48.84641" lon="2.34021">
        <ele>119.1</ele>
        <time>2015-05-05T20:40:14.988Z</time>
      </trkpt>
      <trkpt lat="48.84649" lon="2.34027">
        <ele>119</ele>
        <time>2015-05-05T20:40:16.028Z</time>
      </trkpt>
      <trkpt lat="48.84656" lon="2.34031">
        <ele>118.6</ele>
        <time>2015-05-05T20:40:17.098Z</time>
      </trkpt>
      <trkpt lat="48.84662" lon="2.34035">
        <ele>117.9</ele>
        <time>2015-05-05T20:40:17.997Z</time>
      </trkpt>
      <trkpt lat="48.84667" lon="2.34037">
        <ele>117.6</ele>
        <time>2015-05-05T20:40:18.995Z</time>
      </trkpt>
      <trkpt lat="48.84671" lon="2.34041">
        <ele>117.6</ele>
        <time>2015-05-05T20:40:20.008Z</time>
      </trkpt>
      <trkpt lat="48.84677" lon="2.34045">
        <ele>117.6</ele>
        <time>2015-05-05T20:40:21.057Z</time>
      </trkpt>
      <trkpt lat="48.84684" lon="2.3405">
        <ele>117.5</ele>
        <time>2015-05-05T20:40:22.061Z</time>
      </trkpt>
      <trkpt lat="48.84689" lon="2.34055">
        <ele>117.4</ele>
        <time>2015-05-05T20:40:22.991Z</time>
      </trkpt>
      <trkpt lat="48.84694" lon="2.34058">
        <ele>117.5</ele>
        <time>2015-05-05T20:40:23.986Z</time>
      </trkpt>
      <trkpt lat="48.84698" lon="2.34062">
        <ele>117.3</ele>
        <time>2015-05-05T20:40:24.996Z</time>
      </trkpt>
      <trkpt lat="48.84702" lon="2.34065">
        <ele>117.2</ele>
        <time>2015-05-05T20:40:26.018Z</time>
      </trkpt>
      <trkpt lat="48.84708" lon="2.34068">
        <ele>117.4</ele>
        <time>2015-05-05T20:40:28.077Z</time>
      </trkpt>
      <trkpt lat="48.84714" lon="2.34069">
        <ele>117</ele>
        <time>2015-05-05T20:40:28.986Z</time>
      </trkpt>
      <trkpt lat="48.84721" lon="2.3407">
        <ele>117.2</ele>
        <time>2015-05-05T20:40:31.010Z</time>
      </trkpt>
      <trkpt lat="48.84725" lon="2.34071">
        <ele>117.5</ele>
        <time>2015-05-05T20:40:32.031Z</time>
      </trkpt>
      <trkpt lat="48.8473" lon="2.34075">
        <ele>117.2</ele>
        <time>2015-05-05T20:40:33.039Z</time>
      </trkpt>
      <trkpt lat="48.84735" lon="2.34078">
        <ele>117</ele>
        <time>2015-05-05T20:40:34.050Z</time>
      </trkpt>
      <trkpt lat="48.84742" lon="2.34084">
        <ele>116.8</ele>
        <time>2015-05-05T20:40:36.005Z</time>
      </trkpt>
      <trkpt lat="48.84745" lon="2.34085">
        <ele>116.6</ele>
        <time>2015-05-05T20:40:37.070Z</time>
      </trkpt>
      <trkpt lat="48.84752" lon="2.34086">
        <ele>116</ele>
        <time>2015-05-05T20:40:40.033Z</time>
      </trkpt>
      <trkpt lat="48.84754" lon="2.34088">
        <ele>116.8</ele>
        <time>2015-05-05T20:40:41.070Z</time>
      </trkpt>
      <trkpt lat="48.84752" lon="2.34088">
        <ele>117.8</ele>
        <time>2015-05-05T20:41:25.992Z</time>
      </trkpt>
      <trkpt lat="48.84728" lon="2.34083">
        <ele>113.3</ele>
        <time>2015-05-05T20:41:27.010Z</time>
      </trkpt>
      <trkpt lat="48.84731" lon="2.34087">
        <ele>112.9</ele>
        <time>2015-05-05T20:41:45.024Z</time>
      </trkpt>
      <trkpt lat="48.84744" lon="2.34089">
        <ele>113.2</ele>
        <time>2015-05-05T20:41:46.028Z</time>
      </trkpt>
      <trkpt lat="48.84747" lon="2.34098">
        <ele>113.5</ele>
        <time>2015-05-05T20:41:49.077Z</time>
      </trkpt>
      <trkpt lat="48.84749" lon="2.34102">
        <ele>113.7</ele>
        <time>2015-05-05T20:41:50.023Z</time>
      </trkpt>
      <trkpt lat="48.84754" lon="2.34113">
        <ele>114.1</ele>
        <time>2015-05-05T20:41:52.124Z</time>
      </trkpt>
      <trkpt lat="48.84757" lon="2.34118">
        <ele>114.1</ele>
        <time>2015-05-05T20:41:53.079Z</time>
      </trkpt>
      <trkpt lat="48.8476" lon="2.34127">
        <ele>114.1</ele>
        <time>2015-05-05T20:41:54.087Z</time>
      </trkpt>
      <trkpt lat="48.84765" lon="2.34138">
        <ele>113.8</ele>
        <time>2015-05-05T20:41:55.002Z</time>
      </trkpt>
      <trkpt lat="48.84768" lon="2.34144">
        <ele>114.1</ele>
        <time>2015-05-05T20:41:56.025Z</time>
      </trkpt>
      <trkpt lat="48.84773" lon="2.34149">
        <ele>114.1</ele>
        <time>2015-05-05T20:41:57.005Z</time>
      </trkpt>
      <trkpt lat="48.84779" lon="2.34156">
        <ele>114.2</ele>
        <time>2015-05-05T20:41:58.034Z</time>
      </trkpt>
      <trkpt lat="48.84785" lon="2.34162">
        <ele>114.2</ele>
        <time>2015-05-05T20:41:59.036Z</time>
      </trkpt>
      <trkpt lat="48.84791" lon="2.34169">
        <ele>114.2</ele>
        <time>2015-05-05T20:42:00.093Z</time>
      </trkpt>
      <trkpt lat="48.84798" lon="2.34173">
        <ele>114</ele>
        <time>2015-05-05T20:42:00.992Z</time>
      </trkpt>
      <trkpt lat="48.84805" lon="2.34178">
        <ele>113.8</ele>
        <time>2015-05-05T20:42:02.028Z</time>
      </trkpt>
      <trkpt lat="48.84814" lon="2.34185">
        <ele>113.2</ele>
        <time>2015-05-05T20:42:03.031Z</time>
      </trkpt>
      <trkpt lat="48.84821" lon="2.34186">
        <ele>112.2</ele>
        <time>2015-05-05T20:42:04.064Z</time>
      </trkpt>
      <trkpt lat="48.84828" lon="2.34189">
        <ele>112.6</ele>
        <time>2015-05-05T20:42:05.059Z</time>
      </trkpt>
      <trkpt lat="48.84833" lon="2.34191">
        <ele>112.6</ele>
        <time>2015-05-05T20:42:05.982Z</time>
      </trkpt>
      <trkpt lat="48.84839" lon="2.34193">
        <ele>112.8</ele>
        <time>2015-05-05T20:42:07.038Z</time>
      </trkpt>
      <trkpt lat="48.84845" lon="2.34196">
        <ele>112.8</ele>
        <time>2015-05-05T20:42:07.981Z</time>
      </trkpt>
      <trkpt lat="48.8485" lon="2.34199">
        <ele>112.9</ele>
        <time>2015-05-05T20:42:08.992Z</time>
      </trkpt>
      <trkpt lat="48.84856" lon="2.34204">
        <ele>113.1</ele>
        <time>2015-05-05T20:42:10.052Z</time>
      </trkpt>
      <trkpt lat="48.84864" lon="2.34209">
        <ele>113.3</ele>
        <time>2015-05-05T20:42:11.064Z</time>
      </trkpt>
      <trkpt lat="48.84871" lon="2.34214">
        <ele>113.6</ele>
        <time>2015-05-05T20:42:12.011Z</time>
      </trkpt>
      <trkpt lat="48.84877" lon="2.34219">
        <ele>113.6</ele>
        <time>2015-05-05T20:42:13.037Z</time>
      </trkpt>
      <trkpt lat="48.84882" lon="2.34225">
        <ele>113.5</ele>
        <time>2015-05-05T20:42:13.998Z</time>
      </trkpt>
      <trkpt lat="48.84885" lon="2.34229">
        <ele>113.3</ele>
        <time>2015-05-05T20:42:14.994Z</time>
      </trkpt>
      <trkpt lat="48.84892" lon="2.34235">
        <ele>113.2</ele>
        <time>2015-05-05T20:42:17.023Z</time>
      </trkpt>
      <trkpt lat="48.84895" lon="2.34239">
        <ele>113.1</ele>
        <time>2015-05-05T20:42:18.030Z</time>
      </trkpt>
      <trkpt lat="48.84899" lon="2.34242">
        <ele>113.3</ele>
        <time>2015-05-05T20:42:19.044Z</time>
      </trkpt>
      <trkpt lat="48.84904" lon="2.34246">
        <ele>113.3</ele>
        <time>2015-05-05T20:42:20.136Z</time>
      </trkpt>
      <trkpt lat="48.84908" lon="2.34249">
        <ele>113.4</ele>
        <time>2015-05-05T20:42:20.946Z</time>
      </trkpt>
      <trkpt lat="48.84913" lon="2.34252">
        <ele>113.4</ele>
        <time>2015-05-05T20:42:22.021Z</time>
      </trkpt>
      <trkpt lat="48.84921" lon="2.34254">
        <ele>113.4</ele>
        <time>2015-05-05T20:42:24.043Z</time>
      </trkpt>
      <trkpt lat="48.84925" lon="2.34255">
        <ele>113.4</ele>
        <time>2015-05-05T20:42:25.147Z</time>
      </trkpt>
      <trkpt lat="48.84931" lon="2.34259">
        <ele>113.6</ele>
        <time>2015-05-05T20:42:27.017Z</time>
      </trkpt>
      <trkpt lat="48.84937" lon="2.34265">
        <ele>113.5</ele>
        <time>2015-05-05T20:42:28.056Z</time>
      </trkpt>
      <trkpt lat="48.84942" lon="2.34267">
        <ele>113.5</ele>
        <time>2015-05-05T20:42:37.017Z</time>
      </trkpt>
      <trkpt lat="48.84975" lon="2.34272">
        <ele>109.7</ele>
        <time>2015-05-05T20:42:38.030Z</time>
      </trkpt>
      <trkpt lat="48.84979" lon="2.34275">
        <ele>109.6</ele>
        <time>2015-05-05T20:42:39.070Z</time>
      </trkpt>
      <trkpt lat="48.84984" lon="2.3428">
        <ele>109.4</ele>
        <time>2015-05-05T20:42:40.067Z</time>
      </trkpt>
      <trkpt lat="48.8499" lon="2.34284">
        <ele>107.9</ele>
        <time>2015-05-05T20:42:41.072Z</time>
      </trkpt>
      <trkpt lat="48.84997" lon="2.34288">
        <ele>107.7</ele>
        <time>2015-05-05T20:42:41.974Z</time>
      </trkpt>
      <trkpt lat="48.85005" lon="2.3429">
        <ele>107.4</ele>
        <time>2015-05-05T20:42:42.984Z</time>
      </trkpt>
      <trkpt lat="48.85011" lon="2.34293">
        <ele>106.8</ele>
        <time>2015-05-05T20:42:43.987Z</time>
      </trkpt>
      <trkpt lat="48.85017" lon="2.34296">
        <ele>106.7</ele>
        <time>2015-05-05T20:42:45.010Z</time>
      </trkpt>
      <trkpt lat="48.85024" lon="2.34299">
        <ele>106.7</ele>
        <time>2015-05-05T20:42:46.025Z</time>
      </trkpt>
      <trkpt lat="48.85032" lon="2.34302">
        <ele>106.7</ele>
        <time>2015-05-05T20:42:47.031Z</time>
      </trkpt>
      <trkpt lat="48.85039" lon="2.34305">
        <ele>106.9</ele>
        <time>2015-05-05T20:42:48.041Z</time>
      </trkpt>
      <trkpt lat="48.85046" lon="2.34309">
        <ele>107.2</ele>
        <time>2015-05-05T20:42:49.057Z</time>
      </trkpt>
      <trkpt lat="48.85053" lon="2.34312">
        <ele>107.6</ele>
        <time>2015-05-05T20:42:49.949Z</time>
      </trkpt>
      <trkpt lat="48.85058" lon="2.34315">
        <ele>108</ele>
        <time>2015-05-05T20:42:50.977Z</time>
      </trkpt>
      <trkpt lat="48.85063" lon="2.34316">
        <ele>108.4</ele>
        <time>2015-05-05T20:42:52.008Z</time>
      </trkpt>
      <trkpt lat="48.8507" lon="2.34318">
        <ele>109</ele>
        <time>2015-05-05T20:42:54.052Z</time>
      </trkpt>
      <trkpt lat="48.85074" lon="2.3432">
        <ele>107.9</ele>
        <time>2015-05-05T20:42:55.003Z</time>
      </trkpt>
      <trkpt lat="48.8508" lon="2.34321">
        <ele>105.8</ele>
        <time>2015-05-05T20:42:55.978Z</time>
      </trkpt>
      <trkpt lat="48.85085" lon="2.3432">
        <ele>104.2</ele>
        <time>2015-05-05T20:42:56.976Z</time>
      </trkpt>
      <trkpt lat="48.85091" lon="2.34321">
        <ele>102.4</ele>
        <time>2015-05-05T20:42:59.005Z</time>
      </trkpt>
      <trkpt lat="48.85096" lon="2.34321">
        <ele>102.5</ele>
        <time>2015-05-05T20:43:00.066Z</time>
      </trkpt>
      <trkpt lat="48.85102" lon="2.34322">
        <ele>103.1</ele>
        <time>2015-05-05T20:43:00.972Z</time>
      </trkpt>
      <trkpt lat="48.85108" lon="2.34323">
        <ele>103.5</ele>
        <time>2015-05-05T20:43:01.975Z</time>
      </trkpt>
      <trkpt lat="48.85116" lon="2.34327">
        <ele>103</ele>
        <time>2015-05-05T20:43:05.039Z</time>
      </trkpt>
      <trkpt lat="48.8512" lon="2.34328">
        <ele>103</ele>
        <time>2015-05-05T20:43:05.994Z</time>
      </trkpt>
      <trkpt lat="48.85125" lon="2.34329">
        <ele>104</ele>
        <time>2015-05-05T20:43:06.977Z</time>
      </trkpt>
      <trkpt lat="48.85129" lon="2.34331">
        <ele>104.8</ele>
        <time>2015-05-05T20:43:07.986Z</time>
      </trkpt>
      <trkpt lat="48.85134" lon="2.34334">
        <ele>105.7</ele>
        <time>2015-05-05T20:43:09.001Z</time>
      </trkpt>
      <trkpt lat="48.85138" lon="2.34337">
        <ele>106.2</ele>
        <time>2015-05-05T20:43:10.010Z</time>
      </trkpt>
      <trkpt lat="48.85143" lon="2.3434">
        <ele>106.7</ele>
        <time>2015-05-05T20:43:11.021Z</time>
      </trkpt>
      <trkpt lat="48.85149" lon="2.34343">
        <ele>107</ele>
        <time>2015-05-05T20:43:12.030Z</time>
      </trkpt>
      <trkpt lat="48.85156" lon="2.34346">
        <ele>107.9</ele>
        <time>2015-05-05T20:43:13.038Z</time>
      </trkpt>
      <trkpt lat="48.85159" lon="2.34348">
        <ele>107.7</ele>
        <time>2015-05-05T20:43:14.048Z</time>
      </trkpt>
      <trkpt lat="48.85167" lon="2.34352">
        <ele>108.7</ele>
        <time>2015-05-05T20:43:16.065Z</time>
      </trkpt>
      <trkpt lat="48.85172" lon="2.34353">
        <ele>109.2</ele>
        <time>2015-05-05T20:43:17.014Z</time>
      </trkpt>
      <trkpt lat="48.85177" lon="2.34355">
        <ele>109.8</ele>
        <time>2015-05-05T20:43:17.991Z</time>
      </trkpt>
      <trkpt lat="48.85182" lon="2.34357">
        <ele>110.5</ele>
        <time>2015-05-05T20:43:18.987Z</time>
      </trkpt>
      <trkpt lat="48.85188" lon="2.34361">
        <ele>111.2</ele>
        <time>2015-05-05T20:43:19.997Z</time>
      </trkpt>
      <trkpt lat="48.85194" lon="2.34365">
        <ele>111.8</ele>
        <time>2015-05-05T20:43:21.013Z</time>
      </trkpt>
      <trkpt lat="48.85201" lon="2.34369">
        <ele>112.4</ele>
        <time>2015-05-05T20:43:22.026Z</time>
      </trkpt>
      <trkpt lat="48.85208" lon="2.34372">
        <ele>113.2</ele>
        <time>2015-05-05T20:43:23.033Z</time>
      </trkpt>
      <trkpt lat="48.85215" lon="2.34375">
        <ele>114</ele>
        <time>2015-05-05T20:43:24.043Z</time>
      </trkpt>
      <trkpt lat="48.85221" lon="2.34378">
        <ele>114.7</ele>
        <time>2015-05-05T20:43:25.039Z</time>
      </trkpt>
      <trkpt lat="48.85227" lon="2.34381">
        <ele>115.3</ele>
        <time>2015-05-05T20:43:26.053Z</time>
      </trkpt>
      <trkpt lat="48.85232" lon="2.34383">
        <ele>115.5</ele>
        <time>2015-05-05T20:43:27.065Z</time>
      </trkpt>
      <trkpt lat="48.8524" lon="2.34386">
        <ele>114.8</ele>
        <time>2015-05-05T20:43:28.070Z</time>
      </trkpt>
      <trkpt lat="48.8525" lon="2.34389">
        <ele>114.4</ele>
        <time>2015-05-05T20:43:28.982Z</time>
      </trkpt>
      <trkpt lat="48.85256" lon="2.34392">
        <ele>113.9</ele>
        <time>2015-05-05T20:43:29.999Z</time>
      </trkpt>
      <trkpt lat="48.85264" lon="2.34392">
        <ele>113.1</ele>
        <time>2015-05-05T20:43:31.024Z</time>
      </trkpt>
      <trkpt lat="48.85273" lon="2.34396">
        <ele>113.7</ele>
        <time>2015-05-05T20:43:32.032Z</time>
      </trkpt>
      <trkpt lat="48.85281" lon="2.34399">
        <ele>114.4</ele>
        <time>2015-05-05T20:43:33.049Z</time>
      </trkpt>
      <trkpt lat="48.85286" lon="2.34401">
        <ele>114.5</ele>
        <time>2015-05-05T20:43:34.061Z</time>
      </trkpt>
      <trkpt lat="48.85292" lon="2.34404">
        <ele>114.3</ele>
        <time>2015-05-05T20:43:35.071Z</time>
      </trkpt>
      <trkpt lat="48.85302" lon="2.34408">
        <ele>114.5</ele>
        <time>2015-05-05T20:43:36.108Z</time>
      </trkpt>
      <trkpt lat="48.8531" lon="2.3441">
        <ele>113.6</ele>
        <time>2015-05-05T20:43:37.021Z</time>
      </trkpt>
      <trkpt lat="48.85318" lon="2.34413">
        <ele>112.9</ele>
        <time>2015-05-05T20:43:38.026Z</time>
      </trkpt>
      <trkpt lat="48.85324" lon="2.34415">
        <ele>112.6</ele>
        <time>2015-05-05T20:43:39.035Z</time>
      </trkpt>
      <trkpt lat="48.8533" lon="2.34418">
        <ele>111.6</ele>
        <time>2015-05-05T20:43:40.060Z</time>
      </trkpt>
      <trkpt lat="48.85338" lon="2.34421">
        <ele>111</ele>
        <time>2015-05-05T20:43:41.162Z</time>
      </trkpt>
      <trkpt lat="48.85345" lon="2.34425">
        <ele>110.2</ele>
        <time>2015-05-05T20:43:42.016Z</time>
      </trkpt>
      <trkpt lat="48.85352" lon="2.34429">
        <ele>109.8</ele>
        <time>2015-05-05T20:43:43.030Z</time>
      </trkpt>
      <trkpt lat="48.85361" lon="2.34433">
        <ele>109.1</ele>
        <time>2015-05-05T20:43:44.033Z</time>
      </trkpt>
      <trkpt lat="48.85367" lon="2.34437">
        <ele>108.1</ele>
        <time>2015-05-05T20:43:45.046Z</time>
      </trkpt>
      <trkpt lat="48.85374" lon="2.3444">
        <ele>107.4</ele>
        <time>2015-05-05T20:43:46.053Z</time>
      </trkpt>
      <trkpt lat="48.85381" lon="2.34443">
        <ele>106.1</ele>
        <time>2015-05-05T20:43:47.084Z</time>
      </trkpt>
      <trkpt lat="48.85387" lon="2.34446">
        <ele>105.6</ele>
        <time>2015-05-05T20:43:48.026Z</time>
      </trkpt>
      <trkpt lat="48.85393" lon="2.3445">
        <ele>105</ele>
        <time>2015-05-05T20:43:49.036Z</time>
      </trkpt>
      <trkpt lat="48.85399" lon="2.34454">
        <ele>104.2</ele>
        <time>2015-05-05T20:43:50.047Z</time>
      </trkpt>
      <trkpt lat="48.85405" lon="2.34459">
        <ele>104</ele>
        <time>2015-05-05T20:43:50.966Z</time>
      </trkpt>
      <trkpt lat="48.8541" lon="2.34463">
        <ele>102.9</ele>
        <time>2015-05-05T20:43:52.054Z</time>
      </trkpt>
      <trkpt lat="48.85417" lon="2.34468">
        <ele>102.3</ele>
        <time>2015-05-05T20:43:53.084Z</time>
      </trkpt>
      <trkpt lat="48.85423" lon="2.34473">
        <ele>102.1</ele>
        <time>2015-05-05T20:43:53.990Z</time>
      </trkpt>
      <trkpt lat="48.85428" lon="2.34477">
        <ele>101.9</ele>
        <time>2015-05-05T20:43:55Z</time>
      </trkpt>
      <trkpt lat="48.85434" lon="2.34482">
        <ele>101.6</ele>
        <time>2015-05-05T20:43:56.051Z</time>
      </trkpt>
      <trkpt lat="48.85439" lon="2.34487">
        <ele>101.1</ele>
        <time>2015-05-05T20:43:56.990Z</time>
      </trkpt>
      <trkpt lat="48.85445" lon="2.34491">
        <ele>100.8</ele>
        <time>2015-05-05T20:43:58.035Z</time>
      </trkpt>
      <trkpt lat="48.8545" lon="2.34497">
        <ele>100.2</ele>
        <time>2015-05-05T20:43:59.038Z</time>
      </trkpt>
      <trkpt lat="48.85454" lon="2.34501">
        <ele>99.3</ele>
        <time>2015-05-05T20:44:00.077Z</time>
      </trkpt>
      <trkpt lat="48.8546" lon="2.34507">
        <ele>99.5</ele>
        <time>2015-05-05T20:44:01.073Z</time>
      </trkpt>
      <trkpt lat="48.85463" lon="2.34511">
        <ele>99.7</ele>
        <time>2015-05-05T20:44:01.991Z</time>
      </trkpt>
      <trkpt lat="48.85469" lon="2.34517">
        <ele>99.7</ele>
        <time>2015-05-05T20:44:04.092Z</time>
      </trkpt>
      <trkpt lat="48.85471" lon="2.34519">
        <ele>99.5</ele>
        <time>2015-05-05T20:44:04.979Z</time>
      </trkpt>
      <trkpt lat="48.8547" lon="2.34531">
        <ele>99.2</ele>
        <time>2015-05-05T20:44:07.014Z</time>
      </trkpt>
      <trkpt lat="48.8547" lon="2.34538">
        <ele>99.3</ele>
        <time>2015-05-05T20:44:08.104Z</time>
      </trkpt>
      <trkpt lat="48.85474" lon="2.34546">
        <ele>99.7</ele>
        <time>2015-05-05T20:44:10.005Z</time>
      </trkpt>
      <trkpt lat="48.85476" lon="2.34551">
        <ele>99.9</ele>
        <time>2015-05-05T20:44:11.031Z</time>
      </trkpt>
      <trkpt lat="48.85478" lon="2.34559">
        <ele>100.4</ele>
        <time>2015-05-05T20:44:12.942Z</time>
      </trkpt>
      <trkpt lat="48.85479" lon="2.34565">
        <ele>100.6</ele>
        <time>2015-05-05T20:44:13.994Z</time>
      </trkpt>
      <trkpt lat="48.8548" lon="2.3457">
        <ele>100.9</ele>
        <time>2015-05-05T20:44:15.005Z</time>
      </trkpt>
      <trkpt lat="48.85482" lon="2.34578">
        <ele>101</ele>
        <time>2015-05-05T20:44:16.016Z</time>
      </trkpt>
      <trkpt lat="48.85484" lon="2.34588">
        <ele>101</ele>
        <time>2015-05-05T20:44:17.027Z</time>
      </trkpt>
      <trkpt lat="48.85485" lon="2.34596">
        <ele>101</ele>
        <time>2015-05-05T20:44:18.037Z</time>
      </trkpt>
      <trkpt lat="48.85488" lon="2.34608">
        <ele>100.3</ele>
        <time>2015-05-05T20:44:20.065Z</time>
      </trkpt>
      <trkpt lat="48.8549" lon="2.3461">
        <ele>99.6</ele>
        <time>2015-05-05T20:44:21.059Z</time>
      </trkpt>
      <trkpt lat="48.85496" lon="2.3462">
        <ele>98.6</ele>
        <time>2015-05-05T20:44:25.043Z</time>
      </trkpt>
      <trkpt lat="48.855" lon="2.34623">
        <ele>98.8</ele>
        <time>2015-05-05T20:44:26.041Z</time>
      </trkpt>
      <trkpt lat="48.85504" lon="2.34626">
        <ele>98.9</ele>
        <time>2015-05-05T20:44:26.996Z</time>
      </trkpt>
      <trkpt lat="48.85508" lon="2.34628">
        <ele>99.1</ele>
        <time>2015-05-05T20:44:28.032Z</time>
      </trkpt>
      <trkpt lat="48.85517" lon="2.34631">
        <ele>99.3</ele>
        <time>2015-05-05T20:44:29.974Z</time>
      </trkpt>
      <trkpt lat="48.85521" lon="2.34633">
        <ele>99.4</ele>
        <time>2015-05-05T20:44:31.042Z</time>
      </trkpt>
      <trkpt lat="48.85526" lon="2.34638">
        <ele>99.4</ele>
        <time>2015-05-05T20:44:33.030Z</time>
      </trkpt>
      <trkpt lat="48.85529" lon="2.34641">
        <ele>99.3</ele>
        <time>2015-05-05T20:44:34.048Z</time>
      </trkpt>
      <trkpt lat="48.85535" lon="2.34636">
        <ele>96.7</ele>
        <time>2015-05-05T20:44:36.016Z</time>
      </trkpt>
      <trkpt lat="48.85542" lon="2.34636">
        <ele>95</ele>
        <time>2015-05-05T20:44:37.235Z</time>
      </trkpt>
      <trkpt lat="48.8555" lon="2.34633">
        <ele>93.1</ele>
        <time>2015-05-05T20:44:38.184Z</time>
      </trkpt>
      <trkpt lat="48.8556" lon="2.34631">
        <ele>91.3</ele>
        <time>2015-05-05T20:44:38.977Z</time>
      </trkpt>
      <trkpt lat="48.8557" lon="2.34633">
        <ele>90.4</ele>
        <time>2015-05-05T20:44:40.029Z</time>
      </trkpt>
      <trkpt lat="48.85577" lon="2.34635">
        <ele>89.9</ele>
        <time>2015-05-05T20:44:41.075Z</time>
      </trkpt>
      <trkpt lat="48.85587" lon="2.34636">
        <ele>88.2</ele>
        <time>2015-05-05T20:44:42.029Z</time>
      </trkpt>
      <trkpt lat="48.85595" lon="2.34638">
        <ele>86.9</ele>
        <time>2015-05-05T20:44:42.989Z</time>
      </trkpt>
      <trkpt lat="48.85603" lon="2.34642">
        <ele>86.3</ele>
        <time>2015-05-05T20:44:43.999Z</time>
      </trkpt>
      <trkpt lat="48.85611" lon="2.34646">
        <ele>85.5</ele>
        <time>2015-05-05T20:44:45.016Z</time>
      </trkpt>
      <trkpt lat="48.85618" lon="2.3465">
        <ele>85.5</ele>
        <time>2015-05-05T20:44:46.056Z</time>
      </trkpt>
      <trkpt lat="48.85625" lon="2.34653">
        <ele>86</ele>
        <time>2015-05-05T20:44:47.004Z</time>
      </trkpt>
      <trkpt lat="48.85634" lon="2.34657">
        <ele>86.8</ele>
        <time>2015-05-05T20:44:48.036Z</time>
      </trkpt>
      <trkpt lat="48.85641" lon="2.3466">
        <ele>87.4</ele>
        <time>2015-05-05T20:44:49.038Z</time>
      </trkpt>
      <trkpt lat="48.85647" lon="2.34663">
        <ele>87.9</ele>
        <time>2015-05-05T20:44:50.063Z</time>
      </trkpt>
      <trkpt lat="48.85653" lon="2.34666">
        <ele>88.1</ele>
        <time>2015-05-05T20:44:51.074Z</time>
      </trkpt>
      <trkpt lat="48.85659" lon="2.34667">
        <ele>87.7</ele>
        <time>2015-05-05T20:44:52.018Z</time>
      </trkpt>
      <trkpt lat="48.85665" lon="2.3467">
        <ele>87.7</ele>
        <time>2015-05-05T20:44:53.029Z</time>
      </trkpt>
      <trkpt lat="48.85671" lon="2.34672">
        <ele>87.9</ele>
        <time>2015-05-05T20:44:54.049Z</time>
      </trkpt>
      <trkpt lat="48.85676" lon="2.34675">
        <ele>87.5</ele>
        <time>2015-05-05T20:44:55.053Z</time>
      </trkpt>
      <trkpt lat="48.85681" lon="2.34677">
        <ele>87.6</ele>
        <time>2015-05-05T20:44:56.058Z</time>
      </trkpt>
      <trkpt lat="48.85686" lon="2.34679">
        <ele>87.7</ele>
        <time>2015-05-05T20:44:57.065Z</time>
      </trkpt>
      <trkpt lat="48.85691" lon="2.34682">
        <ele>88</ele>
        <time>2015-05-05T20:44:58.026Z</time>
      </trkpt>
      <trkpt lat="48.85696" lon="2.34684">
        <ele>88</ele>
        <time>2015-05-05T20:44:59.024Z</time>
      </trkpt>
      <trkpt lat="48.857" lon="2.34686">
        <ele>88.1</ele>
        <time>2015-05-05T20:45:00.040Z</time>
      </trkpt>
      <trkpt lat="48.85704" lon="2.34688">
        <ele>88.5</ele>
        <time>2015-05-05T20:45:01.055Z</time>
      </trkpt>
      <trkpt lat="48.85709" lon="2.3469">
        <ele>88.7</ele>
        <time>2015-05-05T20:45:01.987Z</time>
      </trkpt>
      <trkpt lat="48.85713" lon="2.34692">
        <ele>88.8</ele>
        <time>2015-05-05T20:45:02.989Z</time>
      </trkpt>
      <trkpt lat="48.85718" lon="2.34693">
        <ele>89</ele>
        <time>2015-05-05T20:45:04.030Z</time>
      </trkpt>
      <trkpt lat="48.85722" lon="2.34694">
        <ele>89.3</ele>
        <time>2015-05-05T20:45:05.041Z</time>
      </trkpt>
      <trkpt lat="48.85728" lon="2.34696">
        <ele>89.9</ele>
        <time>2015-05-05T20:45:06.965Z</time>
      </trkpt>
      <trkpt lat="48.85731" lon="2.34697">
        <ele>90.1</ele>
        <time>2015-05-05T20:45:07.995Z</time>
      </trkpt>
      <trkpt lat="48.85737" lon="2.347">
        <ele>90.4</ele>
        <time>2015-05-05T20:45:10.066Z</time>
      </trkpt>
      <trkpt lat="48.85741" lon="2.34701">
        <ele>90.8</ele>
        <time>2015-05-05T20:45:11.002Z</time>
      </trkpt>
      <trkpt lat="48.85745" lon="2.34703">
        <ele>91.3</ele>
        <time>2015-05-05T20:45:12.003Z</time>
      </trkpt>
      <trkpt lat="48.85749" lon="2.34705">
        <ele>91.6</ele>
        <time>2015-05-05T20:45:13.009Z</time>
      </trkpt>
      <trkpt lat="48.85755" lon="2.34708">
        <ele>91.9</ele>
        <time>2015-05-05T20:45:14.027Z</time>
      </trkpt>
      <trkpt lat="48.8576" lon="2.34711">
        <ele>92.2</ele>
        <time>2015-05-05T20:45:15.028Z</time>
      </trkpt>
      <trkpt lat="48.85764" lon="2.34712">
        <ele>92.8</ele>
        <time>2015-05-05T20:45:16.040Z</time>
      </trkpt>
      <trkpt lat="48.85769" lon="2.34713">
        <ele>93.2</ele>
        <time>2015-05-05T20:45:17.137Z</time>
      </trkpt>
      <trkpt lat="48.85773" lon="2.34714">
        <ele>93.4</ele>
        <time>2015-05-05T20:45:17.980Z</time>
      </trkpt>
      <trkpt lat="48.8578" lon="2.34713">
        <ele>92.3</ele>
        <time>2015-05-05T20:45:18.980Z</time>
      </trkpt>
      <trkpt lat="48.85785" lon="2.34714">
        <ele>92.6</ele>
        <time>2015-05-05T20:45:19.997Z</time>
      </trkpt>
      <trkpt lat="48.85789" lon="2.34715">
        <ele>92.7</ele>
        <time>2015-05-05T20:45:21.011Z</time>
      </trkpt>
      <trkpt lat="48.85793" lon="2.34718">
        <ele>93.2</ele>
        <time>2015-05-05T20:45:22.051Z</time>
      </trkpt>
      <trkpt lat="48.85797" lon="2.34721">
        <ele>93.8</ele>
        <time>2015-05-05T20:45:22.988Z</time>
      </trkpt>
      <trkpt lat="48.85804" lon="2.34725">
        <ele>94.9</ele>
        <time>2015-05-05T20:45:25.014Z</time>
      </trkpt>
      <trkpt lat="48.85806" lon="2.34726">
        <ele>95.5</ele>
        <time>2015-05-05T20:45:26.037Z</time>
      </trkpt>
      <trkpt lat="48.85812" lon="2.34728">
        <ele>96.9</ele>
        <time>2015-05-05T20:45:28.070Z</time>
      </trkpt>
      <trkpt lat="48.85817" lon="2.34727">
        <ele>98.1</ele>
        <time>2015-05-05T20:45:29.015Z</time>
      </trkpt>
      <trkpt lat="48.85822" lon="2.34726">
        <ele>98.2</ele>
        <time>2015-05-05T20:45:30.030Z</time>
      </trkpt>
      <trkpt lat="48.85827" lon="2.34727">
        <ele>98</ele>
        <time>2015-05-05T20:45:31.063Z</time>
      </trkpt>
      <trkpt lat="48.85833" lon="2.34729">
        <ele>98.4</ele>
        <time>2015-05-05T20:45:32.071Z</time>
      </trkpt>
      <trkpt lat="48.85839" lon="2.3473">
        <ele>99.4</ele>
        <time>2015-05-05T20:45:33.031Z</time>
      </trkpt>
      <trkpt lat="48.85844" lon="2.34731">
        <ele>100.4</ele>
        <time>2015-05-05T20:45:34.038Z</time>
      </trkpt>
      <trkpt lat="48.85848" lon="2.34733">
        <ele>101</ele>
        <time>2015-05-05T20:45:35.029Z</time>
      </trkpt>
      <trkpt lat="48.85854" lon="2.34736">
        <ele>101.1</ele>
        <time>2015-05-05T20:45:36.053Z</time>
      </trkpt>
      <trkpt lat="48.85861" lon="2.34736">
        <ele>99.8</ele>
        <time>2015-05-05T20:45:37.048Z</time>
      </trkpt>
      <trkpt lat="48.85866" lon="2.34736">
        <ele>98.8</ele>
        <time>2015-05-05T20:45:38.061Z</time>
      </trkpt>
      <trkpt lat="48.8587" lon="2.34736">
        <ele>98.6</ele>
        <time>2015-05-05T20:45:38.980Z</time>
      </trkpt>
      <trkpt lat="48.85874" lon="2.34736">
        <ele>98.4</ele>
        <time>2015-05-05T20:45:40.095Z</time>
      </trkpt>
      <trkpt lat="48.85879" lon="2.34736">
        <ele>98.3</ele>
        <time>2015-05-05T20:45:40.986Z</time>
      </trkpt>
      <trkpt lat="48.85887" lon="2.34736">
        <ele>98.5</ele>
        <time>2015-05-05T20:45:43.010Z</time>
      </trkpt>
      <trkpt lat="48.85891" lon="2.34737">
        <ele>98.7</ele>
        <time>2015-05-05T20:45:44.048Z</time>
      </trkpt>
      <trkpt lat="48.85896" lon="2.34738">
        <ele>99</ele>
        <time>2015-05-05T20:45:45.071Z</time>
      </trkpt>
      <trkpt lat="48.859" lon="2.34739">
        <ele>99.3</ele>
        <time>2015-05-05T20:45:46.080Z</time>
      </trkpt>
      <trkpt lat="48.85907" lon="2.34738">
        <ele>98.8</ele>
        <time>2015-05-05T20:45:47.981Z</time>
      </trkpt>
      <trkpt lat="48.85912" lon="2.34737">
        <ele>98.8</ele>
        <time>2015-05-05T20:45:48.997Z</time>
      </trkpt>
      <trkpt lat="48.8592" lon="2.34735">
        <ele>99.5</ele>
        <time>2015-05-05T20:45:51.026Z</time>
      </trkpt>
      <trkpt lat="48.85923" lon="2.34734">
        <ele>99.5</ele>
        <time>2015-05-05T20:45:52.087Z</time>
      </trkpt>
      <trkpt lat="48.8593" lon="2.34725">
        <ele>97.7</ele>
        <time>2015-05-05T20:45:53.989Z</time>
      </trkpt>
      <trkpt lat="48.85934" lon="2.34723">
        <ele>97.2</ele>
        <time>2015-05-05T20:45:55.052Z</time>
      </trkpt>
      <trkpt lat="48.85941" lon="2.34718">
        <ele>97.3</ele>
        <time>2015-05-05T20:45:59.020Z</time>
      </trkpt>
      <trkpt lat="48.85942" lon="2.34718">
        <ele>96.9</ele>
        <time>2015-05-05T20:46:00.058Z</time>
      </trkpt>
      <trkpt lat="48.85949" lon="2.34722">
        <ele>96.2</ele>
        <time>2015-05-05T20:47:46.081Z</time>
      </trkpt>
    </trkseg>
  </trk>
  <trk>
    <name><![CDATA[85 Quai de la Mégisserie]]></name>
    <extensions>
      <line xmlns="http://www.topografix.com/GPX/gpx_style/0/2">
        <color>000000</color>
      </line>
    </extensions>
    <trkseg>
      <trkpt lat="48.85737" lon="2.34724">
        <ele>83.6</ele>
        <time>2015-05-11T18:20:32.103Z</time>
      </trkpt>
      <trkpt lat="48.85736" lon="2.34716">
        <ele>83.8</ele>
        <time>2015-05-11T18:20:38.627Z</time>
      </trkpt>
      <trkpt lat="48.85736" lon="2.34716">
        <ele>83.9</ele>
        <time>2015-05-11T18:20:39.630Z</time>
      </trkpt>
      <trkpt lat="48.85736" lon="2.34715">
        <ele>84.1</ele>
        <time>2015-05-11T18:21:04.681Z</time>
      </trkpt>
      <trkpt lat="48.85735" lon="2.34716">
        <ele>87</ele>
        <time>2015-05-11T18:21:05.695Z</time>
      </trkpt>
      <trkpt lat="48.85734" lon="2.34718">
        <ele>86.9</ele>
        <time>2015-05-11T18:21:07.706Z</time>
      </trkpt>
      <trkpt lat="48.85735" lon="2.34717">
        <ele>86.9</ele>
        <time>2015-05-11T18:21:08.625Z</time>
      </trkpt>
      <trkpt lat="48.85735" lon="2.34716">
        <ele>86.8</ele>
        <time>2015-05-11T18:21:09.656Z</time>
      </trkpt>
      <trkpt lat="48.85736" lon="2.34702">
        <ele>87.4</ele>
        <time>2015-05-11T18:21:16.627Z</time>
      </trkpt>
      <trkpt lat="48.85736" lon="2.34702">
        <ele>87.4</ele>
        <time>2015-05-11T18:21:17.650Z</time>
      </trkpt>
      <trkpt lat="48.85738" lon="2.34699">
        <ele>86.9</ele>
        <time>2015-05-11T18:21:22.671Z</time>
      </trkpt>
      <trkpt lat="48.85738" lon="2.34699">
        <ele>87</ele>
        <time>2015-05-11T18:21:23.678Z</time>
      </trkpt>
      <trkpt lat="48.85738" lon="2.34698">
        <ele>87.2</ele>
        <time>2015-05-11T18:21:26.695Z</time>
      </trkpt>
      <trkpt lat="48.85738" lon="2.34699">
        <ele>87.3</ele>
        <time>2015-05-11T18:21:27.586Z</time>
      </trkpt>
      <trkpt lat="48.85738" lon="2.34696">
        <ele>87.8</ele>
        <time>2015-05-11T18:21:34.583Z</time>
      </trkpt>
      <trkpt lat="48.85738" lon="2.34697">
        <ele>87.7</ele>
        <time>2015-05-11T18:21:35.685Z</time>
      </trkpt>
      <trkpt lat="48.85738" lon="2.34697">
        <ele>87.6</ele>
        <time>2015-05-11T18:21:36.582Z</time>
      </trkpt>
      <trkpt lat="48.85737" lon="2.34697">
        <ele>87.5</ele>
        <time>2015-05-11T18:21:37.606Z</time>
      </trkpt>
      <trkpt lat="48.85737" lon="2.34695">
        <ele>87.6</ele>
        <time>2015-05-11T18:21:39.625Z</time>
      </trkpt>
      <trkpt lat="48.85738" lon="2.34694">
        <ele>87.5</ele>
        <time>2015-05-11T18:21:40.657Z</time>
      </trkpt>
      <trkpt lat="48.85738" lon="2.34693">
        <ele>87.4</ele>
        <time>2015-05-11T18:21:41.628Z</time>
      </trkpt>
      <trkpt lat="48.85738" lon="2.34693">
        <ele>87.4</ele>
        <time>2015-05-11T18:21:42.610Z</time>
      </trkpt>
      <trkpt lat="48.85739" lon="2.34693">
        <ele>87.4</ele>
        <time>2015-05-11T18:21:43.620Z</time>
      </trkpt>
      <trkpt lat="48.85732" lon="2.3469">
        <ele>86.5</ele>
        <time>2015-05-11T18:21:59.636Z</time>
      </trkpt>
      <trkpt lat="48.85729" lon="2.3469">
        <ele>86.4</ele>
        <time>2015-05-11T18:22:00.631Z</time>
      </trkpt>
      <trkpt lat="48.85722" lon="2.3469">
        <ele>86.1</ele>
        <time>2015-05-11T18:22:03.819Z</time>
      </trkpt>
      <trkpt lat="48.8572" lon="2.3469">
        <ele>86.2</ele>
        <time>2015-05-11T18:22:04.646Z</time>
      </trkpt>
      <trkpt lat="48.85712" lon="2.3469">
        <ele>84.9</ele>
        <time>2015-05-11T18:22:07.648Z</time>
      </trkpt>
      <trkpt lat="48.85709" lon="2.34689">
        <ele>84.8</ele>
        <time>2015-05-11T18:22:08.651Z</time>
      </trkpt>
      <trkpt lat="48.85702" lon="2.34684">
        <ele>84.3</ele>
        <time>2015-05-11T18:22:11.613Z</time>
      </trkpt>
      <trkpt lat="48.85699" lon="2.34682">
        <ele>84.1</ele>
        <time>2015-05-11T18:22:12.702Z</time>
      </trkpt>
      <trkpt lat="48.85692" lon="2.34675">
        <ele>84.4</ele>
        <time>2015-05-11T18:22:15.651Z</time>
      </trkpt>
      <trkpt lat="48.85689" lon="2.34674">
        <ele>84.7</ele>
        <time>2015-05-11T18:22:16.658Z</time>
      </trkpt>
      <trkpt lat="48.85682" lon="2.34668">
        <ele>84.4</ele>
        <time>2015-05-11T18:22:19.705Z</time>
      </trkpt>
      <trkpt lat="48.8568" lon="2.34665">
        <ele>84.4</ele>
        <time>2015-05-11T18:22:20.665Z</time>
      </trkpt>
      <trkpt lat="48.85672" lon="2.34659">
        <ele>83.7</ele>
        <time>2015-05-11T18:22:23.700Z</time>
      </trkpt>
      <trkpt lat="48.85669" lon="2.34659">
        <ele>83.6</ele>
        <time>2015-05-11T18:22:24.697Z</time>
      </trkpt>
      <trkpt lat="48.85664" lon="2.34652">
        <ele>83.4</ele>
        <time>2015-05-11T18:22:27.649Z</time>
      </trkpt>
      <trkpt lat="48.85662" lon="2.34647">
        <ele>83.3</ele>
        <time>2015-05-11T18:22:28.672Z</time>
      </trkpt>
      <trkpt lat="48.85657" lon="2.34641">
        <ele>83.6</ele>
        <time>2015-05-11T18:22:30.707Z</time>
      </trkpt>
      <trkpt lat="48.85654" lon="2.34639">
        <ele>83.6</ele>
        <time>2015-05-11T18:22:31.640Z</time>
      </trkpt>
      <trkpt lat="48.85646" lon="2.34632">
        <ele>83.4</ele>
        <time>2015-05-11T18:22:34.620Z</time>
      </trkpt>
      <trkpt lat="48.85644" lon="2.34631">
        <ele>83.5</ele>
        <time>2015-05-11T18:22:35.668Z</time>
      </trkpt>
      <trkpt lat="48.85637" lon="2.34638">
        <ele>84.4</ele>
        <time>2015-05-11T18:22:42.470Z</time>
      </trkpt>
      <trkpt lat="48.85637" lon="2.34638">
        <ele>84.7</ele>
        <time>2015-05-11T18:22:42.650Z</time>
      </trkpt>
      <trkpt lat="48.85636" lon="2.34638">
        <ele>84.9</ele>
        <time>2015-05-11T18:22:43.669Z</time>
      </trkpt>
      <trkpt lat="48.85636" lon="2.34638">
        <ele>84.9</ele>
        <time>2015-05-11T18:22:44.584Z</time>
      </trkpt>
      <trkpt lat="48.85629" lon="2.34638">
        <ele>84.7</ele>
        <time>2015-05-11T18:22:49.577Z</time>
      </trkpt>
      <trkpt lat="48.85626" lon="2.34638">
        <ele>84.7</ele>
        <time>2015-05-11T18:22:50.720Z</time>
      </trkpt>
      <trkpt lat="48.8562" lon="2.34633">
        <ele>84.9</ele>
        <time>2015-05-11T18:22:53.651Z</time>
      </trkpt>
      <trkpt lat="48.85618" lon="2.34629">
        <ele>85</ele>
        <time>2015-05-11T18:22:54.672Z</time>
      </trkpt>
      <trkpt lat="48.85615" lon="2.34621">
        <ele>84.7</ele>
        <time>2015-05-11T18:22:56.596Z</time>
      </trkpt>
      <trkpt lat="48.85613" lon="2.34617">
        <ele>84.5</ele>
        <time>2015-05-11T18:22:57.668Z</time>
      </trkpt>
      <trkpt lat="48.85608" lon="2.34609">
        <ele>84.3</ele>
        <time>2015-05-11T18:22:59.667Z</time>
      </trkpt>
      <trkpt lat="48.85605" lon="2.34605">
        <ele>84.2</ele>
        <time>2015-05-11T18:23:00.625Z</time>
      </trkpt>
      <trkpt lat="48.856" lon="2.34596">
        <ele>84.1</ele>
        <time>2015-05-11T18:23:03.085Z</time>
      </trkpt>
      <trkpt lat="48.85597" lon="2.34591">
        <ele>84.1</ele>
        <time>2015-05-11T18:23:03.579Z</time>
      </trkpt>
      <trkpt lat="48.85594" lon="2.34586">
        <ele>83.9</ele>
        <time>2015-05-11T18:23:04.606Z</time>
      </trkpt>
      <trkpt lat="48.8559" lon="2.34581">
        <ele>83.6</ele>
        <time>2015-05-11T18:23:05.767Z</time>
      </trkpt>
      <trkpt lat="48.85586" lon="2.34577">
        <ele>83.3</ele>
        <time>2015-05-11T18:23:06.666Z</time>
      </trkpt>
      <trkpt lat="48.85583" lon="2.34573">
        <ele>83</ele>
        <time>2015-05-11T18:23:07.675Z</time>
      </trkpt>
      <trkpt lat="48.85579" lon="2.34569">
        <ele>82.8</ele>
        <time>2015-05-11T18:23:08.634Z</time>
      </trkpt>
      <trkpt lat="48.85574" lon="2.34566">
        <ele>82.7</ele>
        <time>2015-05-11T18:23:09.651Z</time>
      </trkpt>
      <trkpt lat="48.8557" lon="2.34563">
        <ele>82.5</ele>
        <time>2015-05-11T18:23:10.579Z</time>
      </trkpt>
      <trkpt lat="48.85566" lon="2.3456">
        <ele>82.5</ele>
        <time>2015-05-11T18:23:11.588Z</time>
      </trkpt>
      <trkpt lat="48.85562" lon="2.34557">
        <ele>82.6</ele>
        <time>2015-05-11T18:23:13.223Z</time>
      </trkpt>
      <trkpt lat="48.85558" lon="2.34554">
        <ele>82.8</ele>
        <time>2015-05-11T18:23:13.640Z</time>
      </trkpt>
      <trkpt lat="48.85553" lon="2.3455">
        <ele>82.9</ele>
        <time>2015-05-11T18:23:14.686Z</time>
      </trkpt>
      <trkpt lat="48.85548" lon="2.34545">
        <ele>82.9</ele>
        <time>2015-05-11T18:23:15.605Z</time>
      </trkpt>
      <trkpt lat="48.85544" lon="2.34541">
        <ele>82.7</ele>
        <time>2015-05-11T18:23:16.606Z</time>
      </trkpt>
      <trkpt lat="48.8554" lon="2.34538">
        <ele>82.7</ele>
        <time>2015-05-11T18:23:17.624Z</time>
      </trkpt>
      <trkpt lat="48.85536" lon="2.34533">
        <ele>82.6</ele>
        <time>2015-05-11T18:23:18.636Z</time>
      </trkpt>
      <trkpt lat="48.85531" lon="2.34528">
        <ele>82.4</ele>
        <time>2015-05-11T18:23:19.642Z</time>
      </trkpt>
      <trkpt lat="48.85527" lon="2.34523">
        <ele>82.2</ele>
        <time>2015-05-11T18:23:20.654Z</time>
      </trkpt>
      <trkpt lat="48.85522" lon="2.34518">
        <ele>81.9</ele>
        <time>2015-05-11T18:23:21.606Z</time>
      </trkpt>
      <trkpt lat="48.85518" lon="2.34513">
        <ele>81.7</ele>
        <time>2015-05-11T18:23:22.572Z</time>
      </trkpt>
      <trkpt lat="48.85514" lon="2.34508">
        <ele>81.5</ele>
        <time>2015-05-11T18:23:23.637Z</time>
      </trkpt>
      <trkpt lat="48.85509" lon="2.34504">
        <ele>81.4</ele>
        <time>2015-05-11T18:23:24.656Z</time>
      </trkpt>
      <trkpt lat="48.85505" lon="2.345">
        <ele>81.2</ele>
        <time>2015-05-11T18:23:25.644Z</time>
      </trkpt>
      <trkpt lat="48.855" lon="2.34496">
        <ele>81.1</ele>
        <time>2015-05-11T18:23:26.653Z</time>
      </trkpt>
      <trkpt lat="48.85496" lon="2.34491">
        <ele>80.9</ele>
        <time>2015-05-11T18:23:27.701Z</time>
      </trkpt>
      <trkpt lat="48.85492" lon="2.34486">
        <ele>80.8</ele>
        <time>2015-05-11T18:23:28.620Z</time>
      </trkpt>
      <trkpt lat="48.85488" lon="2.3448">
        <ele>80.7</ele>
        <time>2015-05-11T18:23:29.599Z</time>
      </trkpt>
      <trkpt lat="48.85484" lon="2.34475">
        <ele>80.4</ele>
        <time>2015-05-11T18:23:30.682Z</time>
      </trkpt>
      <trkpt lat="48.8548" lon="2.34471">
        <ele>80.3</ele>
        <time>2015-05-11T18:23:31.679Z</time>
      </trkpt>
      <trkpt lat="48.85476" lon="2.34466">
        <ele>80.1</ele>
        <time>2015-05-11T18:23:32.592Z</time>
      </trkpt>
      <trkpt lat="48.85472" lon="2.34461">
        <ele>79.9</ele>
        <time>2015-05-11T18:23:33.583Z</time>
      </trkpt>
      <trkpt lat="48.85465" lon="2.34458">
        <ele>79.6</ele>
        <time>2015-05-11T18:23:34.603Z</time>
      </trkpt>
      <trkpt lat="48.85458" lon="2.34455">
        <ele>79.3</ele>
        <time>2015-05-11T18:23:35.611Z</time>
      </trkpt>
      <trkpt lat="48.85452" lon="2.34452">
        <ele>78.9</ele>
        <time>2015-05-11T18:23:36.652Z</time>
      </trkpt>
      <trkpt lat="48.85446" lon="2.34448">
        <ele>78.9</ele>
        <time>2015-05-11T18:23:37.661Z</time>
      </trkpt>
      <trkpt lat="48.85441" lon="2.34444">
        <ele>79.3</ele>
        <time>2015-05-11T18:23:38.677Z</time>
      </trkpt>
      <trkpt lat="48.85437" lon="2.3444">
        <ele>79.5</ele>
        <time>2015-05-11T18:23:39.604Z</time>
      </trkpt>
      <trkpt lat="48.85429" lon="2.34435">
        <ele>79.5</ele>
        <time>2015-05-11T18:23:41.604Z</time>
      </trkpt>
      <trkpt lat="48.85426" lon="2.34432">
        <ele>79.6</ele>
        <time>2015-05-11T18:23:42.674Z</time>
      </trkpt>
      <trkpt lat="48.85419" lon="2.34427">
        <ele>79.6</ele>
        <time>2015-05-11T18:23:45.620Z</time>
      </trkpt>
      <trkpt lat="48.85416" lon="2.34426">
        <ele>79.6</ele>
        <time>2015-05-11T18:23:46.631Z</time>
      </trkpt>
      <trkpt lat="48.85408" lon="2.34429">
        <ele>79.2</ele>
        <time>2015-05-11T18:23:48.665Z</time>
      </trkpt>
      <trkpt lat="48.85406" lon="2.34428">
        <ele>79</ele>
        <time>2015-05-11T18:23:49.605Z</time>
      </trkpt>
      <trkpt lat="48.85397" lon="2.34429">
        <ele>79.5</ele>
        <time>2015-05-11T18:23:53.706Z</time>
      </trkpt>
      <trkpt lat="48.85396" lon="2.34429">
        <ele>79.6</ele>
        <time>2015-05-11T18:23:54.744Z</time>
      </trkpt>
      <trkpt lat="48.85389" lon="2.3443">
        <ele>79.9</ele>
        <time>2015-05-11T18:24:03.660Z</time>
      </trkpt>
      <trkpt lat="48.85389" lon="2.3443">
        <ele>79.9</ele>
        <time>2015-05-11T18:24:04.674Z</time>
      </trkpt>
      <trkpt lat="48.85389" lon="2.3443">
        <ele>80.1</ele>
        <time>2015-05-11T18:24:12.685Z</time>
      </trkpt>
      <trkpt lat="48.85387" lon="2.34429">
        <ele>82</ele>
        <time>2015-05-11T18:24:13.555Z</time>
      </trkpt>
      <trkpt lat="48.85382" lon="2.3442">
        <ele>82.9</ele>
        <time>2015-05-11T18:24:18.631Z</time>
      </trkpt>
      <trkpt lat="48.85383" lon="2.34417">
        <ele>83.1</ele>
        <time>2015-05-11T18:24:19.638Z</time>
      </trkpt>
      <trkpt lat="48.85386" lon="2.34406">
        <ele>83.1</ele>
        <time>2015-05-11T18:24:22.614Z</time>
      </trkpt>
      <trkpt lat="48.85387" lon="2.34404">
        <ele>83.2</ele>
        <time>2015-05-11T18:24:23.622Z</time>
      </trkpt>
      <trkpt lat="48.8539" lon="2.34395">
        <ele>83.6</ele>
        <time>2015-05-11T18:24:26.684Z</time>
      </trkpt>
      <trkpt lat="48.85391" lon="2.34391">
        <ele>83.6</ele>
        <time>2015-05-11T18:24:27.669Z</time>
      </trkpt>
      <trkpt lat="48.85395" lon="2.3438">
        <ele>83.9</ele>
        <time>2015-05-11T18:24:30.646Z</time>
      </trkpt>
      <trkpt lat="48.85396" lon="2.34376">
        <ele>84.1</ele>
        <time>2015-05-11T18:24:31.647Z</time>
      </trkpt>
      <trkpt lat="48.85401" lon="2.34368">
        <ele>84.5</ele>
        <time>2015-05-11T18:24:33.553Z</time>
      </trkpt>
      <trkpt lat="48.85403" lon="2.34364">
        <ele>84.5</ele>
        <time>2015-05-11T18:24:34.595Z</time>
      </trkpt>
      <trkpt lat="48.85406" lon="2.34359">
        <ele>84.7</ele>
        <time>2015-05-11T18:24:35.607Z</time>
      </trkpt>
      <trkpt lat="48.8541" lon="2.34354">
        <ele>84.7</ele>
        <time>2015-05-11T18:24:36.628Z</time>
      </trkpt>
      <trkpt lat="48.85414" lon="2.34349">
        <ele>84.8</ele>
        <time>2015-05-11T18:24:37.637Z</time>
      </trkpt>
      <trkpt lat="48.85418" lon="2.34343">
        <ele>84.7</ele>
        <time>2015-05-11T18:24:38.556Z</time>
      </trkpt>
      <trkpt lat="48.85421" lon="2.34337">
        <ele>84.8</ele>
        <time>2015-05-11T18:24:39.675Z</time>
      </trkpt>
      <trkpt lat="48.85425" lon="2.34331">
        <ele>84.9</ele>
        <time>2015-05-11T18:24:40.582Z</time>
      </trkpt>
      <trkpt lat="48.8543" lon="2.34325">
        <ele>85.1</ele>
        <time>2015-05-11T18:24:41.593Z</time>
      </trkpt>
      <trkpt lat="48.85435" lon="2.34319">
        <ele>85.2</ele>
        <time>2015-05-11T18:24:42.654Z</time>
      </trkpt>
      <trkpt lat="48.85441" lon="2.34314">
        <ele>85.2</ele>
        <time>2015-05-11T18:24:42.358Z</time>
      </trkpt>
      <trkpt lat="48.85445" lon="2.34308">
        <ele>85.4</ele>
        <time>2015-05-11T18:24:44.582Z</time>
      </trkpt>
      <trkpt lat="48.8545" lon="2.34301">
        <ele>85.7</ele>
        <time>2015-05-11T18:24:45.621Z</time>
      </trkpt>
      <trkpt lat="48.85454" lon="2.34295">
        <ele>86</ele>
        <time>2015-05-11T18:24:46.625Z</time>
      </trkpt>
      <trkpt lat="48.85458" lon="2.3429">
        <ele>86.3</ele>
        <time>2015-05-11T18:24:47.641Z</time>
      </trkpt>
      <trkpt lat="48.85461" lon="2.34284">
        <ele>86.8</ele>
        <time>2015-05-11T18:24:48.651Z</time>
      </trkpt>
      <trkpt lat="48.85465" lon="2.34278">
        <ele>87.1</ele>
        <time>2015-05-11T18:24:49.565Z</time>
      </trkpt>
      <trkpt lat="48.85468" lon="2.34271">
        <ele>87.3</ele>
        <time>2015-05-11T18:24:50.595Z</time>
      </trkpt>
      <trkpt lat="48.85471" lon="2.34265">
        <ele>87.3</ele>
        <time>2015-05-11T18:24:51.594Z</time>
      </trkpt>
      <trkpt lat="48.85474" lon="2.34259">
        <ele>87.6</ele>
        <time>2015-05-11T18:24:52.621Z</time>
      </trkpt>
      <trkpt lat="48.85478" lon="2.34248">
        <ele>87.6</ele>
        <time>2015-05-11T18:24:54.631Z</time>
      </trkpt>
      <trkpt lat="48.85481" lon="2.34243">
        <ele>87.7</ele>
        <time>2015-05-11T18:24:55.597Z</time>
      </trkpt>
      <trkpt lat="48.85486" lon="2.34233">
        <ele>87.8</ele>
        <time>2015-05-11T18:24:57.637Z</time>
      </trkpt>
      <trkpt lat="48.85489" lon="2.34228">
        <ele>87.9</ele>
        <time>2015-05-11T18:24:58.627Z</time>
      </trkpt>
      <trkpt lat="48.85493" lon="2.34222">
        <ele>87.9</ele>
        <time>2015-05-11T18:24:59.646Z</time>
      </trkpt>
      <trkpt lat="48.85496" lon="2.34217">
        <ele>88</ele>
        <time>2015-05-11T18:25:00.715Z</time>
      </trkpt>
      <trkpt lat="48.85503" lon="2.34208">
        <ele>88</ele>
        <time>2015-05-11T18:25:02.678Z</time>
      </trkpt>
      <trkpt lat="48.85505" lon="2.34203">
        <ele>88</ele>
        <time>2015-05-11T18:25:03.734Z</time>
      </trkpt>
      <trkpt lat="48.8551" lon="2.34192">
        <ele>88.5</ele>
        <time>2015-05-11T18:25:05.591Z</time>
      </trkpt>
      <trkpt lat="48.85511" lon="2.34185">
        <ele>89</ele>
        <time>2015-05-11T18:25:06.660Z</time>
      </trkpt>
      <trkpt lat="48.85516" lon="2.34175">
        <ele>88.9</ele>
        <time>2015-05-11T18:25:08.592Z</time>
      </trkpt>
      <trkpt lat="48.8552" lon="2.34169">
        <ele>88.8</ele>
        <time>2015-05-11T18:25:09.604Z</time>
      </trkpt>
      <trkpt lat="48.85523" lon="2.34164">
        <ele>88.8</ele>
        <time>2015-05-11T18:25:10.632Z</time>
      </trkpt>
      <trkpt lat="48.85526" lon="2.34159">
        <ele>88.7</ele>
        <time>2015-05-11T18:25:11.573Z</time>
      </trkpt>
      <trkpt lat="48.85532" lon="2.3415">
        <ele>88.3</ele>
        <time>2015-05-11T18:25:14.036Z</time>
      </trkpt>
      <trkpt lat="48.85536" lon="2.34146">
        <ele>88.2</ele>
        <time>2015-05-11T18:25:14.617Z</time>
      </trkpt>
      <trkpt lat="48.85543" lon="2.34137">
        <ele>88.2</ele>
        <time>2015-05-11T18:25:16.643Z</time>
      </trkpt>
      <trkpt lat="48.85547" lon="2.34132">
        <ele>88.1</ele>
        <time>2015-05-11T18:25:17.657Z</time>
      </trkpt>
      <trkpt lat="48.8555" lon="2.34127">
        <ele>87.9</ele>
        <time>2015-05-11T18:25:19.090Z</time>
      </trkpt>
      <trkpt lat="48.85553" lon="2.34122">
        <ele>88</ele>
        <time>2015-05-11T18:25:19.590Z</time>
      </trkpt>
      <trkpt lat="48.85555" lon="2.34117">
        <ele>87.9</ele>
        <time>2015-05-11T18:25:20.622Z</time>
      </trkpt>
      <trkpt lat="48.85558" lon="2.34111">
        <ele>87.8</ele>
        <time>2015-05-11T18:25:21.610Z</time>
      </trkpt>
      <trkpt lat="48.85564" lon="2.34102">
        <ele>87.7</ele>
        <time>2015-05-11T18:25:24.166Z</time>
      </trkpt>
      <trkpt lat="48.85567" lon="2.34097">
        <ele>87.7</ele>
        <time>2015-05-11T18:25:24.675Z</time>
      </trkpt>
      <trkpt lat="48.85573" lon="2.34086">
        <ele>87.7</ele>
        <time>2015-05-11T18:25:26.683Z</time>
      </trkpt>
      <trkpt lat="48.85577" lon="2.34082">
        <ele>87.6</ele>
        <time>2015-05-11T18:25:27.628Z</time>
      </trkpt>
      <trkpt lat="48.85581" lon="2.34077">
        <ele>87.6</ele>
        <time>2015-05-11T18:25:29.270Z</time>
      </trkpt>
      <trkpt lat="48.85585" lon="2.34073">
        <ele>87.6</ele>
        <time>2015-05-11T18:25:29.570Z</time>
      </trkpt>
      <trkpt lat="48.85589" lon="2.34068">
        <ele>87.5</ele>
        <time>2015-05-11T18:25:30.608Z</time>
      </trkpt>
      <trkpt lat="48.85593" lon="2.34064">
        <ele>87.4</ele>
        <time>2015-05-11T18:25:31.602Z</time>
      </trkpt>
      <trkpt lat="48.856" lon="2.34057">
        <ele>87.4</ele>
        <time>2015-05-11T18:25:34.314Z</time>
      </trkpt>
      <trkpt lat="48.85601" lon="2.34053">
        <ele>87.8</ele>
        <time>2015-05-11T18:25:34.594Z</time>
      </trkpt>
      <trkpt lat="48.85605" lon="2.34045">
        <ele>88.5</ele>
        <time>2015-05-11T18:25:36.662Z</time>
      </trkpt>
      <trkpt lat="48.85609" lon="2.34042">
        <ele>88.9</ele>
        <time>2015-05-11T18:25:37.697Z</time>
      </trkpt>
      <trkpt lat="48.85617" lon="2.34036">
        <ele>89.5</ele>
        <time>2015-05-11T18:25:39.649Z</time>
      </trkpt>
      <trkpt lat="48.85621" lon="2.34031">
        <ele>89.2</ele>
        <time>2015-05-11T18:25:40.645Z</time>
      </trkpt>
      <trkpt lat="48.85624" lon="2.34025">
        <ele>89.1</ele>
        <time>2015-05-11T18:25:41.652Z</time>
      </trkpt>
      <trkpt lat="48.85627" lon="2.3402">
        <ele>89.3</ele>
        <time>2015-05-11T18:25:42.682Z</time>
      </trkpt>
      <trkpt lat="48.85633" lon="2.34011">
        <ele>89.1</ele>
        <time>2015-05-11T18:25:44.646Z</time>
      </trkpt>
      <trkpt lat="48.85636" lon="2.34006">
        <ele>89</ele>
        <time>2015-05-11T18:25:45.639Z</time>
      </trkpt>
      <trkpt lat="48.8564" lon="2.34">
        <ele>88.8</ele>
        <time>2015-05-11T18:25:46.656Z</time>
      </trkpt>
      <trkpt lat="48.85643" lon="2.33995">
        <ele>88.8</ele>
        <time>2015-05-11T18:25:47.556Z</time>
      </trkpt>
      <trkpt lat="48.85647" lon="2.3399">
        <ele>88.8</ele>
        <time>2015-05-11T18:25:49.270Z</time>
      </trkpt>
      <trkpt lat="48.85652" lon="2.33985">
        <ele>88.9</ele>
        <time>2015-05-11T18:25:49.660Z</time>
      </trkpt>
      <trkpt lat="48.85657" lon="2.3398">
        <ele>88.8</ele>
        <time>2015-05-11T18:25:50.675Z</time>
      </trkpt>
      <trkpt lat="48.85663" lon="2.33974">
        <ele>88.9</ele>
        <time>2015-05-11T18:25:51.623Z</time>
      </trkpt>
      <trkpt lat="48.85668" lon="2.33969">
        <ele>88.9</ele>
        <time>2015-05-11T18:25:52.601Z</time>
      </trkpt>
      <trkpt lat="48.85674" lon="2.33965">
        <ele>88.9</ele>
        <time>2015-05-11T18:25:53.624Z</time>
      </trkpt>
      <trkpt lat="48.85679" lon="2.33959">
        <ele>88.8</ele>
        <time>2015-05-11T18:25:54.649Z</time>
      </trkpt>
      <trkpt lat="48.85684" lon="2.33954">
        <ele>88.7</ele>
        <time>2015-05-11T18:25:55.655Z</time>
      </trkpt>
      <trkpt lat="48.85688" lon="2.33948">
        <ele>88.6</ele>
        <time>2015-05-11T18:25:56.664Z</time>
      </trkpt>
      <trkpt lat="48.85693" lon="2.33942">
        <ele>88.7</ele>
        <time>2015-05-11T18:25:57.577Z</time>
      </trkpt>
      <trkpt lat="48.85697" lon="2.33935">
        <ele>88.6</ele>
        <time>2015-05-11T18:25:58.581Z</time>
      </trkpt>
      <trkpt lat="48.85702" lon="2.33929">
        <ele>88.5</ele>
        <time>2015-05-11T18:25:59.578Z</time>
      </trkpt>
      <trkpt lat="48.85706" lon="2.33922">
        <ele>88.6</ele>
        <time>2015-05-11T18:26:00.606Z</time>
      </trkpt>
      <trkpt lat="48.8571" lon="2.33915">
        <ele>88.6</ele>
        <time>2015-05-11T18:26:01.605Z</time>
      </trkpt>
      <trkpt lat="48.85714" lon="2.33908">
        <ele>88.6</ele>
        <time>2015-05-11T18:26:02.615Z</time>
      </trkpt>
      <trkpt lat="48.85718" lon="2.33901">
        <ele>88.6</ele>
        <time>2015-05-11T18:26:03.618Z</time>
      </trkpt>
      <trkpt lat="48.85722" lon="2.33894">
        <ele>88.6</ele>
        <time>2015-05-11T18:26:04.622Z</time>
      </trkpt>
      <trkpt lat="48.85724" lon="2.33884">
        <ele>88.9</ele>
        <time>2015-05-11T18:26:05.655Z</time>
      </trkpt>
      <trkpt lat="48.85728" lon="2.33877">
        <ele>88.9</ele>
        <time>2015-05-11T18:26:06.666Z</time>
      </trkpt>
      <trkpt lat="48.85731" lon="2.33869">
        <ele>88.8</ele>
        <time>2015-05-11T18:26:07.593Z</time>
      </trkpt>
      <trkpt lat="48.85733" lon="2.33862">
        <ele>88.7</ele>
        <time>2015-05-11T18:26:08.609Z</time>
      </trkpt>
      <trkpt lat="48.85735" lon="2.33854">
        <ele>88.6</ele>
        <time>2015-05-11T18:26:09.619Z</time>
      </trkpt>
      <trkpt lat="48.85737" lon="2.33847">
        <ele>88.5</ele>
        <time>2015-05-11T18:26:10.645Z</time>
      </trkpt>
      <trkpt lat="48.85742" lon="2.33839">
        <ele>88.9</ele>
        <time>2015-05-11T18:26:11.655Z</time>
      </trkpt>
      <trkpt lat="48.85742" lon="2.33826">
        <ele>90.3</ele>
        <time>2015-05-11T18:26:12.666Z</time>
      </trkpt>
      <trkpt lat="48.85745" lon="2.33819">
        <ele>90.5</ele>
        <time>2015-05-11T18:26:13.677Z</time>
      </trkpt>
      <trkpt lat="48.85747" lon="2.33811">
        <ele>90.4</ele>
        <time>2015-05-11T18:26:14.689Z</time>
      </trkpt>
      <trkpt lat="48.8575" lon="2.33804">
        <ele>90.5</ele>
        <time>2015-05-11T18:26:15.692Z</time>
      </trkpt>
      <trkpt lat="48.85753" lon="2.33797">
        <ele>90.5</ele>
        <time>2015-05-11T18:26:16.602Z</time>
      </trkpt>
      <trkpt lat="48.85755" lon="2.3379">
        <ele>90.6</ele>
        <time>2015-05-11T18:26:17.607Z</time>
      </trkpt>
      <trkpt lat="48.85758" lon="2.33777">
        <ele>90.1</ele>
        <time>2015-05-11T18:26:19.650Z</time>
      </trkpt>
      <trkpt lat="48.85759" lon="2.33771">
        <ele>89.9</ele>
        <time>2015-05-11T18:26:20.661Z</time>
      </trkpt>
      <trkpt lat="48.85761" lon="2.33764">
        <ele>89.8</ele>
        <time>2015-05-11T18:26:21.670Z</time>
      </trkpt>
      <trkpt lat="48.85763" lon="2.33756">
        <ele>89.7</ele>
        <time>2015-05-11T18:26:22.598Z</time>
      </trkpt>
      <trkpt lat="48.85764" lon="2.33749">
        <ele>89.6</ele>
        <time>2015-05-11T18:26:23.601Z</time>
      </trkpt>
      <trkpt lat="48.85766" lon="2.33742">
        <ele>89.4</ele>
        <time>2015-05-11T18:26:24.667Z</time>
      </trkpt>
      <trkpt lat="48.85767" lon="2.33735">
        <ele>89.3</ele>
        <time>2015-05-11T18:26:25.695Z</time>
      </trkpt>
      <trkpt lat="48.85769" lon="2.33727">
        <ele>89.3</ele>
        <time>2015-05-11T18:26:26.628Z</time>
      </trkpt>
      <trkpt lat="48.85771" lon="2.3372">
        <ele>89.3</ele>
        <time>2015-05-11T18:26:27.612Z</time>
      </trkpt>
      <trkpt lat="48.85772" lon="2.33712">
        <ele>89.3</ele>
        <time>2015-05-11T18:26:28.626Z</time>
      </trkpt>
      <trkpt lat="48.85774" lon="2.33703">
        <ele>89.2</ele>
        <time>2015-05-11T18:26:29.654Z</time>
      </trkpt>
      <trkpt lat="48.85776" lon="2.33695">
        <ele>89</ele>
        <time>2015-05-11T18:26:30.694Z</time>
      </trkpt>
      <trkpt lat="48.85777" lon="2.33686">
        <ele>88.7</ele>
        <time>2015-05-11T18:26:31.616Z</time>
      </trkpt>
      <trkpt lat="48.85779" lon="2.33678">
        <ele>88.7</ele>
        <time>2015-05-11T18:26:32.681Z</time>
      </trkpt>
      <trkpt lat="48.8578" lon="2.33669">
        <ele>88.7</ele>
        <time>2015-05-11T18:26:33.614Z</time>
      </trkpt>
      <trkpt lat="48.85782" lon="2.3366">
        <ele>88.7</ele>
        <time>2015-05-11T18:26:34.637Z</time>
      </trkpt>
      <trkpt lat="48.85784" lon="2.33652">
        <ele>88.7</ele>
        <time>2015-05-11T18:26:35.653Z</time>
      </trkpt>
      <trkpt lat="48.85785" lon="2.33642">
        <ele>89.3</ele>
        <time>2015-05-11T18:26:36.657Z</time>
      </trkpt>
      <trkpt lat="48.85787" lon="2.33634">
        <ele>89.5</ele>
        <time>2015-05-11T18:26:37.675Z</time>
      </trkpt>
      <trkpt lat="48.85789" lon="2.33627">
        <ele>89.7</ele>
        <time>2015-05-11T18:26:38.684Z</time>
      </trkpt>
      <trkpt lat="48.8579" lon="2.33619">
        <ele>89.8</ele>
        <time>2015-05-11T18:26:39.603Z</time>
      </trkpt>
      <trkpt lat="48.85791" lon="2.33612">
        <ele>90</ele>
        <time>2015-05-11T18:26:40.663Z</time>
      </trkpt>
      <trkpt lat="48.85791" lon="2.33604">
        <ele>90</ele>
        <time>2015-05-11T18:26:41.686Z</time>
      </trkpt>
      <trkpt lat="48.85791" lon="2.33596">
        <ele>90.3</ele>
        <time>2015-05-11T18:26:42.700Z</time>
      </trkpt>
      <trkpt lat="48.85791" lon="2.33588">
        <ele>90.3</ele>
        <time>2015-05-11T18:26:43.640Z</time>
      </trkpt>
      <trkpt lat="48.85789" lon="2.33579">
        <ele>90.7</ele>
        <time>2015-05-11T18:26:44.624Z</time>
      </trkpt>
      <trkpt lat="48.85789" lon="2.33571">
        <ele>91.1</ele>
        <time>2015-05-11T18:26:45.658Z</time>
      </trkpt>
      <trkpt lat="48.85788" lon="2.33562">
        <ele>91.5</ele>
        <time>2015-05-11T18:26:46.654Z</time>
      </trkpt>
      <trkpt lat="48.85787" lon="2.33553">
        <ele>91.7</ele>
        <time>2015-05-11T18:26:47.720Z</time>
      </trkpt>
      <trkpt lat="48.85787" lon="2.33544">
        <ele>92.1</ele>
        <time>2015-05-11T18:26:48.713Z</time>
      </trkpt>
      <trkpt lat="48.85787" lon="2.33535">
        <ele>92.3</ele>
        <time>2015-05-11T18:26:49.603Z</time>
      </trkpt>
      <trkpt lat="48.85788" lon="2.33525">
        <ele>92.8</ele>
        <time>2015-05-11T18:26:50.608Z</time>
      </trkpt>
      <trkpt lat="48.8579" lon="2.33516">
        <ele>93.1</ele>
        <time>2015-05-11T18:26:51.619Z</time>
      </trkpt>
      <trkpt lat="48.85792" lon="2.33507">
        <ele>93</ele>
        <time>2015-05-11T18:26:52.637Z</time>
      </trkpt>
      <trkpt lat="48.85794" lon="2.33497">
        <ele>92.7</ele>
        <time>2015-05-11T18:26:53.645Z</time>
      </trkpt>
      <trkpt lat="48.85796" lon="2.33488">
        <ele>92.7</ele>
        <time>2015-05-11T18:26:54.669Z</time>
      </trkpt>
      <trkpt lat="48.85797" lon="2.33479">
        <ele>92.7</ele>
        <time>2015-05-11T18:26:55.689Z</time>
      </trkpt>
      <trkpt lat="48.85799" lon="2.33471">
        <ele>92.7</ele>
        <time>2015-05-11T18:26:56.603Z</time>
      </trkpt>
      <trkpt lat="48.858" lon="2.33463">
        <ele>92.9</ele>
        <time>2015-05-11T18:26:57.598Z</time>
      </trkpt>
      <trkpt lat="48.85802" lon="2.33455">
        <ele>92.7</ele>
        <time>2015-05-11T18:26:58.599Z</time>
      </trkpt>
      <trkpt lat="48.85803" lon="2.33446">
        <ele>92.6</ele>
        <time>2015-05-11T18:26:59.606Z</time>
      </trkpt>
      <trkpt lat="48.85804" lon="2.33437">
        <ele>92.4</ele>
        <time>2015-05-11T18:27:00.620Z</time>
      </trkpt>
      <trkpt lat="48.85805" lon="2.33429">
        <ele>92.3</ele>
        <time>2015-05-11T18:27:01.653Z</time>
      </trkpt>
      <trkpt lat="48.85806" lon="2.33421">
        <ele>92.2</ele>
        <time>2015-05-11T18:27:02.672Z</time>
      </trkpt>
      <trkpt lat="48.85807" lon="2.33412">
        <ele>92.1</ele>
        <time>2015-05-11T18:27:03.683Z</time>
      </trkpt>
      <trkpt lat="48.8581" lon="2.33404">
        <ele>92</ele>
        <time>2015-05-11T18:27:04.601Z</time>
      </trkpt>
      <trkpt lat="48.85812" lon="2.33396">
        <ele>92</ele>
        <time>2015-05-11T18:27:05.598Z</time>
      </trkpt>
      <trkpt lat="48.85814" lon="2.3339">
        <ele>92.1</ele>
        <time>2015-05-11T18:27:06.660Z</time>
      </trkpt>
      <trkpt lat="48.85816" lon="2.33382">
        <ele>92.2</ele>
        <time>2015-05-11T18:27:07.661Z</time>
      </trkpt>
      <trkpt lat="48.85818" lon="2.33375">
        <ele>91.8</ele>
        <time>2015-05-11T18:27:08.676Z</time>
      </trkpt>
      <trkpt lat="48.8582" lon="2.33368">
        <ele>91.7</ele>
        <time>2015-05-11T18:27:09.693Z</time>
      </trkpt>
      <trkpt lat="48.85822" lon="2.33363">
        <ele>91.8</ele>
        <time>2015-05-11T18:27:10.607Z</time>
      </trkpt>
      <trkpt lat="48.85825" lon="2.33358">
        <ele>91.8</ele>
        <time>2015-05-11T18:27:11.609Z</time>
      </trkpt>
      <trkpt lat="48.85829" lon="2.33354">
        <ele>91.9</ele>
        <time>2015-05-11T18:27:12.646Z</time>
      </trkpt>
      <trkpt lat="48.85833" lon="2.33349">
        <ele>91.7</ele>
        <time>2015-05-11T18:27:13.678Z</time>
      </trkpt>
      <trkpt lat="48.85837" lon="2.33345">
        <ele>91.7</ele>
        <time>2015-05-11T18:27:14.600Z</time>
      </trkpt>
      <trkpt lat="48.8584" lon="2.33333">
        <ele>91.5</ele>
        <time>2015-05-11T18:27:16.624Z</time>
      </trkpt>
      <trkpt lat="48.85843" lon="2.33327">
        <ele>91.5</ele>
        <time>2015-05-11T18:27:17.652Z</time>
      </trkpt>
      <trkpt lat="48.85847" lon="2.33318">
        <ele>91.9</ele>
        <time>2015-05-11T18:27:19.610Z</time>
      </trkpt>
      <trkpt lat="48.85847" lon="2.33314">
        <ele>92.1</ele>
        <time>2015-05-11T18:27:20.623Z</time>
      </trkpt>
      <trkpt lat="48.85849" lon="2.33302">
        <ele>92.7</ele>
        <time>2015-05-11T18:27:23.689Z</time>
      </trkpt>
      <trkpt lat="48.8585" lon="2.33298">
        <ele>93.1</ele>
        <time>2015-05-11T18:27:24.714Z</time>
      </trkpt>
      <trkpt lat="48.85853" lon="2.33288">
        <ele>93.9</ele>
        <time>2015-05-11T18:27:27.643Z</time>
      </trkpt>
      <trkpt lat="48.85855" lon="2.33284">
        <ele>94.3</ele>
        <time>2015-05-11T18:27:28.689Z</time>
      </trkpt>
      <trkpt lat="48.8586" lon="2.33274">
        <ele>94.5</ele>
        <time>2015-05-11T18:27:31.685Z</time>
      </trkpt>
      <trkpt lat="48.85861" lon="2.33271">
        <ele>94.8</ele>
        <time>2015-05-11T18:27:32.669Z</time>
      </trkpt>
      <trkpt lat="48.85862" lon="2.33258">
        <ele>95.4</ele>
        <time>2015-05-11T18:27:37.587Z</time>
      </trkpt>
      <trkpt lat="48.85863" lon="2.33256">
        <ele>95.5</ele>
        <time>2015-05-11T18:27:38.591Z</time>
      </trkpt>
      <trkpt lat="48.85865" lon="2.33246">
        <ele>95.9</ele>
        <time>2015-05-11T18:27:41.592Z</time>
      </trkpt>
      <trkpt lat="48.85867" lon="2.33242">
        <ele>96</ele>
        <time>2015-05-11T18:27:42.912Z</time>
      </trkpt>
      <trkpt lat="48.8587" lon="2.33229">
        <ele>96</ele>
        <time>2015-05-11T18:27:45.689Z</time>
      </trkpt>
      <trkpt lat="48.8587" lon="2.33225">
        <ele>95.9</ele>
        <time>2015-05-11T18:27:46.556Z</time>
      </trkpt>
      <trkpt lat="48.85871" lon="2.33214">
        <ele>95.8</ele>
        <time>2015-05-11T18:27:48.691Z</time>
      </trkpt>
      <trkpt lat="48.85871" lon="2.33208">
        <ele>95.7</ele>
        <time>2015-05-11T18:27:49.574Z</time>
      </trkpt>
      <trkpt lat="48.85874" lon="2.33197">
        <ele>95.6</ele>
        <time>2015-05-11T18:27:51.579Z</time>
      </trkpt>
      <trkpt lat="48.85877" lon="2.33192">
        <ele>95.6</ele>
        <time>2015-05-11T18:27:52.578Z</time>
      </trkpt>
      <trkpt lat="48.8588" lon="2.33186">
        <ele>95.6</ele>
        <time>2015-05-11T18:27:53.588Z</time>
      </trkpt>
      <trkpt lat="48.85883" lon="2.33179">
        <ele>95.5</ele>
        <time>2015-05-11T18:27:54.604Z</time>
      </trkpt>
      <trkpt lat="48.85887" lon="2.33173">
        <ele>95.5</ele>
        <time>2015-05-11T18:27:55.635Z</time>
      </trkpt>
      <trkpt lat="48.8589" lon="2.33166">
        <ele>95.4</ele>
        <time>2015-05-11T18:27:56.638Z</time>
      </trkpt>
      <trkpt lat="48.85895" lon="2.33161">
        <ele>95.3</ele>
        <time>2015-05-11T18:27:57.592Z</time>
      </trkpt>
      <trkpt lat="48.85899" lon="2.33155">
        <ele>95.3</ele>
        <time>2015-05-11T18:27:58.585Z</time>
      </trkpt>
      <trkpt lat="48.85903" lon="2.33149">
        <ele>95.2</ele>
        <time>2015-05-11T18:27:59.597Z</time>
      </trkpt>
      <trkpt lat="48.85907" lon="2.33142">
        <ele>95.2</ele>
        <time>2015-05-11T18:28:00.611Z</time>
      </trkpt>
      <trkpt lat="48.8591" lon="2.33136">
        <ele>95.2</ele>
        <time>2015-05-11T18:28:01.634Z</time>
      </trkpt>
      <trkpt lat="48.85914" lon="2.33129">
        <ele>95.3</ele>
        <time>2015-05-11T18:28:02.573Z</time>
      </trkpt>
      <trkpt lat="48.85917" lon="2.33122">
        <ele>95.3</ele>
        <time>2015-05-11T18:28:03.584Z</time>
      </trkpt>
      <trkpt lat="48.85921" lon="2.33115">
        <ele>95.4</ele>
        <time>2015-05-11T18:28:04.592Z</time>
      </trkpt>
      <trkpt lat="48.85924" lon="2.33108">
        <ele>95.4</ele>
        <time>2015-05-11T18:28:05.602Z</time>
      </trkpt>
      <trkpt lat="48.85927" lon="2.33101">
        <ele>95.4</ele>
        <time>2015-05-11T18:28:06.669Z</time>
      </trkpt>
      <trkpt lat="48.8593" lon="2.33094">
        <ele>95.4</ele>
        <time>2015-05-11T18:28:07.538Z</time>
      </trkpt>
      <trkpt lat="48.85933" lon="2.33087">
        <ele>95.5</ele>
        <time>2015-05-11T18:28:08.565Z</time>
      </trkpt>
      <trkpt lat="48.85937" lon="2.3308">
        <ele>95.5</ele>
        <time>2015-05-11T18:28:09.614Z</time>
      </trkpt>
      <trkpt lat="48.8594" lon="2.33074">
        <ele>95.6</ele>
        <time>2015-05-11T18:28:10.628Z</time>
      </trkpt>
      <trkpt lat="48.85943" lon="2.33068">
        <ele>95.5</ele>
        <time>2015-05-11T18:28:11.612Z</time>
      </trkpt>
      <trkpt lat="48.85946" lon="2.33062">
        <ele>95.5</ele>
        <time>2015-05-11T18:28:12.779Z</time>
      </trkpt>
      <trkpt lat="48.85949" lon="2.33055">
        <ele>95.5</ele>
        <time>2015-05-11T18:28:13.627Z</time>
      </trkpt>
      <trkpt lat="48.85948" lon="2.33048">
        <ele>93.9</ele>
        <time>2015-05-11T18:28:14.638Z</time>
      </trkpt>
      <trkpt lat="48.85951" lon="2.33041">
        <ele>94</ele>
        <time>2015-05-11T18:28:15.625Z</time>
      </trkpt>
      <trkpt lat="48.85954" lon="2.33034">
        <ele>94</ele>
        <time>2015-05-11T18:28:16.588Z</time>
      </trkpt>
      <trkpt lat="48.85957" lon="2.33027">
        <ele>94</ele>
        <time>2015-05-11T18:28:17.635Z</time>
      </trkpt>
      <trkpt lat="48.85961" lon="2.33021">
        <ele>94.1</ele>
        <time>2015-05-11T18:28:18.671Z</time>
      </trkpt>
      <trkpt lat="48.85965" lon="2.33015">
        <ele>94.1</ele>
        <time>2015-05-11T18:28:19.557Z</time>
      </trkpt>
      <trkpt lat="48.85968" lon="2.3301">
        <ele>94.2</ele>
        <time>2015-05-11T18:28:20.578Z</time>
      </trkpt>
      <trkpt lat="48.85971" lon="2.33004">
        <ele>94.2</ele>
        <time>2015-05-11T18:28:21.675Z</time>
      </trkpt>
      <trkpt lat="48.85973" lon="2.32998">
        <ele>94.3</ele>
        <time>2015-05-11T18:28:22.576Z</time>
      </trkpt>
      <trkpt lat="48.85977" lon="2.32988">
        <ele>94.6</ele>
        <time>2015-05-11T18:28:24.630Z</time>
      </trkpt>
      <trkpt lat="48.85979" lon="2.32982">
        <ele>94.7</ele>
        <time>2015-05-11T18:28:25.652Z</time>
      </trkpt>
      <trkpt lat="48.85981" lon="2.32976">
        <ele>94.8</ele>
        <time>2015-05-11T18:28:26.668Z</time>
      </trkpt>
      <trkpt lat="48.85982" lon="2.32969">
        <ele>94.2</ele>
        <time>2015-05-11T18:28:27.696Z</time>
      </trkpt>
      <trkpt lat="48.85985" lon="2.32957">
        <ele>93.6</ele>
        <time>2015-05-11T18:28:29.632Z</time>
      </trkpt>
      <trkpt lat="48.85988" lon="2.32951">
        <ele>93.7</ele>
        <time>2015-05-11T18:28:30.633Z</time>
      </trkpt>
      <trkpt lat="48.85989" lon="2.32944">
        <ele>93.8</ele>
        <time>2015-05-11T18:28:31.641Z</time>
      </trkpt>
      <trkpt lat="48.85992" lon="2.32937">
        <ele>93.8</ele>
        <time>2015-05-11T18:28:32.593Z</time>
      </trkpt>
      <trkpt lat="48.85994" lon="2.3293">
        <ele>93.8</ele>
        <time>2015-05-11T18:28:33.592Z</time>
      </trkpt>
      <trkpt lat="48.85996" lon="2.32924">
        <ele>93.8</ele>
        <time>2015-05-11T18:28:34.598Z</time>
      </trkpt>
      <trkpt lat="48.85998" lon="2.32917">
        <ele>93.9</ele>
        <time>2015-05-11T18:28:35.606Z</time>
      </trkpt>
      <trkpt lat="48.86" lon="2.32909">
        <ele>93.8</ele>
        <time>2015-05-11T18:28:36.664Z</time>
      </trkpt>
      <trkpt lat="48.85999" lon="2.32901">
        <ele>92.9</ele>
        <time>2015-05-11T18:28:37.571Z</time>
      </trkpt>
      <trkpt lat="48.85993" lon="2.32892">
        <ele>89.8</ele>
        <time>2015-05-11T18:28:38.604Z</time>
      </trkpt>
      <trkpt lat="48.85991" lon="2.32884">
        <ele>87.5</ele>
        <time>2015-05-11T18:28:39.609Z</time>
      </trkpt>
      <trkpt lat="48.85991" lon="2.32877">
        <ele>86.8</ele>
        <time>2015-05-11T18:28:40.619Z</time>
      </trkpt>
      <trkpt lat="48.85993" lon="2.32869">
        <ele>86.8</ele>
        <time>2015-05-11T18:28:41.626Z</time>
      </trkpt>
      <trkpt lat="48.85995" lon="2.32861">
        <ele>86.9</ele>
        <time>2015-05-11T18:28:42.649Z</time>
      </trkpt>
      <trkpt lat="48.85998" lon="2.32853">
        <ele>87</ele>
        <time>2015-05-11T18:28:43.661Z</time>
      </trkpt>
      <trkpt lat="48.85999" lon="2.32847">
        <ele>87.2</ele>
        <time>2015-05-11T18:28:44.671Z</time>
      </trkpt>
      <trkpt lat="48.86003" lon="2.32835">
        <ele>87.3</ele>
        <time>2015-05-11T18:28:46.596Z</time>
      </trkpt>
      <trkpt lat="48.86005" lon="2.32829">
        <ele>87.5</ele>
        <time>2015-05-11T18:28:47.601Z</time>
      </trkpt>
      <trkpt lat="48.86007" lon="2.32821">
        <ele>87.7</ele>
        <time>2015-05-11T18:28:49.645Z</time>
      </trkpt>
      <trkpt lat="48.8601" lon="2.32817">
        <ele>87.3</ele>
        <time>2015-05-11T18:28:50.610Z</time>
      </trkpt>
      <trkpt lat="48.86015" lon="2.32811">
        <ele>87.4</ele>
        <time>2015-05-11T18:28:52.577Z</time>
      </trkpt>
      <trkpt lat="48.86017" lon="2.32807">
        <ele>87.5</ele>
        <time>2015-05-11T18:28:53.707Z</time>
      </trkpt>
      <trkpt lat="48.86022" lon="2.32799">
        <ele>87.6</ele>
        <time>2015-05-11T18:28:55.596Z</time>
      </trkpt>
      <trkpt lat="48.86025" lon="2.32793">
        <ele>87.6</ele>
        <time>2015-05-11T18:28:56.628Z</time>
      </trkpt>
      <trkpt lat="48.86028" lon="2.32786">
        <ele>87.6</ele>
        <time>2015-05-11T18:28:57.701Z</time>
      </trkpt>
      <trkpt lat="48.86031" lon="2.32779">
        <ele>87.7</ele>
        <time>2015-05-11T18:28:58.709Z</time>
      </trkpt>
      <trkpt lat="48.86035" lon="2.32771">
        <ele>87.8</ele>
        <time>2015-05-11T18:28:59.585Z</time>
      </trkpt>
      <trkpt lat="48.86039" lon="2.32762">
        <ele>87.7</ele>
        <time>2015-05-11T18:29:00.600Z</time>
      </trkpt>
      <trkpt lat="48.86044" lon="2.32754">
        <ele>87.7</ele>
        <time>2015-05-11T18:29:01.613Z</time>
      </trkpt>
      <trkpt lat="48.86048" lon="2.32745">
        <ele>87.7</ele>
        <time>2015-05-11T18:29:02.632Z</time>
      </trkpt>
      <trkpt lat="48.86053" lon="2.32736">
        <ele>87.7</ele>
        <time>2015-05-11T18:29:03.651Z</time>
      </trkpt>
      <trkpt lat="48.86056" lon="2.32726">
        <ele>87.8</ele>
        <time>2015-05-11T18:29:04.663Z</time>
      </trkpt>
      <trkpt lat="48.8606" lon="2.32716">
        <ele>88</ele>
        <time>2015-05-11T18:29:05.585Z</time>
      </trkpt>
      <trkpt lat="48.86063" lon="2.32705">
        <ele>88.2</ele>
        <time>2015-05-11T18:29:06.628Z</time>
      </trkpt>
      <trkpt lat="48.86067" lon="2.32695">
        <ele>88.3</ele>
        <time>2015-05-11T18:29:07.640Z</time>
      </trkpt>
      <trkpt lat="48.8607" lon="2.32686">
        <ele>88.3</ele>
        <time>2015-05-11T18:29:08.658Z</time>
      </trkpt>
      <trkpt lat="48.86074" lon="2.32677">
        <ele>88.3</ele>
        <time>2015-05-11T18:29:09.668Z</time>
      </trkpt>
      <trkpt lat="48.86077" lon="2.32668">
        <ele>88.4</ele>
        <time>2015-05-11T18:29:10.591Z</time>
      </trkpt>
      <trkpt lat="48.8608" lon="2.3266">
        <ele>88.4</ele>
        <time>2015-05-11T18:29:11.586Z</time>
      </trkpt>
      <trkpt lat="48.86083" lon="2.32652">
        <ele>88.5</ele>
        <time>2015-05-11T18:29:12.645Z</time>
      </trkpt>
      <trkpt lat="48.86087" lon="2.32643">
        <ele>88.6</ele>
        <time>2015-05-11T18:29:13.639Z</time>
      </trkpt>
      <trkpt lat="48.86089" lon="2.32634">
        <ele>88.6</ele>
        <time>2015-05-11T18:29:14.653Z</time>
      </trkpt>
      <trkpt lat="48.86092" lon="2.32625">
        <ele>88.7</ele>
        <time>2015-05-11T18:29:15.668Z</time>
      </trkpt>
      <trkpt lat="48.86094" lon="2.32616">
        <ele>88.8</ele>
        <time>2015-05-11T18:29:16.676Z</time>
      </trkpt>
      <trkpt lat="48.86097" lon="2.32608">
        <ele>88.9</ele>
        <time>2015-05-11T18:29:17.684Z</time>
      </trkpt>
      <trkpt lat="48.86099" lon="2.326">
        <ele>88.9</ele>
        <time>2015-05-11T18:29:18.716Z</time>
      </trkpt>
      <trkpt lat="48.861" lon="2.32592">
        <ele>88.9</ele>
        <time>2015-05-11T18:29:19.598Z</time>
      </trkpt>
      <trkpt lat="48.86101" lon="2.32583">
        <ele>88.6</ele>
        <time>2015-05-11T18:29:20.603Z</time>
      </trkpt>
      <trkpt lat="48.86102" lon="2.32574">
        <ele>88.3</ele>
        <time>2015-05-11T18:29:21.626Z</time>
      </trkpt>
      <trkpt lat="48.86105" lon="2.32564">
        <ele>88.1</ele>
        <time>2015-05-11T18:29:22.629Z</time>
      </trkpt>
      <trkpt lat="48.86107" lon="2.32555">
        <ele>88</ele>
        <time>2015-05-11T18:29:23.641Z</time>
      </trkpt>
      <trkpt lat="48.86109" lon="2.32547">
        <ele>87.7</ele>
        <time>2015-05-11T18:29:24.660Z</time>
      </trkpt>
      <trkpt lat="48.86109" lon="2.32538">
        <ele>86.6</ele>
        <time>2015-05-11T18:29:25.670Z</time>
      </trkpt>
      <trkpt lat="48.86109" lon="2.3253">
        <ele>85.8</ele>
        <time>2015-05-11T18:29:26.676Z</time>
      </trkpt>
      <trkpt lat="48.86109" lon="2.32522">
        <ele>85.6</ele>
        <time>2015-05-11T18:29:27.597Z</time>
      </trkpt>
      <trkpt lat="48.86111" lon="2.32514">
        <ele>85.2</ele>
        <time>2015-05-11T18:29:28.599Z</time>
      </trkpt>
      <trkpt lat="48.86112" lon="2.32506">
        <ele>84.7</ele>
        <time>2015-05-11T18:29:29.622Z</time>
      </trkpt>
      <trkpt lat="48.86113" lon="2.32499">
        <ele>84.4</ele>
        <time>2015-05-11T18:29:30.647Z</time>
      </trkpt>
      <trkpt lat="48.86114" lon="2.32491">
        <ele>84</ele>
        <time>2015-05-11T18:29:31.650Z</time>
      </trkpt>
      <trkpt lat="48.86116" lon="2.32484">
        <ele>83.5</ele>
        <time>2015-05-11T18:29:32.667Z</time>
      </trkpt>
      <trkpt lat="48.86118" lon="2.32477">
        <ele>83.3</ele>
        <time>2015-05-11T18:29:33.586Z</time>
      </trkpt>
      <trkpt lat="48.8612" lon="2.3247">
        <ele>83.3</ele>
        <time>2015-05-11T18:29:34.595Z</time>
      </trkpt>
      <trkpt lat="48.86122" lon="2.32463">
        <ele>83</ele>
        <time>2015-05-11T18:29:35.615Z</time>
      </trkpt>
      <trkpt lat="48.86125" lon="2.32455">
        <ele>82.8</ele>
        <time>2015-05-11T18:29:36.632Z</time>
      </trkpt>
      <trkpt lat="48.86127" lon="2.32447">
        <ele>83.3</ele>
        <time>2015-05-11T18:29:37.637Z</time>
      </trkpt>
      <trkpt lat="48.86129" lon="2.3244">
        <ele>83.2</ele>
        <time>2015-05-11T18:29:38.649Z</time>
      </trkpt>
      <trkpt lat="48.86131" lon="2.32432">
        <ele>82.6</ele>
        <time>2015-05-11T18:29:39.664Z</time>
      </trkpt>
      <trkpt lat="48.86134" lon="2.32425">
        <ele>82.4</ele>
        <time>2015-05-11T18:29:40.671Z</time>
      </trkpt>
      <trkpt lat="48.86136" lon="2.32417">
        <ele>82.4</ele>
        <time>2015-05-11T18:29:41.588Z</time>
      </trkpt>
      <trkpt lat="48.86139" lon="2.3241">
        <ele>82.4</ele>
        <time>2015-05-11T18:29:42.619Z</time>
      </trkpt>
      <trkpt lat="48.86142" lon="2.32402">
        <ele>82.4</ele>
        <time>2015-05-11T18:29:43.615Z</time>
      </trkpt>
      <trkpt lat="48.86145" lon="2.32395">
        <ele>82.4</ele>
        <time>2015-05-11T18:29:44.626Z</time>
      </trkpt>
      <trkpt lat="48.86148" lon="2.32388">
        <ele>82.6</ele>
        <time>2015-05-11T18:29:45.644Z</time>
      </trkpt>
      <trkpt lat="48.86151" lon="2.32381">
        <ele>82.8</ele>
        <time>2015-05-11T18:29:46.649Z</time>
      </trkpt>
      <trkpt lat="48.86154" lon="2.32374">
        <ele>82.7</ele>
        <time>2015-05-11T18:29:47.662Z</time>
      </trkpt>
      <trkpt lat="48.86157" lon="2.32366">
        <ele>82.5</ele>
        <time>2015-05-11T18:29:48.671Z</time>
      </trkpt>
      <trkpt lat="48.8616" lon="2.32359">
        <ele>82.7</ele>
        <time>2015-05-11T18:29:49.677Z</time>
      </trkpt>
      <trkpt lat="48.86162" lon="2.32352">
        <ele>82.9</ele>
        <time>2015-05-11T18:29:50.814Z</time>
      </trkpt>
      <trkpt lat="48.86165" lon="2.32346">
        <ele>83</ele>
        <time>2015-05-11T18:29:51.602Z</time>
      </trkpt>
      <trkpt lat="48.86167" lon="2.32339">
        <ele>83.1</ele>
        <time>2015-05-11T18:29:52.584Z</time>
      </trkpt>
      <trkpt lat="48.86167" lon="2.32332">
        <ele>82.1</ele>
        <time>2015-05-11T18:29:53.601Z</time>
      </trkpt>
      <trkpt lat="48.86169" lon="2.32325">
        <ele>81.5</ele>
        <time>2015-05-11T18:29:54.641Z</time>
      </trkpt>
      <trkpt lat="48.8617" lon="2.32318">
        <ele>81.1</ele>
        <time>2015-05-11T18:29:55.658Z</time>
      </trkpt>
      <trkpt lat="48.86171" lon="2.32311">
        <ele>80.9</ele>
        <time>2015-05-11T18:29:56.662Z</time>
      </trkpt>
      <trkpt lat="48.86174" lon="2.32303">
        <ele>80.5</ele>
        <time>2015-05-11T18:29:57.676Z</time>
      </trkpt>
      <trkpt lat="48.86176" lon="2.32295">
        <ele>80.5</ele>
        <time>2015-05-11T18:29:58.600Z</time>
      </trkpt>
      <trkpt lat="48.86178" lon="2.32286">
        <ele>80.3</ele>
        <time>2015-05-11T18:29:59.575Z</time>
      </trkpt>
      <trkpt lat="48.8618" lon="2.32278">
        <ele>80.1</ele>
        <time>2015-05-11T18:30:00.620Z</time>
      </trkpt>
      <trkpt lat="48.86182" lon="2.3227">
        <ele>80</ele>
        <time>2015-05-11T18:30:01.629Z</time>
      </trkpt>
      <trkpt lat="48.86184" lon="2.32263">
        <ele>79.9</ele>
        <time>2015-05-11T18:30:02.833Z</time>
      </trkpt>
      <trkpt lat="48.86184" lon="2.32252">
        <ele>80.5</ele>
        <time>2015-05-11T18:30:03.670Z</time>
      </trkpt>
      <trkpt lat="48.86186" lon="2.32243">
        <ele>80.3</ele>
        <time>2015-05-11T18:30:04.680Z</time>
      </trkpt>
      <trkpt lat="48.86188" lon="2.32235">
        <ele>80.4</ele>
        <time>2015-05-11T18:30:05.601Z</time>
      </trkpt>
      <trkpt lat="48.86191" lon="2.32227">
        <ele>80.3</ele>
        <time>2015-05-11T18:30:06.717Z</time>
      </trkpt>
      <trkpt lat="48.86193" lon="2.3222">
        <ele>80</ele>
        <time>2015-05-11T18:30:07.592Z</time>
      </trkpt>
      <trkpt lat="48.86195" lon="2.32213">
        <ele>80</ele>
        <time>2015-05-11T18:30:08.601Z</time>
      </trkpt>
      <trkpt lat="48.86198" lon="2.32206">
        <ele>80</ele>
        <time>2015-05-11T18:30:09.620Z</time>
      </trkpt>
      <trkpt lat="48.862" lon="2.322">
        <ele>79.8</ele>
        <time>2015-05-11T18:30:10.629Z</time>
      </trkpt>
      <trkpt lat="48.86203" lon="2.32192">
        <ele>79.5</ele>
        <time>2015-05-11T18:30:11.657Z</time>
      </trkpt>
      <trkpt lat="48.86205" lon="2.32186">
        <ele>79.6</ele>
        <time>2015-05-11T18:30:12.672Z</time>
      </trkpt>
      <trkpt lat="48.86207" lon="2.3218">
        <ele>79.5</ele>
        <time>2015-05-11T18:30:13.599Z</time>
      </trkpt>
      <trkpt lat="48.86209" lon="2.32173">
        <ele>79.4</ele>
        <time>2015-05-11T18:30:14.596Z</time>
      </trkpt>
      <trkpt lat="48.86212" lon="2.32167">
        <ele>79.3</ele>
        <time>2015-05-11T18:30:15.697Z</time>
      </trkpt>
      <trkpt lat="48.86215" lon="2.3216">
        <ele>79.3</ele>
        <time>2015-05-11T18:30:16.625Z</time>
      </trkpt>
      <trkpt lat="48.86218" lon="2.32153">
        <ele>79.2</ele>
        <time>2015-05-11T18:30:17.630Z</time>
      </trkpt>
      <trkpt lat="48.86221" lon="2.32147">
        <ele>79.3</ele>
        <time>2015-05-11T18:30:18.659Z</time>
      </trkpt>
      <trkpt lat="48.86224" lon="2.32141">
        <ele>79.1</ele>
        <time>2015-05-11T18:30:19.668Z</time>
      </trkpt>
      <trkpt lat="48.86227" lon="2.32135">
        <ele>79</ele>
        <time>2015-05-11T18:30:20.680Z</time>
      </trkpt>
      <trkpt lat="48.86229" lon="2.32128">
        <ele>79.1</ele>
        <time>2015-05-11T18:30:21.596Z</time>
      </trkpt>
      <trkpt lat="48.86232" lon="2.32121">
        <ele>79</ele>
        <time>2015-05-11T18:30:22.603Z</time>
      </trkpt>
      <trkpt lat="48.86235" lon="2.32114">
        <ele>79.1</ele>
        <time>2015-05-11T18:30:23.609Z</time>
      </trkpt>
      <trkpt lat="48.86238" lon="2.32107">
        <ele>79.2</ele>
        <time>2015-05-11T18:30:24.640Z</time>
      </trkpt>
      <trkpt lat="48.86242" lon="2.32099">
        <ele>79.2</ele>
        <time>2015-05-11T18:30:25.668Z</time>
      </trkpt>
      <trkpt lat="48.86246" lon="2.32092">
        <ele>79.2</ele>
        <time>2015-05-11T18:30:26.677Z</time>
      </trkpt>
      <trkpt lat="48.86249" lon="2.32085">
        <ele>79.2</ele>
        <time>2015-05-11T18:30:27.596Z</time>
      </trkpt>
      <trkpt lat="48.86252" lon="2.32077">
        <ele>79.3</ele>
        <time>2015-05-11T18:30:28.603Z</time>
      </trkpt>
      <trkpt lat="48.86255" lon="2.32069">
        <ele>79.3</ele>
        <time>2015-05-11T18:30:29.633Z</time>
      </trkpt>
      <trkpt lat="48.86257" lon="2.32061">
        <ele>79.5</ele>
        <time>2015-05-11T18:30:30.649Z</time>
      </trkpt>
      <trkpt lat="48.86259" lon="2.32052">
        <ele>79.6</ele>
        <time>2015-05-11T18:30:31.666Z</time>
      </trkpt>
      <trkpt lat="48.86262" lon="2.32044">
        <ele>79.6</ele>
        <time>2015-05-11T18:30:32.676Z</time>
      </trkpt>
      <trkpt lat="48.86264" lon="2.32036">
        <ele>79.8</ele>
        <time>2015-05-11T18:30:33.680Z</time>
      </trkpt>
      <trkpt lat="48.86266" lon="2.32028">
        <ele>79.7</ele>
        <time>2015-05-11T18:30:34.599Z</time>
      </trkpt>
      <trkpt lat="48.86265" lon="2.3202">
        <ele>78.5</ele>
        <time>2015-05-11T18:30:35.593Z</time>
      </trkpt>
      <trkpt lat="48.86268" lon="2.32011">
        <ele>78.5</ele>
        <time>2015-05-11T18:30:36.643Z</time>
      </trkpt>
      <trkpt lat="48.8627" lon="2.32004">
        <ele>78.4</ele>
        <time>2015-05-11T18:30:37.658Z</time>
      </trkpt>
      <trkpt lat="48.86273" lon="2.31995">
        <ele>78.2</ele>
        <time>2015-05-11T18:30:38.665Z</time>
      </trkpt>
      <trkpt lat="48.86275" lon="2.31986">
        <ele>78.1</ele>
        <time>2015-05-11T18:30:39.566Z</time>
      </trkpt>
      <trkpt lat="48.86277" lon="2.31978">
        <ele>78.2</ele>
        <time>2015-05-11T18:30:40.585Z</time>
      </trkpt>
      <trkpt lat="48.8628" lon="2.3197">
        <ele>78.1</ele>
        <time>2015-05-11T18:30:41.595Z</time>
      </trkpt>
      <trkpt lat="48.86283" lon="2.31962">
        <ele>78.6</ele>
        <time>2015-05-11T18:30:42.625Z</time>
      </trkpt>
      <trkpt lat="48.86286" lon="2.31954">
        <ele>78.9</ele>
        <time>2015-05-11T18:30:43.646Z</time>
      </trkpt>
      <trkpt lat="48.86304" lon="2.31903">
        <ele>79.8</ele>
        <time>2015-05-11T18:30:49.614Z</time>
      </trkpt>
      <trkpt lat="48.86305" lon="2.31894">
        <ele>80.1</ele>
        <time>2015-05-11T18:30:50.574Z</time>
      </trkpt>
      <trkpt lat="48.86307" lon="2.31885">
        <ele>80.2</ele>
        <time>2015-05-11T18:30:51.621Z</time>
      </trkpt>
      <trkpt lat="48.86309" lon="2.31877">
        <ele>80.4</ele>
        <time>2015-05-11T18:30:52.595Z</time>
      </trkpt>
      <trkpt lat="48.86312" lon="2.31869">
        <ele>80</ele>
        <time>2015-05-11T18:30:53.617Z</time>
      </trkpt>
      <trkpt lat="48.86313" lon="2.31861">
        <ele>79.6</ele>
        <time>2015-05-11T18:30:54.665Z</time>
      </trkpt>
      <trkpt lat="48.86315" lon="2.31854">
        <ele>78.9</ele>
        <time>2015-05-11T18:30:55.598Z</time>
      </trkpt>
      <trkpt lat="48.86316" lon="2.31846">
        <ele>78.2</ele>
        <time>2015-05-11T18:30:56.586Z</time>
      </trkpt>
      <trkpt lat="48.86318" lon="2.31839">
        <ele>77.6</ele>
        <time>2015-05-11T18:30:57.571Z</time>
      </trkpt>
      <trkpt lat="48.86318" lon="2.31831">
        <ele>77.2</ele>
        <time>2015-05-11T18:30:58.700Z</time>
      </trkpt>
      <trkpt lat="48.86319" lon="2.31823">
        <ele>76.7</ele>
        <time>2015-05-11T18:30:59.616Z</time>
      </trkpt>
      <trkpt lat="48.8632" lon="2.31815">
        <ele>75.9</ele>
        <time>2015-05-11T18:31:00.598Z</time>
      </trkpt>
      <trkpt lat="48.86322" lon="2.31807">
        <ele>75.7</ele>
        <time>2015-05-11T18:31:01.606Z</time>
      </trkpt>
      <trkpt lat="48.86324" lon="2.318">
        <ele>75.6</ele>
        <time>2015-05-11T18:31:02.672Z</time>
      </trkpt>
      <trkpt lat="48.86326" lon="2.31793">
        <ele>75.6</ele>
        <time>2015-05-11T18:31:03.598Z</time>
      </trkpt>
      <trkpt lat="48.86328" lon="2.31785">
        <ele>75.7</ele>
        <time>2015-05-11T18:31:04.589Z</time>
      </trkpt>
      <trkpt lat="48.86327" lon="2.31778">
        <ele>74.7</ele>
        <time>2015-05-11T18:31:05.677Z</time>
      </trkpt>
      <trkpt lat="48.86327" lon="2.3177">
        <ele>73.7</ele>
        <time>2015-05-11T18:31:06.615Z</time>
      </trkpt>
      <trkpt lat="48.86326" lon="2.31762">
        <ele>72.7</ele>
        <time>2015-05-11T18:31:07.611Z</time>
      </trkpt>
      <trkpt lat="48.86325" lon="2.31754">
        <ele>72</ele>
        <time>2015-05-11T18:31:08.633Z</time>
      </trkpt>
      <trkpt lat="48.86325" lon="2.31746">
        <ele>72</ele>
        <time>2015-05-11T18:31:09.675Z</time>
      </trkpt>
      <trkpt lat="48.86324" lon="2.31738">
        <ele>71.3</ele>
        <time>2015-05-11T18:31:10.584Z</time>
      </trkpt>
      <trkpt lat="48.86324" lon="2.3173">
        <ele>71.4</ele>
        <time>2015-05-11T18:31:11.583Z</time>
      </trkpt>
      <trkpt lat="48.86324" lon="2.31722">
        <ele>71.1</ele>
        <time>2015-05-11T18:31:12.590Z</time>
      </trkpt>
      <trkpt lat="48.86323" lon="2.31714">
        <ele>69.9</ele>
        <time>2015-05-11T18:31:13.617Z</time>
      </trkpt>
      <trkpt lat="48.86323" lon="2.31706">
        <ele>69.3</ele>
        <time>2015-05-11T18:31:14.630Z</time>
      </trkpt>
      <trkpt lat="48.86322" lon="2.31698">
        <ele>69</ele>
        <time>2015-05-11T18:31:15.645Z</time>
      </trkpt>
      <trkpt lat="48.86322" lon="2.3169">
        <ele>68.3</ele>
        <time>2015-05-11T18:31:16.908Z</time>
      </trkpt>
      <trkpt lat="48.86322" lon="2.31682">
        <ele>68.9</ele>
        <time>2015-05-11T18:31:17.593Z</time>
      </trkpt>
      <trkpt lat="48.86322" lon="2.31674">
        <ele>69.2</ele>
        <time>2015-05-11T18:31:18.707Z</time>
      </trkpt>
      <trkpt lat="48.86321" lon="2.31665">
        <ele>68.4</ele>
        <time>2015-05-11T18:31:19.594Z</time>
      </trkpt>
      <trkpt lat="48.8632" lon="2.31656">
        <ele>68.9</ele>
        <time>2015-05-11T18:31:20.585Z</time>
      </trkpt>
      <trkpt lat="48.86319" lon="2.31648">
        <ele>68.9</ele>
        <time>2015-05-11T18:31:21.595Z</time>
      </trkpt>
      <trkpt lat="48.86319" lon="2.3164">
        <ele>69.9</ele>
        <time>2015-05-11T18:31:22.614Z</time>
      </trkpt>
      <trkpt lat="48.86318" lon="2.31632">
        <ele>70.4</ele>
        <time>2015-05-11T18:31:23.629Z</time>
      </trkpt>
      <trkpt lat="48.86318" lon="2.31625">
        <ele>70.7</ele>
        <time>2015-05-11T18:31:24.638Z</time>
      </trkpt>
      <trkpt lat="48.86318" lon="2.31617">
        <ele>70.5</ele>
        <time>2015-05-11T18:31:25.643Z</time>
      </trkpt>
      <trkpt lat="48.86318" lon="2.31609">
        <ele>70.7</ele>
        <time>2015-05-11T18:31:26.573Z</time>
      </trkpt>
      <trkpt lat="48.86317" lon="2.31601">
        <ele>71.1</ele>
        <time>2015-05-11T18:31:27.569Z</time>
      </trkpt>
      <trkpt lat="48.86317" lon="2.31592">
        <ele>71.8</ele>
        <time>2015-05-11T18:31:28.578Z</time>
      </trkpt>
      <trkpt lat="48.86317" lon="2.31584">
        <ele>71.8</ele>
        <time>2015-05-11T18:31:29.591Z</time>
      </trkpt>
      <trkpt lat="48.86317" lon="2.31571">
        <ele>73.1</ele>
        <time>2015-05-11T18:31:31.626Z</time>
      </trkpt>
      <trkpt lat="48.86316" lon="2.31565">
        <ele>73.3</ele>
        <time>2015-05-11T18:31:32.641Z</time>
      </trkpt>
      <trkpt lat="48.86316" lon="2.31558">
        <ele>73.4</ele>
        <time>2015-05-11T18:31:33.652Z</time>
      </trkpt>
      <trkpt lat="48.86316" lon="2.31551">
        <ele>73.5</ele>
        <time>2015-05-11T18:31:34.562Z</time>
      </trkpt>
      <trkpt lat="48.86317" lon="2.31538">
        <ele>73.8</ele>
        <time>2015-05-11T18:31:36.644Z</time>
      </trkpt>
      <trkpt lat="48.86317" lon="2.31533">
        <ele>73.7</ele>
        <time>2015-05-11T18:31:37.640Z</time>
      </trkpt>
      <trkpt lat="48.86317" lon="2.31522">
        <ele>74.1</ele>
        <time>2015-05-11T18:31:40.591Z</time>
      </trkpt>
      <trkpt lat="48.86317" lon="2.31519">
        <ele>74.2</ele>
        <time>2015-05-11T18:31:41.621Z</time>
      </trkpt>
      <trkpt lat="48.86317" lon="2.31506">
        <ele>74.7</ele>
        <time>2015-05-11T18:31:46.629Z</time>
      </trkpt>
      <trkpt lat="48.86317" lon="2.31504">
        <ele>74.9</ele>
        <time>2015-05-11T18:31:47.678Z</time>
      </trkpt>
      <trkpt lat="48.86318" lon="2.31493">
        <ele>75.2</ele>
        <time>2015-05-11T18:31:51.608Z</time>
      </trkpt>
      <trkpt lat="48.86318" lon="2.31489">
        <ele>75.3</ele>
        <time>2015-05-11T18:31:52.685Z</time>
      </trkpt>
      <trkpt lat="48.86317" lon="2.31479">
        <ele>74.8</ele>
        <time>2015-05-11T18:31:54.625Z</time>
      </trkpt>
      <trkpt lat="48.86317" lon="2.31474">
        <ele>74.9</ele>
        <time>2015-05-11T18:31:55.635Z</time>
      </trkpt>
      <trkpt lat="48.86316" lon="2.31463">
        <ele>74.7</ele>
        <time>2015-05-11T18:31:57.686Z</time>
      </trkpt>
      <trkpt lat="48.86316" lon="2.31458">
        <ele>74.7</ele>
        <time>2015-05-11T18:31:58.689Z</time>
      </trkpt>
      <trkpt lat="48.86315" lon="2.31449">
        <ele>74.8</ele>
        <time>2015-05-11T18:32:00.683Z</time>
      </trkpt>
      <trkpt lat="48.86315" lon="2.31443">
        <ele>74.8</ele>
        <time>2015-05-11T18:32:01.873Z</time>
      </trkpt>
      <trkpt lat="48.86315" lon="2.31432">
        <ele>74.2</ele>
        <time>2015-05-11T18:32:03.684Z</time>
      </trkpt>
      <trkpt lat="48.86315" lon="2.31425">
        <ele>74.1</ele>
        <time>2015-05-11T18:32:04.582Z</time>
      </trkpt>
      <trkpt lat="48.86317" lon="2.31414">
        <ele>74.4</ele>
        <time>2015-05-11T18:32:06.655Z</time>
      </trkpt>
      <trkpt lat="48.8632" lon="2.3141">
        <ele>74.7</ele>
        <time>2015-05-11T18:32:07.607Z</time>
      </trkpt>
      <trkpt lat="48.86322" lon="2.31405">
        <ele>74.8</ele>
        <time>2015-05-11T18:32:08.682Z</time>
      </trkpt>
      <trkpt lat="48.86326" lon="2.31366">
        <ele>75</ele>
        <time>2015-05-11T18:32:17.581Z</time>
      </trkpt>
      <trkpt lat="48.86326" lon="2.31361">
        <ele>74.8</ele>
        <time>2015-05-11T18:32:18.709Z</time>
      </trkpt>
      <trkpt lat="48.86324" lon="2.31352">
        <ele>74.5</ele>
        <time>2015-05-11T18:32:19.694Z</time>
      </trkpt>
      <trkpt lat="48.86323" lon="2.31342">
        <ele>74.4</ele>
        <time>2015-05-11T18:32:20.566Z</time>
      </trkpt>
      <trkpt lat="48.86322" lon="2.31332">
        <ele>74.3</ele>
        <time>2015-05-11T18:32:21.561Z</time>
      </trkpt>
      <trkpt lat="48.86319" lon="2.3132">
        <ele>74.5</ele>
        <time>2015-05-11T18:32:22.577Z</time>
      </trkpt>
      <trkpt lat="48.86319" lon="2.31308">
        <ele>74.3</ele>
        <time>2015-05-11T18:32:23.597Z</time>
      </trkpt>
      <trkpt lat="48.86319" lon="2.31296">
        <ele>74.1</ele>
        <time>2015-05-11T18:32:24.625Z</time>
      </trkpt>
      <trkpt lat="48.86318" lon="2.31285">
        <ele>73.9</ele>
        <time>2015-05-11T18:32:25.644Z</time>
      </trkpt>
      <trkpt lat="48.86317" lon="2.31275">
        <ele>74.4</ele>
        <time>2015-05-11T18:32:26.545Z</time>
      </trkpt>
      <trkpt lat="48.86314" lon="2.31264">
        <ele>73.9</ele>
        <time>2015-05-11T18:32:27.576Z</time>
      </trkpt>
      <trkpt lat="48.86312" lon="2.31254">
        <ele>73.3</ele>
        <time>2015-05-11T18:32:28.597Z</time>
      </trkpt>
      <trkpt lat="48.86309" lon="2.31237">
        <ele>74.2</ele>
        <time>2015-05-11T18:32:29.610Z</time>
      </trkpt>
      <trkpt lat="48.86309" lon="2.31228">
        <ele>73.8</ele>
        <time>2015-05-11T18:32:30.620Z</time>
      </trkpt>
      <trkpt lat="48.86308" lon="2.31218">
        <ele>74</ele>
        <time>2015-05-11T18:32:31.634Z</time>
      </trkpt>
      <trkpt lat="48.86308" lon="2.31208">
        <ele>73.8</ele>
        <time>2015-05-11T18:32:32.590Z</time>
      </trkpt>
      <trkpt lat="48.86307" lon="2.312">
        <ele>74</ele>
        <time>2015-05-11T18:32:33.548Z</time>
      </trkpt>
      <trkpt lat="48.86307" lon="2.31191">
        <ele>74</ele>
        <time>2015-05-11T18:32:34.592Z</time>
      </trkpt>
      <trkpt lat="48.86308" lon="2.31182">
        <ele>73</ele>
        <time>2015-05-11T18:32:35.604Z</time>
      </trkpt>
      <trkpt lat="48.86308" lon="2.31173">
        <ele>73</ele>
        <time>2015-05-11T18:32:36.676Z</time>
      </trkpt>
      <trkpt lat="48.86308" lon="2.31164">
        <ele>73.4</ele>
        <time>2015-05-11T18:32:37.544Z</time>
      </trkpt>
      <trkpt lat="48.86308" lon="2.31155">
        <ele>72.9</ele>
        <time>2015-05-11T18:32:38.573Z</time>
      </trkpt>
      <trkpt lat="48.86307" lon="2.31147">
        <ele>72.3</ele>
        <time>2015-05-11T18:32:39.582Z</time>
      </trkpt>
      <trkpt lat="48.86307" lon="2.31138">
        <ele>72.9</ele>
        <time>2015-05-11T18:32:40.623Z</time>
      </trkpt>
      <trkpt lat="48.86307" lon="2.31129">
        <ele>72.7</ele>
        <time>2015-05-11T18:32:41.575Z</time>
      </trkpt>
      <trkpt lat="48.86306" lon="2.3112">
        <ele>72.6</ele>
        <time>2015-05-11T18:32:42.688Z</time>
      </trkpt>
      <trkpt lat="48.86306" lon="2.3111">
        <ele>72.7</ele>
        <time>2015-05-11T18:32:43.572Z</time>
      </trkpt>
      <trkpt lat="48.86305" lon="2.31101">
        <ele>72.7</ele>
        <time>2015-05-11T18:32:44.589Z</time>
      </trkpt>
      <trkpt lat="48.86304" lon="2.31089">
        <ele>74.3</ele>
        <time>2015-05-11T18:32:45.599Z</time>
      </trkpt>
      <trkpt lat="48.86303" lon="2.3108">
        <ele>74.1</ele>
        <time>2015-05-11T18:32:46.620Z</time>
      </trkpt>
      <trkpt lat="48.86303" lon="2.31071">
        <ele>73.9</ele>
        <time>2015-05-11T18:32:47.655Z</time>
      </trkpt>
      <trkpt lat="48.86303" lon="2.31061">
        <ele>74.2</ele>
        <time>2015-05-11T18:32:48.673Z</time>
      </trkpt>
      <trkpt lat="48.86304" lon="2.31051">
        <ele>74.4</ele>
        <time>2015-05-11T18:32:49.573Z</time>
      </trkpt>
      <trkpt lat="48.86304" lon="2.31041">
        <ele>74.5</ele>
        <time>2015-05-11T18:32:50.602Z</time>
      </trkpt>
      <trkpt lat="48.86303" lon="2.31031">
        <ele>74.4</ele>
        <time>2015-05-11T18:32:51.671Z</time>
      </trkpt>
      <trkpt lat="48.86303" lon="2.31022">
        <ele>74.5</ele>
        <time>2015-05-11T18:32:52.581Z</time>
      </trkpt>
      <trkpt lat="48.86303" lon="2.31012">
        <ele>74.7</ele>
        <time>2015-05-11T18:32:53.603Z</time>
      </trkpt>
      <trkpt lat="48.86303" lon="2.31003">
        <ele>74.8</ele>
        <time>2015-05-11T18:32:54.614Z</time>
      </trkpt>
      <trkpt lat="48.86302" lon="2.30993">
        <ele>74.8</ele>
        <time>2015-05-11T18:32:55.624Z</time>
      </trkpt>
      <trkpt lat="48.86302" lon="2.30983">
        <ele>74.7</ele>
        <time>2015-05-11T18:32:56.688Z</time>
      </trkpt>
      <trkpt lat="48.86302" lon="2.30974">
        <ele>74.5</ele>
        <time>2015-05-11T18:32:57.599Z</time>
      </trkpt>
      <trkpt lat="48.86301" lon="2.30964">
        <ele>74.1</ele>
        <time>2015-05-11T18:32:58.582Z</time>
      </trkpt>
      <trkpt lat="48.863" lon="2.30954">
        <ele>74.1</ele>
        <time>2015-05-11T18:32:59.615Z</time>
      </trkpt>
      <trkpt lat="48.86299" lon="2.30944">
        <ele>74</ele>
        <time>2015-05-11T18:33:00.631Z</time>
      </trkpt>
      <trkpt lat="48.86298" lon="2.30934">
        <ele>74</ele>
        <time>2015-05-11T18:33:01.661Z</time>
      </trkpt>
      <trkpt lat="48.86298" lon="2.30925">
        <ele>73.9</ele>
        <time>2015-05-11T18:33:02.663Z</time>
      </trkpt>
      <trkpt lat="48.86299" lon="2.30916">
        <ele>74.1</ele>
        <time>2015-05-11T18:33:03.567Z</time>
      </trkpt>
      <trkpt lat="48.86299" lon="2.30907">
        <ele>74.4</ele>
        <time>2015-05-11T18:33:04.591Z</time>
      </trkpt>
      <trkpt lat="48.86298" lon="2.30899">
        <ele>74.7</ele>
        <time>2015-05-11T18:33:05.620Z</time>
      </trkpt>
      <trkpt lat="48.86298" lon="2.30891">
        <ele>74.8</ele>
        <time>2015-05-11T18:33:06.636Z</time>
      </trkpt>
      <trkpt lat="48.86298" lon="2.30884">
        <ele>74.9</ele>
        <time>2015-05-11T18:33:07.546Z</time>
      </trkpt>
      <trkpt lat="48.86298" lon="2.30875">
        <ele>74.9</ele>
        <time>2015-05-11T18:33:08.570Z</time>
      </trkpt>
      <trkpt lat="48.86298" lon="2.30868">
        <ele>75</ele>
        <time>2015-05-11T18:33:09.583Z</time>
      </trkpt>
      <trkpt lat="48.86298" lon="2.3086">
        <ele>74.7</ele>
        <time>2015-05-11T18:33:10.595Z</time>
      </trkpt>
      <trkpt lat="48.86298" lon="2.30852">
        <ele>74.9</ele>
        <time>2015-05-11T18:33:11.604Z</time>
      </trkpt>
      <trkpt lat="48.86297" lon="2.30842">
        <ele>75</ele>
        <time>2015-05-11T18:33:12.633Z</time>
      </trkpt>
      <trkpt lat="48.86297" lon="2.30833">
        <ele>75.1</ele>
        <time>2015-05-11T18:33:13.654Z</time>
      </trkpt>
      <trkpt lat="48.86297" lon="2.30825">
        <ele>74.8</ele>
        <time>2015-05-11T18:33:14.569Z</time>
      </trkpt>
      <trkpt lat="48.86297" lon="2.30817">
        <ele>74.8</ele>
        <time>2015-05-11T18:33:15.607Z</time>
      </trkpt>
      <trkpt lat="48.86297" lon="2.30809">
        <ele>74.9</ele>
        <time>2015-05-11T18:33:16.659Z</time>
      </trkpt>
      <trkpt lat="48.86297" lon="2.30801">
        <ele>75</ele>
        <time>2015-05-11T18:33:17.564Z</time>
      </trkpt>
      <trkpt lat="48.86296" lon="2.30792">
        <ele>75.2</ele>
        <time>2015-05-11T18:33:18.618Z</time>
      </trkpt>
      <trkpt lat="48.86295" lon="2.30783">
        <ele>75.3</ele>
        <time>2015-05-11T18:33:19.627Z</time>
      </trkpt>
      <trkpt lat="48.86294" lon="2.30773">
        <ele>75.6</ele>
        <time>2015-05-11T18:33:20.619Z</time>
      </trkpt>
      <trkpt lat="48.86294" lon="2.30765">
        <ele>75.9</ele>
        <time>2015-05-11T18:33:21.636Z</time>
      </trkpt>
      <trkpt lat="48.86293" lon="2.30756">
        <ele>76.4</ele>
        <time>2015-05-11T18:33:22.642Z</time>
      </trkpt>
      <trkpt lat="48.86292" lon="2.30747">
        <ele>76.7</ele>
        <time>2015-05-11T18:33:23.654Z</time>
      </trkpt>
      <trkpt lat="48.86291" lon="2.30738">
        <ele>77.3</ele>
        <time>2015-05-11T18:33:24.667Z</time>
      </trkpt>
      <trkpt lat="48.8629" lon="2.30729">
        <ele>77.5</ele>
        <time>2015-05-11T18:33:25.574Z</time>
      </trkpt>
      <trkpt lat="48.8629" lon="2.30721">
        <ele>77.6</ele>
        <time>2015-05-11T18:33:26.590Z</time>
      </trkpt>
      <trkpt lat="48.86289" lon="2.30711">
        <ele>77.6</ele>
        <time>2015-05-11T18:33:27.602Z</time>
      </trkpt>
      <trkpt lat="48.86289" lon="2.30701">
        <ele>77.9</ele>
        <time>2015-05-11T18:33:28.658Z</time>
      </trkpt>
      <trkpt lat="48.86289" lon="2.30693">
        <ele>78.1</ele>
        <time>2015-05-11T18:33:29.635Z</time>
      </trkpt>
      <trkpt lat="48.86289" lon="2.30683">
        <ele>78.1</ele>
        <time>2015-05-11T18:33:30.663Z</time>
      </trkpt>
      <trkpt lat="48.86289" lon="2.30674">
        <ele>78.2</ele>
        <time>2015-05-11T18:33:31.556Z</time>
      </trkpt>
      <trkpt lat="48.86289" lon="2.30665">
        <ele>78.1</ele>
        <time>2015-05-11T18:33:32.567Z</time>
      </trkpt>
      <trkpt lat="48.86289" lon="2.30657">
        <ele>78.1</ele>
        <time>2015-05-11T18:33:33.576Z</time>
      </trkpt>
      <trkpt lat="48.86289" lon="2.30648">
        <ele>78.4</ele>
        <time>2015-05-11T18:33:34.583Z</time>
      </trkpt>
      <trkpt lat="48.8629" lon="2.30639">
        <ele>78.4</ele>
        <time>2015-05-11T18:33:35.620Z</time>
      </trkpt>
      <trkpt lat="48.86291" lon="2.3063">
        <ele>78.4</ele>
        <time>2015-05-11T18:33:36.663Z</time>
      </trkpt>
      <trkpt lat="48.86291" lon="2.30621">
        <ele>78.5</ele>
        <time>2015-05-11T18:33:37.573Z</time>
      </trkpt>
      <trkpt lat="48.86292" lon="2.30611">
        <ele>78.5</ele>
        <time>2015-05-11T18:33:38.571Z</time>
      </trkpt>
      <trkpt lat="48.86292" lon="2.30602">
        <ele>78.4</ele>
        <time>2015-05-11T18:33:39.581Z</time>
      </trkpt>
      <trkpt lat="48.86293" lon="2.30592">
        <ele>78.3</ele>
        <time>2015-05-11T18:33:40.589Z</time>
      </trkpt>
      <trkpt lat="48.86292" lon="2.30582">
        <ele>78.3</ele>
        <time>2015-05-11T18:33:41.618Z</time>
      </trkpt>
      <trkpt lat="48.86293" lon="2.30572">
        <ele>77.8</ele>
        <time>2015-05-11T18:33:42.633Z</time>
      </trkpt>
      <trkpt lat="48.86293" lon="2.30563">
        <ele>77.5</ele>
        <time>2015-05-11T18:33:43.543Z</time>
      </trkpt>
      <trkpt lat="48.86292" lon="2.30554">
        <ele>77.2</ele>
        <time>2015-05-11T18:33:44.543Z</time>
      </trkpt>
      <trkpt lat="48.86292" lon="2.30544">
        <ele>77.3</ele>
        <time>2015-05-11T18:33:45.650Z</time>
      </trkpt>
      <trkpt lat="48.86292" lon="2.30534">
        <ele>77.3</ele>
        <time>2015-05-11T18:33:46.558Z</time>
      </trkpt>
      <trkpt lat="48.86291" lon="2.30524">
        <ele>77.5</ele>
        <time>2015-05-11T18:33:47.563Z</time>
      </trkpt>
      <trkpt lat="48.86291" lon="2.30514">
        <ele>77.3</ele>
        <time>2015-05-11T18:33:48.581Z</time>
      </trkpt>
      <trkpt lat="48.86291" lon="2.30505">
        <ele>77.6</ele>
        <time>2015-05-11T18:33:49.617Z</time>
      </trkpt>
      <trkpt lat="48.86291" lon="2.30497">
        <ele>77.7</ele>
        <time>2015-05-11T18:33:50.651Z</time>
      </trkpt>
      <trkpt lat="48.86291" lon="2.30487">
        <ele>77.3</ele>
        <time>2015-05-11T18:33:51.661Z</time>
      </trkpt>
      <trkpt lat="48.86291" lon="2.30477">
        <ele>77.2</ele>
        <time>2015-05-11T18:33:52.641Z</time>
      </trkpt>
      <trkpt lat="48.86291" lon="2.30468">
        <ele>77.2</ele>
        <time>2015-05-11T18:33:53.642Z</time>
      </trkpt>
      <trkpt lat="48.86291" lon="2.30458">
        <ele>77.1</ele>
        <time>2015-05-11T18:33:54.640Z</time>
      </trkpt>
      <trkpt lat="48.8629" lon="2.30449">
        <ele>77</ele>
        <time>2015-05-11T18:33:55.647Z</time>
      </trkpt>
      <trkpt lat="48.8629" lon="2.30441">
        <ele>77.1</ele>
        <time>2015-05-11T18:33:56.667Z</time>
      </trkpt>
      <trkpt lat="48.8629" lon="2.30433">
        <ele>76.9</ele>
        <time>2015-05-11T18:33:57.568Z</time>
      </trkpt>
      <trkpt lat="48.86289" lon="2.30424">
        <ele>77</ele>
        <time>2015-05-11T18:33:58.605Z</time>
      </trkpt>
      <trkpt lat="48.86288" lon="2.30416">
        <ele>76.9</ele>
        <time>2015-05-11T18:33:59.613Z</time>
      </trkpt>
      <trkpt lat="48.86287" lon="2.30408">
        <ele>77</ele>
        <time>2015-05-11T18:34:00.668Z</time>
      </trkpt>
      <trkpt lat="48.86287" lon="2.304">
        <ele>76.7</ele>
        <time>2015-05-11T18:34:01.676Z</time>
      </trkpt>
      <trkpt lat="48.86286" lon="2.30391">
        <ele>76.3</ele>
        <time>2015-05-11T18:34:02.570Z</time>
      </trkpt>
      <trkpt lat="48.86286" lon="2.30383">
        <ele>76.3</ele>
        <time>2015-05-11T18:34:03.578Z</time>
      </trkpt>
      <trkpt lat="48.86287" lon="2.30376">
        <ele>76.3</ele>
        <time>2015-05-11T18:34:04.584Z</time>
      </trkpt>
      <trkpt lat="48.86287" lon="2.30369">
        <ele>76.3</ele>
        <time>2015-05-11T18:34:05.593Z</time>
      </trkpt>
      <trkpt lat="48.86288" lon="2.30362">
        <ele>76.3</ele>
        <time>2015-05-11T18:34:06.616Z</time>
      </trkpt>
      <trkpt lat="48.86288" lon="2.30354">
        <ele>76.3</ele>
        <time>2015-05-11T18:34:07.795Z</time>
      </trkpt>
      <trkpt lat="48.86288" lon="2.30347">
        <ele>76</ele>
        <time>2015-05-11T18:34:08.663Z</time>
      </trkpt>
      <trkpt lat="48.86288" lon="2.3034">
        <ele>76</ele>
        <time>2015-05-11T18:34:09.671Z</time>
      </trkpt>
      <trkpt lat="48.86289" lon="2.30327">
        <ele>75.8</ele>
        <time>2015-05-11T18:34:11.576Z</time>
      </trkpt>
      <trkpt lat="48.86289" lon="2.30321">
        <ele>75.8</ele>
        <time>2015-05-11T18:34:12.637Z</time>
      </trkpt>
      <trkpt lat="48.86289" lon="2.30309">
        <ele>75.9</ele>
        <time>2015-05-11T18:34:14.636Z</time>
      </trkpt>
      <trkpt lat="48.86289" lon="2.30301">
        <ele>75.8</ele>
        <time>2015-05-11T18:34:15.663Z</time>
      </trkpt>
      <trkpt lat="48.86289" lon="2.30294">
        <ele>75.7</ele>
        <time>2015-05-11T18:34:16.575Z</time>
      </trkpt>
      <trkpt lat="48.8629" lon="2.30287">
        <ele>75.9</ele>
        <time>2015-05-11T18:34:17.582Z</time>
      </trkpt>
      <trkpt lat="48.8629" lon="2.3028">
        <ele>75.9</ele>
        <time>2015-05-11T18:34:18.620Z</time>
      </trkpt>
      <trkpt lat="48.86291" lon="2.30272">
        <ele>75.9</ele>
        <time>2015-05-11T18:34:19.802Z</time>
      </trkpt>
      <trkpt lat="48.86293" lon="2.30263">
        <ele>76</ele>
        <time>2015-05-11T18:34:20.636Z</time>
      </trkpt>
      <trkpt lat="48.86292" lon="2.30249">
        <ele>76.8</ele>
        <time>2015-05-11T18:34:21.645Z</time>
      </trkpt>
      <trkpt lat="48.86291" lon="2.30239">
        <ele>77</ele>
        <time>2015-05-11T18:34:22.650Z</time>
      </trkpt>
      <trkpt lat="48.8629" lon="2.30228">
        <ele>77.4</ele>
        <time>2015-05-11T18:34:23.657Z</time>
      </trkpt>
      <trkpt lat="48.86289" lon="2.30218">
        <ele>77.6</ele>
        <time>2015-05-11T18:34:24.667Z</time>
      </trkpt>
      <trkpt lat="48.86289" lon="2.30211">
        <ele>77.6</ele>
        <time>2015-05-11T18:34:25.567Z</time>
      </trkpt>
      <trkpt lat="48.86288" lon="2.30204">
        <ele>77.7</ele>
        <time>2015-05-11T18:34:26.581Z</time>
      </trkpt>
      <trkpt lat="48.86287" lon="2.30193">
        <ele>77.6</ele>
        <time>2015-05-11T18:34:28.643Z</time>
      </trkpt>
      <trkpt lat="48.86285" lon="2.30183">
        <ele>77.8</ele>
        <time>2015-05-11T18:34:30.611Z</time>
      </trkpt>
      <trkpt lat="48.86285" lon="2.30176">
        <ele>77.8</ele>
        <time>2015-05-11T18:34:31.633Z</time>
      </trkpt>
      <trkpt lat="48.86285" lon="2.30168">
        <ele>77.8</ele>
        <time>2015-05-11T18:34:32.578Z</time>
      </trkpt>
      <trkpt lat="48.86285" lon="2.3016">
        <ele>77.5</ele>
        <time>2015-05-11T18:34:33.567Z</time>
      </trkpt>
      <trkpt lat="48.86285" lon="2.30153">
        <ele>77.4</ele>
        <time>2015-05-11T18:34:34.567Z</time>
      </trkpt>
      <trkpt lat="48.86285" lon="2.30146">
        <ele>77.5</ele>
        <time>2015-05-11T18:34:35.575Z</time>
      </trkpt>
      <trkpt lat="48.86285" lon="2.30132">
        <ele>78</ele>
        <time>2015-05-11T18:34:36.610Z</time>
      </trkpt>
      <trkpt lat="48.86284" lon="2.30122">
        <ele>78.2</ele>
        <time>2015-05-11T18:34:37.613Z</time>
      </trkpt>
      <trkpt lat="48.86284" lon="2.30114">
        <ele>78.3</ele>
        <time>2015-05-11T18:34:38.625Z</time>
      </trkpt>
      <trkpt lat="48.86283" lon="2.30104">
        <ele>78.9</ele>
        <time>2015-05-11T18:34:39.636Z</time>
      </trkpt>
      <trkpt lat="48.86284" lon="2.30091">
        <ele>79</ele>
        <time>2015-05-11T18:34:41.567Z</time>
      </trkpt>
      <trkpt lat="48.86284" lon="2.30085">
        <ele>79</ele>
        <time>2015-05-11T18:34:42.632Z</time>
      </trkpt>
      <trkpt lat="48.86283" lon="2.30073">
        <ele>79.1</ele>
        <time>2015-05-11T18:34:44.568Z</time>
      </trkpt>
      <trkpt lat="48.86282" lon="2.30067">
        <ele>79.2</ele>
        <time>2015-05-11T18:34:45.588Z</time>
      </trkpt>
      <trkpt lat="48.8628" lon="2.30058">
        <ele>79.4</ele>
        <time>2015-05-11T18:34:47.631Z</time>
      </trkpt>
      <trkpt lat="48.86279" lon="2.30053">
        <ele>79.4</ele>
        <time>2015-05-11T18:34:48.591Z</time>
      </trkpt>
      <trkpt lat="48.86279" lon="2.30044">
        <ele>79.2</ele>
        <time>2015-05-11T18:34:50.568Z</time>
      </trkpt>
      <trkpt lat="48.86277" lon="2.30039">
        <ele>78.6</ele>
        <time>2015-05-11T18:34:51.595Z</time>
      </trkpt>
      <trkpt lat="48.86275" lon="2.30029">
        <ele>78.3</ele>
        <time>2015-05-11T18:34:53.630Z</time>
      </trkpt>
      <trkpt lat="48.86274" lon="2.30024">
        <ele>78.3</ele>
        <time>2015-05-11T18:34:54.665Z</time>
      </trkpt>
      <trkpt lat="48.86271" lon="2.30015">
        <ele>78.4</ele>
        <time>2015-05-11T18:34:56.586Z</time>
      </trkpt>
      <trkpt lat="48.8627" lon="2.3001">
        <ele>78.5</ele>
        <time>2015-05-11T18:34:57.604Z</time>
      </trkpt>
      <trkpt lat="48.86266" lon="2.3">
        <ele>78</ele>
        <time>2015-05-11T18:35:00.007Z</time>
      </trkpt>
      <trkpt lat="48.86265" lon="2.29996">
        <ele>78</ele>
        <time>2015-05-11T18:35:00.684Z</time>
      </trkpt>
      <trkpt lat="48.86259" lon="2.29988">
        <ele>76.9</ele>
        <time>2015-05-11T18:35:03.631Z</time>
      </trkpt>
      <trkpt lat="48.86257" lon="2.29985">
        <ele>76.7</ele>
        <time>2015-05-11T18:35:04.635Z</time>
      </trkpt>
      <trkpt lat="48.86252" lon="2.29976">
        <ele>76.5</ele>
        <time>2015-05-11T18:35:07.594Z</time>
      </trkpt>
      <trkpt lat="48.8625" lon="2.29973">
        <ele>76.7</ele>
        <time>2015-05-11T18:35:08.663Z</time>
      </trkpt>
      <trkpt lat="48.86246" lon="2.29962">
        <ele>77.6</ele>
        <time>2015-05-11T18:35:13.687Z</time>
      </trkpt>
      <trkpt lat="48.86246" lon="2.29959">
        <ele>77.5</ele>
        <time>2015-05-11T18:35:14.609Z</time>
      </trkpt>
      <trkpt lat="48.86244" lon="2.29951">
        <ele>77.9</ele>
        <time>2015-05-11T18:35:20.616Z</time>
      </trkpt>
      <trkpt lat="48.86244" lon="2.29951">
        <ele>77.7</ele>
        <time>2015-05-11T18:35:21.624Z</time>
      </trkpt>
      <trkpt lat="48.86244" lon="2.2995">
        <ele>77.6</ele>
        <time>2015-05-11T18:35:22.606Z</time>
      </trkpt>
      <trkpt lat="48.86249" lon="2.29953">
        <ele>77.3</ele>
        <time>2015-05-11T18:35:40.636Z</time>
      </trkpt>
      <trkpt lat="48.86249" lon="2.29954">
        <ele>77.3</ele>
        <time>2015-05-11T18:35:41.645Z</time>
      </trkpt>
      <trkpt lat="48.86249" lon="2.29954">
        <ele>77.4</ele>
        <time>2015-05-11T18:35:43.612Z</time>
      </trkpt>
      <trkpt lat="48.86249" lon="2.29954">
        <ele>77.4</ele>
        <time>2015-05-11T18:35:44.613Z</time>
      </trkpt>
      <trkpt lat="48.86249" lon="2.29955">
        <ele>77.4</ele>
        <time>2015-05-11T18:35:45.630Z</time>
      </trkpt>
      <trkpt lat="48.86249" lon="2.29955">
        <ele>77.5</ele>
        <time>2015-05-11T18:35:46.638Z</time>
      </trkpt>
      <trkpt lat="48.86251" lon="2.29955">
        <ele>77.5</ele>
        <time>2015-05-11T18:36:59.618Z</time>
      </trkpt>
      <trkpt lat="48.86247" lon="2.29955">
        <ele>78.1</ele>
        <time>2015-05-11T18:37:00.603Z</time>
      </trkpt>
      <trkpt lat="48.86241" lon="2.29947">
        <ele>78.4</ele>
        <time>2015-05-11T18:37:05.593Z</time>
      </trkpt>
      <trkpt lat="48.86239" lon="2.29944">
        <ele>78.3</ele>
        <time>2015-05-11T18:37:06.641Z</time>
      </trkpt>
      <trkpt lat="48.86234" lon="2.29938">
        <ele>78.7</ele>
        <time>2015-05-11T18:37:08.591Z</time>
      </trkpt>
      <trkpt lat="48.86231" lon="2.29934">
        <ele>78.7</ele>
        <time>2015-05-11T18:37:09.615Z</time>
      </trkpt>
      <trkpt lat="48.86227" lon="2.29926">
        <ele>78.6</ele>
        <time>2015-05-11T18:37:11.664Z</time>
      </trkpt>
      <trkpt lat="48.86225" lon="2.2992">
        <ele>78.6</ele>
        <time>2015-05-11T18:37:12.700Z</time>
      </trkpt>
      <trkpt lat="48.86223" lon="2.29914">
        <ele>78.5</ele>
        <time>2015-05-11T18:37:13.598Z</time>
      </trkpt>
      <trkpt lat="48.86221" lon="2.29906">
        <ele>78.5</ele>
        <time>2015-05-11T18:37:14.635Z</time>
      </trkpt>
      <trkpt lat="48.86219" lon="2.299">
        <ele>78.5</ele>
        <time>2015-05-11T18:37:15.666Z</time>
      </trkpt>
      <trkpt lat="48.86217" lon="2.29893">
        <ele>78.5</ele>
        <time>2015-05-11T18:37:16.581Z</time>
      </trkpt>
      <trkpt lat="48.86214" lon="2.29886">
        <ele>78.5</ele>
        <time>2015-05-11T18:37:17.604Z</time>
      </trkpt>
      <trkpt lat="48.86212" lon="2.2988">
        <ele>78.5</ele>
        <time>2015-05-11T18:37:18.651Z</time>
      </trkpt>
      <trkpt lat="48.86208" lon="2.2987">
        <ele>78.7</ele>
        <time>2015-05-11T18:37:20.692Z</time>
      </trkpt>
      <trkpt lat="48.86206" lon="2.29865">
        <ele>78.8</ele>
        <time>2015-05-11T18:37:21.598Z</time>
      </trkpt>
      <trkpt lat="48.86203" lon="2.29855">
        <ele>78.8</ele>
        <time>2015-05-11T18:37:23.631Z</time>
      </trkpt>
      <trkpt lat="48.86202" lon="2.29849">
        <ele>78.8</ele>
        <time>2015-05-11T18:37:24.654Z</time>
      </trkpt>
      <trkpt lat="48.86199" lon="2.29835">
        <ele>78.7</ele>
        <time>2015-05-11T18:37:26.684Z</time>
      </trkpt>
      <trkpt lat="48.86198" lon="2.29829">
        <ele>78.8</ele>
        <time>2015-05-11T18:37:27.619Z</time>
      </trkpt>
      <trkpt lat="48.86196" lon="2.29823">
        <ele>78.8</ele>
        <time>2015-05-11T18:37:28.658Z</time>
      </trkpt>
      <trkpt lat="48.86194" lon="2.29816">
        <ele>78.8</ele>
        <time>2015-05-11T18:37:29.666Z</time>
      </trkpt>
      <trkpt lat="48.86191" lon="2.2981">
        <ele>78.6</ele>
        <time>2015-05-11T18:37:30.689Z</time>
      </trkpt>
      <trkpt lat="48.86189" lon="2.29804">
        <ele>78.7</ele>
        <time>2015-05-11T18:37:31.591Z</time>
      </trkpt>
      <trkpt lat="48.86185" lon="2.29792">
        <ele>78.8</ele>
        <time>2015-05-11T18:37:33.604Z</time>
      </trkpt>
      <trkpt lat="48.86183" lon="2.29784">
        <ele>78.8</ele>
        <time>2015-05-11T18:37:34.633Z</time>
      </trkpt>
      <trkpt lat="48.86178" lon="2.29774">
        <ele>78.9</ele>
        <time>2015-05-11T18:37:36.676Z</time>
      </trkpt>
      <trkpt lat="48.86176" lon="2.2977">
        <ele>78.9</ele>
        <time>2015-05-11T18:37:37.595Z</time>
      </trkpt>
      <trkpt lat="48.8617" lon="2.29763">
        <ele>78.8</ele>
        <time>2015-05-11T18:37:39.649Z</time>
      </trkpt>
      <trkpt lat="48.86167" lon="2.29758">
        <ele>78.9</ele>
        <time>2015-05-11T18:37:40.611Z</time>
      </trkpt>
      <trkpt lat="48.86162" lon="2.29748">
        <ele>79.1</ele>
        <time>2015-05-11T18:37:42.653Z</time>
      </trkpt>
      <trkpt lat="48.8616" lon="2.29744">
        <ele>79.2</ele>
        <time>2015-05-11T18:37:43.618Z</time>
      </trkpt>
      <trkpt lat="48.86156" lon="2.29735">
        <ele>79.4</ele>
        <time>2015-05-11T18:37:45.631Z</time>
      </trkpt>
      <trkpt lat="48.86154" lon="2.2973">
        <ele>79.6</ele>
        <time>2015-05-11T18:37:46.564Z</time>
      </trkpt>
      <trkpt lat="48.86152" lon="2.29719">
        <ele>80.1</ele>
        <time>2015-05-11T18:37:48.663Z</time>
      </trkpt>
      <trkpt lat="48.8615" lon="2.29713">
        <ele>80.3</ele>
        <time>2015-05-11T18:37:49.684Z</time>
      </trkpt>
      <trkpt lat="48.86148" lon="2.29708">
        <ele>80.4</ele>
        <time>2015-05-11T18:37:50.582Z</time>
      </trkpt>
      <trkpt lat="48.86144" lon="2.29701">
        <ele>80.5</ele>
        <time>2015-05-11T18:37:51.592Z</time>
      </trkpt>
      <trkpt lat="48.8614" lon="2.29694">
        <ele>80.7</ele>
        <time>2015-05-11T18:37:52.609Z</time>
      </trkpt>
      <trkpt lat="48.86136" lon="2.29687">
        <ele>80.8</ele>
        <time>2015-05-11T18:37:53.614Z</time>
      </trkpt>
      <trkpt lat="48.86132" lon="2.29679">
        <ele>80.9</ele>
        <time>2015-05-11T18:37:54.648Z</time>
      </trkpt>
      <trkpt lat="48.86128" lon="2.29672">
        <ele>81</ele>
        <time>2015-05-11T18:37:55.648Z</time>
      </trkpt>
      <trkpt lat="48.86125" lon="2.29665">
        <ele>81</ele>
        <time>2015-05-11T18:37:56.657Z</time>
      </trkpt>
      <trkpt lat="48.86121" lon="2.29659">
        <ele>81</ele>
        <time>2015-05-11T18:37:57.663Z</time>
      </trkpt>
      <trkpt lat="48.86118" lon="2.29652">
        <ele>81</ele>
        <time>2015-05-11T18:37:58.668Z</time>
      </trkpt>
      <trkpt lat="48.86114" lon="2.29646">
        <ele>81</ele>
        <time>2015-05-11T18:37:59.682Z</time>
      </trkpt>
      <trkpt lat="48.8611" lon="2.2964">
        <ele>81</ele>
        <time>2015-05-11T18:38:00.700Z</time>
      </trkpt>
      <trkpt lat="48.86107" lon="2.29633">
        <ele>80.8</ele>
        <time>2015-05-11T18:38:01.618Z</time>
      </trkpt>
      <trkpt lat="48.86103" lon="2.29627">
        <ele>80.8</ele>
        <time>2015-05-11T18:38:02.648Z</time>
      </trkpt>
      <trkpt lat="48.861" lon="2.29621">
        <ele>80.8</ele>
        <time>2015-05-11T18:38:03.650Z</time>
      </trkpt>
      <trkpt lat="48.86097" lon="2.29616">
        <ele>80.8</ele>
        <time>2015-05-11T18:38:04.661Z</time>
      </trkpt>
      <trkpt lat="48.86093" lon="2.29609">
        <ele>80.7</ele>
        <time>2015-05-11T18:38:05.557Z</time>
      </trkpt>
      <trkpt lat="48.8609" lon="2.29604">
        <ele>80.7</ele>
        <time>2015-05-11T18:38:06.620Z</time>
      </trkpt>
      <trkpt lat="48.86087" lon="2.296">
        <ele>80.6</ele>
        <time>2015-05-11T18:38:07.638Z</time>
      </trkpt>
      <trkpt lat="48.86083" lon="2.29595">
        <ele>80.6</ele>
        <time>2015-05-11T18:38:08.651Z</time>
      </trkpt>
      <trkpt lat="48.86078" lon="2.2959">
        <ele>80.4</ele>
        <time>2015-05-11T18:38:09.674Z</time>
      </trkpt>
      <trkpt lat="48.86074" lon="2.29582">
        <ele>79.9</ele>
        <time>2015-05-11T18:38:10.557Z</time>
      </trkpt>
      <trkpt lat="48.8607" lon="2.29576">
        <ele>79.7</ele>
        <time>2015-05-11T18:38:11.579Z</time>
      </trkpt>
      <trkpt lat="48.86066" lon="2.29569">
        <ele>79.5</ele>
        <time>2015-05-11T18:38:12.659Z</time>
      </trkpt>
      <trkpt lat="48.86062" lon="2.2956">
        <ele>79.2</ele>
        <time>2015-05-11T18:38:13.633Z</time>
      </trkpt>
      <trkpt lat="48.86057" lon="2.29553">
        <ele>78.9</ele>
        <time>2015-05-11T18:38:14.588Z</time>
      </trkpt>
      <trkpt lat="48.86052" lon="2.29547">
        <ele>78.8</ele>
        <time>2015-05-11T18:38:15.627Z</time>
      </trkpt>
      <trkpt lat="48.86047" lon="2.29541">
        <ele>78.6</ele>
        <time>2015-05-11T18:38:16.647Z</time>
      </trkpt>
      <trkpt lat="48.86042" lon="2.29536">
        <ele>78.7</ele>
        <time>2015-05-11T18:38:17.668Z</time>
      </trkpt>
      <trkpt lat="48.86039" lon="2.29529">
        <ele>78.6</ele>
        <time>2015-05-11T18:38:18.696Z</time>
      </trkpt>
      <trkpt lat="48.86035" lon="2.29524">
        <ele>78.6</ele>
        <time>2015-05-11T18:38:19.573Z</time>
      </trkpt>
      <trkpt lat="48.86031" lon="2.29518">
        <ele>78.7</ele>
        <time>2015-05-11T18:38:20.601Z</time>
      </trkpt>
      <trkpt lat="48.86028" lon="2.29512">
        <ele>78.6</ele>
        <time>2015-05-11T18:38:21.617Z</time>
      </trkpt>
      <trkpt lat="48.86024" lon="2.29506">
        <ele>78.4</ele>
        <time>2015-05-11T18:38:22.660Z</time>
      </trkpt>
      <trkpt lat="48.86021" lon="2.29499">
        <ele>78.4</ele>
        <time>2015-05-11T18:38:23.579Z</time>
      </trkpt>
      <trkpt lat="48.86018" lon="2.29492">
        <ele>78.5</ele>
        <time>2015-05-11T18:38:24.725Z</time>
      </trkpt>
      <trkpt lat="48.86015" lon="2.29486">
        <ele>78.4</ele>
        <time>2015-05-11T18:38:25.618Z</time>
      </trkpt>
      <trkpt lat="48.86012" lon="2.2948">
        <ele>78.4</ele>
        <time>2015-05-11T18:38:26.650Z</time>
      </trkpt>
      <trkpt lat="48.8601" lon="2.29474">
        <ele>78.5</ele>
        <time>2015-05-11T18:38:27.660Z</time>
      </trkpt>
      <trkpt lat="48.86007" lon="2.29469">
        <ele>78.3</ele>
        <time>2015-05-11T18:38:28.583Z</time>
      </trkpt>
      <trkpt lat="48.86004" lon="2.29463">
        <ele>78.1</ele>
        <time>2015-05-11T18:38:29.582Z</time>
      </trkpt>
      <trkpt lat="48.86001" lon="2.29458">
        <ele>77.7</ele>
        <time>2015-05-11T18:38:30.656Z</time>
      </trkpt>
      <trkpt lat="48.85998" lon="2.29452">
        <ele>77.3</ele>
        <time>2015-05-11T18:38:31.568Z</time>
      </trkpt>
      <trkpt lat="48.85994" lon="2.29448">
        <ele>77.2</ele>
        <time>2015-05-11T18:38:32.592Z</time>
      </trkpt>
      <trkpt lat="48.85991" lon="2.29443">
        <ele>77</ele>
        <time>2015-05-11T18:38:33.586Z</time>
      </trkpt>
      <trkpt lat="48.85987" lon="2.29439">
        <ele>76.8</ele>
        <time>2015-05-11T18:38:34.614Z</time>
      </trkpt>
      <trkpt lat="48.85984" lon="2.29435">
        <ele>76.5</ele>
        <time>2015-05-11T18:38:35.636Z</time>
      </trkpt>
      <trkpt lat="48.85976" lon="2.29427">
        <ele>76.3</ele>
        <time>2015-05-11T18:38:37.680Z</time>
      </trkpt>
      <trkpt lat="48.85973" lon="2.29422">
        <ele>76</ele>
        <time>2015-05-11T18:38:38.623Z</time>
      </trkpt>
      <trkpt lat="48.85965" lon="2.29414">
        <ele>76.1</ele>
        <time>2015-05-11T18:38:40.627Z</time>
      </trkpt>
      <trkpt lat="48.85962" lon="2.2941">
        <ele>76.1</ele>
        <time>2015-05-11T18:38:41.656Z</time>
      </trkpt>
      <trkpt lat="48.85956" lon="2.29402">
        <ele>76.5</ele>
        <time>2015-05-11T18:38:43.695Z</time>
      </trkpt>
      <trkpt lat="48.85953" lon="2.29399">
        <ele>76.6</ele>
        <time>2015-05-11T18:38:44.688Z</time>
      </trkpt>
      <trkpt lat="48.85947" lon="2.29393">
        <ele>76.9</ele>
        <time>2015-05-11T18:38:46.605Z</time>
      </trkpt>
      <trkpt lat="48.85945" lon="2.2939">
        <ele>76.8</ele>
        <time>2015-05-11T18:38:47.621Z</time>
      </trkpt>
      <trkpt lat="48.8594" lon="2.29384">
        <ele>76.7</ele>
        <time>2015-05-11T18:38:49.594Z</time>
      </trkpt>
      <trkpt lat="48.85936" lon="2.29381">
        <ele>76.4</ele>
        <time>2015-05-11T18:38:50.673Z</time>
      </trkpt>
      <trkpt lat="48.85932" lon="2.29375">
        <ele>75.5</ele>
        <time>2015-05-11T18:38:52.662Z</time>
      </trkpt>
      <trkpt lat="48.8593" lon="2.29371">
        <ele>75.2</ele>
        <time>2015-05-11T18:38:53.668Z</time>
      </trkpt>
      <trkpt lat="48.85925" lon="2.2936">
        <ele>73.9</ele>
        <time>2015-05-11T18:38:56.636Z</time>
      </trkpt>
      <trkpt lat="48.85924" lon="2.29357">
        <ele>74</ele>
        <time>2015-05-11T18:38:57.652Z</time>
      </trkpt>
      <trkpt lat="48.85924" lon="2.29353">
        <ele>75</ele>
        <time>2015-05-11T18:38:58.600Z</time>
      </trkpt>
      <trkpt lat="48.85924" lon="2.29348">
        <ele>76.2</ele>
        <time>2015-05-11T18:38:59.602Z</time>
      </trkpt>
      <trkpt lat="48.85924" lon="2.29347">
        <ele>76.3</ele>
        <time>2015-05-11T18:39:11.621Z</time>
      </trkpt>
      <trkpt lat="48.85924" lon="2.29346">
        <ele>77.6</ele>
        <time>2015-05-11T18:39:12.670Z</time>
      </trkpt>
      <trkpt lat="48.85916" lon="2.29344">
        <ele>76.6</ele>
        <time>2015-05-11T18:39:19.627Z</time>
      </trkpt>
      <trkpt lat="48.85915" lon="2.29344">
        <ele>76.8</ele>
        <time>2015-05-11T18:39:20.666Z</time>
      </trkpt>
      <trkpt lat="48.85908" lon="2.29339">
        <ele>77.2</ele>
        <time>2015-05-11T18:39:23.691Z</time>
      </trkpt>
      <trkpt lat="48.85907" lon="2.29337">
        <ele>77.4</ele>
        <time>2015-05-11T18:39:24.729Z</time>
      </trkpt>
      <trkpt lat="48.85904" lon="2.29324">
        <ele>77.9</ele>
        <time>2015-05-11T18:39:31.681Z</time>
      </trkpt>
      <trkpt lat="48.85905" lon="2.29323">
        <ele>77.8</ele>
        <time>2015-05-11T18:39:32.673Z</time>
      </trkpt>
      <trkpt lat="48.85904" lon="2.29321">
        <ele>78</ele>
        <time>2015-05-11T18:39:36.697Z</time>
      </trkpt>
      <trkpt lat="48.85903" lon="2.2932">
        <ele>78.4</ele>
        <time>2015-05-11T18:39:37.591Z</time>
      </trkpt>
      <trkpt lat="48.85904" lon="2.29319">
        <ele>78.5</ele>
        <time>2015-05-11T18:39:50.599Z</time>
      </trkpt>
      <trkpt lat="48.85904" lon="2.29322">
        <ele>79.1</ele>
        <time>2015-05-11T18:39:51.614Z</time>
      </trkpt>
      <trkpt lat="48.85904" lon="2.29322">
        <ele>79.2</ele>
        <time>2015-05-11T18:39:53.567Z</time>
      </trkpt>
      <trkpt lat="48.85904" lon="2.29322">
        <ele>79.4</ele>
        <time>2015-05-11T18:39:54.687Z</time>
      </trkpt>
      <trkpt lat="48.85904" lon="2.29319">
        <ele>79.7</ele>
        <time>2015-05-11T18:39:55.609Z</time>
      </trkpt>
      <trkpt lat="48.85898" lon="2.29311">
        <ele>79.1</ele>
        <time>2015-05-11T18:40:00.740Z</time>
      </trkpt>
      <trkpt lat="48.85896" lon="2.29309">
        <ele>78.9</ele>
        <time>2015-05-11T18:40:01.572Z</time>
      </trkpt>
      <trkpt lat="48.85889" lon="2.29303">
        <ele>78.4</ele>
        <time>2015-05-11T18:40:04.626Z</time>
      </trkpt>
      <trkpt lat="48.85886" lon="2.29301">
        <ele>78.1</ele>
        <time>2015-05-11T18:40:05.646Z</time>
      </trkpt>
      <trkpt lat="48.85879" lon="2.29293">
        <ele>77.6</ele>
        <time>2015-05-11T18:40:07.611Z</time>
      </trkpt>
      <trkpt lat="48.85876" lon="2.29288">
        <ele>77.6</ele>
        <time>2015-05-11T18:40:08.595Z</time>
      </trkpt>
      <trkpt lat="48.85873" lon="2.29283">
        <ele>77.6</ele>
        <time>2015-05-11T18:40:09.619Z</time>
      </trkpt>
      <trkpt lat="48.85869" lon="2.29278">
        <ele>77.5</ele>
        <time>2015-05-11T18:40:10.645Z</time>
      </trkpt>
      <trkpt lat="48.85865" lon="2.29273">
        <ele>77.5</ele>
        <time>2015-05-11T18:40:11.644Z</time>
      </trkpt>
      <trkpt lat="48.85861" lon="2.29268">
        <ele>77.4</ele>
        <time>2015-05-11T18:40:12.686Z</time>
      </trkpt>
      <trkpt lat="48.85857" lon="2.29263">
        <ele>77.5</ele>
        <time>2015-05-11T18:40:13.610Z</time>
      </trkpt>
      <trkpt lat="48.85853" lon="2.29257">
        <ele>77.4</ele>
        <time>2015-05-11T18:40:14.622Z</time>
      </trkpt>
      <trkpt lat="48.85849" lon="2.29251">
        <ele>77.3</ele>
        <time>2015-05-11T18:40:15.626Z</time>
      </trkpt>
      <trkpt lat="48.85845" lon="2.29245">
        <ele>77.4</ele>
        <time>2015-05-11T18:40:16.668Z</time>
      </trkpt>
      <trkpt lat="48.85842" lon="2.29238">
        <ele>77.4</ele>
        <time>2015-05-11T18:40:17.677Z</time>
      </trkpt>
      <trkpt lat="48.85837" lon="2.29232">
        <ele>77.8</ele>
        <time>2015-05-11T18:40:18.681Z</time>
      </trkpt>
      <trkpt lat="48.85832" lon="2.29226">
        <ele>77.7</ele>
        <time>2015-05-11T18:40:19.603Z</time>
      </trkpt>
      <trkpt lat="48.85828" lon="2.2922">
        <ele>77.9</ele>
        <time>2015-05-11T18:40:20.598Z</time>
      </trkpt>
      <trkpt lat="48.85823" lon="2.29214">
        <ele>78</ele>
        <time>2015-05-11T18:40:21.624Z</time>
      </trkpt>
      <trkpt lat="48.85819" lon="2.29208">
        <ele>78</ele>
        <time>2015-05-11T18:40:22.646Z</time>
      </trkpt>
      <trkpt lat="48.85815" lon="2.29202">
        <ele>77.9</ele>
        <time>2015-05-11T18:40:23.675Z</time>
      </trkpt>
      <trkpt lat="48.85811" lon="2.29195">
        <ele>77.9</ele>
        <time>2015-05-11T18:40:24.683Z</time>
      </trkpt>
      <trkpt lat="48.85806" lon="2.29189">
        <ele>77.9</ele>
        <time>2015-05-11T18:40:25.640Z</time>
      </trkpt>
      <trkpt lat="48.85802" lon="2.29182">
        <ele>77.9</ele>
        <time>2015-05-11T18:40:26.599Z</time>
      </trkpt>
      <trkpt lat="48.85798" lon="2.29175">
        <ele>77.9</ele>
        <time>2015-05-11T18:40:27.633Z</time>
      </trkpt>
      <trkpt lat="48.85793" lon="2.29168">
        <ele>77.9</ele>
        <time>2015-05-11T18:40:28.642Z</time>
      </trkpt>
      <trkpt lat="48.8579" lon="2.29161">
        <ele>78.1</ele>
        <time>2015-05-11T18:40:29.619Z</time>
      </trkpt>
      <trkpt lat="48.85786" lon="2.29153">
        <ele>78.3</ele>
        <time>2015-05-11T18:40:30.796Z</time>
      </trkpt>
      <trkpt lat="48.85783" lon="2.29144">
        <ele>78.3</ele>
        <time>2015-05-11T18:40:31.691Z</time>
      </trkpt>
      <trkpt lat="48.85781" lon="2.29136">
        <ele>78.5</ele>
        <time>2015-05-11T18:40:32.584Z</time>
      </trkpt>
      <trkpt lat="48.85778" lon="2.29128">
        <ele>78.6</ele>
        <time>2015-05-11T18:40:33.579Z</time>
      </trkpt>
      <trkpt lat="48.85774" lon="2.29121">
        <ele>78.7</ele>
        <time>2015-05-11T18:40:34.598Z</time>
      </trkpt>
      <trkpt lat="48.8577" lon="2.29113">
        <ele>78.6</ele>
        <time>2015-05-11T18:40:35.608Z</time>
      </trkpt>
      <trkpt lat="48.85765" lon="2.29104">
        <ele>78.5</ele>
        <time>2015-05-11T18:40:36.652Z</time>
      </trkpt>
      <trkpt lat="48.85761" lon="2.29097">
        <ele>78.4</ele>
        <time>2015-05-11T18:40:37.589Z</time>
      </trkpt>
      <trkpt lat="48.85756" lon="2.29089">
        <ele>78.3</ele>
        <time>2015-05-11T18:40:38.588Z</time>
      </trkpt>
      <trkpt lat="48.8575" lon="2.29081">
        <ele>77.9</ele>
        <time>2015-05-11T18:40:39.615Z</time>
      </trkpt>
      <trkpt lat="48.85746" lon="2.29072">
        <ele>77.8</ele>
        <time>2015-05-11T18:40:40.626Z</time>
      </trkpt>
      <trkpt lat="48.85742" lon="2.29065">
        <ele>77.7</ele>
        <time>2015-05-11T18:40:41.633Z</time>
      </trkpt>
      <trkpt lat="48.85737" lon="2.29057">
        <ele>77.5</ele>
        <time>2015-05-11T18:40:42.640Z</time>
      </trkpt>
      <trkpt lat="48.85733" lon="2.29049">
        <ele>77.4</ele>
        <time>2015-05-11T18:40:43.565Z</time>
      </trkpt>
      <trkpt lat="48.85729" lon="2.2904">
        <ele>77.4</ele>
        <time>2015-05-11T18:40:44.586Z</time>
      </trkpt>
      <trkpt lat="48.85725" lon="2.29032">
        <ele>77.3</ele>
        <time>2015-05-11T18:40:45.604Z</time>
      </trkpt>
      <trkpt lat="48.85721" lon="2.29024">
        <ele>77.1</ele>
        <time>2015-05-11T18:40:46.613Z</time>
      </trkpt>
      <trkpt lat="48.85716" lon="2.29019">
        <ele>76.8</ele>
        <time>2015-05-11T18:40:47.626Z</time>
      </trkpt>
      <trkpt lat="48.85712" lon="2.29011">
        <ele>76.7</ele>
        <time>2015-05-11T18:40:48.635Z</time>
      </trkpt>
      <trkpt lat="48.85708" lon="2.29004">
        <ele>76.8</ele>
        <time>2015-05-11T18:40:49.649Z</time>
      </trkpt>
      <trkpt lat="48.85705" lon="2.28998">
        <ele>76.9</ele>
        <time>2015-05-11T18:40:50.550Z</time>
      </trkpt>
      <trkpt lat="48.85702" lon="2.28991">
        <ele>76.9</ele>
        <time>2015-05-11T18:40:51.578Z</time>
      </trkpt>
      <trkpt lat="48.85698" lon="2.28985">
        <ele>77</ele>
        <time>2015-05-11T18:40:52.586Z</time>
      </trkpt>
      <trkpt lat="48.85692" lon="2.2898">
        <ele>77.5</ele>
        <time>2015-05-11T18:40:54.694Z</time>
      </trkpt>
      <trkpt lat="48.85689" lon="2.28977">
        <ele>77.7</ele>
        <time>2015-05-11T18:40:55.578Z</time>
      </trkpt>
      <trkpt lat="48.85681" lon="2.28971">
        <ele>78</ele>
        <time>2015-05-11T18:40:57.560Z</time>
      </trkpt>
      <trkpt lat="48.85677" lon="2.28969">
        <ele>78.2</ele>
        <time>2015-05-11T18:40:58.560Z</time>
      </trkpt>
      <trkpt lat="48.85671" lon="2.28962">
        <ele>78.5</ele>
        <time>2015-05-11T18:41:00.654Z</time>
      </trkpt>
      <trkpt lat="48.85668" lon="2.2896">
        <ele>78.6</ele>
        <time>2015-05-11T18:41:01.671Z</time>
      </trkpt>
      <trkpt lat="48.85661" lon="2.28953">
        <ele>79</ele>
        <time>2015-05-11T18:41:04.606Z</time>
      </trkpt>
      <trkpt lat="48.85659" lon="2.2895">
        <ele>79.2</ele>
        <time>2015-05-11T18:41:05.622Z</time>
      </trkpt>
      <trkpt lat="48.85653" lon="2.28943">
        <ele>79.7</ele>
        <time>2015-05-11T18:41:07.629Z</time>
      </trkpt>
      <trkpt lat="48.8565" lon="2.28939">
        <ele>80</ele>
        <time>2015-05-11T18:41:08.688Z</time>
      </trkpt>
      <trkpt lat="48.85644" lon="2.28932">
        <ele>80.6</ele>
        <time>2015-05-11T18:41:10.568Z</time>
      </trkpt>
      <trkpt lat="48.8564" lon="2.28928">
        <ele>80.8</ele>
        <time>2015-05-11T18:41:11.590Z</time>
      </trkpt>
      <trkpt lat="48.85632" lon="2.28924">
        <ele>81</ele>
        <time>2015-05-11T18:41:13.623Z</time>
      </trkpt>
      <trkpt lat="48.85628" lon="2.28922">
        <ele>81.2</ele>
        <time>2015-05-11T18:41:14.591Z</time>
      </trkpt>
      <trkpt lat="48.85623" lon="2.28921">
        <ele>81.4</ele>
        <time>2015-05-11T18:41:15.598Z</time>
      </trkpt>
      <trkpt lat="48.85618" lon="2.28919">
        <ele>82.3</ele>
        <time>2015-05-11T18:41:16.602Z</time>
      </trkpt>
      <trkpt lat="48.85613" lon="2.28918">
        <ele>82.8</ele>
        <time>2015-05-11T18:41:17.616Z</time>
      </trkpt>
      <trkpt lat="48.85606" lon="2.28915">
        <ele>82.1</ele>
        <time>2015-05-11T18:41:18.631Z</time>
      </trkpt>
      <trkpt lat="48.85597" lon="2.28909">
        <ele>81</ele>
        <time>2015-05-11T18:41:19.648Z</time>
      </trkpt>
      <trkpt lat="48.85588" lon="2.28903">
        <ele>80.4</ele>
        <time>2015-05-11T18:41:20.656Z</time>
      </trkpt>
      <trkpt lat="48.85577" lon="2.28898">
        <ele>80.5</ele>
        <time>2015-05-11T18:41:21.664Z</time>
      </trkpt>
      <trkpt lat="48.85566" lon="2.28895">
        <ele>81.2</ele>
        <time>2015-05-11T18:41:22.553Z</time>
      </trkpt>
      <trkpt lat="48.85557" lon="2.28893">
        <ele>81.6</ele>
        <time>2015-05-11T18:41:23.612Z</time>
      </trkpt>
      <trkpt lat="48.85548" lon="2.28892">
        <ele>82.1</ele>
        <time>2015-05-11T18:41:24.647Z</time>
      </trkpt>
      <trkpt lat="48.85538" lon="2.28893">
        <ele>83.4</ele>
        <time>2015-05-11T18:41:25.647Z</time>
      </trkpt>
      <trkpt lat="48.85529" lon="2.28893">
        <ele>84.6</ele>
        <time>2015-05-11T18:41:26.656Z</time>
      </trkpt>
      <trkpt lat="48.8552" lon="2.28893">
        <ele>86</ele>
        <time>2015-05-11T18:41:27.666Z</time>
      </trkpt>
      <trkpt lat="48.85511" lon="2.28894">
        <ele>87.3</ele>
        <time>2015-05-11T18:41:28.773Z</time>
      </trkpt>
      <trkpt lat="48.85506" lon="2.28893">
        <ele>87.5</ele>
        <time>2015-05-11T18:41:29.628Z</time>
      </trkpt>
      <trkpt lat="48.85498" lon="2.28891">
        <ele>86.8</ele>
        <time>2015-05-11T18:41:31.648Z</time>
      </trkpt>
      <trkpt lat="48.85496" lon="2.28889">
        <ele>86.6</ele>
        <time>2015-05-11T18:41:32.580Z</time>
      </trkpt>
      <trkpt lat="48.85488" lon="2.28886">
        <ele>85.8</ele>
        <time>2015-05-11T18:41:35.673Z</time>
      </trkpt>
      <trkpt lat="48.85485" lon="2.28885">
        <ele>85.9</ele>
        <time>2015-05-11T18:41:36.611Z</time>
      </trkpt>
      <trkpt lat="48.85479" lon="2.28881">
        <ele>85.9</ele>
        <time>2015-05-11T18:41:38.607Z</time>
      </trkpt>
      <trkpt lat="48.85476" lon="2.28878">
        <ele>85.8</ele>
        <time>2015-05-11T18:41:39.662Z</time>
      </trkpt>
      <trkpt lat="48.8547" lon="2.28873">
        <ele>86.3</ele>
        <time>2015-05-11T18:41:41.552Z</time>
      </trkpt>
      <trkpt lat="48.85467" lon="2.28871">
        <ele>86.4</ele>
        <time>2015-05-11T18:41:42.640Z</time>
      </trkpt>
      <trkpt lat="48.85461" lon="2.28865">
        <ele>86.8</ele>
        <time>2015-05-11T18:41:44.580Z</time>
      </trkpt>
      <trkpt lat="48.85458" lon="2.28862">
        <ele>86.9</ele>
        <time>2015-05-11T18:41:45.588Z</time>
      </trkpt>
      <trkpt lat="48.85452" lon="2.28856">
        <ele>86.9</ele>
        <time>2015-05-11T18:41:47.630Z</time>
      </trkpt>
      <trkpt lat="48.85449" lon="2.28854">
        <ele>86.9</ele>
        <time>2015-05-11T18:41:48.631Z</time>
      </trkpt>
      <trkpt lat="48.85445" lon="2.28849">
        <ele>87</ele>
        <time>2015-05-11T18:41:49.661Z</time>
      </trkpt>
      <trkpt lat="48.8544" lon="2.28845">
        <ele>87.7</ele>
        <time>2015-05-11T18:41:50.583Z</time>
      </trkpt>
      <trkpt lat="48.85436" lon="2.28841">
        <ele>87.8</ele>
        <time>2015-05-11T18:41:51.581Z</time>
      </trkpt>
      <trkpt lat="48.85431" lon="2.28837">
        <ele>87.8</ele>
        <time>2015-05-11T18:41:52.583Z</time>
      </trkpt>
      <trkpt lat="48.85426" lon="2.28834">
        <ele>87.7</ele>
        <time>2015-05-11T18:41:53.613Z</time>
      </trkpt>
      <trkpt lat="48.8542" lon="2.2883">
        <ele>87.6</ele>
        <time>2015-05-11T18:41:54.629Z</time>
      </trkpt>
      <trkpt lat="48.85414" lon="2.28826">
        <ele>87.6</ele>
        <time>2015-05-11T18:41:55.625Z</time>
      </trkpt>
      <trkpt lat="48.85408" lon="2.28819">
        <ele>87.5</ele>
        <time>2015-05-11T18:41:56.635Z</time>
      </trkpt>
      <trkpt lat="48.85403" lon="2.28812">
        <ele>87.3</ele>
        <time>2015-05-11T18:41:57.663Z</time>
      </trkpt>
      <trkpt lat="48.85397" lon="2.28805">
        <ele>87.3</ele>
        <time>2015-05-11T18:41:58.602Z</time>
      </trkpt>
      <trkpt lat="48.85391" lon="2.28798">
        <ele>86.9</ele>
        <time>2015-05-11T18:41:59.576Z</time>
      </trkpt>
      <trkpt lat="48.85384" lon="2.2879">
        <ele>86.2</ele>
        <time>2015-05-11T18:42:00.769Z</time>
      </trkpt>
      <trkpt lat="48.85378" lon="2.28781">
        <ele>86</ele>
        <time>2015-05-11T18:42:01.601Z</time>
      </trkpt>
      <trkpt lat="48.85373" lon="2.28773">
        <ele>85.7</ele>
        <time>2015-05-11T18:42:02.627Z</time>
      </trkpt>
      <trkpt lat="48.85368" lon="2.28763">
        <ele>84.8</ele>
        <time>2015-05-11T18:42:03.644Z</time>
      </trkpt>
      <trkpt lat="48.85362" lon="2.28755">
        <ele>84.6</ele>
        <time>2015-05-11T18:42:04.660Z</time>
      </trkpt>
      <trkpt lat="48.85357" lon="2.28748">
        <ele>84.3</ele>
        <time>2015-05-11T18:42:05.584Z</time>
      </trkpt>
      <trkpt lat="48.8535" lon="2.2874">
        <ele>84.4</ele>
        <time>2015-05-11T18:42:06.649Z</time>
      </trkpt>
      <trkpt lat="48.85344" lon="2.28731">
        <ele>84.6</ele>
        <time>2015-05-11T18:42:07.670Z</time>
      </trkpt>
      <trkpt lat="48.85332" lon="2.28716">
        <ele>84.8</ele>
        <time>2015-05-11T18:42:09.573Z</time>
      </trkpt>
      <trkpt lat="48.85325" lon="2.2871">
        <ele>84.8</ele>
        <time>2015-05-11T18:42:10.587Z</time>
      </trkpt>
      <trkpt lat="48.85319" lon="2.28702">
        <ele>84.7</ele>
        <time>2015-05-11T18:42:11.593Z</time>
      </trkpt>
      <trkpt lat="48.85314" lon="2.28695">
        <ele>84.7</ele>
        <time>2015-05-11T18:42:12.634Z</time>
      </trkpt>
      <trkpt lat="48.85309" lon="2.2869">
        <ele>84.2</ele>
        <time>2015-05-11T18:42:13.638Z</time>
      </trkpt>
      <trkpt lat="48.85304" lon="2.28684">
        <ele>83.5</ele>
        <time>2015-05-11T18:42:14.650Z</time>
      </trkpt>
      <trkpt lat="48.85299" lon="2.2868">
        <ele>83</ele>
        <time>2015-05-11T18:42:15.546Z</time>
      </trkpt>
      <trkpt lat="48.85294" lon="2.28675">
        <ele>82.5</ele>
        <time>2015-05-11T18:42:16.564Z</time>
      </trkpt>
      <trkpt lat="48.85289" lon="2.28671">
        <ele>81.5</ele>
        <time>2015-05-11T18:42:17.590Z</time>
      </trkpt>
      <trkpt lat="48.85285" lon="2.28665">
        <ele>80.7</ele>
        <time>2015-05-11T18:42:18.612Z</time>
      </trkpt>
      <trkpt lat="48.8528" lon="2.28658">
        <ele>80.5</ele>
        <time>2015-05-11T18:42:19.616Z</time>
      </trkpt>
      <trkpt lat="48.85275" lon="2.28651">
        <ele>79.9</ele>
        <time>2015-05-11T18:42:20.635Z</time>
      </trkpt>
      <trkpt lat="48.85271" lon="2.28645">
        <ele>79.3</ele>
        <time>2015-05-11T18:42:21.639Z</time>
      </trkpt>
      <trkpt lat="48.85266" lon="2.28639">
        <ele>78.9</ele>
        <time>2015-05-11T18:42:22.576Z</time>
      </trkpt>
      <trkpt lat="48.85261" lon="2.28634">
        <ele>78.3</ele>
        <time>2015-05-11T18:42:23.594Z</time>
      </trkpt>
      <trkpt lat="48.85254" lon="2.28632">
        <ele>77.4</ele>
        <time>2015-05-11T18:42:24.632Z</time>
      </trkpt>
      <trkpt lat="48.85246" lon="2.28629">
        <ele>76.7</ele>
        <time>2015-05-11T18:42:25.643Z</time>
      </trkpt>
      <trkpt lat="48.85239" lon="2.28626">
        <ele>76.7</ele>
        <time>2015-05-11T18:42:26.577Z</time>
      </trkpt>
      <trkpt lat="48.85233" lon="2.28622">
        <ele>76.9</ele>
        <time>2015-05-11T18:42:27.590Z</time>
      </trkpt>
      <trkpt lat="48.85227" lon="2.28616">
        <ele>77.6</ele>
        <time>2015-05-11T18:42:28.565Z</time>
      </trkpt>
      <trkpt lat="48.85221" lon="2.28611">
        <ele>78.2</ele>
        <time>2015-05-11T18:42:29.611Z</time>
      </trkpt>
      <trkpt lat="48.85216" lon="2.28604">
        <ele>79.8</ele>
        <time>2015-05-11T18:42:30.625Z</time>
      </trkpt>
      <trkpt lat="48.85211" lon="2.28598">
        <ele>81.1</ele>
        <time>2015-05-11T18:42:31.631Z</time>
      </trkpt>
      <trkpt lat="48.85206" lon="2.28591">
        <ele>82.1</ele>
        <time>2015-05-11T18:42:32.636Z</time>
      </trkpt>
      <trkpt lat="48.85202" lon="2.28585">
        <ele>82.3</ele>
        <time>2015-05-11T18:42:33.643Z</time>
      </trkpt>
      <trkpt lat="48.85194" lon="2.28571">
        <ele>81.6</ele>
        <time>2015-05-11T18:42:35.574Z</time>
      </trkpt>
      <trkpt lat="48.85189" lon="2.28567">
        <ele>81.5</ele>
        <time>2015-05-11T18:42:36.624Z</time>
      </trkpt>
      <trkpt lat="48.85184" lon="2.28561">
        <ele>81.3</ele>
        <time>2015-05-11T18:42:37.621Z</time>
      </trkpt>
      <trkpt lat="48.8518" lon="2.28556">
        <ele>81.2</ele>
        <time>2015-05-11T18:42:38.642Z</time>
      </trkpt>
      <trkpt lat="48.85176" lon="2.28552">
        <ele>81.4</ele>
        <time>2015-05-11T18:42:39.653Z</time>
      </trkpt>
      <trkpt lat="48.85172" lon="2.28547">
        <ele>81.9</ele>
        <time>2015-05-11T18:42:40.572Z</time>
      </trkpt>
      <trkpt lat="48.85168" lon="2.28543">
        <ele>81.9</ele>
        <time>2015-05-11T18:42:41.576Z</time>
      </trkpt>
      <trkpt lat="48.85164" lon="2.28537">
        <ele>82.1</ele>
        <time>2015-05-11T18:42:42.617Z</time>
      </trkpt>
      <trkpt lat="48.85161" lon="2.28531">
        <ele>81.7</ele>
        <time>2015-05-11T18:42:43.619Z</time>
      </trkpt>
      <trkpt lat="48.85158" lon="2.28524">
        <ele>81</ele>
        <time>2015-05-11T18:42:44.572Z</time>
      </trkpt>
      <trkpt lat="48.85155" lon="2.28517">
        <ele>81</ele>
        <time>2015-05-11T18:42:45.579Z</time>
      </trkpt>
      <trkpt lat="48.85152" lon="2.2851">
        <ele>81.1</ele>
        <time>2015-05-11T18:42:46.588Z</time>
      </trkpt>
      <trkpt lat="48.85149" lon="2.28502">
        <ele>81.2</ele>
        <time>2015-05-11T18:42:47.596Z</time>
      </trkpt>
      <trkpt lat="48.85146" lon="2.28494">
        <ele>80.8</ele>
        <time>2015-05-11T18:42:48.617Z</time>
      </trkpt>
      <trkpt lat="48.85142" lon="2.28487">
        <ele>80.3</ele>
        <time>2015-05-11T18:42:49.620Z</time>
      </trkpt>
      <trkpt lat="48.8514" lon="2.28478">
        <ele>80</ele>
        <time>2015-05-11T18:42:50.619Z</time>
      </trkpt>
      <trkpt lat="48.85137" lon="2.28468">
        <ele>80.1</ele>
        <time>2015-05-11T18:42:51.650Z</time>
      </trkpt>
      <trkpt lat="48.85134" lon="2.2846">
        <ele>80.1</ele>
        <time>2015-05-11T18:42:52.655Z</time>
      </trkpt>
      <trkpt lat="48.85131" lon="2.28451">
        <ele>79.8</ele>
        <time>2015-05-11T18:42:53.572Z</time>
      </trkpt>
      <trkpt lat="48.85127" lon="2.28441">
        <ele>79.1</ele>
        <time>2015-05-11T18:42:54.685Z</time>
      </trkpt>
      <trkpt lat="48.85124" lon="2.28433">
        <ele>78.9</ele>
        <time>2015-05-11T18:42:55.578Z</time>
      </trkpt>
      <trkpt lat="48.8512" lon="2.28426">
        <ele>78.6</ele>
        <time>2015-05-11T18:42:56.583Z</time>
      </trkpt>
      <trkpt lat="48.85115" lon="2.28419">
        <ele>78</ele>
        <time>2015-05-11T18:42:57.612Z</time>
      </trkpt>
      <trkpt lat="48.85109" lon="2.28412">
        <ele>77.6</ele>
        <time>2015-05-11T18:42:58.570Z</time>
      </trkpt>
      <trkpt lat="48.85103" lon="2.28405">
        <ele>77.7</ele>
        <time>2015-05-11T18:42:59.589Z</time>
      </trkpt>
      <trkpt lat="48.85098" lon="2.28397">
        <ele>77.3</ele>
        <time>2015-05-11T18:43:00.612Z</time>
      </trkpt>
      <trkpt lat="48.85093" lon="2.28389">
        <ele>77.1</ele>
        <time>2015-05-11T18:43:01.620Z</time>
      </trkpt>
      <trkpt lat="48.85087" lon="2.28383">
        <ele>77.5</ele>
        <time>2015-05-11T18:43:02.628Z</time>
      </trkpt>
      <trkpt lat="48.85082" lon="2.28376">
        <ele>77.7</ele>
        <time>2015-05-11T18:43:03.633Z</time>
      </trkpt>
      <trkpt lat="48.85076" lon="2.28371">
        <ele>77.6</ele>
        <time>2015-05-11T18:43:04.645Z</time>
      </trkpt>
      <trkpt lat="48.85071" lon="2.28365">
        <ele>78</ele>
        <time>2015-05-11T18:43:05.559Z</time>
      </trkpt>
      <trkpt lat="48.85066" lon="2.28359">
        <ele>78.4</ele>
        <time>2015-05-11T18:43:06.601Z</time>
      </trkpt>
      <trkpt lat="48.85061" lon="2.28351">
        <ele>78.2</ele>
        <time>2015-05-11T18:43:07.602Z</time>
      </trkpt>
      <trkpt lat="48.85057" lon="2.28344">
        <ele>78.2</ele>
        <time>2015-05-11T18:43:08.633Z</time>
      </trkpt>
      <trkpt lat="48.85052" lon="2.28337">
        <ele>78.3</ele>
        <time>2015-05-11T18:43:09.652Z</time>
      </trkpt>
      <trkpt lat="48.85047" lon="2.28332">
        <ele>78.7</ele>
        <time>2015-05-11T18:43:10.664Z</time>
      </trkpt>
      <trkpt lat="48.85042" lon="2.28327">
        <ele>78.9</ele>
        <time>2015-05-11T18:43:11.597Z</time>
      </trkpt>
      <trkpt lat="48.85036" lon="2.28323">
        <ele>79</ele>
        <time>2015-05-11T18:43:12.649Z</time>
      </trkpt>
      <trkpt lat="48.85031" lon="2.28317">
        <ele>79</ele>
        <time>2015-05-11T18:43:13.571Z</time>
      </trkpt>
      <trkpt lat="48.85027" lon="2.28311">
        <ele>78.6</ele>
        <time>2015-05-11T18:43:14.569Z</time>
      </trkpt>
      <trkpt lat="48.85022" lon="2.28306">
        <ele>79</ele>
        <time>2015-05-11T18:43:15.578Z</time>
      </trkpt>
      <trkpt lat="48.85017" lon="2.28301">
        <ele>79.3</ele>
        <time>2015-05-11T18:43:16.595Z</time>
      </trkpt>
      <trkpt lat="48.85012" lon="2.28296">
        <ele>79.2</ele>
        <time>2015-05-11T18:43:17.604Z</time>
      </trkpt>
      <trkpt lat="48.85007" lon="2.28292">
        <ele>79.4</ele>
        <time>2015-05-11T18:43:18.629Z</time>
      </trkpt>
      <trkpt lat="48.85002" lon="2.28287">
        <ele>79.6</ele>
        <time>2015-05-11T18:43:19.636Z</time>
      </trkpt>
      <trkpt lat="48.84997" lon="2.28282">
        <ele>80</ele>
        <time>2015-05-11T18:43:20.650Z</time>
      </trkpt>
      <trkpt lat="48.84992" lon="2.28279">
        <ele>80.9</ele>
        <time>2015-05-11T18:43:21.654Z</time>
      </trkpt>
      <trkpt lat="48.84988" lon="2.28276">
        <ele>81.4</ele>
        <time>2015-05-11T18:43:22.659Z</time>
      </trkpt>
      <trkpt lat="48.84984" lon="2.28271">
        <ele>81.9</ele>
        <time>2015-05-11T18:43:23.670Z</time>
      </trkpt>
      <trkpt lat="48.8498" lon="2.28265">
        <ele>83.1</ele>
        <time>2015-05-11T18:43:24.685Z</time>
      </trkpt>
      <trkpt lat="48.84976" lon="2.2826">
        <ele>83.7</ele>
        <time>2015-05-11T18:43:25.585Z</time>
      </trkpt>
      <trkpt lat="48.84972" lon="2.28254">
        <ele>84.1</ele>
        <time>2015-05-11T18:43:26.609Z</time>
      </trkpt>
      <trkpt lat="48.84968" lon="2.28248">
        <ele>84.4</ele>
        <time>2015-05-11T18:43:27.622Z</time>
      </trkpt>
      <trkpt lat="48.84963" lon="2.28243">
        <ele>84.8</ele>
        <time>2015-05-11T18:43:28.631Z</time>
      </trkpt>
      <trkpt lat="48.84959" lon="2.28236">
        <ele>84.9</ele>
        <time>2015-05-11T18:43:29.643Z</time>
      </trkpt>
      <trkpt lat="48.84955" lon="2.2823">
        <ele>85.3</ele>
        <time>2015-05-11T18:43:30.649Z</time>
      </trkpt>
      <trkpt lat="48.84951" lon="2.28223">
        <ele>86.1</ele>
        <time>2015-05-11T18:43:31.658Z</time>
      </trkpt>
      <trkpt lat="48.84947" lon="2.28218">
        <ele>86.9</ele>
        <time>2015-05-11T18:43:32.594Z</time>
      </trkpt>
      <trkpt lat="48.84945" lon="2.28212">
        <ele>88.4</ele>
        <time>2015-05-11T18:43:33.585Z</time>
      </trkpt>
      <trkpt lat="48.84944" lon="2.28203">
        <ele>88.8</ele>
        <time>2015-05-11T18:43:34.593Z</time>
      </trkpt>
      <trkpt lat="48.84944" lon="2.28198">
        <ele>89.2</ele>
        <time>2015-05-11T18:43:35.608Z</time>
      </trkpt>
      <trkpt lat="48.84942" lon="2.28185">
        <ele>89.6</ele>
        <time>2015-05-11T18:43:37.751Z</time>
      </trkpt>
      <trkpt lat="48.84941" lon="2.2818">
        <ele>89.6</ele>
        <time>2015-05-11T18:43:38.658Z</time>
      </trkpt>
      <trkpt lat="48.84939" lon="2.28167">
        <ele>90.7</ele>
        <time>2015-05-11T18:43:41.611Z</time>
      </trkpt>
      <trkpt lat="48.84941" lon="2.2816">
        <ele>90.9</ele>
        <time>2015-05-11T18:43:42.695Z</time>
      </trkpt>
      <trkpt lat="48.84946" lon="2.28152">
        <ele>90.4</ele>
        <time>2015-05-11T18:43:44.603Z</time>
      </trkpt>
      <trkpt lat="48.84948" lon="2.28147">
        <ele>90.4</ele>
        <time>2015-05-11T18:43:45.626Z</time>
      </trkpt>
      <trkpt lat="48.84951" lon="2.28142">
        <ele>90.1</ele>
        <time>2015-05-11T18:43:46.681Z</time>
      </trkpt>
      <trkpt lat="48.84954" lon="2.28137">
        <ele>90.3</ele>
        <time>2015-05-11T18:43:47.566Z</time>
      </trkpt>
      <trkpt lat="48.84957" lon="2.28132">
        <ele>90.7</ele>
        <time>2015-05-11T18:43:48.617Z</time>
      </trkpt>
      <trkpt lat="48.84959" lon="2.28126">
        <ele>90.8</ele>
        <time>2015-05-11T18:43:49.617Z</time>
      </trkpt>
      <trkpt lat="48.84966" lon="2.28116">
        <ele>90.4</ele>
        <time>2015-05-11T18:43:51.640Z</time>
      </trkpt>
      <trkpt lat="48.84969" lon="2.28112">
        <ele>90.3</ele>
        <time>2015-05-11T18:43:52.661Z</time>
      </trkpt>
      <trkpt lat="48.84975" lon="2.28102">
        <ele>90.2</ele>
        <time>2015-05-11T18:43:54.614Z</time>
      </trkpt>
      <trkpt lat="48.84978" lon="2.28097">
        <ele>90</ele>
        <time>2015-05-11T18:43:55.662Z</time>
      </trkpt>
      <trkpt lat="48.84983" lon="2.28086">
        <ele>89.4</ele>
        <time>2015-05-11T18:43:57.567Z</time>
      </trkpt>
      <trkpt lat="48.84985" lon="2.2808">
        <ele>89.4</ele>
        <time>2015-05-11T18:43:58.591Z</time>
      </trkpt>
      <trkpt lat="48.84987" lon="2.28073">
        <ele>89.4</ele>
        <time>2015-05-11T18:43:59.637Z</time>
      </trkpt>
      <trkpt lat="48.8499" lon="2.28067">
        <ele>89.5</ele>
        <time>2015-05-11T18:44:00.676Z</time>
      </trkpt>
      <trkpt lat="48.84995" lon="2.28057">
        <ele>89.5</ele>
        <time>2015-05-11T18:44:02.586Z</time>
      </trkpt>
      <trkpt lat="48.84999" lon="2.28051">
        <ele>89.3</ele>
        <time>2015-05-11T18:44:03.611Z</time>
      </trkpt>
      <trkpt lat="48.85002" lon="2.28045">
        <ele>89</ele>
        <time>2015-05-11T18:44:04.589Z</time>
      </trkpt>
      <trkpt lat="48.85006" lon="2.28039">
        <ele>88.7</ele>
        <time>2015-05-11T18:44:05.587Z</time>
      </trkpt>
      <trkpt lat="48.85009" lon="2.28035">
        <ele>88.5</ele>
        <time>2015-05-11T18:44:06.641Z</time>
      </trkpt>
      <trkpt lat="48.85013" lon="2.28029">
        <ele>88</ele>
        <time>2015-05-11T18:44:07.651Z</time>
      </trkpt>
      <trkpt lat="48.85016" lon="2.28025">
        <ele>88</ele>
        <time>2015-05-11T18:44:08.662Z</time>
      </trkpt>
      <trkpt lat="48.85019" lon="2.2802">
        <ele>87.9</ele>
        <time>2015-05-11T18:44:09.668Z</time>
      </trkpt>
      <trkpt lat="48.85023" lon="2.28015">
        <ele>87.6</ele>
        <time>2015-05-11T18:44:10.684Z</time>
      </trkpt>
      <trkpt lat="48.85026" lon="2.2801">
        <ele>87.4</ele>
        <time>2015-05-11T18:44:11.597Z</time>
      </trkpt>
      <trkpt lat="48.8503" lon="2.28005">
        <ele>87.4</ele>
        <time>2015-05-11T18:44:12.670Z</time>
      </trkpt>
      <trkpt lat="48.85034" lon="2.27999">
        <ele>87.3</ele>
        <time>2015-05-11T18:44:13.644Z</time>
      </trkpt>
      <trkpt lat="48.85037" lon="2.27994">
        <ele>87.1</ele>
        <time>2015-05-11T18:44:14.687Z</time>
      </trkpt>
      <trkpt lat="48.85041" lon="2.27988">
        <ele>86.8</ele>
        <time>2015-05-11T18:44:15.596Z</time>
      </trkpt>
      <trkpt lat="48.85045" lon="2.27982">
        <ele>86.6</ele>
        <time>2015-05-11T18:44:16.607Z</time>
      </trkpt>
      <trkpt lat="48.85049" lon="2.27976">
        <ele>86.7</ele>
        <time>2015-05-11T18:44:17.618Z</time>
      </trkpt>
      <trkpt lat="48.85052" lon="2.27971">
        <ele>86.5</ele>
        <time>2015-05-11T18:44:18.675Z</time>
      </trkpt>
      <trkpt lat="48.85056" lon="2.27965">
        <ele>86.1</ele>
        <time>2015-05-11T18:44:19.674Z</time>
      </trkpt>
      <trkpt lat="48.8506" lon="2.27959">
        <ele>85.8</ele>
        <time>2015-05-11T18:44:20.613Z</time>
      </trkpt>
      <trkpt lat="48.85064" lon="2.27953">
        <ele>85.6</ele>
        <time>2015-05-11T18:44:21.619Z</time>
      </trkpt>
      <trkpt lat="48.85068" lon="2.27946">
        <ele>85.3</ele>
        <time>2015-05-11T18:44:22.630Z</time>
      </trkpt>
      <trkpt lat="48.85072" lon="2.2794">
        <ele>85</ele>
        <time>2015-05-11T18:44:23.672Z</time>
      </trkpt>
      <trkpt lat="48.85076" lon="2.27934">
        <ele>84.7</ele>
        <time>2015-05-11T18:44:24.683Z</time>
      </trkpt>
      <trkpt lat="48.85081" lon="2.27928">
        <ele>84.7</ele>
        <time>2015-05-11T18:44:25.706Z</time>
      </trkpt>
      <trkpt lat="48.85085" lon="2.27922">
        <ele>84.7</ele>
        <time>2015-05-11T18:44:26.578Z</time>
      </trkpt>
      <trkpt lat="48.85088" lon="2.27916">
        <ele>84.7</ele>
        <time>2015-05-11T18:44:27.623Z</time>
      </trkpt>
      <trkpt lat="48.85092" lon="2.2791">
        <ele>85.3</ele>
        <time>2015-05-11T18:44:28.639Z</time>
      </trkpt>
      <trkpt lat="48.85095" lon="2.27903">
        <ele>86.3</ele>
        <time>2015-05-11T18:44:29.654Z</time>
      </trkpt>
      <trkpt lat="48.85097" lon="2.27897">
        <ele>87.3</ele>
        <time>2015-05-11T18:44:30.669Z</time>
      </trkpt>
      <trkpt lat="48.851" lon="2.27891">
        <ele>88</ele>
        <time>2015-05-11T18:44:31.687Z</time>
      </trkpt>
      <trkpt lat="48.85104" lon="2.27886">
        <ele>88.4</ele>
        <time>2015-05-11T18:44:32.664Z</time>
      </trkpt>
      <trkpt lat="48.85107" lon="2.27881">
        <ele>88.7</ele>
        <time>2015-05-11T18:44:33.615Z</time>
      </trkpt>
      <trkpt lat="48.85111" lon="2.27877">
        <ele>88.9</ele>
        <time>2015-05-11T18:44:34.595Z</time>
      </trkpt>
      <trkpt lat="48.85115" lon="2.27873">
        <ele>89.1</ele>
        <time>2015-05-11T18:44:35.607Z</time>
      </trkpt>
      <trkpt lat="48.8512" lon="2.2787">
        <ele>89.7</ele>
        <time>2015-05-11T18:44:36.669Z</time>
      </trkpt>
      <trkpt lat="48.85123" lon="2.27866">
        <ele>89.7</ele>
        <time>2015-05-11T18:44:37.657Z</time>
      </trkpt>
      <trkpt lat="48.85129" lon="2.27855">
        <ele>89.8</ele>
        <time>2015-05-11T18:44:39.626Z</time>
      </trkpt>
      <trkpt lat="48.85131" lon="2.27851">
        <ele>89.9</ele>
        <time>2015-05-11T18:44:40.602Z</time>
      </trkpt>
      <trkpt lat="48.85127" lon="2.27843">
        <ele>90.4</ele>
        <time>2015-05-11T18:44:45.612Z</time>
      </trkpt>
      <trkpt lat="48.85125" lon="2.27841">
        <ele>90.6</ele>
        <time>2015-05-11T18:44:46.626Z</time>
      </trkpt>
      <trkpt lat="48.85121" lon="2.27834">
        <ele>90.5</ele>
        <time>2015-05-11T18:44:48.657Z</time>
      </trkpt>
      <trkpt lat="48.85117" lon="2.27832">
        <ele>90.4</ele>
        <time>2015-05-11T18:44:49.652Z</time>
      </trkpt>
      <trkpt lat="48.85109" lon="2.27827">
        <ele>90.3</ele>
        <time>2015-05-11T18:44:51.581Z</time>
      </trkpt>
      <trkpt lat="48.85106" lon="2.27824">
        <ele>90.3</ele>
        <time>2015-05-11T18:44:52.597Z</time>
      </trkpt>
      <trkpt lat="48.85102" lon="2.2782">
        <ele>90.7</ele>
        <time>2015-05-11T18:44:53.603Z</time>
      </trkpt>
      <trkpt lat="48.85097" lon="2.27816">
        <ele>90.8</ele>
        <time>2015-05-11T18:44:54.648Z</time>
      </trkpt>
      <trkpt lat="48.85093" lon="2.27811">
        <ele>91.1</ele>
        <time>2015-05-11T18:44:55.638Z</time>
      </trkpt>
      <trkpt lat="48.85089" lon="2.27806">
        <ele>91.3</ele>
        <time>2015-05-11T18:44:56.655Z</time>
      </trkpt>
      <trkpt lat="48.85086" lon="2.27802">
        <ele>91.4</ele>
        <time>2015-05-11T18:44:57.563Z</time>
      </trkpt>
      <trkpt lat="48.85083" lon="2.27797">
        <ele>91.5</ele>
        <time>2015-05-11T18:44:58.602Z</time>
      </trkpt>
      <trkpt lat="48.8508" lon="2.27789">
        <ele>91.6</ele>
        <time>2015-05-11T18:44:59.612Z</time>
      </trkpt>
      <trkpt lat="48.85078" lon="2.27781">
        <ele>91.5</ele>
        <time>2015-05-11T18:45:00.641Z</time>
      </trkpt>
      <trkpt lat="48.85076" lon="2.27773">
        <ele>91.4</ele>
        <time>2015-05-11T18:45:01.669Z</time>
      </trkpt>
      <trkpt lat="48.85073" lon="2.27764">
        <ele>91.3</ele>
        <time>2015-05-11T18:45:02.615Z</time>
      </trkpt>
      <trkpt lat="48.85071" lon="2.27757">
        <ele>91.1</ele>
        <time>2015-05-11T18:45:03.810Z</time>
      </trkpt>
      <trkpt lat="48.85069" lon="2.27751">
        <ele>91</ele>
        <time>2015-05-11T18:45:04.596Z</time>
      </trkpt>
      <trkpt lat="48.85067" lon="2.27744">
        <ele>90.8</ele>
        <time>2015-05-11T18:45:05.609Z</time>
      </trkpt>
      <trkpt lat="48.85065" lon="2.27738">
        <ele>90.4</ele>
        <time>2015-05-11T18:45:06.628Z</time>
      </trkpt>
      <trkpt lat="48.85063" lon="2.27731">
        <ele>90.1</ele>
        <time>2015-05-11T18:45:07.642Z</time>
      </trkpt>
      <trkpt lat="48.85059" lon="2.27724">
        <ele>89.9</ele>
        <time>2015-05-11T18:45:08.648Z</time>
      </trkpt>
      <trkpt lat="48.85055" lon="2.27718">
        <ele>89.9</ele>
        <time>2015-05-11T18:45:09.657Z</time>
      </trkpt>
      <trkpt lat="48.85051" lon="2.27711">
        <ele>89.8</ele>
        <time>2015-05-11T18:45:10.663Z</time>
      </trkpt>
      <trkpt lat="48.85046" lon="2.27704">
        <ele>89.7</ele>
        <time>2015-05-11T18:45:11.581Z</time>
      </trkpt>
      <trkpt lat="48.85041" lon="2.27698">
        <ele>89.5</ele>
        <time>2015-05-11T18:45:12.691Z</time>
      </trkpt>
      <trkpt lat="48.85035" lon="2.27694">
        <ele>89.1</ele>
        <time>2015-05-11T18:45:13.580Z</time>
      </trkpt>
      <trkpt lat="48.8503" lon="2.2769">
        <ele>89.1</ele>
        <time>2015-05-11T18:45:14.598Z</time>
      </trkpt>
      <trkpt lat="48.85026" lon="2.27685">
        <ele>89.1</ele>
        <time>2015-05-11T18:45:15.613Z</time>
      </trkpt>
      <trkpt lat="48.85021" lon="2.27679">
        <ele>89</ele>
        <time>2015-05-11T18:45:16.614Z</time>
      </trkpt>
      <trkpt lat="48.85016" lon="2.2767">
        <ele>88.5</ele>
        <time>2015-05-11T18:45:17.622Z</time>
      </trkpt>
      <trkpt lat="48.85011" lon="2.27662">
        <ele>88.3</ele>
        <time>2015-05-11T18:45:18.632Z</time>
      </trkpt>
      <trkpt lat="48.85006" lon="2.27655">
        <ele>88.8</ele>
        <time>2015-05-11T18:45:19.638Z</time>
      </trkpt>
      <trkpt lat="48.84999" lon="2.2765">
        <ele>89.5</ele>
        <time>2015-05-11T18:45:20.649Z</time>
      </trkpt>
      <trkpt lat="48.84993" lon="2.27646">
        <ele>89.8</ele>
        <time>2015-05-11T18:45:21.570Z</time>
      </trkpt>
      <trkpt lat="48.84988" lon="2.27641">
        <ele>90</ele>
        <time>2015-05-11T18:45:22.585Z</time>
      </trkpt>
      <trkpt lat="48.84982" lon="2.27638">
        <ele>90.2</ele>
        <time>2015-05-11T18:45:23.609Z</time>
      </trkpt>
      <trkpt lat="48.84977" lon="2.27633">
        <ele>90.8</ele>
        <time>2015-05-11T18:45:24.616Z</time>
      </trkpt>
      <trkpt lat="48.84972" lon="2.27628">
        <ele>91.2</ele>
        <time>2015-05-11T18:45:25.627Z</time>
      </trkpt>
      <trkpt lat="48.84968" lon="2.27623">
        <ele>91.3</ele>
        <time>2015-05-11T18:45:26.644Z</time>
      </trkpt>
      <trkpt lat="48.84963" lon="2.27617">
        <ele>91.7</ele>
        <time>2015-05-11T18:45:27.560Z</time>
      </trkpt>
      <trkpt lat="48.84958" lon="2.2761">
        <ele>92</ele>
        <time>2015-05-11T18:45:28.567Z</time>
      </trkpt>
      <trkpt lat="48.84954" lon="2.27604">
        <ele>92.7</ele>
        <time>2015-05-11T18:45:29.572Z</time>
      </trkpt>
      <trkpt lat="48.8495" lon="2.27599">
        <ele>93.2</ele>
        <time>2015-05-11T18:45:30.602Z</time>
      </trkpt>
      <trkpt lat="48.84946" lon="2.27595">
        <ele>93.8</ele>
        <time>2015-05-11T18:45:31.604Z</time>
      </trkpt>
      <trkpt lat="48.84942" lon="2.27592">
        <ele>94</ele>
        <time>2015-05-11T18:45:32.622Z</time>
      </trkpt>
      <trkpt lat="48.84938" lon="2.27588">
        <ele>94.5</ele>
        <time>2015-05-11T18:45:33.633Z</time>
      </trkpt>
      <trkpt lat="48.84934" lon="2.27583">
        <ele>94.7</ele>
        <time>2015-05-11T18:45:34.523Z</time>
      </trkpt>
      <trkpt lat="48.8493" lon="2.27579">
        <ele>94.9</ele>
        <time>2015-05-11T18:45:35.557Z</time>
      </trkpt>
      <trkpt lat="48.84926" lon="2.27574">
        <ele>95.4</ele>
        <time>2015-05-11T18:45:36.583Z</time>
      </trkpt>
      <trkpt lat="48.84921" lon="2.27569">
        <ele>95.5</ele>
        <time>2015-05-11T18:45:37.584Z</time>
      </trkpt>
      <trkpt lat="48.84918" lon="2.27565">
        <ele>95.8</ele>
        <time>2015-05-11T18:45:38.591Z</time>
      </trkpt>
      <trkpt lat="48.84914" lon="2.2756">
        <ele>95.8</ele>
        <time>2015-05-11T18:45:39.592Z</time>
      </trkpt>
      <trkpt lat="48.8491" lon="2.27556">
        <ele>95.6</ele>
        <time>2015-05-11T18:45:40.602Z</time>
      </trkpt>
      <trkpt lat="48.84905" lon="2.27553">
        <ele>95.6</ele>
        <time>2015-05-11T18:45:41.618Z</time>
      </trkpt>
      <trkpt lat="48.849" lon="2.27551">
        <ele>95.7</ele>
        <time>2015-05-11T18:45:42.630Z</time>
      </trkpt>
      <trkpt lat="48.84896" lon="2.27548">
        <ele>95.9</ele>
        <time>2015-05-11T18:45:43.548Z</time>
      </trkpt>
      <trkpt lat="48.84892" lon="2.27543">
        <ele>96.1</ele>
        <time>2015-05-11T18:45:44.553Z</time>
      </trkpt>
      <trkpt lat="48.84887" lon="2.27539">
        <ele>96.6</ele>
        <time>2015-05-11T18:45:45.551Z</time>
      </trkpt>
      <trkpt lat="48.84883" lon="2.27535">
        <ele>97.1</ele>
        <time>2015-05-11T18:45:46.561Z</time>
      </trkpt>
      <trkpt lat="48.84878" lon="2.2753">
        <ele>97.3</ele>
        <time>2015-05-11T18:45:47.576Z</time>
      </trkpt>
      <trkpt lat="48.84874" lon="2.27525">
        <ele>97.8</ele>
        <time>2015-05-11T18:45:48.592Z</time>
      </trkpt>
      <trkpt lat="48.8487" lon="2.2752">
        <ele>98.3</ele>
        <time>2015-05-11T18:45:49.600Z</time>
      </trkpt>
      <trkpt lat="48.84866" lon="2.27514">
        <ele>98.7</ele>
        <time>2015-05-11T18:45:50.614Z</time>
      </trkpt>
      <trkpt lat="48.84863" lon="2.2751">
        <ele>99.1</ele>
        <time>2015-05-11T18:45:51.567Z</time>
      </trkpt>
      <trkpt lat="48.8486" lon="2.27504">
        <ele>99.3</ele>
        <time>2015-05-11T18:45:52.575Z</time>
      </trkpt>
      <trkpt lat="48.84856" lon="2.27497">
        <ele>99.2</ele>
        <time>2015-05-11T18:45:53.588Z</time>
      </trkpt>
      <trkpt lat="48.84852" lon="2.27493">
        <ele>99.2</ele>
        <time>2015-05-11T18:45:54.624Z</time>
      </trkpt>
      <trkpt lat="48.84848" lon="2.27488">
        <ele>98.8</ele>
        <time>2015-05-11T18:45:55.631Z</time>
      </trkpt>
      <trkpt lat="48.84844" lon="2.27485">
        <ele>98.2</ele>
        <time>2015-05-11T18:45:56.637Z</time>
      </trkpt>
      <trkpt lat="48.8484" lon="2.27481">
        <ele>97.2</ele>
        <time>2015-05-11T18:45:57.655Z</time>
      </trkpt>
      <trkpt lat="48.84836" lon="2.27476">
        <ele>96.2</ele>
        <time>2015-05-11T18:45:58.572Z</time>
      </trkpt>
      <trkpt lat="48.84831" lon="2.27471">
        <ele>95.3</ele>
        <time>2015-05-11T18:45:59.571Z</time>
      </trkpt>
      <trkpt lat="48.84827" lon="2.27467">
        <ele>94.1</ele>
        <time>2015-05-11T18:46:00.611Z</time>
      </trkpt>
      <trkpt lat="48.84823" lon="2.27464">
        <ele>93.2</ele>
        <time>2015-05-11T18:46:01.621Z</time>
      </trkpt>
      <trkpt lat="48.84819" lon="2.2746">
        <ele>91.8</ele>
        <time>2015-05-11T18:46:02.633Z</time>
      </trkpt>
      <trkpt lat="48.84815" lon="2.27455">
        <ele>91.2</ele>
        <time>2015-05-11T18:46:03.639Z</time>
      </trkpt>
      <trkpt lat="48.8481" lon="2.27451">
        <ele>90.7</ele>
        <time>2015-05-11T18:46:04.662Z</time>
      </trkpt>
      <trkpt lat="48.84805" lon="2.27447">
        <ele>90.4</ele>
        <time>2015-05-11T18:46:05.568Z</time>
      </trkpt>
      <trkpt lat="48.84801" lon="2.27442">
        <ele>90.1</ele>
        <time>2015-05-11T18:46:06.620Z</time>
      </trkpt>
      <trkpt lat="48.84797" lon="2.27435">
        <ele>89.7</ele>
        <time>2015-05-11T18:46:07.619Z</time>
      </trkpt>
      <trkpt lat="48.84792" lon="2.2743">
        <ele>89.7</ele>
        <time>2015-05-11T18:46:08.633Z</time>
      </trkpt>
      <trkpt lat="48.84788" lon="2.27424">
        <ele>89.3</ele>
        <time>2015-05-11T18:46:09.645Z</time>
      </trkpt>
      <trkpt lat="48.84784" lon="2.27419">
        <ele>88.8</ele>
        <time>2015-05-11T18:46:10.651Z</time>
      </trkpt>
      <trkpt lat="48.8478" lon="2.27413">
        <ele>88.5</ele>
        <time>2015-05-11T18:46:11.678Z</time>
      </trkpt>
      <trkpt lat="48.84777" lon="2.27408">
        <ele>88.1</ele>
        <time>2015-05-11T18:46:12.601Z</time>
      </trkpt>
      <trkpt lat="48.84773" lon="2.27405">
        <ele>87.5</ele>
        <time>2015-05-11T18:46:13.573Z</time>
      </trkpt>
      <trkpt lat="48.84768" lon="2.27402">
        <ele>87.2</ele>
        <time>2015-05-11T18:46:14.586Z</time>
      </trkpt>
      <trkpt lat="48.84761" lon="2.27399">
        <ele>86.7</ele>
        <time>2015-05-11T18:46:16.656Z</time>
      </trkpt>
      <trkpt lat="48.84758" lon="2.27398">
        <ele>86.7</ele>
        <time>2015-05-11T18:46:17.549Z</time>
      </trkpt>
      <trkpt lat="48.84751" lon="2.27394">
        <ele>86</ele>
        <time>2015-05-11T18:46:20.636Z</time>
      </trkpt>
      <trkpt lat="48.84749" lon="2.27392">
        <ele>85.6</ele>
        <time>2015-05-11T18:46:21.644Z</time>
      </trkpt>
      <trkpt lat="48.84742" lon="2.27385">
        <ele>84.4</ele>
        <time>2015-05-11T18:46:25.597Z</time>
      </trkpt>
      <trkpt lat="48.84739" lon="2.27382">
        <ele>84.4</ele>
        <time>2015-05-11T18:46:26.611Z</time>
      </trkpt>
      <trkpt lat="48.84733" lon="2.27376">
        <ele>83.4</ele>
        <time>2015-05-11T18:46:28.676Z</time>
      </trkpt>
      <trkpt lat="48.84731" lon="2.27373">
        <ele>83</ele>
        <time>2015-05-11T18:46:29.685Z</time>
      </trkpt>
      <trkpt lat="48.84724" lon="2.2737">
        <ele>83</ele>
        <time>2015-05-11T18:46:31.670Z</time>
      </trkpt>
      <trkpt lat="48.8472" lon="2.27366">
        <ele>82.6</ele>
        <time>2015-05-11T18:46:32.703Z</time>
      </trkpt>
      <trkpt lat="48.84716" lon="2.27363">
        <ele>82.2</ele>
        <time>2015-05-11T18:46:33.590Z</time>
      </trkpt>
      <trkpt lat="48.84711" lon="2.27358">
        <ele>81.8</ele>
        <time>2015-05-11T18:46:34.592Z</time>
      </trkpt>
      <trkpt lat="48.84708" lon="2.27353">
        <ele>81.1</ele>
        <time>2015-05-11T18:46:35.608Z</time>
      </trkpt>
      <trkpt lat="48.84704" lon="2.27347">
        <ele>80.8</ele>
        <time>2015-05-11T18:46:36.641Z</time>
      </trkpt>
      <trkpt lat="48.84699" lon="2.27343">
        <ele>80.7</ele>
        <time>2015-05-11T18:46:37.656Z</time>
      </trkpt>
      <trkpt lat="48.84694" lon="2.2734">
        <ele>80.7</ele>
        <time>2015-05-11T18:46:38.670Z</time>
      </trkpt>
      <trkpt lat="48.84689" lon="2.27338">
        <ele>80.7</ele>
        <time>2015-05-11T18:46:39.686Z</time>
      </trkpt>
      <trkpt lat="48.84684" lon="2.27333">
        <ele>80.6</ele>
        <time>2015-05-11T18:46:40.563Z</time>
      </trkpt>
      <trkpt lat="48.84678" lon="2.27329">
        <ele>80.6</ele>
        <time>2015-05-11T18:46:41.594Z</time>
      </trkpt>
      <trkpt lat="48.84673" lon="2.27326">
        <ele>80.8</ele>
        <time>2015-05-11T18:46:42.644Z</time>
      </trkpt>
      <trkpt lat="48.84669" lon="2.2732">
        <ele>80.7</ele>
        <time>2015-05-11T18:46:43.654Z</time>
      </trkpt>
      <trkpt lat="48.84664" lon="2.27315">
        <ele>80.8</ele>
        <time>2015-05-11T18:46:44.648Z</time>
      </trkpt>
      <trkpt lat="48.8466" lon="2.2731">
        <ele>80.8</ele>
        <time>2015-05-11T18:46:45.673Z</time>
      </trkpt>
      <trkpt lat="48.84656" lon="2.27304">
        <ele>80.8</ele>
        <time>2015-05-11T18:46:46.681Z</time>
      </trkpt>
      <trkpt lat="48.84653" lon="2.27297">
        <ele>80.8</ele>
        <time>2015-05-11T18:46:47.563Z</time>
      </trkpt>
      <trkpt lat="48.84649" lon="2.27289">
        <ele>80.9</ele>
        <time>2015-05-11T18:46:48.647Z</time>
      </trkpt>
      <trkpt lat="48.84646" lon="2.27281">
        <ele>80.9</ele>
        <time>2015-05-11T18:46:49.561Z</time>
      </trkpt>
      <trkpt lat="48.84642" lon="2.27275">
        <ele>80.7</ele>
        <time>2015-05-11T18:46:50.592Z</time>
      </trkpt>
      <trkpt lat="48.84637" lon="2.27271">
        <ele>80.3</ele>
        <time>2015-05-11T18:46:51.623Z</time>
      </trkpt>
      <trkpt lat="48.84633" lon="2.27266">
        <ele>80.1</ele>
        <time>2015-05-11T18:46:52.625Z</time>
      </trkpt>
      <trkpt lat="48.84629" lon="2.27261">
        <ele>80.3</ele>
        <time>2015-05-11T18:46:53.650Z</time>
      </trkpt>
      <trkpt lat="48.84624" lon="2.27256">
        <ele>80.4</ele>
        <time>2015-05-11T18:46:54.661Z</time>
      </trkpt>
      <trkpt lat="48.8462" lon="2.27252">
        <ele>80.6</ele>
        <time>2015-05-11T18:46:55.582Z</time>
      </trkpt>
      <trkpt lat="48.84615" lon="2.27249">
        <ele>80.3</ele>
        <time>2015-05-11T18:46:56.576Z</time>
      </trkpt>
      <trkpt lat="48.84611" lon="2.27245">
        <ele>80.2</ele>
        <time>2015-05-11T18:46:57.596Z</time>
      </trkpt>
      <trkpt lat="48.84606" lon="2.27241">
        <ele>80.1</ele>
        <time>2015-05-11T18:46:58.611Z</time>
      </trkpt>
      <trkpt lat="48.84601" lon="2.27238">
        <ele>80.1</ele>
        <time>2015-05-11T18:46:59.632Z</time>
      </trkpt>
      <trkpt lat="48.84597" lon="2.27234">
        <ele>80.3</ele>
        <time>2015-05-11T18:47:00.636Z</time>
      </trkpt>
      <trkpt lat="48.84592" lon="2.27229">
        <ele>80.3</ele>
        <time>2015-05-11T18:47:01.697Z</time>
      </trkpt>
      <trkpt lat="48.84588" lon="2.27224">
        <ele>80.9</ele>
        <time>2015-05-11T18:47:02.578Z</time>
      </trkpt>
      <trkpt lat="48.84584" lon="2.27219">
        <ele>81.3</ele>
        <time>2015-05-11T18:47:03.582Z</time>
      </trkpt>
      <trkpt lat="48.84579" lon="2.27215">
        <ele>81.6</ele>
        <time>2015-05-11T18:47:04.581Z</time>
      </trkpt>
      <trkpt lat="48.84575" lon="2.2721">
        <ele>81.9</ele>
        <time>2015-05-11T18:47:05.603Z</time>
      </trkpt>
      <trkpt lat="48.8457" lon="2.27204">
        <ele>81.9</ele>
        <time>2015-05-11T18:47:06.629Z</time>
      </trkpt>
      <trkpt lat="48.84566" lon="2.27197">
        <ele>81.5</ele>
        <time>2015-05-11T18:47:07.659Z</time>
      </trkpt>
      <trkpt lat="48.84562" lon="2.27192">
        <ele>81</ele>
        <time>2015-05-11T18:47:08.574Z</time>
      </trkpt>
      <trkpt lat="48.84558" lon="2.27187">
        <ele>80.7</ele>
        <time>2015-05-11T18:47:09.613Z</time>
      </trkpt>
      <trkpt lat="48.84553" lon="2.27183">
        <ele>80.5</ele>
        <time>2015-05-11T18:47:10.666Z</time>
      </trkpt>
      <trkpt lat="48.84545" lon="2.27177">
        <ele>80.2</ele>
        <time>2015-05-11T18:47:12.670Z</time>
      </trkpt>
      <trkpt lat="48.84541" lon="2.27175">
        <ele>80.1</ele>
        <time>2015-05-11T18:47:13.602Z</time>
      </trkpt>
      <trkpt lat="48.84536" lon="2.27172">
        <ele>80.2</ele>
        <time>2015-05-11T18:47:14.898Z</time>
      </trkpt>
      <trkpt lat="48.84532" lon="2.27168">
        <ele>80.7</ele>
        <time>2015-05-11T18:47:15.651Z</time>
      </trkpt>
      <trkpt lat="48.84528" lon="2.27163">
        <ele>81</ele>
        <time>2015-05-11T18:47:16.669Z</time>
      </trkpt>
      <trkpt lat="48.84523" lon="2.27157">
        <ele>81.3</ele>
        <time>2015-05-11T18:47:17.676Z</time>
      </trkpt>
      <trkpt lat="48.84519" lon="2.27151">
        <ele>81.6</ele>
        <time>2015-05-11T18:47:18.687Z</time>
      </trkpt>
      <trkpt lat="48.84514" lon="2.27146">
        <ele>81.7</ele>
        <time>2015-05-11T18:47:19.584Z</time>
      </trkpt>
      <trkpt lat="48.84508" lon="2.27142">
        <ele>81.8</ele>
        <time>2015-05-11T18:47:20.585Z</time>
      </trkpt>
      <trkpt lat="48.84503" lon="2.27139">
        <ele>82.1</ele>
        <time>2015-05-11T18:47:21.594Z</time>
      </trkpt>
      <trkpt lat="48.84498" lon="2.27135">
        <ele>82.2</ele>
        <time>2015-05-11T18:47:22.612Z</time>
      </trkpt>
      <trkpt lat="48.84493" lon="2.27131">
        <ele>82.4</ele>
        <time>2015-05-11T18:47:23.623Z</time>
      </trkpt>
      <trkpt lat="48.84488" lon="2.27127">
        <ele>82.5</ele>
        <time>2015-05-11T18:47:24.635Z</time>
      </trkpt>
      <trkpt lat="48.84483" lon="2.27123">
        <ele>82.6</ele>
        <time>2015-05-11T18:47:25.645Z</time>
      </trkpt>
      <trkpt lat="48.84478" lon="2.27119">
        <ele>82.6</ele>
        <time>2015-05-11T18:47:26.664Z</time>
      </trkpt>
      <trkpt lat="48.84474" lon="2.27112">
        <ele>82.6</ele>
        <time>2015-05-11T18:47:27.580Z</time>
      </trkpt>
      <trkpt lat="48.8447" lon="2.27105">
        <ele>82.6</ele>
        <time>2015-05-11T18:47:28.577Z</time>
      </trkpt>
      <trkpt lat="48.84465" lon="2.271">
        <ele>82.6</ele>
        <time>2015-05-11T18:47:29.586Z</time>
      </trkpt>
      <trkpt lat="48.8446" lon="2.27097">
        <ele>82.3</ele>
        <time>2015-05-11T18:47:30.629Z</time>
      </trkpt>
      <trkpt lat="48.84454" lon="2.27094">
        <ele>82.3</ele>
        <time>2015-05-11T18:47:31.632Z</time>
      </trkpt>
      <trkpt lat="48.84448" lon="2.2709">
        <ele>81.9</ele>
        <time>2015-05-11T18:47:32.652Z</time>
      </trkpt>
      <trkpt lat="48.84443" lon="2.27086">
        <ele>81.5</ele>
        <time>2015-05-11T18:47:33.553Z</time>
      </trkpt>
      <trkpt lat="48.84438" lon="2.27082">
        <ele>81.6</ele>
        <time>2015-05-11T18:47:34.656Z</time>
      </trkpt>
      <trkpt lat="48.84432" lon="2.27079">
        <ele>81.6</ele>
        <time>2015-05-11T18:47:35.671Z</time>
      </trkpt>
      <trkpt lat="48.84427" lon="2.27074">
        <ele>81.3</ele>
        <time>2015-05-11T18:47:36.681Z</time>
      </trkpt>
      <trkpt lat="48.84423" lon="2.27071">
        <ele>80.8</ele>
        <time>2015-05-11T18:47:37.580Z</time>
      </trkpt>
      <trkpt lat="48.84418" lon="2.27067">
        <ele>80.9</ele>
        <time>2015-05-11T18:47:38.761Z</time>
      </trkpt>
      <trkpt lat="48.84414" lon="2.27064">
        <ele>80.7</ele>
        <time>2015-05-11T18:47:39.620Z</time>
      </trkpt>
      <trkpt lat="48.8441" lon="2.2706">
        <ele>80.5</ele>
        <time>2015-05-11T18:47:40.642Z</time>
      </trkpt>
      <trkpt lat="48.84406" lon="2.27054">
        <ele>80.1</ele>
        <time>2015-05-11T18:47:41.598Z</time>
      </trkpt>
      <trkpt lat="48.84402" lon="2.27049">
        <ele>79.9</ele>
        <time>2015-05-11T18:47:42.633Z</time>
      </trkpt>
      <trkpt lat="48.84397" lon="2.27048">
        <ele>80.1</ele>
        <time>2015-05-11T18:47:43.631Z</time>
      </trkpt>
      <trkpt lat="48.84391" lon="2.27046">
        <ele>80.2</ele>
        <time>2015-05-11T18:47:44.645Z</time>
      </trkpt>
      <trkpt lat="48.84386" lon="2.27042">
        <ele>79.8</ele>
        <time>2015-05-11T18:47:45.651Z</time>
      </trkpt>
      <trkpt lat="48.84381" lon="2.27038">
        <ele>79.2</ele>
        <time>2015-05-11T18:47:46.569Z</time>
      </trkpt>
      <trkpt lat="48.84377" lon="2.27034">
        <ele>79.1</ele>
        <time>2015-05-11T18:47:47.572Z</time>
      </trkpt>
      <trkpt lat="48.84372" lon="2.27032">
        <ele>79.3</ele>
        <time>2015-05-11T18:47:48.683Z</time>
      </trkpt>
      <trkpt lat="48.84367" lon="2.27029">
        <ele>79.6</ele>
        <time>2015-05-11T18:47:49.664Z</time>
      </trkpt>
      <trkpt lat="48.84363" lon="2.27026">
        <ele>79.8</ele>
        <time>2015-05-11T18:47:50.660Z</time>
      </trkpt>
      <trkpt lat="48.84358" lon="2.27022">
        <ele>79.8</ele>
        <time>2015-05-11T18:47:51.576Z</time>
      </trkpt>
      <trkpt lat="48.84354" lon="2.27018">
        <ele>79.7</ele>
        <time>2015-05-11T18:47:52.665Z</time>
      </trkpt>
      <trkpt lat="48.84349" lon="2.27014">
        <ele>79.7</ele>
        <time>2015-05-11T18:47:53.608Z</time>
      </trkpt>
      <trkpt lat="48.84345" lon="2.27009">
        <ele>79.8</ele>
        <time>2015-05-11T18:47:54.694Z</time>
      </trkpt>
      <trkpt lat="48.8434" lon="2.27004">
        <ele>80</ele>
        <time>2015-05-11T18:47:55.573Z</time>
      </trkpt>
      <trkpt lat="48.84336" lon="2.27">
        <ele>80.3</ele>
        <time>2015-05-11T18:47:56.582Z</time>
      </trkpt>
      <trkpt lat="48.84332" lon="2.26995">
        <ele>80.4</ele>
        <time>2015-05-11T18:47:57.590Z</time>
      </trkpt>
      <trkpt lat="48.84328" lon="2.2699">
        <ele>80.8</ele>
        <time>2015-05-11T18:47:58.605Z</time>
      </trkpt>
      <trkpt lat="48.84324" lon="2.26985">
        <ele>81</ele>
        <time>2015-05-11T18:47:59.617Z</time>
      </trkpt>
      <trkpt lat="48.8432" lon="2.26979">
        <ele>81.3</ele>
        <time>2015-05-11T18:48:00.635Z</time>
      </trkpt>
      <trkpt lat="48.84317" lon="2.26972">
        <ele>81.4</ele>
        <time>2015-05-11T18:48:01.552Z</time>
      </trkpt>
      <trkpt lat="48.84313" lon="2.26967">
        <ele>81.5</ele>
        <time>2015-05-11T18:48:02.569Z</time>
      </trkpt>
      <trkpt lat="48.84309" lon="2.26961">
        <ele>81.2</ele>
        <time>2015-05-11T18:48:03.597Z</time>
      </trkpt>
      <trkpt lat="48.84305" lon="2.26957">
        <ele>80.9</ele>
        <time>2015-05-11T18:48:04.571Z</time>
      </trkpt>
      <trkpt lat="48.84302" lon="2.26951">
        <ele>80.7</ele>
        <time>2015-05-11T18:48:05.557Z</time>
      </trkpt>
      <trkpt lat="48.84299" lon="2.26944">
        <ele>80.6</ele>
        <time>2015-05-11T18:48:06.632Z</time>
      </trkpt>
      <trkpt lat="48.84297" lon="2.26938">
        <ele>80.6</ele>
        <time>2015-05-11T18:48:07.604Z</time>
      </trkpt>
      <trkpt lat="48.84293" lon="2.26931">
        <ele>80.6</ele>
        <time>2015-05-11T18:48:08.628Z</time>
      </trkpt>
      <trkpt lat="48.84288" lon="2.26925">
        <ele>80.6</ele>
        <time>2015-05-11T18:48:09.640Z</time>
      </trkpt>
      <trkpt lat="48.84282" lon="2.26917">
        <ele>80.7</ele>
        <time>2015-05-11T18:48:11.612Z</time>
      </trkpt>
      <trkpt lat="48.84279" lon="2.26912">
        <ele>80.7</ele>
        <time>2015-05-11T18:48:12.618Z</time>
      </trkpt>
      <trkpt lat="48.84277" lon="2.26906">
        <ele>80.7</ele>
        <time>2015-05-11T18:48:13.624Z</time>
      </trkpt>
      <trkpt lat="48.84274" lon="2.26898">
        <ele>80.9</ele>
        <time>2015-05-11T18:48:14.593Z</time>
      </trkpt>
      <trkpt lat="48.84271" lon="2.26891">
        <ele>81.1</ele>
        <time>2015-05-11T18:48:15.605Z</time>
      </trkpt>
      <trkpt lat="48.84268" lon="2.26885">
        <ele>81.2</ele>
        <time>2015-05-11T18:48:16.609Z</time>
      </trkpt>
      <trkpt lat="48.84265" lon="2.26877">
        <ele>81.7</ele>
        <time>2015-05-11T18:48:17.650Z</time>
      </trkpt>
      <trkpt lat="48.84262" lon="2.26871">
        <ele>82.1</ele>
        <time>2015-05-11T18:48:18.664Z</time>
      </trkpt>
      <trkpt lat="48.84259" lon="2.26867">
        <ele>82.3</ele>
        <time>2015-05-11T18:48:19.575Z</time>
      </trkpt>
      <trkpt lat="48.84255" lon="2.26861">
        <ele>82.7</ele>
        <time>2015-05-11T18:48:20.668Z</time>
      </trkpt>
      <trkpt lat="48.84251" lon="2.26855">
        <ele>83.2</ele>
        <time>2015-05-11T18:48:21.656Z</time>
      </trkpt>
      <trkpt lat="48.84247" lon="2.26849">
        <ele>83.5</ele>
        <time>2015-05-11T18:48:22.677Z</time>
      </trkpt>
      <trkpt lat="48.84244" lon="2.26844">
        <ele>83.6</ele>
        <time>2015-05-11T18:48:23.569Z</time>
      </trkpt>
      <trkpt lat="48.84241" lon="2.26833">
        <ele>82.6</ele>
        <time>2015-05-11T18:48:24.662Z</time>
      </trkpt>
      <trkpt lat="48.84238" lon="2.26828">
        <ele>82.8</ele>
        <time>2015-05-11T18:48:25.542Z</time>
      </trkpt>
      <trkpt lat="48.84235" lon="2.26822">
        <ele>82.8</ele>
        <time>2015-05-11T18:48:26.566Z</time>
      </trkpt>
      <trkpt lat="48.84231" lon="2.2681">
        <ele>83.1</ele>
        <time>2015-05-11T18:48:28.584Z</time>
      </trkpt>
      <trkpt lat="48.84227" lon="2.26805">
        <ele>83.4</ele>
        <time>2015-05-11T18:48:29.541Z</time>
      </trkpt>
      <trkpt lat="48.84225" lon="2.26797">
        <ele>83.9</ele>
        <time>2015-05-11T18:48:30.594Z</time>
      </trkpt>
      <trkpt lat="48.84221" lon="2.26789">
        <ele>84.4</ele>
        <time>2015-05-11T18:48:31.672Z</time>
      </trkpt>
      <trkpt lat="48.84217" lon="2.26781">
        <ele>84.9</ele>
        <time>2015-05-11T18:48:32.560Z</time>
      </trkpt>
      <trkpt lat="48.84212" lon="2.26772">
        <ele>85.3</ele>
        <time>2015-05-11T18:48:33.561Z</time>
      </trkpt>
      <trkpt lat="48.84207" lon="2.26767">
        <ele>85.8</ele>
        <time>2015-05-11T18:48:34.566Z</time>
      </trkpt>
      <trkpt lat="48.84204" lon="2.26762">
        <ele>86.1</ele>
        <time>2015-05-11T18:48:35.575Z</time>
      </trkpt>
      <trkpt lat="48.84199" lon="2.26751">
        <ele>87.3</ele>
        <time>2015-05-11T18:48:37.594Z</time>
      </trkpt>
      <trkpt lat="48.84197" lon="2.26747">
        <ele>87.6</ele>
        <time>2015-05-11T18:48:38.571Z</time>
      </trkpt>
      <trkpt lat="48.84194" lon="2.26742">
        <ele>88.2</ele>
        <time>2015-05-11T18:48:39.572Z</time>
      </trkpt>
      <trkpt lat="48.84192" lon="2.26735">
        <ele>88.5</ele>
        <time>2015-05-11T18:48:40.569Z</time>
      </trkpt>
      <trkpt lat="48.84188" lon="2.26723">
        <ele>89.3</ele>
        <time>2015-05-11T18:48:42.589Z</time>
      </trkpt>
      <trkpt lat="48.84187" lon="2.26717">
        <ele>89.6</ele>
        <time>2015-05-11T18:48:43.637Z</time>
      </trkpt>
      <trkpt lat="48.84183" lon="2.26705">
        <ele>90.5</ele>
        <time>2015-05-11T18:48:45.555Z</time>
      </trkpt>
      <trkpt lat="48.8418" lon="2.26699">
        <ele>90.9</ele>
        <time>2015-05-11T18:48:46.765Z</time>
      </trkpt>
      <trkpt lat="48.84177" lon="2.26693">
        <ele>91.3</ele>
        <time>2015-05-11T18:48:47.557Z</time>
      </trkpt>
      <trkpt lat="48.84173" lon="2.26687">
        <ele>91.4</ele>
        <time>2015-05-11T18:48:48.587Z</time>
      </trkpt>
      <trkpt lat="48.8417" lon="2.26682">
        <ele>91.6</ele>
        <time>2015-05-11T18:48:49.604Z</time>
      </trkpt>
      <trkpt lat="48.84167" lon="2.26677">
        <ele>92.5</ele>
        <time>2015-05-11T18:48:50.621Z</time>
      </trkpt>
      <trkpt lat="48.84164" lon="2.26671">
        <ele>92.9</ele>
        <time>2015-05-11T18:48:51.624Z</time>
      </trkpt>
      <trkpt lat="48.84161" lon="2.26663">
        <ele>92.9</ele>
        <time>2015-05-11T18:48:52.640Z</time>
      </trkpt>
      <trkpt lat="48.8416" lon="2.26655">
        <ele>92.6</ele>
        <time>2015-05-11T18:48:53.549Z</time>
      </trkpt>
      <trkpt lat="48.84158" lon="2.26649">
        <ele>92.6</ele>
        <time>2015-05-11T18:48:54.591Z</time>
      </trkpt>
      <trkpt lat="48.84152" lon="2.2664">
        <ele>92.8</ele>
        <time>2015-05-11T18:48:56.622Z</time>
      </trkpt>
      <trkpt lat="48.84148" lon="2.26635">
        <ele>92.6</ele>
        <time>2015-05-11T18:48:57.637Z</time>
      </trkpt>
      <trkpt lat="48.84143" lon="2.26628">
        <ele>91.7</ele>
        <time>2015-05-11T18:48:59.624Z</time>
      </trkpt>
      <trkpt lat="48.8414" lon="2.26623">
        <ele>91.8</ele>
        <time>2015-05-11T18:49:00.602Z</time>
      </trkpt>
      <trkpt lat="48.84134" lon="2.26612">
        <ele>91.4</ele>
        <time>2015-05-11T18:49:02.630Z</time>
      </trkpt>
      <trkpt lat="48.84131" lon="2.26609">
        <ele>91.4</ele>
        <time>2015-05-11T18:49:03.652Z</time>
      </trkpt>
      <trkpt lat="48.84128" lon="2.26605">
        <ele>91.4</ele>
        <time>2015-05-11T18:49:04.661Z</time>
      </trkpt>
      <trkpt lat="48.84123" lon="2.26602">
        <ele>91.4</ele>
        <time>2015-05-11T18:49:05.569Z</time>
      </trkpt>
      <trkpt lat="48.84115" lon="2.26597">
        <ele>91</ele>
        <time>2015-05-11T18:49:06.920Z</time>
      </trkpt>
      <trkpt lat="48.8411" lon="2.26592">
        <ele>90.2</ele>
        <time>2015-05-11T18:49:07.571Z</time>
      </trkpt>
      <trkpt lat="48.84105" lon="2.26587">
        <ele>90.4</ele>
        <time>2015-05-11T18:49:08.605Z</time>
      </trkpt>
      <trkpt lat="48.84101" lon="2.26583">
        <ele>90.2</ele>
        <time>2015-05-11T18:49:09.618Z</time>
      </trkpt>
      <trkpt lat="48.84097" lon="2.26575">
        <ele>90.5</ele>
        <time>2015-05-11T18:49:11.934Z</time>
      </trkpt>
      <trkpt lat="48.84095" lon="2.26571">
        <ele>90.4</ele>
        <time>2015-05-11T18:49:12.605Z</time>
      </trkpt>
      <trkpt lat="48.84093" lon="2.2656">
        <ele>89.3</ele>
        <time>2015-05-11T18:49:15.547Z</time>
      </trkpt>
      <trkpt lat="48.84092" lon="2.26555">
        <ele>88.8</ele>
        <time>2015-05-11T18:49:16.605Z</time>
      </trkpt>
      <trkpt lat="48.84091" lon="2.26543">
        <ele>88.2</ele>
        <time>2015-05-11T18:49:18.626Z</time>
      </trkpt>
      <trkpt lat="48.84091" lon="2.26538">
        <ele>88.1</ele>
        <time>2015-05-11T18:49:19.652Z</time>
      </trkpt>
      <trkpt lat="48.84093" lon="2.26531">
        <ele>88.4</ele>
        <time>2015-05-11T18:50:28.641Z</time>
      </trkpt>
      <trkpt lat="48.8409" lon="2.26522">
        <ele>90.1</ele>
        <time>2015-05-11T18:50:29.590Z</time>
      </trkpt>
      <trkpt lat="48.84086" lon="2.26512">
        <ele>89.3</ele>
        <time>2015-05-11T18:50:32.306Z</time>
      </trkpt>
      <trkpt lat="48.84084" lon="2.26508">
        <ele>89.2</ele>
        <time>2015-05-11T18:50:32.564Z</time>
      </trkpt>
      <trkpt lat="48.8408" lon="2.26498">
        <ele>89</ele>
        <time>2015-05-11T18:50:37.643Z</time>
      </trkpt>
      <trkpt lat="48.84076" lon="2.26494">
        <ele>90</ele>
        <time>2015-05-11T18:50:38.594Z</time>
      </trkpt>
      <trkpt lat="48.84069" lon="2.26488">
        <ele>90.4</ele>
        <time>2015-05-11T18:50:42.485Z</time>
      </trkpt>
      <trkpt lat="48.84065" lon="2.26486">
        <ele>90.4</ele>
        <time>2015-05-11T18:50:42.668Z</time>
      </trkpt>
      <trkpt lat="48.84059" lon="2.26479">
        <ele>90.8</ele>
        <time>2015-05-11T18:50:44.675Z</time>
      </trkpt>
      <trkpt lat="48.84056" lon="2.26474">
        <ele>91.2</ele>
        <time>2015-05-11T18:50:45.557Z</time>
      </trkpt>
      <trkpt lat="48.8405" lon="2.26465">
        <ele>91.5</ele>
        <time>2015-05-11T18:50:47.619Z</time>
      </trkpt>
      <trkpt lat="48.84045" lon="2.26461">
        <ele>91.7</ele>
        <time>2015-05-11T18:50:48.633Z</time>
      </trkpt>
      <trkpt lat="48.84041" lon="2.26456">
        <ele>91.7</ele>
        <time>2015-05-11T18:50:49.645Z</time>
      </trkpt>
      <trkpt lat="48.84037" lon="2.26451">
        <ele>92.1</ele>
        <time>2015-05-11T18:50:50.666Z</time>
      </trkpt>
      <trkpt lat="48.84033" lon="2.26447">
        <ele>92.7</ele>
        <time>2015-05-11T18:50:51.586Z</time>
      </trkpt>
      <trkpt lat="48.84029" lon="2.26442">
        <ele>93.1</ele>
        <time>2015-05-11T18:50:52.595Z</time>
      </trkpt>
      <trkpt lat="48.84026" lon="2.26438">
        <ele>93.3</ele>
        <time>2015-05-11T18:50:53.587Z</time>
      </trkpt>
      <trkpt lat="48.84023" lon="2.26432">
        <ele>93.3</ele>
        <time>2015-05-11T18:50:54.630Z</time>
      </trkpt>
      <trkpt lat="48.84019" lon="2.26426">
        <ele>93.9</ele>
        <time>2015-05-11T18:50:55.574Z</time>
      </trkpt>
      <trkpt lat="48.84015" lon="2.26421">
        <ele>94.6</ele>
        <time>2015-05-11T18:50:56.583Z</time>
      </trkpt>
      <trkpt lat="48.84012" lon="2.26416">
        <ele>95.3</ele>
        <time>2015-05-11T18:50:57.590Z</time>
      </trkpt>
      <trkpt lat="48.84008" lon="2.26409">
        <ele>95.8</ele>
        <time>2015-05-11T18:50:58.599Z</time>
      </trkpt>
      <trkpt lat="48.84004" lon="2.26402">
        <ele>96.2</ele>
        <time>2015-05-11T18:50:59.617Z</time>
      </trkpt>
      <trkpt lat="48.84001" lon="2.26395">
        <ele>96.5</ele>
        <time>2015-05-11T18:51:00.645Z</time>
      </trkpt>
      <trkpt lat="48.83997" lon="2.26387">
        <ele>96.9</ele>
        <time>2015-05-11T18:51:01.655Z</time>
      </trkpt>
      <trkpt lat="48.83994" lon="2.2638">
        <ele>97.2</ele>
        <time>2015-05-11T18:51:02.577Z</time>
      </trkpt>
      <trkpt lat="48.8399" lon="2.26372">
        <ele>97.7</ele>
        <time>2015-05-11T18:51:03.579Z</time>
      </trkpt>
      <trkpt lat="48.83987" lon="2.26365">
        <ele>97.9</ele>
        <time>2015-05-11T18:51:04.591Z</time>
      </trkpt>
      <trkpt lat="48.83983" lon="2.26358">
        <ele>98.1</ele>
        <time>2015-05-11T18:51:05.627Z</time>
      </trkpt>
      <trkpt lat="48.83979" lon="2.26351">
        <ele>98.2</ele>
        <time>2015-05-11T18:51:06.652Z</time>
      </trkpt>
      <trkpt lat="48.83976" lon="2.26345">
        <ele>98</ele>
        <time>2015-05-11T18:51:07.660Z</time>
      </trkpt>
      <trkpt lat="48.83973" lon="2.26338">
        <ele>97.7</ele>
        <time>2015-05-11T18:51:08.672Z</time>
      </trkpt>
      <trkpt lat="48.8397" lon="2.26331">
        <ele>97.6</ele>
        <time>2015-05-11T18:51:09.581Z</time>
      </trkpt>
      <trkpt lat="48.83966" lon="2.26326">
        <ele>97.8</ele>
        <time>2015-05-11T18:51:10.585Z</time>
      </trkpt>
      <trkpt lat="48.83961" lon="2.26315">
        <ele>98.3</ele>
        <time>2015-05-11T18:51:12.625Z</time>
      </trkpt>
      <trkpt lat="48.83959" lon="2.26308">
        <ele>97.9</ele>
        <time>2015-05-11T18:51:13.643Z</time>
      </trkpt>
      <trkpt lat="48.83958" lon="2.263">
        <ele>97.7</ele>
        <time>2015-05-11T18:51:14.576Z</time>
      </trkpt>
      <trkpt lat="48.83956" lon="2.26292">
        <ele>97.6</ele>
        <time>2015-05-11T18:51:15.578Z</time>
      </trkpt>
      <trkpt lat="48.83955" lon="2.26283">
        <ele>97.3</ele>
        <time>2015-05-11T18:51:16.594Z</time>
      </trkpt>
      <trkpt lat="48.83953" lon="2.26276">
        <ele>97.5</ele>
        <time>2015-05-11T18:51:17.615Z</time>
      </trkpt>
      <trkpt lat="48.83951" lon="2.2627">
        <ele>97.3</ele>
        <time>2015-05-11T18:51:18.611Z</time>
      </trkpt>
      <trkpt lat="48.83948" lon="2.26262">
        <ele>97</ele>
        <time>2015-05-11T18:51:19.617Z</time>
      </trkpt>
      <trkpt lat="48.83946" lon="2.26254">
        <ele>96.6</ele>
        <time>2015-05-11T18:51:20.644Z</time>
      </trkpt>
      <trkpt lat="48.83944" lon="2.26246">
        <ele>96.3</ele>
        <time>2015-05-11T18:51:21.560Z</time>
      </trkpt>
      <trkpt lat="48.83942" lon="2.26237">
        <ele>95.8</ele>
        <time>2015-05-11T18:51:22.579Z</time>
      </trkpt>
      <trkpt lat="48.83938" lon="2.26226">
        <ele>95</ele>
        <time>2015-05-11T18:51:23.574Z</time>
      </trkpt>
      <trkpt lat="48.83935" lon="2.26217">
        <ele>94.3</ele>
        <time>2015-05-11T18:51:24.597Z</time>
      </trkpt>
      <trkpt lat="48.83932" lon="2.26208">
        <ele>93.9</ele>
        <time>2015-05-11T18:51:25.618Z</time>
      </trkpt>
      <trkpt lat="48.83929" lon="2.26197">
        <ele>93.6</ele>
        <time>2015-05-11T18:51:26.558Z</time>
      </trkpt>
      <trkpt lat="48.83925" lon="2.26187">
        <ele>93.1</ele>
        <time>2015-05-11T18:51:27.529Z</time>
      </trkpt>
      <trkpt lat="48.83921" lon="2.26176">
        <ele>92.5</ele>
        <time>2015-05-11T18:51:28.556Z</time>
      </trkpt>
      <trkpt lat="48.83918" lon="2.26164">
        <ele>92.1</ele>
        <time>2015-05-11T18:51:29.564Z</time>
      </trkpt>
      <trkpt lat="48.83914" lon="2.26154">
        <ele>92</ele>
        <time>2015-05-11T18:51:30.598Z</time>
      </trkpt>
      <trkpt lat="48.8391" lon="2.26144">
        <ele>91.9</ele>
        <time>2015-05-11T18:51:31.607Z</time>
      </trkpt>
      <trkpt lat="48.83907" lon="2.26134">
        <ele>92.3</ele>
        <time>2015-05-11T18:51:32.621Z</time>
      </trkpt>
      <trkpt lat="48.83904" lon="2.26122">
        <ele>93.1</ele>
        <time>2015-05-11T18:51:33.638Z</time>
      </trkpt>
      <trkpt lat="48.83902" lon="2.26111">
        <ele>93.6</ele>
        <time>2015-05-11T18:51:34.587Z</time>
      </trkpt>
      <trkpt lat="48.839" lon="2.26099">
        <ele>93.9</ele>
        <time>2015-05-11T18:51:35.598Z</time>
      </trkpt>
      <trkpt lat="48.83897" lon="2.26087">
        <ele>94.2</ele>
        <time>2015-05-11T18:51:36.632Z</time>
      </trkpt>
      <trkpt lat="48.83894" lon="2.26076">
        <ele>94.4</ele>
        <time>2015-05-11T18:51:37.638Z</time>
      </trkpt>
      <trkpt lat="48.83891" lon="2.26063">
        <ele>94.3</ele>
        <time>2015-05-11T18:51:38.565Z</time>
      </trkpt>
      <trkpt lat="48.83889" lon="2.26053">
        <ele>95</ele>
        <time>2015-05-11T18:51:39.564Z</time>
      </trkpt>
      <trkpt lat="48.83887" lon="2.26044">
        <ele>95.4</ele>
        <time>2015-05-11T18:51:40.544Z</time>
      </trkpt>
      <trkpt lat="48.83883" lon="2.26035">
        <ele>95.5</ele>
        <time>2015-05-11T18:51:41.563Z</time>
      </trkpt>
      <trkpt lat="48.8388" lon="2.26025">
        <ele>95.6</ele>
        <time>2015-05-11T18:51:42.592Z</time>
      </trkpt>
      <trkpt lat="48.83878" lon="2.26016">
        <ele>95.7</ele>
        <time>2015-05-11T18:51:43.596Z</time>
      </trkpt>
      <trkpt lat="48.83877" lon="2.26007">
        <ele>95.7</ele>
        <time>2015-05-11T18:51:44.618Z</time>
      </trkpt>
      <trkpt lat="48.83876" lon="2.25997">
        <ele>95.2</ele>
        <time>2015-05-11T18:51:45.631Z</time>
      </trkpt>
      <trkpt lat="48.83874" lon="2.25987">
        <ele>95.3</ele>
        <time>2015-05-11T18:51:46.540Z</time>
      </trkpt>
      <trkpt lat="48.83872" lon="2.25978">
        <ele>95</ele>
        <time>2015-05-11T18:51:47.551Z</time>
      </trkpt>
      <trkpt lat="48.83868" lon="2.25968">
        <ele>95.3</ele>
        <time>2015-05-11T18:51:48.603Z</time>
      </trkpt>
      <trkpt lat="48.83865" lon="2.25959">
        <ele>95.3</ele>
        <time>2015-05-11T18:51:49.610Z</time>
      </trkpt>
      <trkpt lat="48.83862" lon="2.2595">
        <ele>95.7</ele>
        <time>2015-05-11T18:51:50.537Z</time>
      </trkpt>
      <trkpt lat="48.83858" lon="2.2594">
        <ele>96.1</ele>
        <time>2015-05-11T18:51:51.545Z</time>
      </trkpt>
      <trkpt lat="48.83854" lon="2.25929">
        <ele>96.6</ele>
        <time>2015-05-11T18:51:52.563Z</time>
      </trkpt>
      <trkpt lat="48.8385" lon="2.25919">
        <ele>97.5</ele>
        <time>2015-05-11T18:51:53.561Z</time>
      </trkpt>
      <trkpt lat="48.83846" lon="2.2591">
        <ele>98.2</ele>
        <time>2015-05-11T18:51:54.571Z</time>
      </trkpt>
      <trkpt lat="48.83842" lon="2.25901">
        <ele>98.2</ele>
        <time>2015-05-11T18:51:55.607Z</time>
      </trkpt>
      <trkpt lat="48.83839" lon="2.25892">
        <ele>98</ele>
        <time>2015-05-11T18:51:56.633Z</time>
      </trkpt>
      <trkpt lat="48.83837" lon="2.25883">
        <ele>98.2</ele>
        <time>2015-05-11T18:51:57.526Z</time>
      </trkpt>
      <trkpt lat="48.83834" lon="2.25875">
        <ele>98.3</ele>
        <time>2015-05-11T18:51:58.553Z</time>
      </trkpt>
      <trkpt lat="48.83831" lon="2.25866">
        <ele>98.4</ele>
        <time>2015-05-11T18:51:59.587Z</time>
      </trkpt>
      <trkpt lat="48.83825" lon="2.25857">
        <ele>98.2</ele>
        <time>2015-05-11T18:52:00.595Z</time>
      </trkpt>
      <trkpt lat="48.83823" lon="2.25847">
        <ele>98.5</ele>
        <time>2015-05-11T18:52:01.589Z</time>
      </trkpt>
      <trkpt lat="48.83821" lon="2.25837">
        <ele>99.2</ele>
        <time>2015-05-11T18:52:02.600Z</time>
      </trkpt>
      <trkpt lat="48.8382" lon="2.25824">
        <ele>98.8</ele>
        <time>2015-05-11T18:52:03.604Z</time>
      </trkpt>
      <trkpt lat="48.8382" lon="2.25811">
        <ele>97.9</ele>
        <time>2015-05-11T18:52:04.620Z</time>
      </trkpt>
      <trkpt lat="48.83817" lon="2.25801">
        <ele>97.1</ele>
        <time>2015-05-11T18:52:05.623Z</time>
      </trkpt>
      <trkpt lat="48.83815" lon="2.25793">
        <ele>96.6</ele>
        <time>2015-05-11T18:52:06.642Z</time>
      </trkpt>
      <trkpt lat="48.83812" lon="2.25785">
        <ele>95.7</ele>
        <time>2015-05-11T18:52:07.651Z</time>
      </trkpt>
      <trkpt lat="48.83811" lon="2.25777">
        <ele>95.5</ele>
        <time>2015-05-11T18:52:08.563Z</time>
      </trkpt>
      <trkpt lat="48.83811" lon="2.25768">
        <ele>95.3</ele>
        <time>2015-05-11T18:52:09.578Z</time>
      </trkpt>
      <trkpt lat="48.83811" lon="2.2576">
        <ele>95</ele>
        <time>2015-05-11T18:52:10.663Z</time>
      </trkpt>
      <trkpt lat="48.83813" lon="2.25753">
        <ele>95.1</ele>
        <time>2015-05-11T18:52:11.622Z</time>
      </trkpt>
      <trkpt lat="48.83817" lon="2.25742">
        <ele>95</ele>
        <time>2015-05-11T18:52:13.554Z</time>
      </trkpt>
      <trkpt lat="48.8382" lon="2.25738">
        <ele>94.8</ele>
        <time>2015-05-11T18:52:14.577Z</time>
      </trkpt>
      <trkpt lat="48.83825" lon="2.25731">
        <ele>94.3</ele>
        <time>2015-05-11T18:52:16.615Z</time>
      </trkpt>
      <trkpt lat="48.83827" lon="2.25727">
        <ele>94.1</ele>
        <time>2015-05-11T18:52:17.571Z</time>
      </trkpt>
      <trkpt lat="48.83833" lon="2.25717">
        <ele>92.7</ele>
        <time>2015-05-11T18:52:20.628Z</time>
      </trkpt>
      <trkpt lat="48.83834" lon="2.25714">
        <ele>92.5</ele>
        <time>2015-05-11T18:52:21.557Z</time>
      </trkpt>
      <trkpt lat="48.83837" lon="2.25713">
        <ele>90</ele>
        <time>2015-05-11T18:53:25.589Z</time>
      </trkpt>
      <trkpt lat="48.83843" lon="2.2574">
        <ele>86.8</ele>
        <time>2015-05-11T18:53:26.564Z</time>
      </trkpt>
      <trkpt lat="48.83837" lon="2.25743">
        <ele>87.3</ele>
        <time>2015-05-11T18:53:29.595Z</time>
      </trkpt>
      <trkpt lat="48.83833" lon="2.25744">
        <ele>87.8</ele>
        <time>2015-05-11T18:53:30.652Z</time>
      </trkpt>
      <trkpt lat="48.83826" lon="2.25746">
        <ele>88.9</ele>
        <time>2015-05-11T18:54:26.599Z</time>
      </trkpt>
      <trkpt lat="48.83821" lon="2.25759">
        <ele>91.3</ele>
        <time>2015-05-11T18:54:27.567Z</time>
      </trkpt>
      <trkpt lat="48.83822" lon="2.25748">
        <ele>90.4</ele>
        <time>2015-05-11T18:54:29.548Z</time>
      </trkpt>
      <trkpt lat="48.83823" lon="2.25741">
        <ele>89.9</ele>
        <time>2015-05-11T18:54:30.612Z</time>
      </trkpt>
      <trkpt lat="48.83824" lon="2.25729">
        <ele>89.2</ele>
        <time>2015-05-11T18:54:32.614Z</time>
      </trkpt>
      <trkpt lat="48.83825" lon="2.25722">
        <ele>89</ele>
        <time>2015-05-11T18:54:33.636Z</time>
      </trkpt>
      <trkpt lat="48.83826" lon="2.25716">
        <ele>88.6</ele>
        <time>2015-05-11T18:54:34.548Z</time>
      </trkpt>
      <trkpt lat="48.83827" lon="2.25708">
        <ele>88.3</ele>
        <time>2015-05-11T18:54:35.544Z</time>
      </trkpt>
      <trkpt lat="48.83828" lon="2.25701">
        <ele>88.1</ele>
        <time>2015-05-11T18:54:36.660Z</time>
      </trkpt>
      <trkpt lat="48.83828" lon="2.25694">
        <ele>88.1</ele>
        <time>2015-05-11T18:54:37.587Z</time>
      </trkpt>
      <trkpt lat="48.83827" lon="2.25687">
        <ele>88.4</ele>
        <time>2015-05-11T18:54:38.598Z</time>
      </trkpt>
      <trkpt lat="48.83826" lon="2.25679">
        <ele>88.3</ele>
        <time>2015-05-11T18:54:39.604Z</time>
      </trkpt>
      <trkpt lat="48.83824" lon="2.25672">
        <ele>87.9</ele>
        <time>2015-05-11T18:54:40.609Z</time>
      </trkpt>
      <trkpt lat="48.83822" lon="2.25665">
        <ele>87.7</ele>
        <time>2015-05-11T18:54:41.619Z</time>
      </trkpt>
      <trkpt lat="48.83818" lon="2.25659">
        <ele>87.8</ele>
        <time>2015-05-11T18:54:42.625Z</time>
      </trkpt>
      <trkpt lat="48.83814" lon="2.25655">
        <ele>87.5</ele>
        <time>2015-05-11T18:54:43.633Z</time>
      </trkpt>
      <trkpt lat="48.83806" lon="2.2565">
        <ele>86.1</ele>
        <time>2015-05-11T18:54:45.556Z</time>
      </trkpt>
      <trkpt lat="48.83801" lon="2.25648">
        <ele>85.6</ele>
        <time>2015-05-11T18:54:46.565Z</time>
      </trkpt>
      <trkpt lat="48.83796" lon="2.25648">
        <ele>84.8</ele>
        <time>2015-05-11T18:54:47.580Z</time>
      </trkpt>
      <trkpt lat="48.83791" lon="2.25647">
        <ele>84.8</ele>
        <time>2015-05-11T18:54:48.651Z</time>
      </trkpt>
      <trkpt lat="48.83785" lon="2.25648">
        <ele>84.8</ele>
        <time>2015-05-11T18:54:49.557Z</time>
      </trkpt>
      <trkpt lat="48.83779" lon="2.2565">
        <ele>84.9</ele>
        <time>2015-05-11T18:54:50.566Z</time>
      </trkpt>
      <trkpt lat="48.83773" lon="2.25652">
        <ele>84.9</ele>
        <time>2015-05-11T18:54:51.578Z</time>
      </trkpt>
      <trkpt lat="48.83767" lon="2.25655">
        <ele>85</ele>
        <time>2015-05-11T18:54:52.625Z</time>
      </trkpt>
      <trkpt lat="48.8376" lon="2.2566">
        <ele>84.9</ele>
        <time>2015-05-11T18:54:53.560Z</time>
      </trkpt>
      <trkpt lat="48.83753" lon="2.25664">
        <ele>85.1</ele>
        <time>2015-05-11T18:54:54.607Z</time>
      </trkpt>
      <trkpt lat="48.83746" lon="2.25669">
        <ele>85.2</ele>
        <time>2015-05-11T18:54:55.614Z</time>
      </trkpt>
      <trkpt lat="48.83739" lon="2.25673">
        <ele>85.3</ele>
        <time>2015-05-11T18:54:56.623Z</time>
      </trkpt>
      <trkpt lat="48.83729" lon="2.25678">
        <ele>85.7</ele>
        <time>2015-05-11T18:54:57.632Z</time>
      </trkpt>
      <trkpt lat="48.83722" lon="2.25678">
        <ele>86.3</ele>
        <time>2015-05-11T18:54:58.646Z</time>
      </trkpt>
      <trkpt lat="48.83715" lon="2.25677">
        <ele>86.9</ele>
        <time>2015-05-11T18:54:59.589Z</time>
      </trkpt>
      <trkpt lat="48.8371" lon="2.25673">
        <ele>87.2</ele>
        <time>2015-05-11T18:55:00.613Z</time>
      </trkpt>
      <trkpt lat="48.83704" lon="2.25672">
        <ele>87.6</ele>
        <time>2015-05-11T18:55:01.600Z</time>
      </trkpt>
      <trkpt lat="48.837" lon="2.25668">
        <ele>87.9</ele>
        <time>2015-05-11T18:55:02.637Z</time>
      </trkpt>
      <trkpt lat="48.83696" lon="2.25663">
        <ele>88</ele>
        <time>2015-05-11T18:55:03.648Z</time>
      </trkpt>
      <trkpt lat="48.83692" lon="2.25658">
        <ele>88</ele>
        <time>2015-05-11T18:55:04.578Z</time>
      </trkpt>
      <trkpt lat="48.8369" lon="2.2565">
        <ele>87.3</ele>
        <time>2015-05-11T18:55:05.571Z</time>
      </trkpt>
      <trkpt lat="48.83688" lon="2.25644">
        <ele>87.1</ele>
        <time>2015-05-11T18:55:06.651Z</time>
      </trkpt>
      <trkpt lat="48.83684" lon="2.25638">
        <ele>87.3</ele>
        <time>2015-05-11T18:55:07.572Z</time>
      </trkpt>
      <trkpt lat="48.83681" lon="2.25632">
        <ele>87.1</ele>
        <time>2015-05-11T18:55:08.577Z</time>
      </trkpt>
      <trkpt lat="48.83678" lon="2.25625">
        <ele>86.7</ele>
        <time>2015-05-11T18:55:09.595Z</time>
      </trkpt>
      <trkpt lat="48.83671" lon="2.25617">
        <ele>86.1</ele>
        <time>2015-05-11T18:55:11.636Z</time>
      </trkpt>
      <trkpt lat="48.83667" lon="2.25614">
        <ele>86.1</ele>
        <time>2015-05-11T18:55:12.665Z</time>
      </trkpt>
      <trkpt lat="48.83664" lon="2.2561">
        <ele>85.5</ele>
        <time>2015-05-11T18:55:13.577Z</time>
      </trkpt>
      <trkpt lat="48.83659" lon="2.25607">
        <ele>85.2</ele>
        <time>2015-05-11T18:55:14.579Z</time>
      </trkpt>
      <trkpt lat="48.83655" lon="2.25604">
        <ele>85.1</ele>
        <time>2015-05-11T18:55:15.601Z</time>
      </trkpt>
      <trkpt lat="48.83651" lon="2.25601">
        <ele>85.3</ele>
        <time>2015-05-11T18:55:16.613Z</time>
      </trkpt>
      <trkpt lat="48.83646" lon="2.25599">
        <ele>85.3</ele>
        <time>2015-05-11T18:55:17.631Z</time>
      </trkpt>
      <trkpt lat="48.83642" lon="2.25598">
        <ele>85.3</ele>
        <time>2015-05-11T18:55:18.710Z</time>
      </trkpt>
      <trkpt lat="48.83633" lon="2.25595">
        <ele>84.9</ele>
        <time>2015-05-11T18:55:20.575Z</time>
      </trkpt>
      <trkpt lat="48.83629" lon="2.25594">
        <ele>84.8</ele>
        <time>2015-05-11T18:55:21.676Z</time>
      </trkpt>
      <trkpt lat="48.83624" lon="2.25592">
        <ele>84.9</ele>
        <time>2015-05-11T18:55:22.579Z</time>
      </trkpt>
      <trkpt lat="48.8362" lon="2.25591">
        <ele>84.4</ele>
        <time>2015-05-11T18:55:23.602Z</time>
      </trkpt>
      <trkpt lat="48.83615" lon="2.25589">
        <ele>84.7</ele>
        <time>2015-05-11T18:55:24.686Z</time>
      </trkpt>
      <trkpt lat="48.8361" lon="2.25588">
        <ele>84.4</ele>
        <time>2015-05-11T18:55:25.576Z</time>
      </trkpt>
      <trkpt lat="48.83604" lon="2.25586">
        <ele>84.4</ele>
        <time>2015-05-11T18:55:26.614Z</time>
      </trkpt>
      <trkpt lat="48.83599" lon="2.25584">
        <ele>84.5</ele>
        <time>2015-05-11T18:55:27.622Z</time>
      </trkpt>
      <trkpt lat="48.83594" lon="2.25581">
        <ele>84.5</ele>
        <time>2015-05-11T18:55:28.627Z</time>
      </trkpt>
      <trkpt lat="48.83588" lon="2.25576">
        <ele>84.5</ele>
        <time>2015-05-11T18:55:29.635Z</time>
      </trkpt>
      <trkpt lat="48.83582" lon="2.25574">
        <ele>84.9</ele>
        <time>2015-05-11T18:55:30.629Z</time>
      </trkpt>
      <trkpt lat="48.83577" lon="2.25571">
        <ele>85.1</ele>
        <time>2015-05-11T18:55:31.625Z</time>
      </trkpt>
      <trkpt lat="48.83572" lon="2.25568">
        <ele>85</ele>
        <time>2015-05-11T18:55:32.670Z</time>
      </trkpt>
      <trkpt lat="48.83567" lon="2.25565">
        <ele>85.1</ele>
        <time>2015-05-11T18:55:33.571Z</time>
      </trkpt>
      <trkpt lat="48.83561" lon="2.25562">
        <ele>85.6</ele>
        <time>2015-05-11T18:55:34.578Z</time>
      </trkpt>
      <trkpt lat="48.83556" lon="2.25559">
        <ele>86</ele>
        <time>2015-05-11T18:55:35.537Z</time>
      </trkpt>
      <trkpt lat="48.83551" lon="2.25555">
        <ele>85.8</ele>
        <time>2015-05-11T18:55:36.613Z</time>
      </trkpt>
      <trkpt lat="48.83545" lon="2.25551">
        <ele>86.1</ele>
        <time>2015-05-11T18:55:37.608Z</time>
      </trkpt>
      <trkpt lat="48.83539" lon="2.25547">
        <ele>86.1</ele>
        <time>2015-05-11T18:55:38.561Z</time>
      </trkpt>
      <trkpt lat="48.83533" lon="2.25543">
        <ele>86.3</ele>
        <time>2015-05-11T18:55:39.558Z</time>
      </trkpt>
      <trkpt lat="48.83526" lon="2.2554">
        <ele>86.9</ele>
        <time>2015-05-11T18:55:40.566Z</time>
      </trkpt>
      <trkpt lat="48.8352" lon="2.25535">
        <ele>87.5</ele>
        <time>2015-05-11T18:55:41.583Z</time>
      </trkpt>
      <trkpt lat="48.83514" lon="2.2553">
        <ele>87.5</ele>
        <time>2015-05-11T18:55:42.601Z</time>
      </trkpt>
      <trkpt lat="48.83508" lon="2.25526">
        <ele>87.9</ele>
        <time>2015-05-11T18:55:43.614Z</time>
      </trkpt>
      <trkpt lat="48.83502" lon="2.25521">
        <ele>88.3</ele>
        <time>2015-05-11T18:55:44.624Z</time>
      </trkpt>
      <trkpt lat="48.83496" lon="2.25516">
        <ele>88.8</ele>
        <time>2015-05-11T18:55:45.660Z</time>
      </trkpt>
      <trkpt lat="48.8349" lon="2.25512">
        <ele>89</ele>
        <time>2015-05-11T18:55:46.546Z</time>
      </trkpt>
      <trkpt lat="48.83484" lon="2.25508">
        <ele>89</ele>
        <time>2015-05-11T18:55:47.573Z</time>
      </trkpt>
      <trkpt lat="48.83478" lon="2.25504">
        <ele>89.3</ele>
        <time>2015-05-11T18:55:48.623Z</time>
      </trkpt>
      <trkpt lat="48.83472" lon="2.255">
        <ele>89.4</ele>
        <time>2015-05-11T18:55:49.614Z</time>
      </trkpt>
      <trkpt lat="48.83466" lon="2.25497">
        <ele>90.1</ele>
        <time>2015-05-11T18:55:50.638Z</time>
      </trkpt>
      <trkpt lat="48.8346" lon="2.25494">
        <ele>90.9</ele>
        <time>2015-05-11T18:55:51.546Z</time>
      </trkpt>
      <trkpt lat="48.83455" lon="2.25491">
        <ele>91.7</ele>
        <time>2015-05-11T18:55:52.582Z</time>
      </trkpt>
      <trkpt lat="48.8345" lon="2.25489">
        <ele>92.3</ele>
        <time>2015-05-11T18:55:53.594Z</time>
      </trkpt>
      <trkpt lat="48.83443" lon="2.25489">
        <ele>92.5</ele>
        <time>2015-05-11T18:55:54.661Z</time>
      </trkpt>
      <trkpt lat="48.83438" lon="2.25484">
        <ele>92.2</ele>
        <time>2015-05-11T18:55:55.568Z</time>
      </trkpt>
      <trkpt lat="48.83434" lon="2.25479">
        <ele>91.8</ele>
        <time>2015-05-11T18:55:56.567Z</time>
      </trkpt>
      <trkpt lat="48.8343" lon="2.25475">
        <ele>91.4</ele>
        <time>2015-05-11T18:55:57.585Z</time>
      </trkpt>
      <trkpt lat="48.83425" lon="2.2547">
        <ele>91.5</ele>
        <time>2015-05-11T18:55:58.601Z</time>
      </trkpt>
      <trkpt lat="48.83421" lon="2.25464">
        <ele>91.3</ele>
        <time>2015-05-11T18:55:59.621Z</time>
      </trkpt>
      <trkpt lat="48.83416" lon="2.25463">
        <ele>90.9</ele>
        <time>2015-05-11T18:56:00.655Z</time>
      </trkpt>
      <trkpt lat="48.83411" lon="2.2546">
        <ele>90.2</ele>
        <time>2015-05-11T18:56:01.602Z</time>
      </trkpt>
      <trkpt lat="48.83405" lon="2.25458">
        <ele>89.9</ele>
        <time>2015-05-11T18:56:02.595Z</time>
      </trkpt>
      <trkpt lat="48.834" lon="2.25456">
        <ele>89.6</ele>
        <time>2015-05-11T18:56:03.641Z</time>
      </trkpt>
      <trkpt lat="48.83396" lon="2.25453">
        <ele>89.2</ele>
        <time>2015-05-11T18:56:04.621Z</time>
      </trkpt>
      <trkpt lat="48.83391" lon="2.25449">
        <ele>88.8</ele>
        <time>2015-05-11T18:56:05.638Z</time>
      </trkpt>
      <trkpt lat="48.83387" lon="2.25443">
        <ele>88.4</ele>
        <time>2015-05-11T18:56:06.632Z</time>
      </trkpt>
      <trkpt lat="48.83382" lon="2.25439">
        <ele>88</ele>
        <time>2015-05-11T18:56:07.571Z</time>
      </trkpt>
      <trkpt lat="48.83376" lon="2.25435">
        <ele>87.5</ele>
        <time>2015-05-11T18:56:08.573Z</time>
      </trkpt>
      <trkpt lat="48.8337" lon="2.25427">
        <ele>88</ele>
        <time>2015-05-11T18:56:09.583Z</time>
      </trkpt>
      <trkpt lat="48.83366" lon="2.2542">
        <ele>88.3</ele>
        <time>2015-05-11T18:56:10.595Z</time>
      </trkpt>
      <trkpt lat="48.83361" lon="2.25412">
        <ele>88.9</ele>
        <time>2015-05-11T18:56:11.600Z</time>
      </trkpt>
      <trkpt lat="48.83356" lon="2.25405">
        <ele>89.5</ele>
        <time>2015-05-11T18:56:12.627Z</time>
      </trkpt>
      <trkpt lat="48.8335" lon="2.25402">
        <ele>90.1</ele>
        <time>2015-05-11T18:56:13.633Z</time>
      </trkpt>
      <trkpt lat="48.83344" lon="2.25401">
        <ele>90.8</ele>
        <time>2015-05-11T18:56:14.640Z</time>
      </trkpt>
      <trkpt lat="48.83338" lon="2.25399">
        <ele>91.5</ele>
        <time>2015-05-11T18:56:15.649Z</time>
      </trkpt>
      <trkpt lat="48.83332" lon="2.25398">
        <ele>92.1</ele>
        <time>2015-05-11T18:56:16.562Z</time>
      </trkpt>
      <trkpt lat="48.83326" lon="2.25396">
        <ele>92.4</ele>
        <time>2015-05-11T18:56:17.572Z</time>
      </trkpt>
      <trkpt lat="48.83321" lon="2.25395">
        <ele>92.7</ele>
        <time>2015-05-11T18:56:18.618Z</time>
      </trkpt>
      <trkpt lat="48.83315" lon="2.25391">
        <ele>92.6</ele>
        <time>2015-05-11T18:56:19.628Z</time>
      </trkpt>
      <trkpt lat="48.83308" lon="2.25386">
        <ele>93.1</ele>
        <time>2015-05-11T18:56:20.639Z</time>
      </trkpt>
      <trkpt lat="48.83301" lon="2.25381">
        <ele>93.1</ele>
        <time>2015-05-11T18:56:21.644Z</time>
      </trkpt>
      <trkpt lat="48.83295" lon="2.25378">
        <ele>93.5</ele>
        <time>2015-05-11T18:56:22.562Z</time>
      </trkpt>
      <trkpt lat="48.83288" lon="2.25374">
        <ele>94</ele>
        <time>2015-05-11T18:56:23.563Z</time>
      </trkpt>
      <trkpt lat="48.83282" lon="2.2537">
        <ele>94.3</ele>
        <time>2015-05-11T18:56:24.602Z</time>
      </trkpt>
      <trkpt lat="48.83277" lon="2.25367">
        <ele>93.7</ele>
        <time>2015-05-11T18:56:25.601Z</time>
      </trkpt>
      <trkpt lat="48.83267" lon="2.25357">
        <ele>93.7</ele>
        <time>2015-05-11T18:56:27.622Z</time>
      </trkpt>
      <trkpt lat="48.83262" lon="2.25354">
        <ele>93.7</ele>
        <time>2015-05-11T18:56:28.633Z</time>
      </trkpt>
      <trkpt lat="48.83258" lon="2.25348">
        <ele>94</ele>
        <time>2015-05-11T18:56:29.517Z</time>
      </trkpt>
      <trkpt lat="48.83253" lon="2.25341">
        <ele>94.1</ele>
        <time>2015-05-11T18:56:30.555Z</time>
      </trkpt>
      <trkpt lat="48.83249" lon="2.25335">
        <ele>94.1</ele>
        <time>2015-05-11T18:56:31.565Z</time>
      </trkpt>
      <trkpt lat="48.83245" lon="2.25329">
        <ele>94.2</ele>
        <time>2015-05-11T18:56:32.574Z</time>
      </trkpt>
      <trkpt lat="48.8324" lon="2.25323">
        <ele>94.2</ele>
        <time>2015-05-11T18:56:33.576Z</time>
      </trkpt>
      <trkpt lat="48.83237" lon="2.25317">
        <ele>94.2</ele>
        <time>2015-05-11T18:56:34.577Z</time>
      </trkpt>
      <trkpt lat="48.83232" lon="2.25312">
        <ele>93.9</ele>
        <time>2015-05-11T18:56:35.590Z</time>
      </trkpt>
      <trkpt lat="48.83228" lon="2.25307">
        <ele>93.9</ele>
        <time>2015-05-11T18:56:36.622Z</time>
      </trkpt>
      <trkpt lat="48.83223" lon="2.25306">
        <ele>93.5</ele>
        <time>2015-05-11T18:56:37.611Z</time>
      </trkpt>
      <trkpt lat="48.83215" lon="2.25308">
        <ele>92.6</ele>
        <time>2015-05-11T18:56:39.645Z</time>
      </trkpt>
      <trkpt lat="48.83211" lon="2.25307">
        <ele>92.4</ele>
        <time>2015-05-11T18:56:40.563Z</time>
      </trkpt>
      <trkpt lat="48.83204" lon="2.25303">
        <ele>92.3</ele>
        <time>2015-05-11T18:56:42.616Z</time>
      </trkpt>
      <trkpt lat="48.83202" lon="2.25299">
        <ele>91.9</ele>
        <time>2015-05-11T18:56:43.612Z</time>
      </trkpt>
      <trkpt lat="48.83194" lon="2.25294">
        <ele>91.9</ele>
        <time>2015-05-11T18:56:45.523Z</time>
      </trkpt>
      <trkpt lat="48.83191" lon="2.25294">
        <ele>90.9</ele>
        <time>2015-05-11T18:56:46.534Z</time>
      </trkpt>
      <trkpt lat="48.83183" lon="2.2529">
        <ele>89.9</ele>
        <time>2015-05-11T18:56:48.565Z</time>
      </trkpt>
      <trkpt lat="48.83179" lon="2.25287">
        <ele>89.5</ele>
        <time>2015-05-11T18:56:49.578Z</time>
      </trkpt>
      <trkpt lat="48.83171" lon="2.25283">
        <ele>88</ele>
        <time>2015-05-11T18:56:51.002Z</time>
      </trkpt>
      <trkpt lat="48.83166" lon="2.2528">
        <ele>88.4</ele>
        <time>2015-05-11T18:56:52.564Z</time>
      </trkpt>
      <trkpt lat="48.83161" lon="2.25277">
        <ele>88.9</ele>
        <time>2015-05-11T18:56:53.570Z</time>
      </trkpt>
      <trkpt lat="48.83157" lon="2.25275">
        <ele>89</ele>
        <time>2015-05-11T18:56:54.590Z</time>
      </trkpt>
      <trkpt lat="48.83153" lon="2.25271">
        <ele>88.7</ele>
        <time>2015-05-11T18:56:55.603Z</time>
      </trkpt>
      <trkpt lat="48.83148" lon="2.25268">
        <ele>88.6</ele>
        <time>2015-05-11T18:56:56.612Z</time>
      </trkpt>
      <trkpt lat="48.83144" lon="2.25263">
        <ele>88.4</ele>
        <time>2015-05-11T18:56:57.587Z</time>
      </trkpt>
      <trkpt lat="48.83141" lon="2.25258">
        <ele>88.2</ele>
        <time>2015-05-11T18:56:58.563Z</time>
      </trkpt>
      <trkpt lat="48.83136" lon="2.2525">
        <ele>88.3</ele>
        <time>2015-05-11T18:57:00.571Z</time>
      </trkpt>
      <trkpt lat="48.83134" lon="2.25246">
        <ele>88.4</ele>
        <time>2015-05-11T18:57:01.620Z</time>
      </trkpt>
      <trkpt lat="48.8313" lon="2.25238">
        <ele>88.4</ele>
        <time>2015-05-11T18:57:03.553Z</time>
      </trkpt>
      <trkpt lat="48.83127" lon="2.25232">
        <ele>88.5</ele>
        <time>2015-05-11T18:57:04.575Z</time>
      </trkpt>
      <trkpt lat="48.83124" lon="2.25226">
        <ele>88.2</ele>
        <time>2015-05-11T18:57:05.624Z</time>
      </trkpt>
      <trkpt lat="48.83122" lon="2.25219">
        <ele>87.8</ele>
        <time>2015-05-11T18:57:06.639Z</time>
      </trkpt>
      <trkpt lat="48.83118" lon="2.25213">
        <ele>87.9</ele>
        <time>2015-05-11T18:57:07.644Z</time>
      </trkpt>
      <trkpt lat="48.83115" lon="2.25206">
        <ele>87.8</ele>
        <time>2015-05-11T18:57:08.545Z</time>
      </trkpt>
      <trkpt lat="48.83112" lon="2.252">
        <ele>88.2</ele>
        <time>2015-05-11T18:57:09.552Z</time>
      </trkpt>
      <trkpt lat="48.83109" lon="2.25193">
        <ele>88.4</ele>
        <time>2015-05-11T18:57:10.567Z</time>
      </trkpt>
      <trkpt lat="48.83106" lon="2.2518">
        <ele>88.8</ele>
        <time>2015-05-11T18:57:12.685Z</time>
      </trkpt>
      <trkpt lat="48.83104" lon="2.25175">
        <ele>88.9</ele>
        <time>2015-05-11T18:57:13.574Z</time>
      </trkpt>
      <trkpt lat="48.83099" lon="2.25164">
        <ele>89</ele>
        <time>2015-05-11T18:57:15.577Z</time>
      </trkpt>
      <trkpt lat="48.83097" lon="2.25158">
        <ele>88.8</ele>
        <time>2015-05-11T18:57:16.586Z</time>
      </trkpt>
      <trkpt lat="48.83094" lon="2.25152">
        <ele>88.8</ele>
        <time>2015-05-11T18:57:17.602Z</time>
      </trkpt>
      <trkpt lat="48.83092" lon="2.25145">
        <ele>88.7</ele>
        <time>2015-05-11T18:57:18.621Z</time>
      </trkpt>
      <trkpt lat="48.83089" lon="2.25138">
        <ele>88.3</ele>
        <time>2015-05-11T18:57:19.529Z</time>
      </trkpt>
      <trkpt lat="48.83086" lon="2.25133">
        <ele>88.5</ele>
        <time>2015-05-11T18:57:20.569Z</time>
      </trkpt>
      <trkpt lat="48.83083" lon="2.25126">
        <ele>88.4</ele>
        <time>2015-05-11T18:57:21.600Z</time>
      </trkpt>
      <trkpt lat="48.8308" lon="2.25119">
        <ele>88.3</ele>
        <time>2015-05-11T18:57:22.601Z</time>
      </trkpt>
      <trkpt lat="48.83078" lon="2.25111">
        <ele>88.9</ele>
        <time>2015-05-11T18:57:23.523Z</time>
      </trkpt>
      <trkpt lat="48.83076" lon="2.25105">
        <ele>89.6</ele>
        <time>2015-05-11T18:57:24.562Z</time>
      </trkpt>
      <trkpt lat="48.83071" lon="2.25097">
        <ele>90.5</ele>
        <time>2015-05-11T18:57:26.619Z</time>
      </trkpt>
      <trkpt lat="48.8307" lon="2.25092">
        <ele>90.3</ele>
        <time>2015-05-11T18:57:27.587Z</time>
      </trkpt>
      <trkpt lat="48.83066" lon="2.25086">
        <ele>90.1</ele>
        <time>2015-05-11T18:57:28.550Z</time>
      </trkpt>
      <trkpt lat="48.83062" lon="2.25081">
        <ele>89.8</ele>
        <time>2015-05-11T18:57:29.577Z</time>
      </trkpt>
      <trkpt lat="48.83057" lon="2.25075">
        <ele>89.7</ele>
        <time>2015-05-11T18:57:30.596Z</time>
      </trkpt>
      <trkpt lat="48.83052" lon="2.25068">
        <ele>89.8</ele>
        <time>2015-05-11T18:57:31.618Z</time>
      </trkpt>
      <trkpt lat="48.83048" lon="2.25061">
        <ele>89.7</ele>
        <time>2015-05-11T18:57:32.630Z</time>
      </trkpt>
      <trkpt lat="48.83045" lon="2.25054">
        <ele>89.9</ele>
        <time>2015-05-11T18:57:33.558Z</time>
      </trkpt>
      <trkpt lat="48.83043" lon="2.25048">
        <ele>90.6</ele>
        <time>2015-05-11T18:57:34.549Z</time>
      </trkpt>
      <trkpt lat="48.8304" lon="2.25041">
        <ele>91</ele>
        <time>2015-05-11T18:57:35.590Z</time>
      </trkpt>
      <trkpt lat="48.83034" lon="2.25033">
        <ele>90.6</ele>
        <time>2015-05-11T18:57:36.596Z</time>
      </trkpt>
      <trkpt lat="48.83031" lon="2.25025">
        <ele>90.7</ele>
        <time>2015-05-11T18:57:37.607Z</time>
      </trkpt>
      <trkpt lat="48.83028" lon="2.25018">
        <ele>90.8</ele>
        <time>2015-05-11T18:57:38.552Z</time>
      </trkpt>
      <trkpt lat="48.83024" lon="2.25011">
        <ele>91.1</ele>
        <time>2015-05-11T18:57:39.570Z</time>
      </trkpt>
      <trkpt lat="48.83019" lon="2.25002">
        <ele>91.9</ele>
        <time>2015-05-11T18:57:41.584Z</time>
      </trkpt>
      <trkpt lat="48.83016" lon="2.24995">
        <ele>92.5</ele>
        <time>2015-05-11T18:57:42.603Z</time>
      </trkpt>
      <trkpt lat="48.83008" lon="2.24987">
        <ele>91.9</ele>
        <time>2015-05-11T18:57:43.619Z</time>
      </trkpt>
      <trkpt lat="48.83001" lon="2.24981">
        <ele>91.9</ele>
        <time>2015-05-11T18:57:44.631Z</time>
      </trkpt>
      <trkpt lat="48.82996" lon="2.24974">
        <ele>91.9</ele>
        <time>2015-05-11T18:57:45.577Z</time>
      </trkpt>
      <trkpt lat="48.82992" lon="2.24969">
        <ele>92.1</ele>
        <time>2015-05-11T18:57:46.559Z</time>
      </trkpt>
      <trkpt lat="48.82989" lon="2.24963">
        <ele>92.6</ele>
        <time>2015-05-11T18:57:47.562Z</time>
      </trkpt>
      <trkpt lat="48.82987" lon="2.2495">
        <ele>93.3</ele>
        <time>2015-05-11T18:57:50.640Z</time>
      </trkpt>
      <trkpt lat="48.82986" lon="2.24946">
        <ele>93.7</ele>
        <time>2015-05-11T18:57:51.526Z</time>
      </trkpt>
      <trkpt lat="48.82983" lon="2.2494">
        <ele>94.3</ele>
        <time>2015-05-11T18:57:52.567Z</time>
      </trkpt>
      <trkpt lat="48.82974" lon="2.24934">
        <ele>93.9</ele>
        <time>2015-05-11T18:57:53.590Z</time>
      </trkpt>
      <trkpt lat="48.8297" lon="2.24925">
        <ele>94.3</ele>
        <time>2015-05-11T18:57:54.559Z</time>
      </trkpt>
      <trkpt lat="48.82968" lon="2.24917">
        <ele>94.9</ele>
        <time>2015-05-11T18:57:55.576Z</time>
      </trkpt>
      <trkpt lat="48.82966" lon="2.24911">
        <ele>95.4</ele>
        <time>2015-05-11T18:57:56.577Z</time>
      </trkpt>
      <trkpt lat="48.82963" lon="2.24905">
        <ele>95.7</ele>
        <time>2015-05-11T18:57:57.586Z</time>
      </trkpt>
      <trkpt lat="48.8296" lon="2.24895">
        <ele>96.3</ele>
        <time>2015-05-11T18:57:59.526Z</time>
      </trkpt>
      <trkpt lat="48.82959" lon="2.24891">
        <ele>96.4</ele>
        <time>2015-05-11T18:58:00.667Z</time>
      </trkpt>
      <trkpt lat="48.82957" lon="2.24885">
        <ele>96.5</ele>
        <time>2015-05-11T18:58:01.551Z</time>
      </trkpt>
      <trkpt lat="48.82954" lon="2.24878">
        <ele>96.3</ele>
        <time>2015-05-11T18:58:02.570Z</time>
      </trkpt>
      <trkpt lat="48.82951" lon="2.24869">
        <ele>95.8</ele>
        <time>2015-05-11T18:58:03.608Z</time>
      </trkpt>
      <trkpt lat="48.8295" lon="2.24861">
        <ele>95.4</ele>
        <time>2015-05-11T18:58:04.619Z</time>
      </trkpt>
      <trkpt lat="48.8295" lon="2.24853">
        <ele>95</ele>
        <time>2015-05-11T18:58:05.544Z</time>
      </trkpt>
      <trkpt lat="48.8295" lon="2.24846">
        <ele>95</ele>
        <time>2015-05-11T18:58:06.568Z</time>
      </trkpt>
      <trkpt lat="48.82948" lon="2.24838">
        <ele>95.1</ele>
        <time>2015-05-11T18:58:07.591Z</time>
      </trkpt>
      <trkpt lat="48.82945" lon="2.24831">
        <ele>95.1</ele>
        <time>2015-05-11T18:58:08.599Z</time>
      </trkpt>
      <trkpt lat="48.82942" lon="2.24823">
        <ele>95.1</ele>
        <time>2015-05-11T18:58:09.617Z</time>
      </trkpt>
      <trkpt lat="48.82939" lon="2.24815">
        <ele>95.2</ele>
        <time>2015-05-11T18:58:10.621Z</time>
      </trkpt>
      <trkpt lat="48.82935" lon="2.24809">
        <ele>95.1</ele>
        <time>2015-05-11T18:58:11.633Z</time>
      </trkpt>
      <trkpt lat="48.82934" lon="2.24801">
        <ele>94.8</ele>
        <time>2015-05-11T18:58:12.644Z</time>
      </trkpt>
      <trkpt lat="48.8293" lon="2.24793">
        <ele>94.4</ele>
        <time>2015-05-11T18:58:13.553Z</time>
      </trkpt>
      <trkpt lat="48.82928" lon="2.24784">
        <ele>94</ele>
        <time>2015-05-11T18:58:14.565Z</time>
      </trkpt>
      <trkpt lat="48.82926" lon="2.24778">
        <ele>93.9</ele>
        <time>2015-05-11T18:58:15.586Z</time>
      </trkpt>
      <trkpt lat="48.82924" lon="2.24771">
        <ele>93.5</ele>
        <time>2015-05-11T18:58:16.597Z</time>
      </trkpt>
      <trkpt lat="48.82923" lon="2.24763">
        <ele>93.2</ele>
        <time>2015-05-11T18:58:17.609Z</time>
      </trkpt>
      <trkpt lat="48.82922" lon="2.24756">
        <ele>93</ele>
        <time>2015-05-11T18:58:18.623Z</time>
      </trkpt>
      <trkpt lat="48.8292" lon="2.24749">
        <ele>93.2</ele>
        <time>2015-05-11T18:58:19.639Z</time>
      </trkpt>
      <trkpt lat="48.82918" lon="2.24742">
        <ele>93.4</ele>
        <time>2015-05-11T18:58:20.643Z</time>
      </trkpt>
      <trkpt lat="48.82914" lon="2.24735">
        <ele>93.5</ele>
        <time>2015-05-11T18:58:21.551Z</time>
      </trkpt>
      <trkpt lat="48.82912" lon="2.24728">
        <ele>93.4</ele>
        <time>2015-05-11T18:58:22.557Z</time>
      </trkpt>
      <trkpt lat="48.82911" lon="2.2472">
        <ele>93.3</ele>
        <time>2015-05-11T18:58:23.561Z</time>
      </trkpt>
      <trkpt lat="48.82912" lon="2.24713">
        <ele>93</ele>
        <time>2015-05-11T18:58:24.586Z</time>
      </trkpt>
      <trkpt lat="48.82911" lon="2.24705">
        <ele>92.5</ele>
        <time>2015-05-11T18:58:25.581Z</time>
      </trkpt>
      <trkpt lat="48.82911" lon="2.24699">
        <ele>92.3</ele>
        <time>2015-05-11T18:58:26.583Z</time>
      </trkpt>
      <trkpt lat="48.82911" lon="2.24691">
        <ele>92.2</ele>
        <time>2015-05-11T18:58:27.614Z</time>
      </trkpt>
      <trkpt lat="48.82911" lon="2.24685">
        <ele>91.8</ele>
        <time>2015-05-11T18:58:28.633Z</time>
      </trkpt>
      <trkpt lat="48.82911" lon="2.24675">
        <ele>91.5</ele>
        <time>2015-05-11T18:58:30.584Z</time>
      </trkpt>
      <trkpt lat="48.82909" lon="2.24671">
        <ele>91.5</ele>
        <time>2015-05-11T18:58:31.644Z</time>
      </trkpt>
      <trkpt lat="48.82907" lon="2.24661">
        <ele>91.3</ele>
        <time>2015-05-11T18:58:33.565Z</time>
      </trkpt>
      <trkpt lat="48.82907" lon="2.24656">
        <ele>91.2</ele>
        <time>2015-05-11T18:58:34.578Z</time>
      </trkpt>
      <trkpt lat="48.82904" lon="2.24646">
        <ele>90.4</ele>
        <time>2015-05-11T18:58:36.597Z</time>
      </trkpt>
      <trkpt lat="48.82903" lon="2.24642">
        <ele>90.3</ele>
        <time>2015-05-11T18:58:37.591Z</time>
      </trkpt>
      <trkpt lat="48.82895" lon="2.24636">
        <ele>89.9</ele>
        <time>2015-05-11T18:58:39.550Z</time>
      </trkpt>
      <trkpt lat="48.8289" lon="2.24633">
        <ele>89.8</ele>
        <time>2015-05-11T18:58:40.573Z</time>
      </trkpt>
      <trkpt lat="48.82882" lon="2.24629">
        <ele>90</ele>
        <time>2015-05-11T18:58:42.651Z</time>
      </trkpt>
      <trkpt lat="48.82879" lon="2.24627">
        <ele>90</ele>
        <time>2015-05-11T18:58:43.576Z</time>
      </trkpt>
      <trkpt lat="48.82873" lon="2.24621">
        <ele>89.7</ele>
        <time>2015-05-11T18:58:45.550Z</time>
      </trkpt>
      <trkpt lat="48.82871" lon="2.24615">
        <ele>89.8</ele>
        <time>2015-05-11T18:58:46.572Z</time>
      </trkpt>
      <trkpt lat="48.82868" lon="2.24605">
        <ele>90</ele>
        <time>2015-05-11T18:58:48.566Z</time>
      </trkpt>
      <trkpt lat="48.82866" lon="2.24599">
        <ele>91.1</ele>
        <time>2015-05-11T18:58:49.578Z</time>
      </trkpt>
      <trkpt lat="48.82863" lon="2.24588">
        <ele>93</ele>
        <time>2015-05-11T18:58:52.558Z</time>
      </trkpt>
      <trkpt lat="48.82861" lon="2.24583">
        <ele>93.1</ele>
        <time>2015-05-11T18:58:53.707Z</time>
      </trkpt>
      <trkpt lat="48.82859" lon="2.24576">
        <ele>93.6</ele>
        <time>2015-05-11T18:58:54.594Z</time>
      </trkpt>
      <trkpt lat="48.82855" lon="2.24568">
        <ele>93.4</ele>
        <time>2015-05-11T18:58:55.527Z</time>
      </trkpt>
      <trkpt lat="48.82852" lon="2.24559">
        <ele>93.6</ele>
        <time>2015-05-11T18:58:56.989Z</time>
      </trkpt>
      <trkpt lat="48.82849" lon="2.24552">
        <ele>94.1</ele>
        <time>2015-05-11T18:58:57.589Z</time>
      </trkpt>
      <trkpt lat="48.82846" lon="2.24543">
        <ele>94.4</ele>
        <time>2015-05-11T18:58:58.606Z</time>
      </trkpt>
      <trkpt lat="48.82844" lon="2.24535">
        <ele>94.9</ele>
        <time>2015-05-11T18:58:59.619Z</time>
      </trkpt>
      <trkpt lat="48.8284" lon="2.24523">
        <ele>95</ele>
        <time>2015-05-11T18:59:02.009Z</time>
      </trkpt>
      <trkpt lat="48.82839" lon="2.24517">
        <ele>95.1</ele>
        <time>2015-05-11T18:59:02.572Z</time>
      </trkpt>
      <trkpt lat="48.82837" lon="2.2451">
        <ele>95.3</ele>
        <time>2015-05-11T18:59:03.568Z</time>
      </trkpt>
      <trkpt lat="48.82835" lon="2.24502">
        <ele>95.3</ele>
        <time>2015-05-11T18:59:04.610Z</time>
      </trkpt>
      <trkpt lat="48.82833" lon="2.24495">
        <ele>95.2</ele>
        <time>2015-05-11T18:59:05.633Z</time>
      </trkpt>
      <trkpt lat="48.8283" lon="2.24488">
        <ele>95</ele>
        <time>2015-05-11T18:59:06.664Z</time>
      </trkpt>
      <trkpt lat="48.82827" lon="2.24481">
        <ele>95.1</ele>
        <time>2015-05-11T18:59:07.556Z</time>
      </trkpt>
      <trkpt lat="48.82826" lon="2.24474">
        <ele>94.9</ele>
        <time>2015-05-11T18:59:08.572Z</time>
      </trkpt>
      <trkpt lat="48.82825" lon="2.24466">
        <ele>94.3</ele>
        <time>2015-05-11T18:59:09.665Z</time>
      </trkpt>
      <trkpt lat="48.82822" lon="2.2446">
        <ele>93.9</ele>
        <time>2015-05-11T18:59:10.561Z</time>
      </trkpt>
      <trkpt lat="48.8282" lon="2.24454">
        <ele>93.8</ele>
        <time>2015-05-11T18:59:12.135Z</time>
      </trkpt>
      <trkpt lat="48.82816" lon="2.24449">
        <ele>93.8</ele>
        <time>2015-05-11T18:59:12.588Z</time>
      </trkpt>
      <trkpt lat="48.82812" lon="2.24443">
        <ele>93.7</ele>
        <time>2015-05-11T18:59:13.614Z</time>
      </trkpt>
      <trkpt lat="48.82809" lon="2.24436">
        <ele>93.6</ele>
        <time>2015-05-11T18:59:14.549Z</time>
      </trkpt>
      <trkpt lat="48.82805" lon="2.24428">
        <ele>93.4</ele>
        <time>2015-05-11T18:59:15.549Z</time>
      </trkpt>
      <trkpt lat="48.82801" lon="2.24419">
        <ele>93</ele>
        <time>2015-05-11T18:59:16.555Z</time>
      </trkpt>
      <trkpt lat="48.82798" lon="2.24411">
        <ele>92.8</ele>
        <time>2015-05-11T18:59:17.663Z</time>
      </trkpt>
      <trkpt lat="48.82795" lon="2.24402">
        <ele>92.7</ele>
        <time>2015-05-11T18:59:18.681Z</time>
      </trkpt>
      <trkpt lat="48.82792" lon="2.24394">
        <ele>92.9</ele>
        <time>2015-05-11T18:59:19.526Z</time>
      </trkpt>
      <trkpt lat="48.82788" lon="2.24386">
        <ele>92.7</ele>
        <time>2015-05-11T18:59:20.557Z</time>
      </trkpt>
      <trkpt lat="48.82784" lon="2.24377">
        <ele>92.6</ele>
        <time>2015-05-11T18:59:21.576Z</time>
      </trkpt>
      <trkpt lat="48.8278" lon="2.24369">
        <ele>92.1</ele>
        <time>2015-05-11T18:59:22.593Z</time>
      </trkpt>
      <trkpt lat="48.82777" lon="2.24362">
        <ele>91.7</ele>
        <time>2015-05-11T18:59:23.605Z</time>
      </trkpt>
      <trkpt lat="48.82774" lon="2.24353">
        <ele>91.3</ele>
        <time>2015-05-11T18:59:24.650Z</time>
      </trkpt>
      <trkpt lat="48.8277" lon="2.24346">
        <ele>91.1</ele>
        <time>2015-05-11T18:59:25.552Z</time>
      </trkpt>
      <trkpt lat="48.82767" lon="2.24339">
        <ele>90.7</ele>
        <time>2015-05-11T18:59:26.594Z</time>
      </trkpt>
      <trkpt lat="48.82763" lon="2.24326">
        <ele>90.2</ele>
        <time>2015-05-11T18:59:28.615Z</time>
      </trkpt>
      <trkpt lat="48.82761" lon="2.2432">
        <ele>90.1</ele>
        <time>2015-05-11T18:59:29.569Z</time>
      </trkpt>
      <trkpt lat="48.82758" lon="2.24314">
        <ele>89.6</ele>
        <time>2015-05-11T18:59:30.568Z</time>
      </trkpt>
      <trkpt lat="48.82756" lon="2.24308">
        <ele>88.9</ele>
        <time>2015-05-11T18:59:31.604Z</time>
      </trkpt>
      <trkpt lat="48.82752" lon="2.24296">
        <ele>87</ele>
        <time>2015-05-11T18:59:33.534Z</time>
      </trkpt>
      <trkpt lat="48.8275" lon="2.24289">
        <ele>85.8</ele>
        <time>2015-05-11T18:59:34.557Z</time>
      </trkpt>
      <trkpt lat="48.82748" lon="2.24279">
        <ele>84.6</ele>
        <time>2015-05-11T18:59:35.609Z</time>
      </trkpt>
      <trkpt lat="48.82745" lon="2.24271">
        <ele>83.7</ele>
        <time>2015-05-11T18:59:36.627Z</time>
      </trkpt>
      <trkpt lat="48.82742" lon="2.2426">
        <ele>82.7</ele>
        <time>2015-05-11T18:59:38.566Z</time>
      </trkpt>
      <trkpt lat="48.8274" lon="2.24254">
        <ele>82.3</ele>
        <time>2015-05-11T18:59:39.612Z</time>
      </trkpt>
      <trkpt lat="48.82738" lon="2.24245">
        <ele>81.7</ele>
        <time>2015-05-11T18:59:40.591Z</time>
      </trkpt>
      <trkpt lat="48.82738" lon="2.24238">
        <ele>81</ele>
        <time>2015-05-11T18:59:41.578Z</time>
      </trkpt>
      <trkpt lat="48.82738" lon="2.24226">
        <ele>80.4</ele>
        <time>2015-05-11T18:59:43.632Z</time>
      </trkpt>
      <trkpt lat="48.8274" lon="2.24221">
        <ele>80</ele>
        <time>2015-05-11T18:59:44.552Z</time>
      </trkpt>
      <trkpt lat="48.82741" lon="2.24209">
        <ele>79.5</ele>
        <time>2015-05-11T18:59:46.602Z</time>
      </trkpt>
      <trkpt lat="48.82742" lon="2.24204">
        <ele>79.7</ele>
        <time>2015-05-11T18:59:47.621Z</time>
      </trkpt>
      <trkpt lat="48.82745" lon="2.24193">
        <ele>80.4</ele>
        <time>2015-05-11T18:59:49.585Z</time>
      </trkpt>
      <trkpt lat="48.82747" lon="2.24186">
        <ele>80.7</ele>
        <time>2015-05-11T18:59:50.662Z</time>
      </trkpt>
      <trkpt lat="48.82751" lon="2.24179">
        <ele>80.8</ele>
        <time>2015-05-11T18:59:51.525Z</time>
      </trkpt>
      <trkpt lat="48.82755" lon="2.24175">
        <ele>81.1</ele>
        <time>2015-05-11T18:59:52.553Z</time>
      </trkpt>
      <trkpt lat="48.82759" lon="2.24173">
        <ele>81.2</ele>
        <time>2015-05-11T18:59:53.580Z</time>
      </trkpt>
      <trkpt lat="48.82766" lon="2.24172">
        <ele>81.2</ele>
        <time>2015-05-11T18:59:54.608Z</time>
      </trkpt>
      <trkpt lat="48.82773" lon="2.2417">
        <ele>81.2</ele>
        <time>2015-05-11T18:59:55.694Z</time>
      </trkpt>
      <trkpt lat="48.82779" lon="2.24167">
        <ele>81.2</ele>
        <time>2015-05-11T18:59:56.545Z</time>
      </trkpt>
      <trkpt lat="48.82785" lon="2.24165">
        <ele>81.4</ele>
        <time>2015-05-11T18:59:57.555Z</time>
      </trkpt>
      <trkpt lat="48.82791" lon="2.24162">
        <ele>81.6</ele>
        <time>2015-05-11T18:59:58.565Z</time>
      </trkpt>
      <trkpt lat="48.82797" lon="2.2416">
        <ele>82</ele>
        <time>2015-05-11T18:59:59.581Z</time>
      </trkpt>
      <trkpt lat="48.82802" lon="2.24158">
        <ele>82.3</ele>
        <time>2015-05-11T19:00:00.604Z</time>
      </trkpt>
      <trkpt lat="48.82807" lon="2.24155">
        <ele>82.4</ele>
        <time>2015-05-11T19:00:01.610Z</time>
      </trkpt>
      <trkpt lat="48.82814" lon="2.24154">
        <ele>82.1</ele>
        <time>2015-05-11T19:00:02.619Z</time>
      </trkpt>
      <trkpt lat="48.82819" lon="2.24147">
        <ele>82.6</ele>
        <time>2015-05-11T19:00:03.629Z</time>
      </trkpt>
      <trkpt lat="48.82823" lon="2.24141">
        <ele>82.8</ele>
        <time>2015-05-11T19:00:04.638Z</time>
      </trkpt>
      <trkpt lat="48.82826" lon="2.24137">
        <ele>82.6</ele>
        <time>2015-05-11T19:00:05.641Z</time>
      </trkpt>
      <trkpt lat="48.82831" lon="2.24135">
        <ele>82.6</ele>
        <time>2015-05-11T19:00:06.658Z</time>
      </trkpt>
      <trkpt lat="48.82836" lon="2.24132">
        <ele>82.6</ele>
        <time>2015-05-11T19:00:07.563Z</time>
      </trkpt>
      <trkpt lat="48.82838" lon="2.24127">
        <ele>82.9</ele>
        <time>2015-05-11T19:00:08.566Z</time>
      </trkpt>
      <trkpt lat="48.82842" lon="2.24121">
        <ele>83</ele>
        <time>2015-05-11T19:00:09.564Z</time>
      </trkpt>
      <trkpt lat="48.82845" lon="2.24115">
        <ele>83</ele>
        <time>2015-05-11T19:00:10.575Z</time>
      </trkpt>
      <trkpt lat="48.82848" lon="2.24109">
        <ele>82.9</ele>
        <time>2015-05-11T19:00:11.582Z</time>
      </trkpt>
      <trkpt lat="48.82851" lon="2.24103">
        <ele>82.9</ele>
        <time>2015-05-11T19:00:12.603Z</time>
      </trkpt>
      <trkpt lat="48.82855" lon="2.24099">
        <ele>82.8</ele>
        <time>2015-05-11T19:00:13.609Z</time>
      </trkpt>
      <trkpt lat="48.8286" lon="2.24094">
        <ele>82.8</ele>
        <time>2015-05-11T19:00:14.629Z</time>
      </trkpt>
      <trkpt lat="48.82865" lon="2.2409">
        <ele>83</ele>
        <time>2015-05-11T19:00:15.643Z</time>
      </trkpt>
      <trkpt lat="48.82869" lon="2.24087">
        <ele>83</ele>
        <time>2015-05-11T19:00:16.561Z</time>
      </trkpt>
      <trkpt lat="48.82872" lon="2.24076">
        <ele>82.2</ele>
        <time>2015-05-11T19:00:18.604Z</time>
      </trkpt>
      <trkpt lat="48.82872" lon="2.24066">
        <ele>80.8</ele>
        <time>2015-05-11T19:00:19.610Z</time>
      </trkpt>
      <trkpt lat="48.82873" lon="2.24059">
        <ele>79.6</ele>
        <time>2015-05-11T19:00:20.641Z</time>
      </trkpt>
      <trkpt lat="48.82877" lon="2.24055">
        <ele>79.4</ele>
        <time>2015-05-11T19:00:21.562Z</time>
      </trkpt>
      <trkpt lat="48.82883" lon="2.24049">
        <ele>80.1</ele>
        <time>2015-05-11T19:00:23.569Z</time>
      </trkpt>
      <trkpt lat="48.82886" lon="2.24044">
        <ele>80</ele>
        <time>2015-05-11T19:00:24.597Z</time>
      </trkpt>
      <trkpt lat="48.82889" lon="2.2404">
        <ele>79.6</ele>
        <time>2015-05-11T19:00:25.612Z</time>
      </trkpt>
      <trkpt lat="48.82893" lon="2.24036">
        <ele>79.4</ele>
        <time>2015-05-11T19:00:26.622Z</time>
      </trkpt>
      <trkpt lat="48.82898" lon="2.24033">
        <ele>79.4</ele>
        <time>2015-05-11T19:00:27.540Z</time>
      </trkpt>
      <trkpt lat="48.82901" lon="2.24029">
        <ele>80.2</ele>
        <time>2015-05-11T19:00:28.568Z</time>
      </trkpt>
      <trkpt lat="48.82905" lon="2.24026">
        <ele>81.4</ele>
        <time>2015-05-11T19:00:29.603Z</time>
      </trkpt>
      <trkpt lat="48.82912" lon="2.24024">
        <ele>82.7</ele>
        <time>2015-05-11T19:00:30.610Z</time>
      </trkpt>
      <trkpt lat="48.82919" lon="2.24022">
        <ele>83.6</ele>
        <time>2015-05-11T19:00:31.651Z</time>
      </trkpt>
      <trkpt lat="48.82927" lon="2.2402">
        <ele>84.4</ele>
        <time>2015-05-11T19:00:32.637Z</time>
      </trkpt>
      <trkpt lat="48.82933" lon="2.2402">
        <ele>85</ele>
        <time>2015-05-11T19:00:33.562Z</time>
      </trkpt>
      <trkpt lat="48.82939" lon="2.24019">
        <ele>85.3</ele>
        <time>2015-05-11T19:00:34.570Z</time>
      </trkpt>
      <trkpt lat="48.82945" lon="2.24019">
        <ele>85.4</ele>
        <time>2015-05-11T19:00:35.599Z</time>
      </trkpt>
      <trkpt lat="48.82949" lon="2.24015">
        <ele>84.7</ele>
        <time>2015-05-11T19:00:36.611Z</time>
      </trkpt>
      <trkpt lat="48.82953" lon="2.24007">
        <ele>83.7</ele>
        <time>2015-05-11T19:00:37.655Z</time>
      </trkpt>
      <trkpt lat="48.8296" lon="2.24005">
        <ele>83.9</ele>
        <time>2015-05-11T19:00:38.659Z</time>
      </trkpt>
      <trkpt lat="48.82966" lon="2.24002">
        <ele>84.5</ele>
        <time>2015-05-11T19:00:39.553Z</time>
      </trkpt>
      <trkpt lat="48.82972" lon="2.23999">
        <ele>85</ele>
        <time>2015-05-11T19:00:40.598Z</time>
      </trkpt>
      <trkpt lat="48.82978" lon="2.23997">
        <ele>85.6</ele>
        <time>2015-05-11T19:00:41.570Z</time>
      </trkpt>
      <trkpt lat="48.82984" lon="2.23995">
        <ele>85.6</ele>
        <time>2015-05-11T19:00:42.574Z</time>
      </trkpt>
      <trkpt lat="48.82992" lon="2.23989">
        <ele>86.7</ele>
        <time>2015-05-11T19:00:44.599Z</time>
      </trkpt>
      <trkpt lat="48.82996" lon="2.23987">
        <ele>87</ele>
        <time>2015-05-11T19:00:45.532Z</time>
      </trkpt>
      <trkpt lat="48.83004" lon="2.23981">
        <ele>87.4</ele>
        <time>2015-05-11T19:00:47.568Z</time>
      </trkpt>
      <trkpt lat="48.83009" lon="2.23977">
        <ele>87.7</ele>
        <time>2015-05-11T19:00:48.592Z</time>
      </trkpt>
      <trkpt lat="48.83013" lon="2.23972">
        <ele>87.4</ele>
        <time>2015-05-11T19:00:49.554Z</time>
      </trkpt>
      <trkpt lat="48.83015" lon="2.23964">
        <ele>86.1</ele>
        <time>2015-05-11T19:00:50.561Z</time>
      </trkpt>
      <trkpt lat="48.83017" lon="2.23958">
        <ele>85.4</ele>
        <time>2015-05-11T19:00:51.576Z</time>
      </trkpt>
      <trkpt lat="48.83017" lon="2.2395">
        <ele>85.3</ele>
        <time>2015-05-11T19:00:52.592Z</time>
      </trkpt>
      <trkpt lat="48.83018" lon="2.23939">
        <ele>85.9</ele>
        <time>2015-05-11T19:00:54.652Z</time>
      </trkpt>
      <trkpt lat="48.83017" lon="2.23934">
        <ele>86.2</ele>
        <time>2015-05-11T19:00:55.567Z</time>
      </trkpt>
      <trkpt lat="48.83017" lon="2.23922">
        <ele>85.5</ele>
        <time>2015-05-11T19:00:57.562Z</time>
      </trkpt>
      <trkpt lat="48.83016" lon="2.23915">
        <ele>86</ele>
        <time>2015-05-11T19:00:58.591Z</time>
      </trkpt>
      <trkpt lat="48.83016" lon="2.23904">
        <ele>86.3</ele>
        <time>2015-05-11T19:01:00.658Z</time>
      </trkpt>
      <trkpt lat="48.83018" lon="2.23899">
        <ele>86.4</ele>
        <time>2015-05-11T19:01:01.664Z</time>
      </trkpt>
      <trkpt lat="48.83023" lon="2.23888">
        <ele>86.9</ele>
        <time>2015-05-11T19:01:04.592Z</time>
      </trkpt>
      <trkpt lat="48.83023" lon="2.23885">
        <ele>86.7</ele>
        <time>2015-05-11T19:01:05.585Z</time>
      </trkpt>
      <trkpt lat="48.83021" lon="2.23875">
        <ele>87</ele>
        <time>2015-05-11T19:01:08.590Z</time>
      </trkpt>
      <trkpt lat="48.83019" lon="2.2387">
        <ele>86.9</ele>
        <time>2015-05-11T19:01:09.610Z</time>
      </trkpt>
      <trkpt lat="48.83016" lon="2.23861">
        <ele>86.7</ele>
        <time>2015-05-11T19:01:11.558Z</time>
      </trkpt>
      <trkpt lat="48.83015" lon="2.23857">
        <ele>86</ele>
        <time>2015-05-11T19:01:12.621Z</time>
      </trkpt>
      <trkpt lat="48.83011" lon="2.23848">
        <ele>85.4</ele>
        <time>2015-05-11T19:01:14.625Z</time>
      </trkpt>
      <trkpt lat="48.83009" lon="2.23843">
        <ele>85.7</ele>
        <time>2015-05-11T19:01:15.629Z</time>
      </trkpt>
      <trkpt lat="48.83004" lon="2.23832">
        <ele>86</ele>
        <time>2015-05-11T19:01:17.587Z</time>
      </trkpt>
      <trkpt lat="48.83002" lon="2.23828">
        <ele>85.6</ele>
        <time>2015-05-11T19:01:18.621Z</time>
      </trkpt>
      <trkpt lat="48.82998" lon="2.23819">
        <ele>85.6</ele>
        <time>2015-05-11T19:01:20.577Z</time>
      </trkpt>
      <trkpt lat="48.82996" lon="2.23814">
        <ele>85.4</ele>
        <time>2015-05-11T19:01:21.568Z</time>
      </trkpt>
      <trkpt lat="48.82992" lon="2.23804">
        <ele>85.3</ele>
        <time>2015-05-11T19:01:23.606Z</time>
      </trkpt>
      <trkpt lat="48.82991" lon="2.238">
        <ele>85.3</ele>
        <time>2015-05-11T19:01:24.621Z</time>
      </trkpt>
      <trkpt lat="48.82988" lon="2.2379">
        <ele>84.8</ele>
        <time>2015-05-11T19:01:26.728Z</time>
      </trkpt>
      <trkpt lat="48.82987" lon="2.23785">
        <ele>84.4</ele>
        <time>2015-05-11T19:01:27.566Z</time>
      </trkpt>
      <trkpt lat="48.82984" lon="2.23776">
        <ele>84.8</ele>
        <time>2015-05-11T19:01:29.585Z</time>
      </trkpt>
      <trkpt lat="48.82982" lon="2.23771">
        <ele>85.6</ele>
        <time>2015-05-11T19:01:30.613Z</time>
      </trkpt>
      <trkpt lat="48.8298" lon="2.23765">
        <ele>85.8</ele>
        <time>2015-05-11T19:01:31.629Z</time>
      </trkpt>
      <trkpt lat="48.82977" lon="2.23758">
        <ele>86.4</ele>
        <time>2015-05-11T19:01:32.639Z</time>
      </trkpt>
      <trkpt lat="48.82974" lon="2.23751">
        <ele>87</ele>
        <time>2015-05-11T19:01:33.564Z</time>
      </trkpt>
      <trkpt lat="48.8297" lon="2.23745">
        <ele>87.7</ele>
        <time>2015-05-11T19:01:34.561Z</time>
      </trkpt>
      <trkpt lat="48.82967" lon="2.23739">
        <ele>88.5</ele>
        <time>2015-05-11T19:01:35.584Z</time>
      </trkpt>
      <trkpt lat="48.82965" lon="2.23733">
        <ele>89</ele>
        <time>2015-05-11T19:01:36.639Z</time>
      </trkpt>
      <trkpt lat="48.8296" lon="2.23723">
        <ele>89.2</ele>
        <time>2015-05-11T19:01:38.654Z</time>
      </trkpt>
      <trkpt lat="48.82959" lon="2.23718">
        <ele>89.4</ele>
        <time>2015-05-11T19:01:39.610Z</time>
      </trkpt>
      <trkpt lat="48.82956" lon="2.23707">
        <ele>90.2</ele>
        <time>2015-05-11T19:01:41.581Z</time>
      </trkpt>
      <trkpt lat="48.82958" lon="2.23701">
        <ele>91.4</ele>
        <time>2015-05-11T19:01:42.609Z</time>
      </trkpt>
      <trkpt lat="48.82956" lon="2.23689">
        <ele>93.3</ele>
        <time>2015-05-11T19:01:44.574Z</time>
      </trkpt>
      <trkpt lat="48.82953" lon="2.23679">
        <ele>95</ele>
        <time>2015-05-11T19:01:45.584Z</time>
      </trkpt>
      <trkpt lat="48.82949" lon="2.23668">
        <ele>97</ele>
        <time>2015-05-11T19:01:46.599Z</time>
      </trkpt>
      <trkpt lat="48.8294" lon="2.23661">
        <ele>97.7</ele>
        <time>2015-05-11T19:01:47.611Z</time>
      </trkpt>
      <trkpt lat="48.82937" lon="2.23653">
        <ele>97.9</ele>
        <time>2015-05-11T19:01:48.665Z</time>
      </trkpt>
      <trkpt lat="48.82933" lon="2.23648">
        <ele>97.8</ele>
        <time>2015-05-11T19:01:49.566Z</time>
      </trkpt>
      <trkpt lat="48.82928" lon="2.23637">
        <ele>98.4</ele>
        <time>2015-05-11T19:01:53.163Z</time>
      </trkpt>
      <trkpt lat="48.82929" lon="2.23634">
        <ele>98.7</ele>
        <time>2015-05-11T19:01:53.641Z</time>
      </trkpt>
      <trkpt lat="48.82931" lon="2.23628">
        <ele>98.5</ele>
        <time>2015-05-11T19:01:54.674Z</time>
      </trkpt>
      <trkpt lat="48.82933" lon="2.23621">
        <ele>98.7</ele>
        <time>2015-05-11T19:01:55.590Z</time>
      </trkpt>
      <trkpt lat="48.82935" lon="2.23614">
        <ele>98.8</ele>
        <time>2015-05-11T19:01:56.577Z</time>
      </trkpt>
      <trkpt lat="48.82937" lon="2.23608">
        <ele>98.9</ele>
        <time>2015-05-11T19:01:57.569Z</time>
      </trkpt>
      <trkpt lat="48.82941" lon="2.23601">
        <ele>99.2</ele>
        <time>2015-05-11T19:01:58.583Z</time>
      </trkpt>
      <trkpt lat="48.82946" lon="2.23596">
        <ele>99.1</ele>
        <time>2015-05-11T19:01:59.598Z</time>
      </trkpt>
      <trkpt lat="48.8295" lon="2.2359">
        <ele>99.2</ele>
        <time>2015-05-11T19:02:00.602Z</time>
      </trkpt>
      <trkpt lat="48.82953" lon="2.23585">
        <ele>99.6</ele>
        <time>2015-05-11T19:02:01.621Z</time>
      </trkpt>
      <trkpt lat="48.82958" lon="2.23579">
        <ele>100.2</ele>
        <time>2015-05-11T19:02:02.629Z</time>
      </trkpt>
      <trkpt lat="48.8296" lon="2.23574">
        <ele>100.7</ele>
        <time>2015-05-11T19:02:03.632Z</time>
      </trkpt>
      <trkpt lat="48.82964" lon="2.23569">
        <ele>101.1</ele>
        <time>2015-05-11T19:02:04.564Z</time>
      </trkpt>
      <trkpt lat="48.82968" lon="2.23565">
        <ele>101</ele>
        <time>2015-05-11T19:02:05.535Z</time>
      </trkpt>
      <trkpt lat="48.82972" lon="2.23557">
        <ele>100.9</ele>
        <time>2015-05-11T19:02:07.653Z</time>
      </trkpt>
      <trkpt lat="48.82973" lon="2.23553">
        <ele>100.8</ele>
        <time>2015-05-11T19:02:08.584Z</time>
      </trkpt>
      <trkpt lat="48.82975" lon="2.23541">
        <ele>100.1</ele>
        <time>2015-05-11T19:02:11.647Z</time>
      </trkpt>
      <trkpt lat="48.82976" lon="2.23537">
        <ele>99.6</ele>
        <time>2015-05-11T19:02:12.681Z</time>
      </trkpt>
      <trkpt lat="48.82981" lon="2.2353">
        <ele>99.2</ele>
        <time>2015-05-11T19:02:14.588Z</time>
      </trkpt>
      <trkpt lat="48.82985" lon="2.23528">
        <ele>99.1</ele>
        <time>2015-05-11T19:02:15.638Z</time>
      </trkpt>
      <trkpt lat="48.82987" lon="2.23526">
        <ele>99.2</ele>
        <time>2015-05-11T19:02:16.564Z</time>
      </trkpt>
      <trkpt lat="48.82991" lon="2.23517">
        <ele>99</ele>
        <time>2015-05-11T19:02:19.613Z</time>
      </trkpt>
      <trkpt lat="48.82997" lon="2.23512">
        <ele>99.2</ele>
        <time>2015-05-11T19:02:21.567Z</time>
      </trkpt>
      <trkpt lat="48.83" lon="2.23509">
        <ele>99.4</ele>
        <time>2015-05-11T19:02:22.647Z</time>
      </trkpt>
      <trkpt lat="48.83008" lon="2.23505">
        <ele>99.1</ele>
        <time>2015-05-11T19:02:24.614Z</time>
      </trkpt>
      <trkpt lat="48.83012" lon="2.23503">
        <ele>99.2</ele>
        <time>2015-05-11T19:02:25.615Z</time>
      </trkpt>
      <trkpt lat="48.83018" lon="2.23498">
        <ele>99.2</ele>
        <time>2015-05-11T19:02:27.580Z</time>
      </trkpt>
      <trkpt lat="48.8302" lon="2.23495">
        <ele>99.2</ele>
        <time>2015-05-11T19:02:28.623Z</time>
      </trkpt>
      <trkpt lat="48.83028" lon="2.23491">
        <ele>99.2</ele>
        <time>2015-05-11T19:02:30.591Z</time>
      </trkpt>
      <trkpt lat="48.83032" lon="2.23489">
        <ele>99.6</ele>
        <time>2015-05-11T19:02:31.590Z</time>
      </trkpt>
      <trkpt lat="48.83038" lon="2.23483">
        <ele>98.9</ele>
        <time>2015-05-11T19:02:33.566Z</time>
      </trkpt>
      <trkpt lat="48.83041" lon="2.23481">
        <ele>98.8</ele>
        <time>2015-05-11T19:02:34.581Z</time>
      </trkpt>
      <trkpt lat="48.83048" lon="2.23476">
        <ele>99.2</ele>
        <time>2015-05-11T19:02:36.614Z</time>
      </trkpt>
      <trkpt lat="48.83054" lon="2.23474">
        <ele>99.1</ele>
        <time>2015-05-11T19:02:37.589Z</time>
      </trkpt>
      <trkpt lat="48.83058" lon="2.2347">
        <ele>99.3</ele>
        <time>2015-05-11T19:02:38.576Z</time>
      </trkpt>
      <trkpt lat="48.83062" lon="2.23466">
        <ele>99.2</ele>
        <time>2015-05-11T19:02:39.588Z</time>
      </trkpt>
      <trkpt lat="48.83067" lon="2.23462">
        <ele>99.5</ele>
        <time>2015-05-11T19:02:40.597Z</time>
      </trkpt>
      <trkpt lat="48.8307" lon="2.23458">
        <ele>99.6</ele>
        <time>2015-05-11T19:02:41.545Z</time>
      </trkpt>
      <trkpt lat="48.83075" lon="2.2345">
        <ele>99.6</ele>
        <time>2015-05-11T19:02:43.545Z</time>
      </trkpt>
      <trkpt lat="48.83077" lon="2.23446">
        <ele>99.5</ele>
        <time>2015-05-11T19:02:44.659Z</time>
      </trkpt>
      <trkpt lat="48.83079" lon="2.23435">
        <ele>98.6</ele>
        <time>2015-05-11T19:02:46.605Z</time>
      </trkpt>
      <trkpt lat="48.8308" lon="2.2343">
        <ele>98</ele>
        <time>2015-05-11T19:02:47.610Z</time>
      </trkpt>
      <trkpt lat="48.83079" lon="2.23418">
        <ele>96.5</ele>
        <time>2015-05-11T19:02:50.564Z</time>
      </trkpt>
      <trkpt lat="48.83078" lon="2.23413">
        <ele>95.8</ele>
        <time>2015-05-11T19:02:51.569Z</time>
      </trkpt>
      <trkpt lat="48.83076" lon="2.234">
        <ele>94.9</ele>
        <time>2015-05-11T19:02:54.638Z</time>
      </trkpt>
      <trkpt lat="48.83077" lon="2.23396">
        <ele>95</ele>
        <time>2015-05-11T19:02:55.687Z</time>
      </trkpt>
      <trkpt lat="48.83076" lon="2.23385">
        <ele>95</ele>
        <time>2015-05-11T19:02:58.562Z</time>
      </trkpt>
      <trkpt lat="48.83075" lon="2.2338">
        <ele>95.2</ele>
        <time>2015-05-11T19:02:59.572Z</time>
      </trkpt>
      <trkpt lat="48.83071" lon="2.23369">
        <ele>95</ele>
        <time>2015-05-11T19:03:01.601Z</time>
      </trkpt>
      <trkpt lat="48.83069" lon="2.23362">
        <ele>94.6</ele>
        <time>2015-05-11T19:03:02.648Z</time>
      </trkpt>
      <trkpt lat="48.83069" lon="2.23349">
        <ele>94.1</ele>
        <time>2015-05-11T19:03:04.530Z</time>
      </trkpt>
      <trkpt lat="48.83067" lon="2.23343">
        <ele>94.2</ele>
        <time>2015-05-11T19:03:05.721Z</time>
      </trkpt>
      <trkpt lat="48.83067" lon="2.23336">
        <ele>93.6</ele>
        <time>2015-05-11T19:03:06.560Z</time>
      </trkpt>
      <trkpt lat="48.83067" lon="2.23328">
        <ele>93.3</ele>
        <time>2015-05-11T19:03:07.571Z</time>
      </trkpt>
      <trkpt lat="48.83068" lon="2.23322">
        <ele>93.2</ele>
        <time>2015-05-11T19:03:08.597Z</time>
      </trkpt>
      <trkpt lat="48.83065" lon="2.23314">
        <ele>93.4</ele>
        <time>2015-05-11T19:03:09.607Z</time>
      </trkpt>
      <trkpt lat="48.83062" lon="2.23307">
        <ele>93.8</ele>
        <time>2015-05-11T19:03:10.557Z</time>
      </trkpt>
      <trkpt lat="48.8306" lon="2.23302">
        <ele>93.8</ele>
        <time>2015-05-11T19:03:11.582Z</time>
      </trkpt>
      <trkpt lat="48.83055" lon="2.23296">
        <ele>93.8</ele>
        <time>2015-05-11T19:03:12.592Z</time>
      </trkpt>
      <trkpt lat="48.83051" lon="2.23289">
        <ele>93.9</ele>
        <time>2015-05-11T19:03:13.511Z</time>
      </trkpt>
      <trkpt lat="48.83048" lon="2.23281">
        <ele>93.8</ele>
        <time>2015-05-11T19:03:14.528Z</time>
      </trkpt>
      <trkpt lat="48.83047" lon="2.23271">
        <ele>92.8</ele>
        <time>2015-05-11T19:03:15.556Z</time>
      </trkpt>
      <trkpt lat="48.83043" lon="2.23261">
        <ele>92</ele>
        <time>2015-05-11T19:03:16.606Z</time>
      </trkpt>
      <trkpt lat="48.83043" lon="2.23255">
        <ele>91.7</ele>
        <time>2015-05-11T19:03:17.521Z</time>
      </trkpt>
      <trkpt lat="48.83043" lon="2.23248">
        <ele>92.1</ele>
        <time>2015-05-11T19:03:18.579Z</time>
      </trkpt>
      <trkpt lat="48.8304" lon="2.2324">
        <ele>92.8</ele>
        <time>2015-05-11T19:03:19.590Z</time>
      </trkpt>
      <trkpt lat="48.83036" lon="2.23232">
        <ele>93.5</ele>
        <time>2015-05-11T19:03:20.625Z</time>
      </trkpt>
      <trkpt lat="48.83034" lon="2.23225">
        <ele>94</ele>
        <time>2015-05-11T19:03:21.635Z</time>
      </trkpt>
      <trkpt lat="48.8303" lon="2.23219">
        <ele>94.4</ele>
        <time>2015-05-11T19:03:22.555Z</time>
      </trkpt>
      <trkpt lat="48.83026" lon="2.23213">
        <ele>94.7</ele>
        <time>2015-05-11T19:03:23.572Z</time>
      </trkpt>
      <trkpt lat="48.83022" lon="2.23205">
        <ele>94.9</ele>
        <time>2015-05-11T19:03:24.601Z</time>
      </trkpt>
      <trkpt lat="48.83021" lon="2.23194">
        <ele>94.3</ele>
        <time>2015-05-11T19:03:25.590Z</time>
      </trkpt>
      <trkpt lat="48.83017" lon="2.23181">
        <ele>93.5</ele>
        <time>2015-05-11T19:03:26.596Z</time>
      </trkpt>
      <trkpt lat="48.8301" lon="2.23168">
        <ele>92.9</ele>
        <time>2015-05-11T19:03:27.609Z</time>
      </trkpt>
      <trkpt lat="48.83" lon="2.23157">
        <ele>91.9</ele>
        <time>2015-05-11T19:03:28.650Z</time>
      </trkpt>
      <trkpt lat="48.82997" lon="2.23146">
        <ele>91.8</ele>
        <time>2015-05-11T19:03:29.564Z</time>
      </trkpt>
      <trkpt lat="48.82994" lon="2.23136">
        <ele>92</ele>
        <time>2015-05-11T19:03:30.609Z</time>
      </trkpt>
      <trkpt lat="48.82991" lon="2.23127">
        <ele>91.4</ele>
        <time>2015-05-11T19:03:31.612Z</time>
      </trkpt>
      <trkpt lat="48.82989" lon="2.23119">
        <ele>90.6</ele>
        <time>2015-05-11T19:03:32.628Z</time>
      </trkpt>
      <trkpt lat="48.82988" lon="2.23111">
        <ele>90.1</ele>
        <time>2015-05-11T19:03:33.638Z</time>
      </trkpt>
      <trkpt lat="48.82988" lon="2.23103">
        <ele>89.7</ele>
        <time>2015-05-11T19:03:34.642Z</time>
      </trkpt>
      <trkpt lat="48.82988" lon="2.23095">
        <ele>89.5</ele>
        <time>2015-05-11T19:03:35.535Z</time>
      </trkpt>
      <trkpt lat="48.82989" lon="2.23086">
        <ele>89.2</ele>
        <time>2015-05-11T19:03:36.609Z</time>
      </trkpt>
      <trkpt lat="48.82989" lon="2.23078">
        <ele>89.3</ele>
        <time>2015-05-11T19:03:37.611Z</time>
      </trkpt>
      <trkpt lat="48.82988" lon="2.23069">
        <ele>88.8</ele>
        <time>2015-05-11T19:03:38.627Z</time>
      </trkpt>
      <trkpt lat="48.82987" lon="2.2306">
        <ele>88.8</ele>
        <time>2015-05-11T19:03:39.635Z</time>
      </trkpt>
      <trkpt lat="48.82987" lon="2.23051">
        <ele>88.8</ele>
        <time>2015-05-11T19:03:40.643Z</time>
      </trkpt>
      <trkpt lat="48.82986" lon="2.23042">
        <ele>88.5</ele>
        <time>2015-05-11T19:03:41.550Z</time>
      </trkpt>
      <trkpt lat="48.82985" lon="2.23034">
        <ele>88.3</ele>
        <time>2015-05-11T19:03:42.596Z</time>
      </trkpt>
      <trkpt lat="48.82984" lon="2.23026">
        <ele>87.9</ele>
        <time>2015-05-11T19:03:43.605Z</time>
      </trkpt>
      <trkpt lat="48.82983" lon="2.23018">
        <ele>87.7</ele>
        <time>2015-05-11T19:03:44.628Z</time>
      </trkpt>
      <trkpt lat="48.82981" lon="2.2301">
        <ele>87.3</ele>
        <time>2015-05-11T19:03:45.634Z</time>
      </trkpt>
      <trkpt lat="48.82979" lon="2.23003">
        <ele>86.9</ele>
        <time>2015-05-11T19:03:46.563Z</time>
      </trkpt>
      <trkpt lat="48.82977" lon="2.22995">
        <ele>86.5</ele>
        <time>2015-05-11T19:03:47.557Z</time>
      </trkpt>
      <trkpt lat="48.82975" lon="2.22988">
        <ele>86.1</ele>
        <time>2015-05-11T19:03:48.597Z</time>
      </trkpt>
      <trkpt lat="48.82972" lon="2.22981">
        <ele>85.4</ele>
        <time>2015-05-11T19:03:49.607Z</time>
      </trkpt>
      <trkpt lat="48.8297" lon="2.22974">
        <ele>85.1</ele>
        <time>2015-05-11T19:03:50.615Z</time>
      </trkpt>
      <trkpt lat="48.82967" lon="2.22967">
        <ele>85.2</ele>
        <time>2015-05-11T19:03:51.631Z</time>
      </trkpt>
      <trkpt lat="48.82965" lon="2.2296">
        <ele>85.4</ele>
        <time>2015-05-11T19:03:52.635Z</time>
      </trkpt>
      <trkpt lat="48.82963" lon="2.22954">
        <ele>85.2</ele>
        <time>2015-05-11T19:03:53.646Z</time>
      </trkpt>
      <trkpt lat="48.82961" lon="2.22947">
        <ele>85.1</ele>
        <time>2015-05-11T19:03:54.659Z</time>
      </trkpt>
      <trkpt lat="48.82959" lon="2.2294">
        <ele>84.7</ele>
        <time>2015-05-11T19:03:55.563Z</time>
      </trkpt>
      <trkpt lat="48.82957" lon="2.22933">
        <ele>84.4</ele>
        <time>2015-05-11T19:03:56.573Z</time>
      </trkpt>
      <trkpt lat="48.82955" lon="2.22927">
        <ele>84.6</ele>
        <time>2015-05-11T19:03:57.575Z</time>
      </trkpt>
      <trkpt lat="48.82953" lon="2.22922">
        <ele>84.7</ele>
        <time>2015-05-11T19:03:58.579Z</time>
      </trkpt>
      <trkpt lat="48.8295" lon="2.22916">
        <ele>84.5</ele>
        <time>2015-05-11T19:03:59.584Z</time>
      </trkpt>
      <trkpt lat="48.82946" lon="2.22911">
        <ele>84.8</ele>
        <time>2015-05-11T19:04:00.620Z</time>
      </trkpt>
      <trkpt lat="48.82941" lon="2.22902">
        <ele>84.8</ele>
        <time>2015-05-11T19:04:02.553Z</time>
      </trkpt>
      <trkpt lat="48.82938" lon="2.22898">
        <ele>85.1</ele>
        <time>2015-05-11T19:04:03.591Z</time>
      </trkpt>
      <trkpt lat="48.82933" lon="2.22892">
        <ele>85.2</ele>
        <time>2015-05-11T19:04:05.586Z</time>
      </trkpt>
      <trkpt lat="48.82929" lon="2.22888">
        <ele>86.6</ele>
        <time>2015-05-11T19:04:06.608Z</time>
      </trkpt>
      <trkpt lat="48.82922" lon="2.2288">
        <ele>87.7</ele>
        <time>2015-05-11T19:04:10.633Z</time>
      </trkpt>
      <trkpt lat="48.8292" lon="2.22877">
        <ele>87.9</ele>
        <time>2015-05-11T19:04:11.683Z</time>
      </trkpt>
      <trkpt lat="48.82916" lon="2.2287">
        <ele>88.2</ele>
        <time>2015-05-11T19:04:13.597Z</time>
      </trkpt>
      <trkpt lat="48.82913" lon="2.22866">
        <ele>88.5</ele>
        <time>2015-05-11T19:04:14.585Z</time>
      </trkpt>
      <trkpt lat="48.82911" lon="2.22855">
        <ele>88.2</ele>
        <time>2015-05-11T19:04:17.632Z</time>
      </trkpt>
      <trkpt lat="48.82912" lon="2.22851">
        <ele>87.9</ele>
        <time>2015-05-11T19:04:18.683Z</time>
      </trkpt>
      <trkpt lat="48.82908" lon="2.2284">
        <ele>87</ele>
        <time>2015-05-11T19:04:21.602Z</time>
      </trkpt>
      <trkpt lat="48.82907" lon="2.22838">
        <ele>86.5</ele>
        <time>2015-05-11T19:04:22.602Z</time>
      </trkpt>
      <trkpt lat="48.82901" lon="2.22828">
        <ele>86.4</ele>
        <time>2015-05-11T19:04:25.568Z</time>
      </trkpt>
      <trkpt lat="48.82899" lon="2.22824">
        <ele>86.6</ele>
        <time>2015-05-11T19:04:26.594Z</time>
      </trkpt>
      <trkpt lat="48.82896" lon="2.22816">
        <ele>86.4</ele>
        <time>2015-05-11T19:04:28.612Z</time>
      </trkpt>
      <trkpt lat="48.82895" lon="2.22811">
        <ele>86.2</ele>
        <time>2015-05-11T19:04:29.662Z</time>
      </trkpt>
      <trkpt lat="48.82892" lon="2.22802">
        <ele>85.6</ele>
        <time>2015-05-11T19:04:32.309Z</time>
      </trkpt>
      <trkpt lat="48.82891" lon="2.22797">
        <ele>85.3</ele>
        <time>2015-05-11T19:04:32.624Z</time>
      </trkpt>
      <trkpt lat="48.82889" lon="2.22787">
        <ele>84.8</ele>
        <time>2015-05-11T19:04:34.633Z</time>
      </trkpt>
      <trkpt lat="48.82887" lon="2.22782">
        <ele>84.9</ele>
        <time>2015-05-11T19:04:35.636Z</time>
      </trkpt>
      <trkpt lat="48.82884" lon="2.22775">
        <ele>86</ele>
        <time>2015-05-11T19:04:37.346Z</time>
      </trkpt>
      <trkpt lat="48.82882" lon="2.22769">
        <ele>87.2</ele>
        <time>2015-05-11T19:04:37.560Z</time>
      </trkpt>
      <trkpt lat="48.82879" lon="2.22761">
        <ele>88.3</ele>
        <time>2015-05-11T19:04:38.573Z</time>
      </trkpt>
      <trkpt lat="48.82878" lon="2.22756">
        <ele>88.4</ele>
        <time>2015-05-11T19:04:39.577Z</time>
      </trkpt>
      <trkpt lat="48.82875" lon="2.22746">
        <ele>88</ele>
        <time>2015-05-11T19:04:42.463Z</time>
      </trkpt>
      <trkpt lat="48.82874" lon="2.22742">
        <ele>87.6</ele>
        <time>2015-05-11T19:04:42.609Z</time>
      </trkpt>
      <trkpt lat="48.82871" lon="2.22732">
        <ele>87.7</ele>
        <time>2015-05-11T19:04:44.582Z</time>
      </trkpt>
      <trkpt lat="48.82869" lon="2.22727">
        <ele>87.8</ele>
        <time>2015-05-11T19:04:45.612Z</time>
      </trkpt>
      <trkpt lat="48.82867" lon="2.22718">
        <ele>87.2</ele>
        <time>2015-05-11T19:04:47.634Z</time>
      </trkpt>
      <trkpt lat="48.82866" lon="2.22713">
        <ele>87</ele>
        <time>2015-05-11T19:04:48.678Z</time>
      </trkpt>
      <trkpt lat="48.82864" lon="2.22702">
        <ele>86.4</ele>
        <time>2015-05-11T19:04:50.585Z</time>
      </trkpt>
      <trkpt lat="48.82862" lon="2.22696">
        <ele>86.5</ele>
        <time>2015-05-11T19:04:51.590Z</time>
      </trkpt>
      <trkpt lat="48.82858" lon="2.22685">
        <ele>86.4</ele>
        <time>2015-05-11T19:04:53.684Z</time>
      </trkpt>
      <trkpt lat="48.82856" lon="2.2268">
        <ele>86.3</ele>
        <time>2015-05-11T19:04:54.671Z</time>
      </trkpt>
      <trkpt lat="48.82852" lon="2.22671">
        <ele>85.2</ele>
        <time>2015-05-11T19:04:56.568Z</time>
      </trkpt>
      <trkpt lat="48.82849" lon="2.22665">
        <ele>84.9</ele>
        <time>2015-05-11T19:04:57.640Z</time>
      </trkpt>
      <trkpt lat="48.82846" lon="2.22652">
        <ele>85</ele>
        <time>2015-05-11T19:04:59.570Z</time>
      </trkpt>
      <trkpt lat="48.82845" lon="2.22646">
        <ele>85</ele>
        <time>2015-05-11T19:05:00.608Z</time>
      </trkpt>
      <trkpt lat="48.82842" lon="2.22634">
        <ele>84.4</ele>
        <time>2015-05-11T19:05:02.879Z</time>
      </trkpt>
      <trkpt lat="48.8284" lon="2.22628">
        <ele>84.3</ele>
        <time>2015-05-11T19:05:03.657Z</time>
      </trkpt>
      <trkpt lat="48.82836" lon="2.22616">
        <ele>83.8</ele>
        <time>2015-05-11T19:05:05.601Z</time>
      </trkpt>
      <trkpt lat="48.82834" lon="2.22609">
        <ele>83.8</ele>
        <time>2015-05-11T19:05:06.618Z</time>
      </trkpt>
      <trkpt lat="48.82832" lon="2.22603">
        <ele>83.7</ele>
        <time>2015-05-11T19:05:07.555Z</time>
      </trkpt>
      <trkpt lat="48.8283" lon="2.22597">
        <ele>83.7</ele>
        <time>2015-05-11T19:05:08.564Z</time>
      </trkpt>
      <trkpt lat="48.82826" lon="2.22585">
        <ele>83.8</ele>
        <time>2015-05-11T19:05:10.580Z</time>
      </trkpt>
      <trkpt lat="48.82824" lon="2.22579">
        <ele>83.7</ele>
        <time>2015-05-11T19:05:11.629Z</time>
      </trkpt>
      <trkpt lat="48.8282" lon="2.22567">
        <ele>83.7</ele>
        <time>2015-05-11T19:05:13.565Z</time>
      </trkpt>
      <trkpt lat="48.82818" lon="2.22561">
        <ele>83.7</ele>
        <time>2015-05-11T19:05:14.615Z</time>
      </trkpt>
      <trkpt lat="48.82816" lon="2.22555">
        <ele>83.7</ele>
        <time>2015-05-11T19:05:15.596Z</time>
      </trkpt>
      <trkpt lat="48.82814" lon="2.22548">
        <ele>83.9</ele>
        <time>2015-05-11T19:05:16.607Z</time>
      </trkpt>
      <trkpt lat="48.82811" lon="2.22536">
        <ele>83.4</ele>
        <time>2015-05-11T19:05:18.644Z</time>
      </trkpt>
      <trkpt lat="48.82809" lon="2.2253">
        <ele>83.4</ele>
        <time>2015-05-11T19:05:19.702Z</time>
      </trkpt>
      <trkpt lat="48.82806" lon="2.22519">
        <ele>83.2</ele>
        <time>2015-05-11T19:05:21.623Z</time>
      </trkpt>
      <trkpt lat="48.82804" lon="2.22513">
        <ele>83</ele>
        <time>2015-05-11T19:05:22.678Z</time>
      </trkpt>
      <trkpt lat="48.82801" lon="2.22502">
        <ele>83.2</ele>
        <time>2015-05-11T19:05:24.630Z</time>
      </trkpt>
      <trkpt lat="48.82801" lon="2.22497">
        <ele>83.1</ele>
        <time>2015-05-11T19:05:25.634Z</time>
      </trkpt>
      <trkpt lat="48.828" lon="2.22486">
        <ele>83.2</ele>
        <time>2015-05-11T19:05:27.790Z</time>
      </trkpt>
      <trkpt lat="48.82799" lon="2.22481">
        <ele>83.4</ele>
        <time>2015-05-11T19:05:28.577Z</time>
      </trkpt>
      <trkpt lat="48.82798" lon="2.22473">
        <ele>83.7</ele>
        <time>2015-05-11T19:05:31.573Z</time>
      </trkpt>
      <trkpt lat="48.82797" lon="2.22473">
        <ele>83.7</ele>
        <time>2015-05-11T19:05:32.686Z</time>
      </trkpt>
      <trkpt lat="48.82798" lon="2.22473">
        <ele>83.8</ele>
        <time>2015-05-11T19:08:10.603Z</time>
      </trkpt>
      <trkpt lat="48.82794" lon="2.22476">
        <ele>81.8</ele>
        <time>2015-05-11T19:08:11.647Z</time>
      </trkpt>
      <trkpt lat="48.82787" lon="2.22469">
        <ele>82.4</ele>
        <time>2015-05-11T19:08:14.640Z</time>
      </trkpt>
      <trkpt lat="48.82784" lon="2.22466">
        <ele>82.4</ele>
        <time>2015-05-11T19:08:15.652Z</time>
      </trkpt>
      <trkpt lat="48.8278" lon="2.22459">
        <ele>82.2</ele>
        <time>2015-05-11T19:08:17.571Z</time>
      </trkpt>
      <trkpt lat="48.82778" lon="2.22454">
        <ele>82.1</ele>
        <time>2015-05-11T19:08:18.629Z</time>
      </trkpt>
      <trkpt lat="48.82773" lon="2.22444">
        <ele>81.8</ele>
        <time>2015-05-11T19:08:20.550Z</time>
      </trkpt>
      <trkpt lat="48.8277" lon="2.22439">
        <ele>81.7</ele>
        <time>2015-05-11T19:08:21.565Z</time>
      </trkpt>
      <trkpt lat="48.82767" lon="2.22433">
        <ele>81.7</ele>
        <time>2015-05-11T19:08:22.597Z</time>
      </trkpt>
      <trkpt lat="48.82764" lon="2.22427">
        <ele>81.9</ele>
        <time>2015-05-11T19:08:23.608Z</time>
      </trkpt>
      <trkpt lat="48.82762" lon="2.22421">
        <ele>82.2</ele>
        <time>2015-05-11T19:08:24.669Z</time>
      </trkpt>
      <trkpt lat="48.8276" lon="2.22414">
        <ele>81.9</ele>
        <time>2015-05-11T19:08:25.537Z</time>
      </trkpt>
      <trkpt lat="48.82758" lon="2.22406">
        <ele>81.8</ele>
        <time>2015-05-11T19:08:26.583Z</time>
      </trkpt>
      <trkpt lat="48.82756" lon="2.22399">
        <ele>81.5</ele>
        <time>2015-05-11T19:08:27.620Z</time>
      </trkpt>
      <trkpt lat="48.82754" lon="2.22391">
        <ele>81.3</ele>
        <time>2015-05-11T19:08:28.569Z</time>
      </trkpt>
      <trkpt lat="48.82751" lon="2.22382">
        <ele>81.3</ele>
        <time>2015-05-11T19:08:29.553Z</time>
      </trkpt>
      <trkpt lat="48.82748" lon="2.22372">
        <ele>81.1</ele>
        <time>2015-05-11T19:08:30.615Z</time>
      </trkpt>
      <trkpt lat="48.82747" lon="2.22361">
        <ele>81.3</ele>
        <time>2015-05-11T19:08:31.645Z</time>
      </trkpt>
      <trkpt lat="48.82744" lon="2.2235">
        <ele>81.5</ele>
        <time>2015-05-11T19:08:32.658Z</time>
      </trkpt>
      <trkpt lat="48.82742" lon="2.22339">
        <ele>82</ele>
        <time>2015-05-11T19:08:33.593Z</time>
      </trkpt>
      <trkpt lat="48.82741" lon="2.22328">
        <ele>82.3</ele>
        <time>2015-05-11T19:08:34.620Z</time>
      </trkpt>
      <trkpt lat="48.8274" lon="2.22317">
        <ele>82.3</ele>
        <time>2015-05-11T19:08:35.629Z</time>
      </trkpt>
      <trkpt lat="48.82739" lon="2.22305">
        <ele>82.4</ele>
        <time>2015-05-11T19:08:36.591Z</time>
      </trkpt>
      <trkpt lat="48.82736" lon="2.22294">
        <ele>82.4</ele>
        <time>2015-05-11T19:08:37.605Z</time>
      </trkpt>
      <trkpt lat="48.82734" lon="2.22284">
        <ele>82.3</ele>
        <time>2015-05-11T19:08:38.663Z</time>
      </trkpt>
      <trkpt lat="48.82732" lon="2.22273">
        <ele>82</ele>
        <time>2015-05-11T19:08:39.606Z</time>
      </trkpt>
      <trkpt lat="48.8273" lon="2.22263">
        <ele>82.2</ele>
        <time>2015-05-11T19:08:40.601Z</time>
      </trkpt>
      <trkpt lat="48.82726" lon="2.22253">
        <ele>81.9</ele>
        <time>2015-05-11T19:08:41.655Z</time>
      </trkpt>
      <trkpt lat="48.82724" lon="2.22243">
        <ele>81.6</ele>
        <time>2015-05-11T19:08:42.663Z</time>
      </trkpt>
      <trkpt lat="48.82721" lon="2.22233">
        <ele>81.6</ele>
        <time>2015-05-11T19:08:43.614Z</time>
      </trkpt>
      <trkpt lat="48.82721" lon="2.22223">
        <ele>81.3</ele>
        <time>2015-05-11T19:08:44.565Z</time>
      </trkpt>
      <trkpt lat="48.82719" lon="2.22213">
        <ele>81.1</ele>
        <time>2015-05-11T19:08:45.560Z</time>
      </trkpt>
      <trkpt lat="48.82717" lon="2.22203">
        <ele>80.9</ele>
        <time>2015-05-11T19:08:46.599Z</time>
      </trkpt>
      <trkpt lat="48.82714" lon="2.22194">
        <ele>80.5</ele>
        <time>2015-05-11T19:08:47.628Z</time>
      </trkpt>
      <trkpt lat="48.82713" lon="2.22186">
        <ele>80.5</ele>
        <time>2015-05-11T19:08:48.682Z</time>
      </trkpt>
      <trkpt lat="48.82711" lon="2.22177">
        <ele>80.3</ele>
        <time>2015-05-11T19:08:49.564Z</time>
      </trkpt>
      <trkpt lat="48.82708" lon="2.22169">
        <ele>80.4</ele>
        <time>2015-05-11T19:08:50.559Z</time>
      </trkpt>
      <trkpt lat="48.82706" lon="2.2216">
        <ele>80.3</ele>
        <time>2015-05-11T19:08:51.568Z</time>
      </trkpt>
      <trkpt lat="48.82703" lon="2.22151">
        <ele>80</ele>
        <time>2015-05-11T19:08:52.593Z</time>
      </trkpt>
      <trkpt lat="48.827" lon="2.22142">
        <ele>79.5</ele>
        <time>2015-05-11T19:08:53.598Z</time>
      </trkpt>
      <trkpt lat="48.82697" lon="2.22134">
        <ele>79.1</ele>
        <time>2015-05-11T19:08:54.604Z</time>
      </trkpt>
      <trkpt lat="48.82694" lon="2.22125">
        <ele>78.8</ele>
        <time>2015-05-11T19:08:55.605Z</time>
      </trkpt>
      <trkpt lat="48.82693" lon="2.22117">
        <ele>78.7</ele>
        <time>2015-05-11T19:08:56.608Z</time>
      </trkpt>
      <trkpt lat="48.82694" lon="2.2211">
        <ele>78.8</ele>
        <time>2015-05-11T19:08:57.630Z</time>
      </trkpt>
      <trkpt lat="48.82693" lon="2.22102">
        <ele>78.8</ele>
        <time>2015-05-11T19:08:58.543Z</time>
      </trkpt>
      <trkpt lat="48.82693" lon="2.22095">
        <ele>78.8</ele>
        <time>2015-05-11T19:08:59.560Z</time>
      </trkpt>
      <trkpt lat="48.82689" lon="2.22087">
        <ele>78.7</ele>
        <time>2015-05-11T19:09:00.598Z</time>
      </trkpt>
      <trkpt lat="48.82686" lon="2.22079">
        <ele>78.7</ele>
        <time>2015-05-11T19:09:01.612Z</time>
      </trkpt>
      <trkpt lat="48.82683" lon="2.22071">
        <ele>78.8</ele>
        <time>2015-05-11T19:09:02.528Z</time>
      </trkpt>
      <trkpt lat="48.82682" lon="2.22063">
        <ele>78.5</ele>
        <time>2015-05-11T19:09:03.553Z</time>
      </trkpt>
      <trkpt lat="48.82681" lon="2.22055">
        <ele>78.5</ele>
        <time>2015-05-11T19:09:04.568Z</time>
      </trkpt>
      <trkpt lat="48.82678" lon="2.22047">
        <ele>78.5</ele>
        <time>2015-05-11T19:09:05.616Z</time>
      </trkpt>
      <trkpt lat="48.82677" lon="2.22039">
        <ele>78.5</ele>
        <time>2015-05-11T19:09:06.622Z</time>
      </trkpt>
      <trkpt lat="48.82675" lon="2.22032">
        <ele>78.4</ele>
        <time>2015-05-11T19:09:07.522Z</time>
      </trkpt>
      <trkpt lat="48.82675" lon="2.22025">
        <ele>78.5</ele>
        <time>2015-05-11T19:09:08.582Z</time>
      </trkpt>
      <trkpt lat="48.82673" lon="2.22019">
        <ele>78.2</ele>
        <time>2015-05-11T19:09:09.613Z</time>
      </trkpt>
      <trkpt lat="48.8267" lon="2.22006">
        <ele>78.2</ele>
        <time>2015-05-11T19:09:11.587Z</time>
      </trkpt>
      <trkpt lat="48.82668" lon="2.22">
        <ele>77.8</ele>
        <time>2015-05-11T19:09:12.612Z</time>
      </trkpt>
      <trkpt lat="48.82665" lon="2.21988">
        <ele>77.9</ele>
        <time>2015-05-11T19:09:14.605Z</time>
      </trkpt>
      <trkpt lat="48.82665" lon="2.21982">
        <ele>77.9</ele>
        <time>2015-05-11T19:09:15.617Z</time>
      </trkpt>
      <trkpt lat="48.82662" lon="2.21972">
        <ele>77.7</ele>
        <time>2015-05-11T19:09:17.544Z</time>
      </trkpt>
      <trkpt lat="48.82659" lon="2.21966">
        <ele>77.6</ele>
        <time>2015-05-11T19:09:18.597Z</time>
      </trkpt>
      <trkpt lat="48.82656" lon="2.21955">
        <ele>77.6</ele>
        <time>2015-05-11T19:09:20.564Z</time>
      </trkpt>
      <trkpt lat="48.82656" lon="2.2195">
        <ele>77.4</ele>
        <time>2015-05-11T19:09:21.617Z</time>
      </trkpt>
      <trkpt lat="48.82654" lon="2.21938">
        <ele>77.7</ele>
        <time>2015-05-11T19:09:23.660Z</time>
      </trkpt>
      <trkpt lat="48.82654" lon="2.21932">
        <ele>77.8</ele>
        <time>2015-05-11T19:09:24.680Z</time>
      </trkpt>
      <trkpt lat="48.82654" lon="2.21922">
        <ele>78.2</ele>
        <time>2015-05-11T19:09:26.616Z</time>
      </trkpt>
      <trkpt lat="48.82656" lon="2.21918">
        <ele>79.3</ele>
        <time>2015-05-11T19:09:27.587Z</time>
      </trkpt>
      <trkpt lat="48.82655" lon="2.21906">
        <ele>80.2</ele>
        <time>2015-05-11T19:09:30.640Z</time>
      </trkpt>
      <trkpt lat="48.82652" lon="2.21901">
        <ele>81.3</ele>
        <time>2015-05-11T19:09:31.569Z</time>
      </trkpt>
      <trkpt lat="48.82646" lon="2.21891">
        <ele>82.1</ele>
        <time>2015-05-11T19:09:33.586Z</time>
      </trkpt>
      <trkpt lat="48.82645" lon="2.21886">
        <ele>82.4</ele>
        <time>2015-05-11T19:09:34.626Z</time>
      </trkpt>
      <trkpt lat="48.82642" lon="2.21881">
        <ele>82.9</ele>
        <time>2015-05-11T19:09:35.558Z</time>
      </trkpt>
      <trkpt lat="48.82638" lon="2.21877">
        <ele>83.4</ele>
        <time>2015-05-11T19:09:36.632Z</time>
      </trkpt>
      <trkpt lat="48.82632" lon="2.21868">
        <ele>84.4</ele>
        <time>2015-05-11T19:09:38.564Z</time>
      </trkpt>
      <trkpt lat="48.82628" lon="2.21864">
        <ele>85.3</ele>
        <time>2015-05-11T19:09:39.542Z</time>
      </trkpt>
      <trkpt lat="48.82623" lon="2.21856">
        <ele>86.1</ele>
        <time>2015-05-11T19:09:41.564Z</time>
      </trkpt>
      <trkpt lat="48.82621" lon="2.21851">
        <ele>86.6</ele>
        <time>2015-05-11T19:09:42.604Z</time>
      </trkpt>
      <trkpt lat="48.82617" lon="2.21841">
        <ele>87.7</ele>
        <time>2015-05-11T19:09:44.612Z</time>
      </trkpt>
      <trkpt lat="48.82614" lon="2.21837">
        <ele>88</ele>
        <time>2015-05-11T19:09:45.608Z</time>
      </trkpt>
      <trkpt lat="48.8261" lon="2.21831">
        <ele>88.3</ele>
        <time>2015-05-11T19:09:47.583Z</time>
      </trkpt>
      <trkpt lat="48.82609" lon="2.21826">
        <ele>88.5</ele>
        <time>2015-05-11T19:09:48.662Z</time>
      </trkpt>
      <trkpt lat="48.82605" lon="2.21814">
        <ele>88.8</ele>
        <time>2015-05-11T19:09:50.575Z</time>
      </trkpt>
      <trkpt lat="48.82604" lon="2.21807">
        <ele>88.5</ele>
        <time>2015-05-11T19:09:51.774Z</time>
      </trkpt>
      <trkpt lat="48.82604" lon="2.21799">
        <ele>88.3</ele>
        <time>2015-05-11T19:09:52.552Z</time>
      </trkpt>
      <trkpt lat="48.82603" lon="2.21793">
        <ele>88.1</ele>
        <time>2015-05-11T19:09:53.561Z</time>
      </trkpt>
      <trkpt lat="48.82601" lon="2.21781">
        <ele>88.4</ele>
        <time>2015-05-11T19:09:55.616Z</time>
      </trkpt>
      <trkpt lat="48.82599" lon="2.21775">
        <ele>88.6</ele>
        <time>2015-05-11T19:09:56.573Z</time>
      </trkpt>
      <trkpt lat="48.82596" lon="2.21763">
        <ele>88.7</ele>
        <time>2015-05-11T19:09:59.366Z</time>
      </trkpt>
      <trkpt lat="48.82594" lon="2.21757">
        <ele>88.7</ele>
        <time>2015-05-11T19:09:59.538Z</time>
      </trkpt>
      <trkpt lat="48.8259" lon="2.21746">
        <ele>88.8</ele>
        <time>2015-05-11T19:10:01.608Z</time>
      </trkpt>
      <trkpt lat="48.82589" lon="2.21741">
        <ele>88.9</ele>
        <time>2015-05-11T19:10:02.616Z</time>
      </trkpt>
      <trkpt lat="48.82586" lon="2.21735">
        <ele>88.9</ele>
        <time>2015-05-11T19:10:03.572Z</time>
      </trkpt>
      <trkpt lat="48.82585" lon="2.21728">
        <ele>89.3</ele>
        <time>2015-05-11T19:10:04.888Z</time>
      </trkpt>
      <trkpt lat="48.82582" lon="2.21716">
        <ele>89.3</ele>
        <time>2015-05-11T19:10:06.671Z</time>
      </trkpt>
      <trkpt lat="48.82581" lon="2.21711">
        <ele>89.3</ele>
        <time>2015-05-11T19:10:07.735Z</time>
      </trkpt>
      <trkpt lat="48.82579" lon="2.21704">
        <ele>89.4</ele>
        <time>2015-05-11T19:10:08.575Z</time>
      </trkpt>
      <trkpt lat="48.82577" lon="2.21697">
        <ele>88.9</ele>
        <time>2015-05-11T19:10:09.565Z</time>
      </trkpt>
      <trkpt lat="48.82575" lon="2.21691">
        <ele>89</ele>
        <time>2015-05-11T19:10:10.599Z</time>
      </trkpt>
      <trkpt lat="48.82573" lon="2.21684">
        <ele>89.3</ele>
        <time>2015-05-11T19:10:11.605Z</time>
      </trkpt>
      <trkpt lat="48.82571" lon="2.21677">
        <ele>89.1</ele>
        <time>2015-05-11T19:10:12.618Z</time>
      </trkpt>
      <trkpt lat="48.82569" lon="2.2167">
        <ele>89.1</ele>
        <time>2015-05-11T19:10:13.630Z</time>
      </trkpt>
      <trkpt lat="48.82566" lon="2.21663">
        <ele>88.8</ele>
        <time>2015-05-11T19:10:14.676Z</time>
      </trkpt>
      <trkpt lat="48.82564" lon="2.21655">
        <ele>88.4</ele>
        <time>2015-05-11T19:10:15.556Z</time>
      </trkpt>
      <trkpt lat="48.82562" lon="2.21648">
        <ele>88</ele>
        <time>2015-05-11T19:10:16.558Z</time>
      </trkpt>
      <trkpt lat="48.8256" lon="2.21642">
        <ele>88</ele>
        <time>2015-05-11T19:10:17.572Z</time>
      </trkpt>
      <trkpt lat="48.82557" lon="2.21635">
        <ele>87.7</ele>
        <time>2015-05-11T19:10:18.578Z</time>
      </trkpt>
      <trkpt lat="48.82555" lon="2.21627">
        <ele>87.6</ele>
        <time>2015-05-11T19:10:19.592Z</time>
      </trkpt>
      <trkpt lat="48.82553" lon="2.2162">
        <ele>87.8</ele>
        <time>2015-05-11T19:10:20.600Z</time>
      </trkpt>
      <trkpt lat="48.82551" lon="2.21612">
        <ele>87.8</ele>
        <time>2015-05-11T19:10:21.658Z</time>
      </trkpt>
      <trkpt lat="48.82549" lon="2.21605">
        <ele>87.7</ele>
        <time>2015-05-11T19:10:22.510Z</time>
      </trkpt>
      <trkpt lat="48.82548" lon="2.21597">
        <ele>87.5</ele>
        <time>2015-05-11T19:10:23.554Z</time>
      </trkpt>
      <trkpt lat="48.82547" lon="2.2159">
        <ele>87.4</ele>
        <time>2015-05-11T19:10:24.550Z</time>
      </trkpt>
      <trkpt lat="48.82546" lon="2.21583">
        <ele>87.5</ele>
        <time>2015-05-11T19:10:25.566Z</time>
      </trkpt>
      <trkpt lat="48.82544" lon="2.21575">
        <ele>87.5</ele>
        <time>2015-05-11T19:10:26.610Z</time>
      </trkpt>
      <trkpt lat="48.82541" lon="2.21569">
        <ele>87.7</ele>
        <time>2015-05-11T19:10:27.529Z</time>
      </trkpt>
      <trkpt lat="48.82538" lon="2.21563">
        <ele>88</ele>
        <time>2015-05-11T19:10:28.538Z</time>
      </trkpt>
      <trkpt lat="48.82535" lon="2.21556">
        <ele>88.4</ele>
        <time>2015-05-11T19:10:29.551Z</time>
      </trkpt>
      <trkpt lat="48.82533" lon="2.21549">
        <ele>88.5</ele>
        <time>2015-05-11T19:10:30.559Z</time>
      </trkpt>
      <trkpt lat="48.8253" lon="2.21542">
        <ele>88.4</ele>
        <time>2015-05-11T19:10:31.573Z</time>
      </trkpt>
      <trkpt lat="48.82527" lon="2.21534">
        <ele>88.2</ele>
        <time>2015-05-11T19:10:32.582Z</time>
      </trkpt>
      <trkpt lat="48.82525" lon="2.21527">
        <ele>88</ele>
        <time>2015-05-11T19:10:33.588Z</time>
      </trkpt>
      <trkpt lat="48.82523" lon="2.21519">
        <ele>88</ele>
        <time>2015-05-11T19:10:34.638Z</time>
      </trkpt>
      <trkpt lat="48.8252" lon="2.21512">
        <ele>88.1</ele>
        <time>2015-05-11T19:10:35.565Z</time>
      </trkpt>
      <trkpt lat="48.82518" lon="2.21503">
        <ele>88.3</ele>
        <time>2015-05-11T19:10:36.582Z</time>
      </trkpt>
      <trkpt lat="48.82516" lon="2.21495">
        <ele>88.6</ele>
        <time>2015-05-11T19:10:37.593Z</time>
      </trkpt>
      <trkpt lat="48.82512" lon="2.21487">
        <ele>89.1</ele>
        <time>2015-05-11T19:10:38.611Z</time>
      </trkpt>
      <trkpt lat="48.8251" lon="2.21479">
        <ele>88.7</ele>
        <time>2015-05-11T19:10:39.625Z</time>
      </trkpt>
      <trkpt lat="48.82507" lon="2.21472">
        <ele>88.5</ele>
        <time>2015-05-11T19:10:40.547Z</time>
      </trkpt>
      <trkpt lat="48.82506" lon="2.21464">
        <ele>88.7</ele>
        <time>2015-05-11T19:10:41.562Z</time>
      </trkpt>
      <trkpt lat="48.82503" lon="2.21456">
        <ele>88.7</ele>
        <time>2015-05-11T19:10:42.567Z</time>
      </trkpt>
      <trkpt lat="48.82501" lon="2.21449">
        <ele>88.7</ele>
        <time>2015-05-11T19:10:43.574Z</time>
      </trkpt>
      <trkpt lat="48.82499" lon="2.21442">
        <ele>89.1</ele>
        <time>2015-05-11T19:10:44.582Z</time>
      </trkpt>
      <trkpt lat="48.82497" lon="2.21434">
        <ele>89.4</ele>
        <time>2015-05-11T19:10:45.612Z</time>
      </trkpt>
      <trkpt lat="48.82495" lon="2.21426">
        <ele>89.8</ele>
        <time>2015-05-11T19:10:46.612Z</time>
      </trkpt>
      <trkpt lat="48.82492" lon="2.21417">
        <ele>89.9</ele>
        <time>2015-05-11T19:10:47.631Z</time>
      </trkpt>
      <trkpt lat="48.8249" lon="2.21409">
        <ele>89.9</ele>
        <time>2015-05-11T19:10:48.626Z</time>
      </trkpt>
      <trkpt lat="48.82487" lon="2.21401">
        <ele>90.2</ele>
        <time>2015-05-11T19:10:49.542Z</time>
      </trkpt>
      <trkpt lat="48.82484" lon="2.21393">
        <ele>90.2</ele>
        <time>2015-05-11T19:10:50.557Z</time>
      </trkpt>
      <trkpt lat="48.82481" lon="2.21385">
        <ele>90.3</ele>
        <time>2015-05-11T19:10:51.570Z</time>
      </trkpt>
      <trkpt lat="48.82479" lon="2.21377">
        <ele>90.5</ele>
        <time>2015-05-11T19:10:52.537Z</time>
      </trkpt>
      <trkpt lat="48.82478" lon="2.21369">
        <ele>90</ele>
        <time>2015-05-11T19:10:53.568Z</time>
      </trkpt>
      <trkpt lat="48.82477" lon="2.21361">
        <ele>90</ele>
        <time>2015-05-11T19:10:54.597Z</time>
      </trkpt>
      <trkpt lat="48.82473" lon="2.21352">
        <ele>90.3</ele>
        <time>2015-05-11T19:10:55.604Z</time>
      </trkpt>
      <trkpt lat="48.82471" lon="2.21344">
        <ele>90.1</ele>
        <time>2015-05-11T19:10:56.626Z</time>
      </trkpt>
      <trkpt lat="48.82468" lon="2.21336">
        <ele>90.1</ele>
        <time>2015-05-11T19:10:57.543Z</time>
      </trkpt>
      <trkpt lat="48.82466" lon="2.21329">
        <ele>90.1</ele>
        <time>2015-05-11T19:10:58.535Z</time>
      </trkpt>
      <trkpt lat="48.82464" lon="2.21322">
        <ele>90.2</ele>
        <time>2015-05-11T19:10:59.544Z</time>
      </trkpt>
      <trkpt lat="48.8246" lon="2.2131">
        <ele>90</ele>
        <time>2015-05-11T19:11:01.563Z</time>
      </trkpt>
      <trkpt lat="48.82458" lon="2.21303">
        <ele>89.8</ele>
        <time>2015-05-11T19:11:02.559Z</time>
      </trkpt>
      <trkpt lat="48.82454" lon="2.21292">
        <ele>90.5</ele>
        <time>2015-05-11T19:11:04.603Z</time>
      </trkpt>
      <trkpt lat="48.82451" lon="2.21285">
        <ele>90.8</ele>
        <time>2015-05-11T19:11:05.560Z</time>
      </trkpt>
      <trkpt lat="48.82448" lon="2.21275">
        <ele>91.5</ele>
        <time>2015-05-11T19:11:07.537Z</time>
      </trkpt>
      <trkpt lat="48.82446" lon="2.2127">
        <ele>91.7</ele>
        <time>2015-05-11T19:11:08.557Z</time>
      </trkpt>
      <trkpt lat="48.82442" lon="2.21259">
        <ele>92.4</ele>
        <time>2015-05-11T19:11:10.577Z</time>
      </trkpt>
      <trkpt lat="48.8244" lon="2.21254">
        <ele>93</ele>
        <time>2015-05-11T19:11:11.629Z</time>
      </trkpt>
      <trkpt lat="48.82436" lon="2.21246">
        <ele>94.3</ele>
        <time>2015-05-11T19:11:13.549Z</time>
      </trkpt>
      <trkpt lat="48.82435" lon="2.21241">
        <ele>94.3</ele>
        <time>2015-05-11T19:11:14.561Z</time>
      </trkpt>
      <trkpt lat="48.82433" lon="2.21231">
        <ele>93.9</ele>
        <time>2015-05-11T19:11:16.572Z</time>
      </trkpt>
      <trkpt lat="48.82431" lon="2.21226">
        <ele>93.8</ele>
        <time>2015-05-11T19:11:17.580Z</time>
      </trkpt>
      <trkpt lat="48.82425" lon="2.21216">
        <ele>94.3</ele>
        <time>2015-05-11T19:11:19.624Z</time>
      </trkpt>
      <trkpt lat="48.82422" lon="2.21211">
        <ele>94.5</ele>
        <time>2015-05-11T19:11:20.547Z</time>
      </trkpt>
      <trkpt lat="48.82419" lon="2.21206">
        <ele>94.3</ele>
        <time>2015-05-11T19:11:21.541Z</time>
      </trkpt>
      <trkpt lat="48.82416" lon="2.212">
        <ele>94.4</ele>
        <time>2015-05-11T19:11:22.552Z</time>
      </trkpt>
      <trkpt lat="48.82413" lon="2.21194">
        <ele>94.7</ele>
        <time>2015-05-11T19:11:23.572Z</time>
      </trkpt>
      <trkpt lat="48.82412" lon="2.21187">
        <ele>94.7</ele>
        <time>2015-05-11T19:11:24.672Z</time>
      </trkpt>
      <trkpt lat="48.8241" lon="2.21178">
        <ele>94.6</ele>
        <time>2015-05-11T19:11:25.552Z</time>
      </trkpt>
      <trkpt lat="48.82407" lon="2.2117">
        <ele>94.7</ele>
        <time>2015-05-11T19:11:26.580Z</time>
      </trkpt>
      <trkpt lat="48.82405" lon="2.21163">
        <ele>95</ele>
        <time>2015-05-11T19:11:27.596Z</time>
      </trkpt>
      <trkpt lat="48.82402" lon="2.21155">
        <ele>95.1</ele>
        <time>2015-05-11T19:11:28.615Z</time>
      </trkpt>
      <trkpt lat="48.82399" lon="2.21147">
        <ele>95.4</ele>
        <time>2015-05-11T19:11:29.557Z</time>
      </trkpt>
      <trkpt lat="48.82397" lon="2.21139">
        <ele>95.5</ele>
        <time>2015-05-11T19:11:30.572Z</time>
      </trkpt>
      <trkpt lat="48.82394" lon="2.21131">
        <ele>95.4</ele>
        <time>2015-05-11T19:11:31.566Z</time>
      </trkpt>
      <trkpt lat="48.8239" lon="2.21124">
        <ele>95.6</ele>
        <time>2015-05-11T19:11:32.579Z</time>
      </trkpt>
      <trkpt lat="48.82385" lon="2.21119">
        <ele>96</ele>
        <time>2015-05-11T19:11:33.607Z</time>
      </trkpt>
      <trkpt lat="48.82379" lon="2.21113">
        <ele>96.2</ele>
        <time>2015-05-11T19:11:34.608Z</time>
      </trkpt>
      <trkpt lat="48.82374" lon="2.21109">
        <ele>96.2</ele>
        <time>2015-05-11T19:11:35.537Z</time>
      </trkpt>
      <trkpt lat="48.82371" lon="2.21103">
        <ele>96.1</ele>
        <time>2015-05-11T19:11:36.654Z</time>
      </trkpt>
      <trkpt lat="48.82369" lon="2.2109">
        <ele>96.2</ele>
        <time>2015-05-11T19:11:38.553Z</time>
      </trkpt>
      <trkpt lat="48.82367" lon="2.21083">
        <ele>96.2</ele>
        <time>2015-05-11T19:11:39.572Z</time>
      </trkpt>
      <trkpt lat="48.82364" lon="2.21077">
        <ele>96.1</ele>
        <time>2015-05-11T19:11:40.620Z</time>
      </trkpt>
      <trkpt lat="48.82361" lon="2.2107">
        <ele>95.8</ele>
        <time>2015-05-11T19:11:41.581Z</time>
      </trkpt>
      <trkpt lat="48.82357" lon="2.21063">
        <ele>95.5</ele>
        <time>2015-05-11T19:11:42.602Z</time>
      </trkpt>
      <trkpt lat="48.82355" lon="2.21056">
        <ele>95.7</ele>
        <time>2015-05-11T19:11:43.616Z</time>
      </trkpt>
      <trkpt lat="48.82352" lon="2.2105">
        <ele>96.7</ele>
        <time>2015-05-11T19:11:44.529Z</time>
      </trkpt>
      <trkpt lat="48.82349" lon="2.21045">
        <ele>97</ele>
        <time>2015-05-11T19:11:45.531Z</time>
      </trkpt>
      <trkpt lat="48.82347" lon="2.21038">
        <ele>98.2</ele>
        <time>2015-05-11T19:11:48.672Z</time>
      </trkpt>
      <trkpt lat="48.82342" lon="2.21031">
        <ele>98.3</ele>
        <time>2015-05-11T19:11:49.554Z</time>
      </trkpt>
      <trkpt lat="48.82338" lon="2.21024">
        <ele>98.4</ele>
        <time>2015-05-11T19:11:50.571Z</time>
      </trkpt>
      <trkpt lat="48.82335" lon="2.21017">
        <ele>98.5</ele>
        <time>2015-05-11T19:11:51.658Z</time>
      </trkpt>
      <trkpt lat="48.82331" lon="2.21011">
        <ele>98.8</ele>
        <time>2015-05-11T19:11:52.535Z</time>
      </trkpt>
      <trkpt lat="48.82329" lon="2.21007">
        <ele>99</ele>
        <time>2015-05-11T19:11:53.553Z</time>
      </trkpt>
      <trkpt lat="48.82325" lon="2.21002">
        <ele>99.2</ele>
        <time>2015-05-11T19:11:54.575Z</time>
      </trkpt>
      <trkpt lat="48.8232" lon="2.20996">
        <ele>100</ele>
        <time>2015-05-11T19:11:55.580Z</time>
      </trkpt>
      <trkpt lat="48.82315" lon="2.20989">
        <ele>100.6</ele>
        <time>2015-05-11T19:11:56.601Z</time>
      </trkpt>
      <trkpt lat="48.8231" lon="2.20981">
        <ele>101.3</ele>
        <time>2015-05-11T19:11:57.545Z</time>
      </trkpt>
      <trkpt lat="48.82304" lon="2.20975">
        <ele>101.5</ele>
        <time>2015-05-11T19:11:58.568Z</time>
      </trkpt>
      <trkpt lat="48.823" lon="2.20969">
        <ele>101.6</ele>
        <time>2015-05-11T19:11:59.556Z</time>
      </trkpt>
      <trkpt lat="48.82297" lon="2.20964">
        <ele>101.7</ele>
        <time>2015-05-11T19:12:00.717Z</time>
      </trkpt>
      <trkpt lat="48.82293" lon="2.20958">
        <ele>102.2</ele>
        <time>2015-05-11T19:12:01.533Z</time>
      </trkpt>
      <trkpt lat="48.8229" lon="2.20952">
        <ele>102.9</ele>
        <time>2015-05-11T19:12:02.661Z</time>
      </trkpt>
      <trkpt lat="48.82286" lon="2.20945">
        <ele>103.8</ele>
        <time>2015-05-11T19:12:03.541Z</time>
      </trkpt>
      <trkpt lat="48.82284" lon="2.20938">
        <ele>104</ele>
        <time>2015-05-11T19:12:04.537Z</time>
      </trkpt>
      <trkpt lat="48.8228" lon="2.2093">
        <ele>104.3</ele>
        <time>2015-05-11T19:12:05.539Z</time>
      </trkpt>
      <trkpt lat="48.82263" lon="2.20883">
        <ele>103.4</ele>
        <time>2015-05-11T19:12:12.580Z</time>
      </trkpt>
      <trkpt lat="48.82261" lon="2.20871">
        <ele>104.3</ele>
        <time>2015-05-11T19:12:14.615Z</time>
      </trkpt>
      <trkpt lat="48.8226" lon="2.20864">
        <ele>104</ele>
        <time>2015-05-11T19:12:15.660Z</time>
      </trkpt>
      <trkpt lat="48.82258" lon="2.20858">
        <ele>103.9</ele>
        <time>2015-05-11T19:12:16.522Z</time>
      </trkpt>
      <trkpt lat="48.82257" lon="2.20851">
        <ele>103.8</ele>
        <time>2015-05-11T19:12:17.552Z</time>
      </trkpt>
      <trkpt lat="48.82255" lon="2.20844">
        <ele>103.7</ele>
        <time>2015-05-11T19:12:18.593Z</time>
      </trkpt>
      <trkpt lat="48.82253" lon="2.20838">
        <ele>104</ele>
        <time>2015-05-11T19:12:19.599Z</time>
      </trkpt>
      <trkpt lat="48.82254" lon="2.2083">
        <ele>105</ele>
        <time>2015-05-11T19:12:20.542Z</time>
      </trkpt>
      <trkpt lat="48.82252" lon="2.20823">
        <ele>105.1</ele>
        <time>2015-05-11T19:12:21.546Z</time>
      </trkpt>
      <trkpt lat="48.8225" lon="2.20816">
        <ele>105.2</ele>
        <time>2015-05-11T19:12:22.558Z</time>
      </trkpt>
      <trkpt lat="48.82246" lon="2.20807">
        <ele>105.4</ele>
        <time>2015-05-11T19:12:23.567Z</time>
      </trkpt>
      <trkpt lat="48.82242" lon="2.20799">
        <ele>105.1</ele>
        <time>2015-05-11T19:12:24.585Z</time>
      </trkpt>
      <trkpt lat="48.82239" lon="2.20791">
        <ele>104.9</ele>
        <time>2015-05-11T19:12:25.584Z</time>
      </trkpt>
      <trkpt lat="48.82236" lon="2.20783">
        <ele>104.7</ele>
        <time>2015-05-11T19:12:26.609Z</time>
      </trkpt>
      <trkpt lat="48.82233" lon="2.20775">
        <ele>104.5</ele>
        <time>2015-05-11T19:12:27.518Z</time>
      </trkpt>
      <trkpt lat="48.82231" lon="2.20767">
        <ele>104.1</ele>
        <time>2015-05-11T19:12:28.525Z</time>
      </trkpt>
      <trkpt lat="48.82229" lon="2.20758">
        <ele>104</ele>
        <time>2015-05-11T19:12:29.682Z</time>
      </trkpt>
      <trkpt lat="48.8223" lon="2.2075">
        <ele>103.5</ele>
        <time>2015-05-11T19:12:30.638Z</time>
      </trkpt>
      <trkpt lat="48.82228" lon="2.20741">
        <ele>103.7</ele>
        <time>2015-05-11T19:12:31.572Z</time>
      </trkpt>
      <trkpt lat="48.82228" lon="2.20731">
        <ele>104</ele>
        <time>2015-05-11T19:12:32.591Z</time>
      </trkpt>
      <trkpt lat="48.82227" lon="2.20721">
        <ele>104</ele>
        <time>2015-05-11T19:12:33.563Z</time>
      </trkpt>
      <trkpt lat="48.82224" lon="2.20712">
        <ele>103.7</ele>
        <time>2015-05-11T19:12:34.620Z</time>
      </trkpt>
      <trkpt lat="48.82222" lon="2.20702">
        <ele>103.7</ele>
        <time>2015-05-11T19:12:35.532Z</time>
      </trkpt>
      <trkpt lat="48.82219" lon="2.20693">
        <ele>103.6</ele>
        <time>2015-05-11T19:12:36.562Z</time>
      </trkpt>
      <trkpt lat="48.82217" lon="2.20685">
        <ele>103.4</ele>
        <time>2015-05-11T19:12:37.571Z</time>
      </trkpt>
      <trkpt lat="48.82215" lon="2.20676">
        <ele>103</ele>
        <time>2015-05-11T19:12:38.576Z</time>
      </trkpt>
      <trkpt lat="48.82212" lon="2.20667">
        <ele>102.9</ele>
        <time>2015-05-11T19:12:39.580Z</time>
      </trkpt>
      <trkpt lat="48.8221" lon="2.20658">
        <ele>102.6</ele>
        <time>2015-05-11T19:12:40.550Z</time>
      </trkpt>
      <trkpt lat="48.82207" lon="2.20648">
        <ele>102.6</ele>
        <time>2015-05-11T19:12:41.561Z</time>
      </trkpt>
      <trkpt lat="48.82206" lon="2.20639">
        <ele>102.3</ele>
        <time>2015-05-11T19:12:42.607Z</time>
      </trkpt>
      <trkpt lat="48.82204" lon="2.2063">
        <ele>102.7</ele>
        <time>2015-05-11T19:12:43.614Z</time>
      </trkpt>
      <trkpt lat="48.82202" lon="2.20622">
        <ele>102.3</ele>
        <time>2015-05-11T19:12:44.545Z</time>
      </trkpt>
      <trkpt lat="48.822" lon="2.20614">
        <ele>102</ele>
        <time>2015-05-11T19:12:45.552Z</time>
      </trkpt>
      <trkpt lat="48.82199" lon="2.20607">
        <ele>102.2</ele>
        <time>2015-05-11T19:12:46.713Z</time>
      </trkpt>
      <trkpt lat="48.82196" lon="2.20598">
        <ele>102.4</ele>
        <time>2015-05-11T19:12:47.589Z</time>
      </trkpt>
      <trkpt lat="48.82194" lon="2.20589">
        <ele>102.7</ele>
        <time>2015-05-11T19:12:48.611Z</time>
      </trkpt>
      <trkpt lat="48.82191" lon="2.2058">
        <ele>103.4</ele>
        <time>2015-05-11T19:12:49.613Z</time>
      </trkpt>
      <trkpt lat="48.82189" lon="2.20572">
        <ele>103.3</ele>
        <time>2015-05-11T19:12:50.636Z</time>
      </trkpt>
      <trkpt lat="48.82187" lon="2.20565">
        <ele>103.4</ele>
        <time>2015-05-11T19:12:51.635Z</time>
      </trkpt>
      <trkpt lat="48.82182" lon="2.20553">
        <ele>103.5</ele>
        <time>2015-05-11T19:12:53.554Z</time>
      </trkpt>
      <trkpt lat="48.8218" lon="2.20547">
        <ele>103.7</ele>
        <time>2015-05-11T19:12:54.595Z</time>
      </trkpt>
      <trkpt lat="48.82179" lon="2.2054">
        <ele>103.7</ele>
        <time>2015-05-11T19:12:55.586Z</time>
      </trkpt>
      <trkpt lat="48.82179" lon="2.20531">
        <ele>103.7</ele>
        <time>2015-05-11T19:12:56.593Z</time>
      </trkpt>
      <trkpt lat="48.82178" lon="2.20522">
        <ele>103.1</ele>
        <time>2015-05-11T19:12:57.590Z</time>
      </trkpt>
      <trkpt lat="48.82178" lon="2.20514">
        <ele>102.6</ele>
        <time>2015-05-11T19:12:58.601Z</time>
      </trkpt>
      <trkpt lat="48.82177" lon="2.20505">
        <ele>102.3</ele>
        <time>2015-05-11T19:12:59.610Z</time>
      </trkpt>
      <trkpt lat="48.82176" lon="2.20498">
        <ele>102.1</ele>
        <time>2015-05-11T19:13:00.635Z</time>
      </trkpt>
      <trkpt lat="48.82175" lon="2.20491">
        <ele>102</ele>
        <time>2015-05-11T19:13:01.550Z</time>
      </trkpt>
      <trkpt lat="48.82173" lon="2.20484">
        <ele>101.8</ele>
        <time>2015-05-11T19:13:02.541Z</time>
      </trkpt>
      <trkpt lat="48.82171" lon="2.20476">
        <ele>101.5</ele>
        <time>2015-05-11T19:13:03.547Z</time>
      </trkpt>
      <trkpt lat="48.8217" lon="2.20468">
        <ele>101.1</ele>
        <time>2015-05-11T19:13:04.554Z</time>
      </trkpt>
      <trkpt lat="48.82169" lon="2.20461">
        <ele>100.7</ele>
        <time>2015-05-11T19:13:05.567Z</time>
      </trkpt>
      <trkpt lat="48.82167" lon="2.20454">
        <ele>100.7</ele>
        <time>2015-05-11T19:13:06.568Z</time>
      </trkpt>
      <trkpt lat="48.82167" lon="2.20446">
        <ele>100.7</ele>
        <time>2015-05-11T19:13:07.607Z</time>
      </trkpt>
      <trkpt lat="48.82167" lon="2.20439">
        <ele>100.8</ele>
        <time>2015-05-11T19:13:08.617Z</time>
      </trkpt>
      <trkpt lat="48.82169" lon="2.20431">
        <ele>100.9</ele>
        <time>2015-05-11T19:13:09.633Z</time>
      </trkpt>
      <trkpt lat="48.82169" lon="2.20425">
        <ele>101.3</ele>
        <time>2015-05-11T19:13:10.547Z</time>
      </trkpt>
      <trkpt lat="48.82166" lon="2.20413">
        <ele>102</ele>
        <time>2015-05-11T19:13:12.600Z</time>
      </trkpt>
      <trkpt lat="48.82163" lon="2.20407">
        <ele>102</ele>
        <time>2015-05-11T19:13:13.609Z</time>
      </trkpt>
      <trkpt lat="48.82162" lon="2.204">
        <ele>102</ele>
        <time>2015-05-11T19:13:14.636Z</time>
      </trkpt>
      <trkpt lat="48.82159" lon="2.20392">
        <ele>102.2</ele>
        <time>2015-05-11T19:13:15.532Z</time>
      </trkpt>
      <trkpt lat="48.82156" lon="2.20384">
        <ele>102.6</ele>
        <time>2015-05-11T19:13:16.549Z</time>
      </trkpt>
      <trkpt lat="48.82153" lon="2.20376">
        <ele>103.1</ele>
        <time>2015-05-11T19:13:17.546Z</time>
      </trkpt>
      <trkpt lat="48.8215" lon="2.20369">
        <ele>103.3</ele>
        <time>2015-05-11T19:13:18.589Z</time>
      </trkpt>
      <trkpt lat="48.82147" lon="2.20363">
        <ele>103.8</ele>
        <time>2015-05-11T19:13:19.601Z</time>
      </trkpt>
      <trkpt lat="48.82145" lon="2.20356">
        <ele>104.3</ele>
        <time>2015-05-11T19:13:20.632Z</time>
      </trkpt>
      <trkpt lat="48.82143" lon="2.20348">
        <ele>105</ele>
        <time>2015-05-11T19:13:21.517Z</time>
      </trkpt>
      <trkpt lat="48.8214" lon="2.20339">
        <ele>105.4</ele>
        <time>2015-05-11T19:13:22.549Z</time>
      </trkpt>
      <trkpt lat="48.82136" lon="2.2033">
        <ele>105.2</ele>
        <time>2015-05-11T19:13:23.563Z</time>
      </trkpt>
      <trkpt lat="48.82133" lon="2.20321">
        <ele>104.9</ele>
        <time>2015-05-11T19:13:24.594Z</time>
      </trkpt>
      <trkpt lat="48.8213" lon="2.2031">
        <ele>105</ele>
        <time>2015-05-11T19:13:25.604Z</time>
      </trkpt>
      <trkpt lat="48.82128" lon="2.20298">
        <ele>105.7</ele>
        <time>2015-05-11T19:13:26.628Z</time>
      </trkpt>
      <trkpt lat="48.82127" lon="2.20289">
        <ele>105.9</ele>
        <time>2015-05-11T19:13:27.512Z</time>
      </trkpt>
      <trkpt lat="48.82125" lon="2.20282">
        <ele>105.7</ele>
        <time>2015-05-11T19:13:28.525Z</time>
      </trkpt>
      <trkpt lat="48.82125" lon="2.20274">
        <ele>105.7</ele>
        <time>2015-05-11T19:13:29.531Z</time>
      </trkpt>
      <trkpt lat="48.82125" lon="2.20266">
        <ele>105.9</ele>
        <time>2015-05-11T19:13:30.628Z</time>
      </trkpt>
      <trkpt lat="48.82124" lon="2.20259">
        <ele>106</ele>
        <time>2015-05-11T19:13:31.566Z</time>
      </trkpt>
      <trkpt lat="48.82123" lon="2.20252">
        <ele>106.1</ele>
        <time>2015-05-11T19:13:32.575Z</time>
      </trkpt>
      <trkpt lat="48.82121" lon="2.20245">
        <ele>106.2</ele>
        <time>2015-05-11T19:13:33.581Z</time>
      </trkpt>
      <trkpt lat="48.82119" lon="2.20238">
        <ele>106.3</ele>
        <time>2015-05-11T19:13:34.587Z</time>
      </trkpt>
      <trkpt lat="48.82117" lon="2.2023">
        <ele>106.3</ele>
        <time>2015-05-11T19:13:35.503Z</time>
      </trkpt>
      <trkpt lat="48.82114" lon="2.20223">
        <ele>107</ele>
        <time>2015-05-11T19:13:36.589Z</time>
      </trkpt>
      <trkpt lat="48.82111" lon="2.20216">
        <ele>107.5</ele>
        <time>2015-05-11T19:13:37.595Z</time>
      </trkpt>
      <trkpt lat="48.82108" lon="2.20207">
        <ele>107.9</ele>
        <time>2015-05-11T19:13:38.608Z</time>
      </trkpt>
      <trkpt lat="48.82104" lon="2.20199">
        <ele>108.1</ele>
        <time>2015-05-11T19:13:39.617Z</time>
      </trkpt>
      <trkpt lat="48.82102" lon="2.20193">
        <ele>108.2</ele>
        <time>2015-05-11T19:13:40.535Z</time>
      </trkpt>
      <trkpt lat="48.82098" lon="2.20186">
        <ele>108.2</ele>
        <time>2015-05-11T19:13:41.552Z</time>
      </trkpt>
      <trkpt lat="48.82093" lon="2.20179">
        <ele>107.8</ele>
        <time>2015-05-11T19:13:42.623Z</time>
      </trkpt>
      <trkpt lat="48.82088" lon="2.20173">
        <ele>108.2</ele>
        <time>2015-05-11T19:13:43.511Z</time>
      </trkpt>
      <trkpt lat="48.82083" lon="2.20165">
        <ele>108.5</ele>
        <time>2015-05-11T19:13:44.527Z</time>
      </trkpt>
      <trkpt lat="48.82078" lon="2.20159">
        <ele>109.1</ele>
        <time>2015-05-11T19:13:45.528Z</time>
      </trkpt>
      <trkpt lat="48.82074" lon="2.20153">
        <ele>109.6</ele>
        <time>2015-05-11T19:13:46.539Z</time>
      </trkpt>
      <trkpt lat="48.8207" lon="2.20146">
        <ele>110</ele>
        <time>2015-05-11T19:13:47.545Z</time>
      </trkpt>
      <trkpt lat="48.82066" lon="2.2014">
        <ele>110.1</ele>
        <time>2015-05-11T19:13:48.571Z</time>
      </trkpt>
      <trkpt lat="48.82063" lon="2.20133">
        <ele>110</ele>
        <time>2015-05-11T19:13:49.580Z</time>
      </trkpt>
      <trkpt lat="48.82059" lon="2.20126">
        <ele>109.9</ele>
        <time>2015-05-11T19:13:50.597Z</time>
      </trkpt>
      <trkpt lat="48.82054" lon="2.20122">
        <ele>110.7</ele>
        <time>2015-05-11T19:13:51.603Z</time>
      </trkpt>
      <trkpt lat="48.82048" lon="2.20118">
        <ele>111.5</ele>
        <time>2015-05-11T19:13:52.543Z</time>
      </trkpt>
      <trkpt lat="48.82042" lon="2.20115">
        <ele>112.4</ele>
        <time>2015-05-11T19:13:53.547Z</time>
      </trkpt>
      <trkpt lat="48.82037" lon="2.2011">
        <ele>113.5</ele>
        <time>2015-05-11T19:13:54.572Z</time>
      </trkpt>
      <trkpt lat="48.82033" lon="2.20104">
        <ele>113.8</ele>
        <time>2015-05-11T19:13:55.578Z</time>
      </trkpt>
      <trkpt lat="48.8203" lon="2.20097">
        <ele>114</ele>
        <time>2015-05-11T19:13:56.534Z</time>
      </trkpt>
      <trkpt lat="48.82027" lon="2.20089">
        <ele>114.9</ele>
        <time>2015-05-11T19:13:57.546Z</time>
      </trkpt>
      <trkpt lat="48.82023" lon="2.20078">
        <ele>116.3</ele>
        <time>2015-05-11T19:13:58.571Z</time>
      </trkpt>
      <trkpt lat="48.82018" lon="2.20068">
        <ele>117.9</ele>
        <time>2015-05-11T19:13:59.585Z</time>
      </trkpt>
      <trkpt lat="48.82014" lon="2.20059">
        <ele>118.7</ele>
        <time>2015-05-11T19:14:00.629Z</time>
      </trkpt>
      <trkpt lat="48.8201" lon="2.2005">
        <ele>119.5</ele>
        <time>2015-05-11T19:14:01.688Z</time>
      </trkpt>
      <trkpt lat="48.82006" lon="2.20042">
        <ele>120</ele>
        <time>2015-05-11T19:14:02.535Z</time>
      </trkpt>
      <trkpt lat="48.82002" lon="2.20036">
        <ele>121</ele>
        <time>2015-05-11T19:14:03.564Z</time>
      </trkpt>
      <trkpt lat="48.81998" lon="2.20027">
        <ele>120.9</ele>
        <time>2015-05-11T19:14:04.575Z</time>
      </trkpt>
      <trkpt lat="48.81992" lon="2.20021">
        <ele>121.9</ele>
        <time>2015-05-11T19:14:05.595Z</time>
      </trkpt>
      <trkpt lat="48.81988" lon="2.20016">
        <ele>122.5</ele>
        <time>2015-05-11T19:14:06.594Z</time>
      </trkpt>
      <trkpt lat="48.81983" lon="2.20011">
        <ele>123.3</ele>
        <time>2015-05-11T19:14:07.601Z</time>
      </trkpt>
      <trkpt lat="48.81977" lon="2.20005">
        <ele>124.5</ele>
        <time>2015-05-11T19:14:08.617Z</time>
      </trkpt>
      <trkpt lat="48.81972" lon="2.20001">
        <ele>125.6</ele>
        <time>2015-05-11T19:14:09.539Z</time>
      </trkpt>
      <trkpt lat="48.81967" lon="2.19996">
        <ele>126</ele>
        <time>2015-05-11T19:14:10.543Z</time>
      </trkpt>
      <trkpt lat="48.81964" lon="2.19991">
        <ele>126</ele>
        <time>2015-05-11T19:14:11.570Z</time>
      </trkpt>
      <trkpt lat="48.8196" lon="2.19985">
        <ele>126.2</ele>
        <time>2015-05-11T19:14:12.570Z</time>
      </trkpt>
      <trkpt lat="48.81955" lon="2.19977">
        <ele>126.7</ele>
        <time>2015-05-11T19:14:13.536Z</time>
      </trkpt>
      <trkpt lat="48.81951" lon="2.19969">
        <ele>127.1</ele>
        <time>2015-05-11T19:14:14.589Z</time>
      </trkpt>
      <trkpt lat="48.81948" lon="2.19962">
        <ele>127.8</ele>
        <time>2015-05-11T19:14:15.598Z</time>
      </trkpt>
      <trkpt lat="48.81946" lon="2.19955">
        <ele>127.8</ele>
        <time>2015-05-11T19:14:16.891Z</time>
      </trkpt>
      <trkpt lat="48.81943" lon="2.19945">
        <ele>127.9</ele>
        <time>2015-05-11T19:14:17.630Z</time>
      </trkpt>
      <trkpt lat="48.8194" lon="2.19938">
        <ele>128.2</ele>
        <time>2015-05-11T19:14:18.544Z</time>
      </trkpt>
      <trkpt lat="48.81937" lon="2.19932">
        <ele>128.4</ele>
        <time>2015-05-11T19:14:19.710Z</time>
      </trkpt>
      <trkpt lat="48.81934" lon="2.19927">
        <ele>128.6</ele>
        <time>2015-05-11T19:14:20.541Z</time>
      </trkpt>
      <trkpt lat="48.81931" lon="2.19921">
        <ele>128.9</ele>
        <time>2015-05-11T19:14:21.545Z</time>
      </trkpt>
      <trkpt lat="48.81927" lon="2.19914">
        <ele>128.6</ele>
        <time>2015-05-11T19:14:22.558Z</time>
      </trkpt>
      <trkpt lat="48.81924" lon="2.19907">
        <ele>128.3</ele>
        <time>2015-05-11T19:14:23.581Z</time>
      </trkpt>
      <trkpt lat="48.81921" lon="2.199">
        <ele>127.2</ele>
        <time>2015-05-11T19:14:24.594Z</time>
      </trkpt>
      <trkpt lat="48.81919" lon="2.19893">
        <ele>126.1</ele>
        <time>2015-05-11T19:14:25.600Z</time>
      </trkpt>
      <trkpt lat="48.81917" lon="2.19887">
        <ele>125.4</ele>
        <time>2015-05-11T19:14:26.617Z</time>
      </trkpt>
      <trkpt lat="48.81915" lon="2.1988">
        <ele>125.3</ele>
        <time>2015-05-11T19:14:27.530Z</time>
      </trkpt>
      <trkpt lat="48.81912" lon="2.19874">
        <ele>125.1</ele>
        <time>2015-05-11T19:14:28.550Z</time>
      </trkpt>
      <trkpt lat="48.81909" lon="2.19868">
        <ele>125</ele>
        <time>2015-05-11T19:14:29.562Z</time>
      </trkpt>
      <trkpt lat="48.81905" lon="2.19862">
        <ele>125</ele>
        <time>2015-05-11T19:14:30.585Z</time>
      </trkpt>
      <trkpt lat="48.81902" lon="2.19856">
        <ele>124.8</ele>
        <time>2015-05-11T19:14:31.567Z</time>
      </trkpt>
      <trkpt lat="48.81898" lon="2.19849">
        <ele>124.8</ele>
        <time>2015-05-11T19:14:32.589Z</time>
      </trkpt>
      <trkpt lat="48.81894" lon="2.19842">
        <ele>125</ele>
        <time>2015-05-11T19:14:33.507Z</time>
      </trkpt>
      <trkpt lat="48.81889" lon="2.19835">
        <ele>125.2</ele>
        <time>2015-05-11T19:14:34.525Z</time>
      </trkpt>
      <trkpt lat="48.81884" lon="2.19829">
        <ele>125.4</ele>
        <time>2015-05-11T19:14:35.547Z</time>
      </trkpt>
      <trkpt lat="48.81879" lon="2.19824">
        <ele>125.8</ele>
        <time>2015-05-11T19:14:36.560Z</time>
      </trkpt>
      <trkpt lat="48.81869" lon="2.19814">
        <ele>126</ele>
        <time>2015-05-11T19:14:38.590Z</time>
      </trkpt>
      <trkpt lat="48.81861" lon="2.19807">
        <ele>125.2</ele>
        <time>2015-05-11T19:14:39.598Z</time>
      </trkpt>
      <trkpt lat="48.81856" lon="2.19802">
        <ele>125</ele>
        <time>2015-05-11T19:14:40.616Z</time>
      </trkpt>
      <trkpt lat="48.81851" lon="2.19797">
        <ele>125</ele>
        <time>2015-05-11T19:14:41.626Z</time>
      </trkpt>
      <trkpt lat="48.81846" lon="2.19792">
        <ele>125.1</ele>
        <time>2015-05-11T19:14:42.551Z</time>
      </trkpt>
      <trkpt lat="48.81841" lon="2.19786">
        <ele>125.5</ele>
        <time>2015-05-11T19:14:43.628Z</time>
      </trkpt>
      <trkpt lat="48.81836" lon="2.19779">
        <ele>126.2</ele>
        <time>2015-05-11T19:14:44.527Z</time>
      </trkpt>
      <trkpt lat="48.81832" lon="2.19772">
        <ele>126.4</ele>
        <time>2015-05-11T19:14:45.536Z</time>
      </trkpt>
      <trkpt lat="48.81828" lon="2.19766">
        <ele>126.7</ele>
        <time>2015-05-11T19:14:46.564Z</time>
      </trkpt>
      <trkpt lat="48.81824" lon="2.19758">
        <ele>126.7</ele>
        <time>2015-05-11T19:14:47.575Z</time>
      </trkpt>
      <trkpt lat="48.8182" lon="2.19752">
        <ele>127.2</ele>
        <time>2015-05-11T19:14:48.598Z</time>
      </trkpt>
      <trkpt lat="48.81814" lon="2.19745">
        <ele>128.2</ele>
        <time>2015-05-11T19:14:49.601Z</time>
      </trkpt>
      <trkpt lat="48.81809" lon="2.19737">
        <ele>129.1</ele>
        <time>2015-05-11T19:14:50.510Z</time>
      </trkpt>
      <trkpt lat="48.81803" lon="2.19729">
        <ele>129.5</ele>
        <time>2015-05-11T19:14:51.569Z</time>
      </trkpt>
      <trkpt lat="48.81798" lon="2.19722">
        <ele>129.3</ele>
        <time>2015-05-11T19:14:52.571Z</time>
      </trkpt>
      <trkpt lat="48.81793" lon="2.19715">
        <ele>129.1</ele>
        <time>2015-05-11T19:14:53.609Z</time>
      </trkpt>
      <trkpt lat="48.81789" lon="2.19705">
        <ele>129.2</ele>
        <time>2015-05-11T19:14:54.626Z</time>
      </trkpt>
      <trkpt lat="48.81785" lon="2.19697">
        <ele>129.3</ele>
        <time>2015-05-11T19:14:55.563Z</time>
      </trkpt>
      <trkpt lat="48.81781" lon="2.1969">
        <ele>129.7</ele>
        <time>2015-05-11T19:14:56.572Z</time>
      </trkpt>
      <trkpt lat="48.81777" lon="2.19685">
        <ele>129.6</ele>
        <time>2015-05-11T19:14:57.525Z</time>
      </trkpt>
      <trkpt lat="48.81772" lon="2.19681">
        <ele>129.6</ele>
        <time>2015-05-11T19:14:58.548Z</time>
      </trkpt>
      <trkpt lat="48.81768" lon="2.19675">
        <ele>129.5</ele>
        <time>2015-05-11T19:14:59.572Z</time>
      </trkpt>
      <trkpt lat="48.81764" lon="2.19669">
        <ele>129.4</ele>
        <time>2015-05-11T19:15:00.617Z</time>
      </trkpt>
      <trkpt lat="48.8176" lon="2.19662">
        <ele>129.7</ele>
        <time>2015-05-11T19:15:01.514Z</time>
      </trkpt>
      <trkpt lat="48.81756" lon="2.19655">
        <ele>130.2</ele>
        <time>2015-05-11T19:15:02.669Z</time>
      </trkpt>
      <trkpt lat="48.8175" lon="2.19648">
        <ele>130.7</ele>
        <time>2015-05-11T19:15:03.560Z</time>
      </trkpt>
      <trkpt lat="48.81745" lon="2.19642">
        <ele>131.1</ele>
        <time>2015-05-11T19:15:04.507Z</time>
      </trkpt>
      <trkpt lat="48.8174" lon="2.19634">
        <ele>131.9</ele>
        <time>2015-05-11T19:15:05.620Z</time>
      </trkpt>
      <trkpt lat="48.81735" lon="2.19628">
        <ele>132.2</ele>
        <time>2015-05-11T19:15:06.677Z</time>
      </trkpt>
      <trkpt lat="48.8173" lon="2.1962">
        <ele>132.7</ele>
        <time>2015-05-11T19:15:07.514Z</time>
      </trkpt>
      <trkpt lat="48.81724" lon="2.19613">
        <ele>133.5</ele>
        <time>2015-05-11T19:15:08.519Z</time>
      </trkpt>
      <trkpt lat="48.81719" lon="2.19606">
        <ele>134</ele>
        <time>2015-05-11T19:15:09.530Z</time>
      </trkpt>
      <trkpt lat="48.81715" lon="2.19599">
        <ele>133.9</ele>
        <time>2015-05-11T19:15:10.550Z</time>
      </trkpt>
      <trkpt lat="48.81711" lon="2.19593">
        <ele>133.5</ele>
        <time>2015-05-11T19:15:11.532Z</time>
      </trkpt>
      <trkpt lat="48.81707" lon="2.19587">
        <ele>133.2</ele>
        <time>2015-05-11T19:15:12.549Z</time>
      </trkpt>
      <trkpt lat="48.81702" lon="2.19582">
        <ele>132.6</ele>
        <time>2015-05-11T19:15:13.572Z</time>
      </trkpt>
      <trkpt lat="48.81698" lon="2.19577">
        <ele>132.3</ele>
        <time>2015-05-11T19:15:14.605Z</time>
      </trkpt>
      <trkpt lat="48.81692" lon="2.19573">
        <ele>131.8</ele>
        <time>2015-05-11T19:15:15.518Z</time>
      </trkpt>
      <trkpt lat="48.81688" lon="2.19568">
        <ele>131.4</ele>
        <time>2015-05-11T19:15:16.535Z</time>
      </trkpt>
      <trkpt lat="48.81683" lon="2.19563">
        <ele>131.6</ele>
        <time>2015-05-11T19:15:17.539Z</time>
      </trkpt>
      <trkpt lat="48.81679" lon="2.19557">
        <ele>130.7</ele>
        <time>2015-05-11T19:15:18.581Z</time>
      </trkpt>
      <trkpt lat="48.81676" lon="2.19551">
        <ele>130.2</ele>
        <time>2015-05-11T19:15:19.589Z</time>
      </trkpt>
      <trkpt lat="48.81672" lon="2.19543">
        <ele>130</ele>
        <time>2015-05-11T19:15:20.609Z</time>
      </trkpt>
      <trkpt lat="48.81668" lon="2.19534">
        <ele>130.2</ele>
        <time>2015-05-11T19:15:21.526Z</time>
      </trkpt>
      <trkpt lat="48.81664" lon="2.19527">
        <ele>129.7</ele>
        <time>2015-05-11T19:15:22.549Z</time>
      </trkpt>
      <trkpt lat="48.81661" lon="2.19522">
        <ele>129.3</ele>
        <time>2015-05-11T19:15:23.558Z</time>
      </trkpt>
      <trkpt lat="48.81657" lon="2.19515">
        <ele>129.3</ele>
        <time>2015-05-11T19:15:24.566Z</time>
      </trkpt>
      <trkpt lat="48.81654" lon="2.19508">
        <ele>129.4</ele>
        <time>2015-05-11T19:15:25.591Z</time>
      </trkpt>
      <trkpt lat="48.8165" lon="2.19503">
        <ele>129.5</ele>
        <time>2015-05-11T19:15:26.600Z</time>
      </trkpt>
      <trkpt lat="48.81647" lon="2.19497">
        <ele>129.7</ele>
        <time>2015-05-11T19:15:27.515Z</time>
      </trkpt>
      <trkpt lat="48.81645" lon="2.19488">
        <ele>129.4</ele>
        <time>2015-05-11T19:15:29.555Z</time>
      </trkpt>
      <trkpt lat="48.81643" lon="2.19484">
        <ele>129.4</ele>
        <time>2015-05-11T19:15:30.582Z</time>
      </trkpt>
      <trkpt lat="48.81638" lon="2.19475">
        <ele>130.4</ele>
        <time>2015-05-11T19:15:32.573Z</time>
      </trkpt>
      <trkpt lat="48.81634" lon="2.19471">
        <ele>130.7</ele>
        <time>2015-05-11T19:15:33.763Z</time>
      </trkpt>
      <trkpt lat="48.8163" lon="2.19463">
        <ele>130.5</ele>
        <time>2015-05-11T19:15:35.599Z</time>
      </trkpt>
      <trkpt lat="48.81628" lon="2.1946">
        <ele>130.8</ele>
        <time>2015-05-11T19:15:36.650Z</time>
      </trkpt>
      <trkpt lat="48.81624" lon="2.19452">
        <ele>130.6</ele>
        <time>2015-05-11T19:15:38.547Z</time>
      </trkpt>
      <trkpt lat="48.81622" lon="2.19447">
        <ele>130.2</ele>
        <time>2015-05-11T19:15:39.567Z</time>
      </trkpt>
      <trkpt lat="48.81616" lon="2.19438">
        <ele>130.8</ele>
        <time>2015-05-11T19:15:42.569Z</time>
      </trkpt>
      <trkpt lat="48.81615" lon="2.19435">
        <ele>131.1</ele>
        <time>2015-05-11T19:15:43.579Z</time>
      </trkpt>
      <trkpt lat="48.8161" lon="2.19427">
        <ele>131.7</ele>
        <time>2015-05-11T19:15:46.557Z</time>
      </trkpt>
      <trkpt lat="48.81607" lon="2.19423">
        <ele>131.7</ele>
        <time>2015-05-11T19:15:47.663Z</time>
      </trkpt>
      <trkpt lat="48.81602" lon="2.19417">
        <ele>131.6</ele>
        <time>2015-05-11T19:15:49.618Z</time>
      </trkpt>
      <trkpt lat="48.81598" lon="2.19415">
        <ele>131.4</ele>
        <time>2015-05-11T19:15:50.574Z</time>
      </trkpt>
      <trkpt lat="48.81591" lon="2.19409">
        <ele>132.6</ele>
        <time>2015-05-11T19:18:00.596Z</time>
      </trkpt>
      <trkpt lat="48.816" lon="2.19397">
        <ele>134.4</ele>
        <time>2015-05-11T19:18:01.617Z</time>
      </trkpt>
      <trkpt lat="48.81594" lon="2.19396">
        <ele>134</ele>
        <time>2015-05-11T19:18:02.507Z</time>
      </trkpt>
      <trkpt lat="48.81589" lon="2.19394">
        <ele>133.9</ele>
        <time>2015-05-11T19:18:03.516Z</time>
      </trkpt>
      <trkpt lat="48.81585" lon="2.19391">
        <ele>133.4</ele>
        <time>2015-05-11T19:18:04.562Z</time>
      </trkpt>
      <trkpt lat="48.8158" lon="2.19389">
        <ele>133.2</ele>
        <time>2015-05-11T19:18:05.580Z</time>
      </trkpt>
      <trkpt lat="48.81572" lon="2.19385">
        <ele>133</ele>
        <time>2015-05-11T19:18:07.608Z</time>
      </trkpt>
      <trkpt lat="48.81567" lon="2.19382">
        <ele>132.7</ele>
        <time>2015-05-11T19:18:08.607Z</time>
      </trkpt>
      <trkpt lat="48.81559" lon="2.19378">
        <ele>132.9</ele>
        <time>2015-05-11T19:18:10.534Z</time>
      </trkpt>
      <trkpt lat="48.81555" lon="2.19376">
        <ele>132.8</ele>
        <time>2015-05-11T19:18:11.583Z</time>
      </trkpt>
      <trkpt lat="48.81547" lon="2.1937">
        <ele>132.9</ele>
        <time>2015-05-11T19:18:12.161Z</time>
      </trkpt>
      <trkpt lat="48.81543" lon="2.19368">
        <ele>132.9</ele>
        <time>2015-05-11T19:18:14.567Z</time>
      </trkpt>
      <trkpt lat="48.81538" lon="2.19365">
        <ele>132.9</ele>
        <time>2015-05-11T19:18:15.576Z</time>
      </trkpt>
      <trkpt lat="48.81534" lon="2.19362">
        <ele>132.7</ele>
        <time>2015-05-11T19:18:16.631Z</time>
      </trkpt>
      <trkpt lat="48.81526" lon="2.19356">
        <ele>132.3</ele>
        <time>2015-05-11T19:18:18.546Z</time>
      </trkpt>
      <trkpt lat="48.81522" lon="2.19353">
        <ele>132.2</ele>
        <time>2015-05-11T19:18:19.590Z</time>
      </trkpt>
      <trkpt lat="48.81518" lon="2.19349">
        <ele>132.1</ele>
        <time>2015-05-11T19:18:20.601Z</time>
      </trkpt>
      <trkpt lat="48.81513" lon="2.19346">
        <ele>132.1</ele>
        <time>2015-05-11T19:18:21.602Z</time>
      </trkpt>
      <trkpt lat="48.81508" lon="2.19344">
        <ele>132.3</ele>
        <time>2015-05-11T19:18:22.503Z</time>
      </trkpt>
      <trkpt lat="48.81502" lon="2.1934">
        <ele>132.4</ele>
        <time>2015-05-11T19:18:23.566Z</time>
      </trkpt>
      <trkpt lat="48.81498" lon="2.19336">
        <ele>132.2</ele>
        <time>2015-05-11T19:18:24.594Z</time>
      </trkpt>
      <trkpt lat="48.81493" lon="2.19333">
        <ele>132</ele>
        <time>2015-05-11T19:18:25.611Z</time>
      </trkpt>
      <trkpt lat="48.81488" lon="2.19329">
        <ele>131.9</ele>
        <time>2015-05-11T19:18:26.565Z</time>
      </trkpt>
      <trkpt lat="48.81483" lon="2.19325">
        <ele>132.3</ele>
        <time>2015-05-11T19:18:27.561Z</time>
      </trkpt>
      <trkpt lat="48.81477" lon="2.19323">
        <ele>133.1</ele>
        <time>2015-05-11T19:18:28.585Z</time>
      </trkpt>
      <trkpt lat="48.81471" lon="2.19322">
        <ele>133.8</ele>
        <time>2015-05-11T19:18:29.594Z</time>
      </trkpt>
      <trkpt lat="48.81466" lon="2.19319">
        <ele>133.4</ele>
        <time>2015-05-11T19:18:30.606Z</time>
      </trkpt>
      <trkpt lat="48.81462" lon="2.19317">
        <ele>133.5</ele>
        <time>2015-05-11T19:18:31.532Z</time>
      </trkpt>
      <trkpt lat="48.81457" lon="2.19314">
        <ele>133.7</ele>
        <time>2015-05-11T19:18:32.506Z</time>
      </trkpt>
      <trkpt lat="48.81453" lon="2.19311">
        <ele>133.7</ele>
        <time>2015-05-11T19:18:33.535Z</time>
      </trkpt>
      <trkpt lat="48.81444" lon="2.19306">
        <ele>134.5</ele>
        <time>2015-05-11T19:18:35.566Z</time>
      </trkpt>
      <trkpt lat="48.8144" lon="2.19304">
        <ele>134.9</ele>
        <time>2015-05-11T19:18:36.576Z</time>
      </trkpt>
      <trkpt lat="48.81435" lon="2.19302">
        <ele>135.3</ele>
        <time>2015-05-11T19:18:37.512Z</time>
      </trkpt>
      <trkpt lat="48.81431" lon="2.19299">
        <ele>135.2</ele>
        <time>2015-05-11T19:18:38.503Z</time>
      </trkpt>
      <trkpt lat="48.81426" lon="2.19296">
        <ele>135.2</ele>
        <time>2015-05-11T19:18:39.540Z</time>
      </trkpt>
      <trkpt lat="48.81422" lon="2.19294">
        <ele>135.4</ele>
        <time>2015-05-11T19:18:40.551Z</time>
      </trkpt>
      <trkpt lat="48.81418" lon="2.1929">
        <ele>135.4</ele>
        <time>2015-05-11T19:18:41.561Z</time>
      </trkpt>
      <trkpt lat="48.81414" lon="2.19287">
        <ele>134.9</ele>
        <time>2015-05-11T19:18:42.571Z</time>
      </trkpt>
      <trkpt lat="48.8141" lon="2.19284">
        <ele>134.5</ele>
        <time>2015-05-11T19:18:43.591Z</time>
      </trkpt>
      <trkpt lat="48.81405" lon="2.19282">
        <ele>134.5</ele>
        <time>2015-05-11T19:18:44.566Z</time>
      </trkpt>
      <trkpt lat="48.81398" lon="2.19275">
        <ele>134.6</ele>
        <time>2015-05-11T19:18:46.551Z</time>
      </trkpt>
      <trkpt lat="48.81394" lon="2.19272">
        <ele>134.9</ele>
        <time>2015-05-11T19:18:47.610Z</time>
      </trkpt>
      <trkpt lat="48.81386" lon="2.19267">
        <ele>135.4</ele>
        <time>2015-05-11T19:18:49.543Z</time>
      </trkpt>
      <trkpt lat="48.81381" lon="2.19266">
        <ele>135.9</ele>
        <time>2015-05-11T19:18:50.606Z</time>
      </trkpt>
      <trkpt lat="48.81376" lon="2.19264">
        <ele>135.9</ele>
        <time>2015-05-11T19:18:51.577Z</time>
      </trkpt>
      <trkpt lat="48.81372" lon="2.19263">
        <ele>136</ele>
        <time>2015-05-11T19:18:52.573Z</time>
      </trkpt>
      <trkpt lat="48.81367" lon="2.19261">
        <ele>136.6</ele>
        <time>2015-05-11T19:18:53.579Z</time>
      </trkpt>
      <trkpt lat="48.81362" lon="2.19261">
        <ele>136.9</ele>
        <time>2015-05-11T19:18:54.578Z</time>
      </trkpt>
      <trkpt lat="48.81357" lon="2.1926">
        <ele>137.2</ele>
        <time>2015-05-11T19:18:55.629Z</time>
      </trkpt>
      <trkpt lat="48.81353" lon="2.19257">
        <ele>137.3</ele>
        <time>2015-05-11T19:18:56.525Z</time>
      </trkpt>
      <trkpt lat="48.81345" lon="2.19252">
        <ele>137.2</ele>
        <time>2015-05-11T19:18:58.560Z</time>
      </trkpt>
      <trkpt lat="48.81341" lon="2.19249">
        <ele>137.2</ele>
        <time>2015-05-11T19:18:59.556Z</time>
      </trkpt>
      <trkpt lat="48.81336" lon="2.19245">
        <ele>137.2</ele>
        <time>2015-05-11T19:19:00.563Z</time>
      </trkpt>
      <trkpt lat="48.81332" lon="2.19242">
        <ele>137.3</ele>
        <time>2015-05-11T19:19:01.581Z</time>
      </trkpt>
      <trkpt lat="48.81327" lon="2.19234">
        <ele>137.3</ele>
        <time>2015-05-11T19:19:03.535Z</time>
      </trkpt>
      <trkpt lat="48.81323" lon="2.1923">
        <ele>137.5</ele>
        <time>2015-05-11T19:19:04.566Z</time>
      </trkpt>
      <trkpt lat="48.81317" lon="2.19224">
        <ele>137.7</ele>
        <time>2015-05-11T19:19:06.617Z</time>
      </trkpt>
      <trkpt lat="48.81314" lon="2.19222">
        <ele>138</ele>
        <time>2015-05-11T19:19:07.556Z</time>
      </trkpt>
      <trkpt lat="48.81307" lon="2.19219">
        <ele>138.6</ele>
        <time>2015-05-11T19:19:09.553Z</time>
      </trkpt>
      <trkpt lat="48.81304" lon="2.19218">
        <ele>138.8</ele>
        <time>2015-05-11T19:19:10.565Z</time>
      </trkpt>
      <trkpt lat="48.81296" lon="2.19217">
        <ele>138.7</ele>
        <time>2015-05-11T19:19:13.508Z</time>
      </trkpt>
      <trkpt lat="48.81294" lon="2.19216">
        <ele>138.8</ele>
        <time>2015-05-11T19:19:14.529Z</time>
      </trkpt>
      <trkpt lat="48.81288" lon="2.19213">
        <ele>138.8</ele>
        <time>2015-05-11T19:19:16.551Z</time>
      </trkpt>
      <trkpt lat="48.81284" lon="2.19212">
        <ele>139</ele>
        <time>2015-05-11T19:19:17.565Z</time>
      </trkpt>
      <trkpt lat="48.8128" lon="2.19211">
        <ele>139</ele>
        <time>2015-05-11T19:19:18.581Z</time>
      </trkpt>
      <trkpt lat="48.81275" lon="2.19209">
        <ele>139.4</ele>
        <time>2015-05-11T19:19:19.601Z</time>
      </trkpt>
      <trkpt lat="48.81267" lon="2.19208">
        <ele>139.8</ele>
        <time>2015-05-11T19:19:21.513Z</time>
      </trkpt>
      <trkpt lat="48.81262" lon="2.19207">
        <ele>140.1</ele>
        <time>2015-05-11T19:19:22.577Z</time>
      </trkpt>
      <trkpt lat="48.81254" lon="2.19207">
        <ele>140.4</ele>
        <time>2015-05-11T19:19:24.598Z</time>
      </trkpt>
      <trkpt lat="48.8125" lon="2.19207">
        <ele>140.4</ele>
        <time>2015-05-11T19:19:25.626Z</time>
      </trkpt>
      <trkpt lat="48.81242" lon="2.19207">
        <ele>141.1</ele>
        <time>2015-05-11T19:19:27.534Z</time>
      </trkpt>
      <trkpt lat="48.81237" lon="2.19206">
        <ele>141.4</ele>
        <time>2015-05-11T19:19:28.551Z</time>
      </trkpt>
      <trkpt lat="48.81232" lon="2.19206">
        <ele>141.8</ele>
        <time>2015-05-11T19:19:29.563Z</time>
      </trkpt>
      <trkpt lat="48.81228" lon="2.19205">
        <ele>141.9</ele>
        <time>2015-05-11T19:19:30.579Z</time>
      </trkpt>
      <trkpt lat="48.8122" lon="2.19203">
        <ele>142.8</ele>
        <time>2015-05-11T19:19:32.609Z</time>
      </trkpt>
      <trkpt lat="48.81216" lon="2.19203">
        <ele>143.4</ele>
        <time>2015-05-11T19:19:33.603Z</time>
      </trkpt>
      <trkpt lat="48.81208" lon="2.192">
        <ele>144.9</ele>
        <time>2015-05-11T19:19:35.544Z</time>
      </trkpt>
      <trkpt lat="48.81204" lon="2.192">
        <ele>145.9</ele>
        <time>2015-05-11T19:19:36.639Z</time>
      </trkpt>
      <trkpt lat="48.81198" lon="2.192">
        <ele>147</ele>
        <time>2015-05-11T19:19:37.505Z</time>
      </trkpt>
      <trkpt lat="48.81193" lon="2.19201">
        <ele>147.7</ele>
        <time>2015-05-11T19:19:38.513Z</time>
      </trkpt>
      <trkpt lat="48.81187" lon="2.19201">
        <ele>148.4</ele>
        <time>2015-05-11T19:19:39.525Z</time>
      </trkpt>
      <trkpt lat="48.8118" lon="2.19202">
        <ele>149.3</ele>
        <time>2015-05-11T19:19:40.555Z</time>
      </trkpt>
      <trkpt lat="48.81174" lon="2.19203">
        <ele>150</ele>
        <time>2015-05-11T19:19:42.366Z</time>
      </trkpt>
      <trkpt lat="48.81167" lon="2.19204">
        <ele>150.4</ele>
        <time>2015-05-11T19:19:42.537Z</time>
      </trkpt>
      <trkpt lat="48.8116" lon="2.19205">
        <ele>150.7</ele>
        <time>2015-05-11T19:19:43.546Z</time>
      </trkpt>
      <trkpt lat="48.81153" lon="2.19206">
        <ele>151.2</ele>
        <time>2015-05-11T19:19:44.585Z</time>
      </trkpt>
      <trkpt lat="48.81147" lon="2.19205">
        <ele>151.4</ele>
        <time>2015-05-11T19:19:45.501Z</time>
      </trkpt>
      <trkpt lat="48.81142" lon="2.19204">
        <ele>151.6</ele>
        <time>2015-05-11T19:19:46.541Z</time>
      </trkpt>
      <trkpt lat="48.81136" lon="2.19203">
        <ele>152.1</ele>
        <time>2015-05-11T19:19:47.617Z</time>
      </trkpt>
      <trkpt lat="48.81129" lon="2.19203">
        <ele>151.9</ele>
        <time>2015-05-11T19:19:48.622Z</time>
      </trkpt>
      <trkpt lat="48.81117" lon="2.19202">
        <ele>150.2</ele>
        <time>2015-05-11T19:19:49.540Z</time>
      </trkpt>
      <trkpt lat="48.81112" lon="2.19201">
        <ele>150.2</ele>
        <time>2015-05-11T19:19:50.608Z</time>
      </trkpt>
      <trkpt lat="48.81107" lon="2.19198">
        <ele>150.1</ele>
        <time>2015-05-11T19:19:51.568Z</time>
      </trkpt>
      <trkpt lat="48.81099" lon="2.19195">
        <ele>150.2</ele>
        <time>2015-05-11T19:19:53.599Z</time>
      </trkpt>
      <trkpt lat="48.81095" lon="2.19194">
        <ele>150.2</ele>
        <time>2015-05-11T19:19:54.624Z</time>
      </trkpt>
      <trkpt lat="48.8109" lon="2.19194">
        <ele>150.8</ele>
        <time>2015-05-11T19:19:55.551Z</time>
      </trkpt>
      <trkpt lat="48.81086" lon="2.19193">
        <ele>151.8</ele>
        <time>2015-05-11T19:19:56.573Z</time>
      </trkpt>
      <trkpt lat="48.81078" lon="2.19188">
        <ele>153.6</ele>
        <time>2015-05-11T19:19:58.585Z</time>
      </trkpt>
      <trkpt lat="48.81074" lon="2.19186">
        <ele>154.3</ele>
        <time>2015-05-11T19:19:59.548Z</time>
      </trkpt>
      <trkpt lat="48.81067" lon="2.19181">
        <ele>155.3</ele>
        <time>2015-05-11T19:20:01.591Z</time>
      </trkpt>
      <trkpt lat="48.81063" lon="2.19179">
        <ele>155.8</ele>
        <time>2015-05-11T19:20:02.553Z</time>
      </trkpt>
      <trkpt lat="48.81059" lon="2.19176">
        <ele>156.2</ele>
        <time>2015-05-11T19:20:03.565Z</time>
      </trkpt>
      <trkpt lat="48.81055" lon="2.19174">
        <ele>156.5</ele>
        <time>2015-05-11T19:20:04.602Z</time>
      </trkpt>
      <trkpt lat="48.8105" lon="2.1917">
        <ele>156.9</ele>
        <time>2015-05-11T19:20:05.563Z</time>
      </trkpt>
      <trkpt lat="48.81046" lon="2.19165">
        <ele>156.9</ele>
        <time>2015-05-11T19:20:06.597Z</time>
      </trkpt>
      <trkpt lat="48.81042" lon="2.1916">
        <ele>156.7</ele>
        <time>2015-05-11T19:20:07.595Z</time>
      </trkpt>
      <trkpt lat="48.8104" lon="2.19153">
        <ele>156.4</ele>
        <time>2015-05-11T19:20:08.607Z</time>
      </trkpt>
      <trkpt lat="48.81039" lon="2.19146">
        <ele>156.4</ele>
        <time>2015-05-11T19:20:09.626Z</time>
      </trkpt>
      <trkpt lat="48.81036" lon="2.19138">
        <ele>156</ele>
        <time>2015-05-11T19:20:10.624Z</time>
      </trkpt>
      <trkpt lat="48.81034" lon="2.19129">
        <ele>155.1</ele>
        <time>2015-05-11T19:20:11.638Z</time>
      </trkpt>
      <trkpt lat="48.81033" lon="2.19121">
        <ele>154.2</ele>
        <time>2015-05-11T19:20:12.640Z</time>
      </trkpt>
      <trkpt lat="48.81029" lon="2.19113">
        <ele>153.2</ele>
        <time>2015-05-11T19:20:13.554Z</time>
      </trkpt>
      <trkpt lat="48.81026" lon="2.19106">
        <ele>152.7</ele>
        <time>2015-05-11T19:20:14.574Z</time>
      </trkpt>
      <trkpt lat="48.81025" lon="2.19099">
        <ele>152.2</ele>
        <time>2015-05-11T19:20:15.587Z</time>
      </trkpt>
      <trkpt lat="48.81024" lon="2.19091">
        <ele>151.5</ele>
        <time>2015-05-11T19:20:16.596Z</time>
      </trkpt>
      <trkpt lat="48.81022" lon="2.19084">
        <ele>150.9</ele>
        <time>2015-05-11T19:20:17.608Z</time>
      </trkpt>
      <trkpt lat="48.81019" lon="2.19078">
        <ele>150.4</ele>
        <time>2015-05-11T19:20:18.632Z</time>
      </trkpt>
      <trkpt lat="48.81017" lon="2.19071">
        <ele>150.2</ele>
        <time>2015-05-11T19:20:19.537Z</time>
      </trkpt>
      <trkpt lat="48.81016" lon="2.19065">
        <ele>149.4</ele>
        <time>2015-05-11T19:20:20.551Z</time>
      </trkpt>
      <trkpt lat="48.81012" lon="2.19054">
        <ele>147.8</ele>
        <time>2015-05-11T19:20:22.569Z</time>
      </trkpt>
      <trkpt lat="48.81009" lon="2.19048">
        <ele>147.3</ele>
        <time>2015-05-11T19:20:23.588Z</time>
      </trkpt>
      <trkpt lat="48.81006" lon="2.19041">
        <ele>146.5</ele>
        <time>2015-05-11T19:20:24.568Z</time>
      </trkpt>
      <trkpt lat="48.81003" lon="2.19035">
        <ele>146.4</ele>
        <time>2015-05-11T19:20:25.564Z</time>
      </trkpt>
      <trkpt lat="48.81001" lon="2.19028">
        <ele>146.5</ele>
        <time>2015-05-11T19:20:26.590Z</time>
      </trkpt>
      <trkpt lat="48.80998" lon="2.1902">
        <ele>146.1</ele>
        <time>2015-05-11T19:20:27.597Z</time>
      </trkpt>
      <trkpt lat="48.80995" lon="2.19014">
        <ele>145.5</ele>
        <time>2015-05-11T19:20:28.618Z</time>
      </trkpt>
      <trkpt lat="48.80992" lon="2.19008">
        <ele>145.9</ele>
        <time>2015-05-11T19:20:29.622Z</time>
      </trkpt>
      <trkpt lat="48.80987" lon="2.18997">
        <ele>146.4</ele>
        <time>2015-05-11T19:20:31.549Z</time>
      </trkpt>
      <trkpt lat="48.80984" lon="2.18992">
        <ele>146.5</ele>
        <time>2015-05-11T19:20:32.571Z</time>
      </trkpt>
      <trkpt lat="48.80981" lon="2.18986">
        <ele>146.5</ele>
        <time>2015-05-11T19:20:33.611Z</time>
      </trkpt>
      <trkpt lat="48.80979" lon="2.1898">
        <ele>146.2</ele>
        <time>2015-05-11T19:20:34.634Z</time>
      </trkpt>
      <trkpt lat="48.80973" lon="2.18969">
        <ele>146.6</ele>
        <time>2015-05-11T19:20:36.567Z</time>
      </trkpt>
      <trkpt lat="48.80971" lon="2.18964">
        <ele>146.2</ele>
        <time>2015-05-11T19:20:37.584Z</time>
      </trkpt>
      <trkpt lat="48.80966" lon="2.18956">
        <ele>145.9</ele>
        <time>2015-05-11T19:20:38.593Z</time>
      </trkpt>
      <trkpt lat="48.80962" lon="2.18948">
        <ele>145.1</ele>
        <time>2015-05-11T19:20:39.607Z</time>
      </trkpt>
      <trkpt lat="48.80959" lon="2.1894">
        <ele>144.9</ele>
        <time>2015-05-11T19:20:40.550Z</time>
      </trkpt>
      <trkpt lat="48.80957" lon="2.18932">
        <ele>144.6</ele>
        <time>2015-05-11T19:20:41.546Z</time>
      </trkpt>
      <trkpt lat="48.80954" lon="2.18926">
        <ele>144.5</ele>
        <time>2015-05-11T19:20:42.601Z</time>
      </trkpt>
      <trkpt lat="48.80952" lon="2.18919">
        <ele>144.5</ele>
        <time>2015-05-11T19:20:43.597Z</time>
      </trkpt>
      <trkpt lat="48.8095" lon="2.18912">
        <ele>145</ele>
        <time>2015-05-11T19:20:44.615Z</time>
      </trkpt>
      <trkpt lat="48.80945" lon="2.18902">
        <ele>146.6</ele>
        <time>2015-05-11T19:20:45.625Z</time>
      </trkpt>
      <trkpt lat="48.80943" lon="2.18896">
        <ele>146.5</ele>
        <time>2015-05-11T19:20:46.556Z</time>
      </trkpt>
      <trkpt lat="48.8094" lon="2.18889">
        <ele>145.8</ele>
        <time>2015-05-11T19:20:47.553Z</time>
      </trkpt>
      <trkpt lat="48.80937" lon="2.18881">
        <ele>144.9</ele>
        <time>2015-05-11T19:20:48.600Z</time>
      </trkpt>
      <trkpt lat="48.80934" lon="2.18874">
        <ele>144.2</ele>
        <time>2015-05-11T19:20:49.605Z</time>
      </trkpt>
      <trkpt lat="48.8093" lon="2.18863">
        <ele>143</ele>
        <time>2015-05-11T19:20:51.537Z</time>
      </trkpt>
      <trkpt lat="48.80927" lon="2.18857">
        <ele>143</ele>
        <time>2015-05-11T19:20:52.562Z</time>
      </trkpt>
      <trkpt lat="48.80923" lon="2.18845">
        <ele>143.4</ele>
        <time>2015-05-11T19:20:54.603Z</time>
      </trkpt>
      <trkpt lat="48.8092" lon="2.18841">
        <ele>144</ele>
        <time>2015-05-11T19:20:55.640Z</time>
      </trkpt>
      <trkpt lat="48.80918" lon="2.18836">
        <ele>144.1</ele>
        <time>2015-05-11T19:20:56.556Z</time>
      </trkpt>
      <trkpt lat="48.80914" lon="2.1883">
        <ele>144.2</ele>
        <time>2015-05-11T19:20:57.561Z</time>
      </trkpt>
      <trkpt lat="48.8091" lon="2.18824">
        <ele>144.3</ele>
        <time>2015-05-11T19:20:58.579Z</time>
      </trkpt>
      <trkpt lat="48.80907" lon="2.18816">
        <ele>144.6</ele>
        <time>2015-05-11T19:20:59.594Z</time>
      </trkpt>
      <trkpt lat="48.80903" lon="2.18808">
        <ele>144.5</ele>
        <time>2015-05-11T19:21:00.604Z</time>
      </trkpt>
      <trkpt lat="48.80901" lon="2.18801">
        <ele>144.6</ele>
        <time>2015-05-11T19:21:01.615Z</time>
      </trkpt>
      <trkpt lat="48.80898" lon="2.18795">
        <ele>144.6</ele>
        <time>2015-05-11T19:21:02.575Z</time>
      </trkpt>
      <trkpt lat="48.80895" lon="2.18789">
        <ele>144.5</ele>
        <time>2015-05-11T19:21:03.544Z</time>
      </trkpt>
      <trkpt lat="48.8089" lon="2.1878">
        <ele>143.9</ele>
        <time>2015-05-11T19:21:05.570Z</time>
      </trkpt>
      <trkpt lat="48.80888" lon="2.18774">
        <ele>143.5</ele>
        <time>2015-05-11T19:21:06.577Z</time>
      </trkpt>
      <trkpt lat="48.80885" lon="2.18764">
        <ele>143.2</ele>
        <time>2015-05-11T19:21:08.596Z</time>
      </trkpt>
      <trkpt lat="48.80884" lon="2.1876">
        <ele>142.9</ele>
        <time>2015-05-11T19:21:09.641Z</time>
      </trkpt>
      <trkpt lat="48.80885" lon="2.18753">
        <ele>142.8</ele>
        <time>2015-05-11T19:21:51.637Z</time>
      </trkpt>
      <trkpt lat="48.80877" lon="2.18752">
        <ele>142.2</ele>
        <time>2015-05-11T19:21:52.645Z</time>
      </trkpt>
      <trkpt lat="48.8087" lon="2.1875">
        <ele>142.2</ele>
        <time>2015-05-11T19:21:55.592Z</time>
      </trkpt>
      <trkpt lat="48.80866" lon="2.18747">
        <ele>142.5</ele>
        <time>2015-05-11T19:21:56.529Z</time>
      </trkpt>
      <trkpt lat="48.8086" lon="2.18739">
        <ele>143</ele>
        <time>2015-05-11T19:21:58.571Z</time>
      </trkpt>
      <trkpt lat="48.80858" lon="2.18736">
        <ele>143.2</ele>
        <time>2015-05-11T19:21:59.671Z</time>
      </trkpt>
      <trkpt lat="48.80855" lon="2.18731">
        <ele>143.7</ele>
        <time>2015-05-11T19:22:00.555Z</time>
      </trkpt>
      <trkpt lat="48.80851" lon="2.18726">
        <ele>144.2</ele>
        <time>2015-05-11T19:22:01.561Z</time>
      </trkpt>
      <trkpt lat="48.80847" lon="2.1872">
        <ele>144.6</ele>
        <time>2015-05-11T19:22:02.576Z</time>
      </trkpt>
      <trkpt lat="48.80841" lon="2.18713">
        <ele>145</ele>
        <time>2015-05-11T19:22:03.578Z</time>
      </trkpt>
      <trkpt lat="48.80836" lon="2.18707">
        <ele>145.3</ele>
        <time>2015-05-11T19:22:04.584Z</time>
      </trkpt>
      <trkpt lat="48.80829" lon="2.18703">
        <ele>146.4</ele>
        <time>2015-05-11T19:22:05.591Z</time>
      </trkpt>
      <trkpt lat="48.80822" lon="2.18698">
        <ele>147.5</ele>
        <time>2015-05-11T19:22:06.600Z</time>
      </trkpt>
      <trkpt lat="48.80816" lon="2.18693">
        <ele>148.5</ele>
        <time>2015-05-11T19:22:07.615Z</time>
      </trkpt>
      <trkpt lat="48.80812" lon="2.18688">
        <ele>149</ele>
        <time>2015-05-11T19:22:08.506Z</time>
      </trkpt>
      <trkpt lat="48.80807" lon="2.18682">
        <ele>149.2</ele>
        <time>2015-05-11T19:22:09.539Z</time>
      </trkpt>
      <trkpt lat="48.80801" lon="2.18675">
        <ele>149.6</ele>
        <time>2015-05-11T19:22:10.549Z</time>
      </trkpt>
      <trkpt lat="48.80794" lon="2.18669">
        <ele>150.1</ele>
        <time>2015-05-11T19:22:11.556Z</time>
      </trkpt>
      <trkpt lat="48.80788" lon="2.18662">
        <ele>150.4</ele>
        <time>2015-05-11T19:22:12.578Z</time>
      </trkpt>
      <trkpt lat="48.80782" lon="2.18658">
        <ele>150.7</ele>
        <time>2015-05-11T19:22:13.587Z</time>
      </trkpt>
      <trkpt lat="48.80776" lon="2.18653">
        <ele>150.9</ele>
        <time>2015-05-11T19:22:14.502Z</time>
      </trkpt>
      <trkpt lat="48.8077" lon="2.18649">
        <ele>151.1</ele>
        <time>2015-05-11T19:22:15.529Z</time>
      </trkpt>
      <trkpt lat="48.80764" lon="2.18644">
        <ele>151</ele>
        <time>2015-05-11T19:22:16.573Z</time>
      </trkpt>
      <trkpt lat="48.80758" lon="2.1864">
        <ele>150.9</ele>
        <time>2015-05-11T19:22:17.593Z</time>
      </trkpt>
      <trkpt lat="48.80753" lon="2.18636">
        <ele>151.2</ele>
        <time>2015-05-11T19:22:18.616Z</time>
      </trkpt>
      <trkpt lat="48.80748" lon="2.18632">
        <ele>151.4</ele>
        <time>2015-05-11T19:22:19.499Z</time>
      </trkpt>
      <trkpt lat="48.80742" lon="2.18628">
        <ele>151.6</ele>
        <time>2015-05-11T19:22:20.548Z</time>
      </trkpt>
      <trkpt lat="48.80737" lon="2.18623">
        <ele>151.7</ele>
        <time>2015-05-11T19:22:21.577Z</time>
      </trkpt>
      <trkpt lat="48.80731" lon="2.18617">
        <ele>151.8</ele>
        <time>2015-05-11T19:22:22.581Z</time>
      </trkpt>
      <trkpt lat="48.80726" lon="2.18612">
        <ele>151.9</ele>
        <time>2015-05-11T19:22:23.491Z</time>
      </trkpt>
      <trkpt lat="48.8072" lon="2.18608">
        <ele>151.9</ele>
        <time>2015-05-11T19:22:24.551Z</time>
      </trkpt>
      <trkpt lat="48.80707" lon="2.18596">
        <ele>152.9</ele>
        <time>2015-05-11T19:22:27.577Z</time>
      </trkpt>
      <trkpt lat="48.80702" lon="2.18591">
        <ele>153.1</ele>
        <time>2015-05-11T19:22:28.590Z</time>
      </trkpt>
      <trkpt lat="48.80697" lon="2.18584">
        <ele>153.3</ele>
        <time>2015-05-11T19:22:29.520Z</time>
      </trkpt>
      <trkpt lat="48.80692" lon="2.18578">
        <ele>153.7</ele>
        <time>2015-05-11T19:22:30.569Z</time>
      </trkpt>
      <trkpt lat="48.80665" lon="2.18557">
        <ele>155.5</ele>
        <time>2015-05-11T19:22:34.551Z</time>
      </trkpt>
      <trkpt lat="48.80659" lon="2.1855">
        <ele>156.2</ele>
        <time>2015-05-11T19:22:35.599Z</time>
      </trkpt>
      <trkpt lat="48.80654" lon="2.18544">
        <ele>156.6</ele>
        <time>2015-05-11T19:22:36.621Z</time>
      </trkpt>
      <trkpt lat="48.80647" lon="2.18538">
        <ele>155.8</ele>
        <time>2015-05-11T19:22:37.495Z</time>
      </trkpt>
      <trkpt lat="48.80642" lon="2.18533">
        <ele>156.6</ele>
        <time>2015-05-11T19:22:38.524Z</time>
      </trkpt>
      <trkpt lat="48.80637" lon="2.18528">
        <ele>156.8</ele>
        <time>2015-05-11T19:22:39.565Z</time>
      </trkpt>
      <trkpt lat="48.80631" lon="2.18523">
        <ele>156.8</ele>
        <time>2015-05-11T19:22:40.635Z</time>
      </trkpt>
      <trkpt lat="48.80625" lon="2.18519">
        <ele>156.6</ele>
        <time>2015-05-11T19:22:41.531Z</time>
      </trkpt>
      <trkpt lat="48.80619" lon="2.18514">
        <ele>156.2</ele>
        <time>2015-05-11T19:22:42.583Z</time>
      </trkpt>
      <trkpt lat="48.80612" lon="2.18508">
        <ele>154.7</ele>
        <time>2015-05-11T19:22:43.588Z</time>
      </trkpt>
      <trkpt lat="48.80607" lon="2.18503">
        <ele>154.4</ele>
        <time>2015-05-11T19:22:44.598Z</time>
      </trkpt>
      <trkpt lat="48.806" lon="2.18498">
        <ele>154.2</ele>
        <time>2015-05-11T19:22:45.543Z</time>
      </trkpt>
      <trkpt lat="48.80593" lon="2.18491">
        <ele>154.4</ele>
        <time>2015-05-11T19:22:46.556Z</time>
      </trkpt>
      <trkpt lat="48.80587" lon="2.18486">
        <ele>154.6</ele>
        <time>2015-05-11T19:22:47.567Z</time>
      </trkpt>
      <trkpt lat="48.80583" lon="2.18481">
        <ele>154.7</ele>
        <time>2015-05-11T19:22:48.592Z</time>
      </trkpt>
      <trkpt lat="48.80579" lon="2.18475">
        <ele>154.7</ele>
        <time>2015-05-11T19:22:49.523Z</time>
      </trkpt>
      <trkpt lat="48.80575" lon="2.18469">
        <ele>154.8</ele>
        <time>2015-05-11T19:22:50.533Z</time>
      </trkpt>
      <trkpt lat="48.80571" lon="2.18463">
        <ele>155.5</ele>
        <time>2015-05-11T19:22:51.546Z</time>
      </trkpt>
      <trkpt lat="48.80565" lon="2.18454">
        <ele>154.6</ele>
        <time>2015-05-11T19:22:52.557Z</time>
      </trkpt>
      <trkpt lat="48.80561" lon="2.18446">
        <ele>154.7</ele>
        <time>2015-05-11T19:22:53.567Z</time>
      </trkpt>
      <trkpt lat="48.80556" lon="2.18439">
        <ele>155</ele>
        <time>2015-05-11T19:22:54.581Z</time>
      </trkpt>
      <trkpt lat="48.80551" lon="2.18432">
        <ele>154.8</ele>
        <time>2015-05-11T19:22:55.587Z</time>
      </trkpt>
      <trkpt lat="48.80547" lon="2.18426">
        <ele>155</ele>
        <time>2015-05-11T19:22:56.611Z</time>
      </trkpt>
      <trkpt lat="48.80544" lon="2.1842">
        <ele>155.1</ele>
        <time>2015-05-11T19:22:57.538Z</time>
      </trkpt>
      <trkpt lat="48.80541" lon="2.18411">
        <ele>155.4</ele>
        <time>2015-05-11T19:22:58.537Z</time>
      </trkpt>
      <trkpt lat="48.80539" lon="2.18404">
        <ele>154.8</ele>
        <time>2015-05-11T19:22:59.554Z</time>
      </trkpt>
      <trkpt lat="48.80538" lon="2.18395">
        <ele>153.7</ele>
        <time>2015-05-11T19:23:00.571Z</time>
      </trkpt>
      <trkpt lat="48.80536" lon="2.18386">
        <ele>153.3</ele>
        <time>2015-05-11T19:23:01.589Z</time>
      </trkpt>
      <trkpt lat="48.80534" lon="2.18378">
        <ele>153</ele>
        <time>2015-05-11T19:23:02.608Z</time>
      </trkpt>
      <trkpt lat="48.80532" lon="2.1837">
        <ele>152.5</ele>
        <time>2015-05-11T19:23:03.534Z</time>
      </trkpt>
      <trkpt lat="48.8053" lon="2.18361">
        <ele>152.1</ele>
        <time>2015-05-11T19:23:04.599Z</time>
      </trkpt>
      <trkpt lat="48.80529" lon="2.18351">
        <ele>151.2</ele>
        <time>2015-05-11T19:23:05.594Z</time>
      </trkpt>
      <trkpt lat="48.80528" lon="2.18343">
        <ele>150.8</ele>
        <time>2015-05-11T19:23:06.599Z</time>
      </trkpt>
      <trkpt lat="48.80527" lon="2.18333">
        <ele>150.6</ele>
        <time>2015-05-11T19:23:07.608Z</time>
      </trkpt>
      <trkpt lat="48.80526" lon="2.18325">
        <ele>150.9</ele>
        <time>2015-05-11T19:23:08.515Z</time>
      </trkpt>
      <trkpt lat="48.80526" lon="2.18318">
        <ele>151.2</ele>
        <time>2015-05-11T19:23:09.551Z</time>
      </trkpt>
      <trkpt lat="48.80527" lon="2.1831">
        <ele>150.7</ele>
        <time>2015-05-11T19:23:10.556Z</time>
      </trkpt>
      <trkpt lat="48.80526" lon="2.18301">
        <ele>150.2</ele>
        <time>2015-05-11T19:23:11.565Z</time>
      </trkpt>
      <trkpt lat="48.80524" lon="2.18293">
        <ele>149.8</ele>
        <time>2015-05-11T19:23:12.592Z</time>
      </trkpt>
      <trkpt lat="48.80522" lon="2.18284">
        <ele>149.8</ele>
        <time>2015-05-11T19:23:13.599Z</time>
      </trkpt>
      <trkpt lat="48.8052" lon="2.18275">
        <ele>149.9</ele>
        <time>2015-05-11T19:23:14.604Z</time>
      </trkpt>
      <trkpt lat="48.8052" lon="2.18266">
        <ele>149.3</ele>
        <time>2015-05-11T19:23:15.515Z</time>
      </trkpt>
      <trkpt lat="48.80519" lon="2.18257">
        <ele>149.2</ele>
        <time>2015-05-11T19:23:16.543Z</time>
      </trkpt>
      <trkpt lat="48.80519" lon="2.18249">
        <ele>149.2</ele>
        <time>2015-05-11T19:23:17.546Z</time>
      </trkpt>
      <trkpt lat="48.80517" lon="2.1824">
        <ele>149.2</ele>
        <time>2015-05-11T19:23:18.565Z</time>
      </trkpt>
      <trkpt lat="48.80517" lon="2.18232">
        <ele>148.8</ele>
        <time>2015-05-11T19:23:19.592Z</time>
      </trkpt>
      <trkpt lat="48.80517" lon="2.18224">
        <ele>148.2</ele>
        <time>2015-05-11T19:23:20.595Z</time>
      </trkpt>
      <trkpt lat="48.80517" lon="2.18216">
        <ele>147.8</ele>
        <time>2015-05-11T19:23:21.545Z</time>
      </trkpt>
      <trkpt lat="48.80514" lon="2.18207">
        <ele>147.8</ele>
        <time>2015-05-11T19:23:22.543Z</time>
      </trkpt>
      <trkpt lat="48.80511" lon="2.18198">
        <ele>147.9</ele>
        <time>2015-05-11T19:23:23.550Z</time>
      </trkpt>
      <trkpt lat="48.80509" lon="2.1819">
        <ele>147.9</ele>
        <time>2015-05-11T19:23:24.581Z</time>
      </trkpt>
      <trkpt lat="48.80509" lon="2.1818">
        <ele>147.6</ele>
        <time>2015-05-11T19:23:25.607Z</time>
      </trkpt>
      <trkpt lat="48.80507" lon="2.18171">
        <ele>147.6</ele>
        <time>2015-05-11T19:23:26.612Z</time>
      </trkpt>
      <trkpt lat="48.80504" lon="2.18161">
        <ele>147.5</ele>
        <time>2015-05-11T19:23:27.620Z</time>
      </trkpt>
      <trkpt lat="48.805" lon="2.18152">
        <ele>147.4</ele>
        <time>2015-05-11T19:23:28.511Z</time>
      </trkpt>
      <trkpt lat="48.80499" lon="2.18143">
        <ele>147.6</ele>
        <time>2015-05-11T19:23:29.542Z</time>
      </trkpt>
      <trkpt lat="48.80499" lon="2.18133">
        <ele>147.8</ele>
        <time>2015-05-11T19:23:30.548Z</time>
      </trkpt>
      <trkpt lat="48.80499" lon="2.18125">
        <ele>148.1</ele>
        <time>2015-05-11T19:23:31.526Z</time>
      </trkpt>
      <trkpt lat="48.80497" lon="2.18116">
        <ele>147.6</ele>
        <time>2015-05-11T19:23:32.520Z</time>
      </trkpt>
      <trkpt lat="48.80495" lon="2.18107">
        <ele>147.4</ele>
        <time>2015-05-11T19:23:33.618Z</time>
      </trkpt>
      <trkpt lat="48.80494" lon="2.18098">
        <ele>147.3</ele>
        <time>2015-05-11T19:23:34.536Z</time>
      </trkpt>
      <trkpt lat="48.80492" lon="2.18089">
        <ele>146.9</ele>
        <time>2015-05-11T19:23:35.519Z</time>
      </trkpt>
      <trkpt lat="48.8049" lon="2.18081">
        <ele>146.7</ele>
        <time>2015-05-11T19:23:36.606Z</time>
      </trkpt>
      <trkpt lat="48.8049" lon="2.18072">
        <ele>146.3</ele>
        <time>2015-05-11T19:23:37.615Z</time>
      </trkpt>
      <trkpt lat="48.80487" lon="2.18063">
        <ele>145.6</ele>
        <time>2015-05-11T19:23:38.632Z</time>
      </trkpt>
      <trkpt lat="48.80485" lon="2.18054">
        <ele>145.5</ele>
        <time>2015-05-11T19:23:39.636Z</time>
      </trkpt>
      <trkpt lat="48.80482" lon="2.18046">
        <ele>145.5</ele>
        <time>2015-05-11T19:23:40.634Z</time>
      </trkpt>
      <trkpt lat="48.8048" lon="2.18038">
        <ele>145.3</ele>
        <time>2015-05-11T19:23:41.626Z</time>
      </trkpt>
      <trkpt lat="48.80478" lon="2.18029">
        <ele>145.1</ele>
        <time>2015-05-11T19:23:42.580Z</time>
      </trkpt>
      <trkpt lat="48.80475" lon="2.18019">
        <ele>145</ele>
        <time>2015-05-11T19:23:43.595Z</time>
      </trkpt>
      <trkpt lat="48.80473" lon="2.18009">
        <ele>145</ele>
        <time>2015-05-11T19:23:44.624Z</time>
      </trkpt>
      <trkpt lat="48.80472" lon="2.18">
        <ele>145.1</ele>
        <time>2015-05-11T19:23:45.678Z</time>
      </trkpt>
      <trkpt lat="48.8047" lon="2.17991">
        <ele>145</ele>
        <time>2015-05-11T19:23:46.544Z</time>
      </trkpt>
      <trkpt lat="48.8047" lon="2.17981">
        <ele>145.2</ele>
        <time>2015-05-11T19:23:47.565Z</time>
      </trkpt>
      <trkpt lat="48.80469" lon="2.17972">
        <ele>145.1</ele>
        <time>2015-05-11T19:23:48.591Z</time>
      </trkpt>
      <trkpt lat="48.80468" lon="2.17964">
        <ele>145.5</ele>
        <time>2015-05-11T19:23:49.599Z</time>
      </trkpt>
      <trkpt lat="48.80468" lon="2.17955">
        <ele>146</ele>
        <time>2015-05-11T19:23:50.574Z</time>
      </trkpt>
      <trkpt lat="48.80467" lon="2.17947">
        <ele>146.6</ele>
        <time>2015-05-11T19:23:51.552Z</time>
      </trkpt>
      <trkpt lat="48.80467" lon="2.17939">
        <ele>146.4</ele>
        <time>2015-05-11T19:23:52.605Z</time>
      </trkpt>
      <trkpt lat="48.80465" lon="2.17931">
        <ele>146.9</ele>
        <time>2015-05-11T19:23:53.527Z</time>
      </trkpt>
      <trkpt lat="48.80464" lon="2.17921">
        <ele>146.9</ele>
        <time>2015-05-11T19:23:54.641Z</time>
      </trkpt>
      <trkpt lat="48.80463" lon="2.17912">
        <ele>147.2</ele>
        <time>2015-05-11T19:23:55.527Z</time>
      </trkpt>
      <trkpt lat="48.80462" lon="2.17904">
        <ele>147.2</ele>
        <time>2015-05-11T19:23:56.537Z</time>
      </trkpt>
      <trkpt lat="48.80462" lon="2.17894">
        <ele>147.2</ele>
        <time>2015-05-11T19:23:57.583Z</time>
      </trkpt>
      <trkpt lat="48.80463" lon="2.17885">
        <ele>147.3</ele>
        <time>2015-05-11T19:23:58.534Z</time>
      </trkpt>
      <trkpt lat="48.80461" lon="2.17877">
        <ele>148</ele>
        <time>2015-05-11T19:23:59.506Z</time>
      </trkpt>
      <trkpt lat="48.8046" lon="2.17868">
        <ele>148.4</ele>
        <time>2015-05-11T19:24:00.559Z</time>
      </trkpt>
      <trkpt lat="48.8046" lon="2.17859">
        <ele>148.5</ele>
        <time>2015-05-11T19:24:01.568Z</time>
      </trkpt>
      <trkpt lat="48.80459" lon="2.1785">
        <ele>148.4</ele>
        <time>2015-05-11T19:24:02.572Z</time>
      </trkpt>
      <trkpt lat="48.80458" lon="2.17841">
        <ele>148.1</ele>
        <time>2015-05-11T19:24:03.592Z</time>
      </trkpt>
      <trkpt lat="48.80456" lon="2.17832">
        <ele>148.1</ele>
        <time>2015-05-11T19:24:04.505Z</time>
      </trkpt>
      <trkpt lat="48.80455" lon="2.17824">
        <ele>147.9</ele>
        <time>2015-05-11T19:24:05.579Z</time>
      </trkpt>
      <trkpt lat="48.80453" lon="2.17816">
        <ele>147.8</ele>
        <time>2015-05-11T19:24:06.584Z</time>
      </trkpt>
      <trkpt lat="48.80451" lon="2.17805">
        <ele>148</ele>
        <time>2015-05-11T19:24:08.623Z</time>
      </trkpt>
      <trkpt lat="48.8045" lon="2.17797">
        <ele>148</ele>
        <time>2015-05-11T19:24:09.526Z</time>
      </trkpt>
      <trkpt lat="48.80446" lon="2.17788">
        <ele>148.2</ele>
        <time>2015-05-11T19:24:10.523Z</time>
      </trkpt>
      <trkpt lat="48.80443" lon="2.17778">
        <ele>148.3</ele>
        <time>2015-05-11T19:24:11.566Z</time>
      </trkpt>
      <trkpt lat="48.8044" lon="2.17769">
        <ele>148.3</ele>
        <time>2015-05-11T19:24:12.633Z</time>
      </trkpt>
      <trkpt lat="48.80438" lon="2.17759">
        <ele>148.1</ele>
        <time>2015-05-11T19:24:13.537Z</time>
      </trkpt>
      <trkpt lat="48.80425" lon="2.17708">
        <ele>147.6</ele>
        <time>2015-05-11T19:24:19.509Z</time>
      </trkpt>
      <trkpt lat="48.80419" lon="2.17698">
        <ele>145.6</ele>
        <time>2015-05-11T19:24:20.533Z</time>
      </trkpt>
      <trkpt lat="48.80417" lon="2.1769">
        <ele>145.4</ele>
        <time>2015-05-11T19:24:21.584Z</time>
      </trkpt>
      <trkpt lat="48.80416" lon="2.17679">
        <ele>145.7</ele>
        <time>2015-05-11T19:24:22.606Z</time>
      </trkpt>
      <trkpt lat="48.80417" lon="2.17669">
        <ele>146</ele>
        <time>2015-05-11T19:24:23.610Z</time>
      </trkpt>
      <trkpt lat="48.80418" lon="2.17659">
        <ele>146</ele>
        <time>2015-05-11T19:24:24.607Z</time>
      </trkpt>
      <trkpt lat="48.80419" lon="2.17642">
        <ele>145.7</ele>
        <time>2015-05-11T19:24:26.567Z</time>
      </trkpt>
      <trkpt lat="48.80419" lon="2.17634">
        <ele>145.2</ele>
        <time>2015-05-11T19:24:27.560Z</time>
      </trkpt>
      <trkpt lat="48.80418" lon="2.17627">
        <ele>144.9</ele>
        <time>2015-05-11T19:24:28.567Z</time>
      </trkpt>
      <trkpt lat="48.80418" lon="2.17619">
        <ele>144.8</ele>
        <time>2015-05-11T19:24:29.590Z</time>
      </trkpt>
      <trkpt lat="48.80417" lon="2.17611">
        <ele>144.7</ele>
        <time>2015-05-11T19:24:30.596Z</time>
      </trkpt>
      <trkpt lat="48.80416" lon="2.17604">
        <ele>144.6</ele>
        <time>2015-05-11T19:24:31.523Z</time>
      </trkpt>
      <trkpt lat="48.80415" lon="2.17596">
        <ele>144.4</ele>
        <time>2015-05-11T19:24:32.529Z</time>
      </trkpt>
      <trkpt lat="48.80415" lon="2.17588">
        <ele>144.4</ele>
        <time>2015-05-11T19:24:33.542Z</time>
      </trkpt>
      <trkpt lat="48.80414" lon="2.1758">
        <ele>144.1</ele>
        <time>2015-05-11T19:24:34.566Z</time>
      </trkpt>
      <trkpt lat="48.80413" lon="2.17572">
        <ele>143.8</ele>
        <time>2015-05-11T19:24:35.577Z</time>
      </trkpt>
      <trkpt lat="48.80412" lon="2.17564">
        <ele>143.9</ele>
        <time>2015-05-11T19:24:36.582Z</time>
      </trkpt>
      <trkpt lat="48.80411" lon="2.17557">
        <ele>143.9</ele>
        <time>2015-05-11T19:24:37.597Z</time>
      </trkpt>
      <trkpt lat="48.8041" lon="2.17549">
        <ele>143.8</ele>
        <time>2015-05-11T19:24:38.607Z</time>
      </trkpt>
      <trkpt lat="48.80409" lon="2.1754">
        <ele>143.5</ele>
        <time>2015-05-11T19:24:39.537Z</time>
      </trkpt>
      <trkpt lat="48.80408" lon="2.17532">
        <ele>144</ele>
        <time>2015-05-11T19:24:40.547Z</time>
      </trkpt>
      <trkpt lat="48.80409" lon="2.17525">
        <ele>144.2</ele>
        <time>2015-05-11T19:24:41.574Z</time>
      </trkpt>
      <trkpt lat="48.80407" lon="2.17517">
        <ele>144.3</ele>
        <time>2015-05-11T19:24:42.602Z</time>
      </trkpt>
      <trkpt lat="48.80407" lon="2.17509">
        <ele>144.4</ele>
        <time>2015-05-11T19:24:43.610Z</time>
      </trkpt>
      <trkpt lat="48.80407" lon="2.17502">
        <ele>144.1</ele>
        <time>2015-05-11T19:24:44.555Z</time>
      </trkpt>
      <trkpt lat="48.80408" lon="2.17495">
        <ele>144.1</ele>
        <time>2015-05-11T19:24:45.562Z</time>
      </trkpt>
      <trkpt lat="48.80409" lon="2.17488">
        <ele>144.3</ele>
        <time>2015-05-11T19:24:46.570Z</time>
      </trkpt>
      <trkpt lat="48.80409" lon="2.17481">
        <ele>144.3</ele>
        <time>2015-05-11T19:24:47.617Z</time>
      </trkpt>
      <trkpt lat="48.80409" lon="2.17474">
        <ele>144.1</ele>
        <time>2015-05-11T19:24:48.530Z</time>
      </trkpt>
      <trkpt lat="48.80409" lon="2.17466">
        <ele>144</ele>
        <time>2015-05-11T19:24:49.559Z</time>
      </trkpt>
      <trkpt lat="48.80408" lon="2.17458">
        <ele>144</ele>
        <time>2015-05-11T19:24:50.619Z</time>
      </trkpt>
      <trkpt lat="48.80408" lon="2.17451">
        <ele>143.8</ele>
        <time>2015-05-11T19:24:51.528Z</time>
      </trkpt>
      <trkpt lat="48.80407" lon="2.17443">
        <ele>143.6</ele>
        <time>2015-05-11T19:24:52.532Z</time>
      </trkpt>
      <trkpt lat="48.80407" lon="2.17435">
        <ele>143.1</ele>
        <time>2015-05-11T19:24:53.549Z</time>
      </trkpt>
      <trkpt lat="48.80407" lon="2.17427">
        <ele>142.9</ele>
        <time>2015-05-11T19:24:54.550Z</time>
      </trkpt>
      <trkpt lat="48.80407" lon="2.1742">
        <ele>142.9</ele>
        <time>2015-05-11T19:24:55.509Z</time>
      </trkpt>
      <trkpt lat="48.80408" lon="2.17414">
        <ele>142.6</ele>
        <time>2015-05-11T19:24:56.532Z</time>
      </trkpt>
      <trkpt lat="48.80408" lon="2.17405">
        <ele>142.4</ele>
        <time>2015-05-11T19:24:57.548Z</time>
      </trkpt>
      <trkpt lat="48.80408" lon="2.17398">
        <ele>142.2</ele>
        <time>2015-05-11T19:24:58.561Z</time>
      </trkpt>
      <trkpt lat="48.80409" lon="2.17391">
        <ele>142.1</ele>
        <time>2015-05-11T19:24:59.574Z</time>
      </trkpt>
      <trkpt lat="48.80409" lon="2.17384">
        <ele>142.2</ele>
        <time>2015-05-11T19:25:00.576Z</time>
      </trkpt>
      <trkpt lat="48.80408" lon="2.17375">
        <ele>142.4</ele>
        <time>2015-05-11T19:25:01.497Z</time>
      </trkpt>
      <trkpt lat="48.80408" lon="2.17367">
        <ele>142.3</ele>
        <time>2015-05-11T19:25:02.624Z</time>
      </trkpt>
      <trkpt lat="48.80407" lon="2.17359">
        <ele>142</ele>
        <time>2015-05-11T19:25:03.511Z</time>
      </trkpt>
      <trkpt lat="48.80406" lon="2.1735">
        <ele>141.7</ele>
        <time>2015-05-11T19:25:04.524Z</time>
      </trkpt>
      <trkpt lat="48.80405" lon="2.17342">
        <ele>141.7</ele>
        <time>2015-05-11T19:25:05.562Z</time>
      </trkpt>
      <trkpt lat="48.80404" lon="2.17333">
        <ele>142.3</ele>
        <time>2015-05-11T19:25:06.586Z</time>
      </trkpt>
      <trkpt lat="48.80403" lon="2.17325">
        <ele>142.5</ele>
        <time>2015-05-11T19:25:07.522Z</time>
      </trkpt>
      <trkpt lat="48.80403" lon="2.17317">
        <ele>142.6</ele>
        <time>2015-05-11T19:25:08.528Z</time>
      </trkpt>
      <trkpt lat="48.80402" lon="2.17309">
        <ele>142.5</ele>
        <time>2015-05-11T19:25:09.566Z</time>
      </trkpt>
      <trkpt lat="48.80403" lon="2.17302">
        <ele>142.5</ele>
        <time>2015-05-11T19:25:10.572Z</time>
      </trkpt>
      <trkpt lat="48.80406" lon="2.17297">
        <ele>142.6</ele>
        <time>2015-05-11T19:25:11.592Z</time>
      </trkpt>
      <trkpt lat="48.80406" lon="2.17289">
        <ele>142.7</ele>
        <time>2015-05-11T19:25:12.599Z</time>
      </trkpt>
      <trkpt lat="48.80406" lon="2.1728">
        <ele>143.1</ele>
        <time>2015-05-11T19:25:13.608Z</time>
      </trkpt>
      <trkpt lat="48.80405" lon="2.17271">
        <ele>143.2</ele>
        <time>2015-05-11T19:25:14.615Z</time>
      </trkpt>
      <trkpt lat="48.80408" lon="2.17258">
        <ele>143.3</ele>
        <time>2015-05-11T19:25:16.541Z</time>
      </trkpt>
      <trkpt lat="48.80408" lon="2.17251">
        <ele>143.2</ele>
        <time>2015-05-11T19:25:17.642Z</time>
      </trkpt>
      <trkpt lat="48.80407" lon="2.17244">
        <ele>143.3</ele>
        <time>2015-05-11T19:25:18.579Z</time>
      </trkpt>
      <trkpt lat="48.80407" lon="2.17237">
        <ele>143.2</ele>
        <time>2015-05-11T19:25:19.548Z</time>
      </trkpt>
      <trkpt lat="48.80407" lon="2.1723">
        <ele>143.3</ele>
        <time>2015-05-11T19:25:20.556Z</time>
      </trkpt>
      <trkpt lat="48.80406" lon="2.17223">
        <ele>143</ele>
        <time>2015-05-11T19:25:21.565Z</time>
      </trkpt>
      <trkpt lat="48.80406" lon="2.17216">
        <ele>142.9</ele>
        <time>2015-05-11T19:25:22.581Z</time>
      </trkpt>
      <trkpt lat="48.80404" lon="2.17208">
        <ele>143.1</ele>
        <time>2015-05-11T19:25:23.589Z</time>
      </trkpt>
      <trkpt lat="48.80403" lon="2.172">
        <ele>142.7</ele>
        <time>2015-05-11T19:25:24.692Z</time>
      </trkpt>
      <trkpt lat="48.80403" lon="2.17192">
        <ele>142.5</ele>
        <time>2015-05-11T19:25:25.537Z</time>
      </trkpt>
      <trkpt lat="48.80402" lon="2.17185">
        <ele>142.5</ele>
        <time>2015-05-11T19:25:26.551Z</time>
      </trkpt>
      <trkpt lat="48.80401" lon="2.17178">
        <ele>142.8</ele>
        <time>2015-05-11T19:25:27.567Z</time>
      </trkpt>
      <trkpt lat="48.80404" lon="2.17165">
        <ele>143</ele>
        <time>2015-05-11T19:25:29.594Z</time>
      </trkpt>
      <trkpt lat="48.80404" lon="2.17159">
        <ele>143.1</ele>
        <time>2015-05-11T19:25:30.624Z</time>
      </trkpt>
      <trkpt lat="48.80405" lon="2.17152">
        <ele>143.2</ele>
        <time>2015-05-11T19:25:31.556Z</time>
      </trkpt>
      <trkpt lat="48.80406" lon="2.17145">
        <ele>143.2</ele>
        <time>2015-05-11T19:25:32.504Z</time>
      </trkpt>
      <trkpt lat="48.80406" lon="2.17138">
        <ele>142.9</ele>
        <time>2015-05-11T19:25:33.178Z</time>
      </trkpt>
      <trkpt lat="48.80407" lon="2.1713">
        <ele>142.8</ele>
        <time>2015-05-11T19:25:34.554Z</time>
      </trkpt>
      <trkpt lat="48.80407" lon="2.17122">
        <ele>143</ele>
        <time>2015-05-11T19:25:35.586Z</time>
      </trkpt>
      <trkpt lat="48.80407" lon="2.17114">
        <ele>143.1</ele>
        <time>2015-05-11T19:25:36.611Z</time>
      </trkpt>
      <trkpt lat="48.8041" lon="2.17101">
        <ele>143.3</ele>
        <time>2015-05-11T19:25:38.567Z</time>
      </trkpt>
      <trkpt lat="48.80411" lon="2.17095">
        <ele>143.5</ele>
        <time>2015-05-11T19:25:39.588Z</time>
      </trkpt>
      <trkpt lat="48.80412" lon="2.17088">
        <ele>143.7</ele>
        <time>2015-05-11T19:25:40.508Z</time>
      </trkpt>
      <trkpt lat="48.80412" lon="2.1708">
        <ele>144.2</ele>
        <time>2015-05-11T19:25:41.566Z</time>
      </trkpt>
      <trkpt lat="48.80411" lon="2.17073">
        <ele>144.6</ele>
        <time>2015-05-11T19:25:42.765Z</time>
      </trkpt>
      <trkpt lat="48.80412" lon="2.17065">
        <ele>144.9</ele>
        <time>2015-05-11T19:25:43.580Z</time>
      </trkpt>
      <trkpt lat="48.80412" lon="2.17058">
        <ele>144.9</ele>
        <time>2015-05-11T19:25:44.602Z</time>
      </trkpt>
      <trkpt lat="48.80412" lon="2.1705">
        <ele>144.7</ele>
        <time>2015-05-11T19:25:45.547Z</time>
      </trkpt>
      <trkpt lat="48.80413" lon="2.17041">
        <ele>144.8</ele>
        <time>2015-05-11T19:25:46.547Z</time>
      </trkpt>
      <trkpt lat="48.80413" lon="2.17033">
        <ele>144.9</ele>
        <time>2015-05-11T19:25:47.556Z</time>
      </trkpt>
      <trkpt lat="48.80414" lon="2.17026">
        <ele>145</ele>
        <time>2015-05-11T19:25:48.570Z</time>
      </trkpt>
      <trkpt lat="48.80415" lon="2.1702">
        <ele>144.8</ele>
        <time>2015-05-11T19:25:49.573Z</time>
      </trkpt>
      <trkpt lat="48.80418" lon="2.17014">
        <ele>144.9</ele>
        <time>2015-05-11T19:25:50.589Z</time>
      </trkpt>
      <trkpt lat="48.80419" lon="2.17007">
        <ele>145</ele>
        <time>2015-05-11T19:25:51.597Z</time>
      </trkpt>
      <trkpt lat="48.80418" lon="2.16999">
        <ele>144.8</ele>
        <time>2015-05-11T19:25:52.599Z</time>
      </trkpt>
      <trkpt lat="48.80418" lon="2.16992">
        <ele>144.4</ele>
        <time>2015-05-11T19:25:53.602Z</time>
      </trkpt>
      <trkpt lat="48.80419" lon="2.16985">
        <ele>144.3</ele>
        <time>2015-05-11T19:25:54.609Z</time>
      </trkpt>
      <trkpt lat="48.80419" lon="2.16978">
        <ele>144.3</ele>
        <time>2015-05-11T19:25:55.511Z</time>
      </trkpt>
      <trkpt lat="48.80419" lon="2.16971">
        <ele>144.5</ele>
        <time>2015-05-11T19:25:56.543Z</time>
      </trkpt>
      <trkpt lat="48.80417" lon="2.16963">
        <ele>144.7</ele>
        <time>2015-05-11T19:25:57.547Z</time>
      </trkpt>
      <trkpt lat="48.80414" lon="2.16956">
        <ele>145</ele>
        <time>2015-05-11T19:25:58.575Z</time>
      </trkpt>
      <trkpt lat="48.80413" lon="2.16949">
        <ele>145.1</ele>
        <time>2015-05-11T19:25:59.576Z</time>
      </trkpt>
      <trkpt lat="48.80414" lon="2.16937">
        <ele>145.1</ele>
        <time>2015-05-11T19:26:01.595Z</time>
      </trkpt>
      <trkpt lat="48.80415" lon="2.16931">
        <ele>145.2</ele>
        <time>2015-05-11T19:26:02.613Z</time>
      </trkpt>
      <trkpt lat="48.80415" lon="2.16917">
        <ele>145.6</ele>
        <time>2015-05-11T19:26:04.527Z</time>
      </trkpt>
      <trkpt lat="48.80412" lon="2.16911">
        <ele>145.8</ele>
        <time>2015-05-11T19:26:05.554Z</time>
      </trkpt>
      <trkpt lat="48.8041" lon="2.16904">
        <ele>145.5</ele>
        <time>2015-05-11T19:26:06.586Z</time>
      </trkpt>
      <trkpt lat="48.80408" lon="2.16898">
        <ele>145.4</ele>
        <time>2015-05-11T19:26:07.594Z</time>
      </trkpt>
      <trkpt lat="48.80405" lon="2.1689">
        <ele>145.6</ele>
        <time>2015-05-11T19:26:08.933Z</time>
      </trkpt>
      <trkpt lat="48.80404" lon="2.16882">
        <ele>145.7</ele>
        <time>2015-05-11T19:26:09.537Z</time>
      </trkpt>
      <trkpt lat="48.80402" lon="2.16871">
        <ele>145.9</ele>
        <time>2015-05-11T19:26:10.532Z</time>
      </trkpt>
      <trkpt lat="48.80402" lon="2.1686">
        <ele>146</ele>
        <time>2015-05-11T19:26:11.541Z</time>
      </trkpt>
      <trkpt lat="48.80403" lon="2.1685">
        <ele>146.5</ele>
        <time>2015-05-11T19:26:12.571Z</time>
      </trkpt>
      <trkpt lat="48.80402" lon="2.16841">
        <ele>146.9</ele>
        <time>2015-05-11T19:26:13.565Z</time>
      </trkpt>
      <trkpt lat="48.80402" lon="2.16832">
        <ele>147</ele>
        <time>2015-05-11T19:26:14.575Z</time>
      </trkpt>
      <trkpt lat="48.80401" lon="2.16823">
        <ele>146.9</ele>
        <time>2015-05-11T19:26:15.593Z</time>
      </trkpt>
      <trkpt lat="48.804" lon="2.16813">
        <ele>147.1</ele>
        <time>2015-05-11T19:26:16.600Z</time>
      </trkpt>
      <trkpt lat="48.80398" lon="2.16804">
        <ele>147.1</ele>
        <time>2015-05-11T19:26:17.604Z</time>
      </trkpt>
      <trkpt lat="48.80398" lon="2.16795">
        <ele>148</ele>
        <time>2015-05-11T19:26:18.617Z</time>
      </trkpt>
      <trkpt lat="48.80396" lon="2.16785">
        <ele>147.4</ele>
        <time>2015-05-11T19:26:19.518Z</time>
      </trkpt>
      <trkpt lat="48.80395" lon="2.16775">
        <ele>146.6</ele>
        <time>2015-05-11T19:26:20.525Z</time>
      </trkpt>
      <trkpt lat="48.80393" lon="2.16767">
        <ele>146.7</ele>
        <time>2015-05-11T19:26:21.531Z</time>
      </trkpt>
      <trkpt lat="48.80391" lon="2.16759">
        <ele>146.8</ele>
        <time>2015-05-11T19:26:22.586Z</time>
      </trkpt>
      <trkpt lat="48.80388" lon="2.16751">
        <ele>147</ele>
        <time>2015-05-11T19:26:23.591Z</time>
      </trkpt>
      <trkpt lat="48.80385" lon="2.16744">
        <ele>147</ele>
        <time>2015-05-11T19:26:24.597Z</time>
      </trkpt>
      <trkpt lat="48.80385" lon="2.16738">
        <ele>146.8</ele>
        <time>2015-05-11T19:26:25.608Z</time>
      </trkpt>
      <trkpt lat="48.80382" lon="2.16731">
        <ele>147</ele>
        <time>2015-05-11T19:26:26.509Z</time>
      </trkpt>
      <trkpt lat="48.80379" lon="2.16725">
        <ele>146.9</ele>
        <time>2015-05-11T19:26:27.519Z</time>
      </trkpt>
      <trkpt lat="48.80374" lon="2.16717">
        <ele>147.3</ele>
        <time>2015-05-11T19:26:28.543Z</time>
      </trkpt>
      <trkpt lat="48.80368" lon="2.16708">
        <ele>147.6</ele>
        <time>2015-05-11T19:26:29.550Z</time>
      </trkpt>
      <trkpt lat="48.80362" lon="2.16701">
        <ele>147.9</ele>
        <time>2015-05-11T19:26:30.573Z</time>
      </trkpt>
      <trkpt lat="48.80358" lon="2.16694">
        <ele>148</ele>
        <time>2015-05-11T19:26:31.580Z</time>
      </trkpt>
      <trkpt lat="48.80355" lon="2.16688">
        <ele>147.8</ele>
        <time>2015-05-11T19:26:32.612Z</time>
      </trkpt>
      <trkpt lat="48.8035" lon="2.16681">
        <ele>147.8</ele>
        <time>2015-05-11T19:26:33.529Z</time>
      </trkpt>
      <trkpt lat="48.80347" lon="2.16674">
        <ele>148</ele>
        <time>2015-05-11T19:26:34.534Z</time>
      </trkpt>
      <trkpt lat="48.80344" lon="2.16668">
        <ele>147.9</ele>
        <time>2015-05-11T19:26:35.538Z</time>
      </trkpt>
      <trkpt lat="48.8034" lon="2.16663">
        <ele>147.9</ele>
        <time>2015-05-11T19:26:36.573Z</time>
      </trkpt>
      <trkpt lat="48.80337" lon="2.16656">
        <ele>148.3</ele>
        <time>2015-05-11T19:26:37.593Z</time>
      </trkpt>
      <trkpt lat="48.80333" lon="2.1665">
        <ele>148.4</ele>
        <time>2015-05-11T19:26:38.615Z</time>
      </trkpt>
      <trkpt lat="48.80329" lon="2.16644">
        <ele>148.5</ele>
        <time>2015-05-11T19:26:39.622Z</time>
      </trkpt>
      <trkpt lat="48.80326" lon="2.16639">
        <ele>148.6</ele>
        <time>2015-05-11T19:26:40.537Z</time>
      </trkpt>
      <trkpt lat="48.80322" lon="2.16633">
        <ele>148.9</ele>
        <time>2015-05-11T19:26:41.555Z</time>
      </trkpt>
      <trkpt lat="48.80318" lon="2.16627">
        <ele>149.2</ele>
        <time>2015-05-11T19:26:42.591Z</time>
      </trkpt>
      <trkpt lat="48.80315" lon="2.16622">
        <ele>149.7</ele>
        <time>2015-05-11T19:26:43.589Z</time>
      </trkpt>
      <trkpt lat="48.80312" lon="2.16611">
        <ele>150.6</ele>
        <time>2015-05-11T19:26:45.515Z</time>
      </trkpt>
      <trkpt lat="48.80309" lon="2.16606">
        <ele>150.5</ele>
        <time>2015-05-11T19:26:46.532Z</time>
      </trkpt>
      <trkpt lat="48.80306" lon="2.16599">
        <ele>150.4</ele>
        <time>2015-05-11T19:26:47.545Z</time>
      </trkpt>
      <trkpt lat="48.80304" lon="2.16592">
        <ele>150.4</ele>
        <time>2015-05-11T19:26:48.670Z</time>
      </trkpt>
      <trkpt lat="48.80302" lon="2.16586">
        <ele>150.5</ele>
        <time>2015-05-11T19:26:49.573Z</time>
      </trkpt>
      <trkpt lat="48.80298" lon="2.16579">
        <ele>149.8</ele>
        <time>2015-05-11T19:26:50.589Z</time>
      </trkpt>
      <trkpt lat="48.80294" lon="2.16572">
        <ele>149.1</ele>
        <time>2015-05-11T19:26:51.598Z</time>
      </trkpt>
      <trkpt lat="48.80289" lon="2.16565">
        <ele>148.5</ele>
        <time>2015-05-11T19:26:52.613Z</time>
      </trkpt>
      <trkpt lat="48.80285" lon="2.16558">
        <ele>148.4</ele>
        <time>2015-05-11T19:26:53.624Z</time>
      </trkpt>
      <trkpt lat="48.80282" lon="2.16552">
        <ele>148.7</ele>
        <time>2015-05-11T19:26:54.644Z</time>
      </trkpt>
      <trkpt lat="48.80279" lon="2.16546">
        <ele>149.2</ele>
        <time>2015-05-11T19:26:55.613Z</time>
      </trkpt>
      <trkpt lat="48.80276" lon="2.1654">
        <ele>149.3</ele>
        <time>2015-05-11T19:26:56.627Z</time>
      </trkpt>
      <trkpt lat="48.80272" lon="2.16533">
        <ele>149.5</ele>
        <time>2015-05-11T19:26:57.541Z</time>
      </trkpt>
      <trkpt lat="48.80269" lon="2.16527">
        <ele>149.4</ele>
        <time>2015-05-11T19:26:58.542Z</time>
      </trkpt>
      <trkpt lat="48.80264" lon="2.16519">
        <ele>149.9</ele>
        <time>2015-05-11T19:26:59.560Z</time>
      </trkpt>
      <trkpt lat="48.80258" lon="2.16512">
        <ele>149.9</ele>
        <time>2015-05-11T19:27:00.559Z</time>
      </trkpt>
      <trkpt lat="48.80254" lon="2.16505">
        <ele>149.9</ele>
        <time>2015-05-11T19:27:01.582Z</time>
      </trkpt>
      <trkpt lat="48.80249" lon="2.16497">
        <ele>149.3</ele>
        <time>2015-05-11T19:27:02.584Z</time>
      </trkpt>
      <trkpt lat="48.80244" lon="2.16492">
        <ele>149.4</ele>
        <time>2015-05-11T19:27:03.594Z</time>
      </trkpt>
      <trkpt lat="48.80239" lon="2.16485">
        <ele>149.6</ele>
        <time>2015-05-11T19:27:04.606Z</time>
      </trkpt>
      <trkpt lat="48.80236" lon="2.16479">
        <ele>149.9</ele>
        <time>2015-05-11T19:27:05.531Z</time>
      </trkpt>
      <trkpt lat="48.80232" lon="2.16472">
        <ele>150</ele>
        <time>2015-05-11T19:27:06.584Z</time>
      </trkpt>
      <trkpt lat="48.80229" lon="2.16467">
        <ele>150.2</ele>
        <time>2015-05-11T19:27:07.590Z</time>
      </trkpt>
      <trkpt lat="48.80226" lon="2.16462">
        <ele>150.2</ele>
        <time>2015-05-11T19:27:08.596Z</time>
      </trkpt>
      <trkpt lat="48.80224" lon="2.16456">
        <ele>150.3</ele>
        <time>2015-05-11T19:27:09.604Z</time>
      </trkpt>
      <trkpt lat="48.80221" lon="2.1645">
        <ele>150.5</ele>
        <time>2015-05-11T19:27:10.613Z</time>
      </trkpt>
      <trkpt lat="48.80216" lon="2.16444">
        <ele>150.6</ele>
        <time>2015-05-11T19:27:11.650Z</time>
      </trkpt>
      <trkpt lat="48.80213" lon="2.16438">
        <ele>150.7</ele>
        <time>2015-05-11T19:27:12.664Z</time>
      </trkpt>
      <trkpt lat="48.80209" lon="2.16432">
        <ele>151.1</ele>
        <time>2015-05-11T19:27:13.540Z</time>
      </trkpt>
      <trkpt lat="48.80205" lon="2.16426">
        <ele>151.5</ele>
        <time>2015-05-11T19:27:14.542Z</time>
      </trkpt>
      <trkpt lat="48.802" lon="2.16419">
        <ele>151.6</ele>
        <time>2015-05-11T19:27:15.557Z</time>
      </trkpt>
      <trkpt lat="48.80197" lon="2.16414">
        <ele>151.7</ele>
        <time>2015-05-11T19:27:16.566Z</time>
      </trkpt>
      <trkpt lat="48.80191" lon="2.16404">
        <ele>152.3</ele>
        <time>2015-05-11T19:27:18.614Z</time>
      </trkpt>
      <trkpt lat="48.80188" lon="2.16399">
        <ele>152.5</ele>
        <time>2015-05-11T19:27:19.630Z</time>
      </trkpt>
      <trkpt lat="48.80184" lon="2.16393">
        <ele>153</ele>
        <time>2015-05-11T19:27:20.550Z</time>
      </trkpt>
      <trkpt lat="48.80178" lon="2.16385">
        <ele>153.3</ele>
        <time>2015-05-11T19:27:21.544Z</time>
      </trkpt>
      <trkpt lat="48.80174" lon="2.16379">
        <ele>153.9</ele>
        <time>2015-05-11T19:27:22.588Z</time>
      </trkpt>
      <trkpt lat="48.8017" lon="2.16373">
        <ele>154.1</ele>
        <time>2015-05-11T19:27:23.595Z</time>
      </trkpt>
      <trkpt lat="48.80166" lon="2.16366">
        <ele>154.4</ele>
        <time>2015-05-11T19:27:24.643Z</time>
      </trkpt>
      <trkpt lat="48.80162" lon="2.16361">
        <ele>154.8</ele>
        <time>2015-05-11T19:27:25.540Z</time>
      </trkpt>
      <trkpt lat="48.8016" lon="2.16355">
        <ele>154.7</ele>
        <time>2015-05-11T19:27:26.557Z</time>
      </trkpt>
      <trkpt lat="48.80157" lon="2.16348">
        <ele>155</ele>
        <time>2015-05-11T19:27:27.566Z</time>
      </trkpt>
      <trkpt lat="48.80154" lon="2.1634">
        <ele>154.9</ele>
        <time>2015-05-11T19:27:28.575Z</time>
      </trkpt>
      <trkpt lat="48.80151" lon="2.16334">
        <ele>155.3</ele>
        <time>2015-05-11T19:27:29.587Z</time>
      </trkpt>
      <trkpt lat="48.80145" lon="2.1633">
        <ele>156.2</ele>
        <time>2015-05-11T19:27:30.603Z</time>
      </trkpt>
      <trkpt lat="48.80142" lon="2.16325">
        <ele>156.6</ele>
        <time>2015-05-11T19:27:31.616Z</time>
      </trkpt>
      <trkpt lat="48.80139" lon="2.16321">
        <ele>157</ele>
        <time>2015-05-11T19:27:32.537Z</time>
      </trkpt>
      <trkpt lat="48.80134" lon="2.16317">
        <ele>157.5</ele>
        <time>2015-05-11T19:27:33.532Z</time>
      </trkpt>
      <trkpt lat="48.8013" lon="2.16313">
        <ele>157.7</ele>
        <time>2015-05-11T19:27:34.532Z</time>
      </trkpt>
      <trkpt lat="48.80126" lon="2.16308">
        <ele>157.9</ele>
        <time>2015-05-11T19:27:35.553Z</time>
      </trkpt>
      <trkpt lat="48.8012" lon="2.16299">
        <ele>158.5</ele>
        <time>2015-05-11T19:27:37.588Z</time>
      </trkpt>
      <trkpt lat="48.80117" lon="2.16294">
        <ele>158.6</ele>
        <time>2015-05-11T19:27:38.628Z</time>
      </trkpt>
      <trkpt lat="48.80113" lon="2.16289">
        <ele>158.7</ele>
        <time>2015-05-11T19:27:39.536Z</time>
      </trkpt>
      <trkpt lat="48.80109" lon="2.16281">
        <ele>159.2</ele>
        <time>2015-05-11T19:27:40.539Z</time>
      </trkpt>
      <trkpt lat="48.80107" lon="2.16273">
        <ele>158.8</ele>
        <time>2015-05-11T19:27:41.551Z</time>
      </trkpt>
      <trkpt lat="48.80106" lon="2.16264">
        <ele>158.1</ele>
        <time>2015-05-11T19:27:42.607Z</time>
      </trkpt>
      <trkpt lat="48.80103" lon="2.16253">
        <ele>157.3</ele>
        <time>2015-05-11T19:27:44.560Z</time>
      </trkpt>
      <trkpt lat="48.80101" lon="2.16249">
        <ele>157.3</ele>
        <time>2015-05-11T19:27:45.583Z</time>
      </trkpt>
      <trkpt lat="48.80096" lon="2.16243">
        <ele>158.1</ele>
        <time>2015-05-11T19:27:47.515Z</time>
      </trkpt>
      <trkpt lat="48.80093" lon="2.16242">
        <ele>158.2</ele>
        <time>2015-05-11T19:27:48.608Z</time>
      </trkpt>
      <trkpt lat="48.80092" lon="2.16237">
        <ele>160.3</ele>
        <time>2015-05-11T19:28:49.583Z</time>
      </trkpt>
      <trkpt lat="48.80097" lon="2.16214">
        <ele>174</ele>
        <time>2015-05-11T19:28:50.610Z</time>
      </trkpt>
      <trkpt lat="48.80092" lon="2.16209">
        <ele>174.3</ele>
        <time>2015-05-11T19:28:52.513Z</time>
      </trkpt>
      <trkpt lat="48.80088" lon="2.16208">
        <ele>174.3</ele>
        <time>2015-05-11T19:28:53.583Z</time>
      </trkpt>
      <trkpt lat="48.80083" lon="2.16204">
        <ele>174.3</ele>
        <time>2015-05-11T19:28:55.606Z</time>
      </trkpt>
      <trkpt lat="48.80079" lon="2.16201">
        <ele>173.9</ele>
        <time>2015-05-11T19:28:56.509Z</time>
      </trkpt>
      <trkpt lat="48.80074" lon="2.16197">
        <ele>173.4</ele>
        <time>2015-05-11T19:28:57.512Z</time>
      </trkpt>
      <trkpt lat="48.8007" lon="2.16193">
        <ele>172.6</ele>
        <time>2015-05-11T19:28:58.524Z</time>
      </trkpt>
      <trkpt lat="48.80068" lon="2.16189">
        <ele>172</ele>
        <time>2015-05-11T19:28:59.548Z</time>
      </trkpt>
      <trkpt lat="48.80063" lon="2.16184">
        <ele>171.8</ele>
        <time>2015-05-11T19:29:00.573Z</time>
      </trkpt>
      <trkpt lat="48.80059" lon="2.16179">
        <ele>171.8</ele>
        <time>2015-05-11T19:29:01.584Z</time>
      </trkpt>
      <trkpt lat="48.80056" lon="2.16174">
        <ele>171.6</ele>
        <time>2015-05-11T19:29:02.590Z</time>
      </trkpt>
      <trkpt lat="48.8005" lon="2.16165">
        <ele>171.4</ele>
        <time>2015-05-11T19:29:04.535Z</time>
      </trkpt>
      <trkpt lat="48.80049" lon="2.1616">
        <ele>171.7</ele>
        <time>2015-05-11T19:29:05.537Z</time>
      </trkpt>
      <trkpt lat="48.80044" lon="2.16151">
        <ele>171.5</ele>
        <time>2015-05-11T19:29:07.614Z</time>
      </trkpt>
      <trkpt lat="48.80041" lon="2.16147">
        <ele>171.7</ele>
        <time>2015-05-11T19:29:08.546Z</time>
      </trkpt>
      <trkpt lat="48.80036" lon="2.16138">
        <ele>171.2</ele>
        <time>2015-05-11T19:29:09.890Z</time>
      </trkpt>
      <trkpt lat="48.80032" lon="2.16132">
        <ele>171.1</ele>
        <time>2015-05-11T19:29:11.725Z</time>
      </trkpt>
      <trkpt lat="48.80027" lon="2.16125">
        <ele>170.9</ele>
        <time>2015-05-11T19:29:12.566Z</time>
      </trkpt>
      <trkpt lat="48.80023" lon="2.16119">
        <ele>170.9</ele>
        <time>2015-05-11T19:29:13.575Z</time>
      </trkpt>
      <trkpt lat="48.80019" lon="2.16113">
        <ele>170.6</ele>
        <time>2015-05-11T19:29:14.974Z</time>
      </trkpt>
      <trkpt lat="48.80016" lon="2.16106">
        <ele>170.2</ele>
        <time>2015-05-11T19:29:15.540Z</time>
      </trkpt>
      <trkpt lat="48.80012" lon="2.16099">
        <ele>169.9</ele>
        <time>2015-05-11T19:29:16.557Z</time>
      </trkpt>
      <trkpt lat="48.80008" lon="2.16093">
        <ele>169.6</ele>
        <time>2015-05-11T19:29:17.720Z</time>
      </trkpt>
      <trkpt lat="48.80003" lon="2.16088">
        <ele>170.3</ele>
        <time>2015-05-11T19:29:18.623Z</time>
      </trkpt>
      <trkpt lat="48.79999" lon="2.16082">
        <ele>170.3</ele>
        <time>2015-05-11T19:29:19.517Z</time>
      </trkpt>
      <trkpt lat="48.79995" lon="2.16076">
        <ele>170.1</ele>
        <time>2015-05-11T19:29:20.533Z</time>
      </trkpt>
      <trkpt lat="48.79991" lon="2.1607">
        <ele>169.7</ele>
        <time>2015-05-11T19:29:21.536Z</time>
      </trkpt>
      <trkpt lat="48.79987" lon="2.16064">
        <ele>169.7</ele>
        <time>2015-05-11T19:29:22.550Z</time>
      </trkpt>
      <trkpt lat="48.79983" lon="2.16057">
        <ele>169.6</ele>
        <time>2015-05-11T19:29:23.561Z</time>
      </trkpt>
      <trkpt lat="48.79979" lon="2.16051">
        <ele>169.6</ele>
        <time>2015-05-11T19:29:24.667Z</time>
      </trkpt>
      <trkpt lat="48.79975" lon="2.16043">
        <ele>169.8</ele>
        <time>2015-05-11T19:29:25.526Z</time>
      </trkpt>
      <trkpt lat="48.79971" lon="2.16036">
        <ele>170</ele>
        <time>2015-05-11T19:29:26.691Z</time>
      </trkpt>
      <trkpt lat="48.79965" lon="2.1603">
        <ele>169.8</ele>
        <time>2015-05-11T19:29:27.607Z</time>
      </trkpt>
      <trkpt lat="48.79961" lon="2.16023">
        <ele>170</ele>
        <time>2015-05-11T19:29:28.633Z</time>
      </trkpt>
      <trkpt lat="48.79956" lon="2.16015">
        <ele>170.3</ele>
        <time>2015-05-11T19:29:29.540Z</time>
      </trkpt>
      <trkpt lat="48.79952" lon="2.16008">
        <ele>170.4</ele>
        <time>2015-05-11T19:29:30.585Z</time>
      </trkpt>
      <trkpt lat="48.79948" lon="2.16001">
        <ele>170.6</ele>
        <time>2015-05-11T19:29:31.592Z</time>
      </trkpt>
      <trkpt lat="48.79944" lon="2.15995">
        <ele>171.1</ele>
        <time>2015-05-11T19:29:32.521Z</time>
      </trkpt>
      <trkpt lat="48.7994" lon="2.15987">
        <ele>171.3</ele>
        <time>2015-05-11T19:29:33.563Z</time>
      </trkpt>
      <trkpt lat="48.79936" lon="2.1598">
        <ele>171.1</ele>
        <time>2015-05-11T19:29:34.530Z</time>
      </trkpt>
      <trkpt lat="48.79931" lon="2.15972">
        <ele>171.1</ele>
        <time>2015-05-11T19:29:35.569Z</time>
      </trkpt>
      <trkpt lat="48.79926" lon="2.15965">
        <ele>171</ele>
        <time>2015-05-11T19:29:36.569Z</time>
      </trkpt>
      <trkpt lat="48.79921" lon="2.15958">
        <ele>171.1</ele>
        <time>2015-05-11T19:29:37.576Z</time>
      </trkpt>
      <trkpt lat="48.79917" lon="2.15951">
        <ele>170.7</ele>
        <time>2015-05-11T19:29:38.603Z</time>
      </trkpt>
      <trkpt lat="48.79913" lon="2.15943">
        <ele>170.5</ele>
        <time>2015-05-11T19:29:39.612Z</time>
      </trkpt>
      <trkpt lat="48.7991" lon="2.15936">
        <ele>170.3</ele>
        <time>2015-05-11T19:29:40.635Z</time>
      </trkpt>
      <trkpt lat="48.79906" lon="2.15929">
        <ele>170.1</ele>
        <time>2015-05-11T19:29:41.611Z</time>
      </trkpt>
      <trkpt lat="48.79902" lon="2.15922">
        <ele>170.1</ele>
        <time>2015-05-11T19:29:42.627Z</time>
      </trkpt>
      <trkpt lat="48.79899" lon="2.15915">
        <ele>169.8</ele>
        <time>2015-05-11T19:29:43.637Z</time>
      </trkpt>
      <trkpt lat="48.79895" lon="2.15909">
        <ele>169.9</ele>
        <time>2015-05-11T19:29:44.549Z</time>
      </trkpt>
      <trkpt lat="48.79893" lon="2.15902">
        <ele>169.5</ele>
        <time>2015-05-11T19:29:45.570Z</time>
      </trkpt>
      <trkpt lat="48.79889" lon="2.15891">
        <ele>169.5</ele>
        <time>2015-05-11T19:29:47.600Z</time>
      </trkpt>
      <trkpt lat="48.79887" lon="2.15884">
        <ele>169.2</ele>
        <time>2015-05-11T19:29:48.612Z</time>
      </trkpt>
      <trkpt lat="48.79886" lon="2.15877">
        <ele>168.9</ele>
        <time>2015-05-11T19:29:49.696Z</time>
      </trkpt>
      <trkpt lat="48.79884" lon="2.1587">
        <ele>168.5</ele>
        <time>2015-05-11T19:29:50.544Z</time>
      </trkpt>
      <trkpt lat="48.79879" lon="2.1586">
        <ele>167.3</ele>
        <time>2015-05-11T19:29:52.573Z</time>
      </trkpt>
      <trkpt lat="48.79876" lon="2.15855">
        <ele>167</ele>
        <time>2015-05-11T19:29:53.583Z</time>
      </trkpt>
      <trkpt lat="48.79872" lon="2.15847">
        <ele>166.7</ele>
        <time>2015-05-11T19:29:55.616Z</time>
      </trkpt>
      <trkpt lat="48.7987" lon="2.15843">
        <ele>166.5</ele>
        <time>2015-05-11T19:29:56.517Z</time>
      </trkpt>
      <trkpt lat="48.79865" lon="2.15835">
        <ele>166.2</ele>
        <time>2015-05-11T19:29:58.546Z</time>
      </trkpt>
      <trkpt lat="48.79863" lon="2.1583">
        <ele>166.4</ele>
        <time>2015-05-11T19:29:59.550Z</time>
      </trkpt>
      <trkpt lat="48.79859" lon="2.15823">
        <ele>166.6</ele>
        <time>2015-05-11T19:30:01.571Z</time>
      </trkpt>
      <trkpt lat="48.79857" lon="2.15818">
        <ele>166.7</ele>
        <time>2015-05-11T19:30:02.589Z</time>
      </trkpt>
      <trkpt lat="48.79856" lon="2.15807">
        <ele>166.3</ele>
        <time>2015-05-11T19:30:05.566Z</time>
      </trkpt>
      <trkpt lat="48.79855" lon="2.15804">
        <ele>166</ele>
        <time>2015-05-11T19:30:06.598Z</time>
      </trkpt>
      <trkpt lat="48.79854" lon="2.15796">
        <ele>165.6</ele>
        <time>2015-05-11T19:31:41.584Z</time>
      </trkpt>
      <trkpt lat="48.79865" lon="2.15804">
        <ele>167</ele>
        <time>2015-05-11T19:31:42.635Z</time>
      </trkpt>
      <trkpt lat="48.79857" lon="2.15802">
        <ele>167.3</ele>
        <time>2015-05-11T19:31:44.562Z</time>
      </trkpt>
      <trkpt lat="48.79854" lon="2.15801">
        <ele>167.5</ele>
        <time>2015-05-11T19:31:45.590Z</time>
      </trkpt>
      <trkpt lat="48.79849" lon="2.15791">
        <ele>193.5</ele>
        <time>2015-05-11T19:34:48.556Z</time>
      </trkpt>
      <trkpt lat="48.79848" lon="2.15783">
        <ele>188.9</ele>
        <time>2015-05-11T19:34:49.556Z</time>
      </trkpt>
      <trkpt lat="48.79848" lon="2.15776">
        <ele>185.7</ele>
        <time>2015-05-11T19:34:50.499Z</time>
      </trkpt>
      <trkpt lat="48.79847" lon="2.15769">
        <ele>183</ele>
        <time>2015-05-11T19:34:51.508Z</time>
      </trkpt>
      <trkpt lat="48.79848" lon="2.15762">
        <ele>180.5</ele>
        <time>2015-05-11T19:34:52.560Z</time>
      </trkpt>
      <trkpt lat="48.79849" lon="2.15755">
        <ele>178.4</ele>
        <time>2015-05-11T19:34:53.533Z</time>
      </trkpt>
      <trkpt lat="48.7985" lon="2.15742">
        <ele>175.4</ele>
        <time>2015-05-11T19:34:55.618Z</time>
      </trkpt>
      <trkpt lat="48.7985" lon="2.15735">
        <ele>173.8</ele>
        <time>2015-05-11T19:34:56.512Z</time>
      </trkpt>
      <trkpt lat="48.79848" lon="2.15722">
        <ele>171.7</ele>
        <time>2015-05-11T19:34:58.530Z</time>
      </trkpt>
      <trkpt lat="48.79847" lon="2.15716">
        <ele>171</ele>
        <time>2015-05-11T19:34:59.542Z</time>
      </trkpt>
      <trkpt lat="48.79848" lon="2.15702">
        <ele>169.5</ele>
        <time>2015-05-11T19:35:01.582Z</time>
      </trkpt>
      <trkpt lat="48.79848" lon="2.15696">
        <ele>169</ele>
        <time>2015-05-11T19:35:02.587Z</time>
      </trkpt>
      <trkpt lat="48.79848" lon="2.15689">
        <ele>168.3</ele>
        <time>2015-05-11T19:35:03.600Z</time>
      </trkpt>
      <trkpt lat="48.79848" lon="2.15682">
        <ele>167.2</ele>
        <time>2015-05-11T19:35:04.513Z</time>
      </trkpt>
      <trkpt lat="48.79848" lon="2.15675">
        <ele>166.3</ele>
        <time>2015-05-11T19:35:05.539Z</time>
      </trkpt>
      <trkpt lat="48.79848" lon="2.15668">
        <ele>165.8</ele>
        <time>2015-05-11T19:35:06.542Z</time>
      </trkpt>
      <trkpt lat="48.79848" lon="2.15661">
        <ele>165.6</ele>
        <time>2015-05-11T19:35:07.549Z</time>
      </trkpt>
      <trkpt lat="48.79847" lon="2.15654">
        <ele>165.2</ele>
        <time>2015-05-11T19:35:08.563Z</time>
      </trkpt>
      <trkpt lat="48.79846" lon="2.1564">
        <ele>164.4</ele>
        <time>2015-05-11T19:35:10.620Z</time>
      </trkpt>
      <trkpt lat="48.79847" lon="2.15633">
        <ele>163.9</ele>
        <time>2015-05-11T19:35:11.560Z</time>
      </trkpt>
      <trkpt lat="48.79847" lon="2.15626">
        <ele>163.8</ele>
        <time>2015-05-11T19:35:12.589Z</time>
      </trkpt>
      <trkpt lat="48.79846" lon="2.15618">
        <ele>163.3</ele>
        <time>2015-05-11T19:35:13.583Z</time>
      </trkpt>
      <trkpt lat="48.79845" lon="2.15611">
        <ele>163</ele>
        <time>2015-05-11T19:35:14.588Z</time>
      </trkpt>
      <trkpt lat="48.79845" lon="2.15603">
        <ele>162.7</ele>
        <time>2015-05-11T19:35:15.606Z</time>
      </trkpt>
      <trkpt lat="48.79845" lon="2.15595">
        <ele>162</ele>
        <time>2015-05-11T19:35:16.722Z</time>
      </trkpt>
      <trkpt lat="48.79846" lon="2.15587">
        <ele>161.8</ele>
        <time>2015-05-11T19:35:17.564Z</time>
      </trkpt>
      <trkpt lat="48.79848" lon="2.15579">
        <ele>161.7</ele>
        <time>2015-05-11T19:35:18.591Z</time>
      </trkpt>
      <trkpt lat="48.79848" lon="2.15571">
        <ele>161.7</ele>
        <time>2015-05-11T19:35:19.605Z</time>
      </trkpt>
      <trkpt lat="48.79849" lon="2.15562">
        <ele>162</ele>
        <time>2015-05-11T19:35:20.613Z</time>
      </trkpt>
      <trkpt lat="48.79849" lon="2.15554">
        <ele>161.9</ele>
        <time>2015-05-11T19:35:21.510Z</time>
      </trkpt>
      <trkpt lat="48.79847" lon="2.15545">
        <ele>161.9</ele>
        <time>2015-05-11T19:35:22.644Z</time>
      </trkpt>
      <trkpt lat="48.79848" lon="2.15537">
        <ele>161.8</ele>
        <time>2015-05-11T19:35:23.646Z</time>
      </trkpt>
      <trkpt lat="48.79848" lon="2.15529">
        <ele>161.6</ele>
        <time>2015-05-11T19:35:24.663Z</time>
      </trkpt>
      <trkpt lat="48.79848" lon="2.15521">
        <ele>161.2</ele>
        <time>2015-05-11T19:35:25.608Z</time>
      </trkpt>
      <trkpt lat="48.79848" lon="2.15512">
        <ele>161</ele>
        <time>2015-05-11T19:35:26.663Z</time>
      </trkpt>
      <trkpt lat="48.79848" lon="2.15503">
        <ele>160.8</ele>
        <time>2015-05-11T19:35:27.544Z</time>
      </trkpt>
      <trkpt lat="48.79848" lon="2.15494">
        <ele>160.9</ele>
        <time>2015-05-11T19:35:28.548Z</time>
      </trkpt>
      <trkpt lat="48.79848" lon="2.15486">
        <ele>160.7</ele>
        <time>2015-05-11T19:35:29.565Z</time>
      </trkpt>
      <trkpt lat="48.79848" lon="2.15477">
        <ele>160.9</ele>
        <time>2015-05-11T19:35:30.586Z</time>
      </trkpt>
      <trkpt lat="48.79848" lon="2.15468">
        <ele>160.9</ele>
        <time>2015-05-11T19:35:31.590Z</time>
      </trkpt>
      <trkpt lat="48.7985" lon="2.15461">
        <ele>160.3</ele>
        <time>2015-05-11T19:35:32.506Z</time>
      </trkpt>
      <trkpt lat="48.79849" lon="2.15453">
        <ele>160.1</ele>
        <time>2015-05-11T19:35:33.617Z</time>
      </trkpt>
      <trkpt lat="48.79848" lon="2.15444">
        <ele>159.8</ele>
        <time>2015-05-11T19:35:34.555Z</time>
      </trkpt>
      <trkpt lat="48.79848" lon="2.15435">
        <ele>159.9</ele>
        <time>2015-05-11T19:35:35.565Z</time>
      </trkpt>
      <trkpt lat="48.79847" lon="2.15426">
        <ele>160</ele>
        <time>2015-05-11T19:35:36.579Z</time>
      </trkpt>
      <trkpt lat="48.79848" lon="2.15417">
        <ele>160.1</ele>
        <time>2015-05-11T19:35:37.586Z</time>
      </trkpt>
      <trkpt lat="48.79849" lon="2.15408">
        <ele>160.2</ele>
        <time>2015-05-11T19:35:38.500Z</time>
      </trkpt>
      <trkpt lat="48.79848" lon="2.15399">
        <ele>160.3</ele>
        <time>2015-05-11T19:35:39.527Z</time>
      </trkpt>
      <trkpt lat="48.79847" lon="2.1539">
        <ele>160.4</ele>
        <time>2015-05-11T19:35:40.560Z</time>
      </trkpt>
      <trkpt lat="48.79847" lon="2.15382">
        <ele>160.4</ele>
        <time>2015-05-11T19:35:41.568Z</time>
      </trkpt>
      <trkpt lat="48.79847" lon="2.15374">
        <ele>160.2</ele>
        <time>2015-05-11T19:35:42.589Z</time>
      </trkpt>
      <trkpt lat="48.79847" lon="2.15365">
        <ele>160.1</ele>
        <time>2015-05-11T19:35:43.592Z</time>
      </trkpt>
      <trkpt lat="48.79846" lon="2.15356">
        <ele>159.6</ele>
        <time>2015-05-11T19:35:44.502Z</time>
      </trkpt>
      <trkpt lat="48.79845" lon="2.15347">
        <ele>159.2</ele>
        <time>2015-05-11T19:35:45.579Z</time>
      </trkpt>
      <trkpt lat="48.79845" lon="2.15338">
        <ele>159.2</ele>
        <time>2015-05-11T19:35:46.597Z</time>
      </trkpt>
      <trkpt lat="48.79845" lon="2.15329">
        <ele>159.2</ele>
        <time>2015-05-11T19:35:47.609Z</time>
      </trkpt>
      <trkpt lat="48.79845" lon="2.1532">
        <ele>159.5</ele>
        <time>2015-05-11T19:35:48.632Z</time>
      </trkpt>
      <trkpt lat="48.79845" lon="2.15312">
        <ele>159.3</ele>
        <time>2015-05-11T19:35:49.543Z</time>
      </trkpt>
      <trkpt lat="48.79844" lon="2.15303">
        <ele>159.4</ele>
        <time>2015-05-11T19:35:50.550Z</time>
      </trkpt>
      <trkpt lat="48.79844" lon="2.15295">
        <ele>159.1</ele>
        <time>2015-05-11T19:35:51.561Z</time>
      </trkpt>
      <trkpt lat="48.79845" lon="2.15287">
        <ele>159.2</ele>
        <time>2015-05-11T19:35:52.574Z</time>
      </trkpt>
      <trkpt lat="48.79845" lon="2.15278">
        <ele>159.5</ele>
        <time>2015-05-11T19:35:53.581Z</time>
      </trkpt>
      <trkpt lat="48.79846" lon="2.15269">
        <ele>159.8</ele>
        <time>2015-05-11T19:35:54.597Z</time>
      </trkpt>
      <trkpt lat="48.79845" lon="2.1526">
        <ele>160.1</ele>
        <time>2015-05-11T19:35:55.605Z</time>
      </trkpt>
      <trkpt lat="48.79844" lon="2.15251">
        <ele>160</ele>
        <time>2015-05-11T19:35:56.617Z</time>
      </trkpt>
      <trkpt lat="48.79843" lon="2.15242">
        <ele>159.9</ele>
        <time>2015-05-11T19:35:57.537Z</time>
      </trkpt>
      <trkpt lat="48.79844" lon="2.15233">
        <ele>159.9</ele>
        <time>2015-05-11T19:35:58.570Z</time>
      </trkpt>
      <trkpt lat="48.79844" lon="2.15225">
        <ele>159.9</ele>
        <time>2015-05-11T19:35:59.577Z</time>
      </trkpt>
      <trkpt lat="48.79844" lon="2.15216">
        <ele>160.1</ele>
        <time>2015-05-11T19:36:00.581Z</time>
      </trkpt>
      <trkpt lat="48.79843" lon="2.15208">
        <ele>159.9</ele>
        <time>2015-05-11T19:36:01.595Z</time>
      </trkpt>
      <trkpt lat="48.79843" lon="2.152">
        <ele>160.1</ele>
        <time>2015-05-11T19:36:02.524Z</time>
      </trkpt>
      <trkpt lat="48.79842" lon="2.15192">
        <ele>160.1</ele>
        <time>2015-05-11T19:36:03.548Z</time>
      </trkpt>
      <trkpt lat="48.79841" lon="2.15183">
        <ele>160.2</ele>
        <time>2015-05-11T19:36:04.569Z</time>
      </trkpt>
      <trkpt lat="48.79839" lon="2.15174">
        <ele>160.1</ele>
        <time>2015-05-11T19:36:05.580Z</time>
      </trkpt>
      <trkpt lat="48.7984" lon="2.15167">
        <ele>160.2</ele>
        <time>2015-05-11T19:36:06.631Z</time>
      </trkpt>
      <trkpt lat="48.7984" lon="2.1516">
        <ele>160.1</ele>
        <time>2015-05-11T19:36:07.555Z</time>
      </trkpt>
      <trkpt lat="48.79841" lon="2.15152">
        <ele>159.8</ele>
        <time>2015-05-11T19:36:08.575Z</time>
      </trkpt>
      <trkpt lat="48.79842" lon="2.15144">
        <ele>159.9</ele>
        <time>2015-05-11T19:36:09.589Z</time>
      </trkpt>
      <trkpt lat="48.79843" lon="2.15137">
        <ele>159.9</ele>
        <time>2015-05-11T19:36:10.603Z</time>
      </trkpt>
      <trkpt lat="48.79843" lon="2.15129">
        <ele>160</ele>
        <time>2015-05-11T19:36:11.613Z</time>
      </trkpt>
      <trkpt lat="48.79843" lon="2.1512">
        <ele>160.2</ele>
        <time>2015-05-11T19:36:12.612Z</time>
      </trkpt>
      <trkpt lat="48.79842" lon="2.15111">
        <ele>160.1</ele>
        <time>2015-05-11T19:36:13.516Z</time>
      </trkpt>
      <trkpt lat="48.79841" lon="2.15103">
        <ele>160.2</ele>
        <time>2015-05-11T19:36:14.539Z</time>
      </trkpt>
      <trkpt lat="48.79841" lon="2.15095">
        <ele>160.4</ele>
        <time>2015-05-11T19:36:15.551Z</time>
      </trkpt>
      <trkpt lat="48.79841" lon="2.15087">
        <ele>160.9</ele>
        <time>2015-05-11T19:36:16.576Z</time>
      </trkpt>
      <trkpt lat="48.79842" lon="2.15079">
        <ele>161.4</ele>
        <time>2015-05-11T19:36:17.583Z</time>
      </trkpt>
      <trkpt lat="48.79843" lon="2.15071">
        <ele>161.7</ele>
        <time>2015-05-11T19:36:18.593Z</time>
      </trkpt>
      <trkpt lat="48.79844" lon="2.15063">
        <ele>162</ele>
        <time>2015-05-11T19:36:19.607Z</time>
      </trkpt>
      <trkpt lat="48.79845" lon="2.15056">
        <ele>162.1</ele>
        <time>2015-05-11T19:36:20.539Z</time>
      </trkpt>
      <trkpt lat="48.79846" lon="2.15049">
        <ele>162.2</ele>
        <time>2015-05-11T19:36:21.538Z</time>
      </trkpt>
      <trkpt lat="48.79846" lon="2.1504">
        <ele>162.4</ele>
        <time>2015-05-11T19:36:22.548Z</time>
      </trkpt>
      <trkpt lat="48.79845" lon="2.15031">
        <ele>162.6</ele>
        <time>2015-05-11T19:36:23.568Z</time>
      </trkpt>
      <trkpt lat="48.79844" lon="2.15022">
        <ele>162.8</ele>
        <time>2015-05-11T19:36:24.589Z</time>
      </trkpt>
      <trkpt lat="48.79843" lon="2.15013">
        <ele>163</ele>
        <time>2015-05-11T19:36:25.591Z</time>
      </trkpt>
      <trkpt lat="48.79844" lon="2.15005">
        <ele>163</ele>
        <time>2015-05-11T19:36:26.542Z</time>
      </trkpt>
      <trkpt lat="48.79845" lon="2.14997">
        <ele>163</ele>
        <time>2015-05-11T19:36:27.555Z</time>
      </trkpt>
      <trkpt lat="48.79845" lon="2.14988">
        <ele>162.9</ele>
        <time>2015-05-11T19:36:28.584Z</time>
      </trkpt>
      <trkpt lat="48.79845" lon="2.1498">
        <ele>163.2</ele>
        <time>2015-05-11T19:36:29.629Z</time>
      </trkpt>
      <trkpt lat="48.79845" lon="2.14971">
        <ele>163.4</ele>
        <time>2015-05-11T19:36:30.622Z</time>
      </trkpt>
      <trkpt lat="48.79845" lon="2.14963">
        <ele>163.8</ele>
        <time>2015-05-11T19:36:31.564Z</time>
      </trkpt>
      <trkpt lat="48.79844" lon="2.14955">
        <ele>164</ele>
        <time>2015-05-11T19:36:32.583Z</time>
      </trkpt>
      <trkpt lat="48.79843" lon="2.14946">
        <ele>164.3</ele>
        <time>2015-05-11T19:36:33.512Z</time>
      </trkpt>
      <trkpt lat="48.79843" lon="2.14938">
        <ele>164.6</ele>
        <time>2015-05-11T19:36:34.538Z</time>
      </trkpt>
      <trkpt lat="48.79842" lon="2.1493">
        <ele>164.7</ele>
        <time>2015-05-11T19:36:35.545Z</time>
      </trkpt>
      <trkpt lat="48.79842" lon="2.14921">
        <ele>164.9</ele>
        <time>2015-05-11T19:36:36.557Z</time>
      </trkpt>
      <trkpt lat="48.79841" lon="2.14914">
        <ele>165.3</ele>
        <time>2015-05-11T19:36:37.570Z</time>
      </trkpt>
      <trkpt lat="48.79839" lon="2.14905">
        <ele>165.5</ele>
        <time>2015-05-11T19:36:38.578Z</time>
      </trkpt>
      <trkpt lat="48.79839" lon="2.14897">
        <ele>166.1</ele>
        <time>2015-05-11T19:36:39.600Z</time>
      </trkpt>
      <trkpt lat="48.79838" lon="2.14889">
        <ele>166.4</ele>
        <time>2015-05-11T19:36:40.610Z</time>
      </trkpt>
      <trkpt lat="48.79837" lon="2.14881">
        <ele>166.9</ele>
        <time>2015-05-11T19:36:41.620Z</time>
      </trkpt>
      <trkpt lat="48.79836" lon="2.14873">
        <ele>167.4</ele>
        <time>2015-05-11T19:36:42.638Z</time>
      </trkpt>
      <trkpt lat="48.79835" lon="2.14864">
        <ele>167.7</ele>
        <time>2015-05-11T19:36:43.546Z</time>
      </trkpt>
      <trkpt lat="48.79833" lon="2.14855">
        <ele>167.7</ele>
        <time>2015-05-11T19:36:44.519Z</time>
      </trkpt>
      <trkpt lat="48.79833" lon="2.14846">
        <ele>167.7</ele>
        <time>2015-05-11T19:36:45.543Z</time>
      </trkpt>
      <trkpt lat="48.79832" lon="2.14838">
        <ele>167.6</ele>
        <time>2015-05-11T19:36:46.556Z</time>
      </trkpt>
      <trkpt lat="48.79831" lon="2.14829">
        <ele>167</ele>
        <time>2015-05-11T19:36:47.569Z</time>
      </trkpt>
      <trkpt lat="48.7983" lon="2.1482">
        <ele>166.8</ele>
        <time>2015-05-11T19:36:48.598Z</time>
      </trkpt>
      <trkpt lat="48.7983" lon="2.14812">
        <ele>167.1</ele>
        <time>2015-05-11T19:36:49.615Z</time>
      </trkpt>
      <trkpt lat="48.79829" lon="2.14804">
        <ele>167.3</ele>
        <time>2015-05-11T19:36:50.537Z</time>
      </trkpt>
      <trkpt lat="48.79828" lon="2.14795">
        <ele>167.5</ele>
        <time>2015-05-11T19:36:51.510Z</time>
      </trkpt>
      <trkpt lat="48.79827" lon="2.14786">
        <ele>167.7</ele>
        <time>2015-05-11T19:36:52.512Z</time>
      </trkpt>
      <trkpt lat="48.79827" lon="2.14778">
        <ele>167.9</ele>
        <time>2015-05-11T19:36:53.536Z</time>
      </trkpt>
      <trkpt lat="48.79826" lon="2.14769">
        <ele>168</ele>
        <time>2015-05-11T19:36:54.588Z</time>
      </trkpt>
      <trkpt lat="48.79825" lon="2.14761">
        <ele>168.4</ele>
        <time>2015-05-11T19:36:55.592Z</time>
      </trkpt>
      <trkpt lat="48.79826" lon="2.14753">
        <ele>169.1</ele>
        <time>2015-05-11T19:36:56.596Z</time>
      </trkpt>
      <trkpt lat="48.79827" lon="2.14746">
        <ele>169.2</ele>
        <time>2015-05-11T19:36:57.599Z</time>
      </trkpt>
      <trkpt lat="48.79826" lon="2.14738">
        <ele>169.5</ele>
        <time>2015-05-11T19:36:58.505Z</time>
      </trkpt>
      <trkpt lat="48.79826" lon="2.14729">
        <ele>169.5</ele>
        <time>2015-05-11T19:36:59.523Z</time>
      </trkpt>
      <trkpt lat="48.79825" lon="2.14721">
        <ele>169.3</ele>
        <time>2015-05-11T19:37:00.645Z</time>
      </trkpt>
      <trkpt lat="48.79824" lon="2.14712">
        <ele>169.1</ele>
        <time>2015-05-11T19:37:01.531Z</time>
      </trkpt>
      <trkpt lat="48.79824" lon="2.14703">
        <ele>169.1</ele>
        <time>2015-05-11T19:37:02.551Z</time>
      </trkpt>
      <trkpt lat="48.79824" lon="2.14695">
        <ele>169.2</ele>
        <time>2015-05-11T19:37:03.572Z</time>
      </trkpt>
      <trkpt lat="48.79823" lon="2.14686">
        <ele>169.1</ele>
        <time>2015-05-11T19:37:04.610Z</time>
      </trkpt>
      <trkpt lat="48.79822" lon="2.14677">
        <ele>169</ele>
        <time>2015-05-11T19:37:05.555Z</time>
      </trkpt>
      <trkpt lat="48.79821" lon="2.14667">
        <ele>169</ele>
        <time>2015-05-11T19:37:06.672Z</time>
      </trkpt>
      <trkpt lat="48.7982" lon="2.14657">
        <ele>169.2</ele>
        <time>2015-05-11T19:37:07.533Z</time>
      </trkpt>
      <trkpt lat="48.7982" lon="2.14648">
        <ele>169.6</ele>
        <time>2015-05-11T19:37:08.560Z</time>
      </trkpt>
      <trkpt lat="48.7982" lon="2.14639">
        <ele>169.9</ele>
        <time>2015-05-11T19:37:09.586Z</time>
      </trkpt>
      <trkpt lat="48.79819" lon="2.1463">
        <ele>169.9</ele>
        <time>2015-05-11T19:37:10.595Z</time>
      </trkpt>
      <trkpt lat="48.79817" lon="2.1462">
        <ele>170.1</ele>
        <time>2015-05-11T19:37:11.611Z</time>
      </trkpt>
      <trkpt lat="48.79816" lon="2.14609">
        <ele>170</ele>
        <time>2015-05-11T19:37:12.661Z</time>
      </trkpt>
      <trkpt lat="48.79816" lon="2.146">
        <ele>169.8</ele>
        <time>2015-05-11T19:37:13.548Z</time>
      </trkpt>
      <trkpt lat="48.79815" lon="2.14589">
        <ele>169.9</ele>
        <time>2015-05-11T19:37:14.570Z</time>
      </trkpt>
      <trkpt lat="48.79815" lon="2.1458">
        <ele>170</ele>
        <time>2015-05-11T19:37:15.569Z</time>
      </trkpt>
      <trkpt lat="48.79814" lon="2.1457">
        <ele>170</ele>
        <time>2015-05-11T19:37:16.598Z</time>
      </trkpt>
      <trkpt lat="48.79812" lon="2.14558">
        <ele>168.9</ele>
        <time>2015-05-11T19:37:17.542Z</time>
      </trkpt>
      <trkpt lat="48.7981" lon="2.14548">
        <ele>168.1</ele>
        <time>2015-05-11T19:37:18.681Z</time>
      </trkpt>
      <trkpt lat="48.7981" lon="2.14538">
        <ele>168.1</ele>
        <time>2015-05-11T19:37:19.550Z</time>
      </trkpt>
      <trkpt lat="48.7981" lon="2.14529">
        <ele>168</ele>
        <time>2015-05-11T19:37:20.593Z</time>
      </trkpt>
      <trkpt lat="48.79811" lon="2.1452">
        <ele>168.1</ele>
        <time>2015-05-11T19:37:21.614Z</time>
      </trkpt>
      <trkpt lat="48.79813" lon="2.14511">
        <ele>168.2</ele>
        <time>2015-05-11T19:37:22.632Z</time>
      </trkpt>
      <trkpt lat="48.79815" lon="2.14502">
        <ele>168.4</ele>
        <time>2015-05-11T19:37:23.536Z</time>
      </trkpt>
      <trkpt lat="48.79818" lon="2.14493">
        <ele>168.4</ele>
        <time>2015-05-11T19:37:24.589Z</time>
      </trkpt>
      <trkpt lat="48.7982" lon="2.14484">
        <ele>168.4</ele>
        <time>2015-05-11T19:37:25.590Z</time>
      </trkpt>
      <trkpt lat="48.79823" lon="2.14475">
        <ele>168.1</ele>
        <time>2015-05-11T19:37:26.607Z</time>
      </trkpt>
      <trkpt lat="48.79825" lon="2.14466">
        <ele>168.3</ele>
        <time>2015-05-11T19:37:27.511Z</time>
      </trkpt>
      <trkpt lat="48.79827" lon="2.14457">
        <ele>168.7</ele>
        <time>2015-05-11T19:37:28.537Z</time>
      </trkpt>
      <trkpt lat="48.79831" lon="2.14448">
        <ele>169.1</ele>
        <time>2015-05-11T19:37:29.533Z</time>
      </trkpt>
      <trkpt lat="48.79834" lon="2.1444">
        <ele>169.4</ele>
        <time>2015-05-11T19:37:30.589Z</time>
      </trkpt>
      <trkpt lat="48.79836" lon="2.14431">
        <ele>169.5</ele>
        <time>2015-05-11T19:37:31.604Z</time>
      </trkpt>
      <trkpt lat="48.79839" lon="2.14422">
        <ele>169.6</ele>
        <time>2015-05-11T19:37:32.509Z</time>
      </trkpt>
      <trkpt lat="48.79841" lon="2.14414">
        <ele>169.7</ele>
        <time>2015-05-11T19:37:33.533Z</time>
      </trkpt>
      <trkpt lat="48.79844" lon="2.14406">
        <ele>169.5</ele>
        <time>2015-05-11T19:37:34.550Z</time>
      </trkpt>
      <trkpt lat="48.79846" lon="2.14398">
        <ele>169.3</ele>
        <time>2015-05-11T19:37:35.560Z</time>
      </trkpt>
      <trkpt lat="48.79849" lon="2.1439">
        <ele>169.1</ele>
        <time>2015-05-11T19:37:36.588Z</time>
      </trkpt>
      <trkpt lat="48.79853" lon="2.14382">
        <ele>169.3</ele>
        <time>2015-05-11T19:37:37.604Z</time>
      </trkpt>
      <trkpt lat="48.79855" lon="2.14373">
        <ele>169.4</ele>
        <time>2015-05-11T19:37:38.617Z</time>
      </trkpt>
      <trkpt lat="48.79858" lon="2.14365">
        <ele>169.5</ele>
        <time>2015-05-11T19:37:39.618Z</time>
      </trkpt>
      <trkpt lat="48.7986" lon="2.14356">
        <ele>169.8</ele>
        <time>2015-05-11T19:37:40.517Z</time>
      </trkpt>
      <trkpt lat="48.79862" lon="2.14347">
        <ele>169.9</ele>
        <time>2015-05-11T19:37:41.529Z</time>
      </trkpt>
      <trkpt lat="48.79865" lon="2.14339">
        <ele>169.9</ele>
        <time>2015-05-11T19:37:42.583Z</time>
      </trkpt>
      <trkpt lat="48.79866" lon="2.14329">
        <ele>170.1</ele>
        <time>2015-05-11T19:37:43.583Z</time>
      </trkpt>
      <trkpt lat="48.79868" lon="2.1432">
        <ele>170.2</ele>
        <time>2015-05-11T19:37:44.601Z</time>
      </trkpt>
      <trkpt lat="48.79871" lon="2.14311">
        <ele>170.6</ele>
        <time>2015-05-11T19:37:45.531Z</time>
      </trkpt>
      <trkpt lat="48.79873" lon="2.14303">
        <ele>170.8</ele>
        <time>2015-05-11T19:37:46.521Z</time>
      </trkpt>
      <trkpt lat="48.79875" lon="2.14294">
        <ele>170.7</ele>
        <time>2015-05-11T19:37:47.542Z</time>
      </trkpt>
      <trkpt lat="48.79877" lon="2.14285">
        <ele>170.9</ele>
        <time>2015-05-11T19:37:48.564Z</time>
      </trkpt>
      <trkpt lat="48.7988" lon="2.14278">
        <ele>171</ele>
        <time>2015-05-11T19:37:49.567Z</time>
      </trkpt>
      <trkpt lat="48.79882" lon="2.14269">
        <ele>171</ele>
        <time>2015-05-11T19:37:50.568Z</time>
      </trkpt>
      <trkpt lat="48.79884" lon="2.1426">
        <ele>171.2</ele>
        <time>2015-05-11T19:37:51.576Z</time>
      </trkpt>
      <trkpt lat="48.79887" lon="2.14251">
        <ele>171.6</ele>
        <time>2015-05-11T19:37:52.596Z</time>
      </trkpt>
      <trkpt lat="48.79889" lon="2.14242">
        <ele>171.8</ele>
        <time>2015-05-11T19:37:53.607Z</time>
      </trkpt>
      <trkpt lat="48.79891" lon="2.14233">
        <ele>172.3</ele>
        <time>2015-05-11T19:37:54.621Z</time>
      </trkpt>
      <trkpt lat="48.79893" lon="2.14223">
        <ele>172.6</ele>
        <time>2015-05-11T19:37:55.526Z</time>
      </trkpt>
      <trkpt lat="48.79895" lon="2.14214">
        <ele>172.8</ele>
        <time>2015-05-11T19:37:56.530Z</time>
      </trkpt>
      <trkpt lat="48.79898" lon="2.14206">
        <ele>173.2</ele>
        <time>2015-05-11T19:37:57.538Z</time>
      </trkpt>
      <trkpt lat="48.799" lon="2.14197">
        <ele>173.6</ele>
        <time>2015-05-11T19:37:58.549Z</time>
      </trkpt>
      <trkpt lat="48.79903" lon="2.14189">
        <ele>173.9</ele>
        <time>2015-05-11T19:37:59.558Z</time>
      </trkpt>
      <trkpt lat="48.79905" lon="2.1418">
        <ele>173.9</ele>
        <time>2015-05-11T19:38:00.573Z</time>
      </trkpt>
      <trkpt lat="48.79907" lon="2.14171">
        <ele>173.9</ele>
        <time>2015-05-11T19:38:01.582Z</time>
      </trkpt>
      <trkpt lat="48.79909" lon="2.14162">
        <ele>174.2</ele>
        <time>2015-05-11T19:38:02.605Z</time>
      </trkpt>
      <trkpt lat="48.79911" lon="2.14154">
        <ele>174.2</ele>
        <time>2015-05-11T19:38:03.527Z</time>
      </trkpt>
      <trkpt lat="48.79913" lon="2.14145">
        <ele>174.1</ele>
        <time>2015-05-11T19:38:04.562Z</time>
      </trkpt>
      <trkpt lat="48.79915" lon="2.14137">
        <ele>174.3</ele>
        <time>2015-05-11T19:38:05.542Z</time>
      </trkpt>
      <trkpt lat="48.79919" lon="2.14129">
        <ele>174.6</ele>
        <time>2015-05-11T19:38:06.587Z</time>
      </trkpt>
      <trkpt lat="48.7992" lon="2.1412">
        <ele>174.9</ele>
        <time>2015-05-11T19:38:07.582Z</time>
      </trkpt>
      <trkpt lat="48.79922" lon="2.14112">
        <ele>175</ele>
        <time>2015-05-11T19:38:08.591Z</time>
      </trkpt>
      <trkpt lat="48.79925" lon="2.14104">
        <ele>175.1</ele>
        <time>2015-05-11T19:38:09.598Z</time>
      </trkpt>
      <trkpt lat="48.79926" lon="2.14096">
        <ele>175.1</ele>
        <time>2015-05-11T19:38:10.536Z</time>
      </trkpt>
      <trkpt lat="48.79929" lon="2.14088">
        <ele>175</ele>
        <time>2015-05-11T19:38:11.538Z</time>
      </trkpt>
      <trkpt lat="48.79932" lon="2.1408">
        <ele>174.9</ele>
        <time>2015-05-11T19:38:12.609Z</time>
      </trkpt>
      <trkpt lat="48.79935" lon="2.14073">
        <ele>174.5</ele>
        <time>2015-05-11T19:38:13.590Z</time>
      </trkpt>
      <trkpt lat="48.79937" lon="2.14066">
        <ele>174.4</ele>
        <time>2015-05-11T19:38:14.596Z</time>
      </trkpt>
      <trkpt lat="48.7994" lon="2.14058">
        <ele>174.2</ele>
        <time>2015-05-11T19:38:15.609Z</time>
      </trkpt>
      <trkpt lat="48.79942" lon="2.1405">
        <ele>174.2</ele>
        <time>2015-05-11T19:38:16.616Z</time>
      </trkpt>
      <trkpt lat="48.79945" lon="2.14043">
        <ele>174.4</ele>
        <time>2015-05-11T19:38:17.622Z</time>
      </trkpt>
      <trkpt lat="48.79947" lon="2.14035">
        <ele>174.2</ele>
        <time>2015-05-11T19:38:18.636Z</time>
      </trkpt>
      <trkpt lat="48.7995" lon="2.14027">
        <ele>174.3</ele>
        <time>2015-05-11T19:38:19.538Z</time>
      </trkpt>
      <trkpt lat="48.79953" lon="2.14018">
        <ele>174.4</ele>
        <time>2015-05-11T19:38:20.543Z</time>
      </trkpt>
      <trkpt lat="48.79955" lon="2.14009">
        <ele>174.8</ele>
        <time>2015-05-11T19:38:21.549Z</time>
      </trkpt>
      <trkpt lat="48.79957" lon="2.14">
        <ele>175.1</ele>
        <time>2015-05-11T19:38:22.569Z</time>
      </trkpt>
      <trkpt lat="48.79959" lon="2.13991">
        <ele>175.1</ele>
        <time>2015-05-11T19:38:23.574Z</time>
      </trkpt>
      <trkpt lat="48.79961" lon="2.13983">
        <ele>174.9</ele>
        <time>2015-05-11T19:38:24.573Z</time>
      </trkpt>
      <trkpt lat="48.79964" lon="2.13974">
        <ele>175.1</ele>
        <time>2015-05-11T19:38:25.585Z</time>
      </trkpt>
      <trkpt lat="48.79967" lon="2.13966">
        <ele>175.1</ele>
        <time>2015-05-11T19:38:26.598Z</time>
      </trkpt>
      <trkpt lat="48.79969" lon="2.13957">
        <ele>175</ele>
        <time>2015-05-11T19:38:27.601Z</time>
      </trkpt>
      <trkpt lat="48.79973" lon="2.1395">
        <ele>174.5</ele>
        <time>2015-05-11T19:38:28.612Z</time>
      </trkpt>
      <trkpt lat="48.79976" lon="2.13941">
        <ele>174.3</ele>
        <time>2015-05-11T19:38:29.513Z</time>
      </trkpt>
      <trkpt lat="48.79978" lon="2.13933">
        <ele>174</ele>
        <time>2015-05-11T19:38:30.567Z</time>
      </trkpt>
      <trkpt lat="48.79982" lon="2.13925">
        <ele>173.9</ele>
        <time>2015-05-11T19:38:31.563Z</time>
      </trkpt>
      <trkpt lat="48.79984" lon="2.13916">
        <ele>174</ele>
        <time>2015-05-11T19:38:32.583Z</time>
      </trkpt>
      <trkpt lat="48.79985" lon="2.13906">
        <ele>174.5</ele>
        <time>2015-05-11T19:38:33.585Z</time>
      </trkpt>
      <trkpt lat="48.79988" lon="2.13897">
        <ele>174.7</ele>
        <time>2015-05-11T19:38:34.600Z</time>
      </trkpt>
      <trkpt lat="48.7999" lon="2.13887">
        <ele>175</ele>
        <time>2015-05-11T19:38:35.566Z</time>
      </trkpt>
      <trkpt lat="48.79993" lon="2.13878">
        <ele>175.1</ele>
        <time>2015-05-11T19:38:36.632Z</time>
      </trkpt>
      <trkpt lat="48.79995" lon="2.13868">
        <ele>175.2</ele>
        <time>2015-05-11T19:38:37.548Z</time>
      </trkpt>
      <trkpt lat="48.79998" lon="2.13859">
        <ele>175.4</ele>
        <time>2015-05-11T19:38:38.568Z</time>
      </trkpt>
      <trkpt lat="48.80001" lon="2.1385">
        <ele>175.8</ele>
        <time>2015-05-11T19:38:39.577Z</time>
      </trkpt>
      <trkpt lat="48.80004" lon="2.1384">
        <ele>175.8</ele>
        <time>2015-05-11T19:38:40.517Z</time>
      </trkpt>
      <trkpt lat="48.80006" lon="2.13831">
        <ele>176</ele>
        <time>2015-05-11T19:38:41.487Z</time>
      </trkpt>
      <trkpt lat="48.80009" lon="2.13822">
        <ele>175.8</ele>
        <time>2015-05-11T19:38:42.562Z</time>
      </trkpt>
      <trkpt lat="48.80012" lon="2.13813">
        <ele>175.4</ele>
        <time>2015-05-11T19:38:43.563Z</time>
      </trkpt>
      <trkpt lat="48.80016" lon="2.13804">
        <ele>175</ele>
        <time>2015-05-11T19:38:44.576Z</time>
      </trkpt>
      <trkpt lat="48.80018" lon="2.13795">
        <ele>174.9</ele>
        <time>2015-05-11T19:38:45.591Z</time>
      </trkpt>
      <trkpt lat="48.80021" lon="2.13785">
        <ele>174.6</ele>
        <time>2015-05-11T19:38:46.525Z</time>
      </trkpt>
      <trkpt lat="48.80024" lon="2.13776">
        <ele>174.7</ele>
        <time>2015-05-11T19:38:47.519Z</time>
      </trkpt>
      <trkpt lat="48.80026" lon="2.13766">
        <ele>175.1</ele>
        <time>2015-05-11T19:38:48.566Z</time>
      </trkpt>
      <trkpt lat="48.80028" lon="2.13757">
        <ele>175</ele>
        <time>2015-05-11T19:38:49.581Z</time>
      </trkpt>
      <trkpt lat="48.80031" lon="2.13748">
        <ele>175.2</ele>
        <time>2015-05-11T19:38:50.579Z</time>
      </trkpt>
      <trkpt lat="48.80033" lon="2.13738">
        <ele>175.6</ele>
        <time>2015-05-11T19:38:51.593Z</time>
      </trkpt>
      <trkpt lat="48.80036" lon="2.13729">
        <ele>175.3</ele>
        <time>2015-05-11T19:38:52.522Z</time>
      </trkpt>
      <trkpt lat="48.80039" lon="2.13719">
        <ele>175.2</ele>
        <time>2015-05-11T19:38:53.530Z</time>
      </trkpt>
      <trkpt lat="48.80041" lon="2.13709">
        <ele>175.2</ele>
        <time>2015-05-11T19:38:54.562Z</time>
      </trkpt>
      <trkpt lat="48.80044" lon="2.137">
        <ele>175.2</ele>
        <time>2015-05-11T19:38:55.589Z</time>
      </trkpt>
      <trkpt lat="48.80046" lon="2.1369">
        <ele>175</ele>
        <time>2015-05-11T19:38:56.580Z</time>
      </trkpt>
      <trkpt lat="48.80049" lon="2.13681">
        <ele>174.8</ele>
        <time>2015-05-11T19:38:57.585Z</time>
      </trkpt>
      <trkpt lat="48.80052" lon="2.13672">
        <ele>175.1</ele>
        <time>2015-05-11T19:38:58.599Z</time>
      </trkpt>
      <trkpt lat="48.80054" lon="2.13661">
        <ele>175.4</ele>
        <time>2015-05-11T19:38:59.516Z</time>
      </trkpt>
      <trkpt lat="48.80056" lon="2.13651">
        <ele>175.8</ele>
        <time>2015-05-11T19:39:00.533Z</time>
      </trkpt>
      <trkpt lat="48.80058" lon="2.1364">
        <ele>176.3</ele>
        <time>2015-05-11T19:39:01.566Z</time>
      </trkpt>
      <trkpt lat="48.8006" lon="2.1363">
        <ele>176.8</ele>
        <time>2015-05-11T19:39:02.584Z</time>
      </trkpt>
      <trkpt lat="48.80062" lon="2.1362">
        <ele>177</ele>
        <time>2015-05-11T19:39:03.598Z</time>
      </trkpt>
      <trkpt lat="48.80064" lon="2.1361">
        <ele>177.3</ele>
        <time>2015-05-11T19:39:04.512Z</time>
      </trkpt>
      <trkpt lat="48.80067" lon="2.136">
        <ele>177.6</ele>
        <time>2015-05-11T19:39:05.518Z</time>
      </trkpt>
      <trkpt lat="48.8007" lon="2.13591">
        <ele>177.8</ele>
        <time>2015-05-11T19:39:06.601Z</time>
      </trkpt>
      <trkpt lat="48.80073" lon="2.13582">
        <ele>177.4</ele>
        <time>2015-05-11T19:39:07.542Z</time>
      </trkpt>
      <trkpt lat="48.80076" lon="2.13573">
        <ele>177</ele>
        <time>2015-05-11T19:39:08.560Z</time>
      </trkpt>
      <trkpt lat="48.80079" lon="2.13564">
        <ele>177</ele>
        <time>2015-05-11T19:39:09.567Z</time>
      </trkpt>
      <trkpt lat="48.80082" lon="2.13554">
        <ele>176.9</ele>
        <time>2015-05-11T19:39:10.575Z</time>
      </trkpt>
      <trkpt lat="48.80084" lon="2.13545">
        <ele>176.6</ele>
        <time>2015-05-11T19:39:11.581Z</time>
      </trkpt>
      <trkpt lat="48.80087" lon="2.13536">
        <ele>176.3</ele>
        <time>2015-05-11T19:39:12.593Z</time>
      </trkpt>
      <trkpt lat="48.80089" lon="2.13526">
        <ele>176.3</ele>
        <time>2015-05-11T19:39:13.529Z</time>
      </trkpt>
      <trkpt lat="48.80091" lon="2.13517">
        <ele>176</ele>
        <time>2015-05-11T19:39:14.521Z</time>
      </trkpt>
      <trkpt lat="48.80094" lon="2.13507">
        <ele>176</ele>
        <time>2015-05-11T19:39:15.529Z</time>
      </trkpt>
      <trkpt lat="48.80096" lon="2.13498">
        <ele>175.8</ele>
        <time>2015-05-11T19:39:16.544Z</time>
      </trkpt>
      <trkpt lat="48.80099" lon="2.13489">
        <ele>176</ele>
        <time>2015-05-11T19:39:17.560Z</time>
      </trkpt>
      <trkpt lat="48.80101" lon="2.13479">
        <ele>176.2</ele>
        <time>2015-05-11T19:39:18.571Z</time>
      </trkpt>
      <trkpt lat="48.80103" lon="2.13469">
        <ele>176.2</ele>
        <time>2015-05-11T19:39:19.592Z</time>
      </trkpt>
      <trkpt lat="48.80106" lon="2.13459">
        <ele>176.4</ele>
        <time>2015-05-11T19:39:20.498Z</time>
      </trkpt>
      <trkpt lat="48.80108" lon="2.1345">
        <ele>176.2</ele>
        <time>2015-05-11T19:39:21.507Z</time>
      </trkpt>
      <trkpt lat="48.8011" lon="2.1344">
        <ele>176.2</ele>
        <time>2015-05-11T19:39:22.513Z</time>
      </trkpt>
      <trkpt lat="48.80113" lon="2.1343">
        <ele>176.4</ele>
        <time>2015-05-11T19:39:23.522Z</time>
      </trkpt>
      <trkpt lat="48.80116" lon="2.13421">
        <ele>176.3</ele>
        <time>2015-05-11T19:39:24.572Z</time>
      </trkpt>
      <trkpt lat="48.80118" lon="2.13411">
        <ele>176.2</ele>
        <time>2015-05-11T19:39:25.587Z</time>
      </trkpt>
      <trkpt lat="48.80121" lon="2.13402">
        <ele>176</ele>
        <time>2015-05-11T19:39:26.515Z</time>
      </trkpt>
      <trkpt lat="48.80124" lon="2.13393">
        <ele>176</ele>
        <time>2015-05-11T19:39:27.515Z</time>
      </trkpt>
      <trkpt lat="48.80127" lon="2.13383">
        <ele>176</ele>
        <time>2015-05-11T19:39:28.520Z</time>
      </trkpt>
      <trkpt lat="48.8013" lon="2.13374">
        <ele>176.2</ele>
        <time>2015-05-11T19:39:29.526Z</time>
      </trkpt>
      <trkpt lat="48.80132" lon="2.13364">
        <ele>176.1</ele>
        <time>2015-05-11T19:39:30.526Z</time>
      </trkpt>
      <trkpt lat="48.80135" lon="2.13355">
        <ele>176.2</ele>
        <time>2015-05-11T19:39:31.547Z</time>
      </trkpt>
      <trkpt lat="48.80137" lon="2.13345">
        <ele>176.4</ele>
        <time>2015-05-11T19:39:32.580Z</time>
      </trkpt>
      <trkpt lat="48.80139" lon="2.13335">
        <ele>176.7</ele>
        <time>2015-05-11T19:39:33.581Z</time>
      </trkpt>
      <trkpt lat="48.80141" lon="2.13325">
        <ele>176.7</ele>
        <time>2015-05-11T19:39:34.584Z</time>
      </trkpt>
      <trkpt lat="48.80144" lon="2.13316">
        <ele>176.6</ele>
        <time>2015-05-11T19:39:35.487Z</time>
      </trkpt>
      <trkpt lat="48.80147" lon="2.13306">
        <ele>176.8</ele>
        <time>2015-05-11T19:39:36.553Z</time>
      </trkpt>
      <trkpt lat="48.80149" lon="2.13297">
        <ele>176.8</ele>
        <time>2015-05-11T19:39:37.561Z</time>
      </trkpt>
      <trkpt lat="48.80152" lon="2.13287">
        <ele>176.6</ele>
        <time>2015-05-11T19:39:38.585Z</time>
      </trkpt>
      <trkpt lat="48.80155" lon="2.13277">
        <ele>176.7</ele>
        <time>2015-05-11T19:39:39.595Z</time>
      </trkpt>
      <trkpt lat="48.80157" lon="2.13267">
        <ele>176.6</ele>
        <time>2015-05-11T19:39:40.526Z</time>
      </trkpt>
      <trkpt lat="48.8016" lon="2.13257">
        <ele>176.6</ele>
        <time>2015-05-11T19:39:41.531Z</time>
      </trkpt>
      <trkpt lat="48.80162" lon="2.13247">
        <ele>176.9</ele>
        <time>2015-05-11T19:39:42.569Z</time>
      </trkpt>
      <trkpt lat="48.80165" lon="2.13238">
        <ele>176.8</ele>
        <time>2015-05-11T19:39:43.578Z</time>
      </trkpt>
      <trkpt lat="48.80168" lon="2.13229">
        <ele>176.6</ele>
        <time>2015-05-11T19:39:44.607Z</time>
      </trkpt>
      <trkpt lat="48.80171" lon="2.13219">
        <ele>176.7</ele>
        <time>2015-05-11T19:39:45.621Z</time>
      </trkpt>
      <trkpt lat="48.80174" lon="2.1321">
        <ele>176.4</ele>
        <time>2015-05-11T19:39:46.515Z</time>
      </trkpt>
      <trkpt lat="48.80178" lon="2.13202">
        <ele>176.1</ele>
        <time>2015-05-11T19:39:47.525Z</time>
      </trkpt>
      <trkpt lat="48.8018" lon="2.13192">
        <ele>176</ele>
        <time>2015-05-11T19:39:48.555Z</time>
      </trkpt>
      <trkpt lat="48.80183" lon="2.13183">
        <ele>175.7</ele>
        <time>2015-05-11T19:39:49.559Z</time>
      </trkpt>
      <trkpt lat="48.80185" lon="2.13173">
        <ele>176</ele>
        <time>2015-05-11T19:39:50.770Z</time>
      </trkpt>
      <trkpt lat="48.80188" lon="2.13163">
        <ele>176.3</ele>
        <time>2015-05-11T19:39:51.523Z</time>
      </trkpt>
      <trkpt lat="48.8019" lon="2.13153">
        <ele>176.9</ele>
        <time>2015-05-11T19:39:52.520Z</time>
      </trkpt>
      <trkpt lat="48.80193" lon="2.13143">
        <ele>176.9</ele>
        <time>2015-05-11T19:39:53.530Z</time>
      </trkpt>
      <trkpt lat="48.80195" lon="2.13133">
        <ele>176.9</ele>
        <time>2015-05-11T19:39:54.563Z</time>
      </trkpt>
      <trkpt lat="48.80197" lon="2.13123">
        <ele>177</ele>
        <time>2015-05-11T19:39:55.565Z</time>
      </trkpt>
      <trkpt lat="48.80199" lon="2.13113">
        <ele>176.9</ele>
        <time>2015-05-11T19:39:56.576Z</time>
      </trkpt>
      <trkpt lat="48.80201" lon="2.13104">
        <ele>176.5</ele>
        <time>2015-05-11T19:39:57.584Z</time>
      </trkpt>
      <trkpt lat="48.80203" lon="2.13095">
        <ele>176.5</ele>
        <time>2015-05-11T19:39:58.611Z</time>
      </trkpt>
      <trkpt lat="48.80205" lon="2.13086">
        <ele>176.5</ele>
        <time>2015-05-11T19:39:59.489Z</time>
      </trkpt>
      <trkpt lat="48.80207" lon="2.13077">
        <ele>176.5</ele>
        <time>2015-05-11T19:40:00.539Z</time>
      </trkpt>
      <trkpt lat="48.80209" lon="2.13069">
        <ele>176.7</ele>
        <time>2015-05-11T19:40:01.571Z</time>
      </trkpt>
      <trkpt lat="48.80211" lon="2.1306">
        <ele>176.8</ele>
        <time>2015-05-11T19:40:02.592Z</time>
      </trkpt>
      <trkpt lat="48.80213" lon="2.13051">
        <ele>176.8</ele>
        <time>2015-05-11T19:40:03.507Z</time>
      </trkpt>
      <trkpt lat="48.80215" lon="2.13042">
        <ele>176.9</ele>
        <time>2015-05-11T19:40:04.511Z</time>
      </trkpt>
      <trkpt lat="48.80217" lon="2.13033">
        <ele>177</ele>
        <time>2015-05-11T19:40:05.526Z</time>
      </trkpt>
      <trkpt lat="48.80221" lon="2.13025">
        <ele>176.7</ele>
        <time>2015-05-11T19:40:06.554Z</time>
      </trkpt>
      <trkpt lat="48.80224" lon="2.13016">
        <ele>176.5</ele>
        <time>2015-05-11T19:40:07.564Z</time>
      </trkpt>
      <trkpt lat="48.80226" lon="2.13007">
        <ele>176.5</ele>
        <time>2015-05-11T19:40:08.571Z</time>
      </trkpt>
      <trkpt lat="48.80229" lon="2.12998">
        <ele>176.6</ele>
        <time>2015-05-11T19:40:09.578Z</time>
      </trkpt>
      <trkpt lat="48.80231" lon="2.12988">
        <ele>176.7</ele>
        <time>2015-05-11T19:40:10.501Z</time>
      </trkpt>
      <trkpt lat="48.80234" lon="2.1298">
        <ele>176.2</ele>
        <time>2015-05-11T19:40:11.502Z</time>
      </trkpt>
      <trkpt lat="48.80237" lon="2.12971">
        <ele>175.8</ele>
        <time>2015-05-11T19:40:12.541Z</time>
      </trkpt>
      <trkpt lat="48.8024" lon="2.12961">
        <ele>175.5</ele>
        <time>2015-05-11T19:40:13.547Z</time>
      </trkpt>
      <trkpt lat="48.80243" lon="2.12952">
        <ele>175.2</ele>
        <time>2015-05-11T19:40:14.565Z</time>
      </trkpt>
      <trkpt lat="48.80245" lon="2.12942">
        <ele>175</ele>
        <time>2015-05-11T19:40:15.619Z</time>
      </trkpt>
      <trkpt lat="48.80247" lon="2.12931">
        <ele>175.4</ele>
        <time>2015-05-11T19:40:16.491Z</time>
      </trkpt>
      <trkpt lat="48.8025" lon="2.12921">
        <ele>175.4</ele>
        <time>2015-05-11T19:40:17.491Z</time>
      </trkpt>
      <trkpt lat="48.80254" lon="2.12911">
        <ele>175.3</ele>
        <time>2015-05-11T19:40:18.537Z</time>
      </trkpt>
      <trkpt lat="48.80257" lon="2.12901">
        <ele>175.2</ele>
        <time>2015-05-11T19:40:19.560Z</time>
      </trkpt>
      <trkpt lat="48.80259" lon="2.1289">
        <ele>175.2</ele>
        <time>2015-05-11T19:40:20.490Z</time>
      </trkpt>
      <trkpt lat="48.80261" lon="2.1288">
        <ele>174.9</ele>
        <time>2015-05-11T19:40:21.518Z</time>
      </trkpt>
      <trkpt lat="48.80264" lon="2.1287">
        <ele>174.6</ele>
        <time>2015-05-11T19:40:22.542Z</time>
      </trkpt>
      <trkpt lat="48.80267" lon="2.1286">
        <ele>174.5</ele>
        <time>2015-05-11T19:40:23.550Z</time>
      </trkpt>
      <trkpt lat="48.80271" lon="2.1285">
        <ele>174.3</ele>
        <time>2015-05-11T19:40:24.594Z</time>
      </trkpt>
      <trkpt lat="48.80274" lon="2.1284">
        <ele>174.3</ele>
        <time>2015-05-11T19:40:25.520Z</time>
      </trkpt>
      <trkpt lat="48.80276" lon="2.12829">
        <ele>174.3</ele>
        <time>2015-05-11T19:40:26.522Z</time>
      </trkpt>
      <trkpt lat="48.80279" lon="2.12819">
        <ele>174.3</ele>
        <time>2015-05-11T19:40:27.529Z</time>
      </trkpt>
      <trkpt lat="48.80281" lon="2.12808">
        <ele>174.5</ele>
        <time>2015-05-11T19:40:28.546Z</time>
      </trkpt>
      <trkpt lat="48.80283" lon="2.12798">
        <ele>174.6</ele>
        <time>2015-05-11T19:40:29.595Z</time>
      </trkpt>
      <trkpt lat="48.80285" lon="2.12788">
        <ele>174.5</ele>
        <time>2015-05-11T19:40:30.536Z</time>
      </trkpt>
      <trkpt lat="48.80287" lon="2.12779">
        <ele>174.4</ele>
        <time>2015-05-11T19:40:31.535Z</time>
      </trkpt>
      <trkpt lat="48.80289" lon="2.1277">
        <ele>174.3</ele>
        <time>2015-05-11T19:40:32.592Z</time>
      </trkpt>
      <trkpt lat="48.80291" lon="2.1276">
        <ele>174.6</ele>
        <time>2015-05-11T19:40:33.489Z</time>
      </trkpt>
      <trkpt lat="48.80292" lon="2.12751">
        <ele>174.8</ele>
        <time>2015-05-11T19:40:34.509Z</time>
      </trkpt>
      <trkpt lat="48.80294" lon="2.12741">
        <ele>175</ele>
        <time>2015-05-11T19:40:35.529Z</time>
      </trkpt>
      <trkpt lat="48.80296" lon="2.12733">
        <ele>174.9</ele>
        <time>2015-05-11T19:40:36.546Z</time>
      </trkpt>
      <trkpt lat="48.80298" lon="2.12725">
        <ele>175</ele>
        <time>2015-05-11T19:40:37.552Z</time>
      </trkpt>
      <trkpt lat="48.803" lon="2.12716">
        <ele>175.3</ele>
        <time>2015-05-11T19:40:38.568Z</time>
      </trkpt>
      <trkpt lat="48.80302" lon="2.12708">
        <ele>175.7</ele>
        <time>2015-05-11T19:40:39.577Z</time>
      </trkpt>
      <trkpt lat="48.80304" lon="2.12701">
        <ele>175.9</ele>
        <time>2015-05-11T19:40:40.583Z</time>
      </trkpt>
      <trkpt lat="48.80305" lon="2.12694">
        <ele>175.9</ele>
        <time>2015-05-11T19:40:41.594Z</time>
      </trkpt>
      <trkpt lat="48.80309" lon="2.12683">
        <ele>176</ele>
        <time>2015-05-11T19:40:43.497Z</time>
      </trkpt>
      <trkpt lat="48.80311" lon="2.12678">
        <ele>176.3</ele>
        <time>2015-05-11T19:40:44.589Z</time>
      </trkpt>
      <trkpt lat="48.80314" lon="2.12669">
        <ele>176.5</ele>
        <time>2015-05-11T19:40:46.535Z</time>
      </trkpt>
      <trkpt lat="48.80316" lon="2.12665">
        <ele>176.7</ele>
        <time>2015-05-11T19:40:47.596Z</time>
      </trkpt>
      <trkpt lat="48.80318" lon="2.12655">
        <ele>177.4</ele>
        <time>2015-05-11T19:40:49.547Z</time>
      </trkpt>
      <trkpt lat="48.80319" lon="2.1265">
        <ele>177.8</ele>
        <time>2015-05-11T19:40:50.670Z</time>
      </trkpt>
      <trkpt lat="48.80321" lon="2.12639">
        <ele>178.1</ele>
        <time>2015-05-11T19:40:53.587Z</time>
      </trkpt>
      <trkpt lat="48.80321" lon="2.12635">
        <ele>177.9</ele>
        <time>2015-05-11T19:40:54.634Z</time>
      </trkpt>
      <trkpt lat="48.80319" lon="2.12626">
        <ele>177.6</ele>
        <time>2015-05-11T19:40:57.591Z</time>
      </trkpt>
      <trkpt lat="48.80318" lon="2.12622">
        <ele>178.3</ele>
        <time>2015-05-11T19:40:58.557Z</time>
      </trkpt>
      <trkpt lat="48.80316" lon="2.12618">
        <ele>178.6</ele>
        <time>2015-05-11T19:41:33.520Z</time>
      </trkpt>
      <trkpt lat="48.80326" lon="2.12602">
        <ele>179.4</ele>
        <time>2015-05-11T19:41:34.549Z</time>
      </trkpt>
      <trkpt lat="48.80328" lon="2.1259">
        <ele>179.3</ele>
        <time>2015-05-11T19:53:12.556Z</time>
      </trkpt>
      <trkpt lat="48.80329" lon="2.12589">
        <ele>179.3</ele>
        <time>2015-05-11T19:53:13.509Z</time>
      </trkpt>
      <trkpt lat="48.80324" lon="2.12599">
        <ele>173.6</ele>
        <time>2015-05-11T19:53:47.484Z</time>
      </trkpt>
      <trkpt lat="48.80323" lon="2.126">
        <ele>173.3</ele>
        <time>2015-05-11T19:53:48.548Z</time>
      </trkpt>
      <trkpt lat="48.80322" lon="2.126">
        <ele>173.3</ele>
        <time>2015-05-11T19:55:33.544Z</time>
      </trkpt>
      <trkpt lat="48.8032" lon="2.12634">
        <ele>178.3</ele>
        <time>2015-05-11T19:55:34.548Z</time>
      </trkpt>
      <trkpt lat="48.80314" lon="2.12644">
        <ele>177.4</ele>
        <time>2015-05-11T19:55:37.463Z</time>
      </trkpt>
      <trkpt lat="48.80313" lon="2.12648">
        <ele>177.3</ele>
        <time>2015-05-11T19:55:38.524Z</time>
      </trkpt>
      <trkpt lat="48.8031" lon="2.12657">
        <ele>176.8</ele>
        <time>2015-05-11T19:55:40.554Z</time>
      </trkpt>
      <trkpt lat="48.80308" lon="2.12662">
        <ele>175.9</ele>
        <time>2015-05-11T19:55:41.584Z</time>
      </trkpt>
      <trkpt lat="48.80305" lon="2.12672">
        <ele>175</ele>
        <time>2015-05-11T19:55:43.766Z</time>
      </trkpt>
      <trkpt lat="48.80302" lon="2.12677">
        <ele>175.2</ele>
        <time>2015-05-11T19:55:44.475Z</time>
      </trkpt>
      <trkpt lat="48.80299" lon="2.12688">
        <ele>175.5</ele>
        <time>2015-05-11T19:55:47.518Z</time>
      </trkpt>
      <trkpt lat="48.80297" lon="2.12693">
        <ele>175.1</ele>
        <time>2015-05-11T19:55:47.562Z</time>
      </trkpt>
      <trkpt lat="48.80293" lon="2.12704">
        <ele>174.6</ele>
        <time>2015-05-11T19:55:49.521Z</time>
      </trkpt>
      <trkpt lat="48.80292" lon="2.1271">
        <ele>174.5</ele>
        <time>2015-05-11T19:55:50.562Z</time>
      </trkpt>
      <trkpt lat="48.80289" lon="2.12723">
        <ele>174.3</ele>
        <time>2015-05-11T19:55:52.578Z</time>
      </trkpt>
      <trkpt lat="48.80289" lon="2.12729">
        <ele>174.1</ele>
        <time>2015-05-11T19:55:53.569Z</time>
      </trkpt>
      <trkpt lat="48.80287" lon="2.12741">
        <ele>173.9</ele>
        <time>2015-05-11T19:55:55.520Z</time>
      </trkpt>
      <trkpt lat="48.80285" lon="2.12747">
        <ele>173.9</ele>
        <time>2015-05-11T19:55:56.500Z</time>
      </trkpt>
      <trkpt lat="48.80283" lon="2.12758">
        <ele>173.8</ele>
        <time>2015-05-11T19:55:58.523Z</time>
      </trkpt>
      <trkpt lat="48.80281" lon="2.12763">
        <ele>173.9</ele>
        <time>2015-05-11T19:55:59.560Z</time>
      </trkpt>
      <trkpt lat="48.80278" lon="2.12773">
        <ele>174</ele>
        <time>2015-05-11T19:56:01.482Z</time>
      </trkpt>
      <trkpt lat="48.80276" lon="2.12778">
        <ele>173.9</ele>
        <time>2015-05-11T19:56:02.509Z</time>
      </trkpt>
      <trkpt lat="48.80272" lon="2.1279">
        <ele>174</ele>
        <time>2015-05-11T19:56:04.479Z</time>
      </trkpt>
      <trkpt lat="48.80271" lon="2.12796">
        <ele>174.1</ele>
        <time>2015-05-11T19:56:05.597Z</time>
      </trkpt>
      <trkpt lat="48.80268" lon="2.12809">
        <ele>174.3</ele>
        <time>2015-05-11T19:56:07.999Z</time>
      </trkpt>
      <trkpt lat="48.80265" lon="2.12815">
        <ele>174.5</ele>
        <time>2015-05-11T19:56:08.554Z</time>
      </trkpt>
      <trkpt lat="48.80263" lon="2.12822">
        <ele>174.6</ele>
        <time>2015-05-11T19:56:09.558Z</time>
      </trkpt>
      <trkpt lat="48.80262" lon="2.12828">
        <ele>174.6</ele>
        <time>2015-05-11T19:56:10.627Z</time>
      </trkpt>
      <trkpt lat="48.8026" lon="2.12835">
        <ele>174.6</ele>
        <time>2015-05-11T19:56:11.560Z</time>
      </trkpt>
      <trkpt lat="48.80259" lon="2.12842">
        <ele>174.6</ele>
        <time>2015-05-11T19:56:12.571Z</time>
      </trkpt>
      <trkpt lat="48.80257" lon="2.12849">
        <ele>174.6</ele>
        <time>2015-05-11T19:56:13.592Z</time>
      </trkpt>
      <trkpt lat="48.80256" lon="2.12855">
        <ele>174.7</ele>
        <time>2015-05-11T19:56:14.595Z</time>
      </trkpt>
      <trkpt lat="48.80254" lon="2.12862">
        <ele>174.7</ele>
        <time>2015-05-11T19:56:15.496Z</time>
      </trkpt>
      <trkpt lat="48.80251" lon="2.12868">
        <ele>174.9</ele>
        <time>2015-05-11T19:56:16.505Z</time>
      </trkpt>
      <trkpt lat="48.80249" lon="2.12875">
        <ele>175.2</ele>
        <time>2015-05-11T19:56:18.178Z</time>
      </trkpt>
      <trkpt lat="48.80247" lon="2.12882">
        <ele>175.4</ele>
        <time>2015-05-11T19:56:18.541Z</time>
      </trkpt>
      <trkpt lat="48.80246" lon="2.12889">
        <ele>175.6</ele>
        <time>2015-05-11T19:56:19.569Z</time>
      </trkpt>
      <trkpt lat="48.80244" lon="2.12896">
        <ele>175.6</ele>
        <time>2015-05-11T19:56:20.473Z</time>
      </trkpt>
      <trkpt lat="48.80243" lon="2.12904">
        <ele>175.9</ele>
        <time>2015-05-11T19:56:21.526Z</time>
      </trkpt>
      <trkpt lat="48.80242" lon="2.12912">
        <ele>176.1</ele>
        <time>2015-05-11T19:56:22.520Z</time>
      </trkpt>
      <trkpt lat="48.8024" lon="2.12919">
        <ele>176.3</ele>
        <time>2015-05-11T19:56:23.545Z</time>
      </trkpt>
      <trkpt lat="48.80239" lon="2.12926">
        <ele>176.5</ele>
        <time>2015-05-11T19:56:24.567Z</time>
      </trkpt>
      <trkpt lat="48.80235" lon="2.12937">
        <ele>177.1</ele>
        <time>2015-05-11T19:56:26.616Z</time>
      </trkpt>
      <trkpt lat="48.80233" lon="2.12943">
        <ele>177.1</ele>
        <time>2015-05-11T19:56:27.509Z</time>
      </trkpt>
      <trkpt lat="48.80229" lon="2.12954">
        <ele>176.9</ele>
        <time>2015-05-11T19:56:29.580Z</time>
      </trkpt>
      <trkpt lat="48.80227" lon="2.1296">
        <ele>176.9</ele>
        <time>2015-05-11T19:56:30.708Z</time>
      </trkpt>
      <trkpt lat="48.80223" lon="2.12971">
        <ele>177.8</ele>
        <time>2015-05-11T19:56:32.635Z</time>
      </trkpt>
      <trkpt lat="48.80222" lon="2.12977">
        <ele>178.1</ele>
        <time>2015-05-11T19:56:33.502Z</time>
      </trkpt>
      <trkpt lat="48.80218" lon="2.12989">
        <ele>178.6</ele>
        <time>2015-05-11T19:56:35.512Z</time>
      </trkpt>
      <trkpt lat="48.80217" lon="2.12994">
        <ele>178.8</ele>
        <time>2015-05-11T19:56:36.607Z</time>
      </trkpt>
      <trkpt lat="48.80214" lon="2.13005">
        <ele>179</ele>
        <time>2015-05-11T19:56:38.525Z</time>
      </trkpt>
      <trkpt lat="48.80213" lon="2.13012">
        <ele>179.2</ele>
        <time>2015-05-11T19:56:39.541Z</time>
      </trkpt>
      <trkpt lat="48.80209" lon="2.13022">
        <ele>179.1</ele>
        <time>2015-05-11T19:56:41.666Z</time>
      </trkpt>
      <trkpt lat="48.80207" lon="2.13028">
        <ele>178.7</ele>
        <time>2015-05-11T19:56:42.599Z</time>
      </trkpt>
      <trkpt lat="48.80204" lon="2.13038">
        <ele>178.1</ele>
        <time>2015-05-11T19:56:44.524Z</time>
      </trkpt>
      <trkpt lat="48.80202" lon="2.13045">
        <ele>177.3</ele>
        <time>2015-05-11T19:56:45.540Z</time>
      </trkpt>
      <trkpt lat="48.80199" lon="2.13056">
        <ele>176.2</ele>
        <time>2015-05-11T19:56:47.677Z</time>
      </trkpt>
      <trkpt lat="48.80197" lon="2.13062">
        <ele>176.4</ele>
        <time>2015-05-11T19:56:48.597Z</time>
      </trkpt>
      <trkpt lat="48.80194" lon="2.13073">
        <ele>176.1</ele>
        <time>2015-05-11T19:56:50.538Z</time>
      </trkpt>
      <trkpt lat="48.80192" lon="2.1308">
        <ele>176.8</ele>
        <time>2015-05-11T19:56:51.551Z</time>
      </trkpt>
      <trkpt lat="48.80189" lon="2.13091">
        <ele>176.8</ele>
        <time>2015-05-11T19:56:53.543Z</time>
      </trkpt>
      <trkpt lat="48.80189" lon="2.13097">
        <ele>176.8</ele>
        <time>2015-05-11T19:56:54.617Z</time>
      </trkpt>
      <trkpt lat="48.80188" lon="2.13108">
        <ele>176.6</ele>
        <time>2015-05-11T19:56:56.501Z</time>
      </trkpt>
      <trkpt lat="48.80187" lon="2.13114">
        <ele>176.5</ele>
        <time>2015-05-11T19:56:57.513Z</time>
      </trkpt>
      <trkpt lat="48.80184" lon="2.13126">
        <ele>176</ele>
        <time>2015-05-11T19:56:59.546Z</time>
      </trkpt>
      <trkpt lat="48.80183" lon="2.13132">
        <ele>175.6</ele>
        <time>2015-05-11T19:57:00.573Z</time>
      </trkpt>
      <trkpt lat="48.8018" lon="2.13143">
        <ele>175.3</ele>
        <time>2015-05-11T19:57:02.509Z</time>
      </trkpt>
      <trkpt lat="48.80178" lon="2.13149">
        <ele>175</ele>
        <time>2015-05-11T19:57:03.512Z</time>
      </trkpt>
      <trkpt lat="48.80176" lon="2.13155">
        <ele>174.6</ele>
        <time>2015-05-11T19:57:04.551Z</time>
      </trkpt>
      <trkpt lat="48.80174" lon="2.13162">
        <ele>174.2</ele>
        <time>2015-05-11T19:57:05.560Z</time>
      </trkpt>
      <trkpt lat="48.80172" lon="2.13169">
        <ele>173.8</ele>
        <time>2015-05-11T19:57:06.585Z</time>
      </trkpt>
      <trkpt lat="48.80171" lon="2.13175">
        <ele>173.7</ele>
        <time>2015-05-11T19:57:07.541Z</time>
      </trkpt>
      <trkpt lat="48.80169" lon="2.13182">
        <ele>173.6</ele>
        <time>2015-05-11T19:57:08.590Z</time>
      </trkpt>
      <trkpt lat="48.80168" lon="2.13188">
        <ele>173.9</ele>
        <time>2015-05-11T19:57:09.537Z</time>
      </trkpt>
      <trkpt lat="48.80165" lon="2.13199">
        <ele>174.6</ele>
        <time>2015-05-11T19:57:11.473Z</time>
      </trkpt>
      <trkpt lat="48.80164" lon="2.13205">
        <ele>174.9</ele>
        <time>2015-05-11T19:57:12.510Z</time>
      </trkpt>
      <trkpt lat="48.80161" lon="2.13217">
        <ele>175</ele>
        <time>2015-05-11T19:57:14.527Z</time>
      </trkpt>
      <trkpt lat="48.80159" lon="2.13223">
        <ele>175</ele>
        <time>2015-05-11T19:57:15.566Z</time>
      </trkpt>
      <trkpt lat="48.80155" lon="2.13234">
        <ele>174.9</ele>
        <time>2015-05-11T19:57:17.480Z</time>
      </trkpt>
      <trkpt lat="48.80153" lon="2.1324">
        <ele>174.9</ele>
        <time>2015-05-11T19:57:18.518Z</time>
      </trkpt>
      <trkpt lat="48.80151" lon="2.13246">
        <ele>174.8</ele>
        <time>2015-05-11T19:57:19.646Z</time>
      </trkpt>
      <trkpt lat="48.8015" lon="2.13253">
        <ele>175.1</ele>
        <time>2015-05-11T19:57:20.512Z</time>
      </trkpt>
      <trkpt lat="48.80148" lon="2.1326">
        <ele>175.3</ele>
        <time>2015-05-11T19:57:21.533Z</time>
      </trkpt>
      <trkpt lat="48.80146" lon="2.13267">
        <ele>175.3</ele>
        <time>2015-05-11T19:57:22.558Z</time>
      </trkpt>
      <trkpt lat="48.80144" lon="2.13274">
        <ele>175.3</ele>
        <time>2015-05-11T19:57:23.582Z</time>
      </trkpt>
      <trkpt lat="48.80142" lon="2.13281">
        <ele>175.5</ele>
        <time>2015-05-11T19:57:24.596Z</time>
      </trkpt>
      <trkpt lat="48.8014" lon="2.13288">
        <ele>175.6</ele>
        <time>2015-05-11T19:57:25.504Z</time>
      </trkpt>
      <trkpt lat="48.80138" lon="2.13295">
        <ele>175.8</ele>
        <time>2015-05-11T19:57:26.534Z</time>
      </trkpt>
      <trkpt lat="48.80137" lon="2.13303">
        <ele>176.1</ele>
        <time>2015-05-11T19:57:27.563Z</time>
      </trkpt>
      <trkpt lat="48.80135" lon="2.1331">
        <ele>176</ele>
        <time>2015-05-11T19:57:28.571Z</time>
      </trkpt>
      <trkpt lat="48.80132" lon="2.13322">
        <ele>175.6</ele>
        <time>2015-05-11T19:57:30.598Z</time>
      </trkpt>
      <trkpt lat="48.8013" lon="2.13329">
        <ele>175.4</ele>
        <time>2015-05-11T19:57:31.527Z</time>
      </trkpt>
      <trkpt lat="48.80128" lon="2.13337">
        <ele>175.2</ele>
        <time>2015-05-11T19:57:32.556Z</time>
      </trkpt>
      <trkpt lat="48.80126" lon="2.13345">
        <ele>175.1</ele>
        <time>2015-05-11T19:57:33.562Z</time>
      </trkpt>
      <trkpt lat="48.80125" lon="2.13353">
        <ele>175.1</ele>
        <time>2015-05-11T19:57:34.578Z</time>
      </trkpt>
      <trkpt lat="48.80124" lon="2.1336">
        <ele>175.2</ele>
        <time>2015-05-11T19:57:35.586Z</time>
      </trkpt>
      <trkpt lat="48.80121" lon="2.13366">
        <ele>175.2</ele>
        <time>2015-05-11T19:57:36.596Z</time>
      </trkpt>
      <trkpt lat="48.80119" lon="2.13373">
        <ele>174.9</ele>
        <time>2015-05-11T19:57:37.495Z</time>
      </trkpt>
      <trkpt lat="48.80116" lon="2.1338">
        <ele>174.7</ele>
        <time>2015-05-11T19:57:38.509Z</time>
      </trkpt>
      <trkpt lat="48.80114" lon="2.13387">
        <ele>174.8</ele>
        <time>2015-05-11T19:57:39.540Z</time>
      </trkpt>
      <trkpt lat="48.80112" lon="2.13395">
        <ele>174.7</ele>
        <time>2015-05-11T19:57:40.542Z</time>
      </trkpt>
      <trkpt lat="48.80111" lon="2.13403">
        <ele>174.7</ele>
        <time>2015-05-11T19:57:41.561Z</time>
      </trkpt>
      <trkpt lat="48.80109" lon="2.13411">
        <ele>174.6</ele>
        <time>2015-05-11T19:57:42.571Z</time>
      </trkpt>
      <trkpt lat="48.80107" lon="2.1342">
        <ele>174.9</ele>
        <time>2015-05-11T19:57:43.614Z</time>
      </trkpt>
      <trkpt lat="48.80105" lon="2.13428">
        <ele>174.8</ele>
        <time>2015-05-11T19:57:44.503Z</time>
      </trkpt>
      <trkpt lat="48.80103" lon="2.13437">
        <ele>175</ele>
        <time>2015-05-11T19:57:45.496Z</time>
      </trkpt>
      <trkpt lat="48.80102" lon="2.13445">
        <ele>175</ele>
        <time>2015-05-11T19:57:46.509Z</time>
      </trkpt>
      <trkpt lat="48.801" lon="2.13454">
        <ele>175</ele>
        <time>2015-05-11T19:57:47.508Z</time>
      </trkpt>
      <trkpt lat="48.80098" lon="2.13461">
        <ele>175.1</ele>
        <time>2015-05-11T19:57:48.541Z</time>
      </trkpt>
      <trkpt lat="48.80095" lon="2.13469">
        <ele>175</ele>
        <time>2015-05-11T19:57:49.569Z</time>
      </trkpt>
      <trkpt lat="48.80094" lon="2.13478">
        <ele>174.9</ele>
        <time>2015-05-11T19:57:50.579Z</time>
      </trkpt>
      <trkpt lat="48.80092" lon="2.13486">
        <ele>175</ele>
        <time>2015-05-11T19:57:51.505Z</time>
      </trkpt>
      <trkpt lat="48.8009" lon="2.13494">
        <ele>175.1</ele>
        <time>2015-05-11T19:57:52.500Z</time>
      </trkpt>
      <trkpt lat="48.80087" lon="2.135">
        <ele>175</ele>
        <time>2015-05-11T19:57:53.506Z</time>
      </trkpt>
      <trkpt lat="48.80085" lon="2.13507">
        <ele>175</ele>
        <time>2015-05-11T19:57:54.544Z</time>
      </trkpt>
      <trkpt lat="48.80082" lon="2.13515">
        <ele>174.8</ele>
        <time>2015-05-11T19:57:55.551Z</time>
      </trkpt>
      <trkpt lat="48.8008" lon="2.13523">
        <ele>174.7</ele>
        <time>2015-05-11T19:57:56.494Z</time>
      </trkpt>
      <trkpt lat="48.80078" lon="2.13531">
        <ele>174.6</ele>
        <time>2015-05-11T19:57:57.508Z</time>
      </trkpt>
      <trkpt lat="48.80076" lon="2.13539">
        <ele>174.7</ele>
        <time>2015-05-11T19:57:58.501Z</time>
      </trkpt>
      <trkpt lat="48.80074" lon="2.13546">
        <ele>174.7</ele>
        <time>2015-05-11T19:57:59.513Z</time>
      </trkpt>
      <trkpt lat="48.80071" lon="2.13552">
        <ele>174.5</ele>
        <time>2015-05-11T19:58:00.520Z</time>
      </trkpt>
      <trkpt lat="48.80068" lon="2.13559">
        <ele>174.2</ele>
        <time>2015-05-11T19:58:01.537Z</time>
      </trkpt>
      <trkpt lat="48.80066" lon="2.13566">
        <ele>173.9</ele>
        <time>2015-05-11T19:58:02.498Z</time>
      </trkpt>
      <trkpt lat="48.80065" lon="2.13574">
        <ele>173.7</ele>
        <time>2015-05-11T19:58:03.498Z</time>
      </trkpt>
      <trkpt lat="48.80063" lon="2.13581">
        <ele>173.4</ele>
        <time>2015-05-11T19:58:04.519Z</time>
      </trkpt>
      <trkpt lat="48.80061" lon="2.13588">
        <ele>173.2</ele>
        <time>2015-05-11T19:58:05.534Z</time>
      </trkpt>
      <trkpt lat="48.8006" lon="2.13596">
        <ele>173.6</ele>
        <time>2015-05-11T19:58:06.546Z</time>
      </trkpt>
      <trkpt lat="48.80058" lon="2.13604">
        <ele>173.9</ele>
        <time>2015-05-11T19:58:07.553Z</time>
      </trkpt>
      <trkpt lat="48.80055" lon="2.13612">
        <ele>173.9</ele>
        <time>2015-05-11T19:58:08.561Z</time>
      </trkpt>
      <trkpt lat="48.80054" lon="2.1362">
        <ele>174</ele>
        <time>2015-05-11T19:58:09.573Z</time>
      </trkpt>
      <trkpt lat="48.80052" lon="2.13628">
        <ele>174.1</ele>
        <time>2015-05-11T19:58:10.497Z</time>
      </trkpt>
      <trkpt lat="48.8005" lon="2.13637">
        <ele>174.1</ele>
        <time>2015-05-11T19:58:11.503Z</time>
      </trkpt>
      <trkpt lat="48.80047" lon="2.13644">
        <ele>174.1</ele>
        <time>2015-05-11T19:58:12.558Z</time>
      </trkpt>
      <trkpt lat="48.80045" lon="2.13651">
        <ele>174.3</ele>
        <time>2015-05-11T19:58:13.502Z</time>
      </trkpt>
      <trkpt lat="48.80042" lon="2.13658">
        <ele>174.5</ele>
        <time>2015-05-11T19:58:14.527Z</time>
      </trkpt>
      <trkpt lat="48.8004" lon="2.13666">
        <ele>174.4</ele>
        <time>2015-05-11T19:58:15.534Z</time>
      </trkpt>
      <trkpt lat="48.80038" lon="2.13675">
        <ele>174.1</ele>
        <time>2015-05-11T19:58:16.563Z</time>
      </trkpt>
      <trkpt lat="48.80036" lon="2.13683">
        <ele>174.1</ele>
        <time>2015-05-11T19:58:17.583Z</time>
      </trkpt>
      <trkpt lat="48.80033" lon="2.1369">
        <ele>174</ele>
        <time>2015-05-11T19:58:18.601Z</time>
      </trkpt>
      <trkpt lat="48.80031" lon="2.13698">
        <ele>173.9</ele>
        <time>2015-05-11T19:58:19.480Z</time>
      </trkpt>
      <trkpt lat="48.80029" lon="2.13705">
        <ele>173.7</ele>
        <time>2015-05-11T19:58:20.501Z</time>
      </trkpt>
      <trkpt lat="48.80026" lon="2.13713">
        <ele>173.3</ele>
        <time>2015-05-11T19:58:21.508Z</time>
      </trkpt>
      <trkpt lat="48.80024" lon="2.1372">
        <ele>173.1</ele>
        <time>2015-05-11T19:58:22.523Z</time>
      </trkpt>
      <trkpt lat="48.80022" lon="2.13728">
        <ele>173</ele>
        <time>2015-05-11T19:58:23.530Z</time>
      </trkpt>
      <trkpt lat="48.8002" lon="2.13736">
        <ele>173.1</ele>
        <time>2015-05-11T19:58:24.555Z</time>
      </trkpt>
      <trkpt lat="48.80018" lon="2.13744">
        <ele>173.2</ele>
        <time>2015-05-11T19:58:25.566Z</time>
      </trkpt>
      <trkpt lat="48.80016" lon="2.13751">
        <ele>173.5</ele>
        <time>2015-05-11T19:58:26.580Z</time>
      </trkpt>
      <trkpt lat="48.80014" lon="2.13759">
        <ele>173.4</ele>
        <time>2015-05-11T19:58:27.501Z</time>
      </trkpt>
      <trkpt lat="48.80012" lon="2.13768">
        <ele>173.5</ele>
        <time>2015-05-11T19:58:28.509Z</time>
      </trkpt>
      <trkpt lat="48.8001" lon="2.13777">
        <ele>173.8</ele>
        <time>2015-05-11T19:58:29.511Z</time>
      </trkpt>
      <trkpt lat="48.80008" lon="2.13785">
        <ele>173.8</ele>
        <time>2015-05-11T19:58:30.544Z</time>
      </trkpt>
      <trkpt lat="48.80006" lon="2.13793">
        <ele>173.8</ele>
        <time>2015-05-11T19:58:31.568Z</time>
      </trkpt>
      <trkpt lat="48.80004" lon="2.138">
        <ele>173.9</ele>
        <time>2015-05-11T19:58:32.605Z</time>
      </trkpt>
      <trkpt lat="48.80001" lon="2.13808">
        <ele>174.1</ele>
        <time>2015-05-11T19:58:33.497Z</time>
      </trkpt>
      <trkpt lat="48.8" lon="2.13815">
        <ele>174.1</ele>
        <time>2015-05-11T19:58:34.502Z</time>
      </trkpt>
      <trkpt lat="48.79997" lon="2.13822">
        <ele>174</ele>
        <time>2015-05-11T19:58:35.509Z</time>
      </trkpt>
      <trkpt lat="48.79995" lon="2.13829">
        <ele>173.9</ele>
        <time>2015-05-11T19:58:36.539Z</time>
      </trkpt>
      <trkpt lat="48.79994" lon="2.13837">
        <ele>173.7</ele>
        <time>2015-05-11T19:58:37.549Z</time>
      </trkpt>
      <trkpt lat="48.79993" lon="2.13844">
        <ele>173.8</ele>
        <time>2015-05-11T19:58:38.480Z</time>
      </trkpt>
      <trkpt lat="48.79991" lon="2.13851">
        <ele>173.6</ele>
        <time>2015-05-11T19:58:39.498Z</time>
      </trkpt>
      <trkpt lat="48.79989" lon="2.13859">
        <ele>173.2</ele>
        <time>2015-05-11T19:58:40.592Z</time>
      </trkpt>
      <trkpt lat="48.79987" lon="2.13866">
        <ele>172.8</ele>
        <time>2015-05-11T19:58:41.473Z</time>
      </trkpt>
      <trkpt lat="48.79985" lon="2.13874">
        <ele>172.4</ele>
        <time>2015-05-11T19:58:42.538Z</time>
      </trkpt>
      <trkpt lat="48.79983" lon="2.13881">
        <ele>172.1</ele>
        <time>2015-05-11T19:58:43.544Z</time>
      </trkpt>
      <trkpt lat="48.79981" lon="2.13888">
        <ele>172</ele>
        <time>2015-05-11T19:58:44.547Z</time>
      </trkpt>
      <trkpt lat="48.79979" lon="2.13894">
        <ele>172.1</ele>
        <time>2015-05-11T19:58:45.558Z</time>
      </trkpt>
      <trkpt lat="48.79977" lon="2.13901">
        <ele>172.1</ele>
        <time>2015-05-11T19:58:46.597Z</time>
      </trkpt>
      <trkpt lat="48.79975" lon="2.13909">
        <ele>172.5</ele>
        <time>2015-05-11T19:58:47.502Z</time>
      </trkpt>
      <trkpt lat="48.79973" lon="2.13917">
        <ele>172.7</ele>
        <time>2015-05-11T19:58:48.534Z</time>
      </trkpt>
      <trkpt lat="48.79971" lon="2.13925">
        <ele>172.6</ele>
        <time>2015-05-11T19:58:49.537Z</time>
      </trkpt>
      <trkpt lat="48.7997" lon="2.13933">
        <ele>172.4</ele>
        <time>2015-05-11T19:58:50.562Z</time>
      </trkpt>
      <trkpt lat="48.79968" lon="2.1394">
        <ele>172.3</ele>
        <time>2015-05-11T19:58:51.566Z</time>
      </trkpt>
      <trkpt lat="48.79966" lon="2.13948">
        <ele>172.1</ele>
        <time>2015-05-11T19:58:52.504Z</time>
      </trkpt>
      <trkpt lat="48.79964" lon="2.13956">
        <ele>172.1</ele>
        <time>2015-05-11T19:58:53.484Z</time>
      </trkpt>
      <trkpt lat="48.79962" lon="2.13963">
        <ele>171.9</ele>
        <time>2015-05-11T19:58:54.538Z</time>
      </trkpt>
      <trkpt lat="48.79959" lon="2.13971">
        <ele>171.8</ele>
        <time>2015-05-11T19:58:55.528Z</time>
      </trkpt>
      <trkpt lat="48.79957" lon="2.13978">
        <ele>171.7</ele>
        <time>2015-05-11T19:58:56.536Z</time>
      </trkpt>
      <trkpt lat="48.79954" lon="2.13986">
        <ele>171.8</ele>
        <time>2015-05-11T19:58:57.548Z</time>
      </trkpt>
      <trkpt lat="48.79952" lon="2.13994">
        <ele>171.7</ele>
        <time>2015-05-11T19:58:58.554Z</time>
      </trkpt>
      <trkpt lat="48.79949" lon="2.14004">
        <ele>171.9</ele>
        <time>2015-05-11T19:58:59.560Z</time>
      </trkpt>
      <trkpt lat="48.79947" lon="2.14012">
        <ele>172.3</ele>
        <time>2015-05-11T19:59:00.580Z</time>
      </trkpt>
      <trkpt lat="48.79945" lon="2.14021">
        <ele>172.6</ele>
        <time>2015-05-11T19:59:01.586Z</time>
      </trkpt>
      <trkpt lat="48.79942" lon="2.14029">
        <ele>172.7</ele>
        <time>2015-05-11T19:59:02.496Z</time>
      </trkpt>
      <trkpt lat="48.79939" lon="2.14038">
        <ele>172.9</ele>
        <time>2015-05-11T19:59:03.500Z</time>
      </trkpt>
      <trkpt lat="48.79937" lon="2.14047">
        <ele>173</ele>
        <time>2015-05-11T19:59:04.498Z</time>
      </trkpt>
      <trkpt lat="48.79934" lon="2.14056">
        <ele>173.3</ele>
        <time>2015-05-11T19:59:05.507Z</time>
      </trkpt>
      <trkpt lat="48.79932" lon="2.14065">
        <ele>173.6</ele>
        <time>2015-05-11T19:59:06.539Z</time>
      </trkpt>
      <trkpt lat="48.79929" lon="2.14074">
        <ele>174</ele>
        <time>2015-05-11T19:59:07.551Z</time>
      </trkpt>
      <trkpt lat="48.79927" lon="2.14083">
        <ele>174.1</ele>
        <time>2015-05-11T19:59:08.564Z</time>
      </trkpt>
      <trkpt lat="48.79924" lon="2.14092">
        <ele>174.1</ele>
        <time>2015-05-11T19:59:09.574Z</time>
      </trkpt>
      <trkpt lat="48.79921" lon="2.14102">
        <ele>174.4</ele>
        <time>2015-05-11T19:59:10.584Z</time>
      </trkpt>
      <trkpt lat="48.79919" lon="2.14112">
        <ele>174.6</ele>
        <time>2015-05-11T19:59:11.592Z</time>
      </trkpt>
      <trkpt lat="48.79916" lon="2.14123">
        <ele>174.5</ele>
        <time>2015-05-11T19:59:12.563Z</time>
      </trkpt>
      <trkpt lat="48.79914" lon="2.14134">
        <ele>174.3</ele>
        <time>2015-05-11T19:59:13.515Z</time>
      </trkpt>
      <trkpt lat="48.79912" lon="2.14145">
        <ele>174</ele>
        <time>2015-05-11T19:59:14.535Z</time>
      </trkpt>
      <trkpt lat="48.7991" lon="2.14155">
        <ele>173.6</ele>
        <time>2015-05-11T19:59:15.582Z</time>
      </trkpt>
      <trkpt lat="48.79907" lon="2.14165">
        <ele>173.1</ele>
        <time>2015-05-11T19:59:16.510Z</time>
      </trkpt>
      <trkpt lat="48.79905" lon="2.14176">
        <ele>172.7</ele>
        <time>2015-05-11T19:59:17.518Z</time>
      </trkpt>
      <trkpt lat="48.79903" lon="2.14187">
        <ele>172.5</ele>
        <time>2015-05-11T19:59:18.566Z</time>
      </trkpt>
      <trkpt lat="48.79899" lon="2.14197">
        <ele>172.3</ele>
        <time>2015-05-11T19:59:19.583Z</time>
      </trkpt>
      <trkpt lat="48.79897" lon="2.14207">
        <ele>172.3</ele>
        <time>2015-05-11T19:59:20.483Z</time>
      </trkpt>
      <trkpt lat="48.79895" lon="2.14217">
        <ele>172.1</ele>
        <time>2015-05-11T19:59:21.490Z</time>
      </trkpt>
      <trkpt lat="48.79892" lon="2.14226">
        <ele>171.8</ele>
        <time>2015-05-11T19:59:22.501Z</time>
      </trkpt>
      <trkpt lat="48.7989" lon="2.14236">
        <ele>171.5</ele>
        <time>2015-05-11T19:59:23.511Z</time>
      </trkpt>
      <trkpt lat="48.79886" lon="2.14246">
        <ele>171.4</ele>
        <time>2015-05-11T19:59:24.532Z</time>
      </trkpt>
      <trkpt lat="48.79883" lon="2.14256">
        <ele>171.2</ele>
        <time>2015-05-11T19:59:25.534Z</time>
      </trkpt>
      <trkpt lat="48.7988" lon="2.14266">
        <ele>171</ele>
        <time>2015-05-11T19:59:26.541Z</time>
      </trkpt>
      <trkpt lat="48.79877" lon="2.14276">
        <ele>170.7</ele>
        <time>2015-05-11T19:59:27.556Z</time>
      </trkpt>
      <trkpt lat="48.79875" lon="2.14286">
        <ele>170.4</ele>
        <time>2015-05-11T19:59:28.486Z</time>
      </trkpt>
      <trkpt lat="48.79873" lon="2.14296">
        <ele>170</ele>
        <time>2015-05-11T19:59:29.482Z</time>
      </trkpt>
      <trkpt lat="48.79871" lon="2.14307">
        <ele>169.7</ele>
        <time>2015-05-11T19:59:30.545Z</time>
      </trkpt>
      <trkpt lat="48.79869" lon="2.14318">
        <ele>169.5</ele>
        <time>2015-05-11T19:59:31.549Z</time>
      </trkpt>
      <trkpt lat="48.79866" lon="2.14328">
        <ele>169.1</ele>
        <time>2015-05-11T19:59:32.557Z</time>
      </trkpt>
      <trkpt lat="48.79863" lon="2.14337">
        <ele>169</ele>
        <time>2015-05-11T19:59:33.559Z</time>
      </trkpt>
      <trkpt lat="48.7986" lon="2.14345">
        <ele>168.7</ele>
        <time>2015-05-11T19:59:34.567Z</time>
      </trkpt>
      <trkpt lat="48.79857" lon="2.14354">
        <ele>168.6</ele>
        <time>2015-05-11T19:59:35.486Z</time>
      </trkpt>
      <trkpt lat="48.79853" lon="2.14363">
        <ele>168.3</ele>
        <time>2015-05-11T19:59:36.596Z</time>
      </trkpt>
      <trkpt lat="48.7985" lon="2.14372">
        <ele>167.9</ele>
        <time>2015-05-11T19:59:37.480Z</time>
      </trkpt>
      <trkpt lat="48.79846" lon="2.14381">
        <ele>168.1</ele>
        <time>2015-05-11T19:59:38.490Z</time>
      </trkpt>
      <trkpt lat="48.79842" lon="2.14391">
        <ele>168</ele>
        <time>2015-05-11T19:59:39.489Z</time>
      </trkpt>
      <trkpt lat="48.7984" lon="2.14401">
        <ele>167.8</ele>
        <time>2015-05-11T19:59:40.517Z</time>
      </trkpt>
      <trkpt lat="48.79837" lon="2.14411">
        <ele>167.6</ele>
        <time>2015-05-11T19:59:41.532Z</time>
      </trkpt>
      <trkpt lat="48.79835" lon="2.14421">
        <ele>167.5</ele>
        <time>2015-05-11T19:59:42.543Z</time>
      </trkpt>
      <trkpt lat="48.79833" lon="2.14431">
        <ele>167.2</ele>
        <time>2015-05-11T19:59:43.547Z</time>
      </trkpt>
      <trkpt lat="48.79831" lon="2.1444">
        <ele>167.7</ele>
        <time>2015-05-11T19:59:44.457Z</time>
      </trkpt>
      <trkpt lat="48.79829" lon="2.14449">
        <ele>168.1</ele>
        <time>2015-05-11T19:59:45.567Z</time>
      </trkpt>
      <trkpt lat="48.79827" lon="2.14458">
        <ele>168.6</ele>
        <time>2015-05-11T19:59:46.486Z</time>
      </trkpt>
      <trkpt lat="48.79825" lon="2.14467">
        <ele>169.2</ele>
        <time>2015-05-11T19:59:47.496Z</time>
      </trkpt>
      <trkpt lat="48.79823" lon="2.14475">
        <ele>169.6</ele>
        <time>2015-05-11T19:59:48.620Z</time>
      </trkpt>
      <trkpt lat="48.79821" lon="2.14484">
        <ele>170</ele>
        <time>2015-05-11T19:59:49.495Z</time>
      </trkpt>
      <trkpt lat="48.79819" lon="2.14494">
        <ele>170.4</ele>
        <time>2015-05-11T19:59:50.504Z</time>
      </trkpt>
      <trkpt lat="48.79818" lon="2.14504">
        <ele>170.9</ele>
        <time>2015-05-11T19:59:51.510Z</time>
      </trkpt>
      <trkpt lat="48.79817" lon="2.14515">
        <ele>171</ele>
        <time>2015-05-11T19:59:52.518Z</time>
      </trkpt>
      <trkpt lat="48.79817" lon="2.14524">
        <ele>170.9</ele>
        <time>2015-05-11T19:59:53.528Z</time>
      </trkpt>
      <trkpt lat="48.79816" lon="2.14532">
        <ele>171.9</ele>
        <time>2015-05-11T19:59:54.543Z</time>
      </trkpt>
      <trkpt lat="48.79816" lon="2.14541">
        <ele>172.6</ele>
        <time>2015-05-11T19:59:55.554Z</time>
      </trkpt>
      <trkpt lat="48.79817" lon="2.14548">
        <ele>172.6</ele>
        <time>2015-05-11T19:59:56.563Z</time>
      </trkpt>
      <trkpt lat="48.79817" lon="2.14556">
        <ele>172.9</ele>
        <time>2015-05-11T19:59:57.577Z</time>
      </trkpt>
      <trkpt lat="48.79818" lon="2.14565">
        <ele>172.5</ele>
        <time>2015-05-11T19:59:58.508Z</time>
      </trkpt>
      <trkpt lat="48.79819" lon="2.14572">
        <ele>171.9</ele>
        <time>2015-05-11T19:59:59.503Z</time>
      </trkpt>
      <trkpt lat="48.7982" lon="2.1458">
        <ele>171.8</ele>
        <time>2015-05-11T20:00:00.618Z</time>
      </trkpt>
      <trkpt lat="48.79822" lon="2.14588">
        <ele>171.6</ele>
        <time>2015-05-11T20:00:01.479Z</time>
      </trkpt>
      <trkpt lat="48.79822" lon="2.14597">
        <ele>171.1</ele>
        <time>2015-05-11T20:00:02.516Z</time>
      </trkpt>
      <trkpt lat="48.79821" lon="2.14605">
        <ele>171.1</ele>
        <time>2015-05-11T20:00:03.527Z</time>
      </trkpt>
      <trkpt lat="48.79821" lon="2.14614">
        <ele>171.5</ele>
        <time>2015-05-11T20:00:04.539Z</time>
      </trkpt>
      <trkpt lat="48.79822" lon="2.14622">
        <ele>171.6</ele>
        <time>2015-05-11T20:00:05.547Z</time>
      </trkpt>
      <trkpt lat="48.79823" lon="2.14631">
        <ele>171.4</ele>
        <time>2015-05-11T20:00:06.560Z</time>
      </trkpt>
      <trkpt lat="48.79823" lon="2.1464">
        <ele>171.3</ele>
        <time>2015-05-11T20:00:07.564Z</time>
      </trkpt>
      <trkpt lat="48.79823" lon="2.1465">
        <ele>171.8</ele>
        <time>2015-05-11T20:00:08.573Z</time>
      </trkpt>
      <trkpt lat="48.79824" lon="2.14659">
        <ele>172.2</ele>
        <time>2015-05-11T20:00:09.586Z</time>
      </trkpt>
      <trkpt lat="48.79823" lon="2.14669">
        <ele>172.6</ele>
        <time>2015-05-11T20:00:10.495Z</time>
      </trkpt>
      <trkpt lat="48.79822" lon="2.14679">
        <ele>172.4</ele>
        <time>2015-05-11T20:00:11.494Z</time>
      </trkpt>
      <trkpt lat="48.7982" lon="2.14689">
        <ele>172.3</ele>
        <time>2015-05-11T20:00:12.554Z</time>
      </trkpt>
      <trkpt lat="48.79819" lon="2.14699">
        <ele>172.5</ele>
        <time>2015-05-11T20:00:13.561Z</time>
      </trkpt>
      <trkpt lat="48.79818" lon="2.14708">
        <ele>172.2</ele>
        <time>2015-05-11T20:00:14.578Z</time>
      </trkpt>
      <trkpt lat="48.79819" lon="2.14718">
        <ele>172.1</ele>
        <time>2015-05-11T20:00:15.586Z</time>
      </trkpt>
      <trkpt lat="48.79819" lon="2.14728">
        <ele>172.2</ele>
        <time>2015-05-11T20:00:16.590Z</time>
      </trkpt>
      <trkpt lat="48.79818" lon="2.14737">
        <ele>171.8</ele>
        <time>2015-05-11T20:00:17.498Z</time>
      </trkpt>
      <trkpt lat="48.79819" lon="2.14747">
        <ele>172.2</ele>
        <time>2015-05-11T20:00:18.538Z</time>
      </trkpt>
      <trkpt lat="48.7982" lon="2.14757">
        <ele>172.2</ele>
        <time>2015-05-11T20:00:19.535Z</time>
      </trkpt>
      <trkpt lat="48.7982" lon="2.14765">
        <ele>172.2</ele>
        <time>2015-05-11T20:00:20.563Z</time>
      </trkpt>
      <trkpt lat="48.79821" lon="2.14774">
        <ele>172</ele>
        <time>2015-05-11T20:00:21.576Z</time>
      </trkpt>
      <trkpt lat="48.79821" lon="2.14783">
        <ele>172.1</ele>
        <time>2015-05-11T20:00:22.498Z</time>
      </trkpt>
      <trkpt lat="48.79821" lon="2.14792">
        <ele>171.8</ele>
        <time>2015-05-11T20:00:23.483Z</time>
      </trkpt>
      <trkpt lat="48.79822" lon="2.14801">
        <ele>172</ele>
        <time>2015-05-11T20:00:24.539Z</time>
      </trkpt>
      <trkpt lat="48.79822" lon="2.14811">
        <ele>171.9</ele>
        <time>2015-05-11T20:00:25.553Z</time>
      </trkpt>
      <trkpt lat="48.79823" lon="2.1482">
        <ele>171.8</ele>
        <time>2015-05-11T20:00:26.575Z</time>
      </trkpt>
      <trkpt lat="48.79823" lon="2.14829">
        <ele>171.8</ele>
        <time>2015-05-11T20:00:27.578Z</time>
      </trkpt>
      <trkpt lat="48.79824" lon="2.14839">
        <ele>171.9</ele>
        <time>2015-05-11T20:00:28.481Z</time>
      </trkpt>
      <trkpt lat="48.79824" lon="2.14849">
        <ele>171.8</ele>
        <time>2015-05-11T20:00:29.498Z</time>
      </trkpt>
      <trkpt lat="48.79825" lon="2.14859">
        <ele>171.8</ele>
        <time>2015-05-11T20:00:30.537Z</time>
      </trkpt>
      <trkpt lat="48.79825" lon="2.1487">
        <ele>172.1</ele>
        <time>2015-05-11T20:00:31.535Z</time>
      </trkpt>
      <trkpt lat="48.79825" lon="2.1488">
        <ele>172.1</ele>
        <time>2015-05-11T20:00:32.548Z</time>
      </trkpt>
      <trkpt lat="48.79825" lon="2.14892">
        <ele>172.2</ele>
        <time>2015-05-11T20:00:33.557Z</time>
      </trkpt>
      <trkpt lat="48.79824" lon="2.14903">
        <ele>172.4</ele>
        <time>2015-05-11T20:00:34.476Z</time>
      </trkpt>
      <trkpt lat="48.79824" lon="2.14914">
        <ele>172.6</ele>
        <time>2015-05-11T20:00:35.492Z</time>
      </trkpt>
      <trkpt lat="48.79824" lon="2.14925">
        <ele>173</ele>
        <time>2015-05-11T20:00:36.538Z</time>
      </trkpt>
      <trkpt lat="48.79825" lon="2.14935">
        <ele>172.8</ele>
        <time>2015-05-11T20:00:37.543Z</time>
      </trkpt>
      <trkpt lat="48.79825" lon="2.14945">
        <ele>172.8</ele>
        <time>2015-05-11T20:00:38.548Z</time>
      </trkpt>
      <trkpt lat="48.79826" lon="2.14955">
        <ele>172.6</ele>
        <time>2015-05-11T20:00:39.563Z</time>
      </trkpt>
      <trkpt lat="48.79825" lon="2.14966">
        <ele>172.3</ele>
        <time>2015-05-11T20:00:40.575Z</time>
      </trkpt>
      <trkpt lat="48.79825" lon="2.14977">
        <ele>172.2</ele>
        <time>2015-05-11T20:00:41.499Z</time>
      </trkpt>
      <trkpt lat="48.79825" lon="2.14986">
        <ele>172.4</ele>
        <time>2015-05-11T20:00:42.595Z</time>
      </trkpt>
      <trkpt lat="48.79826" lon="2.14996">
        <ele>172.5</ele>
        <time>2015-05-11T20:00:43.491Z</time>
      </trkpt>
      <trkpt lat="48.79825" lon="2.15006">
        <ele>172.3</ele>
        <time>2015-05-11T20:00:44.497Z</time>
      </trkpt>
      <trkpt lat="48.79825" lon="2.15017">
        <ele>172.6</ele>
        <time>2015-05-11T20:00:45.505Z</time>
      </trkpt>
      <trkpt lat="48.79825" lon="2.15027">
        <ele>172.5</ele>
        <time>2015-05-11T20:00:46.526Z</time>
      </trkpt>
      <trkpt lat="48.79827" lon="2.15037">
        <ele>172.2</ele>
        <time>2015-05-11T20:00:47.553Z</time>
      </trkpt>
      <trkpt lat="48.79827" lon="2.15047">
        <ele>171.7</ele>
        <time>2015-05-11T20:00:48.572Z</time>
      </trkpt>
      <trkpt lat="48.79829" lon="2.15056">
        <ele>171.4</ele>
        <time>2015-05-11T20:00:49.500Z</time>
      </trkpt>
      <trkpt lat="48.79829" lon="2.15066">
        <ele>171</ele>
        <time>2015-05-11T20:00:50.500Z</time>
      </trkpt>
      <trkpt lat="48.79831" lon="2.15076">
        <ele>170.6</ele>
        <time>2015-05-11T20:00:51.514Z</time>
      </trkpt>
      <trkpt lat="48.79833" lon="2.15086">
        <ele>170.3</ele>
        <time>2015-05-11T20:00:52.523Z</time>
      </trkpt>
      <trkpt lat="48.79834" lon="2.15095">
        <ele>169.9</ele>
        <time>2015-05-11T20:00:53.551Z</time>
      </trkpt>
      <trkpt lat="48.79835" lon="2.15104">
        <ele>169.7</ele>
        <time>2015-05-11T20:00:54.556Z</time>
      </trkpt>
      <trkpt lat="48.79837" lon="2.15114">
        <ele>169.5</ele>
        <time>2015-05-11T20:00:55.562Z</time>
      </trkpt>
      <trkpt lat="48.79838" lon="2.15124">
        <ele>169.4</ele>
        <time>2015-05-11T20:00:56.573Z</time>
      </trkpt>
      <trkpt lat="48.7984" lon="2.15134">
        <ele>169.4</ele>
        <time>2015-05-11T20:00:57.575Z</time>
      </trkpt>
      <trkpt lat="48.79841" lon="2.15143">
        <ele>169.4</ele>
        <time>2015-05-11T20:00:58.494Z</time>
      </trkpt>
      <trkpt lat="48.79842" lon="2.15153">
        <ele>169.7</ele>
        <time>2015-05-11T20:00:59.503Z</time>
      </trkpt>
      <trkpt lat="48.79842" lon="2.15162">
        <ele>170.2</ele>
        <time>2015-05-11T20:01:00.512Z</time>
      </trkpt>
      <trkpt lat="48.79842" lon="2.15172">
        <ele>170.7</ele>
        <time>2015-05-11T20:01:01.535Z</time>
      </trkpt>
      <trkpt lat="48.79842" lon="2.15181">
        <ele>170.9</ele>
        <time>2015-05-11T20:01:02.543Z</time>
      </trkpt>
      <trkpt lat="48.79843" lon="2.15189">
        <ele>171.4</ele>
        <time>2015-05-11T20:01:03.552Z</time>
      </trkpt>
      <trkpt lat="48.79844" lon="2.15197">
        <ele>171.6</ele>
        <time>2015-05-11T20:01:04.564Z</time>
      </trkpt>
      <trkpt lat="48.79844" lon="2.15207">
        <ele>171</ele>
        <time>2015-05-11T20:01:05.558Z</time>
      </trkpt>
      <trkpt lat="48.79842" lon="2.15216">
        <ele>171.2</ele>
        <time>2015-05-11T20:01:06.582Z</time>
      </trkpt>
      <trkpt lat="48.7984" lon="2.15226">
        <ele>171.1</ele>
        <time>2015-05-11T20:01:07.512Z</time>
      </trkpt>
      <trkpt lat="48.7984" lon="2.15235">
        <ele>170.8</ele>
        <time>2015-05-11T20:01:08.506Z</time>
      </trkpt>
      <trkpt lat="48.79839" lon="2.15244">
        <ele>170.6</ele>
        <time>2015-05-11T20:01:09.503Z</time>
      </trkpt>
      <trkpt lat="48.79838" lon="2.15253">
        <ele>170.5</ele>
        <time>2015-05-11T20:01:10.505Z</time>
      </trkpt>
      <trkpt lat="48.79838" lon="2.15262">
        <ele>170.5</ele>
        <time>2015-05-11T20:01:11.510Z</time>
      </trkpt>
      <trkpt lat="48.79838" lon="2.1527">
        <ele>170.4</ele>
        <time>2015-05-11T20:01:12.539Z</time>
      </trkpt>
      <trkpt lat="48.79838" lon="2.15277">
        <ele>170.2</ele>
        <time>2015-05-11T20:01:13.572Z</time>
      </trkpt>
      <trkpt lat="48.79837" lon="2.15284">
        <ele>170.2</ele>
        <time>2015-05-11T20:01:14.498Z</time>
      </trkpt>
      <trkpt lat="48.79837" lon="2.15292">
        <ele>170.3</ele>
        <time>2015-05-11T20:01:15.508Z</time>
      </trkpt>
      <trkpt lat="48.79837" lon="2.153">
        <ele>170.5</ele>
        <time>2015-05-11T20:01:16.511Z</time>
      </trkpt>
      <trkpt lat="48.79839" lon="2.15307">
        <ele>170.4</ele>
        <time>2015-05-11T20:01:17.515Z</time>
      </trkpt>
      <trkpt lat="48.79841" lon="2.15315">
        <ele>169.8</ele>
        <time>2015-05-11T20:01:18.546Z</time>
      </trkpt>
      <trkpt lat="48.79842" lon="2.15323">
        <ele>169.2</ele>
        <time>2015-05-11T20:01:19.557Z</time>
      </trkpt>
      <trkpt lat="48.79842" lon="2.15332">
        <ele>168.7</ele>
        <time>2015-05-11T20:01:20.575Z</time>
      </trkpt>
      <trkpt lat="48.79842" lon="2.15341">
        <ele>168.7</ele>
        <time>2015-05-11T20:01:21.497Z</time>
      </trkpt>
      <trkpt lat="48.79842" lon="2.1535">
        <ele>168.7</ele>
        <time>2015-05-11T20:01:22.493Z</time>
      </trkpt>
      <trkpt lat="48.79842" lon="2.15359">
        <ele>168.1</ele>
        <time>2015-05-11T20:01:23.501Z</time>
      </trkpt>
      <trkpt lat="48.79842" lon="2.15368">
        <ele>167.2</ele>
        <time>2015-05-11T20:01:24.539Z</time>
      </trkpt>
      <trkpt lat="48.79843" lon="2.15376">
        <ele>167</ele>
        <time>2015-05-11T20:01:25.542Z</time>
      </trkpt>
      <trkpt lat="48.79844" lon="2.15384">
        <ele>166.9</ele>
        <time>2015-05-11T20:01:26.561Z</time>
      </trkpt>
      <trkpt lat="48.79844" lon="2.15392">
        <ele>166.5</ele>
        <time>2015-05-11T20:01:27.562Z</time>
      </trkpt>
      <trkpt lat="48.79845" lon="2.154">
        <ele>166.4</ele>
        <time>2015-05-11T20:01:28.577Z</time>
      </trkpt>
      <trkpt lat="48.79846" lon="2.15409">
        <ele>165.8</ele>
        <time>2015-05-11T20:01:29.582Z</time>
      </trkpt>
      <trkpt lat="48.79847" lon="2.15417">
        <ele>165.2</ele>
        <time>2015-05-11T20:01:30.588Z</time>
      </trkpt>
      <trkpt lat="48.79847" lon="2.15425">
        <ele>165.4</ele>
        <time>2015-05-11T20:01:31.499Z</time>
      </trkpt>
      <trkpt lat="48.79847" lon="2.15433">
        <ele>165.1</ele>
        <time>2015-05-11T20:01:32.509Z</time>
      </trkpt>
      <trkpt lat="48.79847" lon="2.15442">
        <ele>164.7</ele>
        <time>2015-05-11T20:01:33.515Z</time>
      </trkpt>
      <trkpt lat="48.79847" lon="2.1545">
        <ele>164.5</ele>
        <time>2015-05-11T20:01:34.535Z</time>
      </trkpt>
      <trkpt lat="48.79847" lon="2.15459">
        <ele>164</ele>
        <time>2015-05-11T20:01:35.554Z</time>
      </trkpt>
      <trkpt lat="48.79848" lon="2.15468">
        <ele>163.9</ele>
        <time>2015-05-11T20:01:36.567Z</time>
      </trkpt>
      <trkpt lat="48.79848" lon="2.15477">
        <ele>163.7</ele>
        <time>2015-05-11T20:01:37.571Z</time>
      </trkpt>
      <trkpt lat="48.79848" lon="2.15486">
        <ele>163.7</ele>
        <time>2015-05-11T20:01:38.470Z</time>
      </trkpt>
      <trkpt lat="48.79848" lon="2.15495">
        <ele>163.8</ele>
        <time>2015-05-11T20:01:39.497Z</time>
      </trkpt>
      <trkpt lat="48.79849" lon="2.15505">
        <ele>163.8</ele>
        <time>2015-05-11T20:01:40.506Z</time>
      </trkpt>
      <trkpt lat="48.7985" lon="2.15515">
        <ele>163.8</ele>
        <time>2015-05-11T20:01:41.562Z</time>
      </trkpt>
      <trkpt lat="48.79851" lon="2.15524">
        <ele>163.7</ele>
        <time>2015-05-11T20:01:42.548Z</time>
      </trkpt>
      <trkpt lat="48.79852" lon="2.15533">
        <ele>163.8</ele>
        <time>2015-05-11T20:01:43.562Z</time>
      </trkpt>
      <trkpt lat="48.79853" lon="2.15543">
        <ele>163.8</ele>
        <time>2015-05-11T20:01:44.473Z</time>
      </trkpt>
      <trkpt lat="48.79854" lon="2.15551">
        <ele>163.9</ele>
        <time>2015-05-11T20:01:45.515Z</time>
      </trkpt>
      <trkpt lat="48.79854" lon="2.15561">
        <ele>164</ele>
        <time>2015-05-11T20:01:46.503Z</time>
      </trkpt>
      <trkpt lat="48.79854" lon="2.1557">
        <ele>164.1</ele>
        <time>2015-05-11T20:01:47.507Z</time>
      </trkpt>
      <trkpt lat="48.79855" lon="2.1558">
        <ele>164.1</ele>
        <time>2015-05-11T20:01:48.545Z</time>
      </trkpt>
      <trkpt lat="48.79856" lon="2.1559">
        <ele>164.3</ele>
        <time>2015-05-11T20:01:49.556Z</time>
      </trkpt>
      <trkpt lat="48.79856" lon="2.156">
        <ele>163.9</ele>
        <time>2015-05-11T20:01:50.577Z</time>
      </trkpt>
      <trkpt lat="48.79856" lon="2.1561">
        <ele>164</ele>
        <time>2015-05-11T20:01:51.497Z</time>
      </trkpt>
      <trkpt lat="48.79856" lon="2.15619">
        <ele>163.9</ele>
        <time>2015-05-11T20:01:52.496Z</time>
      </trkpt>
      <trkpt lat="48.79856" lon="2.15629">
        <ele>163.9</ele>
        <time>2015-05-11T20:01:53.507Z</time>
      </trkpt>
      <trkpt lat="48.79856" lon="2.15639">
        <ele>163.9</ele>
        <time>2015-05-11T20:01:54.556Z</time>
      </trkpt>
      <trkpt lat="48.79856" lon="2.15648">
        <ele>164</ele>
        <time>2015-05-11T20:01:55.564Z</time>
      </trkpt>
      <trkpt lat="48.79856" lon="2.15658">
        <ele>164.1</ele>
        <time>2015-05-11T20:01:56.569Z</time>
      </trkpt>
      <trkpt lat="48.79856" lon="2.15667">
        <ele>164.2</ele>
        <time>2015-05-11T20:01:57.578Z</time>
      </trkpt>
      <trkpt lat="48.79857" lon="2.15677">
        <ele>164.1</ele>
        <time>2015-05-11T20:01:58.498Z</time>
      </trkpt>
      <trkpt lat="48.79857" lon="2.15686">
        <ele>163.8</ele>
        <time>2015-05-11T20:01:59.504Z</time>
      </trkpt>
      <trkpt lat="48.79858" lon="2.15695">
        <ele>163.8</ele>
        <time>2015-05-11T20:02:00.518Z</time>
      </trkpt>
      <trkpt lat="48.79859" lon="2.15704">
        <ele>164.3</ele>
        <time>2015-05-11T20:02:01.561Z</time>
      </trkpt>
      <trkpt lat="48.79859" lon="2.15713">
        <ele>164.3</ele>
        <time>2015-05-11T20:02:02.482Z</time>
      </trkpt>
      <trkpt lat="48.79859" lon="2.15723">
        <ele>164.3</ele>
        <time>2015-05-11T20:02:03.505Z</time>
      </trkpt>
      <trkpt lat="48.79858" lon="2.15732">
        <ele>164.5</ele>
        <time>2015-05-11T20:02:04.506Z</time>
      </trkpt>
      <trkpt lat="48.79857" lon="2.15742">
        <ele>164.3</ele>
        <time>2015-05-11T20:02:05.513Z</time>
      </trkpt>
      <trkpt lat="48.79856" lon="2.15751">
        <ele>164.3</ele>
        <time>2015-05-11T20:02:06.549Z</time>
      </trkpt>
      <trkpt lat="48.79856" lon="2.1576">
        <ele>163.9</ele>
        <time>2015-05-11T20:02:07.470Z</time>
      </trkpt>
      <trkpt lat="48.79856" lon="2.15769">
        <ele>163.1</ele>
        <time>2015-05-11T20:02:08.497Z</time>
      </trkpt>
      <trkpt lat="48.79856" lon="2.15777">
        <ele>163.1</ele>
        <time>2015-05-11T20:02:09.506Z</time>
      </trkpt>
      <trkpt lat="48.79855" lon="2.15784">
        <ele>163.1</ele>
        <time>2015-05-11T20:02:10.527Z</time>
      </trkpt>
      <trkpt lat="48.79854" lon="2.15793">
        <ele>162.7</ele>
        <time>2015-05-11T20:02:11.538Z</time>
      </trkpt>
      <trkpt lat="48.79854" lon="2.158">
        <ele>162.3</ele>
        <time>2015-05-11T20:02:12.584Z</time>
      </trkpt>
      <trkpt lat="48.79855" lon="2.15807">
        <ele>162.2</ele>
        <time>2015-05-11T20:02:13.572Z</time>
      </trkpt>
      <trkpt lat="48.79856" lon="2.15814">
        <ele>162.1</ele>
        <time>2015-05-11T20:02:14.579Z</time>
      </trkpt>
      <trkpt lat="48.79857" lon="2.15821">
        <ele>161.8</ele>
        <time>2015-05-11T20:02:15.585Z</time>
      </trkpt>
      <trkpt lat="48.79859" lon="2.15829">
        <ele>161.7</ele>
        <time>2015-05-11T20:02:16.508Z</time>
      </trkpt>
      <trkpt lat="48.79861" lon="2.15835">
        <ele>162</ele>
        <time>2015-05-11T20:02:17.504Z</time>
      </trkpt>
      <trkpt lat="48.79864" lon="2.15842">
        <ele>162</ele>
        <time>2015-05-11T20:02:18.517Z</time>
      </trkpt>
      <trkpt lat="48.79866" lon="2.15849">
        <ele>162.1</ele>
        <time>2015-05-11T20:02:19.547Z</time>
      </trkpt>
      <trkpt lat="48.79869" lon="2.15856">
        <ele>162.1</ele>
        <time>2015-05-11T20:02:20.564Z</time>
      </trkpt>
      <trkpt lat="48.79872" lon="2.15862">
        <ele>162.2</ele>
        <time>2015-05-11T20:02:21.586Z</time>
      </trkpt>
      <trkpt lat="48.79877" lon="2.15868">
        <ele>162.5</ele>
        <time>2015-05-11T20:02:22.474Z</time>
      </trkpt>
      <trkpt lat="48.79881" lon="2.15874">
        <ele>162.7</ele>
        <time>2015-05-11T20:02:23.500Z</time>
      </trkpt>
      <trkpt lat="48.79885" lon="2.15879">
        <ele>162.8</ele>
        <time>2015-05-11T20:02:24.516Z</time>
      </trkpt>
      <trkpt lat="48.79889" lon="2.15884">
        <ele>163</ele>
        <time>2015-05-11T20:02:25.526Z</time>
      </trkpt>
      <trkpt lat="48.79894" lon="2.15888">
        <ele>163.3</ele>
        <time>2015-05-11T20:02:26.540Z</time>
      </trkpt>
      <trkpt lat="48.79897" lon="2.15894">
        <ele>163.7</ele>
        <time>2015-05-11T20:02:27.556Z</time>
      </trkpt>
      <trkpt lat="48.79901" lon="2.15901">
        <ele>164</ele>
        <time>2015-05-11T20:02:28.572Z</time>
      </trkpt>
      <trkpt lat="48.79904" lon="2.15907">
        <ele>164.3</ele>
        <time>2015-05-11T20:02:29.586Z</time>
      </trkpt>
      <trkpt lat="48.79906" lon="2.15914">
        <ele>164.5</ele>
        <time>2015-05-11T20:02:30.625Z</time>
      </trkpt>
      <trkpt lat="48.79908" lon="2.15921">
        <ele>164.3</ele>
        <time>2015-05-11T20:02:31.518Z</time>
      </trkpt>
      <trkpt lat="48.79911" lon="2.15927">
        <ele>164.1</ele>
        <time>2015-05-11T20:02:32.536Z</time>
      </trkpt>
      <trkpt lat="48.79914" lon="2.15933">
        <ele>164</ele>
        <time>2015-05-11T20:02:33.557Z</time>
      </trkpt>
      <trkpt lat="48.79918" lon="2.15939">
        <ele>164.5</ele>
        <time>2015-05-11T20:02:34.581Z</time>
      </trkpt>
      <trkpt lat="48.79921" lon="2.15944">
        <ele>164.7</ele>
        <time>2015-05-11T20:02:35.495Z</time>
      </trkpt>
      <trkpt lat="48.79924" lon="2.1595">
        <ele>164.6</ele>
        <time>2015-05-11T20:02:36.539Z</time>
      </trkpt>
      <trkpt lat="48.79926" lon="2.15955">
        <ele>164.6</ele>
        <time>2015-05-11T20:02:37.548Z</time>
      </trkpt>
      <trkpt lat="48.7993" lon="2.15961">
        <ele>164.4</ele>
        <time>2015-05-11T20:02:38.559Z</time>
      </trkpt>
      <trkpt lat="48.79934" lon="2.15967">
        <ele>164.4</ele>
        <time>2015-05-11T20:02:39.568Z</time>
      </trkpt>
      <trkpt lat="48.79939" lon="2.15973">
        <ele>164.4</ele>
        <time>2015-05-11T20:02:40.579Z</time>
      </trkpt>
      <trkpt lat="48.79944" lon="2.1598">
        <ele>164.6</ele>
        <time>2015-05-11T20:02:41.497Z</time>
      </trkpt>
      <trkpt lat="48.79948" lon="2.15986">
        <ele>164.8</ele>
        <time>2015-05-11T20:02:42.603Z</time>
      </trkpt>
      <trkpt lat="48.79953" lon="2.15993">
        <ele>165</ele>
        <time>2015-05-11T20:02:43.495Z</time>
      </trkpt>
      <trkpt lat="48.79957" lon="2.16">
        <ele>165.4</ele>
        <time>2015-05-11T20:02:44.511Z</time>
      </trkpt>
      <trkpt lat="48.79962" lon="2.16006">
        <ele>165.4</ele>
        <time>2015-05-11T20:02:45.522Z</time>
      </trkpt>
      <trkpt lat="48.79967" lon="2.16011">
        <ele>165.8</ele>
        <time>2015-05-11T20:02:46.532Z</time>
      </trkpt>
      <trkpt lat="48.79971" lon="2.16017">
        <ele>166.1</ele>
        <time>2015-05-11T20:02:47.542Z</time>
      </trkpt>
      <trkpt lat="48.79976" lon="2.16023">
        <ele>166.5</ele>
        <time>2015-05-11T20:02:48.547Z</time>
      </trkpt>
      <trkpt lat="48.7998" lon="2.16029">
        <ele>166.6</ele>
        <time>2015-05-11T20:02:49.556Z</time>
      </trkpt>
      <trkpt lat="48.79984" lon="2.16037">
        <ele>166.9</ele>
        <time>2015-05-11T20:02:50.496Z</time>
      </trkpt>
      <trkpt lat="48.79987" lon="2.16043">
        <ele>167.1</ele>
        <time>2015-05-11T20:02:51.494Z</time>
      </trkpt>
      <trkpt lat="48.79992" lon="2.1605">
        <ele>166.8</ele>
        <time>2015-05-11T20:02:52.527Z</time>
      </trkpt>
      <trkpt lat="48.79996" lon="2.16056">
        <ele>166.8</ele>
        <time>2015-05-11T20:02:53.547Z</time>
      </trkpt>
      <trkpt lat="48.80001" lon="2.16063">
        <ele>166.7</ele>
        <time>2015-05-11T20:02:54.569Z</time>
      </trkpt>
      <trkpt lat="48.80006" lon="2.1607">
        <ele>166.8</ele>
        <time>2015-05-11T20:02:55.498Z</time>
      </trkpt>
      <trkpt lat="48.8001" lon="2.16076">
        <ele>167.5</ele>
        <time>2015-05-11T20:02:56.497Z</time>
      </trkpt>
      <trkpt lat="48.80014" lon="2.16081">
        <ele>167.9</ele>
        <time>2015-05-11T20:02:57.497Z</time>
      </trkpt>
      <trkpt lat="48.80018" lon="2.16087">
        <ele>168.4</ele>
        <time>2015-05-11T20:02:58.516Z</time>
      </trkpt>
      <trkpt lat="48.80023" lon="2.16094">
        <ele>169.1</ele>
        <time>2015-05-11T20:02:59.525Z</time>
      </trkpt>
      <trkpt lat="48.80028" lon="2.16102">
        <ele>169</ele>
        <time>2015-05-11T20:03:00.551Z</time>
      </trkpt>
      <trkpt lat="48.80032" lon="2.16109">
        <ele>169.1</ele>
        <time>2015-05-11T20:03:01.579Z</time>
      </trkpt>
      <trkpt lat="48.80037" lon="2.16117">
        <ele>169.2</ele>
        <time>2015-05-11T20:03:02.480Z</time>
      </trkpt>
      <trkpt lat="48.80042" lon="2.16124">
        <ele>169.1</ele>
        <time>2015-05-11T20:03:03.492Z</time>
      </trkpt>
      <trkpt lat="48.80046" lon="2.16131">
        <ele>169</ele>
        <time>2015-05-11T20:03:04.506Z</time>
      </trkpt>
      <trkpt lat="48.8005" lon="2.16138">
        <ele>169.3</ele>
        <time>2015-05-11T20:03:05.518Z</time>
      </trkpt>
      <trkpt lat="48.80054" lon="2.16146">
        <ele>169.5</ele>
        <time>2015-05-11T20:03:06.542Z</time>
      </trkpt>
      <trkpt lat="48.80059" lon="2.16153">
        <ele>169.5</ele>
        <time>2015-05-11T20:03:07.550Z</time>
      </trkpt>
      <trkpt lat="48.80063" lon="2.16161">
        <ele>169.7</ele>
        <time>2015-05-11T20:03:08.565Z</time>
      </trkpt>
      <trkpt lat="48.80067" lon="2.16167">
        <ele>169.7</ele>
        <time>2015-05-11T20:03:09.575Z</time>
      </trkpt>
      <trkpt lat="48.8007" lon="2.16173">
        <ele>169.9</ele>
        <time>2015-05-11T20:03:10.491Z</time>
      </trkpt>
      <trkpt lat="48.80074" lon="2.1618">
        <ele>170</ele>
        <time>2015-05-11T20:03:11.488Z</time>
      </trkpt>
      <trkpt lat="48.80078" lon="2.16188">
        <ele>170.3</ele>
        <time>2015-05-11T20:03:12.535Z</time>
      </trkpt>
      <trkpt lat="48.80084" lon="2.16196">
        <ele>170.3</ele>
        <time>2015-05-11T20:03:13.545Z</time>
      </trkpt>
      <trkpt lat="48.80089" lon="2.16203">
        <ele>170.4</ele>
        <time>2015-05-11T20:03:14.565Z</time>
      </trkpt>
      <trkpt lat="48.80095" lon="2.16209">
        <ele>170.3</ele>
        <time>2015-05-11T20:03:15.572Z</time>
      </trkpt>
      <trkpt lat="48.80099" lon="2.16215">
        <ele>170.1</ele>
        <time>2015-05-11T20:03:16.496Z</time>
      </trkpt>
      <trkpt lat="48.80104" lon="2.16223">
        <ele>169.8</ele>
        <time>2015-05-11T20:03:17.488Z</time>
      </trkpt>
      <trkpt lat="48.80107" lon="2.1623">
        <ele>169.5</ele>
        <time>2015-05-11T20:03:18.537Z</time>
      </trkpt>
      <trkpt lat="48.80111" lon="2.16237">
        <ele>169.4</ele>
        <time>2015-05-11T20:03:19.545Z</time>
      </trkpt>
      <trkpt lat="48.80114" lon="2.16246">
        <ele>169.3</ele>
        <time>2015-05-11T20:03:20.553Z</time>
      </trkpt>
      <trkpt lat="48.80118" lon="2.16254">
        <ele>168.6</ele>
        <time>2015-05-11T20:03:21.467Z</time>
      </trkpt>
      <trkpt lat="48.80122" lon="2.16261">
        <ele>168.3</ele>
        <time>2015-05-11T20:03:22.491Z</time>
      </trkpt>
      <trkpt lat="48.80125" lon="2.16267">
        <ele>168.2</ele>
        <time>2015-05-11T20:03:23.494Z</time>
      </trkpt>
      <trkpt lat="48.80127" lon="2.16274">
        <ele>168.2</ele>
        <time>2015-05-11T20:03:24.511Z</time>
      </trkpt>
      <trkpt lat="48.80132" lon="2.16281">
        <ele>168.3</ele>
        <time>2015-05-11T20:03:25.526Z</time>
      </trkpt>
      <trkpt lat="48.80137" lon="2.16288">
        <ele>168.4</ele>
        <time>2015-05-11T20:03:26.541Z</time>
      </trkpt>
      <trkpt lat="48.80142" lon="2.16295">
        <ele>168.5</ele>
        <time>2015-05-11T20:03:27.550Z</time>
      </trkpt>
      <trkpt lat="48.80146" lon="2.16303">
        <ele>168.5</ele>
        <time>2015-05-11T20:03:28.491Z</time>
      </trkpt>
      <trkpt lat="48.8015" lon="2.16311">
        <ele>168.5</ele>
        <time>2015-05-11T20:03:29.474Z</time>
      </trkpt>
      <trkpt lat="48.80153" lon="2.16318">
        <ele>168.9</ele>
        <time>2015-05-11T20:03:30.530Z</time>
      </trkpt>
      <trkpt lat="48.80155" lon="2.16326">
        <ele>169.4</ele>
        <time>2015-05-11T20:03:31.539Z</time>
      </trkpt>
      <trkpt lat="48.80158" lon="2.16334">
        <ele>169.9</ele>
        <time>2015-05-11T20:03:32.551Z</time>
      </trkpt>
      <trkpt lat="48.80162" lon="2.16342">
        <ele>170.3</ele>
        <time>2015-05-11T20:03:33.596Z</time>
      </trkpt>
      <trkpt lat="48.80167" lon="2.16349">
        <ele>170.4</ele>
        <time>2015-05-11T20:03:34.507Z</time>
      </trkpt>
      <trkpt lat="48.80171" lon="2.16356">
        <ele>169.9</ele>
        <time>2015-05-11T20:03:35.513Z</time>
      </trkpt>
      <trkpt lat="48.80174" lon="2.16364">
        <ele>170.3</ele>
        <time>2015-05-11T20:03:36.564Z</time>
      </trkpt>
      <trkpt lat="48.80178" lon="2.1637">
        <ele>170.9</ele>
        <time>2015-05-11T20:03:37.569Z</time>
      </trkpt>
      <trkpt lat="48.80184" lon="2.16377">
        <ele>171.3</ele>
        <time>2015-05-11T20:03:38.492Z</time>
      </trkpt>
      <trkpt lat="48.80189" lon="2.16383">
        <ele>171.6</ele>
        <time>2015-05-11T20:03:39.493Z</time>
      </trkpt>
      <trkpt lat="48.80194" lon="2.16391">
        <ele>171.8</ele>
        <time>2015-05-11T20:03:40.553Z</time>
      </trkpt>
      <trkpt lat="48.80197" lon="2.16398">
        <ele>171.9</ele>
        <time>2015-05-11T20:03:41.461Z</time>
      </trkpt>
      <trkpt lat="48.80201" lon="2.16404">
        <ele>172</ele>
        <time>2015-05-11T20:03:42.604Z</time>
      </trkpt>
      <trkpt lat="48.80205" lon="2.1641">
        <ele>172.2</ele>
        <time>2015-05-11T20:03:43.588Z</time>
      </trkpt>
      <trkpt lat="48.80209" lon="2.16417">
        <ele>172.3</ele>
        <time>2015-05-11T20:03:44.493Z</time>
      </trkpt>
      <trkpt lat="48.80215" lon="2.16425">
        <ele>172.3</ele>
        <time>2015-05-11T20:03:45.483Z</time>
      </trkpt>
      <trkpt lat="48.8022" lon="2.16433">
        <ele>172.2</ele>
        <time>2015-05-11T20:03:46.503Z</time>
      </trkpt>
      <trkpt lat="48.80225" lon="2.16441">
        <ele>172.3</ele>
        <time>2015-05-11T20:03:47.509Z</time>
      </trkpt>
      <trkpt lat="48.80228" lon="2.16448">
        <ele>172.4</ele>
        <time>2015-05-11T20:03:48.551Z</time>
      </trkpt>
      <trkpt lat="48.80231" lon="2.16456">
        <ele>172.3</ele>
        <time>2015-05-11T20:03:49.480Z</time>
      </trkpt>
      <trkpt lat="48.80234" lon="2.16463">
        <ele>172.3</ele>
        <time>2015-05-11T20:03:50.712Z</time>
      </trkpt>
      <trkpt lat="48.80238" lon="2.16469">
        <ele>172</ele>
        <time>2015-05-11T20:03:51.499Z</time>
      </trkpt>
      <trkpt lat="48.80242" lon="2.16477">
        <ele>171.3</ele>
        <time>2015-05-11T20:03:52.502Z</time>
      </trkpt>
      <trkpt lat="48.80245" lon="2.16483">
        <ele>170.5</ele>
        <time>2015-05-11T20:03:53.517Z</time>
      </trkpt>
      <trkpt lat="48.80248" lon="2.1649">
        <ele>170.8</ele>
        <time>2015-05-11T20:03:54.537Z</time>
      </trkpt>
      <trkpt lat="48.80252" lon="2.16497">
        <ele>169.9</ele>
        <time>2015-05-11T20:03:55.545Z</time>
      </trkpt>
      <trkpt lat="48.80255" lon="2.16505">
        <ele>169.1</ele>
        <time>2015-05-11T20:03:56.555Z</time>
      </trkpt>
      <trkpt lat="48.80259" lon="2.16512">
        <ele>168.8</ele>
        <time>2015-05-11T20:03:57.558Z</time>
      </trkpt>
      <trkpt lat="48.80263" lon="2.16519">
        <ele>168.2</ele>
        <time>2015-05-11T20:03:58.570Z</time>
      </trkpt>
      <trkpt lat="48.80267" lon="2.16526">
        <ele>167.5</ele>
        <time>2015-05-11T20:03:59.583Z</time>
      </trkpt>
      <trkpt lat="48.80271" lon="2.16531">
        <ele>166.7</ele>
        <time>2015-05-11T20:04:00.602Z</time>
      </trkpt>
      <trkpt lat="48.80274" lon="2.16537">
        <ele>166.4</ele>
        <time>2015-05-11T20:04:01.501Z</time>
      </trkpt>
      <trkpt lat="48.80278" lon="2.16544">
        <ele>165.6</ele>
        <time>2015-05-11T20:04:02.513Z</time>
      </trkpt>
      <trkpt lat="48.8028" lon="2.1655">
        <ele>164.9</ele>
        <time>2015-05-11T20:04:03.523Z</time>
      </trkpt>
      <trkpt lat="48.80284" lon="2.16557">
        <ele>164.5</ele>
        <time>2015-05-11T20:04:04.530Z</time>
      </trkpt>
      <trkpt lat="48.80288" lon="2.16563">
        <ele>163.9</ele>
        <time>2015-05-11T20:04:05.543Z</time>
      </trkpt>
      <trkpt lat="48.80293" lon="2.1657">
        <ele>163.5</ele>
        <time>2015-05-11T20:04:06.564Z</time>
      </trkpt>
      <trkpt lat="48.80298" lon="2.16578">
        <ele>163.5</ele>
        <time>2015-05-11T20:04:07.574Z</time>
      </trkpt>
      <trkpt lat="48.80303" lon="2.16586">
        <ele>163.5</ele>
        <time>2015-05-11T20:04:08.596Z</time>
      </trkpt>
      <trkpt lat="48.80308" lon="2.16592">
        <ele>163.6</ele>
        <time>2015-05-11T20:04:09.489Z</time>
      </trkpt>
      <trkpt lat="48.80312" lon="2.16599">
        <ele>163.5</ele>
        <time>2015-05-11T20:04:10.507Z</time>
      </trkpt>
      <trkpt lat="48.80316" lon="2.16605">
        <ele>163.6</ele>
        <time>2015-05-11T20:04:11.523Z</time>
      </trkpt>
      <trkpt lat="48.8032" lon="2.16612">
        <ele>163.7</ele>
        <time>2015-05-11T20:04:12.561Z</time>
      </trkpt>
      <trkpt lat="48.80323" lon="2.16617">
        <ele>164.2</ele>
        <time>2015-05-11T20:04:13.563Z</time>
      </trkpt>
      <trkpt lat="48.80327" lon="2.16624">
        <ele>164.3</ele>
        <time>2015-05-11T20:04:14.587Z</time>
      </trkpt>
      <trkpt lat="48.8033" lon="2.1663">
        <ele>164.5</ele>
        <time>2015-05-11T20:04:15.487Z</time>
      </trkpt>
      <trkpt lat="48.80332" lon="2.16636">
        <ele>164.4</ele>
        <time>2015-05-11T20:04:16.487Z</time>
      </trkpt>
      <trkpt lat="48.80335" lon="2.16642">
        <ele>164.3</ele>
        <time>2015-05-11T20:04:17.503Z</time>
      </trkpt>
      <trkpt lat="48.80338" lon="2.16649">
        <ele>164.1</ele>
        <time>2015-05-11T20:04:18.537Z</time>
      </trkpt>
      <trkpt lat="48.80343" lon="2.16657">
        <ele>164.3</ele>
        <time>2015-05-11T20:04:19.548Z</time>
      </trkpt>
      <trkpt lat="48.80346" lon="2.16662">
        <ele>164.1</ele>
        <time>2015-05-11T20:04:20.570Z</time>
      </trkpt>
      <trkpt lat="48.8035" lon="2.16669">
        <ele>163.6</ele>
        <time>2015-05-11T20:04:21.579Z</time>
      </trkpt>
      <trkpt lat="48.80354" lon="2.16675">
        <ele>162.9</ele>
        <time>2015-05-11T20:04:22.485Z</time>
      </trkpt>
      <trkpt lat="48.80358" lon="2.16681">
        <ele>162.7</ele>
        <time>2015-05-11T20:04:23.494Z</time>
      </trkpt>
      <trkpt lat="48.80361" lon="2.16688">
        <ele>162.6</ele>
        <time>2015-05-11T20:04:24.536Z</time>
      </trkpt>
      <trkpt lat="48.80363" lon="2.16695">
        <ele>162.3</ele>
        <time>2015-05-11T20:04:25.532Z</time>
      </trkpt>
      <trkpt lat="48.80366" lon="2.16701">
        <ele>162.7</ele>
        <time>2015-05-11T20:04:26.560Z</time>
      </trkpt>
      <trkpt lat="48.8037" lon="2.16708">
        <ele>162.5</ele>
        <time>2015-05-11T20:04:27.572Z</time>
      </trkpt>
      <trkpt lat="48.80374" lon="2.16715">
        <ele>161.8</ele>
        <time>2015-05-11T20:04:28.498Z</time>
      </trkpt>
      <trkpt lat="48.80377" lon="2.16722">
        <ele>161.6</ele>
        <time>2015-05-11T20:04:29.495Z</time>
      </trkpt>
      <trkpt lat="48.80381" lon="2.16729">
        <ele>161.7</ele>
        <time>2015-05-11T20:04:30.541Z</time>
      </trkpt>
      <trkpt lat="48.80386" lon="2.16739">
        <ele>162</ele>
        <time>2015-05-11T20:04:31.546Z</time>
      </trkpt>
      <trkpt lat="48.80391" lon="2.16748">
        <ele>163.3</ele>
        <time>2015-05-11T20:04:32.547Z</time>
      </trkpt>
      <trkpt lat="48.80393" lon="2.16756">
        <ele>163.6</ele>
        <time>2015-05-11T20:04:33.558Z</time>
      </trkpt>
      <trkpt lat="48.80394" lon="2.16766">
        <ele>163.8</ele>
        <time>2015-05-11T20:04:34.476Z</time>
      </trkpt>
      <trkpt lat="48.80394" lon="2.16776">
        <ele>163.7</ele>
        <time>2015-05-11T20:04:35.494Z</time>
      </trkpt>
      <trkpt lat="48.80395" lon="2.16784">
        <ele>163.7</ele>
        <time>2015-05-11T20:04:36.535Z</time>
      </trkpt>
      <trkpt lat="48.80396" lon="2.16792">
        <ele>163.7</ele>
        <time>2015-05-11T20:04:37.538Z</time>
      </trkpt>
      <trkpt lat="48.80397" lon="2.168">
        <ele>163.8</ele>
        <time>2015-05-11T20:04:38.551Z</time>
      </trkpt>
      <trkpt lat="48.80399" lon="2.16808">
        <ele>163.9</ele>
        <time>2015-05-11T20:04:39.560Z</time>
      </trkpt>
      <trkpt lat="48.804" lon="2.16814">
        <ele>163.7</ele>
        <time>2015-05-11T20:04:40.574Z</time>
      </trkpt>
      <trkpt lat="48.80401" lon="2.16822">
        <ele>163.6</ele>
        <time>2015-05-11T20:04:41.589Z</time>
      </trkpt>
      <trkpt lat="48.80401" lon="2.16829">
        <ele>163.5</ele>
        <time>2015-05-11T20:04:42.598Z</time>
      </trkpt>
      <trkpt lat="48.80402" lon="2.16836">
        <ele>163.1</ele>
        <time>2015-05-11T20:04:43.493Z</time>
      </trkpt>
      <trkpt lat="48.80403" lon="2.1685">
        <ele>162.1</ele>
        <time>2015-05-11T20:04:45.516Z</time>
      </trkpt>
      <trkpt lat="48.80404" lon="2.16857">
        <ele>161.9</ele>
        <time>2015-05-11T20:04:46.535Z</time>
      </trkpt>
      <trkpt lat="48.80404" lon="2.16864">
        <ele>161.5</ele>
        <time>2015-05-11T20:04:47.501Z</time>
      </trkpt>
      <trkpt lat="48.80405" lon="2.16873">
        <ele>161.5</ele>
        <time>2015-05-11T20:04:48.534Z</time>
      </trkpt>
      <trkpt lat="48.80406" lon="2.16881">
        <ele>161.2</ele>
        <time>2015-05-11T20:04:49.558Z</time>
      </trkpt>
      <trkpt lat="48.80407" lon="2.16888">
        <ele>161.2</ele>
        <time>2015-05-11T20:04:50.562Z</time>
      </trkpt>
      <trkpt lat="48.80408" lon="2.16897">
        <ele>161.2</ele>
        <time>2015-05-11T20:04:51.573Z</time>
      </trkpt>
      <trkpt lat="48.80409" lon="2.16904">
        <ele>161.3</ele>
        <time>2015-05-11T20:04:52.493Z</time>
      </trkpt>
      <trkpt lat="48.80409" lon="2.16912">
        <ele>161.3</ele>
        <time>2015-05-11T20:04:53.496Z</time>
      </trkpt>
      <trkpt lat="48.80409" lon="2.1692">
        <ele>161.5</ele>
        <time>2015-05-11T20:04:54.536Z</time>
      </trkpt>
      <trkpt lat="48.80411" lon="2.16928">
        <ele>161.7</ele>
        <time>2015-05-11T20:04:55.537Z</time>
      </trkpt>
      <trkpt lat="48.80413" lon="2.16935">
        <ele>161.8</ele>
        <time>2015-05-11T20:04:56.550Z</time>
      </trkpt>
      <trkpt lat="48.80413" lon="2.16943">
        <ele>161.8</ele>
        <time>2015-05-11T20:04:57.560Z</time>
      </trkpt>
      <trkpt lat="48.80413" lon="2.16951">
        <ele>161.5</ele>
        <time>2015-05-11T20:04:58.572Z</time>
      </trkpt>
      <trkpt lat="48.80414" lon="2.16959">
        <ele>161.3</ele>
        <time>2015-05-11T20:04:59.502Z</time>
      </trkpt>
      <trkpt lat="48.80415" lon="2.16968">
        <ele>160.9</ele>
        <time>2015-05-11T20:05:00.524Z</time>
      </trkpt>
      <trkpt lat="48.80415" lon="2.16977">
        <ele>160.8</ele>
        <time>2015-05-11T20:05:01.543Z</time>
      </trkpt>
      <trkpt lat="48.80414" lon="2.16986">
        <ele>160.8</ele>
        <time>2015-05-11T20:05:02.555Z</time>
      </trkpt>
      <trkpt lat="48.80414" lon="2.16994">
        <ele>160.7</ele>
        <time>2015-05-11T20:05:03.575Z</time>
      </trkpt>
      <trkpt lat="48.80412" lon="2.17001">
        <ele>160.8</ele>
        <time>2015-05-11T20:05:04.468Z</time>
      </trkpt>
      <trkpt lat="48.80411" lon="2.17009">
        <ele>160.8</ele>
        <time>2015-05-11T20:05:05.486Z</time>
      </trkpt>
      <trkpt lat="48.80411" lon="2.17017">
        <ele>160.6</ele>
        <time>2015-05-11T20:05:06.534Z</time>
      </trkpt>
      <trkpt lat="48.80414" lon="2.17024">
        <ele>160.7</ele>
        <time>2015-05-11T20:05:07.534Z</time>
      </trkpt>
      <trkpt lat="48.80414" lon="2.17032">
        <ele>160.8</ele>
        <time>2015-05-11T20:05:08.547Z</time>
      </trkpt>
      <trkpt lat="48.80414" lon="2.17041">
        <ele>160.7</ele>
        <time>2015-05-11T20:05:09.563Z</time>
      </trkpt>
      <trkpt lat="48.80414" lon="2.1705">
        <ele>160.8</ele>
        <time>2015-05-11T20:05:10.569Z</time>
      </trkpt>
      <trkpt lat="48.80414" lon="2.17061">
        <ele>160.4</ele>
        <time>2015-05-11T20:05:11.496Z</time>
      </trkpt>
      <trkpt lat="48.80413" lon="2.1707">
        <ele>160.5</ele>
        <time>2015-05-11T20:05:12.588Z</time>
      </trkpt>
      <trkpt lat="48.80414" lon="2.17079">
        <ele>160.5</ele>
        <time>2015-05-11T20:05:13.488Z</time>
      </trkpt>
      <trkpt lat="48.80414" lon="2.17088">
        <ele>160.5</ele>
        <time>2015-05-11T20:05:14.494Z</time>
      </trkpt>
      <trkpt lat="48.80414" lon="2.17098">
        <ele>160.3</ele>
        <time>2015-05-11T20:05:15.489Z</time>
      </trkpt>
      <trkpt lat="48.80414" lon="2.17107">
        <ele>160.2</ele>
        <time>2015-05-11T20:05:16.504Z</time>
      </trkpt>
      <trkpt lat="48.80415" lon="2.17118">
        <ele>160.5</ele>
        <time>2015-05-11T20:05:17.522Z</time>
      </trkpt>
      <trkpt lat="48.80417" lon="2.17128">
        <ele>161</ele>
        <time>2015-05-11T20:05:18.549Z</time>
      </trkpt>
      <trkpt lat="48.80419" lon="2.17137">
        <ele>161.4</ele>
        <time>2015-05-11T20:05:19.565Z</time>
      </trkpt>
      <trkpt lat="48.8042" lon="2.17146">
        <ele>161.2</ele>
        <time>2015-05-11T20:05:20.558Z</time>
      </trkpt>
      <trkpt lat="48.80421" lon="2.17156">
        <ele>161.1</ele>
        <time>2015-05-11T20:05:21.564Z</time>
      </trkpt>
      <trkpt lat="48.80421" lon="2.17166">
        <ele>161.4</ele>
        <time>2015-05-11T20:05:22.564Z</time>
      </trkpt>
      <trkpt lat="48.8042" lon="2.17175">
        <ele>161.4</ele>
        <time>2015-05-11T20:05:23.573Z</time>
      </trkpt>
      <trkpt lat="48.80419" lon="2.17183">
        <ele>161.3</ele>
        <time>2015-05-11T20:05:24.578Z</time>
      </trkpt>
      <trkpt lat="48.80419" lon="2.17191">
        <ele>160.7</ele>
        <time>2015-05-11T20:05:25.489Z</time>
      </trkpt>
      <trkpt lat="48.80418" lon="2.17199">
        <ele>160.4</ele>
        <time>2015-05-11T20:05:26.505Z</time>
      </trkpt>
      <trkpt lat="48.80418" lon="2.17207">
        <ele>159.8</ele>
        <time>2015-05-11T20:05:27.520Z</time>
      </trkpt>
      <trkpt lat="48.80417" lon="2.17216">
        <ele>159.3</ele>
        <time>2015-05-11T20:05:28.525Z</time>
      </trkpt>
      <trkpt lat="48.80417" lon="2.17224">
        <ele>159.3</ele>
        <time>2015-05-11T20:05:29.537Z</time>
      </trkpt>
      <trkpt lat="48.80416" lon="2.17232">
        <ele>159</ele>
        <time>2015-05-11T20:05:30.544Z</time>
      </trkpt>
      <trkpt lat="48.80416" lon="2.17241">
        <ele>158.7</ele>
        <time>2015-05-11T20:05:31.569Z</time>
      </trkpt>
      <trkpt lat="48.80416" lon="2.17249">
        <ele>158.3</ele>
        <time>2015-05-11T20:05:32.795Z</time>
      </trkpt>
      <trkpt lat="48.80415" lon="2.17258">
        <ele>158</ele>
        <time>2015-05-11T20:05:33.483Z</time>
      </trkpt>
      <trkpt lat="48.80414" lon="2.17266">
        <ele>157.6</ele>
        <time>2015-05-11T20:05:34.486Z</time>
      </trkpt>
      <trkpt lat="48.80413" lon="2.17275">
        <ele>157.3</ele>
        <time>2015-05-11T20:05:35.486Z</time>
      </trkpt>
      <trkpt lat="48.80412" lon="2.17284">
        <ele>157.1</ele>
        <time>2015-05-11T20:05:36.562Z</time>
      </trkpt>
      <trkpt lat="48.80411" lon="2.17292">
        <ele>157.1</ele>
        <time>2015-05-11T20:05:37.482Z</time>
      </trkpt>
      <trkpt lat="48.80411" lon="2.17302">
        <ele>157</ele>
        <time>2015-05-11T20:05:38.485Z</time>
      </trkpt>
      <trkpt lat="48.80411" lon="2.17312">
        <ele>156.9</ele>
        <time>2015-05-11T20:05:39.500Z</time>
      </trkpt>
      <trkpt lat="48.80411" lon="2.17321">
        <ele>156.8</ele>
        <time>2015-05-11T20:05:40.526Z</time>
      </trkpt>
      <trkpt lat="48.80411" lon="2.17331">
        <ele>156.7</ele>
        <time>2015-05-11T20:05:41.493Z</time>
      </trkpt>
      <trkpt lat="48.80411" lon="2.1734">
        <ele>156.4</ele>
        <time>2015-05-11T20:05:42.539Z</time>
      </trkpt>
      <trkpt lat="48.80411" lon="2.17349">
        <ele>156.3</ele>
        <time>2015-05-11T20:05:43.547Z</time>
      </trkpt>
      <trkpt lat="48.8041" lon="2.17358">
        <ele>158</ele>
        <time>2015-05-11T20:05:44.559Z</time>
      </trkpt>
      <trkpt lat="48.8041" lon="2.17367">
        <ele>158.6</ele>
        <time>2015-05-11T20:05:45.466Z</time>
      </trkpt>
      <trkpt lat="48.80411" lon="2.17376">
        <ele>159</ele>
        <time>2015-05-11T20:05:46.496Z</time>
      </trkpt>
      <trkpt lat="48.80412" lon="2.17386">
        <ele>159.4</ele>
        <time>2015-05-11T20:05:47.511Z</time>
      </trkpt>
      <trkpt lat="48.80413" lon="2.17396">
        <ele>159.6</ele>
        <time>2015-05-11T20:05:48.555Z</time>
      </trkpt>
      <trkpt lat="48.80413" lon="2.17406">
        <ele>159.9</ele>
        <time>2015-05-11T20:05:49.494Z</time>
      </trkpt>
      <trkpt lat="48.80413" lon="2.17416">
        <ele>160.2</ele>
        <time>2015-05-11T20:05:50.500Z</time>
      </trkpt>
      <trkpt lat="48.80413" lon="2.17426">
        <ele>160.5</ele>
        <time>2015-05-11T20:05:51.522Z</time>
      </trkpt>
      <trkpt lat="48.80413" lon="2.17435">
        <ele>160.6</ele>
        <time>2015-05-11T20:05:52.543Z</time>
      </trkpt>
      <trkpt lat="48.80413" lon="2.17444">
        <ele>161</ele>
        <time>2015-05-11T20:05:53.566Z</time>
      </trkpt>
      <trkpt lat="48.80412" lon="2.17454">
        <ele>161</ele>
        <time>2015-05-11T20:05:54.589Z</time>
      </trkpt>
      <trkpt lat="48.80412" lon="2.17464">
        <ele>161.4</ele>
        <time>2015-05-11T20:05:55.482Z</time>
      </trkpt>
      <trkpt lat="48.80412" lon="2.17474">
        <ele>161.7</ele>
        <time>2015-05-11T20:05:56.484Z</time>
      </trkpt>
      <trkpt lat="48.80411" lon="2.17483">
        <ele>161.8</ele>
        <time>2015-05-11T20:05:57.543Z</time>
      </trkpt>
      <trkpt lat="48.80411" lon="2.17492">
        <ele>161.7</ele>
        <time>2015-05-11T20:05:58.601Z</time>
      </trkpt>
      <trkpt lat="48.80411" lon="2.17501">
        <ele>161.4</ele>
        <time>2015-05-11T20:05:59.497Z</time>
      </trkpt>
      <trkpt lat="48.80411" lon="2.17511">
        <ele>161.7</ele>
        <time>2015-05-11T20:06:00.515Z</time>
      </trkpt>
      <trkpt lat="48.80411" lon="2.17521">
        <ele>161.7</ele>
        <time>2015-05-11T20:06:01.528Z</time>
      </trkpt>
      <trkpt lat="48.80412" lon="2.17532">
        <ele>161.8</ele>
        <time>2015-05-11T20:06:02.535Z</time>
      </trkpt>
      <trkpt lat="48.80412" lon="2.17541">
        <ele>162.2</ele>
        <time>2015-05-11T20:06:03.558Z</time>
      </trkpt>
      <trkpt lat="48.80412" lon="2.17551">
        <ele>162.5</ele>
        <time>2015-05-11T20:06:04.571Z</time>
      </trkpt>
      <trkpt lat="48.80411" lon="2.17561">
        <ele>162.3</ele>
        <time>2015-05-11T20:06:05.462Z</time>
      </trkpt>
      <trkpt lat="48.8041" lon="2.17571">
        <ele>162.4</ele>
        <time>2015-05-11T20:06:06.503Z</time>
      </trkpt>
      <trkpt lat="48.80409" lon="2.17581">
        <ele>162.2</ele>
        <time>2015-05-11T20:06:07.538Z</time>
      </trkpt>
      <trkpt lat="48.80408" lon="2.17592">
        <ele>162.1</ele>
        <time>2015-05-11T20:06:08.553Z</time>
      </trkpt>
      <trkpt lat="48.80409" lon="2.17602">
        <ele>162.1</ele>
        <time>2015-05-11T20:06:09.545Z</time>
      </trkpt>
      <trkpt lat="48.80409" lon="2.17611">
        <ele>161.9</ele>
        <time>2015-05-11T20:06:10.488Z</time>
      </trkpt>
      <trkpt lat="48.80409" lon="2.1762">
        <ele>161.8</ele>
        <time>2015-05-11T20:06:11.491Z</time>
      </trkpt>
      <trkpt lat="48.80409" lon="2.17629">
        <ele>161.5</ele>
        <time>2015-05-11T20:06:12.510Z</time>
      </trkpt>
      <trkpt lat="48.8041" lon="2.17638">
        <ele>161</ele>
        <time>2015-05-11T20:06:13.522Z</time>
      </trkpt>
      <trkpt lat="48.80412" lon="2.17647">
        <ele>160.5</ele>
        <time>2015-05-11T20:06:14.541Z</time>
      </trkpt>
      <trkpt lat="48.80414" lon="2.17655">
        <ele>160</ele>
        <time>2015-05-11T20:06:15.475Z</time>
      </trkpt>
      <trkpt lat="48.80416" lon="2.17664">
        <ele>160</ele>
        <time>2015-05-11T20:06:16.493Z</time>
      </trkpt>
      <trkpt lat="48.80417" lon="2.17671">
        <ele>159.3</ele>
        <time>2015-05-11T20:06:17.660Z</time>
      </trkpt>
      <trkpt lat="48.80417" lon="2.17679">
        <ele>158.8</ele>
        <time>2015-05-11T20:06:18.543Z</time>
      </trkpt>
      <trkpt lat="48.80419" lon="2.17687">
        <ele>158.7</ele>
        <time>2015-05-11T20:06:19.467Z</time>
      </trkpt>
      <trkpt lat="48.80421" lon="2.17695">
        <ele>158.4</ele>
        <time>2015-05-11T20:06:20.521Z</time>
      </trkpt>
      <trkpt lat="48.80423" lon="2.17702">
        <ele>158.4</ele>
        <time>2015-05-11T20:06:21.542Z</time>
      </trkpt>
      <trkpt lat="48.80424" lon="2.1771">
        <ele>158.1</ele>
        <time>2015-05-11T20:06:22.553Z</time>
      </trkpt>
      <trkpt lat="48.80425" lon="2.17718">
        <ele>156.5</ele>
        <time>2015-05-11T20:06:23.570Z</time>
      </trkpt>
      <trkpt lat="48.80426" lon="2.17726">
        <ele>155.8</ele>
        <time>2015-05-11T20:06:24.575Z</time>
      </trkpt>
      <trkpt lat="48.80428" lon="2.17733">
        <ele>155.6</ele>
        <time>2015-05-11T20:06:25.479Z</time>
      </trkpt>
      <trkpt lat="48.8043" lon="2.1774">
        <ele>155.4</ele>
        <time>2015-05-11T20:06:26.484Z</time>
      </trkpt>
      <trkpt lat="48.80431" lon="2.17748">
        <ele>155.3</ele>
        <time>2015-05-11T20:06:27.498Z</time>
      </trkpt>
      <trkpt lat="48.80431" lon="2.17757">
        <ele>155.1</ele>
        <time>2015-05-11T20:06:28.506Z</time>
      </trkpt>
      <trkpt lat="48.80431" lon="2.17765">
        <ele>154.8</ele>
        <time>2015-05-11T20:06:29.517Z</time>
      </trkpt>
      <trkpt lat="48.80432" lon="2.17772">
        <ele>154.7</ele>
        <time>2015-05-11T20:06:30.543Z</time>
      </trkpt>
      <trkpt lat="48.80432" lon="2.1778">
        <ele>154.8</ele>
        <time>2015-05-11T20:06:31.490Z</time>
      </trkpt>
      <trkpt lat="48.80432" lon="2.17787">
        <ele>154.9</ele>
        <time>2015-05-11T20:06:32.466Z</time>
      </trkpt>
      <trkpt lat="48.80434" lon="2.17794">
        <ele>155.3</ele>
        <time>2015-05-11T20:06:33.507Z</time>
      </trkpt>
      <trkpt lat="48.80436" lon="2.17801">
        <ele>155.2</ele>
        <time>2015-05-11T20:06:34.522Z</time>
      </trkpt>
      <trkpt lat="48.80437" lon="2.17809">
        <ele>154.9</ele>
        <time>2015-05-11T20:06:35.535Z</time>
      </trkpt>
      <trkpt lat="48.80438" lon="2.17816">
        <ele>154.7</ele>
        <time>2015-05-11T20:06:36.550Z</time>
      </trkpt>
      <trkpt lat="48.80442" lon="2.17823">
        <ele>153.5</ele>
        <time>2015-05-11T20:06:37.565Z</time>
      </trkpt>
      <trkpt lat="48.80443" lon="2.17833">
        <ele>153.4</ele>
        <time>2015-05-11T20:06:38.473Z</time>
      </trkpt>
      <trkpt lat="48.80445" lon="2.17841">
        <ele>153.5</ele>
        <time>2015-05-11T20:06:39.465Z</time>
      </trkpt>
      <trkpt lat="48.80447" lon="2.17849">
        <ele>153.7</ele>
        <time>2015-05-11T20:06:40.487Z</time>
      </trkpt>
      <trkpt lat="48.80449" lon="2.17857">
        <ele>154.3</ele>
        <time>2015-05-11T20:06:41.540Z</time>
      </trkpt>
      <trkpt lat="48.8045" lon="2.17865">
        <ele>154.7</ele>
        <time>2015-05-11T20:06:42.564Z</time>
      </trkpt>
      <trkpt lat="48.80452" lon="2.17874">
        <ele>154.7</ele>
        <time>2015-05-11T20:06:43.578Z</time>
      </trkpt>
      <trkpt lat="48.80454" lon="2.17884">
        <ele>156</ele>
        <time>2015-05-11T20:06:44.493Z</time>
      </trkpt>
      <trkpt lat="48.80456" lon="2.17894">
        <ele>156.6</ele>
        <time>2015-05-11T20:06:45.566Z</time>
      </trkpt>
      <trkpt lat="48.80459" lon="2.17904">
        <ele>157.1</ele>
        <time>2015-05-11T20:06:46.541Z</time>
      </trkpt>
      <trkpt lat="48.80461" lon="2.17912">
        <ele>157.1</ele>
        <time>2015-05-11T20:06:47.549Z</time>
      </trkpt>
      <trkpt lat="48.80463" lon="2.1792">
        <ele>157</ele>
        <time>2015-05-11T20:06:48.555Z</time>
      </trkpt>
      <trkpt lat="48.80465" lon="2.17929">
        <ele>157.2</ele>
        <time>2015-05-11T20:06:49.575Z</time>
      </trkpt>
      <trkpt lat="48.80467" lon="2.17938">
        <ele>157.4</ele>
        <time>2015-05-11T20:06:50.493Z</time>
      </trkpt>
      <trkpt lat="48.80468" lon="2.17946">
        <ele>157</ele>
        <time>2015-05-11T20:06:51.496Z</time>
      </trkpt>
      <trkpt lat="48.80469" lon="2.17953">
        <ele>156.8</ele>
        <time>2015-05-11T20:06:52.503Z</time>
      </trkpt>
      <trkpt lat="48.80468" lon="2.17961">
        <ele>156.4</ele>
        <time>2015-05-11T20:06:53.526Z</time>
      </trkpt>
      <trkpt lat="48.8047" lon="2.17969">
        <ele>156.2</ele>
        <time>2015-05-11T20:06:54.537Z</time>
      </trkpt>
      <trkpt lat="48.80471" lon="2.17978">
        <ele>155.9</ele>
        <time>2015-05-11T20:06:55.545Z</time>
      </trkpt>
      <trkpt lat="48.80473" lon="2.17987">
        <ele>155.9</ele>
        <time>2015-05-11T20:06:56.554Z</time>
      </trkpt>
      <trkpt lat="48.80475" lon="2.17998">
        <ele>155.8</ele>
        <time>2015-05-11T20:06:57.564Z</time>
      </trkpt>
      <trkpt lat="48.80477" lon="2.18008">
        <ele>155.8</ele>
        <time>2015-05-11T20:06:58.496Z</time>
      </trkpt>
      <trkpt lat="48.80479" lon="2.18017">
        <ele>155.9</ele>
        <time>2015-05-11T20:06:59.492Z</time>
      </trkpt>
      <trkpt lat="48.80483" lon="2.18026">
        <ele>156.1</ele>
        <time>2015-05-11T20:07:00.516Z</time>
      </trkpt>
      <trkpt lat="48.80485" lon="2.18036">
        <ele>156.3</ele>
        <time>2015-05-11T20:07:01.523Z</time>
      </trkpt>
      <trkpt lat="48.80487" lon="2.18045">
        <ele>156.5</ele>
        <time>2015-05-11T20:07:02.534Z</time>
      </trkpt>
      <trkpt lat="48.80488" lon="2.18055">
        <ele>156.6</ele>
        <time>2015-05-11T20:07:03.550Z</time>
      </trkpt>
      <trkpt lat="48.80489" lon="2.18064">
        <ele>156.8</ele>
        <time>2015-05-11T20:07:04.558Z</time>
      </trkpt>
      <trkpt lat="48.8049" lon="2.18074">
        <ele>156.7</ele>
        <time>2015-05-11T20:07:05.486Z</time>
      </trkpt>
      <trkpt lat="48.80492" lon="2.18083">
        <ele>156.9</ele>
        <time>2015-05-11T20:07:06.589Z</time>
      </trkpt>
      <trkpt lat="48.80493" lon="2.18093">
        <ele>157</ele>
        <time>2015-05-11T20:07:07.488Z</time>
      </trkpt>
      <trkpt lat="48.80495" lon="2.18103">
        <ele>157</ele>
        <time>2015-05-11T20:07:08.496Z</time>
      </trkpt>
      <trkpt lat="48.80497" lon="2.18113">
        <ele>157.2</ele>
        <time>2015-05-11T20:07:09.516Z</time>
      </trkpt>
      <trkpt lat="48.80499" lon="2.18124">
        <ele>157.4</ele>
        <time>2015-05-11T20:07:10.526Z</time>
      </trkpt>
      <trkpt lat="48.80502" lon="2.18136">
        <ele>157.7</ele>
        <time>2015-05-11T20:07:11.534Z</time>
      </trkpt>
      <trkpt lat="48.80506" lon="2.18146">
        <ele>157.7</ele>
        <time>2015-05-11T20:07:12.539Z</time>
      </trkpt>
      <trkpt lat="48.80506" lon="2.18154">
        <ele>157.7</ele>
        <time>2015-05-11T20:07:13.552Z</time>
      </trkpt>
      <trkpt lat="48.80507" lon="2.18162">
        <ele>157.6</ele>
        <time>2015-05-11T20:07:14.559Z</time>
      </trkpt>
      <trkpt lat="48.80509" lon="2.18171">
        <ele>157.6</ele>
        <time>2015-05-11T20:07:15.567Z</time>
      </trkpt>
      <trkpt lat="48.80512" lon="2.18179">
        <ele>157.3</ele>
        <time>2015-05-11T20:07:16.491Z</time>
      </trkpt>
      <trkpt lat="48.80513" lon="2.18186">
        <ele>157.2</ele>
        <time>2015-05-11T20:07:17.491Z</time>
      </trkpt>
      <trkpt lat="48.80516" lon="2.18193">
        <ele>157.2</ele>
        <time>2015-05-11T20:07:18.539Z</time>
      </trkpt>
      <trkpt lat="48.80519" lon="2.18201">
        <ele>156.8</ele>
        <time>2015-05-11T20:07:19.535Z</time>
      </trkpt>
      <trkpt lat="48.8052" lon="2.18207">
        <ele>156.6</ele>
        <time>2015-05-11T20:07:20.552Z</time>
      </trkpt>
      <trkpt lat="48.80521" lon="2.18213">
        <ele>156.6</ele>
        <time>2015-05-11T20:07:21.569Z</time>
      </trkpt>
      <trkpt lat="48.80521" lon="2.18221">
        <ele>156.7</ele>
        <time>2015-05-11T20:07:22.487Z</time>
      </trkpt>
      <trkpt lat="48.80523" lon="2.18228">
        <ele>156.6</ele>
        <time>2015-05-11T20:07:23.488Z</time>
      </trkpt>
      <trkpt lat="48.80524" lon="2.18236">
        <ele>156.5</ele>
        <time>2015-05-11T20:07:24.531Z</time>
      </trkpt>
      <trkpt lat="48.80525" lon="2.18244">
        <ele>156.6</ele>
        <time>2015-05-11T20:07:25.527Z</time>
      </trkpt>
      <trkpt lat="48.80525" lon="2.18253">
        <ele>156.8</ele>
        <time>2015-05-11T20:07:26.577Z</time>
      </trkpt>
      <trkpt lat="48.80527" lon="2.18261">
        <ele>156.8</ele>
        <time>2015-05-11T20:07:27.565Z</time>
      </trkpt>
      <trkpt lat="48.80527" lon="2.1827">
        <ele>156.8</ele>
        <time>2015-05-11T20:07:28.577Z</time>
      </trkpt>
      <trkpt lat="48.80529" lon="2.18279">
        <ele>156.8</ele>
        <time>2015-05-11T20:07:29.485Z</time>
      </trkpt>
      <trkpt lat="48.8053" lon="2.18286">
        <ele>156.6</ele>
        <time>2015-05-11T20:07:30.504Z</time>
      </trkpt>
      <trkpt lat="48.80532" lon="2.18294">
        <ele>156.5</ele>
        <time>2015-05-11T20:07:31.545Z</time>
      </trkpt>
      <trkpt lat="48.80534" lon="2.18302">
        <ele>157.2</ele>
        <time>2015-05-11T20:07:32.553Z</time>
      </trkpt>
      <trkpt lat="48.80535" lon="2.18309">
        <ele>157.2</ele>
        <time>2015-05-11T20:07:33.564Z</time>
      </trkpt>
      <trkpt lat="48.80535" lon="2.18316">
        <ele>157.5</ele>
        <time>2015-05-11T20:07:34.486Z</time>
      </trkpt>
      <trkpt lat="48.80536" lon="2.18325">
        <ele>157.5</ele>
        <time>2015-05-11T20:07:35.469Z</time>
      </trkpt>
      <trkpt lat="48.80536" lon="2.18332">
        <ele>157.9</ele>
        <time>2015-05-11T20:07:36.533Z</time>
      </trkpt>
      <trkpt lat="48.80538" lon="2.18343">
        <ele>158.4</ele>
        <time>2015-05-11T20:07:38.479Z</time>
      </trkpt>
      <trkpt lat="48.80538" lon="2.18347">
        <ele>158.6</ele>
        <time>2015-05-11T20:07:39.584Z</time>
      </trkpt>
      <trkpt lat="48.80542" lon="2.18354">
        <ele>158.8</ele>
        <time>2015-05-11T20:08:00.512Z</time>
      </trkpt>
      <trkpt lat="48.80555" lon="2.18361">
        <ele>155.8</ele>
        <time>2015-05-11T20:08:01.521Z</time>
      </trkpt>
      <trkpt lat="48.80559" lon="2.18369">
        <ele>156</ele>
        <time>2015-05-11T20:08:03.555Z</time>
      </trkpt>
      <trkpt lat="48.80559" lon="2.18376">
        <ele>155.2</ele>
        <time>2015-05-11T20:08:04.613Z</time>
      </trkpt>
      <trkpt lat="48.80561" lon="2.18389">
        <ele>154.4</ele>
        <time>2015-05-11T20:08:06.530Z</time>
      </trkpt>
      <trkpt lat="48.80563" lon="2.18395">
        <ele>154</ele>
        <time>2015-05-11T20:08:07.549Z</time>
      </trkpt>
      <trkpt lat="48.80569" lon="2.18405">
        <ele>153.2</ele>
        <time>2015-05-11T20:08:09.508Z</time>
      </trkpt>
      <trkpt lat="48.80573" lon="2.18411">
        <ele>152.9</ele>
        <time>2015-05-11T20:08:10.529Z</time>
      </trkpt>
      <trkpt lat="48.80577" lon="2.18416">
        <ele>152.9</ele>
        <time>2015-05-11T20:08:11.591Z</time>
      </trkpt>
      <trkpt lat="48.8058" lon="2.18422">
        <ele>153</ele>
        <time>2015-05-11T20:08:12.621Z</time>
      </trkpt>
      <trkpt lat="48.80584" lon="2.18428">
        <ele>153</ele>
        <time>2015-05-11T20:08:13.490Z</time>
      </trkpt>
      <trkpt lat="48.80587" lon="2.18434">
        <ele>153.1</ele>
        <time>2015-05-11T20:08:14.490Z</time>
      </trkpt>
      <trkpt lat="48.80591" lon="2.18439">
        <ele>153.3</ele>
        <time>2015-05-11T20:08:15.501Z</time>
      </trkpt>
      <trkpt lat="48.80595" lon="2.18444">
        <ele>153.4</ele>
        <time>2015-05-11T20:08:16.509Z</time>
      </trkpt>
      <trkpt lat="48.806" lon="2.18448">
        <ele>153.1</ele>
        <time>2015-05-11T20:08:17.539Z</time>
      </trkpt>
      <trkpt lat="48.80603" lon="2.18453">
        <ele>152.9</ele>
        <time>2015-05-11T20:08:18.580Z</time>
      </trkpt>
      <trkpt lat="48.80609" lon="2.18462">
        <ele>153.1</ele>
        <time>2015-05-11T20:08:20.484Z</time>
      </trkpt>
      <trkpt lat="48.80613" lon="2.18467">
        <ele>153.2</ele>
        <time>2015-05-11T20:08:21.511Z</time>
      </trkpt>
      <trkpt lat="48.80619" lon="2.18475">
        <ele>153.6</ele>
        <time>2015-05-11T20:08:23.562Z</time>
      </trkpt>
      <trkpt lat="48.80622" lon="2.1848">
        <ele>153.6</ele>
        <time>2015-05-11T20:08:24.578Z</time>
      </trkpt>
      <trkpt lat="48.80625" lon="2.18486">
        <ele>153.7</ele>
        <time>2015-05-11T20:08:25.489Z</time>
      </trkpt>
      <trkpt lat="48.80627" lon="2.18492">
        <ele>153.6</ele>
        <time>2015-05-11T20:08:26.499Z</time>
      </trkpt>
      <trkpt lat="48.8063" lon="2.18501">
        <ele>153.4</ele>
        <time>2015-05-11T20:08:28.599Z</time>
      </trkpt>
      <trkpt lat="48.80632" lon="2.18507">
        <ele>153.3</ele>
        <time>2015-05-11T20:08:29.556Z</time>
      </trkpt>
      <trkpt lat="48.80635" lon="2.18517">
        <ele>152.8</ele>
        <time>2015-05-11T20:08:31.483Z</time>
      </trkpt>
      <trkpt lat="48.80638" lon="2.18521">
        <ele>152.4</ele>
        <time>2015-05-11T20:08:32.494Z</time>
      </trkpt>
      <trkpt lat="48.80644" lon="2.18525">
        <ele>152.4</ele>
        <time>2015-05-11T20:08:33.515Z</time>
      </trkpt>
      <trkpt lat="48.80651" lon="2.18531">
        <ele>152.3</ele>
        <time>2015-05-11T20:08:34.528Z</time>
      </trkpt>
      <trkpt lat="48.80656" lon="2.18536">
        <ele>152.3</ele>
        <time>2015-05-11T20:08:35.552Z</time>
      </trkpt>
      <trkpt lat="48.8066" lon="2.18542">
        <ele>152.5</ele>
        <time>2015-05-11T20:08:36.556Z</time>
      </trkpt>
      <trkpt lat="48.80664" lon="2.18547">
        <ele>152.8</ele>
        <time>2015-05-11T20:08:37.594Z</time>
      </trkpt>
      <trkpt lat="48.80668" lon="2.18553">
        <ele>152.9</ele>
        <time>2015-05-11T20:08:38.467Z</time>
      </trkpt>
      <trkpt lat="48.80675" lon="2.18559">
        <ele>153.1</ele>
        <time>2015-05-11T20:08:39.477Z</time>
      </trkpt>
      <trkpt lat="48.80682" lon="2.18566">
        <ele>153.1</ele>
        <time>2015-05-11T20:08:40.521Z</time>
      </trkpt>
      <trkpt lat="48.80688" lon="2.18571">
        <ele>153.2</ele>
        <time>2015-05-11T20:08:41.467Z</time>
      </trkpt>
      <trkpt lat="48.80693" lon="2.18576">
        <ele>153.3</ele>
        <time>2015-05-11T20:08:42.510Z</time>
      </trkpt>
      <trkpt lat="48.80698" lon="2.18583">
        <ele>153.7</ele>
        <time>2015-05-11T20:08:43.494Z</time>
      </trkpt>
      <trkpt lat="48.80703" lon="2.18589">
        <ele>154.2</ele>
        <time>2015-05-11T20:08:44.483Z</time>
      </trkpt>
      <trkpt lat="48.80709" lon="2.18595">
        <ele>154.8</ele>
        <time>2015-05-11T20:08:45.512Z</time>
      </trkpt>
      <trkpt lat="48.80715" lon="2.18601">
        <ele>155.2</ele>
        <time>2015-05-11T20:08:46.471Z</time>
      </trkpt>
      <trkpt lat="48.8072" lon="2.18605">
        <ele>155.6</ele>
        <time>2015-05-11T20:08:47.514Z</time>
      </trkpt>
      <trkpt lat="48.80725" lon="2.1861">
        <ele>155.8</ele>
        <time>2015-05-11T20:08:48.515Z</time>
      </trkpt>
      <trkpt lat="48.80729" lon="2.18612">
        <ele>155</ele>
        <time>2015-05-11T20:08:49.521Z</time>
      </trkpt>
      <trkpt lat="48.80734" lon="2.18615">
        <ele>154.4</ele>
        <time>2015-05-11T20:08:50.472Z</time>
      </trkpt>
      <trkpt lat="48.80739" lon="2.18619">
        <ele>154</ele>
        <time>2015-05-11T20:08:51.498Z</time>
      </trkpt>
      <trkpt lat="48.80744" lon="2.18624">
        <ele>153.7</ele>
        <time>2015-05-11T20:08:52.488Z</time>
      </trkpt>
      <trkpt lat="48.8075" lon="2.18629">
        <ele>153.1</ele>
        <time>2015-05-11T20:08:53.566Z</time>
      </trkpt>
      <trkpt lat="48.80756" lon="2.18636">
        <ele>152.7</ele>
        <time>2015-05-11T20:08:54.589Z</time>
      </trkpt>
      <trkpt lat="48.80761" lon="2.18642">
        <ele>152.6</ele>
        <time>2015-05-11T20:08:55.467Z</time>
      </trkpt>
      <trkpt lat="48.80769" lon="2.18649">
        <ele>152.8</ele>
        <time>2015-05-11T20:08:56.477Z</time>
      </trkpt>
      <trkpt lat="48.80776" lon="2.18655">
        <ele>152.7</ele>
        <time>2015-05-11T20:08:57.503Z</time>
      </trkpt>
      <trkpt lat="48.80783" lon="2.1866">
        <ele>152.6</ele>
        <time>2015-05-11T20:08:58.513Z</time>
      </trkpt>
      <trkpt lat="48.8079" lon="2.18664">
        <ele>152.6</ele>
        <time>2015-05-11T20:08:59.560Z</time>
      </trkpt>
      <trkpt lat="48.80798" lon="2.18668">
        <ele>152.2</ele>
        <time>2015-05-11T20:09:00.580Z</time>
      </trkpt>
      <trkpt lat="48.80806" lon="2.18673">
        <ele>152</ele>
        <time>2015-05-11T20:09:01.464Z</time>
      </trkpt>
      <trkpt lat="48.80812" lon="2.18678">
        <ele>151.9</ele>
        <time>2015-05-11T20:09:02.479Z</time>
      </trkpt>
      <trkpt lat="48.80818" lon="2.18684">
        <ele>152.2</ele>
        <time>2015-05-11T20:09:03.487Z</time>
      </trkpt>
      <trkpt lat="48.80823" lon="2.18691">
        <ele>152.8</ele>
        <time>2015-05-11T20:09:04.504Z</time>
      </trkpt>
      <trkpt lat="48.80827" lon="2.18698">
        <ele>153.1</ele>
        <time>2015-05-11T20:09:05.555Z</time>
      </trkpt>
      <trkpt lat="48.80832" lon="2.18705">
        <ele>153.4</ele>
        <time>2015-05-11T20:09:06.571Z</time>
      </trkpt>
      <trkpt lat="48.80836" lon="2.18712">
        <ele>153.7</ele>
        <time>2015-05-11T20:09:07.461Z</time>
      </trkpt>
      <trkpt lat="48.8084" lon="2.18719">
        <ele>154.1</ele>
        <time>2015-05-11T20:09:08.503Z</time>
      </trkpt>
      <trkpt lat="48.80844" lon="2.18726">
        <ele>154.4</ele>
        <time>2015-05-11T20:09:09.497Z</time>
      </trkpt>
      <trkpt lat="48.80848" lon="2.18732">
        <ele>154.5</ele>
        <time>2015-05-11T20:09:10.509Z</time>
      </trkpt>
      <trkpt lat="48.80851" lon="2.18738">
        <ele>154.6</ele>
        <time>2015-05-11T20:09:11.524Z</time>
      </trkpt>
      <trkpt lat="48.80857" lon="2.18743">
        <ele>154.7</ele>
        <time>2015-05-11T20:09:12.553Z</time>
      </trkpt>
      <trkpt lat="48.80863" lon="2.1875">
        <ele>154.5</ele>
        <time>2015-05-11T20:09:13.569Z</time>
      </trkpt>
      <trkpt lat="48.80867" lon="2.18754">
        <ele>153.9</ele>
        <time>2015-05-11T20:09:14.579Z</time>
      </trkpt>
      <trkpt lat="48.80872" lon="2.18758">
        <ele>152.7</ele>
        <time>2015-05-11T20:09:15.493Z</time>
      </trkpt>
      <trkpt lat="48.80877" lon="2.18764">
        <ele>152.2</ele>
        <time>2015-05-11T20:09:16.507Z</time>
      </trkpt>
      <trkpt lat="48.80883" lon="2.1877">
        <ele>152.1</ele>
        <time>2015-05-11T20:09:17.524Z</time>
      </trkpt>
      <trkpt lat="48.80888" lon="2.18775">
        <ele>152.2</ele>
        <time>2015-05-11T20:09:18.564Z</time>
      </trkpt>
      <trkpt lat="48.80894" lon="2.18779">
        <ele>151.9</ele>
        <time>2015-05-11T20:09:19.547Z</time>
      </trkpt>
      <trkpt lat="48.80898" lon="2.18784">
        <ele>151.5</ele>
        <time>2015-05-11T20:09:20.557Z</time>
      </trkpt>
      <trkpt lat="48.80902" lon="2.18789">
        <ele>151.3</ele>
        <time>2015-05-11T20:09:21.568Z</time>
      </trkpt>
      <trkpt lat="48.80904" lon="2.18795">
        <ele>151.4</ele>
        <time>2015-05-11T20:09:22.576Z</time>
      </trkpt>
      <trkpt lat="48.80907" lon="2.18801">
        <ele>151.5</ele>
        <time>2015-05-11T20:09:23.485Z</time>
      </trkpt>
      <trkpt lat="48.80913" lon="2.18809">
        <ele>151.9</ele>
        <time>2015-05-11T20:09:24.535Z</time>
      </trkpt>
      <trkpt lat="48.80915" lon="2.18816">
        <ele>151.7</ele>
        <time>2015-05-11T20:09:25.536Z</time>
      </trkpt>
      <trkpt lat="48.80917" lon="2.18822">
        <ele>151.8</ele>
        <time>2015-05-11T20:09:26.547Z</time>
      </trkpt>
      <trkpt lat="48.80919" lon="2.18835">
        <ele>151.6</ele>
        <time>2015-05-11T20:09:28.495Z</time>
      </trkpt>
      <trkpt lat="48.80921" lon="2.1884">
        <ele>151.6</ele>
        <time>2015-05-11T20:09:29.530Z</time>
      </trkpt>
      <trkpt lat="48.80923" lon="2.18847">
        <ele>151.4</ele>
        <time>2015-05-11T20:09:30.596Z</time>
      </trkpt>
      <trkpt lat="48.80927" lon="2.18854">
        <ele>151.5</ele>
        <time>2015-05-11T20:09:31.495Z</time>
      </trkpt>
      <trkpt lat="48.8093" lon="2.1886">
        <ele>151.4</ele>
        <time>2015-05-11T20:09:32.525Z</time>
      </trkpt>
      <trkpt lat="48.80933" lon="2.18866">
        <ele>151.4</ele>
        <time>2015-05-11T20:09:33.542Z</time>
      </trkpt>
      <trkpt lat="48.80936" lon="2.18872">
        <ele>151.2</ele>
        <time>2015-05-11T20:09:34.593Z</time>
      </trkpt>
      <trkpt lat="48.80939" lon="2.18878">
        <ele>151.2</ele>
        <time>2015-05-11T20:09:35.562Z</time>
      </trkpt>
      <trkpt lat="48.80942" lon="2.18884">
        <ele>151.1</ele>
        <time>2015-05-11T20:09:36.613Z</time>
      </trkpt>
      <trkpt lat="48.80945" lon="2.18889">
        <ele>151</ele>
        <time>2015-05-11T20:09:37.545Z</time>
      </trkpt>
      <trkpt lat="48.80949" lon="2.18901">
        <ele>150</ele>
        <time>2015-05-11T20:09:39.556Z</time>
      </trkpt>
      <trkpt lat="48.80951" lon="2.18906">
        <ele>149.6</ele>
        <time>2015-05-11T20:09:40.583Z</time>
      </trkpt>
      <trkpt lat="48.80952" lon="2.18916">
        <ele>148.2</ele>
        <time>2015-05-11T20:09:42.555Z</time>
      </trkpt>
      <trkpt lat="48.80955" lon="2.18921">
        <ele>148</ele>
        <time>2015-05-11T20:09:43.500Z</time>
      </trkpt>
      <trkpt lat="48.8096" lon="2.18927">
        <ele>147.8</ele>
        <time>2015-05-11T20:09:44.509Z</time>
      </trkpt>
      <trkpt lat="48.80963" lon="2.18934">
        <ele>147.8</ele>
        <time>2015-05-11T20:09:45.733Z</time>
      </trkpt>
      <trkpt lat="48.80966" lon="2.18941">
        <ele>147.9</ele>
        <time>2015-05-11T20:09:46.508Z</time>
      </trkpt>
      <trkpt lat="48.80968" lon="2.18948">
        <ele>147.9</ele>
        <time>2015-05-11T20:09:47.521Z</time>
      </trkpt>
      <trkpt lat="48.80971" lon="2.18953">
        <ele>148</ele>
        <time>2015-05-11T20:09:48.543Z</time>
      </trkpt>
      <trkpt lat="48.80974" lon="2.1896">
        <ele>147.9</ele>
        <time>2015-05-11T20:09:49.538Z</time>
      </trkpt>
      <trkpt lat="48.80977" lon="2.18966">
        <ele>148.1</ele>
        <time>2015-05-11T20:09:50.629Z</time>
      </trkpt>
      <trkpt lat="48.80979" lon="2.18972">
        <ele>148.3</ele>
        <time>2015-05-11T20:09:51.523Z</time>
      </trkpt>
      <trkpt lat="48.80983" lon="2.18984">
        <ele>148.5</ele>
        <time>2015-05-11T20:09:53.492Z</time>
      </trkpt>
      <trkpt lat="48.80985" lon="2.1899">
        <ele>148.6</ele>
        <time>2015-05-11T20:09:54.549Z</time>
      </trkpt>
      <trkpt lat="48.80989" lon="2.18995">
        <ele>148.7</ele>
        <time>2015-05-11T20:09:55.711Z</time>
      </trkpt>
      <trkpt lat="48.80991" lon="2.19002">
        <ele>148.7</ele>
        <time>2015-05-11T20:09:56.497Z</time>
      </trkpt>
      <trkpt lat="48.80994" lon="2.19007">
        <ele>149.2</ele>
        <time>2015-05-11T20:09:57.513Z</time>
      </trkpt>
      <trkpt lat="48.80997" lon="2.19012">
        <ele>149.2</ele>
        <time>2015-05-11T20:09:58.520Z</time>
      </trkpt>
      <trkpt lat="48.81" lon="2.19018">
        <ele>149.2</ele>
        <time>2015-05-11T20:09:59.461Z</time>
      </trkpt>
      <trkpt lat="48.81002" lon="2.19024">
        <ele>149.1</ele>
        <time>2015-05-11T20:10:00.501Z</time>
      </trkpt>
      <trkpt lat="48.81007" lon="2.19035">
        <ele>148.9</ele>
        <time>2015-05-11T20:10:02.474Z</time>
      </trkpt>
      <trkpt lat="48.8101" lon="2.19041">
        <ele>148.8</ele>
        <time>2015-05-11T20:10:03.526Z</time>
      </trkpt>
      <trkpt lat="48.81012" lon="2.19047">
        <ele>148.5</ele>
        <time>2015-05-11T20:10:04.558Z</time>
      </trkpt>
      <trkpt lat="48.81014" lon="2.19053">
        <ele>148.3</ele>
        <time>2015-05-11T20:10:05.468Z</time>
      </trkpt>
      <trkpt lat="48.81017" lon="2.19059">
        <ele>147.9</ele>
        <time>2015-05-11T20:10:06.552Z</time>
      </trkpt>
      <trkpt lat="48.81021" lon="2.19065">
        <ele>147.5</ele>
        <time>2015-05-11T20:10:07.551Z</time>
      </trkpt>
      <trkpt lat="48.81025" lon="2.19069">
        <ele>147.3</ele>
        <time>2015-05-11T20:10:08.484Z</time>
      </trkpt>
      <trkpt lat="48.81029" lon="2.19074">
        <ele>147.2</ele>
        <time>2015-05-11T20:10:09.484Z</time>
      </trkpt>
      <trkpt lat="48.81032" lon="2.1908">
        <ele>147.3</ele>
        <time>2015-05-11T20:10:10.457Z</time>
      </trkpt>
      <trkpt lat="48.81035" lon="2.19086">
        <ele>146.8</ele>
        <time>2015-05-11T20:10:11.487Z</time>
      </trkpt>
      <trkpt lat="48.81037" lon="2.19093">
        <ele>146.7</ele>
        <time>2015-05-11T20:10:12.541Z</time>
      </trkpt>
      <trkpt lat="48.8104" lon="2.191">
        <ele>146.7</ele>
        <time>2015-05-11T20:10:13.550Z</time>
      </trkpt>
      <trkpt lat="48.81043" lon="2.19106">
        <ele>146.4</ele>
        <time>2015-05-11T20:10:14.581Z</time>
      </trkpt>
      <trkpt lat="48.81046" lon="2.19111">
        <ele>146</ele>
        <time>2015-05-11T20:10:15.477Z</time>
      </trkpt>
      <trkpt lat="48.81049" lon="2.19118">
        <ele>146.4</ele>
        <time>2015-05-11T20:10:16.496Z</time>
      </trkpt>
      <trkpt lat="48.81052" lon="2.19123">
        <ele>146.4</ele>
        <time>2015-05-11T20:10:17.553Z</time>
      </trkpt>
      <trkpt lat="48.81057" lon="2.19134">
        <ele>146.3</ele>
        <time>2015-05-11T20:10:19.485Z</time>
      </trkpt>
      <trkpt lat="48.8106" lon="2.19139">
        <ele>146.2</ele>
        <time>2015-05-11T20:10:20.575Z</time>
      </trkpt>
      <trkpt lat="48.81065" lon="2.19151">
        <ele>146.5</ele>
        <time>2015-05-11T20:10:22.488Z</time>
      </trkpt>
      <trkpt lat="48.81068" lon="2.19156">
        <ele>146.8</ele>
        <time>2015-05-11T20:10:23.576Z</time>
      </trkpt>
      <trkpt lat="48.81072" lon="2.1916">
        <ele>147.4</ele>
        <time>2015-05-11T20:10:24.646Z</time>
      </trkpt>
      <trkpt lat="48.81077" lon="2.19163">
        <ele>147.7</ele>
        <time>2015-05-11T20:10:25.456Z</time>
      </trkpt>
      <trkpt lat="48.81081" lon="2.19166">
        <ele>147.8</ele>
        <time>2015-05-11T20:10:26.492Z</time>
      </trkpt>
      <trkpt lat="48.81086" lon="2.19168">
        <ele>147.4</ele>
        <time>2015-05-11T20:10:27.499Z</time>
      </trkpt>
      <trkpt lat="48.8109" lon="2.1917">
        <ele>147.2</ele>
        <time>2015-05-11T20:10:28.526Z</time>
      </trkpt>
      <trkpt lat="48.81095" lon="2.19171">
        <ele>147.4</ele>
        <time>2015-05-11T20:10:29.523Z</time>
      </trkpt>
      <trkpt lat="48.81099" lon="2.19173">
        <ele>147.8</ele>
        <time>2015-05-11T20:10:30.532Z</time>
      </trkpt>
      <trkpt lat="48.81105" lon="2.19174">
        <ele>148.4</ele>
        <time>2015-05-11T20:10:31.538Z</time>
      </trkpt>
      <trkpt lat="48.8111" lon="2.19176">
        <ele>148.8</ele>
        <time>2015-05-11T20:10:32.550Z</time>
      </trkpt>
      <trkpt lat="48.81116" lon="2.19177">
        <ele>149.3</ele>
        <time>2015-05-11T20:10:33.562Z</time>
      </trkpt>
      <trkpt lat="48.81121" lon="2.19179">
        <ele>150</ele>
        <time>2015-05-11T20:10:34.491Z</time>
      </trkpt>
      <trkpt lat="48.81127" lon="2.19179">
        <ele>150.6</ele>
        <time>2015-05-11T20:10:35.506Z</time>
      </trkpt>
      <trkpt lat="48.81133" lon="2.1918">
        <ele>151.1</ele>
        <time>2015-05-11T20:10:36.539Z</time>
      </trkpt>
      <trkpt lat="48.81139" lon="2.19182">
        <ele>151.5</ele>
        <time>2015-05-11T20:10:37.544Z</time>
      </trkpt>
      <trkpt lat="48.81145" lon="2.19183">
        <ele>152</ele>
        <time>2015-05-11T20:10:38.560Z</time>
      </trkpt>
      <trkpt lat="48.81152" lon="2.19185">
        <ele>152.3</ele>
        <time>2015-05-11T20:10:39.483Z</time>
      </trkpt>
      <trkpt lat="48.81157" lon="2.19186">
        <ele>152.5</ele>
        <time>2015-05-11T20:10:40.484Z</time>
      </trkpt>
      <trkpt lat="48.81163" lon="2.19187">
        <ele>152.8</ele>
        <time>2015-05-11T20:10:41.493Z</time>
      </trkpt>
      <trkpt lat="48.81167" lon="2.19188">
        <ele>153.3</ele>
        <time>2015-05-11T20:10:42.523Z</time>
      </trkpt>
      <trkpt lat="48.81173" lon="2.19188">
        <ele>153.8</ele>
        <time>2015-05-11T20:10:43.540Z</time>
      </trkpt>
      <trkpt lat="48.81178" lon="2.19188">
        <ele>154.3</ele>
        <time>2015-05-11T20:10:44.552Z</time>
      </trkpt>
      <trkpt lat="48.81184" lon="2.19188">
        <ele>155</ele>
        <time>2015-05-11T20:10:45.564Z</time>
      </trkpt>
      <trkpt lat="48.81191" lon="2.19189">
        <ele>155.5</ele>
        <time>2015-05-11T20:10:46.576Z</time>
      </trkpt>
      <trkpt lat="48.81199" lon="2.1919">
        <ele>156</ele>
        <time>2015-05-11T20:10:47.584Z</time>
      </trkpt>
      <trkpt lat="48.81207" lon="2.19191">
        <ele>156.3</ele>
        <time>2015-05-11T20:10:48.601Z</time>
      </trkpt>
      <trkpt lat="48.81215" lon="2.19192">
        <ele>156.4</ele>
        <time>2015-05-11T20:10:49.486Z</time>
      </trkpt>
      <trkpt lat="48.81224" lon="2.19192">
        <ele>156.2</ele>
        <time>2015-05-11T20:10:50.496Z</time>
      </trkpt>
      <trkpt lat="48.81232" lon="2.19193">
        <ele>155.9</ele>
        <time>2015-05-11T20:10:51.507Z</time>
      </trkpt>
      <trkpt lat="48.81239" lon="2.19193">
        <ele>155.6</ele>
        <time>2015-05-11T20:10:52.529Z</time>
      </trkpt>
      <trkpt lat="48.81247" lon="2.19194">
        <ele>155.3</ele>
        <time>2015-05-11T20:10:53.530Z</time>
      </trkpt>
      <trkpt lat="48.81255" lon="2.19195">
        <ele>155.5</ele>
        <time>2015-05-11T20:10:54.541Z</time>
      </trkpt>
      <trkpt lat="48.81264" lon="2.19197">
        <ele>155.7</ele>
        <time>2015-05-11T20:10:55.547Z</time>
      </trkpt>
      <trkpt lat="48.81272" lon="2.19198">
        <ele>156.1</ele>
        <time>2015-05-11T20:10:56.554Z</time>
      </trkpt>
      <trkpt lat="48.81281" lon="2.19201">
        <ele>156.1</ele>
        <time>2015-05-11T20:10:57.566Z</time>
      </trkpt>
      <trkpt lat="48.81289" lon="2.19204">
        <ele>156</ele>
        <time>2015-05-11T20:10:58.485Z</time>
      </trkpt>
      <trkpt lat="48.81297" lon="2.19205">
        <ele>155.9</ele>
        <time>2015-05-11T20:10:59.488Z</time>
      </trkpt>
      <trkpt lat="48.81305" lon="2.19207">
        <ele>155.9</ele>
        <time>2015-05-11T20:11:00.515Z</time>
      </trkpt>
      <trkpt lat="48.81313" lon="2.19209">
        <ele>155.8</ele>
        <time>2015-05-11T20:11:01.529Z</time>
      </trkpt>
      <trkpt lat="48.81321" lon="2.19212">
        <ele>156.2</ele>
        <time>2015-05-11T20:11:02.553Z</time>
      </trkpt>
      <trkpt lat="48.81329" lon="2.19217">
        <ele>156.6</ele>
        <time>2015-05-11T20:11:03.490Z</time>
      </trkpt>
      <trkpt lat="48.81337" lon="2.19222">
        <ele>156.9</ele>
        <time>2015-05-11T20:11:04.490Z</time>
      </trkpt>
      <trkpt lat="48.81344" lon="2.19228">
        <ele>157.3</ele>
        <time>2015-05-11T20:11:05.507Z</time>
      </trkpt>
      <trkpt lat="48.8135" lon="2.19234">
        <ele>157.5</ele>
        <time>2015-05-11T20:11:06.529Z</time>
      </trkpt>
      <trkpt lat="48.81357" lon="2.1924">
        <ele>158</ele>
        <time>2015-05-11T20:11:07.537Z</time>
      </trkpt>
      <trkpt lat="48.81364" lon="2.19245">
        <ele>158.6</ele>
        <time>2015-05-11T20:11:08.544Z</time>
      </trkpt>
      <trkpt lat="48.81373" lon="2.19251">
        <ele>159.4</ele>
        <time>2015-05-11T20:11:09.492Z</time>
      </trkpt>
      <trkpt lat="48.81381" lon="2.19257">
        <ele>159.4</ele>
        <time>2015-05-11T20:11:10.498Z</time>
      </trkpt>
      <trkpt lat="48.81388" lon="2.19263">
        <ele>159.3</ele>
        <time>2015-05-11T20:11:11.604Z</time>
      </trkpt>
      <trkpt lat="48.81397" lon="2.19268">
        <ele>158.6</ele>
        <time>2015-05-11T20:11:12.530Z</time>
      </trkpt>
      <trkpt lat="48.81405" lon="2.19273">
        <ele>159</ele>
        <time>2015-05-11T20:11:13.538Z</time>
      </trkpt>
      <trkpt lat="48.81412" lon="2.19279">
        <ele>159.8</ele>
        <time>2015-05-11T20:11:14.483Z</time>
      </trkpt>
      <trkpt lat="48.81421" lon="2.19285">
        <ele>160.3</ele>
        <time>2015-05-11T20:11:15.514Z</time>
      </trkpt>
      <trkpt lat="48.81428" lon="2.1929">
        <ele>161.1</ele>
        <time>2015-05-11T20:11:16.547Z</time>
      </trkpt>
      <trkpt lat="48.81435" lon="2.19295">
        <ele>161.8</ele>
        <time>2015-05-11T20:11:17.459Z</time>
      </trkpt>
      <trkpt lat="48.81442" lon="2.19301">
        <ele>162.5</ele>
        <time>2015-05-11T20:11:18.549Z</time>
      </trkpt>
      <trkpt lat="48.81449" lon="2.19307">
        <ele>163.3</ele>
        <time>2015-05-11T20:11:19.462Z</time>
      </trkpt>
      <trkpt lat="48.81456" lon="2.19313">
        <ele>164</ele>
        <time>2015-05-11T20:11:20.520Z</time>
      </trkpt>
      <trkpt lat="48.81462" lon="2.19318">
        <ele>164.7</ele>
        <time>2015-05-11T20:11:21.533Z</time>
      </trkpt>
      <trkpt lat="48.81468" lon="2.19323">
        <ele>165.5</ele>
        <time>2015-05-11T20:11:22.553Z</time>
      </trkpt>
      <trkpt lat="48.81474" lon="2.19327">
        <ele>165.8</ele>
        <time>2015-05-11T20:11:23.513Z</time>
      </trkpt>
      <trkpt lat="48.81479" lon="2.19332">
        <ele>166.2</ele>
        <time>2015-05-11T20:11:24.596Z</time>
      </trkpt>
      <trkpt lat="48.81485" lon="2.19336">
        <ele>166.2</ele>
        <time>2015-05-11T20:11:25.466Z</time>
      </trkpt>
      <trkpt lat="48.8149" lon="2.19341">
        <ele>166.2</ele>
        <time>2015-05-11T20:11:26.469Z</time>
      </trkpt>
      <trkpt lat="48.81495" lon="2.19345">
        <ele>166.6</ele>
        <time>2015-05-11T20:11:27.472Z</time>
      </trkpt>
      <trkpt lat="48.81501" lon="2.19348">
        <ele>167.1</ele>
        <time>2015-05-11T20:11:28.487Z</time>
      </trkpt>
      <trkpt lat="48.81506" lon="2.19352">
        <ele>167.2</ele>
        <time>2015-05-11T20:11:29.508Z</time>
      </trkpt>
      <trkpt lat="48.81512" lon="2.19355">
        <ele>167.4</ele>
        <time>2015-05-11T20:11:30.523Z</time>
      </trkpt>
      <trkpt lat="48.81518" lon="2.19359">
        <ele>168.2</ele>
        <time>2015-05-11T20:11:31.528Z</time>
      </trkpt>
      <trkpt lat="48.81524" lon="2.19363">
        <ele>168.7</ele>
        <time>2015-05-11T20:11:32.552Z</time>
      </trkpt>
      <trkpt lat="48.81529" lon="2.19367">
        <ele>169.4</ele>
        <time>2015-05-11T20:11:33.569Z</time>
      </trkpt>
      <trkpt lat="48.81535" lon="2.19372">
        <ele>170</ele>
        <time>2015-05-11T20:11:34.579Z</time>
      </trkpt>
      <trkpt lat="48.81541" lon="2.19376">
        <ele>170.3</ele>
        <time>2015-05-11T20:11:35.468Z</time>
      </trkpt>
      <trkpt lat="48.81546" lon="2.1938">
        <ele>170.4</ele>
        <time>2015-05-11T20:11:36.522Z</time>
      </trkpt>
      <trkpt lat="48.81552" lon="2.19384">
        <ele>170.5</ele>
        <time>2015-05-11T20:11:37.539Z</time>
      </trkpt>
      <trkpt lat="48.81557" lon="2.19387">
        <ele>170.8</ele>
        <time>2015-05-11T20:11:38.622Z</time>
      </trkpt>
      <trkpt lat="48.81562" lon="2.1939">
        <ele>170.9</ele>
        <time>2015-05-11T20:11:39.572Z</time>
      </trkpt>
      <trkpt lat="48.81568" lon="2.19393">
        <ele>171</ele>
        <time>2015-05-11T20:11:40.468Z</time>
      </trkpt>
      <trkpt lat="48.81574" lon="2.19397">
        <ele>171.1</ele>
        <time>2015-05-11T20:11:41.485Z</time>
      </trkpt>
      <trkpt lat="48.8158" lon="2.19402">
        <ele>171</ele>
        <time>2015-05-11T20:11:42.504Z</time>
      </trkpt>
      <trkpt lat="48.81586" lon="2.19407">
        <ele>170.7</ele>
        <time>2015-05-11T20:11:43.509Z</time>
      </trkpt>
      <trkpt lat="48.81593" lon="2.19412">
        <ele>170.3</ele>
        <time>2015-05-11T20:11:44.526Z</time>
      </trkpt>
      <trkpt lat="48.816" lon="2.19415">
        <ele>167.1</ele>
        <time>2015-05-11T20:11:45.579Z</time>
      </trkpt>
      <trkpt lat="48.81608" lon="2.19421">
        <ele>167</ele>
        <time>2015-05-11T20:11:46.517Z</time>
      </trkpt>
      <trkpt lat="48.81615" lon="2.19428">
        <ele>166.4</ele>
        <time>2015-05-11T20:11:47.467Z</time>
      </trkpt>
      <trkpt lat="48.81622" lon="2.19436">
        <ele>165.9</ele>
        <time>2015-05-11T20:11:48.502Z</time>
      </trkpt>
      <trkpt lat="48.81627" lon="2.19445">
        <ele>166.7</ele>
        <time>2015-05-11T20:11:49.561Z</time>
      </trkpt>
      <trkpt lat="48.81631" lon="2.19453">
        <ele>167.2</ele>
        <time>2015-05-11T20:11:50.580Z</time>
      </trkpt>
      <trkpt lat="48.81635" lon="2.19461">
        <ele>167</ele>
        <time>2015-05-11T20:11:51.496Z</time>
      </trkpt>
      <trkpt lat="48.81639" lon="2.19468">
        <ele>167.2</ele>
        <time>2015-05-11T20:11:52.490Z</time>
      </trkpt>
      <trkpt lat="48.81644" lon="2.19475">
        <ele>166.7</ele>
        <time>2015-05-11T20:11:53.509Z</time>
      </trkpt>
      <trkpt lat="48.81648" lon="2.19481">
        <ele>166.3</ele>
        <time>2015-05-11T20:11:54.537Z</time>
      </trkpt>
      <trkpt lat="48.81652" lon="2.19486">
        <ele>164.9</ele>
        <time>2015-05-11T20:11:55.538Z</time>
      </trkpt>
      <trkpt lat="48.81656" lon="2.19494">
        <ele>164.9</ele>
        <time>2015-05-11T20:11:56.473Z</time>
      </trkpt>
      <trkpt lat="48.8166" lon="2.19501">
        <ele>164.4</ele>
        <time>2015-05-11T20:11:57.495Z</time>
      </trkpt>
      <trkpt lat="48.81664" lon="2.19507">
        <ele>164.1</ele>
        <time>2015-05-11T20:11:58.561Z</time>
      </trkpt>
      <trkpt lat="48.81669" lon="2.19513">
        <ele>163.4</ele>
        <time>2015-05-11T20:11:59.518Z</time>
      </trkpt>
      <trkpt lat="48.81674" lon="2.19519">
        <ele>162.6</ele>
        <time>2015-05-11T20:12:00.519Z</time>
      </trkpt>
      <trkpt lat="48.8168" lon="2.19526">
        <ele>161.2</ele>
        <time>2015-05-11T20:12:01.531Z</time>
      </trkpt>
      <trkpt lat="48.81686" lon="2.19532">
        <ele>159.6</ele>
        <time>2015-05-11T20:12:02.530Z</time>
      </trkpt>
      <trkpt lat="48.8169" lon="2.19538">
        <ele>158.4</ele>
        <time>2015-05-11T20:12:03.566Z</time>
      </trkpt>
      <trkpt lat="48.81694" lon="2.19545">
        <ele>158</ele>
        <time>2015-05-11T20:12:04.572Z</time>
      </trkpt>
      <trkpt lat="48.81698" lon="2.19552">
        <ele>157.4</ele>
        <time>2015-05-11T20:12:05.510Z</time>
      </trkpt>
      <trkpt lat="48.81702" lon="2.1956">
        <ele>157.1</ele>
        <time>2015-05-11T20:12:06.530Z</time>
      </trkpt>
      <trkpt lat="48.81706" lon="2.19569">
        <ele>157</ele>
        <time>2015-05-11T20:12:07.529Z</time>
      </trkpt>
      <trkpt lat="48.81711" lon="2.19576">
        <ele>156.9</ele>
        <time>2015-05-11T20:12:08.544Z</time>
      </trkpt>
      <trkpt lat="48.81715" lon="2.19584">
        <ele>156.6</ele>
        <time>2015-05-11T20:12:09.546Z</time>
      </trkpt>
      <trkpt lat="48.81719" lon="2.19592">
        <ele>156.4</ele>
        <time>2015-05-11T20:12:10.626Z</time>
      </trkpt>
      <trkpt lat="48.81723" lon="2.19598">
        <ele>155.2</ele>
        <time>2015-05-11T20:12:11.483Z</time>
      </trkpt>
      <trkpt lat="48.81728" lon="2.19606">
        <ele>154.8</ele>
        <time>2015-05-11T20:12:12.529Z</time>
      </trkpt>
      <trkpt lat="48.81732" lon="2.19612">
        <ele>154.8</ele>
        <time>2015-05-11T20:12:13.537Z</time>
      </trkpt>
      <trkpt lat="48.81738" lon="2.19618">
        <ele>155.1</ele>
        <time>2015-05-11T20:12:14.483Z</time>
      </trkpt>
      <trkpt lat="48.81744" lon="2.19625">
        <ele>155.4</ele>
        <time>2015-05-11T20:12:15.492Z</time>
      </trkpt>
      <trkpt lat="48.81749" lon="2.19633">
        <ele>155.5</ele>
        <time>2015-05-11T20:12:16.538Z</time>
      </trkpt>
      <trkpt lat="48.81755" lon="2.1964">
        <ele>155.7</ele>
        <time>2015-05-11T20:12:17.547Z</time>
      </trkpt>
      <trkpt lat="48.8176" lon="2.19648">
        <ele>155.7</ele>
        <time>2015-05-11T20:12:18.566Z</time>
      </trkpt>
      <trkpt lat="48.81766" lon="2.19656">
        <ele>155.6</ele>
        <time>2015-05-11T20:12:19.518Z</time>
      </trkpt>
      <trkpt lat="48.81771" lon="2.19662">
        <ele>156</ele>
        <time>2015-05-11T20:12:20.532Z</time>
      </trkpt>
      <trkpt lat="48.81776" lon="2.19669">
        <ele>156.1</ele>
        <time>2015-05-11T20:12:21.534Z</time>
      </trkpt>
      <trkpt lat="48.81782" lon="2.19676">
        <ele>155.9</ele>
        <time>2015-05-11T20:12:22.545Z</time>
      </trkpt>
      <trkpt lat="48.81787" lon="2.19684">
        <ele>155.7</ele>
        <time>2015-05-11T20:12:23.558Z</time>
      </trkpt>
      <trkpt lat="48.81792" lon="2.19692">
        <ele>156</ele>
        <time>2015-05-11T20:12:24.566Z</time>
      </trkpt>
      <trkpt lat="48.81797" lon="2.19697">
        <ele>156.3</ele>
        <time>2015-05-11T20:12:25.454Z</time>
      </trkpt>
      <trkpt lat="48.81803" lon="2.19703">
        <ele>156.6</ele>
        <time>2015-05-11T20:12:26.484Z</time>
      </trkpt>
      <trkpt lat="48.81809" lon="2.19711">
        <ele>156.7</ele>
        <time>2015-05-11T20:12:27.505Z</time>
      </trkpt>
      <trkpt lat="48.81815" lon="2.19718">
        <ele>157.3</ele>
        <time>2015-05-11T20:12:28.519Z</time>
      </trkpt>
      <trkpt lat="48.81821" lon="2.19725">
        <ele>157.8</ele>
        <time>2015-05-11T20:12:29.524Z</time>
      </trkpt>
      <trkpt lat="48.81827" lon="2.19733">
        <ele>157.8</ele>
        <time>2015-05-11T20:12:30.562Z</time>
      </trkpt>
      <trkpt lat="48.81831" lon="2.19741">
        <ele>157.5</ele>
        <time>2015-05-11T20:12:31.570Z</time>
      </trkpt>
      <trkpt lat="48.81835" lon="2.19749">
        <ele>157</ele>
        <time>2015-05-11T20:12:32.487Z</time>
      </trkpt>
      <trkpt lat="48.8184" lon="2.19757">
        <ele>156.6</ele>
        <time>2015-05-11T20:12:33.481Z</time>
      </trkpt>
      <trkpt lat="48.81844" lon="2.19764">
        <ele>156.3</ele>
        <time>2015-05-11T20:12:34.500Z</time>
      </trkpt>
      <trkpt lat="48.81847" lon="2.1977">
        <ele>155.7</ele>
        <time>2015-05-11T20:12:35.508Z</time>
      </trkpt>
      <trkpt lat="48.81851" lon="2.19776">
        <ele>155.5</ele>
        <time>2015-05-11T20:12:36.528Z</time>
      </trkpt>
      <trkpt lat="48.81856" lon="2.19782">
        <ele>155.2</ele>
        <time>2015-05-11T20:12:37.536Z</time>
      </trkpt>
      <trkpt lat="48.81862" lon="2.19788">
        <ele>154.8</ele>
        <time>2015-05-11T20:12:38.566Z</time>
      </trkpt>
      <trkpt lat="48.81867" lon="2.19794">
        <ele>153.9</ele>
        <time>2015-05-11T20:12:39.483Z</time>
      </trkpt>
      <trkpt lat="48.81873" lon="2.198">
        <ele>154.3</ele>
        <time>2015-05-11T20:12:40.487Z</time>
      </trkpt>
      <trkpt lat="48.81878" lon="2.19806">
        <ele>154.1</ele>
        <time>2015-05-11T20:12:41.496Z</time>
      </trkpt>
      <trkpt lat="48.81884" lon="2.19813">
        <ele>154.2</ele>
        <time>2015-05-11T20:12:42.528Z</time>
      </trkpt>
      <trkpt lat="48.81887" lon="2.1982">
        <ele>154.5</ele>
        <time>2015-05-11T20:12:43.531Z</time>
      </trkpt>
      <trkpt lat="48.81892" lon="2.19827">
        <ele>154.9</ele>
        <time>2015-05-11T20:12:44.546Z</time>
      </trkpt>
      <trkpt lat="48.81898" lon="2.19834">
        <ele>155.3</ele>
        <time>2015-05-11T20:12:45.550Z</time>
      </trkpt>
      <trkpt lat="48.81903" lon="2.19842">
        <ele>155</ele>
        <time>2015-05-11T20:12:46.574Z</time>
      </trkpt>
      <trkpt lat="48.81907" lon="2.1985">
        <ele>155</ele>
        <time>2015-05-11T20:12:47.484Z</time>
      </trkpt>
      <trkpt lat="48.8191" lon="2.19858">
        <ele>155.2</ele>
        <time>2015-05-11T20:12:48.539Z</time>
      </trkpt>
      <trkpt lat="48.81914" lon="2.19866">
        <ele>155.3</ele>
        <time>2015-05-11T20:12:49.553Z</time>
      </trkpt>
      <trkpt lat="48.81918" lon="2.19873">
        <ele>155.3</ele>
        <time>2015-05-11T20:12:50.563Z</time>
      </trkpt>
      <trkpt lat="48.81922" lon="2.1988">
        <ele>155.1</ele>
        <time>2015-05-11T20:12:51.455Z</time>
      </trkpt>
      <trkpt lat="48.81925" lon="2.19887">
        <ele>154.8</ele>
        <time>2015-05-11T20:12:52.483Z</time>
      </trkpt>
      <trkpt lat="48.8193" lon="2.19893">
        <ele>153.8</ele>
        <time>2015-05-11T20:12:53.486Z</time>
      </trkpt>
      <trkpt lat="48.81933" lon="2.19899">
        <ele>152.7</ele>
        <time>2015-05-11T20:12:54.533Z</time>
      </trkpt>
      <trkpt lat="48.81937" lon="2.19905">
        <ele>151.5</ele>
        <time>2015-05-11T20:12:55.543Z</time>
      </trkpt>
      <trkpt lat="48.81941" lon="2.19913">
        <ele>151.4</ele>
        <time>2015-05-11T20:12:56.550Z</time>
      </trkpt>
      <trkpt lat="48.81944" lon="2.1992">
        <ele>151.5</ele>
        <time>2015-05-11T20:12:57.559Z</time>
      </trkpt>
      <trkpt lat="48.81948" lon="2.19929">
        <ele>151.7</ele>
        <time>2015-05-11T20:12:58.459Z</time>
      </trkpt>
      <trkpt lat="48.81954" lon="2.19936">
        <ele>152.2</ele>
        <time>2015-05-11T20:12:59.466Z</time>
      </trkpt>
      <trkpt lat="48.81958" lon="2.19943">
        <ele>152.7</ele>
        <time>2015-05-11T20:13:00.511Z</time>
      </trkpt>
      <trkpt lat="48.81962" lon="2.19952">
        <ele>153.3</ele>
        <time>2015-05-11T20:13:01.523Z</time>
      </trkpt>
      <trkpt lat="48.81966" lon="2.1996">
        <ele>153.3</ele>
        <time>2015-05-11T20:13:02.453Z</time>
      </trkpt>
      <trkpt lat="48.8197" lon="2.19964">
        <ele>151.5</ele>
        <time>2015-05-11T20:13:03.486Z</time>
      </trkpt>
      <trkpt lat="48.81976" lon="2.1997">
        <ele>150.8</ele>
        <time>2015-05-11T20:13:04.561Z</time>
      </trkpt>
      <trkpt lat="48.8198" lon="2.19977">
        <ele>150.8</ele>
        <time>2015-05-11T20:13:05.532Z</time>
      </trkpt>
      <trkpt lat="48.81984" lon="2.19985">
        <ele>150.7</ele>
        <time>2015-05-11T20:13:06.523Z</time>
      </trkpt>
      <trkpt lat="48.81988" lon="2.19992">
        <ele>150.8</ele>
        <time>2015-05-11T20:13:07.483Z</time>
      </trkpt>
      <trkpt lat="48.81992" lon="2.2">
        <ele>151</ele>
        <time>2015-05-11T20:13:08.495Z</time>
      </trkpt>
      <trkpt lat="48.81996" lon="2.20007">
        <ele>151.5</ele>
        <time>2015-05-11T20:13:09.499Z</time>
      </trkpt>
      <trkpt lat="48.82001" lon="2.20013">
        <ele>152.2</ele>
        <time>2015-05-11T20:13:10.525Z</time>
      </trkpt>
      <trkpt lat="48.82005" lon="2.20021">
        <ele>152.3</ele>
        <time>2015-05-11T20:13:11.545Z</time>
      </trkpt>
      <trkpt lat="48.8201" lon="2.20027">
        <ele>152.7</ele>
        <time>2015-05-11T20:13:12.556Z</time>
      </trkpt>
      <trkpt lat="48.82014" lon="2.20036">
        <ele>152.9</ele>
        <time>2015-05-11T20:13:13.470Z</time>
      </trkpt>
      <trkpt lat="48.8202" lon="2.20045">
        <ele>152.9</ele>
        <time>2015-05-11T20:13:14.570Z</time>
      </trkpt>
      <trkpt lat="48.82026" lon="2.20054">
        <ele>152.7</ele>
        <time>2015-05-11T20:13:15.535Z</time>
      </trkpt>
      <trkpt lat="48.82031" lon="2.20062">
        <ele>152.9</ele>
        <time>2015-05-11T20:13:16.518Z</time>
      </trkpt>
      <trkpt lat="48.82035" lon="2.20071">
        <ele>153.5</ele>
        <time>2015-05-11T20:13:17.514Z</time>
      </trkpt>
      <trkpt lat="48.82042" lon="2.20081">
        <ele>154.4</ele>
        <time>2015-05-11T20:13:18.554Z</time>
      </trkpt>
      <trkpt lat="48.82049" lon="2.20089">
        <ele>154.1</ele>
        <time>2015-05-11T20:13:19.543Z</time>
      </trkpt>
      <trkpt lat="48.82054" lon="2.20099">
        <ele>154.4</ele>
        <time>2015-05-11T20:13:20.576Z</time>
      </trkpt>
      <trkpt lat="48.82059" lon="2.20107">
        <ele>154.4</ele>
        <time>2015-05-11T20:13:21.459Z</time>
      </trkpt>
      <trkpt lat="48.82063" lon="2.20115">
        <ele>154</ele>
        <time>2015-05-11T20:13:22.486Z</time>
      </trkpt>
      <trkpt lat="48.82069" lon="2.20124">
        <ele>154</ele>
        <time>2015-05-11T20:13:23.517Z</time>
      </trkpt>
      <trkpt lat="48.82074" lon="2.20134">
        <ele>153.9</ele>
        <time>2015-05-11T20:13:24.523Z</time>
      </trkpt>
      <trkpt lat="48.82079" lon="2.20143">
        <ele>153.8</ele>
        <time>2015-05-11T20:13:25.536Z</time>
      </trkpt>
      <trkpt lat="48.82084" lon="2.20152">
        <ele>154.1</ele>
        <time>2015-05-11T20:13:26.541Z</time>
      </trkpt>
      <trkpt lat="48.82089" lon="2.20161">
        <ele>154.3</ele>
        <time>2015-05-11T20:13:27.554Z</time>
      </trkpt>
      <trkpt lat="48.82095" lon="2.2017">
        <ele>154.7</ele>
        <time>2015-05-11T20:13:28.572Z</time>
      </trkpt>
      <trkpt lat="48.821" lon="2.2018">
        <ele>155.2</ele>
        <time>2015-05-11T20:13:29.483Z</time>
      </trkpt>
      <trkpt lat="48.82105" lon="2.2019">
        <ele>155.6</ele>
        <time>2015-05-11T20:13:30.518Z</time>
      </trkpt>
      <trkpt lat="48.82109" lon="2.20201">
        <ele>155.9</ele>
        <time>2015-05-11T20:13:31.530Z</time>
      </trkpt>
      <trkpt lat="48.82113" lon="2.20211">
        <ele>155.7</ele>
        <time>2015-05-11T20:13:32.542Z</time>
      </trkpt>
      <trkpt lat="48.82119" lon="2.2022">
        <ele>155.8</ele>
        <time>2015-05-11T20:13:33.547Z</time>
      </trkpt>
      <trkpt lat="48.82124" lon="2.2023">
        <ele>156.4</ele>
        <time>2015-05-11T20:13:34.554Z</time>
      </trkpt>
      <trkpt lat="48.82129" lon="2.2024">
        <ele>156.7</ele>
        <time>2015-05-11T20:13:35.470Z</time>
      </trkpt>
      <trkpt lat="48.82135" lon="2.2025">
        <ele>157.1</ele>
        <time>2015-05-11T20:13:36.511Z</time>
      </trkpt>
      <trkpt lat="48.8214" lon="2.2026">
        <ele>157.7</ele>
        <time>2015-05-11T20:13:37.524Z</time>
      </trkpt>
      <trkpt lat="48.82144" lon="2.20271">
        <ele>158.2</ele>
        <time>2015-05-11T20:13:38.532Z</time>
      </trkpt>
      <trkpt lat="48.82146" lon="2.20281">
        <ele>157.6</ele>
        <time>2015-05-11T20:13:39.555Z</time>
      </trkpt>
      <trkpt lat="48.82148" lon="2.20292">
        <ele>157.2</ele>
        <time>2015-05-11T20:13:40.550Z</time>
      </trkpt>
      <trkpt lat="48.8215" lon="2.20302">
        <ele>156.8</ele>
        <time>2015-05-11T20:13:41.440Z</time>
      </trkpt>
      <trkpt lat="48.82151" lon="2.20313">
        <ele>156.2</ele>
        <time>2015-05-11T20:13:42.496Z</time>
      </trkpt>
      <trkpt lat="48.82153" lon="2.20323">
        <ele>155.8</ele>
        <time>2015-05-11T20:13:43.509Z</time>
      </trkpt>
      <trkpt lat="48.82156" lon="2.20333">
        <ele>155</ele>
        <time>2015-05-11T20:13:44.513Z</time>
      </trkpt>
      <trkpt lat="48.82157" lon="2.20344">
        <ele>154.4</ele>
        <time>2015-05-11T20:13:45.435Z</time>
      </trkpt>
      <trkpt lat="48.82159" lon="2.20354">
        <ele>154.2</ele>
        <time>2015-05-11T20:13:46.437Z</time>
      </trkpt>
      <trkpt lat="48.82161" lon="2.20365">
        <ele>153.9</ele>
        <time>2015-05-11T20:13:47.464Z</time>
      </trkpt>
      <trkpt lat="48.82163" lon="2.20375">
        <ele>153.8</ele>
        <time>2015-05-11T20:13:48.529Z</time>
      </trkpt>
      <trkpt lat="48.82165" lon="2.20385">
        <ele>153.9</ele>
        <time>2015-05-11T20:13:49.465Z</time>
      </trkpt>
      <trkpt lat="48.82167" lon="2.20396">
        <ele>153.8</ele>
        <time>2015-05-11T20:13:50.481Z</time>
      </trkpt>
      <trkpt lat="48.82169" lon="2.20406">
        <ele>154.2</ele>
        <time>2015-05-11T20:13:51.484Z</time>
      </trkpt>
      <trkpt lat="48.82171" lon="2.20416">
        <ele>154</ele>
        <time>2015-05-11T20:13:52.493Z</time>
      </trkpt>
      <trkpt lat="48.82173" lon="2.20426">
        <ele>154.2</ele>
        <time>2015-05-11T20:13:53.509Z</time>
      </trkpt>
      <trkpt lat="48.82175" lon="2.20436">
        <ele>154.7</ele>
        <time>2015-05-11T20:13:54.516Z</time>
      </trkpt>
      <trkpt lat="48.82176" lon="2.20445">
        <ele>154.5</ele>
        <time>2015-05-11T20:13:55.528Z</time>
      </trkpt>
      <trkpt lat="48.82177" lon="2.20455">
        <ele>154.1</ele>
        <time>2015-05-11T20:13:56.437Z</time>
      </trkpt>
      <trkpt lat="48.82177" lon="2.20464">
        <ele>153.9</ele>
        <time>2015-05-11T20:13:57.464Z</time>
      </trkpt>
      <trkpt lat="48.82178" lon="2.20474">
        <ele>153.9</ele>
        <time>2015-05-11T20:13:58.494Z</time>
      </trkpt>
      <trkpt lat="48.82179" lon="2.20483">
        <ele>153.8</ele>
        <time>2015-05-11T20:13:59.508Z</time>
      </trkpt>
      <trkpt lat="48.8218" lon="2.20491">
        <ele>153.8</ele>
        <time>2015-05-11T20:14:00.517Z</time>
      </trkpt>
      <trkpt lat="48.82182" lon="2.20512">
        <ele>153.9</ele>
        <time>2015-05-11T20:14:02.605Z</time>
      </trkpt>
      <trkpt lat="48.82184" lon="2.20522">
        <ele>153.9</ele>
        <time>2015-05-11T20:14:03.472Z</time>
      </trkpt>
      <trkpt lat="48.82186" lon="2.20532">
        <ele>153.8</ele>
        <time>2015-05-11T20:14:04.498Z</time>
      </trkpt>
      <trkpt lat="48.82188" lon="2.20544">
        <ele>153.6</ele>
        <time>2015-05-11T20:14:05.507Z</time>
      </trkpt>
      <trkpt lat="48.82189" lon="2.20554">
        <ele>153.5</ele>
        <time>2015-05-11T20:14:06.513Z</time>
      </trkpt>
      <trkpt lat="48.82191" lon="2.20565">
        <ele>153.5</ele>
        <time>2015-05-11T20:14:07.541Z</time>
      </trkpt>
      <trkpt lat="48.82194" lon="2.20575">
        <ele>153.5</ele>
        <time>2015-05-11T20:14:08.458Z</time>
      </trkpt>
      <trkpt lat="48.82196" lon="2.20585">
        <ele>153.3</ele>
        <time>2015-05-11T20:14:09.470Z</time>
      </trkpt>
      <trkpt lat="48.82199" lon="2.20595">
        <ele>153.2</ele>
        <time>2015-05-11T20:14:10.480Z</time>
      </trkpt>
      <trkpt lat="48.82201" lon="2.20606">
        <ele>153.2</ele>
        <time>2015-05-11T20:14:11.529Z</time>
      </trkpt>
      <trkpt lat="48.82203" lon="2.20616">
        <ele>153.2</ele>
        <time>2015-05-11T20:14:12.537Z</time>
      </trkpt>
      <trkpt lat="48.82205" lon="2.20627">
        <ele>152.8</ele>
        <time>2015-05-11T20:14:13.560Z</time>
      </trkpt>
      <trkpt lat="48.82207" lon="2.20636">
        <ele>151.6</ele>
        <time>2015-05-11T20:14:14.491Z</time>
      </trkpt>
      <trkpt lat="48.82209" lon="2.20645">
        <ele>150.1</ele>
        <time>2015-05-11T20:14:15.508Z</time>
      </trkpt>
      <trkpt lat="48.82209" lon="2.20655">
        <ele>149.6</ele>
        <time>2015-05-11T20:14:16.523Z</time>
      </trkpt>
      <trkpt lat="48.82211" lon="2.20666">
        <ele>149</ele>
        <time>2015-05-11T20:14:17.529Z</time>
      </trkpt>
      <trkpt lat="48.82213" lon="2.20674">
        <ele>147.1</ele>
        <time>2015-05-11T20:14:18.561Z</time>
      </trkpt>
      <trkpt lat="48.82216" lon="2.20682">
        <ele>144.8</ele>
        <time>2015-05-11T20:14:19.617Z</time>
      </trkpt>
      <trkpt lat="48.82219" lon="2.20691">
        <ele>142.7</ele>
        <time>2015-05-11T20:14:20.475Z</time>
      </trkpt>
      <trkpt lat="48.82221" lon="2.207">
        <ele>141.1</ele>
        <time>2015-05-11T20:14:21.504Z</time>
      </trkpt>
      <trkpt lat="48.82223" lon="2.2071">
        <ele>139.9</ele>
        <time>2015-05-11T20:14:22.538Z</time>
      </trkpt>
      <trkpt lat="48.82225" lon="2.20719">
        <ele>138.8</ele>
        <time>2015-05-11T20:14:23.564Z</time>
      </trkpt>
      <trkpt lat="48.82226" lon="2.20729">
        <ele>136.6</ele>
        <time>2015-05-11T20:14:24.552Z</time>
      </trkpt>
      <trkpt lat="48.82227" lon="2.20737">
        <ele>135.3</ele>
        <time>2015-05-11T20:14:25.569Z</time>
      </trkpt>
      <trkpt lat="48.8223" lon="2.20746">
        <ele>134.7</ele>
        <time>2015-05-11T20:14:26.509Z</time>
      </trkpt>
      <trkpt lat="48.82232" lon="2.20756">
        <ele>134</ele>
        <time>2015-05-11T20:14:27.490Z</time>
      </trkpt>
      <trkpt lat="48.82234" lon="2.20764">
        <ele>132.6</ele>
        <time>2015-05-11T20:14:28.487Z</time>
      </trkpt>
      <trkpt lat="48.82237" lon="2.20771">
        <ele>129</ele>
        <time>2015-05-11T20:14:29.495Z</time>
      </trkpt>
      <trkpt lat="48.82241" lon="2.20779">
        <ele>127.3</ele>
        <time>2015-05-11T20:14:30.544Z</time>
      </trkpt>
      <trkpt lat="48.82245" lon="2.20786">
        <ele>126.2</ele>
        <time>2015-05-11T20:14:31.565Z</time>
      </trkpt>
      <trkpt lat="48.8225" lon="2.20793">
        <ele>125.3</ele>
        <time>2015-05-11T20:14:32.481Z</time>
      </trkpt>
      <trkpt lat="48.82255" lon="2.208">
        <ele>124.6</ele>
        <time>2015-05-11T20:14:33.477Z</time>
      </trkpt>
      <trkpt lat="48.82258" lon="2.20808">
        <ele>123.9</ele>
        <time>2015-05-11T20:14:34.483Z</time>
      </trkpt>
      <trkpt lat="48.82262" lon="2.20816">
        <ele>124</ele>
        <time>2015-05-11T20:14:35.485Z</time>
      </trkpt>
      <trkpt lat="48.82267" lon="2.20824">
        <ele>124.4</ele>
        <time>2015-05-11T20:14:36.535Z</time>
      </trkpt>
      <trkpt lat="48.82271" lon="2.20831">
        <ele>125.1</ele>
        <time>2015-05-11T20:14:37.532Z</time>
      </trkpt>
      <trkpt lat="48.82273" lon="2.20839">
        <ele>125.6</ele>
        <time>2015-05-11T20:14:38.540Z</time>
      </trkpt>
      <trkpt lat="48.82276" lon="2.20846">
        <ele>125.9</ele>
        <time>2015-05-11T20:14:39.482Z</time>
      </trkpt>
      <trkpt lat="48.8228" lon="2.20853">
        <ele>126.1</ele>
        <time>2015-05-11T20:14:40.484Z</time>
      </trkpt>
      <trkpt lat="48.82283" lon="2.2086">
        <ele>126.1</ele>
        <time>2015-05-11T20:14:41.496Z</time>
      </trkpt>
      <trkpt lat="48.82285" lon="2.20868">
        <ele>126</ele>
        <time>2015-05-11T20:14:42.514Z</time>
      </trkpt>
      <trkpt lat="48.82287" lon="2.20876">
        <ele>126.1</ele>
        <time>2015-05-11T20:14:43.528Z</time>
      </trkpt>
      <trkpt lat="48.82288" lon="2.20883">
        <ele>126.1</ele>
        <time>2015-05-11T20:14:44.549Z</time>
      </trkpt>
      <trkpt lat="48.8229" lon="2.20891">
        <ele>126.2</ele>
        <time>2015-05-11T20:14:45.450Z</time>
      </trkpt>
      <trkpt lat="48.82292" lon="2.20898">
        <ele>125.9</ele>
        <time>2015-05-11T20:14:46.458Z</time>
      </trkpt>
      <trkpt lat="48.82295" lon="2.20905">
        <ele>125.9</ele>
        <time>2015-05-11T20:14:47.485Z</time>
      </trkpt>
      <trkpt lat="48.82297" lon="2.20911">
        <ele>125.5</ele>
        <time>2015-05-11T20:14:48.525Z</time>
      </trkpt>
      <trkpt lat="48.823" lon="2.20918">
        <ele>125</ele>
        <time>2015-05-11T20:14:49.529Z</time>
      </trkpt>
      <trkpt lat="48.82303" lon="2.20925">
        <ele>124.8</ele>
        <time>2015-05-11T20:14:50.550Z</time>
      </trkpt>
      <trkpt lat="48.82306" lon="2.20933">
        <ele>124.9</ele>
        <time>2015-05-11T20:14:51.564Z</time>
      </trkpt>
      <trkpt lat="48.82309" lon="2.20941">
        <ele>125</ele>
        <time>2015-05-11T20:14:52.466Z</time>
      </trkpt>
      <trkpt lat="48.82312" lon="2.20948">
        <ele>125.1</ele>
        <time>2015-05-11T20:14:53.478Z</time>
      </trkpt>
      <trkpt lat="48.82315" lon="2.20956">
        <ele>125</ele>
        <time>2015-05-11T20:14:54.516Z</time>
      </trkpt>
      <trkpt lat="48.82318" lon="2.20964">
        <ele>125.1</ele>
        <time>2015-05-11T20:14:55.531Z</time>
      </trkpt>
      <trkpt lat="48.8232" lon="2.20972">
        <ele>125.3</ele>
        <time>2015-05-11T20:14:56.544Z</time>
      </trkpt>
      <trkpt lat="48.82323" lon="2.20979">
        <ele>125.3</ele>
        <time>2015-05-11T20:14:57.545Z</time>
      </trkpt>
      <trkpt lat="48.82327" lon="2.20987">
        <ele>125.2</ele>
        <time>2015-05-11T20:14:58.561Z</time>
      </trkpt>
      <trkpt lat="48.8233" lon="2.20995">
        <ele>125</ele>
        <time>2015-05-11T20:14:59.482Z</time>
      </trkpt>
      <trkpt lat="48.82336" lon="2.21003">
        <ele>125.9</ele>
        <time>2015-05-11T20:15:00.525Z</time>
      </trkpt>
      <trkpt lat="48.8234" lon="2.21012">
        <ele>126</ele>
        <time>2015-05-11T20:15:01.536Z</time>
      </trkpt>
      <trkpt lat="48.82342" lon="2.2102">
        <ele>126</ele>
        <time>2015-05-11T20:15:02.545Z</time>
      </trkpt>
      <trkpt lat="48.82343" lon="2.21028">
        <ele>125.9</ele>
        <time>2015-05-11T20:15:03.567Z</time>
      </trkpt>
      <trkpt lat="48.82345" lon="2.21036">
        <ele>124.3</ele>
        <time>2015-05-11T20:15:04.488Z</time>
      </trkpt>
      <trkpt lat="48.82348" lon="2.21044">
        <ele>124.5</ele>
        <time>2015-05-11T20:15:05.490Z</time>
      </trkpt>
      <trkpt lat="48.82352" lon="2.21052">
        <ele>124.6</ele>
        <time>2015-05-11T20:15:06.520Z</time>
      </trkpt>
      <trkpt lat="48.82355" lon="2.2106">
        <ele>124.7</ele>
        <time>2015-05-11T20:15:07.531Z</time>
      </trkpt>
      <trkpt lat="48.82358" lon="2.21068">
        <ele>124.5</ele>
        <time>2015-05-11T20:15:08.539Z</time>
      </trkpt>
      <trkpt lat="48.82362" lon="2.21077">
        <ele>125.1</ele>
        <time>2015-05-11T20:15:09.567Z</time>
      </trkpt>
      <trkpt lat="48.82367" lon="2.21085">
        <ele>125.2</ele>
        <time>2015-05-11T20:15:10.481Z</time>
      </trkpt>
      <trkpt lat="48.82372" lon="2.21093">
        <ele>125.2</ele>
        <time>2015-05-11T20:15:11.482Z</time>
      </trkpt>
      <trkpt lat="48.82377" lon="2.211">
        <ele>124.7</ele>
        <time>2015-05-11T20:15:12.503Z</time>
      </trkpt>
      <trkpt lat="48.82382" lon="2.21108">
        <ele>124.4</ele>
        <time>2015-05-11T20:15:13.513Z</time>
      </trkpt>
      <trkpt lat="48.82388" lon="2.21115">
        <ele>124.3</ele>
        <time>2015-05-11T20:15:14.522Z</time>
      </trkpt>
      <trkpt lat="48.82394" lon="2.21123">
        <ele>124.1</ele>
        <time>2015-05-11T20:15:15.528Z</time>
      </trkpt>
      <trkpt lat="48.82398" lon="2.2113">
        <ele>124.2</ele>
        <time>2015-05-11T20:15:16.540Z</time>
      </trkpt>
      <trkpt lat="48.82402" lon="2.21138">
        <ele>124.2</ele>
        <time>2015-05-11T20:15:17.545Z</time>
      </trkpt>
      <trkpt lat="48.82406" lon="2.21145">
        <ele>124.4</ele>
        <time>2015-05-11T20:15:18.551Z</time>
      </trkpt>
      <trkpt lat="48.8241" lon="2.21152">
        <ele>124.6</ele>
        <time>2015-05-11T20:15:19.457Z</time>
      </trkpt>
      <trkpt lat="48.82414" lon="2.21161">
        <ele>124.3</ele>
        <time>2015-05-11T20:15:20.485Z</time>
      </trkpt>
      <trkpt lat="48.82418" lon="2.21169">
        <ele>123.9</ele>
        <time>2015-05-11T20:15:21.496Z</time>
      </trkpt>
      <trkpt lat="48.82422" lon="2.21178">
        <ele>123.6</ele>
        <time>2015-05-11T20:15:22.504Z</time>
      </trkpt>
      <trkpt lat="48.82426" lon="2.21187">
        <ele>123.4</ele>
        <time>2015-05-11T20:15:23.533Z</time>
      </trkpt>
      <trkpt lat="48.82428" lon="2.21195">
        <ele>123.2</ele>
        <time>2015-05-11T20:15:24.537Z</time>
      </trkpt>
      <trkpt lat="48.82431" lon="2.21203">
        <ele>122.9</ele>
        <time>2015-05-11T20:15:25.466Z</time>
      </trkpt>
      <trkpt lat="48.82432" lon="2.21212">
        <ele>122.1</ele>
        <time>2015-05-11T20:15:26.480Z</time>
      </trkpt>
      <trkpt lat="48.82432" lon="2.2122">
        <ele>121.6</ele>
        <time>2015-05-11T20:15:27.467Z</time>
      </trkpt>
      <trkpt lat="48.82432" lon="2.21227">
        <ele>121</ele>
        <time>2015-05-11T20:15:28.478Z</time>
      </trkpt>
      <trkpt lat="48.82435" lon="2.21239">
        <ele>120.1</ele>
        <time>2015-05-11T20:15:31.594Z</time>
      </trkpt>
      <trkpt lat="48.82436" lon="2.21243">
        <ele>120.1</ele>
        <time>2015-05-11T20:15:32.512Z</time>
      </trkpt>
      <trkpt lat="48.82438" lon="2.21255">
        <ele>118.4</ele>
        <time>2015-05-11T20:15:36.583Z</time>
      </trkpt>
      <trkpt lat="48.82438" lon="2.21257">
        <ele>118.1</ele>
        <time>2015-05-11T20:15:37.511Z</time>
      </trkpt>
      <trkpt lat="48.82439" lon="2.21269">
        <ele>115.7</ele>
        <time>2015-05-11T20:15:42.552Z</time>
      </trkpt>
      <trkpt lat="48.8244" lon="2.21272">
        <ele>115.8</ele>
        <time>2015-05-11T20:15:43.553Z</time>
      </trkpt>
      <trkpt lat="48.82443" lon="2.21282">
        <ele>114.9</ele>
        <time>2015-05-11T20:15:47.576Z</time>
      </trkpt>
      <trkpt lat="48.82443" lon="2.21285">
        <ele>114.7</ele>
        <time>2015-05-11T20:15:48.575Z</time>
      </trkpt>
      <trkpt lat="48.82447" lon="2.21297">
        <ele>112.5</ele>
        <time>2015-05-11T20:15:52.524Z</time>
      </trkpt>
      <trkpt lat="48.82447" lon="2.213">
        <ele>112.6</ele>
        <time>2015-05-11T20:15:53.503Z</time>
      </trkpt>
      <trkpt lat="48.82451" lon="2.2131">
        <ele>112.6</ele>
        <time>2015-05-11T20:15:57.505Z</time>
      </trkpt>
      <trkpt lat="48.82453" lon="2.21312">
        <ele>112.2</ele>
        <time>2015-05-11T20:15:58.578Z</time>
      </trkpt>
      <trkpt lat="48.82456" lon="2.21322">
        <ele>112.2</ele>
        <time>2015-05-11T20:16:01.605Z</time>
      </trkpt>
      <trkpt lat="48.82458" lon="2.21326">
        <ele>112</ele>
        <time>2015-05-11T20:16:02.468Z</time>
      </trkpt>
      <trkpt lat="48.82461" lon="2.21335">
        <ele>111.5</ele>
        <time>2015-05-11T20:16:04.529Z</time>
      </trkpt>
      <trkpt lat="48.82462" lon="2.21339">
        <ele>111.3</ele>
        <time>2015-05-11T20:16:05.543Z</time>
      </trkpt>
      <trkpt lat="48.82464" lon="2.21348">
        <ele>110.8</ele>
        <time>2015-05-11T20:16:07.566Z</time>
      </trkpt>
      <trkpt lat="48.82466" lon="2.21353">
        <ele>110.7</ele>
        <time>2015-05-11T20:16:08.477Z</time>
      </trkpt>
      <trkpt lat="48.82468" lon="2.21363">
        <ele>110.5</ele>
        <time>2015-05-11T20:16:10.484Z</time>
      </trkpt>
      <trkpt lat="48.82469" lon="2.21368">
        <ele>110.1</ele>
        <time>2015-05-11T20:16:11.492Z</time>
      </trkpt>
      <trkpt lat="48.82474" lon="2.21378">
        <ele>109.8</ele>
        <time>2015-05-11T20:16:13.561Z</time>
      </trkpt>
      <trkpt lat="48.82475" lon="2.21383">
        <ele>109.5</ele>
        <time>2015-05-11T20:16:14.569Z</time>
      </trkpt>
      <trkpt lat="48.82478" lon="2.21394">
        <ele>109.2</ele>
        <time>2015-05-11T20:16:16.474Z</time>
      </trkpt>
      <trkpt lat="48.8248" lon="2.214">
        <ele>108.9</ele>
        <time>2015-05-11T20:16:17.579Z</time>
      </trkpt>
      <trkpt lat="48.82483" lon="2.21405">
        <ele>108.8</ele>
        <time>2015-05-11T20:16:18.544Z</time>
      </trkpt>
      <trkpt lat="48.82486" lon="2.21411">
        <ele>108.8</ele>
        <time>2015-05-11T20:16:19.554Z</time>
      </trkpt>
      <trkpt lat="48.82488" lon="2.21418">
        <ele>108.8</ele>
        <time>2015-05-11T20:16:20.567Z</time>
      </trkpt>
      <trkpt lat="48.8249" lon="2.21426">
        <ele>108.7</ele>
        <time>2015-05-11T20:16:21.597Z</time>
      </trkpt>
      <trkpt lat="48.82491" lon="2.21433">
        <ele>108.2</ele>
        <time>2015-05-11T20:16:22.514Z</time>
      </trkpt>
      <trkpt lat="48.82493" lon="2.21441">
        <ele>108</ele>
        <time>2015-05-11T20:16:23.516Z</time>
      </trkpt>
      <trkpt lat="48.82495" lon="2.21449">
        <ele>107.7</ele>
        <time>2015-05-11T20:16:24.544Z</time>
      </trkpt>
      <trkpt lat="48.82497" lon="2.21458">
        <ele>107.8</ele>
        <time>2015-05-11T20:16:25.551Z</time>
      </trkpt>
      <trkpt lat="48.82498" lon="2.21465">
        <ele>108.1</ele>
        <time>2015-05-11T20:16:26.483Z</time>
      </trkpt>
      <trkpt lat="48.82501" lon="2.21473">
        <ele>108.1</ele>
        <time>2015-05-11T20:16:27.485Z</time>
      </trkpt>
      <trkpt lat="48.82502" lon="2.2148">
        <ele>108.3</ele>
        <time>2015-05-11T20:16:28.493Z</time>
      </trkpt>
      <trkpt lat="48.82504" lon="2.21486">
        <ele>108.4</ele>
        <time>2015-05-11T20:16:29.521Z</time>
      </trkpt>
      <trkpt lat="48.82507" lon="2.21492">
        <ele>108.2</ele>
        <time>2015-05-11T20:16:30.549Z</time>
      </trkpt>
      <trkpt lat="48.82509" lon="2.21498">
        <ele>108.4</ele>
        <time>2015-05-11T20:16:31.572Z</time>
      </trkpt>
      <trkpt lat="48.82511" lon="2.21505">
        <ele>108.1</ele>
        <time>2015-05-11T20:16:32.446Z</time>
      </trkpt>
      <trkpt lat="48.82513" lon="2.21512">
        <ele>107.8</ele>
        <time>2015-05-11T20:16:33.498Z</time>
      </trkpt>
      <trkpt lat="48.82516" lon="2.21519">
        <ele>107.2</ele>
        <time>2015-05-11T20:16:34.496Z</time>
      </trkpt>
      <trkpt lat="48.82518" lon="2.21525">
        <ele>106.9</ele>
        <time>2015-05-11T20:16:35.507Z</time>
      </trkpt>
      <trkpt lat="48.82521" lon="2.21536">
        <ele>106.6</ele>
        <time>2015-05-11T20:16:37.565Z</time>
      </trkpt>
      <trkpt lat="48.82523" lon="2.21541">
        <ele>106.9</ele>
        <time>2015-05-11T20:16:38.492Z</time>
      </trkpt>
      <trkpt lat="48.82527" lon="2.21552">
        <ele>106.5</ele>
        <time>2015-05-11T20:16:40.468Z</time>
      </trkpt>
      <trkpt lat="48.82528" lon="2.21559">
        <ele>106.1</ele>
        <time>2015-05-11T20:16:41.578Z</time>
      </trkpt>
      <trkpt lat="48.82529" lon="2.21567">
        <ele>105.6</ele>
        <time>2015-05-11T20:16:42.510Z</time>
      </trkpt>
      <trkpt lat="48.82531" lon="2.21574">
        <ele>105.3</ele>
        <time>2015-05-11T20:16:43.499Z</time>
      </trkpt>
      <trkpt lat="48.82532" lon="2.21581">
        <ele>105.1</ele>
        <time>2015-05-11T20:16:44.519Z</time>
      </trkpt>
      <trkpt lat="48.82534" lon="2.21589">
        <ele>105.1</ele>
        <time>2015-05-11T20:16:45.524Z</time>
      </trkpt>
      <trkpt lat="48.82536" lon="2.21596">
        <ele>104.9</ele>
        <time>2015-05-11T20:16:46.544Z</time>
      </trkpt>
      <trkpt lat="48.82539" lon="2.21602">
        <ele>104.5</ele>
        <time>2015-05-11T20:16:47.557Z</time>
      </trkpt>
      <trkpt lat="48.82542" lon="2.2161">
        <ele>104.1</ele>
        <time>2015-05-11T20:16:48.569Z</time>
      </trkpt>
      <trkpt lat="48.82544" lon="2.21617">
        <ele>104.2</ele>
        <time>2015-05-11T20:16:49.475Z</time>
      </trkpt>
      <trkpt lat="48.82547" lon="2.21624">
        <ele>104.3</ele>
        <time>2015-05-11T20:16:50.500Z</time>
      </trkpt>
      <trkpt lat="48.82549" lon="2.21631">
        <ele>104.1</ele>
        <time>2015-05-11T20:16:51.506Z</time>
      </trkpt>
      <trkpt lat="48.82552" lon="2.21638">
        <ele>103.9</ele>
        <time>2015-05-11T20:16:52.515Z</time>
      </trkpt>
      <trkpt lat="48.82554" lon="2.21645">
        <ele>103.7</ele>
        <time>2015-05-11T20:16:53.522Z</time>
      </trkpt>
      <trkpt lat="48.82556" lon="2.21652">
        <ele>103.5</ele>
        <time>2015-05-11T20:16:54.543Z</time>
      </trkpt>
      <trkpt lat="48.82557" lon="2.21659">
        <ele>103.4</ele>
        <time>2015-05-11T20:16:55.475Z</time>
      </trkpt>
      <trkpt lat="48.82559" lon="2.21666">
        <ele>103.3</ele>
        <time>2015-05-11T20:16:56.504Z</time>
      </trkpt>
      <trkpt lat="48.82561" lon="2.21673">
        <ele>103.5</ele>
        <time>2015-05-11T20:16:57.513Z</time>
      </trkpt>
      <trkpt lat="48.82562" lon="2.2168">
        <ele>103.2</ele>
        <time>2015-05-11T20:16:58.530Z</time>
      </trkpt>
      <trkpt lat="48.82565" lon="2.21687">
        <ele>103.1</ele>
        <time>2015-05-11T20:16:59.540Z</time>
      </trkpt>
      <trkpt lat="48.82567" lon="2.21693">
        <ele>103</ele>
        <time>2015-05-11T20:17:00.559Z</time>
      </trkpt>
      <trkpt lat="48.82569" lon="2.21701">
        <ele>103.1</ele>
        <time>2015-05-11T20:17:01.472Z</time>
      </trkpt>
      <trkpt lat="48.82572" lon="2.21708">
        <ele>102.9</ele>
        <time>2015-05-11T20:17:02.466Z</time>
      </trkpt>
      <trkpt lat="48.82574" lon="2.21715">
        <ele>102.9</ele>
        <time>2015-05-11T20:17:03.496Z</time>
      </trkpt>
      <trkpt lat="48.82576" lon="2.21721">
        <ele>103</ele>
        <time>2015-05-11T20:17:04.508Z</time>
      </trkpt>
      <trkpt lat="48.82579" lon="2.21727">
        <ele>103.2</ele>
        <time>2015-05-11T20:17:05.516Z</time>
      </trkpt>
      <trkpt lat="48.82582" lon="2.21734">
        <ele>103.3</ele>
        <time>2015-05-11T20:17:06.544Z</time>
      </trkpt>
      <trkpt lat="48.82585" lon="2.2174">
        <ele>103.5</ele>
        <time>2015-05-11T20:17:07.547Z</time>
      </trkpt>
      <trkpt lat="48.82587" lon="2.21747">
        <ele>103.5</ele>
        <time>2015-05-11T20:17:08.551Z</time>
      </trkpt>
      <trkpt lat="48.82588" lon="2.21753">
        <ele>103</ele>
        <time>2015-05-11T20:17:09.561Z</time>
      </trkpt>
      <trkpt lat="48.8259" lon="2.21759">
        <ele>102.9</ele>
        <time>2015-05-11T20:17:10.466Z</time>
      </trkpt>
      <trkpt lat="48.82591" lon="2.21766">
        <ele>102.7</ele>
        <time>2015-05-11T20:17:11.466Z</time>
      </trkpt>
      <trkpt lat="48.82593" lon="2.21772">
        <ele>102.4</ele>
        <time>2015-05-11T20:17:12.505Z</time>
      </trkpt>
      <trkpt lat="48.82594" lon="2.21779">
        <ele>102</ele>
        <time>2015-05-11T20:17:13.497Z</time>
      </trkpt>
      <trkpt lat="48.82596" lon="2.21785">
        <ele>101.8</ele>
        <time>2015-05-11T20:17:14.506Z</time>
      </trkpt>
      <trkpt lat="48.82598" lon="2.21791">
        <ele>101.5</ele>
        <time>2015-05-11T20:17:15.510Z</time>
      </trkpt>
      <trkpt lat="48.826" lon="2.21798">
        <ele>101.2</ele>
        <time>2015-05-11T20:17:16.522Z</time>
      </trkpt>
      <trkpt lat="48.82603" lon="2.21805">
        <ele>101.1</ele>
        <time>2015-05-11T20:17:17.533Z</time>
      </trkpt>
      <trkpt lat="48.82606" lon="2.21811">
        <ele>100.7</ele>
        <time>2015-05-11T20:17:18.559Z</time>
      </trkpt>
      <trkpt lat="48.82609" lon="2.21818">
        <ele>100.2</ele>
        <time>2015-05-11T20:17:19.472Z</time>
      </trkpt>
      <trkpt lat="48.82612" lon="2.21825">
        <ele>99.6</ele>
        <time>2015-05-11T20:17:20.466Z</time>
      </trkpt>
      <trkpt lat="48.82614" lon="2.21832">
        <ele>99.3</ele>
        <time>2015-05-11T20:17:21.468Z</time>
      </trkpt>
      <trkpt lat="48.82619" lon="2.21839">
        <ele>99.7</ele>
        <time>2015-05-11T20:17:22.477Z</time>
      </trkpt>
      <trkpt lat="48.82621" lon="2.21846">
        <ele>99.7</ele>
        <time>2015-05-11T20:17:23.481Z</time>
      </trkpt>
      <trkpt lat="48.82624" lon="2.21853">
        <ele>99.4</ele>
        <time>2015-05-11T20:17:24.511Z</time>
      </trkpt>
      <trkpt lat="48.82628" lon="2.21861">
        <ele>99.6</ele>
        <time>2015-05-11T20:17:25.530Z</time>
      </trkpt>
      <trkpt lat="48.8263" lon="2.21868">
        <ele>99.3</ele>
        <time>2015-05-11T20:17:26.573Z</time>
      </trkpt>
      <trkpt lat="48.82634" lon="2.21875">
        <ele>99.3</ele>
        <time>2015-05-11T20:17:27.466Z</time>
      </trkpt>
      <trkpt lat="48.82636" lon="2.21883">
        <ele>99.2</ele>
        <time>2015-05-11T20:17:28.485Z</time>
      </trkpt>
      <trkpt lat="48.82638" lon="2.2189">
        <ele>99.1</ele>
        <time>2015-05-11T20:17:29.500Z</time>
      </trkpt>
      <trkpt lat="48.82641" lon="2.21897">
        <ele>98.8</ele>
        <time>2015-05-11T20:17:30.529Z</time>
      </trkpt>
      <trkpt lat="48.82643" lon="2.21904">
        <ele>98.6</ele>
        <time>2015-05-11T20:17:31.544Z</time>
      </trkpt>
      <trkpt lat="48.82645" lon="2.21912">
        <ele>98.5</ele>
        <time>2015-05-11T20:17:32.555Z</time>
      </trkpt>
      <trkpt lat="48.82648" lon="2.21919">
        <ele>98.5</ele>
        <time>2015-05-11T20:17:33.566Z</time>
      </trkpt>
      <trkpt lat="48.8265" lon="2.21926">
        <ele>98.2</ele>
        <time>2015-05-11T20:17:34.477Z</time>
      </trkpt>
      <trkpt lat="48.82652" lon="2.21934">
        <ele>98.2</ele>
        <time>2015-05-11T20:17:35.474Z</time>
      </trkpt>
      <trkpt lat="48.82655" lon="2.21942">
        <ele>97.9</ele>
        <time>2015-05-11T20:17:36.532Z</time>
      </trkpt>
      <trkpt lat="48.82661" lon="2.21948">
        <ele>98.2</ele>
        <time>2015-05-11T20:17:37.527Z</time>
      </trkpt>
      <trkpt lat="48.82666" lon="2.21956">
        <ele>98.4</ele>
        <time>2015-05-11T20:17:38.545Z</time>
      </trkpt>
      <trkpt lat="48.82672" lon="2.21963">
        <ele>98.5</ele>
        <time>2015-05-11T20:17:39.550Z</time>
      </trkpt>
      <trkpt lat="48.82674" lon="2.21972">
        <ele>98.6</ele>
        <time>2015-05-11T20:17:40.559Z</time>
      </trkpt>
      <trkpt lat="48.82676" lon="2.21981">
        <ele>98.8</ele>
        <time>2015-05-11T20:17:41.478Z</time>
      </trkpt>
      <trkpt lat="48.82678" lon="2.21989">
        <ele>99</ele>
        <time>2015-05-11T20:17:42.581Z</time>
      </trkpt>
      <trkpt lat="48.82681" lon="2.21997">
        <ele>99</ele>
        <time>2015-05-11T20:17:43.483Z</time>
      </trkpt>
      <trkpt lat="48.82685" lon="2.22006">
        <ele>98.9</ele>
        <time>2015-05-11T20:17:44.485Z</time>
      </trkpt>
      <trkpt lat="48.82687" lon="2.22015">
        <ele>97.9</ele>
        <time>2015-05-11T20:17:45.499Z</time>
      </trkpt>
      <trkpt lat="48.8269" lon="2.22024">
        <ele>97.4</ele>
        <time>2015-05-11T20:17:46.524Z</time>
      </trkpt>
      <trkpt lat="48.82692" lon="2.22033">
        <ele>97.2</ele>
        <time>2015-05-11T20:17:47.544Z</time>
      </trkpt>
      <trkpt lat="48.82694" lon="2.22042">
        <ele>96.7</ele>
        <time>2015-05-11T20:17:48.558Z</time>
      </trkpt>
      <trkpt lat="48.82695" lon="2.22051">
        <ele>96.5</ele>
        <time>2015-05-11T20:17:49.566Z</time>
      </trkpt>
      <trkpt lat="48.82695" lon="2.22061">
        <ele>96.3</ele>
        <time>2015-05-11T20:17:50.479Z</time>
      </trkpt>
      <trkpt lat="48.82696" lon="2.22071">
        <ele>96.2</ele>
        <time>2015-05-11T20:17:51.477Z</time>
      </trkpt>
      <trkpt lat="48.82697" lon="2.2208">
        <ele>95.8</ele>
        <time>2015-05-11T20:17:52.486Z</time>
      </trkpt>
      <trkpt lat="48.827" lon="2.22089">
        <ele>95</ele>
        <time>2015-05-11T20:17:53.510Z</time>
      </trkpt>
      <trkpt lat="48.82701" lon="2.22099">
        <ele>94.5</ele>
        <time>2015-05-11T20:17:54.516Z</time>
      </trkpt>
      <trkpt lat="48.82704" lon="2.22108">
        <ele>94.1</ele>
        <time>2015-05-11T20:17:55.515Z</time>
      </trkpt>
      <trkpt lat="48.82706" lon="2.22118">
        <ele>93.9</ele>
        <time>2015-05-11T20:17:56.530Z</time>
      </trkpt>
      <trkpt lat="48.82708" lon="2.22128">
        <ele>93.2</ele>
        <time>2015-05-11T20:17:57.548Z</time>
      </trkpt>
      <trkpt lat="48.82709" lon="2.22138">
        <ele>92.6</ele>
        <time>2015-05-11T20:17:58.548Z</time>
      </trkpt>
      <trkpt lat="48.8271" lon="2.22148">
        <ele>91.9</ele>
        <time>2015-05-11T20:17:59.571Z</time>
      </trkpt>
      <trkpt lat="48.82712" lon="2.22158">
        <ele>91.6</ele>
        <time>2015-05-11T20:18:00.486Z</time>
      </trkpt>
      <trkpt lat="48.82713" lon="2.22168">
        <ele>91.5</ele>
        <time>2015-05-11T20:18:01.487Z</time>
      </trkpt>
      <trkpt lat="48.82713" lon="2.22178">
        <ele>91.1</ele>
        <time>2015-05-11T20:18:02.501Z</time>
      </trkpt>
      <trkpt lat="48.82715" lon="2.22188">
        <ele>91.2</ele>
        <time>2015-05-11T20:18:03.505Z</time>
      </trkpt>
      <trkpt lat="48.82718" lon="2.22198">
        <ele>91.4</ele>
        <time>2015-05-11T20:18:04.513Z</time>
      </trkpt>
      <trkpt lat="48.82719" lon="2.22208">
        <ele>91.5</ele>
        <time>2015-05-11T20:18:05.530Z</time>
      </trkpt>
      <trkpt lat="48.82721" lon="2.22218">
        <ele>91.7</ele>
        <time>2015-05-11T20:18:06.534Z</time>
      </trkpt>
      <trkpt lat="48.82723" lon="2.22227">
        <ele>91.6</ele>
        <time>2015-05-11T20:18:07.549Z</time>
      </trkpt>
      <trkpt lat="48.82725" lon="2.22237">
        <ele>91.7</ele>
        <time>2015-05-11T20:18:08.451Z</time>
      </trkpt>
      <trkpt lat="48.82728" lon="2.22246">
        <ele>91.8</ele>
        <time>2015-05-11T20:18:09.481Z</time>
      </trkpt>
      <trkpt lat="48.82729" lon="2.22256">
        <ele>91.5</ele>
        <time>2015-05-11T20:18:10.481Z</time>
      </trkpt>
      <trkpt lat="48.82731" lon="2.22265">
        <ele>91.4</ele>
        <time>2015-05-11T20:18:11.490Z</time>
      </trkpt>
      <trkpt lat="48.82733" lon="2.22274">
        <ele>91</ele>
        <time>2015-05-11T20:18:12.514Z</time>
      </trkpt>
      <trkpt lat="48.82734" lon="2.22282">
        <ele>90.9</ele>
        <time>2015-05-11T20:18:13.516Z</time>
      </trkpt>
      <trkpt lat="48.82736" lon="2.22289">
        <ele>90.3</ele>
        <time>2015-05-11T20:18:14.534Z</time>
      </trkpt>
      <trkpt lat="48.82738" lon="2.22296">
        <ele>90.1</ele>
        <time>2015-05-11T20:18:15.551Z</time>
      </trkpt>
      <trkpt lat="48.82742" lon="2.22308">
        <ele>90.2</ele>
        <time>2015-05-11T20:18:17.502Z</time>
      </trkpt>
      <trkpt lat="48.82743" lon="2.22313">
        <ele>89.9</ele>
        <time>2015-05-11T20:18:18.560Z</time>
      </trkpt>
      <trkpt lat="48.82747" lon="2.22322">
        <ele>89.8</ele>
        <time>2015-05-11T20:18:20.473Z</time>
      </trkpt>
      <trkpt lat="48.82749" lon="2.22326">
        <ele>89.7</ele>
        <time>2015-05-11T20:18:21.509Z</time>
      </trkpt>
      <trkpt lat="48.82753" lon="2.22337">
        <ele>88.4</ele>
        <time>2015-05-11T20:18:25.518Z</time>
      </trkpt>
      <trkpt lat="48.82752" lon="2.2234">
        <ele>88.2</ele>
        <time>2015-05-11T20:18:26.530Z</time>
      </trkpt>
      <trkpt lat="48.8275" lon="2.22352">
        <ele>87.1</ele>
        <time>2015-05-11T20:18:49.517Z</time>
      </trkpt>
      <trkpt lat="48.82751" lon="2.22363">
        <ele>86.1</ele>
        <time>2015-05-11T20:18:50.525Z</time>
      </trkpt>
      <trkpt lat="48.82756" lon="2.22374">
        <ele>85.9</ele>
        <time>2015-05-11T20:18:54.557Z</time>
      </trkpt>
      <trkpt lat="48.82757" lon="2.22377">
        <ele>85.7</ele>
        <time>2015-05-11T20:18:55.566Z</time>
      </trkpt>
      <trkpt lat="48.8276" lon="2.22387">
        <ele>86</ele>
        <time>2015-05-11T20:18:58.601Z</time>
      </trkpt>
      <trkpt lat="48.82761" lon="2.22391">
        <ele>86</ele>
        <time>2015-05-11T20:18:59.510Z</time>
      </trkpt>
      <trkpt lat="48.82764" lon="2.22403">
        <ele>86</ele>
        <time>2015-05-11T20:19:02.578Z</time>
      </trkpt>
      <trkpt lat="48.82765" lon="2.22407">
        <ele>86</ele>
        <time>2015-05-11T20:19:03.515Z</time>
      </trkpt>
      <trkpt lat="48.82767" lon="2.22414">
        <ele>86</ele>
        <time>2015-05-11T20:19:05.497Z</time>
      </trkpt>
      <trkpt lat="48.82769" lon="2.22419">
        <ele>86.1</ele>
        <time>2015-05-11T20:19:06.583Z</time>
      </trkpt>
      <trkpt lat="48.82773" lon="2.2243">
        <ele>86.3</ele>
        <time>2015-05-11T20:19:09.498Z</time>
      </trkpt>
      <trkpt lat="48.82774" lon="2.22433">
        <ele>86.1</ele>
        <time>2015-05-11T20:19:10.502Z</time>
      </trkpt>
      <trkpt lat="48.82777" lon="2.22445">
        <ele>85.1</ele>
        <time>2015-05-11T20:19:13.565Z</time>
      </trkpt>
      <trkpt lat="48.82779" lon="2.22449">
        <ele>85.3</ele>
        <time>2015-05-11T20:19:14.582Z</time>
      </trkpt>
      <trkpt lat="48.82782" lon="2.22457">
        <ele>85.1</ele>
        <time>2015-05-11T20:19:16.648Z</time>
      </trkpt>
      <trkpt lat="48.82783" lon="2.22462">
        <ele>85</ele>
        <time>2015-05-11T20:19:17.530Z</time>
      </trkpt>
      <trkpt lat="48.82788" lon="2.2247">
        <ele>84.7</ele>
        <time>2015-05-11T20:19:19.513Z</time>
      </trkpt>
      <trkpt lat="48.82791" lon="2.22473">
        <ele>84.7</ele>
        <time>2015-05-11T20:19:20.523Z</time>
      </trkpt>
      <trkpt lat="48.82796" lon="2.22483">
        <ele>84.8</ele>
        <time>2015-05-11T20:19:24.530Z</time>
      </trkpt>
      <trkpt lat="48.82797" lon="2.22484">
        <ele>84.9</ele>
        <time>2015-05-11T20:19:25.741Z</time>
      </trkpt>
      <trkpt lat="48.82797" lon="2.22484">
        <ele>84.9</ele>
        <time>2015-05-11T20:21:18.529Z</time>
      </trkpt>
      <trkpt lat="48.82803" lon="2.22502">
        <ele>84.7</ele>
        <time>2015-05-11T20:21:19.542Z</time>
      </trkpt>
      <trkpt lat="48.82806" lon="2.22511">
        <ele>85.1</ele>
        <time>2015-05-11T20:21:22.943Z</time>
      </trkpt>
      <trkpt lat="48.82807" lon="2.22515">
        <ele>85.4</ele>
        <time>2015-05-11T20:21:23.523Z</time>
      </trkpt>
      <trkpt lat="48.8281" lon="2.22527">
        <ele>85.6</ele>
        <time>2015-05-11T20:21:26.483Z</time>
      </trkpt>
      <trkpt lat="48.82811" lon="2.22531">
        <ele>85.5</ele>
        <time>2015-05-11T20:21:27.694Z</time>
      </trkpt>
      <trkpt lat="48.82815" lon="2.22541">
        <ele>85</ele>
        <time>2015-05-11T20:21:30.520Z</time>
      </trkpt>
      <trkpt lat="48.82817" lon="2.22545">
        <ele>84.7</ele>
        <time>2015-05-11T20:21:31.553Z</time>
      </trkpt>
      <trkpt lat="48.82819" lon="2.22555">
        <ele>84.4</ele>
        <time>2015-05-11T20:21:33.508Z</time>
      </trkpt>
      <trkpt lat="48.8282" lon="2.2256">
        <ele>84.5</ele>
        <time>2015-05-11T20:21:34.518Z</time>
      </trkpt>
      <trkpt lat="48.82823" lon="2.22569">
        <ele>84.2</ele>
        <time>2015-05-11T20:21:36.534Z</time>
      </trkpt>
      <trkpt lat="48.82824" lon="2.22574">
        <ele>84.1</ele>
        <time>2015-05-11T20:21:37.485Z</time>
      </trkpt>
      <trkpt lat="48.82827" lon="2.22582">
        <ele>84.2</ele>
        <time>2015-05-11T20:21:39.567Z</time>
      </trkpt>
      <trkpt lat="48.82828" lon="2.22586">
        <ele>84</ele>
        <time>2015-05-11T20:21:40.501Z</time>
      </trkpt>
      <trkpt lat="48.82832" lon="2.22597">
        <ele>83.7</ele>
        <time>2015-05-11T20:21:42.627Z</time>
      </trkpt>
      <trkpt lat="48.82834" lon="2.22602">
        <ele>83.7</ele>
        <time>2015-05-11T20:21:43.595Z</time>
      </trkpt>
      <trkpt lat="48.82838" lon="2.22611">
        <ele>83.6</ele>
        <time>2015-05-11T20:21:45.581Z</time>
      </trkpt>
      <trkpt lat="48.82839" lon="2.22617">
        <ele>83.7</ele>
        <time>2015-05-11T20:21:46.489Z</time>
      </trkpt>
      <trkpt lat="48.82842" lon="2.22626">
        <ele>84.4</ele>
        <time>2015-05-11T20:21:48.553Z</time>
      </trkpt>
      <trkpt lat="48.82844" lon="2.22632">
        <ele>84.7</ele>
        <time>2015-05-11T20:21:49.576Z</time>
      </trkpt>
      <trkpt lat="48.82847" lon="2.22642">
        <ele>84.5</ele>
        <time>2015-05-11T20:21:51.514Z</time>
      </trkpt>
      <trkpt lat="48.82848" lon="2.22647">
        <ele>84.6</ele>
        <time>2015-05-11T20:21:52.513Z</time>
      </trkpt>
      <trkpt lat="48.82852" lon="2.22658">
        <ele>85</ele>
        <time>2015-05-11T20:21:54.578Z</time>
      </trkpt>
      <trkpt lat="48.82854" lon="2.22663">
        <ele>84.7</ele>
        <time>2015-05-11T20:21:55.591Z</time>
      </trkpt>
      <trkpt lat="48.82857" lon="2.22673">
        <ele>85</ele>
        <time>2015-05-11T20:21:57.953Z</time>
      </trkpt>
      <trkpt lat="48.82859" lon="2.22678">
        <ele>85.2</ele>
        <time>2015-05-11T20:21:58.541Z</time>
      </trkpt>
      <trkpt lat="48.82862" lon="2.22689">
        <ele>85.4</ele>
        <time>2015-05-11T20:22:00.595Z</time>
      </trkpt>
      <trkpt lat="48.82864" lon="2.22694">
        <ele>85.5</ele>
        <time>2015-05-11T20:22:01.509Z</time>
      </trkpt>
      <trkpt lat="48.82867" lon="2.22704">
        <ele>84.9</ele>
        <time>2015-05-11T20:22:03.579Z</time>
      </trkpt>
      <trkpt lat="48.82869" lon="2.22709">
        <ele>84.6</ele>
        <time>2015-05-11T20:22:04.593Z</time>
      </trkpt>
      <trkpt lat="48.82873" lon="2.2272">
        <ele>83.9</ele>
        <time>2015-05-11T20:22:06.729Z</time>
      </trkpt>
      <trkpt lat="48.82874" lon="2.22725">
        <ele>83.7</ele>
        <time>2015-05-11T20:22:07.546Z</time>
      </trkpt>
      <trkpt lat="48.82876" lon="2.22736">
        <ele>83</ele>
        <time>2015-05-11T20:22:09.546Z</time>
      </trkpt>
      <trkpt lat="48.82878" lon="2.22741">
        <ele>82.8</ele>
        <time>2015-05-11T20:22:10.556Z</time>
      </trkpt>
      <trkpt lat="48.82882" lon="2.22751">
        <ele>82.8</ele>
        <time>2015-05-11T20:22:13.223Z</time>
      </trkpt>
      <trkpt lat="48.82884" lon="2.22756">
        <ele>83</ele>
        <time>2015-05-11T20:22:13.511Z</time>
      </trkpt>
      <trkpt lat="48.82887" lon="2.22767">
        <ele>82.8</ele>
        <time>2015-05-11T20:22:15.543Z</time>
      </trkpt>
      <trkpt lat="48.82888" lon="2.22772">
        <ele>82.8</ele>
        <time>2015-05-11T20:22:16.556Z</time>
      </trkpt>
      <trkpt lat="48.8289" lon="2.22783">
        <ele>83.1</ele>
        <time>2015-05-11T20:22:18.596Z</time>
      </trkpt>
      <trkpt lat="48.82892" lon="2.22788">
        <ele>83.2</ele>
        <time>2015-05-11T20:22:19.610Z</time>
      </trkpt>
      <trkpt lat="48.82895" lon="2.228">
        <ele>83.5</ele>
        <time>2015-05-11T20:22:21.555Z</time>
      </trkpt>
      <trkpt lat="48.82897" lon="2.22805">
        <ele>83.6</ele>
        <time>2015-05-11T20:22:22.568Z</time>
      </trkpt>
      <trkpt lat="48.829" lon="2.22815">
        <ele>83.3</ele>
        <time>2015-05-11T20:22:24.547Z</time>
      </trkpt>
      <trkpt lat="48.82902" lon="2.22819">
        <ele>83.3</ele>
        <time>2015-05-11T20:22:25.576Z</time>
      </trkpt>
      <trkpt lat="48.82905" lon="2.22828">
        <ele>83</ele>
        <time>2015-05-11T20:22:27.516Z</time>
      </trkpt>
      <trkpt lat="48.82906" lon="2.22832">
        <ele>82.8</ele>
        <time>2015-05-11T20:22:28.486Z</time>
      </trkpt>
      <trkpt lat="48.82911" lon="2.22842">
        <ele>82.2</ele>
        <time>2015-05-11T20:22:43.533Z</time>
      </trkpt>
      <trkpt lat="48.82918" lon="2.22851">
        <ele>83.4</ele>
        <time>2015-05-11T20:22:44.588Z</time>
      </trkpt>
      <trkpt lat="48.82923" lon="2.2286">
        <ele>83.3</ele>
        <time>2015-05-11T20:22:48.578Z</time>
      </trkpt>
      <trkpt lat="48.82925" lon="2.22863">
        <ele>83.5</ele>
        <time>2015-05-11T20:22:49.566Z</time>
      </trkpt>
      <trkpt lat="48.82927" lon="2.22876">
        <ele>83.6</ele>
        <time>2015-05-11T20:22:53.546Z</time>
      </trkpt>
      <trkpt lat="48.82927" lon="2.22878">
        <ele>83.7</ele>
        <time>2015-05-11T20:22:54.621Z</time>
      </trkpt>
      <trkpt lat="48.82929" lon="2.22882">
        <ele>83.5</ele>
        <time>2015-05-11T20:23:15.500Z</time>
      </trkpt>
      <trkpt lat="48.8294" lon="2.22906">
        <ele>83.4</ele>
        <time>2015-05-11T20:23:16.732Z</time>
      </trkpt>
      <trkpt lat="48.82933" lon="2.22908">
        <ele>83.3</ele>
        <time>2015-05-11T20:23:20.569Z</time>
      </trkpt>
      <trkpt lat="48.82931" lon="2.22907">
        <ele>83.2</ele>
        <time>2015-05-11T20:23:21.576Z</time>
      </trkpt>
      <trkpt lat="48.82928" lon="2.22918">
        <ele>83</ele>
        <time>2015-05-11T20:23:27.994Z</time>
      </trkpt>
      <trkpt lat="48.82929" lon="2.22921">
        <ele>82.7</ele>
        <time>2015-05-11T20:23:28.497Z</time>
      </trkpt>
      <trkpt lat="48.8293" lon="2.22934">
        <ele>81.9</ele>
        <time>2015-05-11T20:23:32.447Z</time>
      </trkpt>
      <trkpt lat="48.8293" lon="2.22939">
        <ele>82</ele>
        <time>2015-05-11T20:23:33.485Z</time>
      </trkpt>
      <trkpt lat="48.82928" lon="2.22951">
        <ele>82.1</ele>
        <time>2015-05-11T20:23:36.545Z</time>
      </trkpt>
      <trkpt lat="48.82928" lon="2.22956">
        <ele>81.9</ele>
        <time>2015-05-11T20:23:37.555Z</time>
      </trkpt>
      <trkpt lat="48.82929" lon="2.22968">
        <ele>81.7</ele>
        <time>2015-05-11T20:23:40.487Z</time>
      </trkpt>
      <trkpt lat="48.8293" lon="2.22972">
        <ele>81.8</ele>
        <time>2015-05-11T20:23:41.492Z</time>
      </trkpt>
      <trkpt lat="48.82933" lon="2.22981">
        <ele>81.8</ele>
        <time>2015-05-11T20:23:43.532Z</time>
      </trkpt>
      <trkpt lat="48.82934" lon="2.22985">
        <ele>81.6</ele>
        <time>2015-05-11T20:23:44.552Z</time>
      </trkpt>
      <trkpt lat="48.82936" lon="2.22994">
        <ele>81.1</ele>
        <time>2015-05-11T20:23:46.502Z</time>
      </trkpt>
      <trkpt lat="48.82938" lon="2.22998">
        <ele>81.3</ele>
        <time>2015-05-11T20:23:47.508Z</time>
      </trkpt>
      <trkpt lat="48.82943" lon="2.23008">
        <ele>81.9</ele>
        <time>2015-05-11T20:23:51.463Z</time>
      </trkpt>
      <trkpt lat="48.82944" lon="2.23012">
        <ele>82.2</ele>
        <time>2015-05-11T20:23:52.564Z</time>
      </trkpt>
      <trkpt lat="48.82947" lon="2.23024">
        <ele>82.2</ele>
        <time>2015-05-11T20:23:56.482Z</time>
      </trkpt>
      <trkpt lat="48.82948" lon="2.23027">
        <ele>81.9</ele>
        <time>2015-05-11T20:23:57.514Z</time>
      </trkpt>
      <trkpt lat="48.82951" lon="2.23039">
        <ele>81.6</ele>
        <time>2015-05-11T20:24:01.566Z</time>
      </trkpt>
      <trkpt lat="48.82951" lon="2.23042">
        <ele>81.5</ele>
        <time>2015-05-11T20:24:02.582Z</time>
      </trkpt>
      <trkpt lat="48.82953" lon="2.23053">
        <ele>81.5</ele>
        <time>2015-05-11T20:24:06.542Z</time>
      </trkpt>
      <trkpt lat="48.82954" lon="2.23056">
        <ele>81.4</ele>
        <time>2015-05-11T20:24:07.564Z</time>
      </trkpt>
      <trkpt lat="48.82958" lon="2.23067">
        <ele>82.2</ele>
        <time>2015-05-11T20:24:11.524Z</time>
      </trkpt>
      <trkpt lat="48.82959" lon="2.2307">
        <ele>82.4</ele>
        <time>2015-05-11T20:24:12.550Z</time>
      </trkpt>
      <trkpt lat="48.82961" lon="2.2308">
        <ele>81.8</ele>
        <time>2015-05-11T20:24:15.569Z</time>
      </trkpt>
      <trkpt lat="48.82962" lon="2.23083">
        <ele>81.9</ele>
        <time>2015-05-11T20:24:16.484Z</time>
      </trkpt>
      <trkpt lat="48.82966" lon="2.23092">
        <ele>82.2</ele>
        <time>2015-05-11T20:24:19.506Z</time>
      </trkpt>
      <trkpt lat="48.82967" lon="2.23096">
        <ele>82.5</ele>
        <time>2015-05-11T20:24:20.518Z</time>
      </trkpt>
      <trkpt lat="48.8297" lon="2.23107">
        <ele>83.3</ele>
        <time>2015-05-11T20:24:24.510Z</time>
      </trkpt>
      <trkpt lat="48.82972" lon="2.23109">
        <ele>83.5</ele>
        <time>2015-05-11T20:24:25.508Z</time>
      </trkpt>
      <trkpt lat="48.82975" lon="2.23119">
        <ele>84.2</ele>
        <time>2015-05-11T20:24:28.518Z</time>
      </trkpt>
      <trkpt lat="48.82976" lon="2.23122">
        <ele>84.4</ele>
        <time>2015-05-11T20:24:29.531Z</time>
      </trkpt>
      <trkpt lat="48.82979" lon="2.23134">
        <ele>86</ele>
        <time>2015-05-11T20:24:33.503Z</time>
      </trkpt>
      <trkpt lat="48.8298" lon="2.23137">
        <ele>86.5</ele>
        <time>2015-05-11T20:24:34.516Z</time>
      </trkpt>
      <trkpt lat="48.82981" lon="2.2315">
        <ele>86.9</ele>
        <time>2015-05-11T20:24:37.513Z</time>
      </trkpt>
      <trkpt lat="48.82982" lon="2.23155">
        <ele>86.9</ele>
        <time>2015-05-11T20:24:38.519Z</time>
      </trkpt>
      <trkpt lat="48.82983" lon="2.23165">
        <ele>86.6</ele>
        <time>2015-05-11T20:24:40.537Z</time>
      </trkpt>
      <trkpt lat="48.82984" lon="2.23171">
        <ele>86.5</ele>
        <time>2015-05-11T20:24:41.509Z</time>
      </trkpt>
      <trkpt lat="48.82987" lon="2.23182">
        <ele>86.3</ele>
        <time>2015-05-11T20:24:43.504Z</time>
      </trkpt>
      <trkpt lat="48.82989" lon="2.23187">
        <ele>85.9</ele>
        <time>2015-05-11T20:24:44.512Z</time>
      </trkpt>
      <trkpt lat="48.82993" lon="2.23198">
        <ele>86.4</ele>
        <time>2015-05-11T20:24:46.543Z</time>
      </trkpt>
      <trkpt lat="48.82995" lon="2.23204">
        <ele>86.5</ele>
        <time>2015-05-11T20:24:47.564Z</time>
      </trkpt>
      <trkpt lat="48.82999" lon="2.23216">
        <ele>86.7</ele>
        <time>2015-05-11T20:24:49.517Z</time>
      </trkpt>
      <trkpt lat="48.83" lon="2.23221">
        <ele>86.8</ele>
        <time>2015-05-11T20:24:50.487Z</time>
      </trkpt>
      <trkpt lat="48.83003" lon="2.23232">
        <ele>87.2</ele>
        <time>2015-05-11T20:24:52.511Z</time>
      </trkpt>
      <trkpt lat="48.83005" lon="2.23237">
        <ele>87.7</ele>
        <time>2015-05-11T20:24:53.528Z</time>
      </trkpt>
      <trkpt lat="48.83007" lon="2.23242">
        <ele>87.7</ele>
        <time>2015-05-11T20:24:54.541Z</time>
      </trkpt>
      <trkpt lat="48.83012" lon="2.23246">
        <ele>88.4</ele>
        <time>2015-05-11T20:24:55.567Z</time>
      </trkpt>
      <trkpt lat="48.83016" lon="2.23252">
        <ele>88.9</ele>
        <time>2015-05-11T20:24:56.490Z</time>
      </trkpt>
      <trkpt lat="48.83021" lon="2.23258">
        <ele>89.3</ele>
        <time>2015-05-11T20:24:57.493Z</time>
      </trkpt>
      <trkpt lat="48.83024" lon="2.23265">
        <ele>89.6</ele>
        <time>2015-05-11T20:24:58.505Z</time>
      </trkpt>
      <trkpt lat="48.83027" lon="2.23272">
        <ele>89.7</ele>
        <time>2015-05-11T20:24:59.543Z</time>
      </trkpt>
      <trkpt lat="48.8303" lon="2.23279">
        <ele>89.8</ele>
        <time>2015-05-11T20:25:00.518Z</time>
      </trkpt>
      <trkpt lat="48.83033" lon="2.23287">
        <ele>90</ele>
        <time>2015-05-11T20:25:01.544Z</time>
      </trkpt>
      <trkpt lat="48.83035" lon="2.23293">
        <ele>90.2</ele>
        <time>2015-05-11T20:25:02.554Z</time>
      </trkpt>
      <trkpt lat="48.83037" lon="2.233">
        <ele>90.5</ele>
        <time>2015-05-11T20:25:03.562Z</time>
      </trkpt>
      <trkpt lat="48.83039" lon="2.23307">
        <ele>90.9</ele>
        <time>2015-05-11T20:25:04.614Z</time>
      </trkpt>
      <trkpt lat="48.8304" lon="2.23313">
        <ele>91.1</ele>
        <time>2015-05-11T20:25:05.488Z</time>
      </trkpt>
      <trkpt lat="48.83042" lon="2.2332">
        <ele>91.4</ele>
        <time>2015-05-11T20:25:06.526Z</time>
      </trkpt>
      <trkpt lat="48.83044" lon="2.23327">
        <ele>91.4</ele>
        <time>2015-05-11T20:25:07.532Z</time>
      </trkpt>
      <trkpt lat="48.83046" lon="2.23334">
        <ele>90.9</ele>
        <time>2015-05-11T20:25:08.545Z</time>
      </trkpt>
      <trkpt lat="48.83048" lon="2.2334">
        <ele>90.9</ele>
        <time>2015-05-11T20:25:09.555Z</time>
      </trkpt>
      <trkpt lat="48.8305" lon="2.23347">
        <ele>91</ele>
        <time>2015-05-11T20:25:10.562Z</time>
      </trkpt>
      <trkpt lat="48.83053" lon="2.23353">
        <ele>91.1</ele>
        <time>2015-05-11T20:25:11.488Z</time>
      </trkpt>
      <trkpt lat="48.83057" lon="2.2336">
        <ele>91.3</ele>
        <time>2015-05-11T20:25:12.521Z</time>
      </trkpt>
      <trkpt lat="48.8306" lon="2.23366">
        <ele>91.4</ele>
        <time>2015-05-11T20:25:13.537Z</time>
      </trkpt>
      <trkpt lat="48.83062" lon="2.23379">
        <ele>91.6</ele>
        <time>2015-05-11T20:25:15.464Z</time>
      </trkpt>
      <trkpt lat="48.83064" lon="2.23385">
        <ele>92</ele>
        <time>2015-05-11T20:25:16.495Z</time>
      </trkpt>
      <trkpt lat="48.83067" lon="2.23391">
        <ele>92.3</ele>
        <time>2015-05-11T20:25:17.514Z</time>
      </trkpt>
      <trkpt lat="48.83067" lon="2.23398">
        <ele>92.4</ele>
        <time>2015-05-11T20:25:18.592Z</time>
      </trkpt>
      <trkpt lat="48.8307" lon="2.2341">
        <ele>92.9</ele>
        <time>2015-05-11T20:25:20.583Z</time>
      </trkpt>
      <trkpt lat="48.83072" lon="2.23416">
        <ele>93</ele>
        <time>2015-05-11T20:25:21.543Z</time>
      </trkpt>
      <trkpt lat="48.83075" lon="2.23422">
        <ele>93.1</ele>
        <time>2015-05-11T20:25:22.558Z</time>
      </trkpt>
      <trkpt lat="48.83077" lon="2.23429">
        <ele>93.2</ele>
        <time>2015-05-11T20:25:23.460Z</time>
      </trkpt>
      <trkpt lat="48.8308" lon="2.23435">
        <ele>93.3</ele>
        <time>2015-05-11T20:25:24.518Z</time>
      </trkpt>
      <trkpt lat="48.83082" lon="2.23441">
        <ele>93.4</ele>
        <time>2015-05-11T20:25:25.604Z</time>
      </trkpt>
      <trkpt lat="48.83083" lon="2.23448">
        <ele>93.4</ele>
        <time>2015-05-11T20:25:26.480Z</time>
      </trkpt>
      <trkpt lat="48.83085" lon="2.23455">
        <ele>93.8</ele>
        <time>2015-05-11T20:25:27.482Z</time>
      </trkpt>
      <trkpt lat="48.83086" lon="2.23462">
        <ele>94.3</ele>
        <time>2015-05-11T20:25:28.489Z</time>
      </trkpt>
      <trkpt lat="48.83085" lon="2.23469">
        <ele>94.9</ele>
        <time>2015-05-11T20:25:29.489Z</time>
      </trkpt>
      <trkpt lat="48.83086" lon="2.23476">
        <ele>95.2</ele>
        <time>2015-05-11T20:25:30.512Z</time>
      </trkpt>
      <trkpt lat="48.83086" lon="2.23483">
        <ele>95.3</ele>
        <time>2015-05-11T20:25:31.529Z</time>
      </trkpt>
      <trkpt lat="48.83086" lon="2.23491">
        <ele>95.6</ele>
        <time>2015-05-11T20:25:32.558Z</time>
      </trkpt>
      <trkpt lat="48.83086" lon="2.23498">
        <ele>95.4</ele>
        <time>2015-05-11T20:25:33.542Z</time>
      </trkpt>
      <trkpt lat="48.83088" lon="2.23506">
        <ele>95.5</ele>
        <time>2015-05-11T20:25:34.474Z</time>
      </trkpt>
      <trkpt lat="48.83089" lon="2.23512">
        <ele>95</ele>
        <time>2015-05-11T20:25:35.532Z</time>
      </trkpt>
      <trkpt lat="48.83092" lon="2.23523">
        <ele>95</ele>
        <time>2015-05-11T20:25:37.645Z</time>
      </trkpt>
      <trkpt lat="48.83094" lon="2.23528">
        <ele>95.2</ele>
        <time>2015-05-11T20:25:38.496Z</time>
      </trkpt>
      <trkpt lat="48.83099" lon="2.23539">
        <ele>95.4</ele>
        <time>2015-05-11T20:25:40.523Z</time>
      </trkpt>
      <trkpt lat="48.83102" lon="2.23545">
        <ele>95.3</ele>
        <time>2015-05-11T20:25:41.577Z</time>
      </trkpt>
      <trkpt lat="48.83105" lon="2.23551">
        <ele>95.5</ele>
        <time>2015-05-11T20:25:42.674Z</time>
      </trkpt>
      <trkpt lat="48.83108" lon="2.23556">
        <ele>95.6</ele>
        <time>2015-05-11T20:25:43.548Z</time>
      </trkpt>
      <trkpt lat="48.83113" lon="2.23564">
        <ele>95.5</ele>
        <time>2015-05-11T20:25:45.470Z</time>
      </trkpt>
      <trkpt lat="48.83116" lon="2.23571">
        <ele>95.7</ele>
        <time>2015-05-11T20:25:46.478Z</time>
      </trkpt>
      <trkpt lat="48.83119" lon="2.23578">
        <ele>95.6</ele>
        <time>2015-05-11T20:25:47.699Z</time>
      </trkpt>
      <trkpt lat="48.83122" lon="2.23584">
        <ele>95.5</ele>
        <time>2015-05-11T20:25:48.509Z</time>
      </trkpt>
      <trkpt lat="48.83124" lon="2.23591">
        <ele>95.7</ele>
        <time>2015-05-11T20:25:49.522Z</time>
      </trkpt>
      <trkpt lat="48.83126" lon="2.23598">
        <ele>95.8</ele>
        <time>2015-05-11T20:25:50.542Z</time>
      </trkpt>
      <trkpt lat="48.83129" lon="2.23606">
        <ele>96.3</ele>
        <time>2015-05-11T20:25:51.464Z</time>
      </trkpt>
      <trkpt lat="48.83131" lon="2.23613">
        <ele>96.6</ele>
        <time>2015-05-11T20:25:52.463Z</time>
      </trkpt>
      <trkpt lat="48.83134" lon="2.2362">
        <ele>96.9</ele>
        <time>2015-05-11T20:25:53.484Z</time>
      </trkpt>
      <trkpt lat="48.83137" lon="2.23626">
        <ele>97.1</ele>
        <time>2015-05-11T20:25:54.497Z</time>
      </trkpt>
      <trkpt lat="48.83139" lon="2.23634">
        <ele>97</ele>
        <time>2015-05-11T20:25:55.513Z</time>
      </trkpt>
      <trkpt lat="48.83142" lon="2.23642">
        <ele>97.2</ele>
        <time>2015-05-11T20:25:56.547Z</time>
      </trkpt>
      <trkpt lat="48.83144" lon="2.23649">
        <ele>97</ele>
        <time>2015-05-11T20:25:57.460Z</time>
      </trkpt>
      <trkpt lat="48.83146" lon="2.23656">
        <ele>97</ele>
        <time>2015-05-11T20:25:58.457Z</time>
      </trkpt>
      <trkpt lat="48.8315" lon="2.23663">
        <ele>97.2</ele>
        <time>2015-05-11T20:25:59.464Z</time>
      </trkpt>
      <trkpt lat="48.83153" lon="2.23668">
        <ele>97.4</ele>
        <time>2015-05-11T20:26:00.543Z</time>
      </trkpt>
      <trkpt lat="48.83153" lon="2.23674">
        <ele>97</ele>
        <time>2015-05-11T20:26:01.510Z</time>
      </trkpt>
      <trkpt lat="48.83149" lon="2.2368">
        <ele>97.5</ele>
        <time>2015-05-11T20:26:02.530Z</time>
      </trkpt>
      <trkpt lat="48.83144" lon="2.23686">
        <ele>97.2</ele>
        <time>2015-05-11T20:26:03.546Z</time>
      </trkpt>
      <trkpt lat="48.83136" lon="2.23689">
        <ele>96.8</ele>
        <time>2015-05-11T20:26:04.461Z</time>
      </trkpt>
      <trkpt lat="48.83129" lon="2.23692">
        <ele>96.2</ele>
        <time>2015-05-11T20:26:05.477Z</time>
      </trkpt>
      <trkpt lat="48.83123" lon="2.23693">
        <ele>95.7</ele>
        <time>2015-05-11T20:26:06.496Z</time>
      </trkpt>
      <trkpt lat="48.83116" lon="2.23693">
        <ele>95.1</ele>
        <time>2015-05-11T20:26:07.507Z</time>
      </trkpt>
      <trkpt lat="48.83109" lon="2.23695">
        <ele>94.4</ele>
        <time>2015-05-11T20:26:08.520Z</time>
      </trkpt>
      <trkpt lat="48.83103" lon="2.23696">
        <ele>93.8</ele>
        <time>2015-05-11T20:26:09.530Z</time>
      </trkpt>
      <trkpt lat="48.83098" lon="2.23698">
        <ele>94.4</ele>
        <time>2015-05-11T20:26:10.532Z</time>
      </trkpt>
      <trkpt lat="48.83093" lon="2.237">
        <ele>94.1</ele>
        <time>2015-05-11T20:26:11.458Z</time>
      </trkpt>
      <trkpt lat="48.83089" lon="2.23703">
        <ele>94.7</ele>
        <time>2015-05-11T20:26:12.561Z</time>
      </trkpt>
      <trkpt lat="48.83084" lon="2.23706">
        <ele>94.8</ele>
        <time>2015-05-11T20:26:13.468Z</time>
      </trkpt>
      <trkpt lat="48.83079" lon="2.23708">
        <ele>94.3</ele>
        <time>2015-05-11T20:26:14.474Z</time>
      </trkpt>
      <trkpt lat="48.83074" lon="2.2371">
        <ele>94.1</ele>
        <time>2015-05-11T20:26:15.494Z</time>
      </trkpt>
      <trkpt lat="48.83068" lon="2.2371">
        <ele>93.4</ele>
        <time>2015-05-11T20:26:16.512Z</time>
      </trkpt>
      <trkpt lat="48.83062" lon="2.23712">
        <ele>93.2</ele>
        <time>2015-05-11T20:26:17.528Z</time>
      </trkpt>
      <trkpt lat="48.83058" lon="2.23715">
        <ele>93.6</ele>
        <time>2015-05-11T20:26:18.538Z</time>
      </trkpt>
      <trkpt lat="48.83053" lon="2.23716">
        <ele>93.4</ele>
        <time>2015-05-11T20:26:19.538Z</time>
      </trkpt>
      <trkpt lat="48.83048" lon="2.23717">
        <ele>93.3</ele>
        <time>2015-05-11T20:26:20.456Z</time>
      </trkpt>
      <trkpt lat="48.8304" lon="2.23719">
        <ele>92.4</ele>
        <time>2015-05-11T20:26:22.475Z</time>
      </trkpt>
      <trkpt lat="48.83035" lon="2.2372">
        <ele>92</ele>
        <time>2015-05-11T20:26:23.491Z</time>
      </trkpt>
      <trkpt lat="48.83031" lon="2.23722">
        <ele>91.4</ele>
        <time>2015-05-11T20:26:24.518Z</time>
      </trkpt>
      <trkpt lat="48.83027" lon="2.23725">
        <ele>90.5</ele>
        <time>2015-05-11T20:26:25.531Z</time>
      </trkpt>
      <trkpt lat="48.83022" lon="2.23726">
        <ele>89.8</ele>
        <time>2015-05-11T20:26:26.543Z</time>
      </trkpt>
      <trkpt lat="48.83017" lon="2.23727">
        <ele>89.3</ele>
        <time>2015-05-11T20:26:27.454Z</time>
      </trkpt>
      <trkpt lat="48.83012" lon="2.2373">
        <ele>89</ele>
        <time>2015-05-11T20:26:28.474Z</time>
      </trkpt>
      <trkpt lat="48.83006" lon="2.2373">
        <ele>88.9</ele>
        <time>2015-05-11T20:26:29.487Z</time>
      </trkpt>
      <trkpt lat="48.82997" lon="2.23734">
        <ele>88.7</ele>
        <time>2015-05-11T20:26:31.503Z</time>
      </trkpt>
      <trkpt lat="48.82994" lon="2.23737">
        <ele>88.5</ele>
        <time>2015-05-11T20:26:32.511Z</time>
      </trkpt>
      <trkpt lat="48.82986" lon="2.23741">
        <ele>88.9</ele>
        <time>2015-05-11T20:26:34.490Z</time>
      </trkpt>
      <trkpt lat="48.82983" lon="2.23745">
        <ele>88.9</ele>
        <time>2015-05-11T20:26:35.546Z</time>
      </trkpt>
      <trkpt lat="48.82983" lon="2.23756">
        <ele>88.8</ele>
        <time>2015-05-11T20:26:37.477Z</time>
      </trkpt>
      <trkpt lat="48.82986" lon="2.23763">
        <ele>88.8</ele>
        <time>2015-05-11T20:26:38.570Z</time>
      </trkpt>
      <trkpt lat="48.82989" lon="2.23773">
        <ele>87.9</ele>
        <time>2015-05-11T20:26:40.466Z</time>
      </trkpt>
      <trkpt lat="48.82992" lon="2.23778">
        <ele>87.9</ele>
        <time>2015-05-11T20:26:41.473Z</time>
      </trkpt>
      <trkpt lat="48.82995" lon="2.23787">
        <ele>87.7</ele>
        <time>2015-05-11T20:26:43.446Z</time>
      </trkpt>
      <trkpt lat="48.82996" lon="2.23791">
        <ele>87.7</ele>
        <time>2015-05-11T20:26:44.485Z</time>
      </trkpt>
      <trkpt lat="48.82999" lon="2.23799">
        <ele>87.8</ele>
        <time>2015-05-11T20:26:46.460Z</time>
      </trkpt>
      <trkpt lat="48.83" lon="2.23804">
        <ele>87.6</ele>
        <time>2015-05-11T20:26:47.485Z</time>
      </trkpt>
      <trkpt lat="48.83003" lon="2.23812">
        <ele>87.3</ele>
        <time>2015-05-11T20:26:49.534Z</time>
      </trkpt>
      <trkpt lat="48.83005" lon="2.23817">
        <ele>87.2</ele>
        <time>2015-05-11T20:26:50.560Z</time>
      </trkpt>
      <trkpt lat="48.83007" lon="2.23825">
        <ele>87</ele>
        <time>2015-05-11T20:26:52.462Z</time>
      </trkpt>
      <trkpt lat="48.83008" lon="2.23829">
        <ele>87.2</ele>
        <time>2015-05-11T20:26:53.484Z</time>
      </trkpt>
      <trkpt lat="48.83011" lon="2.23838">
        <ele>87</ele>
        <time>2015-05-11T20:26:55.519Z</time>
      </trkpt>
      <trkpt lat="48.83013" lon="2.23841">
        <ele>86.8</ele>
        <time>2015-05-11T20:26:56.555Z</time>
      </trkpt>
      <trkpt lat="48.83016" lon="2.23849">
        <ele>86.5</ele>
        <time>2015-05-11T20:26:58.485Z</time>
      </trkpt>
      <trkpt lat="48.83018" lon="2.23853">
        <ele>86.5</ele>
        <time>2015-05-11T20:26:59.495Z</time>
      </trkpt>
      <trkpt lat="48.83022" lon="2.23866">
        <ele>86.4</ele>
        <time>2015-05-11T20:27:03.520Z</time>
      </trkpt>
      <trkpt lat="48.83024" lon="2.23868">
        <ele>86.8</ele>
        <time>2015-05-11T20:27:04.525Z</time>
      </trkpt>
      <trkpt lat="48.83026" lon="2.23879">
        <ele>87.3</ele>
        <time>2015-05-11T20:27:14.446Z</time>
      </trkpt>
      <trkpt lat="48.83018" lon="2.23888">
        <ele>87.2</ele>
        <time>2015-05-11T20:27:15.477Z</time>
      </trkpt>
      <trkpt lat="48.83017" lon="2.23899">
        <ele>87.4</ele>
        <time>2015-05-11T20:27:19.325Z</time>
      </trkpt>
      <trkpt lat="48.83017" lon="2.23903">
        <ele>87.6</ele>
        <time>2015-05-11T20:27:19.445Z</time>
      </trkpt>
      <trkpt lat="48.83018" lon="2.23915">
        <ele>88.2</ele>
        <time>2015-05-11T20:27:22.523Z</time>
      </trkpt>
      <trkpt lat="48.83019" lon="2.23918">
        <ele>88.3</ele>
        <time>2015-05-11T20:27:23.544Z</time>
      </trkpt>
      <trkpt lat="48.8302" lon="2.23931">
        <ele>88.4</ele>
        <time>2015-05-11T20:27:26.482Z</time>
      </trkpt>
      <trkpt lat="48.8302" lon="2.23935">
        <ele>88.4</ele>
        <time>2015-05-11T20:27:27.498Z</time>
      </trkpt>
      <trkpt lat="48.83024" lon="2.23945">
        <ele>88.4</ele>
        <time>2015-05-11T20:27:30.541Z</time>
      </trkpt>
      <trkpt lat="48.83027" lon="2.23949">
        <ele>88.5</ele>
        <time>2015-05-11T20:27:31.476Z</time>
      </trkpt>
      <trkpt lat="48.83028" lon="2.23961">
        <ele>88.2</ele>
        <time>2015-05-11T20:27:35.463Z</time>
      </trkpt>
      <trkpt lat="48.83028" lon="2.23964">
        <ele>88.4</ele>
        <time>2015-05-11T20:27:36.506Z</time>
      </trkpt>
      <trkpt lat="48.83028" lon="2.23974">
        <ele>88.5</ele>
        <time>2015-05-11T20:27:38.515Z</time>
      </trkpt>
      <trkpt lat="48.83027" lon="2.23981">
        <ele>88.3</ele>
        <time>2015-05-11T20:27:39.550Z</time>
      </trkpt>
      <trkpt lat="48.83024" lon="2.23993">
        <ele>88.2</ele>
        <time>2015-05-11T20:27:41.467Z</time>
      </trkpt>
      <trkpt lat="48.83023" lon="2.24">
        <ele>88.2</ele>
        <time>2015-05-11T20:27:42.519Z</time>
      </trkpt>
      <trkpt lat="48.83021" lon="2.24011">
        <ele>88.3</ele>
        <time>2015-05-11T20:27:44.557Z</time>
      </trkpt>
      <trkpt lat="48.83019" lon="2.24016">
        <ele>88.6</ele>
        <time>2015-05-11T20:27:45.466Z</time>
      </trkpt>
      <trkpt lat="48.83016" lon="2.24025">
        <ele>89</ele>
        <time>2015-05-11T20:27:47.633Z</time>
      </trkpt>
      <trkpt lat="48.83014" lon="2.24031">
        <ele>89.3</ele>
        <time>2015-05-11T20:27:48.536Z</time>
      </trkpt>
      <trkpt lat="48.83011" lon="2.24044">
        <ele>90</ele>
        <time>2015-05-11T20:27:50.537Z</time>
      </trkpt>
      <trkpt lat="48.83009" lon="2.24051">
        <ele>89.9</ele>
        <time>2015-05-11T20:27:51.432Z</time>
      </trkpt>
      <trkpt lat="48.83005" lon="2.24057">
        <ele>89.7</ele>
        <time>2015-05-11T20:27:52.509Z</time>
      </trkpt>
      <trkpt lat="48.83002" lon="2.24063">
        <ele>89.3</ele>
        <time>2015-05-11T20:27:53.437Z</time>
      </trkpt>
      <trkpt lat="48.82999" lon="2.24074">
        <ele>88.1</ele>
        <time>2015-05-11T20:27:56.474Z</time>
      </trkpt>
      <trkpt lat="48.82998" lon="2.24078">
        <ele>87.8</ele>
        <time>2015-05-11T20:27:57.434Z</time>
      </trkpt>
      <trkpt lat="48.82995" lon="2.2409">
        <ele>86.8</ele>
        <time>2015-05-11T20:28:00.548Z</time>
      </trkpt>
      <trkpt lat="48.82995" lon="2.24095">
        <ele>86.6</ele>
        <time>2015-05-11T20:28:01.443Z</time>
      </trkpt>
      <trkpt lat="48.82994" lon="2.24106">
        <ele>86.6</ele>
        <time>2015-05-11T20:28:04.478Z</time>
      </trkpt>
      <trkpt lat="48.82993" lon="2.2411">
        <ele>86.4</ele>
        <time>2015-05-11T20:28:05.578Z</time>
      </trkpt>
      <trkpt lat="48.82992" lon="2.24122">
        <ele>86.4</ele>
        <time>2015-05-11T20:28:07.920Z</time>
      </trkpt>
      <trkpt lat="48.82991" lon="2.24127">
        <ele>86.3</ele>
        <time>2015-05-11T20:28:08.455Z</time>
      </trkpt>
      <trkpt lat="48.82989" lon="2.2414">
        <ele>86.3</ele>
        <time>2015-05-11T20:28:10.485Z</time>
      </trkpt>
      <trkpt lat="48.82989" lon="2.24146">
        <ele>86.5</ele>
        <time>2015-05-11T20:28:11.567Z</time>
      </trkpt>
      <trkpt lat="48.82988" lon="2.24157">
        <ele>85.9</ele>
        <time>2015-05-11T20:28:13.470Z</time>
      </trkpt>
      <trkpt lat="48.82987" lon="2.24162">
        <ele>85.8</ele>
        <time>2015-05-11T20:28:14.469Z</time>
      </trkpt>
      <trkpt lat="48.82985" lon="2.24172">
        <ele>85.6</ele>
        <time>2015-05-11T20:28:16.480Z</time>
      </trkpt>
      <trkpt lat="48.82983" lon="2.24175">
        <ele>85.7</ele>
        <time>2015-05-11T20:28:17.496Z</time>
      </trkpt>
      <trkpt lat="48.8298" lon="2.24184">
        <ele>85.8</ele>
        <time>2015-05-11T20:28:19.517Z</time>
      </trkpt>
      <trkpt lat="48.82979" lon="2.24188">
        <ele>85.4</ele>
        <time>2015-05-11T20:28:20.520Z</time>
      </trkpt>
      <trkpt lat="48.82976" lon="2.24199">
        <ele>84.4</ele>
        <time>2015-05-11T20:28:23.489Z</time>
      </trkpt>
      <trkpt lat="48.82975" lon="2.24203">
        <ele>84.1</ele>
        <time>2015-05-11T20:28:24.528Z</time>
      </trkpt>
      <trkpt lat="48.82973" lon="2.24213">
        <ele>85.2</ele>
        <time>2015-05-11T20:28:38.511Z</time>
      </trkpt>
      <trkpt lat="48.82973" lon="2.24233">
        <ele>84.9</ele>
        <time>2015-05-11T20:28:39.513Z</time>
      </trkpt>
      <trkpt lat="48.82975" lon="2.24247">
        <ele>84.5</ele>
        <time>2015-05-11T20:28:42.681Z</time>
      </trkpt>
      <trkpt lat="48.82975" lon="2.24252">
        <ele>84.1</ele>
        <time>2015-05-11T20:28:43.473Z</time>
      </trkpt>
      <trkpt lat="48.82972" lon="2.24261">
        <ele>83.6</ele>
        <time>2015-05-11T20:28:45.489Z</time>
      </trkpt>
      <trkpt lat="48.82971" lon="2.24266">
        <ele>83.5</ele>
        <time>2015-05-11T20:28:46.494Z</time>
      </trkpt>
      <trkpt lat="48.82971" lon="2.24276">
        <ele>84</ele>
        <time>2015-05-11T20:28:48.515Z</time>
      </trkpt>
      <trkpt lat="48.82971" lon="2.24282">
        <ele>84</ele>
        <time>2015-05-11T20:28:49.535Z</time>
      </trkpt>
      <trkpt lat="48.8297" lon="2.24293">
        <ele>84.2</ele>
        <time>2015-05-11T20:28:51.469Z</time>
      </trkpt>
      <trkpt lat="48.82969" lon="2.24299">
        <ele>84.4</ele>
        <time>2015-05-11T20:28:52.471Z</time>
      </trkpt>
      <trkpt lat="48.82967" lon="2.24306">
        <ele>84.3</ele>
        <time>2015-05-11T20:28:53.471Z</time>
      </trkpt>
      <trkpt lat="48.82965" lon="2.24312">
        <ele>84.3</ele>
        <time>2015-05-11T20:28:54.478Z</time>
      </trkpt>
      <trkpt lat="48.82962" lon="2.24323">
        <ele>85</ele>
        <time>2015-05-11T20:28:56.511Z</time>
      </trkpt>
      <trkpt lat="48.82961" lon="2.2433">
        <ele>85.2</ele>
        <time>2015-05-11T20:28:57.548Z</time>
      </trkpt>
      <trkpt lat="48.82959" lon="2.24337">
        <ele>85.3</ele>
        <time>2015-05-11T20:28:58.445Z</time>
      </trkpt>
      <trkpt lat="48.82959" lon="2.24345">
        <ele>85.1</ele>
        <time>2015-05-11T20:28:59.467Z</time>
      </trkpt>
      <trkpt lat="48.82956" lon="2.24358">
        <ele>84.7</ele>
        <time>2015-05-11T20:29:01.521Z</time>
      </trkpt>
      <trkpt lat="48.82955" lon="2.24364">
        <ele>84.6</ele>
        <time>2015-05-11T20:29:02.542Z</time>
      </trkpt>
      <trkpt lat="48.82953" lon="2.24376">
        <ele>84.9</ele>
        <time>2015-05-11T20:29:04.485Z</time>
      </trkpt>
      <trkpt lat="48.82952" lon="2.24381">
        <ele>85.1</ele>
        <time>2015-05-11T20:29:05.502Z</time>
      </trkpt>
      <trkpt lat="48.82951" lon="2.24388">
        <ele>84.9</ele>
        <time>2015-05-11T20:29:06.525Z</time>
      </trkpt>
      <trkpt lat="48.8295" lon="2.24395">
        <ele>84.7</ele>
        <time>2015-05-11T20:29:07.535Z</time>
      </trkpt>
      <trkpt lat="48.82946" lon="2.24407">
        <ele>84.3</ele>
        <time>2015-05-11T20:29:09.694Z</time>
      </trkpt>
      <trkpt lat="48.82944" lon="2.24413">
        <ele>84.2</ele>
        <time>2015-05-11T20:29:10.567Z</time>
      </trkpt>
      <trkpt lat="48.82941" lon="2.24424">
        <ele>84.3</ele>
        <time>2015-05-11T20:29:12.507Z</time>
      </trkpt>
      <trkpt lat="48.82939" lon="2.24431">
        <ele>84</ele>
        <time>2015-05-11T20:29:13.502Z</time>
      </trkpt>
      <trkpt lat="48.82938" lon="2.24438">
        <ele>83.5</ele>
        <time>2015-05-11T20:29:14.514Z</time>
      </trkpt>
      <trkpt lat="48.82937" lon="2.24446">
        <ele>82.9</ele>
        <time>2015-05-11T20:29:15.524Z</time>
      </trkpt>
      <trkpt lat="48.82936" lon="2.24453">
        <ele>82.7</ele>
        <time>2015-05-11T20:29:16.545Z</time>
      </trkpt>
      <trkpt lat="48.82935" lon="2.2446">
        <ele>82.4</ele>
        <time>2015-05-11T20:29:17.545Z</time>
      </trkpt>
      <trkpt lat="48.82933" lon="2.24467">
        <ele>82.6</ele>
        <time>2015-05-11T20:29:18.555Z</time>
      </trkpt>
      <trkpt lat="48.82931" lon="2.24473">
        <ele>82.7</ele>
        <time>2015-05-11T20:29:19.465Z</time>
      </trkpt>
      <trkpt lat="48.8293" lon="2.24481">
        <ele>82.6</ele>
        <time>2015-05-11T20:29:20.529Z</time>
      </trkpt>
      <trkpt lat="48.82929" lon="2.24488">
        <ele>82.6</ele>
        <time>2015-05-11T20:29:21.482Z</time>
      </trkpt>
      <trkpt lat="48.82928" lon="2.24495">
        <ele>82.6</ele>
        <time>2015-05-11T20:29:22.486Z</time>
      </trkpt>
      <trkpt lat="48.82927" lon="2.24501">
        <ele>82.6</ele>
        <time>2015-05-11T20:29:23.502Z</time>
      </trkpt>
      <trkpt lat="48.82925" lon="2.24508">
        <ele>82.9</ele>
        <time>2015-05-11T20:29:24.517Z</time>
      </trkpt>
      <trkpt lat="48.82924" lon="2.24516">
        <ele>82.8</ele>
        <time>2015-05-11T20:29:25.477Z</time>
      </trkpt>
      <trkpt lat="48.82923" lon="2.24524">
        <ele>83</ele>
        <time>2015-05-11T20:29:26.488Z</time>
      </trkpt>
      <trkpt lat="48.82922" lon="2.24533">
        <ele>83.1</ele>
        <time>2015-05-11T20:29:27.528Z</time>
      </trkpt>
      <trkpt lat="48.8292" lon="2.24542">
        <ele>83.2</ele>
        <time>2015-05-11T20:29:28.467Z</time>
      </trkpt>
      <trkpt lat="48.82917" lon="2.24549">
        <ele>83.1</ele>
        <time>2015-05-11T20:29:29.480Z</time>
      </trkpt>
      <trkpt lat="48.82915" lon="2.24561">
        <ele>83.7</ele>
        <time>2015-05-11T20:29:31.502Z</time>
      </trkpt>
      <trkpt lat="48.82914" lon="2.24568">
        <ele>83.6</ele>
        <time>2015-05-11T20:29:32.512Z</time>
      </trkpt>
      <trkpt lat="48.82912" lon="2.24574">
        <ele>83.6</ele>
        <time>2015-05-11T20:29:33.167Z</time>
      </trkpt>
      <trkpt lat="48.82911" lon="2.24581">
        <ele>83.6</ele>
        <time>2015-05-11T20:29:34.547Z</time>
      </trkpt>
      <trkpt lat="48.8291" lon="2.24587">
        <ele>83.8</ele>
        <time>2015-05-11T20:29:35.440Z</time>
      </trkpt>
      <trkpt lat="48.82908" lon="2.24595">
        <ele>84.1</ele>
        <time>2015-05-11T20:29:36.505Z</time>
      </trkpt>
      <trkpt lat="48.82905" lon="2.24602">
        <ele>84.4</ele>
        <time>2015-05-11T20:29:37.362Z</time>
      </trkpt>
      <trkpt lat="48.82903" lon="2.2461">
        <ele>84.6</ele>
        <time>2015-05-11T20:29:38.449Z</time>
      </trkpt>
      <trkpt lat="48.82901" lon="2.2462">
        <ele>84.3</ele>
        <time>2015-05-11T20:29:39.476Z</time>
      </trkpt>
      <trkpt lat="48.82901" lon="2.24629">
        <ele>84</ele>
        <time>2015-05-11T20:29:40.490Z</time>
      </trkpt>
      <trkpt lat="48.82902" lon="2.24637">
        <ele>84.2</ele>
        <time>2015-05-11T20:29:41.497Z</time>
      </trkpt>
      <trkpt lat="48.82903" lon="2.24644">
        <ele>84.3</ele>
        <time>2015-05-11T20:29:42.499Z</time>
      </trkpt>
      <trkpt lat="48.82907" lon="2.24655">
        <ele>84.6</ele>
        <time>2015-05-11T20:29:44.436Z</time>
      </trkpt>
      <trkpt lat="48.82909" lon="2.2466">
        <ele>84.9</ele>
        <time>2015-05-11T20:29:45.497Z</time>
      </trkpt>
      <trkpt lat="48.82912" lon="2.24668">
        <ele>84.5</ele>
        <time>2015-05-11T20:29:47.521Z</time>
      </trkpt>
      <trkpt lat="48.82915" lon="2.24672">
        <ele>84.9</ele>
        <time>2015-05-11T20:29:48.530Z</time>
      </trkpt>
      <trkpt lat="48.8292" lon="2.24677">
        <ele>85</ele>
        <time>2015-05-11T20:29:49.597Z</time>
      </trkpt>
      <trkpt lat="48.82922" lon="2.24683">
        <ele>84.9</ele>
        <time>2015-05-11T20:29:50.465Z</time>
      </trkpt>
      <trkpt lat="48.82926" lon="2.24692">
        <ele>84.7</ele>
        <time>2015-05-11T20:29:52.559Z</time>
      </trkpt>
      <trkpt lat="48.82927" lon="2.24696">
        <ele>84.8</ele>
        <time>2015-05-11T20:29:53.458Z</time>
      </trkpt>
      <trkpt lat="48.82932" lon="2.24702">
        <ele>84.8</ele>
        <time>2015-05-11T20:29:55.515Z</time>
      </trkpt>
      <trkpt lat="48.82934" lon="2.24705">
        <ele>84.7</ele>
        <time>2015-05-11T20:29:56.468Z</time>
      </trkpt>
      <trkpt lat="48.82939" lon="2.24714">
        <ele>85</ele>
        <time>2015-05-11T20:29:59.545Z</time>
      </trkpt>
      <trkpt lat="48.82941" lon="2.24719">
        <ele>85.3</ele>
        <time>2015-05-11T20:30:00.559Z</time>
      </trkpt>
      <trkpt lat="48.82945" lon="2.2473">
        <ele>84.9</ele>
        <time>2015-05-11T20:30:02.515Z</time>
      </trkpt>
      <trkpt lat="48.82947" lon="2.24738">
        <ele>85</ele>
        <time>2015-05-11T20:30:03.439Z</time>
      </trkpt>
      <trkpt lat="48.82949" lon="2.24747">
        <ele>85.5</ele>
        <time>2015-05-11T20:30:04.447Z</time>
      </trkpt>
      <trkpt lat="48.82949" lon="2.24756">
        <ele>87</ele>
        <time>2015-05-11T20:30:05.464Z</time>
      </trkpt>
      <trkpt lat="48.82952" lon="2.24762">
        <ele>87.3</ele>
        <time>2015-05-11T20:30:06.491Z</time>
      </trkpt>
      <trkpt lat="48.82956" lon="2.24767">
        <ele>87.3</ele>
        <time>2015-05-11T20:30:07.507Z</time>
      </trkpt>
      <trkpt lat="48.8296" lon="2.24769">
        <ele>87.7</ele>
        <time>2015-05-11T20:30:08.523Z</time>
      </trkpt>
      <trkpt lat="48.82969" lon="2.24769">
        <ele>87.9</ele>
        <time>2015-05-11T20:30:10.436Z</time>
      </trkpt>
      <trkpt lat="48.82974" lon="2.24766">
        <ele>87.7</ele>
        <time>2015-05-11T20:30:11.472Z</time>
      </trkpt>
      <trkpt lat="48.82981" lon="2.24761">
        <ele>88</ele>
        <time>2015-05-11T20:30:13.501Z</time>
      </trkpt>
      <trkpt lat="48.82985" lon="2.24759">
        <ele>88.2</ele>
        <time>2015-05-11T20:30:14.472Z</time>
      </trkpt>
      <trkpt lat="48.82991" lon="2.24754">
        <ele>88.6</ele>
        <time>2015-05-11T20:30:16.473Z</time>
      </trkpt>
      <trkpt lat="48.82997" lon="2.2475">
        <ele>88.5</ele>
        <time>2015-05-11T20:30:17.489Z</time>
      </trkpt>
      <trkpt lat="48.83001" lon="2.24748">
        <ele>88.6</ele>
        <time>2015-05-11T20:30:18.737Z</time>
      </trkpt>
      <trkpt lat="48.83006" lon="2.24746">
        <ele>89.1</ele>
        <time>2015-05-11T20:30:19.516Z</time>
      </trkpt>
      <trkpt lat="48.8301" lon="2.24745">
        <ele>89.2</ele>
        <time>2015-05-11T20:30:21.097Z</time>
      </trkpt>
      <trkpt lat="48.83015" lon="2.24743">
        <ele>89.4</ele>
        <time>2015-05-11T20:30:21.428Z</time>
      </trkpt>
      <trkpt lat="48.8302" lon="2.2474">
        <ele>89.4</ele>
        <time>2015-05-11T20:30:22.462Z</time>
      </trkpt>
      <trkpt lat="48.83024" lon="2.24737">
        <ele>89.2</ele>
        <time>2015-05-11T20:30:23.479Z</time>
      </trkpt>
      <trkpt lat="48.83029" lon="2.24733">
        <ele>89.6</ele>
        <time>2015-05-11T20:30:24.554Z</time>
      </trkpt>
      <trkpt lat="48.83034" lon="2.2473">
        <ele>90.2</ele>
        <time>2015-05-11T20:30:25.460Z</time>
      </trkpt>
      <trkpt lat="48.8304" lon="2.24729">
        <ele>90.5</ele>
        <time>2015-05-11T20:30:26.428Z</time>
      </trkpt>
      <trkpt lat="48.83045" lon="2.24727">
        <ele>90.4</ele>
        <time>2015-05-11T20:30:27.463Z</time>
      </trkpt>
      <trkpt lat="48.83051" lon="2.24724">
        <ele>90.4</ele>
        <time>2015-05-11T20:30:28.468Z</time>
      </trkpt>
      <trkpt lat="48.83057" lon="2.24721">
        <ele>90.3</ele>
        <time>2015-05-11T20:30:29.480Z</time>
      </trkpt>
      <trkpt lat="48.83062" lon="2.24718">
        <ele>90.2</ele>
        <time>2015-05-11T20:30:31.263Z</time>
      </trkpt>
      <trkpt lat="48.83067" lon="2.24717">
        <ele>90.5</ele>
        <time>2015-05-11T20:30:31.501Z</time>
      </trkpt>
      <trkpt lat="48.83074" lon="2.24718">
        <ele>90.5</ele>
        <time>2015-05-11T20:30:32.524Z</time>
      </trkpt>
      <trkpt lat="48.83079" lon="2.24717">
        <ele>90.4</ele>
        <time>2015-05-11T20:30:33.529Z</time>
      </trkpt>
      <trkpt lat="48.83085" lon="2.24717">
        <ele>90.7</ele>
        <time>2015-05-11T20:30:34.703Z</time>
      </trkpt>
      <trkpt lat="48.8309" lon="2.24716">
        <ele>90.7</ele>
        <time>2015-05-11T20:30:35.422Z</time>
      </trkpt>
      <trkpt lat="48.83095" lon="2.24714">
        <ele>90.9</ele>
        <time>2015-05-11T20:30:36.520Z</time>
      </trkpt>
      <trkpt lat="48.83099" lon="2.24712">
        <ele>91</ele>
        <time>2015-05-11T20:30:37.517Z</time>
      </trkpt>
      <trkpt lat="48.83104" lon="2.24709">
        <ele>91.1</ele>
        <time>2015-05-11T20:30:38.517Z</time>
      </trkpt>
      <trkpt lat="48.83109" lon="2.24708">
        <ele>91</ele>
        <time>2015-05-11T20:30:39.454Z</time>
      </trkpt>
      <trkpt lat="48.83114" lon="2.24706">
        <ele>91</ele>
        <time>2015-05-11T20:30:40.473Z</time>
      </trkpt>
      <trkpt lat="48.83118" lon="2.24705">
        <ele>91.4</ele>
        <time>2015-05-11T20:30:41.488Z</time>
      </trkpt>
      <trkpt lat="48.83123" lon="2.24706">
        <ele>91.6</ele>
        <time>2015-05-11T20:30:42.506Z</time>
      </trkpt>
      <trkpt lat="48.83127" lon="2.24708">
        <ele>91.8</ele>
        <time>2015-05-11T20:30:43.517Z</time>
      </trkpt>
      <trkpt lat="48.83136" lon="2.24705">
        <ele>91.8</ele>
        <time>2015-05-11T20:30:45.544Z</time>
      </trkpt>
      <trkpt lat="48.83141" lon="2.24708">
        <ele>91.8</ele>
        <time>2015-05-11T20:30:46.499Z</time>
      </trkpt>
      <trkpt lat="48.83147" lon="2.24715">
        <ele>91.4</ele>
        <time>2015-05-11T20:30:47.466Z</time>
      </trkpt>
      <trkpt lat="48.83151" lon="2.24722">
        <ele>91.1</ele>
        <time>2015-05-11T20:30:48.493Z</time>
      </trkpt>
      <trkpt lat="48.83154" lon="2.24727">
        <ele>90.4</ele>
        <time>2015-05-11T20:30:49.559Z</time>
      </trkpt>
      <trkpt lat="48.83157" lon="2.24733">
        <ele>89.8</ele>
        <time>2015-05-11T20:30:50.566Z</time>
      </trkpt>
      <trkpt lat="48.83162" lon="2.24744">
        <ele>89.4</ele>
        <time>2015-05-11T20:30:52.548Z</time>
      </trkpt>
      <trkpt lat="48.83166" lon="2.24749">
        <ele>89.7</ele>
        <time>2015-05-11T20:30:53.527Z</time>
      </trkpt>
      <trkpt lat="48.83169" lon="2.24755">
        <ele>89.7</ele>
        <time>2015-05-11T20:30:54.531Z</time>
      </trkpt>
      <trkpt lat="48.83172" lon="2.2476">
        <ele>89.7</ele>
        <time>2015-05-11T20:30:55.549Z</time>
      </trkpt>
      <trkpt lat="48.83176" lon="2.24772">
        <ele>89.7</ele>
        <time>2015-05-11T20:30:57.460Z</time>
      </trkpt>
      <trkpt lat="48.83179" lon="2.24778">
        <ele>89.8</ele>
        <time>2015-05-11T20:30:58.470Z</time>
      </trkpt>
      <trkpt lat="48.83181" lon="2.24784">
        <ele>89.6</ele>
        <time>2015-05-11T20:30:59.485Z</time>
      </trkpt>
      <trkpt lat="48.83184" lon="2.2479">
        <ele>89.9</ele>
        <time>2015-05-11T20:31:00.498Z</time>
      </trkpt>
      <trkpt lat="48.83186" lon="2.24796">
        <ele>90.1</ele>
        <time>2015-05-11T20:31:01.524Z</time>
      </trkpt>
      <trkpt lat="48.83189" lon="2.24803">
        <ele>90.1</ele>
        <time>2015-05-11T20:31:02.435Z</time>
      </trkpt>
      <trkpt lat="48.83192" lon="2.24809">
        <ele>90.4</ele>
        <time>2015-05-11T20:31:03.473Z</time>
      </trkpt>
      <trkpt lat="48.83194" lon="2.24815">
        <ele>90.5</ele>
        <time>2015-05-11T20:31:04.505Z</time>
      </trkpt>
      <trkpt lat="48.83196" lon="2.24824">
        <ele>90.8</ele>
        <time>2015-05-11T20:31:05.496Z</time>
      </trkpt>
      <trkpt lat="48.83199" lon="2.24831">
        <ele>91.1</ele>
        <time>2015-05-11T20:31:06.542Z</time>
      </trkpt>
      <trkpt lat="48.83201" lon="2.24838">
        <ele>91.3</ele>
        <time>2015-05-11T20:31:07.537Z</time>
      </trkpt>
      <trkpt lat="48.83202" lon="2.24845">
        <ele>91.2</ele>
        <time>2015-05-11T20:31:08.527Z</time>
      </trkpt>
      <trkpt lat="48.83204" lon="2.24852">
        <ele>91.1</ele>
        <time>2015-05-11T20:31:09.543Z</time>
      </trkpt>
      <trkpt lat="48.83205" lon="2.2486">
        <ele>90.9</ele>
        <time>2015-05-11T20:31:10.552Z</time>
      </trkpt>
      <trkpt lat="48.83208" lon="2.24866">
        <ele>90.8</ele>
        <time>2015-05-11T20:31:11.472Z</time>
      </trkpt>
      <trkpt lat="48.83212" lon="2.24872">
        <ele>91</ele>
        <time>2015-05-11T20:31:12.655Z</time>
      </trkpt>
      <trkpt lat="48.83218" lon="2.24882">
        <ele>90.8</ele>
        <time>2015-05-11T20:31:14.483Z</time>
      </trkpt>
      <trkpt lat="48.8322" lon="2.24888">
        <ele>90.8</ele>
        <time>2015-05-11T20:31:15.542Z</time>
      </trkpt>
      <trkpt lat="48.83223" lon="2.24894">
        <ele>90.5</ele>
        <time>2015-05-11T20:31:16.556Z</time>
      </trkpt>
      <trkpt lat="48.83227" lon="2.24898">
        <ele>90.2</ele>
        <time>2015-05-11T20:31:17.569Z</time>
      </trkpt>
      <trkpt lat="48.83232" lon="2.24903">
        <ele>90.2</ele>
        <time>2015-05-11T20:31:18.518Z</time>
      </trkpt>
      <trkpt lat="48.83235" lon="2.24908">
        <ele>90.3</ele>
        <time>2015-05-11T20:31:19.550Z</time>
      </trkpt>
      <trkpt lat="48.83237" lon="2.24915">
        <ele>90.3</ele>
        <time>2015-05-11T20:31:20.567Z</time>
      </trkpt>
      <trkpt lat="48.8324" lon="2.24921">
        <ele>90.7</ele>
        <time>2015-05-11T20:31:21.491Z</time>
      </trkpt>
      <trkpt lat="48.83243" lon="2.24927">
        <ele>91.3</ele>
        <time>2015-05-11T20:31:22.515Z</time>
      </trkpt>
      <trkpt lat="48.83244" lon="2.24934">
        <ele>91.8</ele>
        <time>2015-05-11T20:31:23.523Z</time>
      </trkpt>
      <trkpt lat="48.83247" lon="2.24945">
        <ele>92.1</ele>
        <time>2015-05-11T20:31:25.536Z</time>
      </trkpt>
      <trkpt lat="48.83248" lon="2.24951">
        <ele>92.3</ele>
        <time>2015-05-11T20:31:26.547Z</time>
      </trkpt>
      <trkpt lat="48.83251" lon="2.24963">
        <ele>93.5</ele>
        <time>2015-05-11T20:31:28.496Z</time>
      </trkpt>
      <trkpt lat="48.83252" lon="2.24967">
        <ele>94.1</ele>
        <time>2015-05-11T20:31:29.510Z</time>
      </trkpt>
      <trkpt lat="48.83253" lon="2.24979">
        <ele>94.2</ele>
        <time>2015-05-11T20:31:31.566Z</time>
      </trkpt>
      <trkpt lat="48.83252" lon="2.24984">
        <ele>94.6</ele>
        <time>2015-05-11T20:31:32.632Z</time>
      </trkpt>
      <trkpt lat="48.83251" lon="2.24997">
        <ele>95.7</ele>
        <time>2015-05-11T20:31:34.485Z</time>
      </trkpt>
      <trkpt lat="48.83251" lon="2.25004">
        <ele>96</ele>
        <time>2015-05-11T20:31:35.502Z</time>
      </trkpt>
      <trkpt lat="48.83251" lon="2.2501">
        <ele>96.2</ele>
        <time>2015-05-11T20:31:36.531Z</time>
      </trkpt>
      <trkpt lat="48.83251" lon="2.25017">
        <ele>96.2</ele>
        <time>2015-05-11T20:31:37.538Z</time>
      </trkpt>
      <trkpt lat="48.83252" lon="2.25031">
        <ele>96.8</ele>
        <time>2015-05-11T20:31:39.478Z</time>
      </trkpt>
      <trkpt lat="48.83252" lon="2.25038">
        <ele>96.8</ele>
        <time>2015-05-11T20:31:40.497Z</time>
      </trkpt>
      <trkpt lat="48.83252" lon="2.25045">
        <ele>96.5</ele>
        <time>2015-05-11T20:31:41.480Z</time>
      </trkpt>
      <trkpt lat="48.83252" lon="2.25052">
        <ele>96.5</ele>
        <time>2015-05-11T20:31:42.485Z</time>
      </trkpt>
      <trkpt lat="48.83252" lon="2.25059">
        <ele>96.1</ele>
        <time>2015-05-11T20:31:43.507Z</time>
      </trkpt>
      <trkpt lat="48.83251" lon="2.25067">
        <ele>96.1</ele>
        <time>2015-05-11T20:31:44.526Z</time>
      </trkpt>
      <trkpt lat="48.83251" lon="2.25074">
        <ele>96</ele>
        <time>2015-05-11T20:31:45.450Z</time>
      </trkpt>
      <trkpt lat="48.8325" lon="2.25081">
        <ele>96.2</ele>
        <time>2015-05-11T20:31:46.455Z</time>
      </trkpt>
      <trkpt lat="48.83249" lon="2.25093">
        <ele>96.7</ele>
        <time>2015-05-11T20:31:48.473Z</time>
      </trkpt>
      <trkpt lat="48.83249" lon="2.25099">
        <ele>97.2</ele>
        <time>2015-05-11T20:31:49.501Z</time>
      </trkpt>
      <trkpt lat="48.83249" lon="2.25106">
        <ele>97.6</ele>
        <time>2015-05-11T20:31:50.524Z</time>
      </trkpt>
      <trkpt lat="48.83249" lon="2.25114">
        <ele>97.8</ele>
        <time>2015-05-11T20:31:51.541Z</time>
      </trkpt>
      <trkpt lat="48.83249" lon="2.25121">
        <ele>97.6</ele>
        <time>2015-05-11T20:31:52.462Z</time>
      </trkpt>
      <trkpt lat="48.83248" lon="2.25127">
        <ele>97.8</ele>
        <time>2015-05-11T20:31:53.465Z</time>
      </trkpt>
      <trkpt lat="48.83248" lon="2.25138">
        <ele>97.7</ele>
        <time>2015-05-11T20:31:55.488Z</time>
      </trkpt>
      <trkpt lat="48.83248" lon="2.25142">
        <ele>97.7</ele>
        <time>2015-05-11T20:31:56.517Z</time>
      </trkpt>
      <trkpt lat="48.83246" lon="2.25152">
        <ele>96.1</ele>
        <time>2015-05-11T20:31:58.460Z</time>
      </trkpt>
      <trkpt lat="48.83246" lon="2.25157">
        <ele>95.4</ele>
        <time>2015-05-11T20:31:59.516Z</time>
      </trkpt>
      <trkpt lat="48.83243" lon="2.25168">
        <ele>95.1</ele>
        <time>2015-05-11T20:32:01.456Z</time>
      </trkpt>
      <trkpt lat="48.83241" lon="2.25173">
        <ele>94.9</ele>
        <time>2015-05-11T20:32:02.567Z</time>
      </trkpt>
      <trkpt lat="48.83237" lon="2.25184">
        <ele>94.5</ele>
        <time>2015-05-11T20:32:04.476Z</time>
      </trkpt>
      <trkpt lat="48.83235" lon="2.25191">
        <ele>94.5</ele>
        <time>2015-05-11T20:32:05.500Z</time>
      </trkpt>
      <trkpt lat="48.83234" lon="2.25198">
        <ele>94.6</ele>
        <time>2015-05-11T20:32:06.511Z</time>
      </trkpt>
      <trkpt lat="48.83232" lon="2.25205">
        <ele>94.3</ele>
        <time>2015-05-11T20:32:07.509Z</time>
      </trkpt>
      <trkpt lat="48.83231" lon="2.25213">
        <ele>94.3</ele>
        <time>2015-05-11T20:32:08.515Z</time>
      </trkpt>
      <trkpt lat="48.83229" lon="2.25221">
        <ele>94.2</ele>
        <time>2015-05-11T20:32:09.520Z</time>
      </trkpt>
      <trkpt lat="48.83228" lon="2.2523">
        <ele>94.1</ele>
        <time>2015-05-11T20:32:10.448Z</time>
      </trkpt>
      <trkpt lat="48.83226" lon="2.25238">
        <ele>93.9</ele>
        <time>2015-05-11T20:32:11.451Z</time>
      </trkpt>
      <trkpt lat="48.83225" lon="2.25247">
        <ele>93.9</ele>
        <time>2015-05-11T20:32:12.574Z</time>
      </trkpt>
      <trkpt lat="48.83223" lon="2.25255">
        <ele>94.2</ele>
        <time>2015-05-11T20:32:13.491Z</time>
      </trkpt>
      <trkpt lat="48.8322" lon="2.25264">
        <ele>94.2</ele>
        <time>2015-05-11T20:32:14.512Z</time>
      </trkpt>
      <trkpt lat="48.83218" lon="2.25272">
        <ele>94.1</ele>
        <time>2015-05-11T20:32:15.531Z</time>
      </trkpt>
      <trkpt lat="48.83217" lon="2.25281">
        <ele>93.7</ele>
        <time>2015-05-11T20:32:16.473Z</time>
      </trkpt>
      <trkpt lat="48.83215" lon="2.25291">
        <ele>93.6</ele>
        <time>2015-05-11T20:32:17.465Z</time>
      </trkpt>
      <trkpt lat="48.83213" lon="2.253">
        <ele>93.6</ele>
        <time>2015-05-11T20:32:18.497Z</time>
      </trkpt>
      <trkpt lat="48.83211" lon="2.25308">
        <ele>93.4</ele>
        <time>2015-05-11T20:32:19.510Z</time>
      </trkpt>
      <trkpt lat="48.83208" lon="2.25316">
        <ele>93.3</ele>
        <time>2015-05-11T20:32:20.525Z</time>
      </trkpt>
      <trkpt lat="48.83207" lon="2.25325">
        <ele>93.1</ele>
        <time>2015-05-11T20:32:21.535Z</time>
      </trkpt>
      <trkpt lat="48.83205" lon="2.25333">
        <ele>93.1</ele>
        <time>2015-05-11T20:32:22.462Z</time>
      </trkpt>
      <trkpt lat="48.83202" lon="2.25341">
        <ele>92.7</ele>
        <time>2015-05-11T20:32:23.466Z</time>
      </trkpt>
      <trkpt lat="48.832" lon="2.2535">
        <ele>92.5</ele>
        <time>2015-05-11T20:32:24.551Z</time>
      </trkpt>
      <trkpt lat="48.83199" lon="2.25358">
        <ele>92.2</ele>
        <time>2015-05-11T20:32:25.495Z</time>
      </trkpt>
      <trkpt lat="48.83197" lon="2.25366">
        <ele>91.9</ele>
        <time>2015-05-11T20:32:26.471Z</time>
      </trkpt>
      <trkpt lat="48.83195" lon="2.25374">
        <ele>91.8</ele>
        <time>2015-05-11T20:32:27.478Z</time>
      </trkpt>
      <trkpt lat="48.83194" lon="2.25381">
        <ele>91.6</ele>
        <time>2015-05-11T20:32:28.507Z</time>
      </trkpt>
      <trkpt lat="48.83192" lon="2.25388">
        <ele>91.2</ele>
        <time>2015-05-11T20:32:29.512Z</time>
      </trkpt>
      <trkpt lat="48.8319" lon="2.25396">
        <ele>90.7</ele>
        <time>2015-05-11T20:32:30.523Z</time>
      </trkpt>
      <trkpt lat="48.83188" lon="2.25404">
        <ele>90</ele>
        <time>2015-05-11T20:32:31.536Z</time>
      </trkpt>
      <trkpt lat="48.83186" lon="2.25412">
        <ele>89.8</ele>
        <time>2015-05-11T20:32:32.552Z</time>
      </trkpt>
      <trkpt lat="48.83184" lon="2.2542">
        <ele>89.1</ele>
        <time>2015-05-11T20:32:33.437Z</time>
      </trkpt>
      <trkpt lat="48.83182" lon="2.25427">
        <ele>88.3</ele>
        <time>2015-05-11T20:32:34.488Z</time>
      </trkpt>
      <trkpt lat="48.83181" lon="2.25435">
        <ele>87.6</ele>
        <time>2015-05-11T20:32:35.509Z</time>
      </trkpt>
      <trkpt lat="48.83179" lon="2.25442">
        <ele>87.1</ele>
        <time>2015-05-11T20:32:36.517Z</time>
      </trkpt>
      <trkpt lat="48.83177" lon="2.2545">
        <ele>86.9</ele>
        <time>2015-05-11T20:32:37.532Z</time>
      </trkpt>
      <trkpt lat="48.83175" lon="2.25457">
        <ele>86.3</ele>
        <time>2015-05-11T20:32:38.560Z</time>
      </trkpt>
      <trkpt lat="48.83174" lon="2.25465">
        <ele>86.2</ele>
        <time>2015-05-11T20:32:39.467Z</time>
      </trkpt>
      <trkpt lat="48.83172" lon="2.25472">
        <ele>86.2</ele>
        <time>2015-05-11T20:32:40.465Z</time>
      </trkpt>
      <trkpt lat="48.83171" lon="2.25478">
        <ele>86.3</ele>
        <time>2015-05-11T20:32:41.491Z</time>
      </trkpt>
      <trkpt lat="48.8317" lon="2.25486">
        <ele>86.1</ele>
        <time>2015-05-11T20:32:42.502Z</time>
      </trkpt>
      <trkpt lat="48.83168" lon="2.25493">
        <ele>85.9</ele>
        <time>2015-05-11T20:32:43.528Z</time>
      </trkpt>
      <trkpt lat="48.83167" lon="2.25501">
        <ele>85.7</ele>
        <time>2015-05-11T20:32:44.560Z</time>
      </trkpt>
      <trkpt lat="48.83165" lon="2.25509">
        <ele>86</ele>
        <time>2015-05-11T20:32:45.440Z</time>
      </trkpt>
      <trkpt lat="48.83163" lon="2.25518">
        <ele>85.8</ele>
        <time>2015-05-11T20:32:46.463Z</time>
      </trkpt>
      <trkpt lat="48.83161" lon="2.25527">
        <ele>86</ele>
        <time>2015-05-11T20:32:47.476Z</time>
      </trkpt>
      <trkpt lat="48.8316" lon="2.25536">
        <ele>85.9</ele>
        <time>2015-05-11T20:32:48.512Z</time>
      </trkpt>
      <trkpt lat="48.83158" lon="2.25544">
        <ele>85.9</ele>
        <time>2015-05-11T20:32:49.520Z</time>
      </trkpt>
      <trkpt lat="48.83156" lon="2.25552">
        <ele>86.1</ele>
        <time>2015-05-11T20:32:50.554Z</time>
      </trkpt>
      <trkpt lat="48.83154" lon="2.2556">
        <ele>86.1</ele>
        <time>2015-05-11T20:32:51.486Z</time>
      </trkpt>
      <trkpt lat="48.83151" lon="2.25567">
        <ele>86.1</ele>
        <time>2015-05-11T20:32:52.458Z</time>
      </trkpt>
      <trkpt lat="48.83149" lon="2.25574">
        <ele>86.2</ele>
        <time>2015-05-11T20:32:53.469Z</time>
      </trkpt>
      <trkpt lat="48.83147" lon="2.25581">
        <ele>85.8</ele>
        <time>2015-05-11T20:32:54.496Z</time>
      </trkpt>
      <trkpt lat="48.83145" lon="2.2559">
        <ele>86.7</ele>
        <time>2015-05-11T20:32:55.512Z</time>
      </trkpt>
      <trkpt lat="48.83142" lon="2.25599">
        <ele>88.1</ele>
        <time>2015-05-11T20:32:56.510Z</time>
      </trkpt>
      <trkpt lat="48.83139" lon="2.25608">
        <ele>89.8</ele>
        <time>2015-05-11T20:32:57.523Z</time>
      </trkpt>
      <trkpt lat="48.83137" lon="2.25616">
        <ele>90</ele>
        <time>2015-05-11T20:32:58.556Z</time>
      </trkpt>
      <trkpt lat="48.83135" lon="2.25623">
        <ele>90</ele>
        <time>2015-05-11T20:32:59.460Z</time>
      </trkpt>
      <trkpt lat="48.83134" lon="2.2563">
        <ele>90.2</ele>
        <time>2015-05-11T20:33:00.465Z</time>
      </trkpt>
      <trkpt lat="48.83133" lon="2.25636">
        <ele>90.4</ele>
        <time>2015-05-11T20:33:01.445Z</time>
      </trkpt>
      <trkpt lat="48.83132" lon="2.2565">
        <ele>90.5</ele>
        <time>2015-05-11T20:33:03.517Z</time>
      </trkpt>
      <trkpt lat="48.83131" lon="2.25656">
        <ele>91</ele>
        <time>2015-05-11T20:33:04.552Z</time>
      </trkpt>
      <trkpt lat="48.83131" lon="2.25669">
        <ele>92.6</ele>
        <time>2015-05-11T20:33:06.549Z</time>
      </trkpt>
      <trkpt lat="48.83131" lon="2.25675">
        <ele>93.2</ele>
        <time>2015-05-11T20:33:07.494Z</time>
      </trkpt>
      <trkpt lat="48.8313" lon="2.25686">
        <ele>94.1</ele>
        <time>2015-05-11T20:33:09.556Z</time>
      </trkpt>
      <trkpt lat="48.83127" lon="2.25691">
        <ele>94.1</ele>
        <time>2015-05-11T20:33:10.533Z</time>
      </trkpt>
      <trkpt lat="48.83125" lon="2.257">
        <ele>94.4</ele>
        <time>2015-05-11T20:33:12.515Z</time>
      </trkpt>
      <trkpt lat="48.83122" lon="2.25704">
        <ele>94.4</ele>
        <time>2015-05-11T20:33:13.471Z</time>
      </trkpt>
      <trkpt lat="48.83118" lon="2.25712">
        <ele>94.3</ele>
        <time>2015-05-11T20:33:15.481Z</time>
      </trkpt>
      <trkpt lat="48.83116" lon="2.25714">
        <ele>94.2</ele>
        <time>2015-05-11T20:33:16.511Z</time>
      </trkpt>
      <trkpt lat="48.83115" lon="2.25726">
        <ele>91.7</ele>
        <time>2015-05-11T20:33:49.455Z</time>
      </trkpt>
      <trkpt lat="48.83115" lon="2.2573">
        <ele>91.7</ele>
        <time>2015-05-11T20:33:50.563Z</time>
      </trkpt>
      <trkpt lat="48.83114" lon="2.25739">
        <ele>91.7</ele>
        <time>2015-05-11T20:33:52.653Z</time>
      </trkpt>
      <trkpt lat="48.83113" lon="2.25745">
        <ele>91.9</ele>
        <time>2015-05-11T20:33:53.445Z</time>
      </trkpt>
      <trkpt lat="48.83108" lon="2.25755">
        <ele>91.3</ele>
        <time>2015-05-11T20:33:55.519Z</time>
      </trkpt>
      <trkpt lat="48.83106" lon="2.2576">
        <ele>91.3</ele>
        <time>2015-05-11T20:33:56.450Z</time>
      </trkpt>
      <trkpt lat="48.83103" lon="2.2577">
        <ele>90.8</ele>
        <time>2015-05-11T20:33:58.566Z</time>
      </trkpt>
      <trkpt lat="48.83101" lon="2.25774">
        <ele>90.5</ele>
        <time>2015-05-11T20:33:59.465Z</time>
      </trkpt>
      <trkpt lat="48.83098" lon="2.25783">
        <ele>90.1</ele>
        <time>2015-05-11T20:34:01.505Z</time>
      </trkpt>
      <trkpt lat="48.83097" lon="2.25788">
        <ele>89.8</ele>
        <time>2015-05-11T20:34:02.643Z</time>
      </trkpt>
      <trkpt lat="48.83094" lon="2.25796">
        <ele>89.1</ele>
        <time>2015-05-11T20:34:04.440Z</time>
      </trkpt>
      <trkpt lat="48.83092" lon="2.258">
        <ele>88.9</ele>
        <time>2015-05-11T20:34:05.497Z</time>
      </trkpt>
      <trkpt lat="48.83088" lon="2.25809">
        <ele>88.3</ele>
        <time>2015-05-11T20:34:07.451Z</time>
      </trkpt>
      <trkpt lat="48.83086" lon="2.25814">
        <ele>88.2</ele>
        <time>2015-05-11T20:34:08.477Z</time>
      </trkpt>
      <trkpt lat="48.83082" lon="2.25823">
        <ele>87.5</ele>
        <time>2015-05-11T20:34:10.450Z</time>
      </trkpt>
      <trkpt lat="48.8308" lon="2.25827">
        <ele>87.2</ele>
        <time>2015-05-11T20:34:11.489Z</time>
      </trkpt>
      <trkpt lat="48.83076" lon="2.25836">
        <ele>86.8</ele>
        <time>2015-05-11T20:34:13.532Z</time>
      </trkpt>
      <trkpt lat="48.83074" lon="2.2584">
        <ele>86.8</ele>
        <time>2015-05-11T20:34:14.539Z</time>
      </trkpt>
      <trkpt lat="48.83069" lon="2.25848">
        <ele>86.4</ele>
        <time>2015-05-11T20:34:16.567Z</time>
      </trkpt>
      <trkpt lat="48.83067" lon="2.25853">
        <ele>86.2</ele>
        <time>2015-05-11T20:34:17.486Z</time>
      </trkpt>
      <trkpt lat="48.83063" lon="2.25862">
        <ele>86</ele>
        <time>2015-05-11T20:34:19.531Z</time>
      </trkpt>
      <trkpt lat="48.83061" lon="2.25867">
        <ele>85.9</ele>
        <time>2015-05-11T20:34:20.494Z</time>
      </trkpt>
      <trkpt lat="48.83056" lon="2.25877">
        <ele>85.8</ele>
        <time>2015-05-11T20:34:22.481Z</time>
      </trkpt>
      <trkpt lat="48.83054" lon="2.25882">
        <ele>85.5</ele>
        <time>2015-05-11T20:34:23.501Z</time>
      </trkpt>
      <trkpt lat="48.8305" lon="2.25893">
        <ele>85.4</ele>
        <time>2015-05-11T20:34:26.344Z</time>
      </trkpt>
      <trkpt lat="48.83047" lon="2.25897">
        <ele>85.3</ele>
        <time>2015-05-11T20:34:26.462Z</time>
      </trkpt>
      <trkpt lat="48.83043" lon="2.25908">
        <ele>84.9</ele>
        <time>2015-05-11T20:34:28.477Z</time>
      </trkpt>
      <trkpt lat="48.8304" lon="2.25913">
        <ele>84.8</ele>
        <time>2015-05-11T20:34:29.492Z</time>
      </trkpt>
      <trkpt lat="48.83036" lon="2.25924">
        <ele>84.5</ele>
        <time>2015-05-11T20:34:31.482Z</time>
      </trkpt>
      <trkpt lat="48.83034" lon="2.25929">
        <ele>84</ele>
        <time>2015-05-11T20:34:32.492Z</time>
      </trkpt>
      <trkpt lat="48.83029" lon="2.2594">
        <ele>83.2</ele>
        <time>2015-05-11T20:34:34.569Z</time>
      </trkpt>
      <trkpt lat="48.83027" lon="2.25945">
        <ele>82.9</ele>
        <time>2015-05-11T20:34:35.589Z</time>
      </trkpt>
      <trkpt lat="48.83022" lon="2.25955">
        <ele>82.6</ele>
        <time>2015-05-11T20:34:37.504Z</time>
      </trkpt>
      <trkpt lat="48.8302" lon="2.2596">
        <ele>82.4</ele>
        <time>2015-05-11T20:34:38.592Z</time>
      </trkpt>
      <trkpt lat="48.83015" lon="2.25971">
        <ele>82.1</ele>
        <time>2015-05-11T20:34:40.488Z</time>
      </trkpt>
      <trkpt lat="48.83013" lon="2.25976">
        <ele>81.9</ele>
        <time>2015-05-11T20:34:41.597Z</time>
      </trkpt>
      <trkpt lat="48.8301" lon="2.25987">
        <ele>81.3</ele>
        <time>2015-05-11T20:34:43.548Z</time>
      </trkpt>
      <trkpt lat="48.83008" lon="2.25992">
        <ele>80.5</ele>
        <time>2015-05-11T20:34:44.478Z</time>
      </trkpt>
      <trkpt lat="48.83004" lon="2.26004">
        <ele>80.6</ele>
        <time>2015-05-11T20:34:46.496Z</time>
      </trkpt>
      <trkpt lat="48.83003" lon="2.2601">
        <ele>80.6</ele>
        <time>2015-05-11T20:34:47.501Z</time>
      </trkpt>
      <trkpt lat="48.82999" lon="2.26021">
        <ele>80.7</ele>
        <time>2015-05-11T20:34:49.488Z</time>
      </trkpt>
      <trkpt lat="48.82997" lon="2.26026">
        <ele>80.6</ele>
        <time>2015-05-11T20:34:50.514Z</time>
      </trkpt>
      <trkpt lat="48.82992" lon="2.26037">
        <ele>80.1</ele>
        <time>2015-05-11T20:34:52.659Z</time>
      </trkpt>
      <trkpt lat="48.8299" lon="2.26043">
        <ele>79.8</ele>
        <time>2015-05-11T20:34:53.553Z</time>
      </trkpt>
      <trkpt lat="48.82986" lon="2.26052">
        <ele>79.5</ele>
        <time>2015-05-11T20:34:55.492Z</time>
      </trkpt>
      <trkpt lat="48.82984" lon="2.26057">
        <ele>79.6</ele>
        <time>2015-05-11T20:34:56.815Z</time>
      </trkpt>
      <trkpt lat="48.82979" lon="2.26067">
        <ele>79.6</ele>
        <time>2015-05-11T20:34:58.509Z</time>
      </trkpt>
      <trkpt lat="48.82976" lon="2.26072">
        <ele>79.9</ele>
        <time>2015-05-11T20:34:59.520Z</time>
      </trkpt>
      <trkpt lat="48.82974" lon="2.26077">
        <ele>80</ele>
        <time>2015-05-11T20:35:00.520Z</time>
      </trkpt>
      <trkpt lat="48.82972" lon="2.26084">
        <ele>80.1</ele>
        <time>2015-05-11T20:35:01.641Z</time>
      </trkpt>
      <trkpt lat="48.82969" lon="2.26093">
        <ele>79.1</ele>
        <time>2015-05-11T20:35:02.740Z</time>
      </trkpt>
      <trkpt lat="48.82967" lon="2.26101">
        <ele>79.1</ele>
        <time>2015-05-11T20:35:03.474Z</time>
      </trkpt>
      <trkpt lat="48.82965" lon="2.26109">
        <ele>79.1</ele>
        <time>2015-05-11T20:35:04.504Z</time>
      </trkpt>
      <trkpt lat="48.82963" lon="2.26117">
        <ele>79.1</ele>
        <time>2015-05-11T20:35:05.517Z</time>
      </trkpt>
      <trkpt lat="48.82962" lon="2.26126">
        <ele>78.9</ele>
        <time>2015-05-11T20:35:06.576Z</time>
      </trkpt>
      <trkpt lat="48.82959" lon="2.26136">
        <ele>78.7</ele>
        <time>2015-05-11T20:35:07.578Z</time>
      </trkpt>
      <trkpt lat="48.82956" lon="2.26148">
        <ele>79</ele>
        <time>2015-05-11T20:35:08.489Z</time>
      </trkpt>
      <trkpt lat="48.82954" lon="2.26158">
        <ele>79.4</ele>
        <time>2015-05-11T20:35:09.501Z</time>
      </trkpt>
      <trkpt lat="48.82952" lon="2.26169">
        <ele>79.5</ele>
        <time>2015-05-11T20:35:10.530Z</time>
      </trkpt>
      <trkpt lat="48.8295" lon="2.2618">
        <ele>79.6</ele>
        <time>2015-05-11T20:35:11.559Z</time>
      </trkpt>
      <trkpt lat="48.82949" lon="2.26191">
        <ele>79.7</ele>
        <time>2015-05-11T20:35:12.581Z</time>
      </trkpt>
      <trkpt lat="48.82947" lon="2.26201">
        <ele>79.7</ele>
        <time>2015-05-11T20:35:13.487Z</time>
      </trkpt>
      <trkpt lat="48.82946" lon="2.26212">
        <ele>79.5</ele>
        <time>2015-05-11T20:35:14.499Z</time>
      </trkpt>
      <trkpt lat="48.82946" lon="2.26224">
        <ele>79.5</ele>
        <time>2015-05-11T20:35:15.468Z</time>
      </trkpt>
      <trkpt lat="48.82944" lon="2.26235">
        <ele>79.4</ele>
        <time>2015-05-11T20:35:16.471Z</time>
      </trkpt>
      <trkpt lat="48.82941" lon="2.26245">
        <ele>79.3</ele>
        <time>2015-05-11T20:35:17.501Z</time>
      </trkpt>
      <trkpt lat="48.82938" lon="2.26255">
        <ele>79</ele>
        <time>2015-05-11T20:35:18.532Z</time>
      </trkpt>
      <trkpt lat="48.82934" lon="2.26263">
        <ele>78.6</ele>
        <time>2015-05-11T20:35:19.540Z</time>
      </trkpt>
      <trkpt lat="48.82929" lon="2.2627">
        <ele>78.4</ele>
        <time>2015-05-11T20:35:20.552Z</time>
      </trkpt>
      <trkpt lat="48.82924" lon="2.26277">
        <ele>78</ele>
        <time>2015-05-11T20:35:21.553Z</time>
      </trkpt>
      <trkpt lat="48.8292" lon="2.26284">
        <ele>77.6</ele>
        <time>2015-05-11T20:35:22.563Z</time>
      </trkpt>
      <trkpt lat="48.82912" lon="2.26299">
        <ele>77.3</ele>
        <time>2015-05-11T20:35:24.592Z</time>
      </trkpt>
      <trkpt lat="48.82909" lon="2.26307">
        <ele>77.2</ele>
        <time>2015-05-11T20:35:25.491Z</time>
      </trkpt>
      <trkpt lat="48.82907" lon="2.26322">
        <ele>77.1</ele>
        <time>2015-05-11T20:35:27.531Z</time>
      </trkpt>
      <trkpt lat="48.82908" lon="2.26336">
        <ele>77.7</ele>
        <time>2015-05-11T20:35:29.510Z</time>
      </trkpt>
      <trkpt lat="48.82907" lon="2.26341">
        <ele>77.8</ele>
        <time>2015-05-11T20:35:30.500Z</time>
      </trkpt>
      <trkpt lat="48.82909" lon="2.26354">
        <ele>77.7</ele>
        <time>2015-05-11T20:35:32.520Z</time>
      </trkpt>
      <trkpt lat="48.82911" lon="2.2636">
        <ele>77.1</ele>
        <time>2015-05-11T20:35:33.444Z</time>
      </trkpt>
      <trkpt lat="48.82911" lon="2.26373">
        <ele>75.4</ele>
        <time>2015-05-11T20:35:35.511Z</time>
      </trkpt>
      <trkpt lat="48.82913" lon="2.26378">
        <ele>74.8</ele>
        <time>2015-05-11T20:35:36.523Z</time>
      </trkpt>
      <trkpt lat="48.82915" lon="2.26384">
        <ele>74.4</ele>
        <time>2015-05-11T20:35:37.534Z</time>
      </trkpt>
      <trkpt lat="48.82918" lon="2.2639">
        <ele>74.4</ele>
        <time>2015-05-11T20:35:38.527Z</time>
      </trkpt>
      <trkpt lat="48.82921" lon="2.26395">
        <ele>74.2</ele>
        <time>2015-05-11T20:35:39.496Z</time>
      </trkpt>
      <trkpt lat="48.82924" lon="2.26399">
        <ele>74.4</ele>
        <time>2015-05-11T20:35:40.506Z</time>
      </trkpt>
      <trkpt lat="48.82931" lon="2.26407">
        <ele>75.1</ele>
        <time>2015-05-11T20:35:42.548Z</time>
      </trkpt>
      <trkpt lat="48.82935" lon="2.26412">
        <ele>75.8</ele>
        <time>2015-05-11T20:35:43.509Z</time>
      </trkpt>
      <trkpt lat="48.82939" lon="2.26416">
        <ele>76.1</ele>
        <time>2015-05-11T20:35:44.454Z</time>
      </trkpt>
      <trkpt lat="48.82943" lon="2.26421">
        <ele>76.6</ele>
        <time>2015-05-11T20:35:45.473Z</time>
      </trkpt>
      <trkpt lat="48.82946" lon="2.26426">
        <ele>77</ele>
        <time>2015-05-11T20:35:46.544Z</time>
      </trkpt>
      <trkpt lat="48.8295" lon="2.26431">
        <ele>78</ele>
        <time>2015-05-11T20:35:47.551Z</time>
      </trkpt>
      <trkpt lat="48.82953" lon="2.26436">
        <ele>79.1</ele>
        <time>2015-05-11T20:35:48.562Z</time>
      </trkpt>
      <trkpt lat="48.82958" lon="2.26441">
        <ele>79.8</ele>
        <time>2015-05-11T20:35:49.584Z</time>
      </trkpt>
      <trkpt lat="48.82963" lon="2.26446">
        <ele>80.3</ele>
        <time>2015-05-11T20:35:50.483Z</time>
      </trkpt>
      <trkpt lat="48.8297" lon="2.26451">
        <ele>81</ele>
        <time>2015-05-11T20:35:51.489Z</time>
      </trkpt>
      <trkpt lat="48.82977" lon="2.26456">
        <ele>81.9</ele>
        <time>2015-05-11T20:35:52.509Z</time>
      </trkpt>
      <trkpt lat="48.82982" lon="2.2646">
        <ele>82.7</ele>
        <time>2015-05-11T20:35:53.515Z</time>
      </trkpt>
      <trkpt lat="48.82987" lon="2.26464">
        <ele>83.5</ele>
        <time>2015-05-11T20:35:54.537Z</time>
      </trkpt>
      <trkpt lat="48.82991" lon="2.26467">
        <ele>84</ele>
        <time>2015-05-11T20:35:55.555Z</time>
      </trkpt>
      <trkpt lat="48.82997" lon="2.26472">
        <ele>84.4</ele>
        <time>2015-05-11T20:35:56.553Z</time>
      </trkpt>
      <trkpt lat="48.83002" lon="2.26477">
        <ele>84.8</ele>
        <time>2015-05-11T20:35:57.471Z</time>
      </trkpt>
      <trkpt lat="48.83006" lon="2.26483">
        <ele>84.9</ele>
        <time>2015-05-11T20:35:58.469Z</time>
      </trkpt>
      <trkpt lat="48.83011" lon="2.26488">
        <ele>84.9</ele>
        <time>2015-05-11T20:35:59.511Z</time>
      </trkpt>
      <trkpt lat="48.83016" lon="2.26492">
        <ele>84.9</ele>
        <time>2015-05-11T20:36:00.514Z</time>
      </trkpt>
      <trkpt lat="48.83022" lon="2.26497">
        <ele>84.9</ele>
        <time>2015-05-11T20:36:01.527Z</time>
      </trkpt>
      <trkpt lat="48.8303" lon="2.26504">
        <ele>84.9</ele>
        <time>2015-05-11T20:36:02.547Z</time>
      </trkpt>
      <trkpt lat="48.83035" lon="2.26511">
        <ele>85.1</ele>
        <time>2015-05-11T20:36:03.559Z</time>
      </trkpt>
      <trkpt lat="48.8304" lon="2.26517">
        <ele>85.4</ele>
        <time>2015-05-11T20:36:04.493Z</time>
      </trkpt>
      <trkpt lat="48.83045" lon="2.26522">
        <ele>85.9</ele>
        <time>2015-05-11T20:36:05.549Z</time>
      </trkpt>
      <trkpt lat="48.83049" lon="2.26527">
        <ele>86</ele>
        <time>2015-05-11T20:36:06.585Z</time>
      </trkpt>
      <trkpt lat="48.83051" lon="2.26534">
        <ele>86.7</ele>
        <time>2015-05-11T20:36:07.478Z</time>
      </trkpt>
      <trkpt lat="48.83053" lon="2.26544">
        <ele>89.6</ele>
        <time>2015-05-11T20:36:08.477Z</time>
      </trkpt>
      <trkpt lat="48.83056" lon="2.26552">
        <ele>90.5</ele>
        <time>2015-05-11T20:36:09.484Z</time>
      </trkpt>
      <trkpt lat="48.83061" lon="2.26561">
        <ele>91.4</ele>
        <time>2015-05-11T20:36:10.493Z</time>
      </trkpt>
      <trkpt lat="48.83069" lon="2.26571">
        <ele>92.1</ele>
        <time>2015-05-11T20:36:11.504Z</time>
      </trkpt>
      <trkpt lat="48.83074" lon="2.2658">
        <ele>92.6</ele>
        <time>2015-05-11T20:36:12.553Z</time>
      </trkpt>
      <trkpt lat="48.8308" lon="2.26591">
        <ele>92.7</ele>
        <time>2015-05-11T20:36:13.636Z</time>
      </trkpt>
      <trkpt lat="48.83085" lon="2.266">
        <ele>92.9</ele>
        <time>2015-05-11T20:36:14.475Z</time>
      </trkpt>
      <trkpt lat="48.8309" lon="2.26607">
        <ele>93</ele>
        <time>2015-05-11T20:36:15.482Z</time>
      </trkpt>
      <trkpt lat="48.83094" lon="2.26614">
        <ele>93.8</ele>
        <time>2015-05-11T20:36:16.493Z</time>
      </trkpt>
      <trkpt lat="48.83097" lon="2.26621">
        <ele>94.2</ele>
        <time>2015-05-11T20:36:17.501Z</time>
      </trkpt>
      <trkpt lat="48.831" lon="2.26628">
        <ele>95</ele>
        <time>2015-05-11T20:36:18.538Z</time>
      </trkpt>
      <trkpt lat="48.83103" lon="2.26634">
        <ele>95.4</ele>
        <time>2015-05-11T20:36:19.546Z</time>
      </trkpt>
      <trkpt lat="48.83107" lon="2.26641">
        <ele>95.7</ele>
        <time>2015-05-11T20:36:20.549Z</time>
      </trkpt>
      <trkpt lat="48.83112" lon="2.26647">
        <ele>96.1</ele>
        <time>2015-05-11T20:36:21.430Z</time>
      </trkpt>
      <trkpt lat="48.83116" lon="2.26653">
        <ele>95.7</ele>
        <time>2015-05-11T20:36:22.460Z</time>
      </trkpt>
      <trkpt lat="48.8312" lon="2.26657">
        <ele>95.9</ele>
        <time>2015-05-11T20:36:23.471Z</time>
      </trkpt>
      <trkpt lat="48.83123" lon="2.26663">
        <ele>96.3</ele>
        <time>2015-05-11T20:36:24.481Z</time>
      </trkpt>
      <trkpt lat="48.8313" lon="2.26668">
        <ele>95.7</ele>
        <time>2015-05-11T20:36:25.499Z</time>
      </trkpt>
      <trkpt lat="48.83135" lon="2.26673">
        <ele>95.9</ele>
        <time>2015-05-11T20:36:26.641Z</time>
      </trkpt>
      <trkpt lat="48.83139" lon="2.26678">
        <ele>95.2</ele>
        <time>2015-05-11T20:36:27.504Z</time>
      </trkpt>
      <trkpt lat="48.83142" lon="2.26684">
        <ele>95</ele>
        <time>2015-05-11T20:36:28.518Z</time>
      </trkpt>
      <trkpt lat="48.83145" lon="2.2669">
        <ele>95</ele>
        <time>2015-05-11T20:36:29.551Z</time>
      </trkpt>
      <trkpt lat="48.83149" lon="2.26696">
        <ele>94.9</ele>
        <time>2015-05-11T20:36:30.579Z</time>
      </trkpt>
      <trkpt lat="48.83152" lon="2.26702">
        <ele>95.2</ele>
        <time>2015-05-11T20:36:31.470Z</time>
      </trkpt>
      <trkpt lat="48.83156" lon="2.26708">
        <ele>95.4</ele>
        <time>2015-05-11T20:36:32.493Z</time>
      </trkpt>
      <trkpt lat="48.8316" lon="2.26714">
        <ele>95.8</ele>
        <time>2015-05-11T20:36:33.495Z</time>
      </trkpt>
      <trkpt lat="48.83164" lon="2.2672">
        <ele>96</ele>
        <time>2015-05-11T20:36:34.509Z</time>
      </trkpt>
      <trkpt lat="48.83168" lon="2.26726">
        <ele>96.2</ele>
        <time>2015-05-11T20:36:35.516Z</time>
      </trkpt>
      <trkpt lat="48.83171" lon="2.26732">
        <ele>95.8</ele>
        <time>2015-05-11T20:36:36.526Z</time>
      </trkpt>
      <trkpt lat="48.83173" lon="2.26738">
        <ele>95.9</ele>
        <time>2015-05-11T20:36:37.529Z</time>
      </trkpt>
      <trkpt lat="48.83176" lon="2.26744">
        <ele>95.9</ele>
        <time>2015-05-11T20:36:38.540Z</time>
      </trkpt>
      <trkpt lat="48.83177" lon="2.26751">
        <ele>96</ele>
        <time>2015-05-11T20:36:39.456Z</time>
      </trkpt>
      <trkpt lat="48.83179" lon="2.26758">
        <ele>95.8</ele>
        <time>2015-05-11T20:36:40.455Z</time>
      </trkpt>
      <trkpt lat="48.83181" lon="2.26763">
        <ele>95.1</ele>
        <time>2015-05-11T20:36:41.460Z</time>
      </trkpt>
      <trkpt lat="48.83185" lon="2.26769">
        <ele>94.2</ele>
        <time>2015-05-11T20:36:42.500Z</time>
      </trkpt>
      <trkpt lat="48.83188" lon="2.26776">
        <ele>94.1</ele>
        <time>2015-05-11T20:36:43.498Z</time>
      </trkpt>
      <trkpt lat="48.83192" lon="2.26784">
        <ele>93.7</ele>
        <time>2015-05-11T20:36:44.530Z</time>
      </trkpt>
      <trkpt lat="48.83195" lon="2.26792">
        <ele>93.5</ele>
        <time>2015-05-11T20:36:45.537Z</time>
      </trkpt>
      <trkpt lat="48.83199" lon="2.26799">
        <ele>93.6</ele>
        <time>2015-05-11T20:36:46.544Z</time>
      </trkpt>
      <trkpt lat="48.83204" lon="2.26807">
        <ele>93.8</ele>
        <time>2015-05-11T20:36:47.451Z</time>
      </trkpt>
      <trkpt lat="48.83208" lon="2.26813">
        <ele>94</ele>
        <time>2015-05-11T20:36:48.556Z</time>
      </trkpt>
      <trkpt lat="48.83213" lon="2.26819">
        <ele>93.7</ele>
        <time>2015-05-11T20:36:49.485Z</time>
      </trkpt>
      <trkpt lat="48.83216" lon="2.26826">
        <ele>93.5</ele>
        <time>2015-05-11T20:36:50.727Z</time>
      </trkpt>
      <trkpt lat="48.83221" lon="2.26832">
        <ele>93.8</ele>
        <time>2015-05-11T20:36:51.482Z</time>
      </trkpt>
      <trkpt lat="48.83226" lon="2.26839">
        <ele>93.8</ele>
        <time>2015-05-11T20:36:52.500Z</time>
      </trkpt>
      <trkpt lat="48.8323" lon="2.26845">
        <ele>93.6</ele>
        <time>2015-05-11T20:36:53.500Z</time>
      </trkpt>
      <trkpt lat="48.83234" lon="2.26851">
        <ele>93.4</ele>
        <time>2015-05-11T20:36:54.529Z</time>
      </trkpt>
      <trkpt lat="48.83239" lon="2.26858">
        <ele>93.1</ele>
        <time>2015-05-11T20:36:55.531Z</time>
      </trkpt>
      <trkpt lat="48.83243" lon="2.26864">
        <ele>93.1</ele>
        <time>2015-05-11T20:36:56.553Z</time>
      </trkpt>
      <trkpt lat="48.83247" lon="2.2687">
        <ele>92.9</ele>
        <time>2015-05-11T20:36:57.568Z</time>
      </trkpt>
      <trkpt lat="48.83252" lon="2.26874">
        <ele>93.1</ele>
        <time>2015-05-11T20:36:58.466Z</time>
      </trkpt>
      <trkpt lat="48.83255" lon="2.26878">
        <ele>92.8</ele>
        <time>2015-05-11T20:36:59.504Z</time>
      </trkpt>
      <trkpt lat="48.8326" lon="2.26883">
        <ele>93.1</ele>
        <time>2015-05-11T20:37:00.529Z</time>
      </trkpt>
      <trkpt lat="48.83266" lon="2.2689">
        <ele>93.7</ele>
        <time>2015-05-11T20:37:01.559Z</time>
      </trkpt>
      <trkpt lat="48.8327" lon="2.26897">
        <ele>93.7</ele>
        <time>2015-05-11T20:37:02.466Z</time>
      </trkpt>
      <trkpt lat="48.83274" lon="2.26904">
        <ele>94.7</ele>
        <time>2015-05-11T20:37:03.468Z</time>
      </trkpt>
      <trkpt lat="48.83278" lon="2.26912">
        <ele>95.1</ele>
        <time>2015-05-11T20:37:04.475Z</time>
      </trkpt>
      <trkpt lat="48.83282" lon="2.26919">
        <ele>95.3</ele>
        <time>2015-05-11T20:37:05.490Z</time>
      </trkpt>
      <trkpt lat="48.83286" lon="2.26926">
        <ele>95.4</ele>
        <time>2015-05-11T20:37:06.553Z</time>
      </trkpt>
      <trkpt lat="48.8329" lon="2.26933">
        <ele>95.5</ele>
        <time>2015-05-11T20:37:07.561Z</time>
      </trkpt>
      <trkpt lat="48.83294" lon="2.26939">
        <ele>96</ele>
        <time>2015-05-11T20:37:08.440Z</time>
      </trkpt>
      <trkpt lat="48.83299" lon="2.26945">
        <ele>96.4</ele>
        <time>2015-05-11T20:37:09.466Z</time>
      </trkpt>
      <trkpt lat="48.83301" lon="2.26952">
        <ele>96.9</ele>
        <time>2015-05-11T20:37:10.487Z</time>
      </trkpt>
      <trkpt lat="48.83305" lon="2.26959">
        <ele>97.4</ele>
        <time>2015-05-11T20:37:11.497Z</time>
      </trkpt>
      <trkpt lat="48.83308" lon="2.26965">
        <ele>97.3</ele>
        <time>2015-05-11T20:37:12.520Z</time>
      </trkpt>
      <trkpt lat="48.8331" lon="2.26971">
        <ele>97.4</ele>
        <time>2015-05-11T20:37:13.532Z</time>
      </trkpt>
      <trkpt lat="48.83314" lon="2.26977">
        <ele>97.6</ele>
        <time>2015-05-11T20:37:14.464Z</time>
      </trkpt>
      <trkpt lat="48.83317" lon="2.26984">
        <ele>97.3</ele>
        <time>2015-05-11T20:37:15.470Z</time>
      </trkpt>
      <trkpt lat="48.83319" lon="2.2699">
        <ele>97.2</ele>
        <time>2015-05-11T20:37:16.476Z</time>
      </trkpt>
      <trkpt lat="48.83321" lon="2.26996">
        <ele>96.9</ele>
        <time>2015-05-11T20:37:17.482Z</time>
      </trkpt>
      <trkpt lat="48.83324" lon="2.27002">
        <ele>97.1</ele>
        <time>2015-05-11T20:37:18.511Z</time>
      </trkpt>
      <trkpt lat="48.83328" lon="2.27008">
        <ele>97.3</ele>
        <time>2015-05-11T20:37:19.520Z</time>
      </trkpt>
      <trkpt lat="48.83331" lon="2.27014">
        <ele>97.2</ele>
        <time>2015-05-11T20:37:20.541Z</time>
      </trkpt>
      <trkpt lat="48.83335" lon="2.27019">
        <ele>97.1</ele>
        <time>2015-05-11T20:37:21.468Z</time>
      </trkpt>
      <trkpt lat="48.83338" lon="2.27025">
        <ele>96.7</ele>
        <time>2015-05-11T20:37:22.470Z</time>
      </trkpt>
      <trkpt lat="48.83341" lon="2.2703">
        <ele>96.6</ele>
        <time>2015-05-11T20:37:23.478Z</time>
      </trkpt>
      <trkpt lat="48.83343" lon="2.27036">
        <ele>96.3</ele>
        <time>2015-05-11T20:37:24.493Z</time>
      </trkpt>
      <trkpt lat="48.83346" lon="2.27043">
        <ele>96.2</ele>
        <time>2015-05-11T20:37:25.510Z</time>
      </trkpt>
      <trkpt lat="48.83349" lon="2.27049">
        <ele>95.8</ele>
        <time>2015-05-11T20:37:26.519Z</time>
      </trkpt>
      <trkpt lat="48.83352" lon="2.27054">
        <ele>95.5</ele>
        <time>2015-05-11T20:37:27.551Z</time>
      </trkpt>
      <trkpt lat="48.83358" lon="2.27064">
        <ele>94</ele>
        <time>2015-05-11T20:37:29.464Z</time>
      </trkpt>
      <trkpt lat="48.8336" lon="2.2707">
        <ele>94</ele>
        <time>2015-05-11T20:37:30.580Z</time>
      </trkpt>
      <trkpt lat="48.83362" lon="2.27076">
        <ele>93.7</ele>
        <time>2015-05-11T20:37:31.483Z</time>
      </trkpt>
      <trkpt lat="48.83363" lon="2.27083">
        <ele>93.8</ele>
        <time>2015-05-11T20:37:32.497Z</time>
      </trkpt>
      <trkpt lat="48.83365" lon="2.27096">
        <ele>93.4</ele>
        <time>2015-05-11T20:37:34.524Z</time>
      </trkpt>
      <trkpt lat="48.83367" lon="2.27102">
        <ele>93.2</ele>
        <time>2015-05-11T20:37:35.489Z</time>
      </trkpt>
      <trkpt lat="48.83369" lon="2.27109">
        <ele>93.3</ele>
        <time>2015-05-11T20:37:36.513Z</time>
      </trkpt>
      <trkpt lat="48.83372" lon="2.27115">
        <ele>93</ele>
        <time>2015-05-11T20:37:37.527Z</time>
      </trkpt>
      <trkpt lat="48.83375" lon="2.27121">
        <ele>92.6</ele>
        <time>2015-05-11T20:37:38.547Z</time>
      </trkpt>
      <trkpt lat="48.83378" lon="2.27127">
        <ele>92.6</ele>
        <time>2015-05-11T20:37:39.537Z</time>
      </trkpt>
      <trkpt lat="48.83383" lon="2.27133">
        <ele>91.7</ele>
        <time>2015-05-11T20:37:40.464Z</time>
      </trkpt>
      <trkpt lat="48.83388" lon="2.27138">
        <ele>91.6</ele>
        <time>2015-05-11T20:37:41.473Z</time>
      </trkpt>
      <trkpt lat="48.83392" lon="2.27144">
        <ele>91.5</ele>
        <time>2015-05-11T20:37:42.507Z</time>
      </trkpt>
      <trkpt lat="48.83395" lon="2.2715">
        <ele>91.3</ele>
        <time>2015-05-11T20:37:43.498Z</time>
      </trkpt>
      <trkpt lat="48.83403" lon="2.27156">
        <ele>92.1</ele>
        <time>2015-05-11T20:37:44.522Z</time>
      </trkpt>
      <trkpt lat="48.83407" lon="2.27163">
        <ele>92.2</ele>
        <time>2015-05-11T20:37:45.538Z</time>
      </trkpt>
      <trkpt lat="48.83411" lon="2.2717">
        <ele>92.2</ele>
        <time>2015-05-11T20:37:46.537Z</time>
      </trkpt>
      <trkpt lat="48.83415" lon="2.27177">
        <ele>92.2</ele>
        <time>2015-05-11T20:37:47.469Z</time>
      </trkpt>
      <trkpt lat="48.83418" lon="2.27184">
        <ele>92.1</ele>
        <time>2015-05-11T20:37:48.481Z</time>
      </trkpt>
      <trkpt lat="48.83421" lon="2.2719">
        <ele>91.9</ele>
        <time>2015-05-11T20:37:49.483Z</time>
      </trkpt>
      <trkpt lat="48.83424" lon="2.27198">
        <ele>92.1</ele>
        <time>2015-05-11T20:37:50.508Z</time>
      </trkpt>
      <trkpt lat="48.83427" lon="2.27205">
        <ele>92.1</ele>
        <time>2015-05-11T20:37:51.519Z</time>
      </trkpt>
      <trkpt lat="48.83429" lon="2.27213">
        <ele>92.1</ele>
        <time>2015-05-11T20:37:52.528Z</time>
      </trkpt>
      <trkpt lat="48.83433" lon="2.2722">
        <ele>92.1</ele>
        <time>2015-05-11T20:37:53.533Z</time>
      </trkpt>
      <trkpt lat="48.83436" lon="2.27227">
        <ele>91.8</ele>
        <time>2015-05-11T20:37:54.562Z</time>
      </trkpt>
      <trkpt lat="48.83439" lon="2.27234">
        <ele>91.7</ele>
        <time>2015-05-11T20:37:55.566Z</time>
      </trkpt>
      <trkpt lat="48.83443" lon="2.27241">
        <ele>91.9</ele>
        <time>2015-05-11T20:37:56.470Z</time>
      </trkpt>
      <trkpt lat="48.83448" lon="2.27247">
        <ele>92.1</ele>
        <time>2015-05-11T20:37:57.483Z</time>
      </trkpt>
      <trkpt lat="48.83452" lon="2.27253">
        <ele>92</ele>
        <time>2015-05-11T20:37:58.486Z</time>
      </trkpt>
      <trkpt lat="48.83456" lon="2.2726">
        <ele>92.1</ele>
        <time>2015-05-11T20:37:59.492Z</time>
      </trkpt>
      <trkpt lat="48.83459" lon="2.27267">
        <ele>92.1</ele>
        <time>2015-05-11T20:38:00.520Z</time>
      </trkpt>
      <trkpt lat="48.83462" lon="2.27273">
        <ele>91.7</ele>
        <time>2015-05-11T20:38:01.539Z</time>
      </trkpt>
      <trkpt lat="48.83465" lon="2.2728">
        <ele>91.9</ele>
        <time>2015-05-11T20:38:02.539Z</time>
      </trkpt>
      <trkpt lat="48.83468" lon="2.27285">
        <ele>91.7</ele>
        <time>2015-05-11T20:38:03.537Z</time>
      </trkpt>
      <trkpt lat="48.83471" lon="2.27292">
        <ele>91.4</ele>
        <time>2015-05-11T20:38:04.451Z</time>
      </trkpt>
      <trkpt lat="48.83473" lon="2.273">
        <ele>91.2</ele>
        <time>2015-05-11T20:38:05.455Z</time>
      </trkpt>
      <trkpt lat="48.83473" lon="2.27308">
        <ele>91.5</ele>
        <time>2015-05-11T20:38:06.488Z</time>
      </trkpt>
      <trkpt lat="48.83472" lon="2.27315">
        <ele>91.5</ele>
        <time>2015-05-11T20:38:07.503Z</time>
      </trkpt>
      <trkpt lat="48.83469" lon="2.27322">
        <ele>90.5</ele>
        <time>2015-05-11T20:38:08.436Z</time>
      </trkpt>
      <trkpt lat="48.83466" lon="2.2733">
        <ele>89.7</ele>
        <time>2015-05-11T20:38:09.550Z</time>
      </trkpt>
      <trkpt lat="48.83464" lon="2.27338">
        <ele>89.4</ele>
        <time>2015-05-11T20:38:10.564Z</time>
      </trkpt>
      <trkpt lat="48.83462" lon="2.27345">
        <ele>89.1</ele>
        <time>2015-05-11T20:38:11.497Z</time>
      </trkpt>
      <trkpt lat="48.8346" lon="2.27353">
        <ele>88.3</ele>
        <time>2015-05-11T20:38:12.521Z</time>
      </trkpt>
      <trkpt lat="48.83457" lon="2.2736">
        <ele>87.7</ele>
        <time>2015-05-11T20:38:13.615Z</time>
      </trkpt>
      <trkpt lat="48.83455" lon="2.27368">
        <ele>87.1</ele>
        <time>2015-05-11T20:38:14.452Z</time>
      </trkpt>
      <trkpt lat="48.83453" lon="2.27376">
        <ele>86.6</ele>
        <time>2015-05-11T20:38:15.454Z</time>
      </trkpt>
      <trkpt lat="48.83451" lon="2.27383">
        <ele>86</ele>
        <time>2015-05-11T20:38:16.534Z</time>
      </trkpt>
      <trkpt lat="48.83449" lon="2.2739">
        <ele>85.6</ele>
        <time>2015-05-11T20:38:17.457Z</time>
      </trkpt>
      <trkpt lat="48.83447" lon="2.27397">
        <ele>85.2</ele>
        <time>2015-05-11T20:38:18.511Z</time>
      </trkpt>
      <trkpt lat="48.83446" lon="2.27404">
        <ele>84.9</ele>
        <time>2015-05-11T20:38:19.519Z</time>
      </trkpt>
      <trkpt lat="48.83444" lon="2.27411">
        <ele>84.8</ele>
        <time>2015-05-11T20:38:20.536Z</time>
      </trkpt>
      <trkpt lat="48.83442" lon="2.27418">
        <ele>84.5</ele>
        <time>2015-05-11T20:38:21.535Z</time>
      </trkpt>
      <trkpt lat="48.83441" lon="2.27425">
        <ele>84.6</ele>
        <time>2015-05-11T20:38:22.694Z</time>
      </trkpt>
      <trkpt lat="48.83439" lon="2.27432">
        <ele>84.3</ele>
        <time>2015-05-11T20:38:23.466Z</time>
      </trkpt>
      <trkpt lat="48.83437" lon="2.27438">
        <ele>83.8</ele>
        <time>2015-05-11T20:38:24.494Z</time>
      </trkpt>
      <trkpt lat="48.83435" lon="2.27445">
        <ele>83.3</ele>
        <time>2015-05-11T20:38:25.500Z</time>
      </trkpt>
      <trkpt lat="48.83433" lon="2.27452">
        <ele>82.7</ele>
        <time>2015-05-11T20:38:26.524Z</time>
      </trkpt>
      <trkpt lat="48.83431" lon="2.27458">
        <ele>82.3</ele>
        <time>2015-05-11T20:38:27.531Z</time>
      </trkpt>
      <trkpt lat="48.83429" lon="2.27464">
        <ele>82.2</ele>
        <time>2015-05-11T20:38:28.428Z</time>
      </trkpt>
      <trkpt lat="48.83426" lon="2.2747">
        <ele>82.1</ele>
        <time>2015-05-11T20:38:29.435Z</time>
      </trkpt>
      <trkpt lat="48.83422" lon="2.27482">
        <ele>81.7</ele>
        <time>2015-05-11T20:38:31.497Z</time>
      </trkpt>
      <trkpt lat="48.83419" lon="2.27487">
        <ele>81.5</ele>
        <time>2015-05-11T20:38:32.523Z</time>
      </trkpt>
      <trkpt lat="48.83417" lon="2.27493">
        <ele>81</ele>
        <time>2015-05-11T20:38:33.542Z</time>
      </trkpt>
      <trkpt lat="48.83414" lon="2.27499">
        <ele>80.7</ele>
        <time>2015-05-11T20:38:34.468Z</time>
      </trkpt>
      <trkpt lat="48.83411" lon="2.27505">
        <ele>80.6</ele>
        <time>2015-05-11T20:38:35.488Z</time>
      </trkpt>
      <trkpt lat="48.83409" lon="2.27511">
        <ele>79.8</ele>
        <time>2015-05-11T20:38:36.499Z</time>
      </trkpt>
      <trkpt lat="48.83406" lon="2.27517">
        <ele>79.5</ele>
        <time>2015-05-11T20:38:37.512Z</time>
      </trkpt>
      <trkpt lat="48.83402" lon="2.27523">
        <ele>79.3</ele>
        <time>2015-05-11T20:38:38.523Z</time>
      </trkpt>
      <trkpt lat="48.83399" lon="2.27528">
        <ele>78.7</ele>
        <time>2015-05-11T20:38:39.529Z</time>
      </trkpt>
      <trkpt lat="48.83396" lon="2.27533">
        <ele>78.3</ele>
        <time>2015-05-11T20:38:40.556Z</time>
      </trkpt>
      <trkpt lat="48.83392" lon="2.27538">
        <ele>78.3</ele>
        <time>2015-05-11T20:38:41.426Z</time>
      </trkpt>
      <trkpt lat="48.83389" lon="2.27543">
        <ele>78.2</ele>
        <time>2015-05-11T20:38:42.469Z</time>
      </trkpt>
      <trkpt lat="48.83385" lon="2.27549">
        <ele>77.9</ele>
        <time>2015-05-11T20:38:43.489Z</time>
      </trkpt>
      <trkpt lat="48.83382" lon="2.27554">
        <ele>77.6</ele>
        <time>2015-05-11T20:38:44.501Z</time>
      </trkpt>
      <trkpt lat="48.83378" lon="2.27559">
        <ele>77.3</ele>
        <time>2015-05-11T20:38:45.514Z</time>
      </trkpt>
      <trkpt lat="48.83374" lon="2.27563">
        <ele>77.1</ele>
        <time>2015-05-11T20:38:46.531Z</time>
      </trkpt>
      <trkpt lat="48.83371" lon="2.27568">
        <ele>76.9</ele>
        <time>2015-05-11T20:38:47.457Z</time>
      </trkpt>
      <trkpt lat="48.83368" lon="2.27573">
        <ele>76.9</ele>
        <time>2015-05-11T20:38:48.477Z</time>
      </trkpt>
      <trkpt lat="48.83361" lon="2.27582">
        <ele>76.5</ele>
        <time>2015-05-11T20:38:50.489Z</time>
      </trkpt>
      <trkpt lat="48.83358" lon="2.27587">
        <ele>75.9</ele>
        <time>2015-05-11T20:38:51.499Z</time>
      </trkpt>
      <trkpt lat="48.83352" lon="2.27596">
        <ele>75.8</ele>
        <time>2015-05-11T20:38:53.612Z</time>
      </trkpt>
      <trkpt lat="48.83349" lon="2.27601">
        <ele>76.2</ele>
        <time>2015-05-11T20:38:54.541Z</time>
      </trkpt>
      <trkpt lat="48.83346" lon="2.27611">
        <ele>76.1</ele>
        <time>2015-05-11T20:38:56.472Z</time>
      </trkpt>
      <trkpt lat="48.83346" lon="2.27615">
        <ele>76.1</ele>
        <time>2015-05-11T20:38:57.487Z</time>
      </trkpt>
      <trkpt lat="48.83347" lon="2.27625">
        <ele>75.4</ele>
        <time>2015-05-11T20:40:24.523Z</time>
      </trkpt>
      <trkpt lat="48.83355" lon="2.27632">
        <ele>75.2</ele>
        <time>2015-05-11T20:40:25.519Z</time>
      </trkpt>
      <trkpt lat="48.8336" lon="2.27639">
        <ele>75.4</ele>
        <time>2015-05-11T20:40:29.484Z</time>
      </trkpt>
      <trkpt lat="48.83361" lon="2.27642">
        <ele>75.6</ele>
        <time>2015-05-11T20:40:30.522Z</time>
      </trkpt>
      <trkpt lat="48.83361" lon="2.27653">
        <ele>75.5</ele>
        <time>2015-05-11T20:40:33.512Z</time>
      </trkpt>
      <trkpt lat="48.8336" lon="2.27657">
        <ele>75.4</ele>
        <time>2015-05-11T20:40:34.529Z</time>
      </trkpt>
      <trkpt lat="48.83358" lon="2.27666">
        <ele>75.4</ele>
        <time>2015-05-11T20:40:36.562Z</time>
      </trkpt>
      <trkpt lat="48.83356" lon="2.27671">
        <ele>75.4</ele>
        <time>2015-05-11T20:40:37.468Z</time>
      </trkpt>
      <trkpt lat="48.83353" lon="2.27679">
        <ele>75.4</ele>
        <time>2015-05-11T20:40:39.486Z</time>
      </trkpt>
      <trkpt lat="48.83353" lon="2.27684">
        <ele>75.5</ele>
        <time>2015-05-11T20:40:40.499Z</time>
      </trkpt>
      <trkpt lat="48.83355" lon="2.27693">
        <ele>75.5</ele>
        <time>2015-05-11T20:40:42.564Z</time>
      </trkpt>
      <trkpt lat="48.83358" lon="2.27697">
        <ele>75.6</ele>
        <time>2015-05-11T20:40:43.482Z</time>
      </trkpt>
      <trkpt lat="48.83364" lon="2.27703">
        <ele>75.8</ele>
        <time>2015-05-11T20:40:45.475Z</time>
      </trkpt>
      <trkpt lat="48.83367" lon="2.27706">
        <ele>75.8</ele>
        <time>2015-05-11T20:40:46.497Z</time>
      </trkpt>
      <trkpt lat="48.83373" lon="2.27712">
        <ele>75.7</ele>
        <time>2015-05-11T20:40:48.543Z</time>
      </trkpt>
      <trkpt lat="48.83379" lon="2.27713">
        <ele>75.8</ele>
        <time>2015-05-11T20:40:49.577Z</time>
      </trkpt>
      <trkpt lat="48.83383" lon="2.27714">
        <ele>75.8</ele>
        <time>2015-05-11T20:40:50.434Z</time>
      </trkpt>
      <trkpt lat="48.83388" lon="2.27715">
        <ele>75.9</ele>
        <time>2015-05-11T20:40:51.464Z</time>
      </trkpt>
      <trkpt lat="48.83396" lon="2.2772">
        <ele>76</ele>
        <time>2015-05-11T20:40:53.521Z</time>
      </trkpt>
      <trkpt lat="48.83402" lon="2.27724">
        <ele>75.9</ele>
        <time>2015-05-11T20:40:54.582Z</time>
      </trkpt>
      <trkpt lat="48.83408" lon="2.27729">
        <ele>75.7</ele>
        <time>2015-05-11T20:40:55.490Z</time>
      </trkpt>
      <trkpt lat="48.83415" lon="2.27732">
        <ele>75.8</ele>
        <time>2015-05-11T20:40:56.495Z</time>
      </trkpt>
      <trkpt lat="48.83422" lon="2.27734">
        <ele>75.8</ele>
        <time>2015-05-11T20:40:57.526Z</time>
      </trkpt>
      <trkpt lat="48.83427" lon="2.27737">
        <ele>76.3</ele>
        <time>2015-05-11T20:40:58.556Z</time>
      </trkpt>
      <trkpt lat="48.83434" lon="2.27743">
        <ele>76.8</ele>
        <time>2015-05-11T20:41:00.470Z</time>
      </trkpt>
      <trkpt lat="48.83437" lon="2.27746">
        <ele>76.8</ele>
        <time>2015-05-11T20:41:01.528Z</time>
      </trkpt>
      <trkpt lat="48.83444" lon="2.27749">
        <ele>77</ele>
        <time>2015-05-11T20:41:03.452Z</time>
      </trkpt>
      <trkpt lat="48.83448" lon="2.27751">
        <ele>76.6</ele>
        <time>2015-05-11T20:41:04.473Z</time>
      </trkpt>
      <trkpt lat="48.83455" lon="2.27754">
        <ele>77</ele>
        <time>2015-05-11T20:41:06.532Z</time>
      </trkpt>
      <trkpt lat="48.83459" lon="2.27755">
        <ele>77.4</ele>
        <time>2015-05-11T20:41:07.536Z</time>
      </trkpt>
      <trkpt lat="48.83467" lon="2.27757">
        <ele>77.8</ele>
        <time>2015-05-11T20:41:09.455Z</time>
      </trkpt>
      <trkpt lat="48.83471" lon="2.27758">
        <ele>78.3</ele>
        <time>2015-05-11T20:41:10.481Z</time>
      </trkpt>
      <trkpt lat="48.83477" lon="2.27759">
        <ele>79.1</ele>
        <time>2015-05-11T20:41:12.536Z</time>
      </trkpt>
      <trkpt lat="48.8348" lon="2.27762">
        <ele>79.5</ele>
        <time>2015-05-11T20:41:13.470Z</time>
      </trkpt>
      <trkpt lat="48.83488" lon="2.27767">
        <ele>80.4</ele>
        <time>2015-05-11T20:41:15.490Z</time>
      </trkpt>
      <trkpt lat="48.83493" lon="2.27769">
        <ele>81</ele>
        <time>2015-05-11T20:41:16.513Z</time>
      </trkpt>
      <trkpt lat="48.83498" lon="2.27771">
        <ele>81.9</ele>
        <time>2015-05-11T20:41:17.434Z</time>
      </trkpt>
      <trkpt lat="48.83503" lon="2.27773">
        <ele>82.5</ele>
        <time>2015-05-11T20:41:18.466Z</time>
      </trkpt>
      <trkpt lat="48.83509" lon="2.27776">
        <ele>83.1</ele>
        <time>2015-05-11T20:41:19.497Z</time>
      </trkpt>
      <trkpt lat="48.83514" lon="2.27778">
        <ele>83.5</ele>
        <time>2015-05-11T20:41:20.531Z</time>
      </trkpt>
      <trkpt lat="48.8352" lon="2.2778">
        <ele>83.9</ele>
        <time>2015-05-11T20:41:21.529Z</time>
      </trkpt>
      <trkpt lat="48.83525" lon="2.27782">
        <ele>84.5</ele>
        <time>2015-05-11T20:41:22.542Z</time>
      </trkpt>
      <trkpt lat="48.83531" lon="2.27785">
        <ele>84.9</ele>
        <time>2015-05-11T20:41:23.591Z</time>
      </trkpt>
      <trkpt lat="48.83536" lon="2.27787">
        <ele>85.3</ele>
        <time>2015-05-11T20:41:24.492Z</time>
      </trkpt>
      <trkpt lat="48.8354" lon="2.27788">
        <ele>85.3</ele>
        <time>2015-05-11T20:41:25.467Z</time>
      </trkpt>
      <trkpt lat="48.83545" lon="2.2779">
        <ele>85.5</ele>
        <time>2015-05-11T20:41:26.462Z</time>
      </trkpt>
      <trkpt lat="48.83553" lon="2.27795">
        <ele>86.3</ele>
        <time>2015-05-11T20:41:28.516Z</time>
      </trkpt>
      <trkpt lat="48.83557" lon="2.27797">
        <ele>86.6</ele>
        <time>2015-05-11T20:41:29.533Z</time>
      </trkpt>
      <trkpt lat="48.83562" lon="2.27799">
        <ele>87</ele>
        <time>2015-05-11T20:41:30.582Z</time>
      </trkpt>
      <trkpt lat="48.83567" lon="2.27801">
        <ele>87.4</ele>
        <time>2015-05-11T20:41:31.491Z</time>
      </trkpt>
      <trkpt lat="48.83572" lon="2.27803">
        <ele>88.1</ele>
        <time>2015-05-11T20:41:32.494Z</time>
      </trkpt>
      <trkpt lat="48.83578" lon="2.27807">
        <ele>88.2</ele>
        <time>2015-05-11T20:41:33.509Z</time>
      </trkpt>
      <trkpt lat="48.83583" lon="2.27812">
        <ele>87.4</ele>
        <time>2015-05-11T20:41:34.510Z</time>
      </trkpt>
      <trkpt lat="48.83589" lon="2.27817">
        <ele>86.6</ele>
        <time>2015-05-11T20:41:35.448Z</time>
      </trkpt>
      <trkpt lat="48.83593" lon="2.27819">
        <ele>86.5</ele>
        <time>2015-05-11T20:41:36.477Z</time>
      </trkpt>
      <trkpt lat="48.83598" lon="2.27822">
        <ele>84.6</ele>
        <time>2015-05-11T20:41:37.478Z</time>
      </trkpt>
      <trkpt lat="48.83603" lon="2.27827">
        <ele>83.6</ele>
        <time>2015-05-11T20:41:39.444Z</time>
      </trkpt>
      <trkpt lat="48.83606" lon="2.27828">
        <ele>82.6</ele>
        <time>2015-05-11T20:41:40.467Z</time>
      </trkpt>
      <trkpt lat="48.83613" lon="2.27831">
        <ele>81.9</ele>
        <time>2015-05-11T20:41:43.493Z</time>
      </trkpt>
      <trkpt lat="48.83615" lon="2.27832">
        <ele>81.9</ele>
        <time>2015-05-11T20:41:44.519Z</time>
      </trkpt>
      <trkpt lat="48.83624" lon="2.27832">
        <ele>81.7</ele>
        <time>2015-05-11T20:41:48.476Z</time>
      </trkpt>
      <trkpt lat="48.83627" lon="2.27832">
        <ele>81.7</ele>
        <time>2015-05-11T20:41:49.504Z</time>
      </trkpt>
      <trkpt lat="48.83634" lon="2.27835">
        <ele>82.4</ele>
        <time>2015-05-11T20:41:51.442Z</time>
      </trkpt>
      <trkpt lat="48.83636" lon="2.27836">
        <ele>82.6</ele>
        <time>2015-05-11T20:41:52.452Z</time>
      </trkpt>
      <trkpt lat="48.83643" lon="2.27837">
        <ele>83.2</ele>
        <time>2015-05-11T20:41:55.527Z</time>
      </trkpt>
      <trkpt lat="48.83647" lon="2.27839">
        <ele>83.3</ele>
        <time>2015-05-11T20:41:56.415Z</time>
      </trkpt>
      <trkpt lat="48.83655" lon="2.27843">
        <ele>83.3</ele>
        <time>2015-05-11T20:41:58.483Z</time>
      </trkpt>
      <trkpt lat="48.8366" lon="2.27846">
        <ele>83.2</ele>
        <time>2015-05-11T20:41:59.501Z</time>
      </trkpt>
      <trkpt lat="48.83668" lon="2.27853">
        <ele>83.5</ele>
        <time>2015-05-11T20:42:00.546Z</time>
      </trkpt>
      <trkpt lat="48.83675" lon="2.2786">
        <ele>83.4</ele>
        <time>2015-05-11T20:42:01.484Z</time>
      </trkpt>
      <trkpt lat="48.83679" lon="2.27865">
        <ele>83.3</ele>
        <time>2015-05-11T20:42:02.494Z</time>
      </trkpt>
      <trkpt lat="48.83684" lon="2.27869">
        <ele>84</ele>
        <time>2015-05-11T20:42:03.502Z</time>
      </trkpt>
      <trkpt lat="48.83691" lon="2.27874">
        <ele>85.1</ele>
        <time>2015-05-11T20:42:05.518Z</time>
      </trkpt>
      <trkpt lat="48.83693" lon="2.27875">
        <ele>85.8</ele>
        <time>2015-05-11T20:42:06.592Z</time>
      </trkpt>
      <trkpt lat="48.83699" lon="2.27881">
        <ele>86.7</ele>
        <time>2015-05-11T20:42:08.469Z</time>
      </trkpt>
      <trkpt lat="48.83703" lon="2.27886">
        <ele>86.3</ele>
        <time>2015-05-11T20:42:09.483Z</time>
      </trkpt>
      <trkpt lat="48.83707" lon="2.27891">
        <ele>86.2</ele>
        <time>2015-05-11T20:42:10.509Z</time>
      </trkpt>
      <trkpt lat="48.83709" lon="2.27896">
        <ele>85.8</ele>
        <time>2015-05-11T20:42:11.516Z</time>
      </trkpt>
      <trkpt lat="48.83712" lon="2.27902">
        <ele>85.3</ele>
        <time>2015-05-11T20:42:12.542Z</time>
      </trkpt>
      <trkpt lat="48.83714" lon="2.27908">
        <ele>84.8</ele>
        <time>2015-05-11T20:42:13.475Z</time>
      </trkpt>
      <trkpt lat="48.83718" lon="2.2792">
        <ele>84.5</ele>
        <time>2015-05-11T20:42:15.471Z</time>
      </trkpt>
      <trkpt lat="48.8372" lon="2.27925">
        <ele>84.2</ele>
        <time>2015-05-11T20:42:16.487Z</time>
      </trkpt>
      <trkpt lat="48.83722" lon="2.27932">
        <ele>84.2</ele>
        <time>2015-05-11T20:42:17.504Z</time>
      </trkpt>
      <trkpt lat="48.83725" lon="2.27937">
        <ele>84.2</ele>
        <time>2015-05-11T20:42:18.508Z</time>
      </trkpt>
      <trkpt lat="48.83728" lon="2.27943">
        <ele>84.1</ele>
        <time>2015-05-11T20:42:18.352Z</time>
      </trkpt>
      <trkpt lat="48.83731" lon="2.27948">
        <ele>83.8</ele>
        <time>2015-05-11T20:42:20.518Z</time>
      </trkpt>
      <trkpt lat="48.83735" lon="2.27953">
        <ele>83.7</ele>
        <time>2015-05-11T20:42:21.545Z</time>
      </trkpt>
      <trkpt lat="48.83739" lon="2.27957">
        <ele>83.4</ele>
        <time>2015-05-11T20:42:22.587Z</time>
      </trkpt>
      <trkpt lat="48.83742" lon="2.27963">
        <ele>83.3</ele>
        <time>2015-05-11T20:42:23.435Z</time>
      </trkpt>
      <trkpt lat="48.83745" lon="2.27969">
        <ele>83.2</ele>
        <time>2015-05-11T20:42:24.509Z</time>
      </trkpt>
      <trkpt lat="48.83748" lon="2.27976">
        <ele>83.1</ele>
        <time>2015-05-11T20:42:25.501Z</time>
      </trkpt>
      <trkpt lat="48.8375" lon="2.27982">
        <ele>83.2</ele>
        <time>2015-05-11T20:42:26.514Z</time>
      </trkpt>
      <trkpt lat="48.83753" lon="2.27988">
        <ele>83.3</ele>
        <time>2015-05-11T20:42:28.398Z</time>
      </trkpt>
      <trkpt lat="48.83755" lon="2.27994">
        <ele>83.1</ele>
        <time>2015-05-11T20:42:28.521Z</time>
      </trkpt>
      <trkpt lat="48.83759" lon="2.27998">
        <ele>83.1</ele>
        <time>2015-05-11T20:42:29.545Z</time>
      </trkpt>
      <trkpt lat="48.83763" lon="2.28002">
        <ele>83.3</ele>
        <time>2015-05-11T20:42:30.548Z</time>
      </trkpt>
      <trkpt lat="48.83767" lon="2.28007">
        <ele>83.5</ele>
        <time>2015-05-11T20:42:31.454Z</time>
      </trkpt>
      <trkpt lat="48.83771" lon="2.28011">
        <ele>83.5</ele>
        <time>2015-05-11T20:42:32.477Z</time>
      </trkpt>
      <trkpt lat="48.83774" lon="2.28017">
        <ele>83.6</ele>
        <time>2015-05-11T20:42:33.480Z</time>
      </trkpt>
      <trkpt lat="48.83776" lon="2.28024">
        <ele>83.8</ele>
        <time>2015-05-11T20:42:34.504Z</time>
      </trkpt>
      <trkpt lat="48.83778" lon="2.2803">
        <ele>83.8</ele>
        <time>2015-05-11T20:42:35.530Z</time>
      </trkpt>
      <trkpt lat="48.83781" lon="2.28035">
        <ele>83.9</ele>
        <time>2015-05-11T20:42:36.526Z</time>
      </trkpt>
      <trkpt lat="48.83784" lon="2.28042">
        <ele>83.5</ele>
        <time>2015-05-11T20:42:37.865Z</time>
      </trkpt>
      <trkpt lat="48.83787" lon="2.28047">
        <ele>83.7</ele>
        <time>2015-05-11T20:42:38.471Z</time>
      </trkpt>
      <trkpt lat="48.8379" lon="2.28052">
        <ele>83.8</ele>
        <time>2015-05-11T20:42:39.475Z</time>
      </trkpt>
      <trkpt lat="48.83793" lon="2.28057">
        <ele>84</ele>
        <time>2015-05-11T20:42:40.484Z</time>
      </trkpt>
      <trkpt lat="48.83796" lon="2.28063">
        <ele>84</ele>
        <time>2015-05-11T20:42:41.488Z</time>
      </trkpt>
      <trkpt lat="48.83799" lon="2.2807">
        <ele>84.2</ele>
        <time>2015-05-11T20:42:42.507Z</time>
      </trkpt>
      <trkpt lat="48.83802" lon="2.28076">
        <ele>84.3</ele>
        <time>2015-05-11T20:42:43.519Z</time>
      </trkpt>
      <trkpt lat="48.83805" lon="2.28083">
        <ele>84.8</ele>
        <time>2015-05-11T20:42:44.525Z</time>
      </trkpt>
      <trkpt lat="48.83808" lon="2.28088">
        <ele>85.2</ele>
        <time>2015-05-11T20:42:45.468Z</time>
      </trkpt>
      <trkpt lat="48.83813" lon="2.28093">
        <ele>85.4</ele>
        <time>2015-05-11T20:42:46.510Z</time>
      </trkpt>
      <trkpt lat="48.83817" lon="2.28097">
        <ele>85.7</ele>
        <time>2015-05-11T20:42:48.041Z</time>
      </trkpt>
      <trkpt lat="48.83821" lon="2.28103">
        <ele>85.8</ele>
        <time>2015-05-11T20:42:48.481Z</time>
      </trkpt>
      <trkpt lat="48.83825" lon="2.28108">
        <ele>85.8</ele>
        <time>2015-05-11T20:42:49.511Z</time>
      </trkpt>
      <trkpt lat="48.8383" lon="2.28113">
        <ele>86</ele>
        <time>2015-05-11T20:42:50.544Z</time>
      </trkpt>
      <trkpt lat="48.83834" lon="2.28119">
        <ele>86.3</ele>
        <time>2015-05-11T20:42:51.429Z</time>
      </trkpt>
      <trkpt lat="48.8384" lon="2.28124">
        <ele>86.4</ele>
        <time>2015-05-11T20:42:52.460Z</time>
      </trkpt>
      <trkpt lat="48.83846" lon="2.28129">
        <ele>86.8</ele>
        <time>2015-05-11T20:42:53.467Z</time>
      </trkpt>
      <trkpt lat="48.83851" lon="2.28135">
        <ele>87.4</ele>
        <time>2015-05-11T20:42:54.506Z</time>
      </trkpt>
      <trkpt lat="48.83857" lon="2.28141">
        <ele>87.4</ele>
        <time>2015-05-11T20:42:55.531Z</time>
      </trkpt>
      <trkpt lat="48.83861" lon="2.28146">
        <ele>87.4</ele>
        <time>2015-05-11T20:42:56.540Z</time>
      </trkpt>
      <trkpt lat="48.83866" lon="2.28151">
        <ele>87.7</ele>
        <time>2015-05-11T20:42:57.456Z</time>
      </trkpt>
      <trkpt lat="48.83871" lon="2.28156">
        <ele>87.9</ele>
        <time>2015-05-11T20:42:58.465Z</time>
      </trkpt>
      <trkpt lat="48.83875" lon="2.28161">
        <ele>88.1</ele>
        <time>2015-05-11T20:42:59.500Z</time>
      </trkpt>
      <trkpt lat="48.83878" lon="2.28168">
        <ele>88</ele>
        <time>2015-05-11T20:43:00.503Z</time>
      </trkpt>
      <trkpt lat="48.83881" lon="2.28175">
        <ele>88.1</ele>
        <time>2015-05-11T20:43:01.557Z</time>
      </trkpt>
      <trkpt lat="48.83883" lon="2.28182">
        <ele>88.8</ele>
        <time>2015-05-11T20:43:02.540Z</time>
      </trkpt>
      <trkpt lat="48.83885" lon="2.2819">
        <ele>89.4</ele>
        <time>2015-05-11T20:43:04.256Z</time>
      </trkpt>
      <trkpt lat="48.83889" lon="2.28195">
        <ele>89.8</ele>
        <time>2015-05-11T20:43:04.450Z</time>
      </trkpt>
      <trkpt lat="48.83892" lon="2.282">
        <ele>89.8</ele>
        <time>2015-05-11T20:43:05.494Z</time>
      </trkpt>
      <trkpt lat="48.83895" lon="2.28207">
        <ele>90</ele>
        <time>2015-05-11T20:43:06.527Z</time>
      </trkpt>
      <trkpt lat="48.83898" lon="2.28213">
        <ele>90</ele>
        <time>2015-05-11T20:43:07.528Z</time>
      </trkpt>
      <trkpt lat="48.83902" lon="2.28218">
        <ele>90.1</ele>
        <time>2015-05-11T20:43:08.482Z</time>
      </trkpt>
      <trkpt lat="48.83906" lon="2.28223">
        <ele>90.1</ele>
        <time>2015-05-11T20:43:09.461Z</time>
      </trkpt>
      <trkpt lat="48.8391" lon="2.28228">
        <ele>90.2</ele>
        <time>2015-05-11T20:43:10.470Z</time>
      </trkpt>
      <trkpt lat="48.83914" lon="2.28233">
        <ele>90.2</ele>
        <time>2015-05-11T20:43:11.485Z</time>
      </trkpt>
      <trkpt lat="48.83919" lon="2.28239">
        <ele>90.5</ele>
        <time>2015-05-11T20:43:12.493Z</time>
      </trkpt>
      <trkpt lat="48.83922" lon="2.28245">
        <ele>90.8</ele>
        <time>2015-05-11T20:43:13.522Z</time>
      </trkpt>
      <trkpt lat="48.83924" lon="2.28251">
        <ele>90.9</ele>
        <time>2015-05-11T20:43:14.533Z</time>
      </trkpt>
      <trkpt lat="48.83927" lon="2.28262">
        <ele>91.2</ele>
        <time>2015-05-11T20:43:16.468Z</time>
      </trkpt>
      <trkpt lat="48.83928" lon="2.2827">
        <ele>91.9</ele>
        <time>2015-05-11T20:43:17.489Z</time>
      </trkpt>
      <trkpt lat="48.83929" lon="2.28277">
        <ele>92.2</ele>
        <time>2015-05-11T20:43:18.539Z</time>
      </trkpt>
      <trkpt lat="48.8393" lon="2.28284">
        <ele>92.3</ele>
        <time>2015-05-11T20:43:19.553Z</time>
      </trkpt>
      <trkpt lat="48.83932" lon="2.2829">
        <ele>92.5</ele>
        <time>2015-05-11T20:43:20.433Z</time>
      </trkpt>
      <trkpt lat="48.83933" lon="2.28296">
        <ele>92.3</ele>
        <time>2015-05-11T20:43:21.437Z</time>
      </trkpt>
      <trkpt lat="48.83936" lon="2.28309">
        <ele>92.9</ele>
        <time>2015-05-11T20:43:23.466Z</time>
      </trkpt>
      <trkpt lat="48.83939" lon="2.28314">
        <ele>92.9</ele>
        <time>2015-05-11T20:43:24.513Z</time>
      </trkpt>
      <trkpt lat="48.83942" lon="2.2832">
        <ele>92.8</ele>
        <time>2015-05-11T20:43:25.487Z</time>
      </trkpt>
      <trkpt lat="48.83945" lon="2.28326">
        <ele>92.6</ele>
        <time>2015-05-11T20:43:26.485Z</time>
      </trkpt>
      <trkpt lat="48.83949" lon="2.28332">
        <ele>92.5</ele>
        <time>2015-05-11T20:43:27.494Z</time>
      </trkpt>
      <trkpt lat="48.83954" lon="2.28338">
        <ele>92.3</ele>
        <time>2015-05-11T20:43:28.512Z</time>
      </trkpt>
      <trkpt lat="48.83956" lon="2.28344">
        <ele>92.3</ele>
        <time>2015-05-11T20:43:29.515Z</time>
      </trkpt>
      <trkpt lat="48.83958" lon="2.2835">
        <ele>91.8</ele>
        <time>2015-05-11T20:43:30.532Z</time>
      </trkpt>
      <trkpt lat="48.8396" lon="2.28356">
        <ele>91.9</ele>
        <time>2015-05-11T20:43:31.544Z</time>
      </trkpt>
      <trkpt lat="48.83963" lon="2.28364">
        <ele>92</ele>
        <time>2015-05-11T20:43:32.451Z</time>
      </trkpt>
      <trkpt lat="48.83966" lon="2.2837">
        <ele>92.3</ele>
        <time>2015-05-11T20:43:33.458Z</time>
      </trkpt>
      <trkpt lat="48.83968" lon="2.28377">
        <ele>92.5</ele>
        <time>2015-05-11T20:43:34.466Z</time>
      </trkpt>
      <trkpt lat="48.83969" lon="2.28385">
        <ele>92.6</ele>
        <time>2015-05-11T20:43:35.479Z</time>
      </trkpt>
      <trkpt lat="48.8397" lon="2.28391">
        <ele>92.4</ele>
        <time>2015-05-11T20:43:36.495Z</time>
      </trkpt>
      <trkpt lat="48.83972" lon="2.28398">
        <ele>92.4</ele>
        <time>2015-05-11T20:43:37.513Z</time>
      </trkpt>
      <trkpt lat="48.83973" lon="2.28405">
        <ele>92.3</ele>
        <time>2015-05-11T20:43:38.528Z</time>
      </trkpt>
      <trkpt lat="48.83975" lon="2.28412">
        <ele>92.2</ele>
        <time>2015-05-11T20:43:39.446Z</time>
      </trkpt>
      <trkpt lat="48.83975" lon="2.28419">
        <ele>92.1</ele>
        <time>2015-05-11T20:43:40.460Z</time>
      </trkpt>
      <trkpt lat="48.83977" lon="2.28432">
        <ele>91.6</ele>
        <time>2015-05-11T20:43:42.487Z</time>
      </trkpt>
      <trkpt lat="48.8398" lon="2.28438">
        <ele>91.4</ele>
        <time>2015-05-11T20:43:43.489Z</time>
      </trkpt>
      <trkpt lat="48.83982" lon="2.28445">
        <ele>91.2</ele>
        <time>2015-05-11T20:43:44.497Z</time>
      </trkpt>
      <trkpt lat="48.83985" lon="2.28451">
        <ele>91.1</ele>
        <time>2015-05-11T20:43:45.530Z</time>
      </trkpt>
      <trkpt lat="48.83989" lon="2.28458">
        <ele>91.2</ele>
        <time>2015-05-11T20:43:46.455Z</time>
      </trkpt>
      <trkpt lat="48.83992" lon="2.28464">
        <ele>91.6</ele>
        <time>2015-05-11T20:43:47.459Z</time>
      </trkpt>
      <trkpt lat="48.83994" lon="2.28473">
        <ele>92.3</ele>
        <time>2015-05-11T20:43:48.491Z</time>
      </trkpt>
      <trkpt lat="48.83997" lon="2.28481">
        <ele>92.9</ele>
        <time>2015-05-11T20:43:49.484Z</time>
      </trkpt>
      <trkpt lat="48.84" lon="2.28489">
        <ele>93.1</ele>
        <time>2015-05-11T20:43:50.488Z</time>
      </trkpt>
      <trkpt lat="48.84003" lon="2.28495">
        <ele>93.8</ele>
        <time>2015-05-11T20:43:51.520Z</time>
      </trkpt>
      <trkpt lat="48.84006" lon="2.28503">
        <ele>94</ele>
        <time>2015-05-11T20:43:52.532Z</time>
      </trkpt>
      <trkpt lat="48.8401" lon="2.2851">
        <ele>94</ele>
        <time>2015-05-11T20:43:53.547Z</time>
      </trkpt>
      <trkpt lat="48.84012" lon="2.28518">
        <ele>94</ele>
        <time>2015-05-11T20:43:54.553Z</time>
      </trkpt>
      <trkpt lat="48.84014" lon="2.28526">
        <ele>93.7</ele>
        <time>2015-05-11T20:43:55.432Z</time>
      </trkpt>
      <trkpt lat="48.84016" lon="2.28534">
        <ele>93.9</ele>
        <time>2015-05-11T20:43:56.459Z</time>
      </trkpt>
      <trkpt lat="48.84019" lon="2.28541">
        <ele>94.2</ele>
        <time>2015-05-11T20:43:57.464Z</time>
      </trkpt>
      <trkpt lat="48.84021" lon="2.28548">
        <ele>94.1</ele>
        <time>2015-05-11T20:43:58.481Z</time>
      </trkpt>
      <trkpt lat="48.84023" lon="2.28556">
        <ele>94.2</ele>
        <time>2015-05-11T20:43:59.501Z</time>
      </trkpt>
      <trkpt lat="48.84026" lon="2.28562">
        <ele>93.3</ele>
        <time>2015-05-11T20:44:00.610Z</time>
      </trkpt>
      <trkpt lat="48.84028" lon="2.28569">
        <ele>92.5</ele>
        <time>2015-05-11T20:44:01.457Z</time>
      </trkpt>
      <trkpt lat="48.84031" lon="2.28575">
        <ele>92.1</ele>
        <time>2015-05-11T20:44:02.488Z</time>
      </trkpt>
      <trkpt lat="48.84034" lon="2.28581">
        <ele>91.8</ele>
        <time>2015-05-11T20:44:03.498Z</time>
      </trkpt>
      <trkpt lat="48.84038" lon="2.28591">
        <ele>90.4</ele>
        <time>2015-05-11T20:44:05.512Z</time>
      </trkpt>
      <trkpt lat="48.8404" lon="2.28596">
        <ele>89.2</ele>
        <time>2015-05-11T20:44:06.539Z</time>
      </trkpt>
      <trkpt lat="48.84042" lon="2.28602">
        <ele>89.1</ele>
        <time>2015-05-11T20:44:07.467Z</time>
      </trkpt>
      <trkpt lat="48.84044" lon="2.2861">
        <ele>88.8</ele>
        <time>2015-05-11T20:44:08.490Z</time>
      </trkpt>
      <trkpt lat="48.84046" lon="2.28617">
        <ele>88.5</ele>
        <time>2015-05-11T20:44:09.503Z</time>
      </trkpt>
      <trkpt lat="48.8405" lon="2.28625">
        <ele>88.3</ele>
        <time>2015-05-11T20:44:10.515Z</time>
      </trkpt>
      <trkpt lat="48.84054" lon="2.2863">
        <ele>88.5</ele>
        <time>2015-05-11T20:44:11.528Z</time>
      </trkpt>
      <trkpt lat="48.84059" lon="2.28635">
        <ele>88.3</ele>
        <time>2015-05-11T20:44:12.535Z</time>
      </trkpt>
      <trkpt lat="48.84063" lon="2.2864">
        <ele>88.1</ele>
        <time>2015-05-11T20:44:13.471Z</time>
      </trkpt>
      <trkpt lat="48.84066" lon="2.28647">
        <ele>88</ele>
        <time>2015-05-11T20:44:14.455Z</time>
      </trkpt>
      <trkpt lat="48.84069" lon="2.28655">
        <ele>88.2</ele>
        <time>2015-05-11T20:44:15.462Z</time>
      </trkpt>
      <trkpt lat="48.84071" lon="2.28662">
        <ele>88.1</ele>
        <time>2015-05-11T20:44:16.468Z</time>
      </trkpt>
      <trkpt lat="48.84075" lon="2.28667">
        <ele>87.4</ele>
        <time>2015-05-11T20:44:17.478Z</time>
      </trkpt>
      <trkpt lat="48.84078" lon="2.28675">
        <ele>87.7</ele>
        <time>2015-05-11T20:44:18.511Z</time>
      </trkpt>
      <trkpt lat="48.84081" lon="2.28685">
        <ele>87.8</ele>
        <time>2015-05-11T20:44:19.529Z</time>
      </trkpt>
      <trkpt lat="48.84083" lon="2.28691">
        <ele>88</ele>
        <time>2015-05-11T20:44:20.480Z</time>
      </trkpt>
      <trkpt lat="48.84086" lon="2.28697">
        <ele>88.1</ele>
        <time>2015-05-11T20:44:21.454Z</time>
      </trkpt>
      <trkpt lat="48.84088" lon="2.28703">
        <ele>87.9</ele>
        <time>2015-05-11T20:44:22.470Z</time>
      </trkpt>
      <trkpt lat="48.8409" lon="2.2871">
        <ele>87.7</ele>
        <time>2015-05-11T20:44:23.462Z</time>
      </trkpt>
      <trkpt lat="48.84093" lon="2.28717">
        <ele>87.6</ele>
        <time>2015-05-11T20:44:24.482Z</time>
      </trkpt>
      <trkpt lat="48.84095" lon="2.28725">
        <ele>87.4</ele>
        <time>2015-05-11T20:44:25.492Z</time>
      </trkpt>
      <trkpt lat="48.84096" lon="2.28731">
        <ele>87.6</ele>
        <time>2015-05-11T20:44:26.500Z</time>
      </trkpt>
      <trkpt lat="48.84097" lon="2.28739">
        <ele>87.7</ele>
        <time>2015-05-11T20:44:27.506Z</time>
      </trkpt>
      <trkpt lat="48.841" lon="2.28745">
        <ele>87.8</ele>
        <time>2015-05-11T20:44:28.513Z</time>
      </trkpt>
      <trkpt lat="48.84103" lon="2.28751">
        <ele>88</ele>
        <time>2015-05-11T20:44:29.532Z</time>
      </trkpt>
      <trkpt lat="48.84105" lon="2.28757">
        <ele>88.1</ele>
        <time>2015-05-11T20:44:30.540Z</time>
      </trkpt>
      <trkpt lat="48.8411" lon="2.28766">
        <ele>88</ele>
        <time>2015-05-11T20:44:32.446Z</time>
      </trkpt>
      <trkpt lat="48.84112" lon="2.28771">
        <ele>87.8</ele>
        <time>2015-05-11T20:44:33.475Z</time>
      </trkpt>
      <trkpt lat="48.84117" lon="2.28781">
        <ele>89.1</ele>
        <time>2015-05-11T20:44:37.531Z</time>
      </trkpt>
      <trkpt lat="48.84117" lon="2.28783">
        <ele>89.4</ele>
        <time>2015-05-11T20:44:38.479Z</time>
      </trkpt>
      <trkpt lat="48.84117" lon="2.28783">
        <ele>89.4</ele>
        <time>2015-05-11T20:45:21.479Z</time>
      </trkpt>
      <trkpt lat="48.84124" lon="2.28798">
        <ele>98.2</ele>
        <time>2015-05-11T20:45:22.461Z</time>
      </trkpt>
      <trkpt lat="48.84129" lon="2.28807">
        <ele>94.7</ele>
        <time>2015-05-11T20:45:26.546Z</time>
      </trkpt>
      <trkpt lat="48.84131" lon="2.28811">
        <ele>94.3</ele>
        <time>2015-05-11T20:45:27.479Z</time>
      </trkpt>
      <trkpt lat="48.84135" lon="2.28819">
        <ele>94</ele>
        <time>2015-05-11T20:45:29.547Z</time>
      </trkpt>
      <trkpt lat="48.84137" lon="2.28824">
        <ele>93.7</ele>
        <time>2015-05-11T20:45:30.560Z</time>
      </trkpt>
      <trkpt lat="48.8414" lon="2.28834">
        <ele>93.2</ele>
        <time>2015-05-11T20:45:32.511Z</time>
      </trkpt>
      <trkpt lat="48.84141" lon="2.2884">
        <ele>92.7</ele>
        <time>2015-05-11T20:45:33.527Z</time>
      </trkpt>
      <trkpt lat="48.84144" lon="2.28852">
        <ele>92.9</ele>
        <time>2015-05-11T20:45:35.504Z</time>
      </trkpt>
      <trkpt lat="48.84146" lon="2.28858">
        <ele>93</ele>
        <time>2015-05-11T20:45:36.581Z</time>
      </trkpt>
      <trkpt lat="48.84149" lon="2.28864">
        <ele>93.1</ele>
        <time>2015-05-11T20:45:37.471Z</time>
      </trkpt>
      <trkpt lat="48.84151" lon="2.28871">
        <ele>92.9</ele>
        <time>2015-05-11T20:45:38.481Z</time>
      </trkpt>
      <trkpt lat="48.84152" lon="2.28877">
        <ele>92.9</ele>
        <time>2015-05-11T20:45:39.496Z</time>
      </trkpt>
      <trkpt lat="48.84155" lon="2.28883">
        <ele>93</ele>
        <time>2015-05-11T20:45:40.514Z</time>
      </trkpt>
      <trkpt lat="48.84158" lon="2.28895">
        <ele>92.6</ele>
        <time>2015-05-11T20:45:42.548Z</time>
      </trkpt>
      <trkpt lat="48.84159" lon="2.289">
        <ele>92.1</ele>
        <time>2015-05-11T20:45:43.570Z</time>
      </trkpt>
      <trkpt lat="48.84165" lon="2.2891">
        <ele>90.1</ele>
        <time>2015-05-11T20:45:45.464Z</time>
      </trkpt>
      <trkpt lat="48.84168" lon="2.28917">
        <ele>90</ele>
        <time>2015-05-11T20:45:46.462Z</time>
      </trkpt>
      <trkpt lat="48.8417" lon="2.28923">
        <ele>89.9</ele>
        <time>2015-05-11T20:45:47.499Z</time>
      </trkpt>
      <trkpt lat="48.84171" lon="2.28931">
        <ele>90</ele>
        <time>2015-05-11T20:45:48.521Z</time>
      </trkpt>
      <trkpt lat="48.84174" lon="2.28937">
        <ele>90.2</ele>
        <time>2015-05-11T20:45:49.325Z</time>
      </trkpt>
      <trkpt lat="48.84177" lon="2.28944">
        <ele>89.9</ele>
        <time>2015-05-11T20:45:50.441Z</time>
      </trkpt>
      <trkpt lat="48.8418" lon="2.2895">
        <ele>89.5</ele>
        <time>2015-05-11T20:45:51.465Z</time>
      </trkpt>
      <trkpt lat="48.84183" lon="2.28957">
        <ele>88.8</ele>
        <time>2015-05-11T20:45:52.478Z</time>
      </trkpt>
      <trkpt lat="48.84187" lon="2.28963">
        <ele>88.3</ele>
        <time>2015-05-11T20:45:53.427Z</time>
      </trkpt>
      <trkpt lat="48.84189" lon="2.28968">
        <ele>88</ele>
        <time>2015-05-11T20:45:54.491Z</time>
      </trkpt>
      <trkpt lat="48.84192" lon="2.28974">
        <ele>87.9</ele>
        <time>2015-05-11T20:45:55.485Z</time>
      </trkpt>
      <trkpt lat="48.84194" lon="2.28981">
        <ele>87.4</ele>
        <time>2015-05-11T20:45:56.490Z</time>
      </trkpt>
      <trkpt lat="48.84197" lon="2.28988">
        <ele>87</ele>
        <time>2015-05-11T20:45:57.877Z</time>
      </trkpt>
      <trkpt lat="48.842" lon="2.28995">
        <ele>86.6</ele>
        <time>2015-05-11T20:45:58.513Z</time>
      </trkpt>
      <trkpt lat="48.84203" lon="2.29002">
        <ele>86.4</ele>
        <time>2015-05-11T20:45:59.526Z</time>
      </trkpt>
      <trkpt lat="48.84206" lon="2.29009">
        <ele>86.2</ele>
        <time>2015-05-11T20:46:00.546Z</time>
      </trkpt>
      <trkpt lat="48.84208" lon="2.29018">
        <ele>85.8</ele>
        <time>2015-05-11T20:46:01.560Z</time>
      </trkpt>
      <trkpt lat="48.84212" lon="2.29024">
        <ele>85.7</ele>
        <time>2015-05-11T20:46:02.459Z</time>
      </trkpt>
      <trkpt lat="48.84217" lon="2.29031">
        <ele>86.4</ele>
        <time>2015-05-11T20:46:03.472Z</time>
      </trkpt>
      <trkpt lat="48.8422" lon="2.29038">
        <ele>86.3</ele>
        <time>2015-05-11T20:46:04.487Z</time>
      </trkpt>
      <trkpt lat="48.84223" lon="2.29044">
        <ele>86.1</ele>
        <time>2015-05-11T20:46:05.503Z</time>
      </trkpt>
      <trkpt lat="48.84226" lon="2.2905">
        <ele>85.9</ele>
        <time>2015-05-11T20:46:06.515Z</time>
      </trkpt>
      <trkpt lat="48.84229" lon="2.29055">
        <ele>85.5</ele>
        <time>2015-05-11T20:46:07.524Z</time>
      </trkpt>
      <trkpt lat="48.84232" lon="2.29061">
        <ele>85.5</ele>
        <time>2015-05-11T20:46:08.530Z</time>
      </trkpt>
      <trkpt lat="48.84234" lon="2.29067">
        <ele>85.2</ele>
        <time>2015-05-11T20:46:09.454Z</time>
      </trkpt>
      <trkpt lat="48.84237" lon="2.29073">
        <ele>85.3</ele>
        <time>2015-05-11T20:46:10.467Z</time>
      </trkpt>
      <trkpt lat="48.84242" lon="2.29084">
        <ele>85.3</ele>
        <time>2015-05-11T20:46:12.496Z</time>
      </trkpt>
      <trkpt lat="48.84245" lon="2.29089">
        <ele>85</ele>
        <time>2015-05-11T20:46:13.532Z</time>
      </trkpt>
      <trkpt lat="48.84248" lon="2.29094">
        <ele>84.7</ele>
        <time>2015-05-11T20:46:14.470Z</time>
      </trkpt>
      <trkpt lat="48.84251" lon="2.29099">
        <ele>84.6</ele>
        <time>2015-05-11T20:46:15.700Z</time>
      </trkpt>
      <trkpt lat="48.84256" lon="2.29109">
        <ele>84.1</ele>
        <time>2015-05-11T20:46:17.505Z</time>
      </trkpt>
      <trkpt lat="48.84259" lon="2.29114">
        <ele>84.1</ele>
        <time>2015-05-11T20:46:18.533Z</time>
      </trkpt>
      <trkpt lat="48.84262" lon="2.2912">
        <ele>84.1</ele>
        <time>2015-05-11T20:46:19.467Z</time>
      </trkpt>
      <trkpt lat="48.84264" lon="2.29126">
        <ele>84</ele>
        <time>2015-05-11T20:46:20.468Z</time>
      </trkpt>
      <trkpt lat="48.84266" lon="2.29132">
        <ele>83.9</ele>
        <time>2015-05-11T20:46:21.476Z</time>
      </trkpt>
      <trkpt lat="48.84269" lon="2.29138">
        <ele>83.8</ele>
        <time>2015-05-11T20:46:22.484Z</time>
      </trkpt>
      <trkpt lat="48.84273" lon="2.2915">
        <ele>83.6</ele>
        <time>2015-05-11T20:46:24.504Z</time>
      </trkpt>
      <trkpt lat="48.84274" lon="2.29156">
        <ele>83.1</ele>
        <time>2015-05-11T20:46:25.526Z</time>
      </trkpt>
      <trkpt lat="48.84277" lon="2.29167">
        <ele>83</ele>
        <time>2015-05-11T20:46:27.457Z</time>
      </trkpt>
      <trkpt lat="48.84277" lon="2.29173">
        <ele>83.3</ele>
        <time>2015-05-11T20:46:28.504Z</time>
      </trkpt>
      <trkpt lat="48.84279" lon="2.29186">
        <ele>83.9</ele>
        <time>2015-05-11T20:46:30.548Z</time>
      </trkpt>
      <trkpt lat="48.8428" lon="2.29192">
        <ele>84.5</ele>
        <time>2015-05-11T20:46:31.470Z</time>
      </trkpt>
      <trkpt lat="48.84281" lon="2.29199">
        <ele>84.6</ele>
        <time>2015-05-11T20:46:32.490Z</time>
      </trkpt>
      <trkpt lat="48.84279" lon="2.29207">
        <ele>84.8</ele>
        <time>2015-05-11T20:46:33.492Z</time>
      </trkpt>
      <trkpt lat="48.84277" lon="2.29213">
        <ele>85.5</ele>
        <time>2015-05-11T20:46:34.529Z</time>
      </trkpt>
      <trkpt lat="48.84275" lon="2.29219">
        <ele>85.8</ele>
        <time>2015-05-11T20:46:35.562Z</time>
      </trkpt>
      <trkpt lat="48.84272" lon="2.29228">
        <ele>87</ele>
        <time>2015-05-11T20:46:37.482Z</time>
      </trkpt>
      <trkpt lat="48.84272" lon="2.29232">
        <ele>87.8</ele>
        <time>2015-05-11T20:46:38.478Z</time>
      </trkpt>
      <trkpt lat="48.84278" lon="2.29242">
        <ele>89.2</ele>
        <time>2015-05-11T20:46:42.503Z</time>
      </trkpt>
      <trkpt lat="48.8428" lon="2.29244">
        <ele>89.5</ele>
        <time>2015-05-11T20:46:43.588Z</time>
      </trkpt>
      <trkpt lat="48.84284" lon="2.2925">
        <ele>90.6</ele>
        <time>2015-05-11T20:46:45.465Z</time>
      </trkpt>
      <trkpt lat="48.84287" lon="2.29252">
        <ele>91.1</ele>
        <time>2015-05-11T20:46:46.487Z</time>
      </trkpt>
      <trkpt lat="48.84291" lon="2.29257">
        <ele>91.5</ele>
        <time>2015-05-11T20:46:48.546Z</time>
      </trkpt>
      <trkpt lat="48.84294" lon="2.2926">
        <ele>92.1</ele>
        <time>2015-05-11T20:46:49.570Z</time>
      </trkpt>
      <trkpt lat="48.84298" lon="2.29263">
        <ele>92.4</ele>
        <time>2015-05-11T20:46:50.510Z</time>
      </trkpt>
      <trkpt lat="48.84302" lon="2.29267">
        <ele>92.9</ele>
        <time>2015-05-11T20:46:51.513Z</time>
      </trkpt>
      <trkpt lat="48.84309" lon="2.29275">
        <ele>93.6</ele>
        <time>2015-05-11T20:46:53.530Z</time>
      </trkpt>
      <trkpt lat="48.84312" lon="2.29277">
        <ele>93.9</ele>
        <time>2015-05-11T20:46:54.563Z</time>
      </trkpt>
      <trkpt lat="48.84319" lon="2.29282">
        <ele>94.3</ele>
        <time>2015-05-11T20:46:56.478Z</time>
      </trkpt>
      <trkpt lat="48.84322" lon="2.29287">
        <ele>94.3</ele>
        <time>2015-05-11T20:46:57.498Z</time>
      </trkpt>
      <trkpt lat="48.84326" lon="2.29293">
        <ele>94.7</ele>
        <time>2015-05-11T20:46:58.446Z</time>
      </trkpt>
      <trkpt lat="48.84331" lon="2.29298">
        <ele>95.4</ele>
        <time>2015-05-11T20:46:59.558Z</time>
      </trkpt>
      <trkpt lat="48.84337" lon="2.29303">
        <ele>95</ele>
        <time>2015-05-11T20:47:01.467Z</time>
      </trkpt>
      <trkpt lat="48.84339" lon="2.29309">
        <ele>94.8</ele>
        <time>2015-05-11T20:47:02.477Z</time>
      </trkpt>
      <trkpt lat="48.84344" lon="2.29312">
        <ele>92.9</ele>
        <time>2015-05-11T20:47:03.500Z</time>
      </trkpt>
      <trkpt lat="48.84347" lon="2.29316">
        <ele>91.5</ele>
        <time>2015-05-11T20:47:04.511Z</time>
      </trkpt>
      <trkpt lat="48.8435" lon="2.29322">
        <ele>91.1</ele>
        <time>2015-05-11T20:47:05.550Z</time>
      </trkpt>
      <trkpt lat="48.84352" lon="2.29328">
        <ele>91</ele>
        <time>2015-05-11T20:47:06.552Z</time>
      </trkpt>
      <trkpt lat="48.84354" lon="2.2934">
        <ele>90.9</ele>
        <time>2015-05-11T20:47:08.477Z</time>
      </trkpt>
      <trkpt lat="48.84353" lon="2.29347">
        <ele>90.8</ele>
        <time>2015-05-11T20:47:09.488Z</time>
      </trkpt>
      <trkpt lat="48.84351" lon="2.29354">
        <ele>90.9</ele>
        <time>2015-05-11T20:47:10.550Z</time>
      </trkpt>
      <trkpt lat="48.84349" lon="2.29361">
        <ele>90.4</ele>
        <time>2015-05-11T20:47:11.440Z</time>
      </trkpt>
      <trkpt lat="48.84345" lon="2.2937">
        <ele>90.3</ele>
        <time>2015-05-11T20:47:13.495Z</time>
      </trkpt>
      <trkpt lat="48.84342" lon="2.29374">
        <ele>89.8</ele>
        <time>2015-05-11T20:47:14.488Z</time>
      </trkpt>
      <trkpt lat="48.84338" lon="2.29386">
        <ele>89.3</ele>
        <time>2015-05-11T20:47:16.508Z</time>
      </trkpt>
      <trkpt lat="48.84336" lon="2.29392">
        <ele>88.9</ele>
        <time>2015-05-11T20:47:17.568Z</time>
      </trkpt>
      <trkpt lat="48.84334" lon="2.29405">
        <ele>88.5</ele>
        <time>2015-05-11T20:47:19.496Z</time>
      </trkpt>
      <trkpt lat="48.84332" lon="2.29411">
        <ele>88</ele>
        <time>2015-05-11T20:47:20.506Z</time>
      </trkpt>
      <trkpt lat="48.84331" lon="2.29417">
        <ele>87.7</ele>
        <time>2015-05-11T20:47:21.457Z</time>
      </trkpt>
      <trkpt lat="48.84328" lon="2.29424">
        <ele>87.5</ele>
        <time>2015-05-11T20:47:22.461Z</time>
      </trkpt>
      <trkpt lat="48.84325" lon="2.29432">
        <ele>87.1</ele>
        <time>2015-05-11T20:47:23.487Z</time>
      </trkpt>
      <trkpt lat="48.84322" lon="2.29439">
        <ele>86.8</ele>
        <time>2015-05-11T20:47:24.497Z</time>
      </trkpt>
      <trkpt lat="48.84318" lon="2.29446">
        <ele>86.8</ele>
        <time>2015-05-11T20:47:25.531Z</time>
      </trkpt>
      <trkpt lat="48.84315" lon="2.29453">
        <ele>87.1</ele>
        <time>2015-05-11T20:47:26.554Z</time>
      </trkpt>
      <trkpt lat="48.84312" lon="2.2946">
        <ele>87.7</ele>
        <time>2015-05-11T20:47:27.451Z</time>
      </trkpt>
      <trkpt lat="48.84311" lon="2.29468">
        <ele>87.7</ele>
        <time>2015-05-11T20:47:28.451Z</time>
      </trkpt>
      <trkpt lat="48.84309" lon="2.29478">
        <ele>88.8</ele>
        <time>2015-05-11T20:47:29.476Z</time>
      </trkpt>
      <trkpt lat="48.84307" lon="2.29485">
        <ele>88.7</ele>
        <time>2015-05-11T20:47:30.485Z</time>
      </trkpt>
      <trkpt lat="48.84304" lon="2.29496">
        <ele>87.7</ele>
        <time>2015-05-11T20:47:32.535Z</time>
      </trkpt>
      <trkpt lat="48.84303" lon="2.29499">
        <ele>87.6</ele>
        <time>2015-05-11T20:47:33.488Z</time>
      </trkpt>
      <trkpt lat="48.84302" lon="2.295">
        <ele>87.5</ele>
        <time>2015-05-11T20:47:34.442Z</time>
      </trkpt>
      <trkpt lat="48.84301" lon="2.29501">
        <ele>87.6</ele>
        <time>2015-05-11T20:47:35.445Z</time>
      </trkpt>
      <trkpt lat="48.843" lon="2.295">
        <ele>87.8</ele>
        <time>2015-05-11T20:48:12.514Z</time>
      </trkpt>
      <trkpt lat="48.84305" lon="2.29526">
        <ele>93.7</ele>
        <time>2015-05-11T20:48:13.476Z</time>
      </trkpt>
      <trkpt lat="48.84311" lon="2.29532">
        <ele>93.9</ele>
        <time>2015-05-11T20:48:16.518Z</time>
      </trkpt>
      <trkpt lat="48.84314" lon="2.29533">
        <ele>94.2</ele>
        <time>2015-05-11T20:48:17.461Z</time>
      </trkpt>
      <trkpt lat="48.8432" lon="2.29538">
        <ele>94.1</ele>
        <time>2015-05-11T20:48:19.482Z</time>
      </trkpt>
      <trkpt lat="48.84323" lon="2.29541">
        <ele>94.2</ele>
        <time>2015-05-11T20:48:20.537Z</time>
      </trkpt>
      <trkpt lat="48.84329" lon="2.2955">
        <ele>94.1</ele>
        <time>2015-05-11T20:48:23.520Z</time>
      </trkpt>
      <trkpt lat="48.84331" lon="2.29552">
        <ele>94.2</ele>
        <time>2015-05-11T20:48:24.575Z</time>
      </trkpt>
      <trkpt lat="48.84337" lon="2.29554">
        <ele>94.1</ele>
        <time>2015-05-11T20:48:26.488Z</time>
      </trkpt>
      <trkpt lat="48.8434" lon="2.29557">
        <ele>94</ele>
        <time>2015-05-11T20:48:27.503Z</time>
      </trkpt>
      <trkpt lat="48.84345" lon="2.29564">
        <ele>94.2</ele>
        <time>2015-05-11T20:48:29.460Z</time>
      </trkpt>
      <trkpt lat="48.84349" lon="2.29568">
        <ele>94.2</ele>
        <time>2015-05-11T20:48:30.580Z</time>
      </trkpt>
      <trkpt lat="48.84355" lon="2.29577">
        <ele>93.8</ele>
        <time>2015-05-11T20:48:32.509Z</time>
      </trkpt>
      <trkpt lat="48.84357" lon="2.29579">
        <ele>93.4</ele>
        <time>2015-05-11T20:48:33.548Z</time>
      </trkpt>
      <trkpt lat="48.84362" lon="2.29586">
        <ele>93.5</ele>
        <time>2015-05-11T20:48:35.470Z</time>
      </trkpt>
      <trkpt lat="48.84365" lon="2.29588">
        <ele>93.6</ele>
        <time>2015-05-11T20:48:36.523Z</time>
      </trkpt>
      <trkpt lat="48.84369" lon="2.29591">
        <ele>93.8</ele>
        <time>2015-05-11T20:48:37.513Z</time>
      </trkpt>
      <trkpt lat="48.84375" lon="2.29591">
        <ele>92.8</ele>
        <time>2015-05-11T20:48:38.521Z</time>
      </trkpt>
      <trkpt lat="48.84381" lon="2.29597">
        <ele>91.6</ele>
        <time>2015-05-11T20:48:41.469Z</time>
      </trkpt>
      <trkpt lat="48.84384" lon="2.29602">
        <ele>91.6</ele>
        <time>2015-05-11T20:48:42.491Z</time>
      </trkpt>
      <trkpt lat="48.8439" lon="2.29608">
        <ele>91.9</ele>
        <time>2015-05-11T20:48:44.513Z</time>
      </trkpt>
      <trkpt lat="48.84393" lon="2.2961">
        <ele>92.1</ele>
        <time>2015-05-11T20:48:45.517Z</time>
      </trkpt>
      <trkpt lat="48.84399" lon="2.29614">
        <ele>92</ele>
        <time>2015-05-11T20:48:47.466Z</time>
      </trkpt>
      <trkpt lat="48.84402" lon="2.29615">
        <ele>92.1</ele>
        <time>2015-05-11T20:48:48.510Z</time>
      </trkpt>
      <trkpt lat="48.8441" lon="2.29618">
        <ele>91.6</ele>
        <time>2015-05-11T20:48:50.520Z</time>
      </trkpt>
      <trkpt lat="48.84413" lon="2.2962">
        <ele>91.3</ele>
        <time>2015-05-11T20:48:51.538Z</time>
      </trkpt>
      <trkpt lat="48.84421" lon="2.29626">
        <ele>90.9</ele>
        <time>2015-05-11T20:48:53.461Z</time>
      </trkpt>
      <trkpt lat="48.84425" lon="2.29629">
        <ele>90.8</ele>
        <time>2015-05-11T20:48:54.517Z</time>
      </trkpt>
      <trkpt lat="48.84432" lon="2.29636">
        <ele>90.5</ele>
        <time>2015-05-11T20:48:56.455Z</time>
      </trkpt>
      <trkpt lat="48.84435" lon="2.29639">
        <ele>90.5</ele>
        <time>2015-05-11T20:48:57.486Z</time>
      </trkpt>
      <trkpt lat="48.8444" lon="2.29647">
        <ele>90.7</ele>
        <time>2015-05-11T20:48:59.521Z</time>
      </trkpt>
      <trkpt lat="48.84441" lon="2.29651">
        <ele>90.9</ele>
        <time>2015-05-11T20:49:00.558Z</time>
      </trkpt>
      <trkpt lat="48.84445" lon="2.2966">
        <ele>91.6</ele>
        <time>2015-05-11T20:49:02.490Z</time>
      </trkpt>
      <trkpt lat="48.84446" lon="2.29665">
        <ele>92.2</ele>
        <time>2015-05-11T20:49:03.460Z</time>
      </trkpt>
      <trkpt lat="48.8445" lon="2.29674">
        <ele>93.1</ele>
        <time>2015-05-11T20:49:05.451Z</time>
      </trkpt>
      <trkpt lat="48.84452" lon="2.29677">
        <ele>93.4</ele>
        <time>2015-05-11T20:49:06.574Z</time>
      </trkpt>
      <trkpt lat="48.84458" lon="2.29684">
        <ele>93.5</ele>
        <time>2015-05-11T20:49:09.488Z</time>
      </trkpt>
      <trkpt lat="48.84459" lon="2.29687">
        <ele>93.3</ele>
        <time>2015-05-11T20:49:10.524Z</time>
      </trkpt>
      <trkpt lat="48.84464" lon="2.29693">
        <ele>93.3</ele>
        <time>2015-05-11T20:49:12.423Z</time>
      </trkpt>
      <trkpt lat="48.84466" lon="2.29696">
        <ele>93.5</ele>
        <time>2015-05-11T20:49:13.524Z</time>
      </trkpt>
      <trkpt lat="48.84471" lon="2.29702">
        <ele>93.3</ele>
        <time>2015-05-11T20:49:15.462Z</time>
      </trkpt>
      <trkpt lat="48.84474" lon="2.29705">
        <ele>93.3</ele>
        <time>2015-05-11T20:49:16.487Z</time>
      </trkpt>
      <trkpt lat="48.84477" lon="2.2971">
        <ele>93</ele>
        <time>2015-05-11T20:49:17.532Z</time>
      </trkpt>
      <trkpt lat="48.84481" lon="2.29716">
        <ele>92.8</ele>
        <time>2015-05-11T20:49:18.545Z</time>
      </trkpt>
      <trkpt lat="48.84484" lon="2.29722">
        <ele>92.9</ele>
        <time>2015-05-11T20:49:19.475Z</time>
      </trkpt>
      <trkpt lat="48.84488" lon="2.29727">
        <ele>93</ele>
        <time>2015-05-11T20:49:20.474Z</time>
      </trkpt>
      <trkpt lat="48.84491" lon="2.29733">
        <ele>93.4</ele>
        <time>2015-05-11T20:49:21.491Z</time>
      </trkpt>
      <trkpt lat="48.84494" lon="2.29739">
        <ele>93.8</ele>
        <time>2015-05-11T20:49:22.501Z</time>
      </trkpt>
      <trkpt lat="48.84499" lon="2.29743">
        <ele>94.4</ele>
        <time>2015-05-11T20:49:21.760Z</time>
      </trkpt>
      <trkpt lat="48.84502" lon="2.29747">
        <ele>94.5</ele>
        <time>2015-05-11T20:49:24.514Z</time>
      </trkpt>
      <trkpt lat="48.84509" lon="2.29754">
        <ele>94.7</ele>
        <time>2015-05-11T20:49:27.257Z</time>
      </trkpt>
      <trkpt lat="48.84512" lon="2.29757">
        <ele>94.8</ele>
        <time>2015-05-11T20:49:27.518Z</time>
      </trkpt>
      <trkpt lat="48.8452" lon="2.29764">
        <ele>94.5</ele>
        <time>2015-05-11T20:49:29.538Z</time>
      </trkpt>
      <trkpt lat="48.84523" lon="2.29769">
        <ele>94.5</ele>
        <time>2015-05-11T20:49:30.541Z</time>
      </trkpt>
      <trkpt lat="48.84529" lon="2.29777">
        <ele>94.4</ele>
        <time>2015-05-11T20:49:32.497Z</time>
      </trkpt>
      <trkpt lat="48.84531" lon="2.29782">
        <ele>94.6</ele>
        <time>2015-05-11T20:49:33.549Z</time>
      </trkpt>
      <trkpt lat="48.84538" lon="2.2979">
        <ele>94.7</ele>
        <time>2015-05-11T20:49:35.465Z</time>
      </trkpt>
      <trkpt lat="48.84542" lon="2.29794">
        <ele>94.9</ele>
        <time>2015-05-11T20:49:36.492Z</time>
      </trkpt>
      <trkpt lat="48.84546" lon="2.29798">
        <ele>95</ele>
        <time>2015-05-11T20:49:37.585Z</time>
      </trkpt>
      <trkpt lat="48.84549" lon="2.29803">
        <ele>95.1</ele>
        <time>2015-05-11T20:49:38.463Z</time>
      </trkpt>
      <trkpt lat="48.84553" lon="2.29807">
        <ele>95.2</ele>
        <time>2015-05-11T20:49:39.485Z</time>
      </trkpt>
      <trkpt lat="48.84557" lon="2.29811">
        <ele>95.2</ele>
        <time>2015-05-11T20:49:40.482Z</time>
      </trkpt>
      <trkpt lat="48.84561" lon="2.29814">
        <ele>95.4</ele>
        <time>2015-05-11T20:49:41.513Z</time>
      </trkpt>
      <trkpt lat="48.84565" lon="2.29819">
        <ele>95.6</ele>
        <time>2015-05-11T20:49:42.525Z</time>
      </trkpt>
      <trkpt lat="48.8457" lon="2.29829">
        <ele>95.7</ele>
        <time>2015-05-11T20:49:44.547Z</time>
      </trkpt>
      <trkpt lat="48.84573" lon="2.29833">
        <ele>95.7</ele>
        <time>2015-05-11T20:49:45.476Z</time>
      </trkpt>
      <trkpt lat="48.84577" lon="2.29839">
        <ele>95.3</ele>
        <time>2015-05-11T20:49:46.557Z</time>
      </trkpt>
      <trkpt lat="48.8458" lon="2.29843">
        <ele>95.4</ele>
        <time>2015-05-11T20:49:47.466Z</time>
      </trkpt>
      <trkpt lat="48.84586" lon="2.2985">
        <ele>95.9</ele>
        <time>2015-05-11T20:49:49.504Z</time>
      </trkpt>
      <trkpt lat="48.84589" lon="2.29855">
        <ele>96</ele>
        <time>2015-05-11T20:49:50.513Z</time>
      </trkpt>
      <trkpt lat="48.84593" lon="2.29865">
        <ele>96.3</ele>
        <time>2015-05-11T20:49:52.762Z</time>
      </trkpt>
      <trkpt lat="48.84595" lon="2.29868">
        <ele>96.3</ele>
        <time>2015-05-11T20:49:53.537Z</time>
      </trkpt>
      <trkpt lat="48.84601" lon="2.29873">
        <ele>95.9</ele>
        <time>2015-05-11T20:49:56.446Z</time>
      </trkpt>
      <trkpt lat="48.84603" lon="2.29876">
        <ele>96</ele>
        <time>2015-05-11T20:49:57.474Z</time>
      </trkpt>
      <trkpt lat="48.84608" lon="2.29884">
        <ele>95.7</ele>
        <time>2015-05-11T20:49:59.497Z</time>
      </trkpt>
      <trkpt lat="48.84611" lon="2.29888">
        <ele>95.5</ele>
        <time>2015-05-11T20:50:00.550Z</time>
      </trkpt>
      <trkpt lat="48.84615" lon="2.29892">
        <ele>95.5</ele>
        <time>2015-05-11T20:50:01.589Z</time>
      </trkpt>
      <trkpt lat="48.84619" lon="2.29897">
        <ele>95.8</ele>
        <time>2015-05-11T20:50:02.468Z</time>
      </trkpt>
      <trkpt lat="48.84622" lon="2.29902">
        <ele>95.9</ele>
        <time>2015-05-11T20:50:03.474Z</time>
      </trkpt>
      <trkpt lat="48.84625" lon="2.29907">
        <ele>95.9</ele>
        <time>2015-05-11T20:50:04.488Z</time>
      </trkpt>
      <trkpt lat="48.84629" lon="2.29911">
        <ele>95.8</ele>
        <time>2015-05-11T20:50:05.582Z</time>
      </trkpt>
      <trkpt lat="48.84632" lon="2.29916">
        <ele>95.8</ele>
        <time>2015-05-11T20:50:06.483Z</time>
      </trkpt>
      <trkpt lat="48.84635" lon="2.29922">
        <ele>95.9</ele>
        <time>2015-05-11T20:50:07.485Z</time>
      </trkpt>
      <trkpt lat="48.84638" lon="2.29927">
        <ele>95.7</ele>
        <time>2015-05-11T20:50:08.493Z</time>
      </trkpt>
      <trkpt lat="48.84641" lon="2.29932">
        <ele>95.7</ele>
        <time>2015-05-11T20:50:08.060Z</time>
      </trkpt>
      <trkpt lat="48.84645" lon="2.29936">
        <ele>95.5</ele>
        <time>2015-05-11T20:50:10.525Z</time>
      </trkpt>
      <trkpt lat="48.84651" lon="2.29944">
        <ele>95.3</ele>
        <time>2015-05-11T20:50:13.135Z</time>
      </trkpt>
      <trkpt lat="48.84656" lon="2.2995">
        <ele>94.3</ele>
        <time>2015-05-11T20:50:13.459Z</time>
      </trkpt>
      <trkpt lat="48.84661" lon="2.29959">
        <ele>94.4</ele>
        <time>2015-05-11T20:50:15.490Z</time>
      </trkpt>
      <trkpt lat="48.84665" lon="2.29961">
        <ele>94.1</ele>
        <time>2015-05-11T20:50:16.504Z</time>
      </trkpt>
      <trkpt lat="48.84671" lon="2.29967">
        <ele>93.7</ele>
        <time>2015-05-11T20:50:18.540Z</time>
      </trkpt>
      <trkpt lat="48.84673" lon="2.29969">
        <ele>93.5</ele>
        <time>2015-05-11T20:50:19.547Z</time>
      </trkpt>
      <trkpt lat="48.84678" lon="2.29979">
        <ele>93.4</ele>
        <time>2015-05-11T20:50:21.454Z</time>
      </trkpt>
      <trkpt lat="48.84681" lon="2.29984">
        <ele>93.5</ele>
        <time>2015-05-11T20:50:22.479Z</time>
      </trkpt>
      <trkpt lat="48.84686" lon="2.29992">
        <ele>93.9</ele>
        <time>2015-05-11T20:50:24.504Z</time>
      </trkpt>
      <trkpt lat="48.84688" lon="2.29996">
        <ele>94</ele>
        <time>2015-05-11T20:50:25.521Z</time>
      </trkpt>
      <trkpt lat="48.84693" lon="2.30004">
        <ele>93.7</ele>
        <time>2015-05-11T20:50:27.469Z</time>
      </trkpt>
      <trkpt lat="48.84695" lon="2.30009">
        <ele>93.9</ele>
        <time>2015-05-11T20:50:28.561Z</time>
      </trkpt>
      <trkpt lat="48.84702" lon="2.30016">
        <ele>94.2</ele>
        <time>2015-05-11T20:50:30.486Z</time>
      </trkpt>
      <trkpt lat="48.84706" lon="2.30021">
        <ele>94.4</ele>
        <time>2015-05-11T20:50:31.516Z</time>
      </trkpt>
      <trkpt lat="48.84709" lon="2.30027">
        <ele>94.4</ele>
        <time>2015-05-11T20:50:32.553Z</time>
      </trkpt>
      <trkpt lat="48.84712" lon="2.30034">
        <ele>94.7</ele>
        <time>2015-05-11T20:50:33.466Z</time>
      </trkpt>
      <trkpt lat="48.84716" lon="2.3004">
        <ele>94.9</ele>
        <time>2015-05-11T20:50:34.471Z</time>
      </trkpt>
      <trkpt lat="48.84719" lon="2.30045">
        <ele>95.4</ele>
        <time>2015-05-11T20:50:35.476Z</time>
      </trkpt>
      <trkpt lat="48.84723" lon="2.30052">
        <ele>95.5</ele>
        <time>2015-05-11T20:50:36.501Z</time>
      </trkpt>
      <trkpt lat="48.84726" lon="2.30058">
        <ele>96</ele>
        <time>2015-05-11T20:50:37.529Z</time>
      </trkpt>
      <trkpt lat="48.84731" lon="2.30069">
        <ele>96.4</ele>
        <time>2015-05-11T20:50:39.468Z</time>
      </trkpt>
      <trkpt lat="48.84733" lon="2.30074">
        <ele>96.5</ele>
        <time>2015-05-11T20:50:40.490Z</time>
      </trkpt>
      <trkpt lat="48.84738" lon="2.30083">
        <ele>96.7</ele>
        <time>2015-05-11T20:50:42.495Z</time>
      </trkpt>
      <trkpt lat="48.84741" lon="2.30088">
        <ele>96.9</ele>
        <time>2015-05-11T20:50:43.528Z</time>
      </trkpt>
      <trkpt lat="48.84748" lon="2.30096">
        <ele>97.2</ele>
        <time>2015-05-11T20:50:45.460Z</time>
      </trkpt>
      <trkpt lat="48.84751" lon="2.301">
        <ele>97.3</ele>
        <time>2015-05-11T20:50:46.497Z</time>
      </trkpt>
      <trkpt lat="48.84758" lon="2.30106">
        <ele>98</ele>
        <time>2015-05-11T20:50:48.535Z</time>
      </trkpt>
      <trkpt lat="48.8476" lon="2.3011">
        <ele>98.2</ele>
        <time>2015-05-11T20:50:49.548Z</time>
      </trkpt>
      <trkpt lat="48.84764" lon="2.30115">
        <ele>98.2</ele>
        <time>2015-05-11T20:50:50.465Z</time>
      </trkpt>
      <trkpt lat="48.84768" lon="2.3012">
        <ele>98.4</ele>
        <time>2015-05-11T20:50:51.462Z</time>
      </trkpt>
      <trkpt lat="48.84772" lon="2.3013">
        <ele>98.9</ele>
        <time>2015-05-11T20:50:53.506Z</time>
      </trkpt>
      <trkpt lat="48.84775" lon="2.30134">
        <ele>99.1</ele>
        <time>2015-05-11T20:50:54.517Z</time>
      </trkpt>
      <trkpt lat="48.8478" lon="2.30139">
        <ele>99.8</ele>
        <time>2015-05-11T20:50:56.459Z</time>
      </trkpt>
      <trkpt lat="48.84782" lon="2.30141">
        <ele>100.2</ele>
        <time>2015-05-11T20:50:57.508Z</time>
      </trkpt>
      <trkpt lat="48.84787" lon="2.30152">
        <ele>99.3</ele>
        <time>2015-05-11T20:51:01.565Z</time>
      </trkpt>
      <trkpt lat="48.84789" lon="2.30154">
        <ele>98</ele>
        <time>2015-05-11T20:51:02.478Z</time>
      </trkpt>
      <trkpt lat="48.8479" lon="2.30168">
        <ele>95.2</ele>
        <time>2015-05-11T20:51:07.488Z</time>
      </trkpt>
      <trkpt lat="48.8479" lon="2.30171">
        <ele>94.9</ele>
        <time>2015-05-11T20:51:08.500Z</time>
      </trkpt>
      <trkpt lat="48.84795" lon="2.30182">
        <ele>93.5</ele>
        <time>2015-05-11T20:51:11.476Z</time>
      </trkpt>
      <trkpt lat="48.84797" lon="2.30183">
        <ele>93</ele>
        <time>2015-05-11T20:51:12.487Z</time>
      </trkpt>
      <trkpt lat="48.84802" lon="2.30189">
        <ele>92.2</ele>
        <time>2015-05-11T20:52:22.505Z</time>
      </trkpt>
      <trkpt lat="48.84815" lon="2.30196">
        <ele>92.1</ele>
        <time>2015-05-11T20:52:23.571Z</time>
      </trkpt>
      <trkpt lat="48.84821" lon="2.30205">
        <ele>91.7</ele>
        <time>2015-05-11T20:52:26.529Z</time>
      </trkpt>
      <trkpt lat="48.84824" lon="2.3021">
        <ele>91.3</ele>
        <time>2015-05-11T20:52:27.579Z</time>
      </trkpt>
      <trkpt lat="48.84828" lon="2.30219">
        <ele>90.6</ele>
        <time>2015-05-11T20:52:29.479Z</time>
      </trkpt>
      <trkpt lat="48.84831" lon="2.30222">
        <ele>90.5</ele>
        <time>2015-05-11T20:52:30.468Z</time>
      </trkpt>
      <trkpt lat="48.84835" lon="2.30229">
        <ele>90.5</ele>
        <time>2015-05-11T20:52:32.545Z</time>
      </trkpt>
      <trkpt lat="48.84838" lon="2.30234">
        <ele>90.4</ele>
        <time>2015-05-11T20:52:33.476Z</time>
      </trkpt>
      <trkpt lat="48.84841" lon="2.30242">
        <ele>90.3</ele>
        <time>2015-05-11T20:52:35.432Z</time>
      </trkpt>
      <trkpt lat="48.84844" lon="2.30246">
        <ele>90.2</ele>
        <time>2015-05-11T20:52:36.459Z</time>
      </trkpt>
      <trkpt lat="48.84849" lon="2.30255">
        <ele>90</ele>
        <time>2015-05-11T20:52:38.491Z</time>
      </trkpt>
      <trkpt lat="48.84852" lon="2.3026">
        <ele>89.7</ele>
        <time>2015-05-11T20:52:39.503Z</time>
      </trkpt>
      <trkpt lat="48.84856" lon="2.30266">
        <ele>89.3</ele>
        <time>2015-05-11T20:52:40.509Z</time>
      </trkpt>
      <trkpt lat="48.8486" lon="2.3027">
        <ele>89</ele>
        <time>2015-05-11T20:52:41.561Z</time>
      </trkpt>
      <trkpt lat="48.84864" lon="2.30275">
        <ele>88.6</ele>
        <time>2015-05-11T20:52:42.517Z</time>
      </trkpt>
      <trkpt lat="48.84868" lon="2.3028">
        <ele>88.6</ele>
        <time>2015-05-11T20:52:43.493Z</time>
      </trkpt>
      <trkpt lat="48.84871" lon="2.30285">
        <ele>88.5</ele>
        <time>2015-05-11T20:52:44.517Z</time>
      </trkpt>
      <trkpt lat="48.84875" lon="2.30289">
        <ele>88.7</ele>
        <time>2015-05-11T20:52:45.543Z</time>
      </trkpt>
      <trkpt lat="48.84879" lon="2.30294">
        <ele>88.6</ele>
        <time>2015-05-11T20:52:46.462Z</time>
      </trkpt>
      <trkpt lat="48.84883" lon="2.30301">
        <ele>88.5</ele>
        <time>2015-05-11T20:52:47.473Z</time>
      </trkpt>
      <trkpt lat="48.84888" lon="2.30311">
        <ele>88.6</ele>
        <time>2015-05-11T20:52:49.510Z</time>
      </trkpt>
      <trkpt lat="48.84891" lon="2.30317">
        <ele>87.9</ele>
        <time>2015-05-11T20:52:50.524Z</time>
      </trkpt>
      <trkpt lat="48.84895" lon="2.30324">
        <ele>86.8</ele>
        <time>2015-05-11T20:52:51.467Z</time>
      </trkpt>
      <trkpt lat="48.84901" lon="2.3033">
        <ele>86.1</ele>
        <time>2015-05-11T20:52:52.476Z</time>
      </trkpt>
      <trkpt lat="48.84906" lon="2.30336">
        <ele>85.6</ele>
        <time>2015-05-11T20:52:53.487Z</time>
      </trkpt>
      <trkpt lat="48.84911" lon="2.30341">
        <ele>85.4</ele>
        <time>2015-05-11T20:52:54.497Z</time>
      </trkpt>
      <trkpt lat="48.84915" lon="2.30345">
        <ele>85.5</ele>
        <time>2015-05-11T20:52:55.500Z</time>
      </trkpt>
      <trkpt lat="48.84919" lon="2.3035">
        <ele>85.1</ele>
        <time>2015-05-11T20:52:56.510Z</time>
      </trkpt>
      <trkpt lat="48.84922" lon="2.30356">
        <ele>84.9</ele>
        <time>2015-05-11T20:52:54.601Z</time>
      </trkpt>
      <trkpt lat="48.84925" lon="2.30361">
        <ele>84.7</ele>
        <time>2015-05-11T20:52:58.453Z</time>
      </trkpt>
      <trkpt lat="48.84928" lon="2.30366">
        <ele>84.4</ele>
        <time>2015-05-11T20:52:59.453Z</time>
      </trkpt>
      <trkpt lat="48.84931" lon="2.30372">
        <ele>84.5</ele>
        <time>2015-05-11T20:53:00.491Z</time>
      </trkpt>
      <trkpt lat="48.84936" lon="2.30383">
        <ele>84.4</ele>
        <time>2015-05-11T20:53:02.204Z</time>
      </trkpt>
      <trkpt lat="48.84938" lon="2.30388">
        <ele>84.4</ele>
        <time>2015-05-11T20:53:03.459Z</time>
      </trkpt>
      <trkpt lat="48.84943" lon="2.30395">
        <ele>84.5</ele>
        <time>2015-05-11T20:53:05.478Z</time>
      </trkpt>
      <trkpt lat="48.84946" lon="2.30399">
        <ele>84.5</ele>
        <time>2015-05-11T20:53:06.506Z</time>
      </trkpt>
      <trkpt lat="48.84953" lon="2.30406">
        <ele>84</ele>
        <time>2015-05-11T20:53:08.541Z</time>
      </trkpt>
      <trkpt lat="48.84956" lon="2.30409">
        <ele>83.9</ele>
        <time>2015-05-11T20:53:09.552Z</time>
      </trkpt>
      <trkpt lat="48.84963" lon="2.30418">
        <ele>84</ele>
        <time>2015-05-11T20:53:11.479Z</time>
      </trkpt>
      <trkpt lat="48.84967" lon="2.30423">
        <ele>83.7</ele>
        <time>2015-05-11T20:53:12.500Z</time>
      </trkpt>
      <trkpt lat="48.84973" lon="2.30432">
        <ele>83.7</ele>
        <time>2015-05-11T20:53:14.529Z</time>
      </trkpt>
      <trkpt lat="48.84976" lon="2.30437">
        <ele>83.9</ele>
        <time>2015-05-11T20:53:15.441Z</time>
      </trkpt>
      <trkpt lat="48.8498" lon="2.30447">
        <ele>84.2</ele>
        <time>2015-05-11T20:53:17.487Z</time>
      </trkpt>
      <trkpt lat="48.84983" lon="2.30452">
        <ele>84.5</ele>
        <time>2015-05-11T20:53:18.520Z</time>
      </trkpt>
      <trkpt lat="48.84985" lon="2.30458">
        <ele>84.6</ele>
        <time>2015-05-11T20:53:19.493Z</time>
      </trkpt>
      <trkpt lat="48.84988" lon="2.30463">
        <ele>85.1</ele>
        <time>2015-05-11T20:53:20.494Z</time>
      </trkpt>
      <trkpt lat="48.84992" lon="2.3047">
        <ele>84.7</ele>
        <time>2015-05-11T20:53:21.520Z</time>
      </trkpt>
      <trkpt lat="48.84997" lon="2.30475">
        <ele>84.5</ele>
        <time>2015-05-11T20:53:22.527Z</time>
      </trkpt>
      <trkpt lat="48.85002" lon="2.3048">
        <ele>84.6</ele>
        <time>2015-05-11T20:53:23.528Z</time>
      </trkpt>
      <trkpt lat="48.85007" lon="2.30486">
        <ele>84.8</ele>
        <time>2015-05-11T20:53:24.541Z</time>
      </trkpt>
      <trkpt lat="48.85012" lon="2.30491">
        <ele>84.8</ele>
        <time>2015-05-11T20:53:25.550Z</time>
      </trkpt>
      <trkpt lat="48.85018" lon="2.30497">
        <ele>84.8</ele>
        <time>2015-05-11T20:53:26.559Z</time>
      </trkpt>
      <trkpt lat="48.85024" lon="2.30502">
        <ele>84.4</ele>
        <time>2015-05-11T20:53:27.458Z</time>
      </trkpt>
      <trkpt lat="48.85028" lon="2.30509">
        <ele>84.4</ele>
        <time>2015-05-11T20:53:28.463Z</time>
      </trkpt>
      <trkpt lat="48.85032" lon="2.30515">
        <ele>84.2</ele>
        <time>2015-05-11T20:53:29.479Z</time>
      </trkpt>
      <trkpt lat="48.85036" lon="2.30521">
        <ele>84.2</ele>
        <time>2015-05-11T20:53:30.498Z</time>
      </trkpt>
      <trkpt lat="48.8504" lon="2.30526">
        <ele>84.2</ele>
        <time>2015-05-11T20:53:31.527Z</time>
      </trkpt>
      <trkpt lat="48.85044" lon="2.30532">
        <ele>84.3</ele>
        <time>2015-05-11T20:53:32.559Z</time>
      </trkpt>
      <trkpt lat="48.85049" lon="2.30537">
        <ele>84.8</ele>
        <time>2015-05-11T20:53:33.460Z</time>
      </trkpt>
      <trkpt lat="48.85053" lon="2.30542">
        <ele>84.9</ele>
        <time>2015-05-11T20:53:34.462Z</time>
      </trkpt>
      <trkpt lat="48.85057" lon="2.30548">
        <ele>84.8</ele>
        <time>2015-05-11T20:53:35.450Z</time>
      </trkpt>
      <trkpt lat="48.85061" lon="2.30554">
        <ele>84.8</ele>
        <time>2015-05-11T20:53:36.557Z</time>
      </trkpt>
      <trkpt lat="48.85064" lon="2.30559">
        <ele>84.6</ele>
        <time>2015-05-11T20:53:37.556Z</time>
      </trkpt>
      <trkpt lat="48.85068" lon="2.30564">
        <ele>84.5</ele>
        <time>2015-05-11T20:53:38.457Z</time>
      </trkpt>
      <trkpt lat="48.85072" lon="2.30569">
        <ele>84</ele>
        <time>2015-05-11T20:53:39.458Z</time>
      </trkpt>
      <trkpt lat="48.85075" lon="2.30574">
        <ele>83.6</ele>
        <time>2015-05-11T20:53:40.462Z</time>
      </trkpt>
      <trkpt lat="48.85079" lon="2.30579">
        <ele>83.6</ele>
        <time>2015-05-11T20:53:41.469Z</time>
      </trkpt>
      <trkpt lat="48.85082" lon="2.30584">
        <ele>83.3</ele>
        <time>2015-05-11T20:53:42.508Z</time>
      </trkpt>
      <trkpt lat="48.85086" lon="2.30589">
        <ele>83.3</ele>
        <time>2015-05-11T20:53:43.542Z</time>
      </trkpt>
      <trkpt lat="48.8509" lon="2.30594">
        <ele>83.3</ele>
        <time>2015-05-11T20:53:44.434Z</time>
      </trkpt>
      <trkpt lat="48.85093" lon="2.30599">
        <ele>83.5</ele>
        <time>2015-05-11T20:53:45.470Z</time>
      </trkpt>
      <trkpt lat="48.85097" lon="2.30604">
        <ele>83.3</ele>
        <time>2015-05-11T20:53:46.459Z</time>
      </trkpt>
      <trkpt lat="48.85101" lon="2.30609">
        <ele>83.3</ele>
        <time>2015-05-11T20:53:47.496Z</time>
      </trkpt>
      <trkpt lat="48.85104" lon="2.30614">
        <ele>83.2</ele>
        <time>2015-05-11T20:53:48.501Z</time>
      </trkpt>
      <trkpt lat="48.85108" lon="2.3062">
        <ele>82.9</ele>
        <time>2015-05-11T20:53:49.513Z</time>
      </trkpt>
      <trkpt lat="48.85111" lon="2.30625">
        <ele>82.6</ele>
        <time>2015-05-11T20:53:50.539Z</time>
      </trkpt>
      <trkpt lat="48.85115" lon="2.3063">
        <ele>82.5</ele>
        <time>2015-05-11T20:53:51.444Z</time>
      </trkpt>
      <trkpt lat="48.85119" lon="2.30635">
        <ele>82.4</ele>
        <time>2015-05-11T20:53:52.461Z</time>
      </trkpt>
      <trkpt lat="48.85122" lon="2.3064">
        <ele>82.2</ele>
        <time>2015-05-11T20:53:53.477Z</time>
      </trkpt>
      <trkpt lat="48.85126" lon="2.30645">
        <ele>82.1</ele>
        <time>2015-05-11T20:53:54.499Z</time>
      </trkpt>
      <trkpt lat="48.8513" lon="2.3065">
        <ele>82.2</ele>
        <time>2015-05-11T20:53:55.510Z</time>
      </trkpt>
      <trkpt lat="48.85133" lon="2.30656">
        <ele>82.1</ele>
        <time>2015-05-11T20:53:56.519Z</time>
      </trkpt>
      <trkpt lat="48.85137" lon="2.30661">
        <ele>81.9</ele>
        <time>2015-05-11T20:53:57.531Z</time>
      </trkpt>
      <trkpt lat="48.85141" lon="2.30666">
        <ele>81.6</ele>
        <time>2015-05-11T20:53:58.535Z</time>
      </trkpt>
      <trkpt lat="48.85144" lon="2.30672">
        <ele>81.2</ele>
        <time>2015-05-11T20:53:59.552Z</time>
      </trkpt>
      <trkpt lat="48.85148" lon="2.30678">
        <ele>80.9</ele>
        <time>2015-05-11T20:54:00.566Z</time>
      </trkpt>
      <trkpt lat="48.85152" lon="2.30683">
        <ele>80.8</ele>
        <time>2015-05-11T20:54:01.592Z</time>
      </trkpt>
      <trkpt lat="48.85155" lon="2.30688">
        <ele>81</ele>
        <time>2015-05-11T20:54:02.475Z</time>
      </trkpt>
      <trkpt lat="48.85159" lon="2.30694">
        <ele>81</ele>
        <time>2015-05-11T20:54:03.488Z</time>
      </trkpt>
      <trkpt lat="48.85162" lon="2.30699">
        <ele>81.1</ele>
        <time>2015-05-11T20:54:04.521Z</time>
      </trkpt>
      <trkpt lat="48.85166" lon="2.30704">
        <ele>81.3</ele>
        <time>2015-05-11T20:54:05.463Z</time>
      </trkpt>
      <trkpt lat="48.8517" lon="2.30709">
        <ele>81.5</ele>
        <time>2015-05-11T20:54:06.488Z</time>
      </trkpt>
      <trkpt lat="48.85173" lon="2.30714">
        <ele>81.4</ele>
        <time>2015-05-11T20:54:07.555Z</time>
      </trkpt>
      <trkpt lat="48.85177" lon="2.30719">
        <ele>81.4</ele>
        <time>2015-05-11T20:54:08.462Z</time>
      </trkpt>
      <trkpt lat="48.85179" lon="2.30724">
        <ele>81.4</ele>
        <time>2015-05-11T20:54:09.562Z</time>
      </trkpt>
      <trkpt lat="48.85182" lon="2.3073">
        <ele>81.4</ele>
        <time>2015-05-11T20:54:10.485Z</time>
      </trkpt>
      <trkpt lat="48.85184" lon="2.30737">
        <ele>81.2</ele>
        <time>2015-05-11T20:54:11.483Z</time>
      </trkpt>
      <trkpt lat="48.85187" lon="2.30743">
        <ele>81.4</ele>
        <time>2015-05-11T20:54:12.511Z</time>
      </trkpt>
      <trkpt lat="48.8519" lon="2.30749">
        <ele>81.5</ele>
        <time>2015-05-11T20:54:13.464Z</time>
      </trkpt>
      <trkpt lat="48.85193" lon="2.30755">
        <ele>81.7</ele>
        <time>2015-05-11T20:54:14.457Z</time>
      </trkpt>
      <trkpt lat="48.85196" lon="2.30761">
        <ele>81.9</ele>
        <time>2015-05-11T20:54:15.465Z</time>
      </trkpt>
      <trkpt lat="48.85199" lon="2.30767">
        <ele>82.3</ele>
        <time>2015-05-11T20:54:16.475Z</time>
      </trkpt>
      <trkpt lat="48.85203" lon="2.30772">
        <ele>82.6</ele>
        <time>2015-05-11T20:54:17.497Z</time>
      </trkpt>
      <trkpt lat="48.85206" lon="2.30778">
        <ele>83</ele>
        <time>2015-05-11T20:54:18.525Z</time>
      </trkpt>
      <trkpt lat="48.85209" lon="2.30784">
        <ele>83.2</ele>
        <time>2015-05-11T20:54:19.557Z</time>
      </trkpt>
      <trkpt lat="48.85213" lon="2.30789">
        <ele>83.4</ele>
        <time>2015-05-11T20:54:20.470Z</time>
      </trkpt>
      <trkpt lat="48.85217" lon="2.30795">
        <ele>83.8</ele>
        <time>2015-05-11T20:54:21.439Z</time>
      </trkpt>
      <trkpt lat="48.85222" lon="2.30801">
        <ele>84.1</ele>
        <time>2015-05-11T20:54:22.447Z</time>
      </trkpt>
      <trkpt lat="48.85226" lon="2.30807">
        <ele>84.1</ele>
        <time>2015-05-11T20:54:23.470Z</time>
      </trkpt>
      <trkpt lat="48.8523" lon="2.30812">
        <ele>84.3</ele>
        <time>2015-05-11T20:54:24.496Z</time>
      </trkpt>
      <trkpt lat="48.85236" lon="2.30818">
        <ele>84.1</ele>
        <time>2015-05-11T20:54:25.504Z</time>
      </trkpt>
      <trkpt lat="48.85242" lon="2.30822">
        <ele>84.3</ele>
        <time>2015-05-11T20:54:26.513Z</time>
      </trkpt>
      <trkpt lat="48.85247" lon="2.30826">
        <ele>84.8</ele>
        <time>2015-05-11T20:54:27.520Z</time>
      </trkpt>
      <trkpt lat="48.85251" lon="2.30831">
        <ele>85.1</ele>
        <time>2015-05-11T20:54:28.425Z</time>
      </trkpt>
      <trkpt lat="48.85255" lon="2.30835">
        <ele>85.4</ele>
        <time>2015-05-11T20:54:29.456Z</time>
      </trkpt>
      <trkpt lat="48.85259" lon="2.3084">
        <ele>85.7</ele>
        <time>2015-05-11T20:54:30.486Z</time>
      </trkpt>
      <trkpt lat="48.85265" lon="2.30848">
        <ele>86.2</ele>
        <time>2015-05-11T20:54:32.423Z</time>
      </trkpt>
      <trkpt lat="48.85267" lon="2.30851">
        <ele>86.5</ele>
        <time>2015-05-11T20:54:33.450Z</time>
      </trkpt>
      <trkpt lat="48.85269" lon="2.30861">
        <ele>85.4</ele>
        <time>2015-05-11T20:54:47.493Z</time>
      </trkpt>
      <trkpt lat="48.85271" lon="2.30864">
        <ele>85.4</ele>
        <time>2015-05-11T20:54:48.533Z</time>
      </trkpt>
      <trkpt lat="48.85277" lon="2.3087">
        <ele>85</ele>
        <time>2015-05-11T20:54:51.490Z</time>
      </trkpt>
      <trkpt lat="48.8528" lon="2.30871">
        <ele>84.4</ele>
        <time>2015-05-11T20:54:52.541Z</time>
      </trkpt>
      <trkpt lat="48.85286" lon="2.30878">
        <ele>84</ele>
        <time>2015-05-11T20:54:55.546Z</time>
      </trkpt>
      <trkpt lat="48.85289" lon="2.30881">
        <ele>84</ele>
        <time>2015-05-11T20:54:56.581Z</time>
      </trkpt>
      <trkpt lat="48.85294" lon="2.30888">
        <ele>83.8</ele>
        <time>2015-05-11T20:54:58.604Z</time>
      </trkpt>
      <trkpt lat="48.85296" lon="2.30892">
        <ele>83.9</ele>
        <time>2015-05-11T20:54:59.523Z</time>
      </trkpt>
      <trkpt lat="48.85301" lon="2.30899">
        <ele>83.4</ele>
        <time>2015-05-11T20:55:01.484Z</time>
      </trkpt>
      <trkpt lat="48.85304" lon="2.30903">
        <ele>83.2</ele>
        <time>2015-05-11T20:55:02.572Z</time>
      </trkpt>
      <trkpt lat="48.85309" lon="2.3091">
        <ele>83.2</ele>
        <time>2015-05-11T20:55:04.466Z</time>
      </trkpt>
      <trkpt lat="48.85312" lon="2.30913">
        <ele>83.4</ele>
        <time>2015-05-11T20:55:05.538Z</time>
      </trkpt>
      <trkpt lat="48.85317" lon="2.30921">
        <ele>83.7</ele>
        <time>2015-05-11T20:55:07.493Z</time>
      </trkpt>
      <trkpt lat="48.8532" lon="2.30925">
        <ele>83.9</ele>
        <time>2015-05-11T20:55:08.457Z</time>
      </trkpt>
      <trkpt lat="48.85326" lon="2.30932">
        <ele>85.2</ele>
        <time>2015-05-11T20:55:10.514Z</time>
      </trkpt>
      <trkpt lat="48.85328" lon="2.30936">
        <ele>85.7</ele>
        <time>2015-05-11T20:55:11.533Z</time>
      </trkpt>
      <trkpt lat="48.85333" lon="2.30939">
        <ele>86.7</ele>
        <time>2015-05-11T20:55:13.490Z</time>
      </trkpt>
      <trkpt lat="48.85336" lon="2.3094">
        <ele>86.9</ele>
        <time>2015-05-11T20:55:14.468Z</time>
      </trkpt>
      <trkpt lat="48.85342" lon="2.30945">
        <ele>87.5</ele>
        <time>2015-05-11T20:55:16.485Z</time>
      </trkpt>
      <trkpt lat="48.85345" lon="2.30947">
        <ele>88.1</ele>
        <time>2015-05-11T20:55:17.495Z</time>
      </trkpt>
      <trkpt lat="48.85354" lon="2.30949">
        <ele>89</ele>
        <time>2015-05-11T20:55:20.420Z</time>
      </trkpt>
      <trkpt lat="48.85358" lon="2.30949">
        <ele>89.1</ele>
        <time>2015-05-11T20:55:21.462Z</time>
      </trkpt>
      <trkpt lat="48.85364" lon="2.30949">
        <ele>88.6</ele>
        <time>2015-05-11T20:55:23.516Z</time>
      </trkpt>
      <trkpt lat="48.85367" lon="2.3095">
        <ele>88.3</ele>
        <time>2015-05-11T20:55:24.525Z</time>
      </trkpt>
      <trkpt lat="48.85376" lon="2.30951">
        <ele>87.8</ele>
        <time>2015-05-11T20:55:27.455Z</time>
      </trkpt>
      <trkpt lat="48.85379" lon="2.30951">
        <ele>87.4</ele>
        <time>2015-05-11T20:55:28.462Z</time>
      </trkpt>
      <trkpt lat="48.85387" lon="2.30951">
        <ele>87.1</ele>
        <time>2015-05-11T20:55:30.492Z</time>
      </trkpt>
      <trkpt lat="48.85391" lon="2.30952">
        <ele>87.2</ele>
        <time>2015-05-11T20:55:31.532Z</time>
      </trkpt>
      <trkpt lat="48.85399" lon="2.30953">
        <ele>87.5</ele>
        <time>2015-05-11T20:55:33.498Z</time>
      </trkpt>
      <trkpt lat="48.85402" lon="2.30954">
        <ele>87.9</ele>
        <time>2015-05-11T20:55:34.501Z</time>
      </trkpt>
      <trkpt lat="48.85409" lon="2.30957">
        <ele>88.6</ele>
        <time>2015-05-11T20:55:36.518Z</time>
      </trkpt>
      <trkpt lat="48.85413" lon="2.30959">
        <ele>89.1</ele>
        <time>2015-05-11T20:55:37.531Z</time>
      </trkpt>
      <trkpt lat="48.85421" lon="2.30962">
        <ele>90.2</ele>
        <time>2015-05-11T20:55:39.468Z</time>
      </trkpt>
      <trkpt lat="48.85425" lon="2.30962">
        <ele>90.5</ele>
        <time>2015-05-11T20:55:40.473Z</time>
      </trkpt>
      <trkpt lat="48.85429" lon="2.30962">
        <ele>90.6</ele>
        <time>2015-05-11T20:55:41.496Z</time>
      </trkpt>
      <trkpt lat="48.85435" lon="2.30962">
        <ele>90.9</ele>
        <time>2015-05-11T20:55:42.505Z</time>
      </trkpt>
      <trkpt lat="48.8544" lon="2.30963">
        <ele>91.1</ele>
        <time>2015-05-11T20:55:43.541Z</time>
      </trkpt>
      <trkpt lat="48.85446" lon="2.30964">
        <ele>91.3</ele>
        <time>2015-05-11T20:55:44.539Z</time>
      </trkpt>
      <trkpt lat="48.85451" lon="2.30964">
        <ele>91.5</ele>
        <time>2015-05-11T20:55:44.666Z</time>
      </trkpt>
      <trkpt lat="48.85456" lon="2.30963">
        <ele>91.6</ele>
        <time>2015-05-11T20:55:46.507Z</time>
      </trkpt>
      <trkpt lat="48.85461" lon="2.30965">
        <ele>91.9</ele>
        <time>2015-05-11T20:55:47.577Z</time>
      </trkpt>
      <trkpt lat="48.85467" lon="2.30966">
        <ele>92.2</ele>
        <time>2015-05-11T20:55:48.562Z</time>
      </trkpt>
      <trkpt lat="48.85472" lon="2.30967">
        <ele>92.4</ele>
        <time>2015-05-11T20:55:49.742Z</time>
      </trkpt>
      <trkpt lat="48.85478" lon="2.30966">
        <ele>92.3</ele>
        <time>2015-05-11T20:55:50.486Z</time>
      </trkpt>
      <trkpt lat="48.85484" lon="2.30965">
        <ele>92.1</ele>
        <time>2015-05-11T20:55:51.528Z</time>
      </trkpt>
      <trkpt lat="48.85491" lon="2.30964">
        <ele>91.9</ele>
        <time>2015-05-11T20:55:52.525Z</time>
      </trkpt>
      <trkpt lat="48.85496" lon="2.30965">
        <ele>92</ele>
        <time>2015-05-11T20:55:53.538Z</time>
      </trkpt>
      <trkpt lat="48.85501" lon="2.30966">
        <ele>92.1</ele>
        <time>2015-05-11T20:55:54.583Z</time>
      </trkpt>
      <trkpt lat="48.85507" lon="2.30969">
        <ele>92.3</ele>
        <time>2015-05-11T20:55:55.497Z</time>
      </trkpt>
      <trkpt lat="48.85512" lon="2.3097">
        <ele>92.5</ele>
        <time>2015-05-11T20:55:56.504Z</time>
      </trkpt>
      <trkpt lat="48.85516" lon="2.30971">
        <ele>92.4</ele>
        <time>2015-05-11T20:55:57.519Z</time>
      </trkpt>
      <trkpt lat="48.85522" lon="2.30972">
        <ele>92.6</ele>
        <time>2015-05-11T20:55:58.414Z</time>
      </trkpt>
      <trkpt lat="48.85528" lon="2.30972">
        <ele>92.5</ele>
        <time>2015-05-11T20:55:59.449Z</time>
      </trkpt>
      <trkpt lat="48.85534" lon="2.30971">
        <ele>92.5</ele>
        <time>2015-05-11T20:56:00.453Z</time>
      </trkpt>
      <trkpt lat="48.85539" lon="2.30971">
        <ele>92.1</ele>
        <time>2015-05-11T20:56:01.472Z</time>
      </trkpt>
      <trkpt lat="48.85545" lon="2.3097">
        <ele>91.9</ele>
        <time>2015-05-11T20:56:02.474Z</time>
      </trkpt>
      <trkpt lat="48.85551" lon="2.30971">
        <ele>91.2</ele>
        <time>2015-05-11T20:56:03.488Z</time>
      </trkpt>
      <trkpt lat="48.85556" lon="2.30972">
        <ele>90.8</ele>
        <time>2015-05-11T20:56:04.505Z</time>
      </trkpt>
      <trkpt lat="48.85561" lon="2.30973">
        <ele>90.4</ele>
        <time>2015-05-11T20:56:05.528Z</time>
      </trkpt>
      <trkpt lat="48.85566" lon="2.30973">
        <ele>90.3</ele>
        <time>2015-05-11T20:56:06.533Z</time>
      </trkpt>
      <trkpt lat="48.85572" lon="2.30973">
        <ele>89.9</ele>
        <time>2015-05-11T20:56:07.543Z</time>
      </trkpt>
      <trkpt lat="48.85578" lon="2.30973">
        <ele>89.8</ele>
        <time>2015-05-11T20:56:08.443Z</time>
      </trkpt>
      <trkpt lat="48.85583" lon="2.30973">
        <ele>89.7</ele>
        <time>2015-05-11T20:56:09.446Z</time>
      </trkpt>
      <trkpt lat="48.85588" lon="2.30973">
        <ele>89.6</ele>
        <time>2015-05-11T20:56:10.451Z</time>
      </trkpt>
      <trkpt lat="48.85593" lon="2.30972">
        <ele>89.3</ele>
        <time>2015-05-11T20:56:11.472Z</time>
      </trkpt>
      <trkpt lat="48.85598" lon="2.30973">
        <ele>89.2</ele>
        <time>2015-05-11T20:56:12.492Z</time>
      </trkpt>
      <trkpt lat="48.85602" lon="2.30973">
        <ele>89.3</ele>
        <time>2015-05-11T20:56:13.508Z</time>
      </trkpt>
      <trkpt lat="48.85607" lon="2.30974">
        <ele>89.1</ele>
        <time>2015-05-11T20:56:14.465Z</time>
      </trkpt>
      <trkpt lat="48.85613" lon="2.30973">
        <ele>88.7</ele>
        <time>2015-05-11T20:56:15.512Z</time>
      </trkpt>
      <trkpt lat="48.85618" lon="2.30972">
        <ele>88.2</ele>
        <time>2015-05-11T20:56:16.517Z</time>
      </trkpt>
      <trkpt lat="48.85624" lon="2.30972">
        <ele>88.3</ele>
        <time>2015-05-11T20:56:17.468Z</time>
      </trkpt>
      <trkpt lat="48.85628" lon="2.30973">
        <ele>88.7</ele>
        <time>2015-05-11T20:56:18.490Z</time>
      </trkpt>
      <trkpt lat="48.85636" lon="2.30976">
        <ele>88.7</ele>
        <time>2015-05-11T20:56:20.515Z</time>
      </trkpt>
      <trkpt lat="48.85641" lon="2.30977">
        <ele>88.5</ele>
        <time>2015-05-11T20:56:21.457Z</time>
      </trkpt>
      <trkpt lat="48.85646" lon="2.30977">
        <ele>88.5</ele>
        <time>2015-05-11T20:56:22.413Z</time>
      </trkpt>
      <trkpt lat="48.85651" lon="2.30978">
        <ele>88.5</ele>
        <time>2015-05-11T20:56:23.431Z</time>
      </trkpt>
      <trkpt lat="48.8566" lon="2.3098">
        <ele>88.5</ele>
        <time>2015-05-11T20:56:25.454Z</time>
      </trkpt>
      <trkpt lat="48.85664" lon="2.30982">
        <ele>88.4</ele>
        <time>2015-05-11T20:56:26.484Z</time>
      </trkpt>
      <trkpt lat="48.85672" lon="2.30981">
        <ele>88.3</ele>
        <time>2015-05-11T20:56:28.442Z</time>
      </trkpt>
      <trkpt lat="48.85676" lon="2.3098">
        <ele>88.2</ele>
        <time>2015-05-11T20:56:29.446Z</time>
      </trkpt>
      <trkpt lat="48.85683" lon="2.30978">
        <ele>88.2</ele>
        <time>2015-05-11T20:56:31.463Z</time>
      </trkpt>
      <trkpt lat="48.85686" lon="2.30978">
        <ele>88.3</ele>
        <time>2015-05-11T20:56:32.518Z</time>
      </trkpt>
      <trkpt lat="48.85692" lon="2.30983">
        <ele>88.8</ele>
        <time>2015-05-11T20:56:34.465Z</time>
      </trkpt>
      <trkpt lat="48.85695" lon="2.30986">
        <ele>89</ele>
        <time>2015-05-11T20:56:35.493Z</time>
      </trkpt>
      <trkpt lat="48.857" lon="2.30989">
        <ele>88.7</ele>
        <time>2015-05-11T20:56:36.564Z</time>
      </trkpt>
      <trkpt lat="48.85705" lon="2.30992">
        <ele>88.6</ele>
        <time>2015-05-11T20:56:37.458Z</time>
      </trkpt>
      <trkpt lat="48.8571" lon="2.30995">
        <ele>88.2</ele>
        <time>2015-05-11T20:56:38.460Z</time>
      </trkpt>
      <trkpt lat="48.85717" lon="2.31001">
        <ele>87.1</ele>
        <time>2015-05-11T20:56:39.467Z</time>
      </trkpt>
      <trkpt lat="48.85725" lon="2.31008">
        <ele>86.1</ele>
        <time>2015-05-11T20:56:40.479Z</time>
      </trkpt>
      <trkpt lat="48.85733" lon="2.31015">
        <ele>85.2</ele>
        <time>2015-05-11T20:56:41.488Z</time>
      </trkpt>
      <trkpt lat="48.8574" lon="2.31022">
        <ele>84.8</ele>
        <time>2015-05-11T20:56:42.503Z</time>
      </trkpt>
      <trkpt lat="48.85747" lon="2.31028">
        <ele>84.5</ele>
        <time>2015-05-11T20:56:43.506Z</time>
      </trkpt>
      <trkpt lat="48.85754" lon="2.31034">
        <ele>84.3</ele>
        <time>2015-05-11T20:56:44.445Z</time>
      </trkpt>
      <trkpt lat="48.8576" lon="2.3104">
        <ele>84.3</ele>
        <time>2015-05-11T20:56:45.462Z</time>
      </trkpt>
      <trkpt lat="48.85765" lon="2.31045">
        <ele>84.1</ele>
        <time>2015-05-11T20:56:46.471Z</time>
      </trkpt>
      <trkpt lat="48.8577" lon="2.31052">
        <ele>84.3</ele>
        <time>2015-05-11T20:56:47.474Z</time>
      </trkpt>
      <trkpt lat="48.85775" lon="2.31059">
        <ele>84.5</ele>
        <time>2015-05-11T20:56:48.489Z</time>
      </trkpt>
      <trkpt lat="48.8578" lon="2.31065">
        <ele>84.8</ele>
        <time>2015-05-11T20:56:49.492Z</time>
      </trkpt>
      <trkpt lat="48.85786" lon="2.3107">
        <ele>85</ele>
        <time>2015-05-11T20:56:50.498Z</time>
      </trkpt>
      <trkpt lat="48.85791" lon="2.31076">
        <ele>85.4</ele>
        <time>2015-05-11T20:56:51.516Z</time>
      </trkpt>
      <trkpt lat="48.85797" lon="2.31082">
        <ele>86</ele>
        <time>2015-05-11T20:56:52.530Z</time>
      </trkpt>
      <trkpt lat="48.85803" lon="2.31088">
        <ele>86.6</ele>
        <time>2015-05-11T20:56:53.537Z</time>
      </trkpt>
      <trkpt lat="48.8581" lon="2.31093">
        <ele>87.8</ele>
        <time>2015-05-11T20:56:54.558Z</time>
      </trkpt>
      <trkpt lat="48.85815" lon="2.31099">
        <ele>88</ele>
        <time>2015-05-11T20:56:55.476Z</time>
      </trkpt>
      <trkpt lat="48.8582" lon="2.31105">
        <ele>88.3</ele>
        <time>2015-05-11T20:56:56.466Z</time>
      </trkpt>
      <trkpt lat="48.85824" lon="2.31111">
        <ele>88.4</ele>
        <time>2015-05-11T20:56:57.484Z</time>
      </trkpt>
      <trkpt lat="48.85828" lon="2.31117">
        <ele>88</ele>
        <time>2015-05-11T20:56:58.494Z</time>
      </trkpt>
      <trkpt lat="48.85832" lon="2.31122">
        <ele>87.8</ele>
        <time>2015-05-11T20:56:59.515Z</time>
      </trkpt>
      <trkpt lat="48.85835" lon="2.31126">
        <ele>87.6</ele>
        <time>2015-05-11T20:57:00.627Z</time>
      </trkpt>
      <trkpt lat="48.8584" lon="2.31131">
        <ele>87.2</ele>
        <time>2015-05-11T20:57:01.546Z</time>
      </trkpt>
      <trkpt lat="48.85843" lon="2.31138">
        <ele>87.2</ele>
        <time>2015-05-11T20:57:02.448Z</time>
      </trkpt>
      <trkpt lat="48.85845" lon="2.31146">
        <ele>87.1</ele>
        <time>2015-05-11T20:57:03.448Z</time>
      </trkpt>
      <trkpt lat="48.85848" lon="2.31154">
        <ele>87</ele>
        <time>2015-05-11T20:57:04.462Z</time>
      </trkpt>
      <trkpt lat="48.85848" lon="2.31163">
        <ele>86.6</ele>
        <time>2015-05-11T20:57:05.466Z</time>
      </trkpt>
      <trkpt lat="48.85849" lon="2.31172">
        <ele>86.3</ele>
        <time>2015-05-11T20:57:06.577Z</time>
      </trkpt>
      <trkpt lat="48.85849" lon="2.31181">
        <ele>86</ele>
        <time>2015-05-11T20:57:07.511Z</time>
      </trkpt>
      <trkpt lat="48.8585" lon="2.31189">
        <ele>85.8</ele>
        <time>2015-05-11T20:57:08.451Z</time>
      </trkpt>
      <trkpt lat="48.85851" lon="2.31197">
        <ele>85.6</ele>
        <time>2015-05-11T20:57:09.449Z</time>
      </trkpt>
      <trkpt lat="48.85851" lon="2.31205">
        <ele>85.6</ele>
        <time>2015-05-11T20:57:10.457Z</time>
      </trkpt>
      <trkpt lat="48.85852" lon="2.31214">
        <ele>85.3</ele>
        <time>2015-05-11T20:57:11.453Z</time>
      </trkpt>
      <trkpt lat="48.85851" lon="2.31223">
        <ele>85.1</ele>
        <time>2015-05-11T20:57:12.495Z</time>
      </trkpt>
      <trkpt lat="48.85851" lon="2.31231">
        <ele>84.7</ele>
        <time>2015-05-11T20:57:13.488Z</time>
      </trkpt>
      <trkpt lat="48.8585" lon="2.31239">
        <ele>84.4</ele>
        <time>2015-05-11T20:57:14.498Z</time>
      </trkpt>
      <trkpt lat="48.85849" lon="2.31247">
        <ele>84.1</ele>
        <time>2015-05-11T20:57:15.507Z</time>
      </trkpt>
      <trkpt lat="48.85848" lon="2.31256">
        <ele>83.8</ele>
        <time>2015-05-11T20:57:16.507Z</time>
      </trkpt>
      <trkpt lat="48.85847" lon="2.31264">
        <ele>83.4</ele>
        <time>2015-05-11T20:57:17.522Z</time>
      </trkpt>
      <trkpt lat="48.85846" lon="2.31272">
        <ele>83.3</ele>
        <time>2015-05-11T20:57:18.545Z</time>
      </trkpt>
      <trkpt lat="48.85845" lon="2.3128">
        <ele>83.3</ele>
        <time>2015-05-11T20:57:19.559Z</time>
      </trkpt>
      <trkpt lat="48.85845" lon="2.31288">
        <ele>82.9</ele>
        <time>2015-05-11T20:57:20.470Z</time>
      </trkpt>
      <trkpt lat="48.85844" lon="2.31295">
        <ele>82.3</ele>
        <time>2015-05-11T20:57:21.474Z</time>
      </trkpt>
      <trkpt lat="48.85843" lon="2.31302">
        <ele>81.8</ele>
        <time>2015-05-11T20:57:22.506Z</time>
      </trkpt>
      <trkpt lat="48.85843" lon="2.31309">
        <ele>81.7</ele>
        <time>2015-05-11T20:57:23.524Z</time>
      </trkpt>
      <trkpt lat="48.85843" lon="2.31316">
        <ele>81.8</ele>
        <time>2015-05-11T20:57:24.525Z</time>
      </trkpt>
      <trkpt lat="48.85842" lon="2.31323">
        <ele>81.7</ele>
        <time>2015-05-11T20:57:25.539Z</time>
      </trkpt>
      <trkpt lat="48.85841" lon="2.31331">
        <ele>81.7</ele>
        <time>2015-05-11T20:57:26.502Z</time>
      </trkpt>
      <trkpt lat="48.85841" lon="2.31338">
        <ele>81.6</ele>
        <time>2015-05-11T20:57:27.487Z</time>
      </trkpt>
      <trkpt lat="48.8584" lon="2.31345">
        <ele>81.4</ele>
        <time>2015-05-11T20:57:28.517Z</time>
      </trkpt>
      <trkpt lat="48.85839" lon="2.31353">
        <ele>81.1</ele>
        <time>2015-05-11T20:57:29.537Z</time>
      </trkpt>
      <trkpt lat="48.85839" lon="2.3136">
        <ele>80.9</ele>
        <time>2015-05-11T20:57:30.579Z</time>
      </trkpt>
      <trkpt lat="48.85838" lon="2.31367">
        <ele>80.7</ele>
        <time>2015-05-11T20:57:31.587Z</time>
      </trkpt>
      <trkpt lat="48.85837" lon="2.31374">
        <ele>81</ele>
        <time>2015-05-11T20:57:32.453Z</time>
      </trkpt>
      <trkpt lat="48.85836" lon="2.31381">
        <ele>81.1</ele>
        <time>2015-05-11T20:57:33.481Z</time>
      </trkpt>
      <trkpt lat="48.85835" lon="2.31388">
        <ele>81.5</ele>
        <time>2015-05-11T20:57:34.486Z</time>
      </trkpt>
      <trkpt lat="48.85833" lon="2.31395">
        <ele>81.5</ele>
        <time>2015-05-11T20:57:35.517Z</time>
      </trkpt>
      <trkpt lat="48.85831" lon="2.31401">
        <ele>81.6</ele>
        <time>2015-05-11T20:57:36.518Z</time>
      </trkpt>
      <trkpt lat="48.85829" lon="2.31409">
        <ele>81.6</ele>
        <time>2015-05-11T20:57:37.533Z</time>
      </trkpt>
      <trkpt lat="48.85827" lon="2.31416">
        <ele>81.9</ele>
        <time>2015-05-11T20:57:38.539Z</time>
      </trkpt>
      <trkpt lat="48.85825" lon="2.31422">
        <ele>82.2</ele>
        <time>2015-05-11T20:57:39.441Z</time>
      </trkpt>
      <trkpt lat="48.85823" lon="2.31429">
        <ele>82.1</ele>
        <time>2015-05-11T20:57:40.477Z</time>
      </trkpt>
      <trkpt lat="48.85821" lon="2.31436">
        <ele>82.5</ele>
        <time>2015-05-11T20:57:41.493Z</time>
      </trkpt>
      <trkpt lat="48.85819" lon="2.31443">
        <ele>82.9</ele>
        <time>2015-05-11T20:57:42.500Z</time>
      </trkpt>
      <trkpt lat="48.85816" lon="2.31448">
        <ele>83.5</ele>
        <time>2015-05-11T20:57:43.527Z</time>
      </trkpt>
      <trkpt lat="48.85814" lon="2.31453">
        <ele>83.9</ele>
        <time>2015-05-11T20:57:44.442Z</time>
      </trkpt>
      <trkpt lat="48.85811" lon="2.31459">
        <ele>84.3</ele>
        <time>2015-05-11T20:57:45.466Z</time>
      </trkpt>
      <trkpt lat="48.85807" lon="2.31468">
        <ele>84.2</ele>
        <time>2015-05-11T20:57:47.505Z</time>
      </trkpt>
      <trkpt lat="48.85805" lon="2.31473">
        <ele>84.2</ele>
        <time>2015-05-11T20:57:48.597Z</time>
      </trkpt>
      <trkpt lat="48.85803" lon="2.31485">
        <ele>84.9</ele>
        <time>2015-05-11T20:57:50.541Z</time>
      </trkpt>
      <trkpt lat="48.85801" lon="2.31491">
        <ele>85</ele>
        <time>2015-05-11T20:57:51.608Z</time>
      </trkpt>
      <trkpt lat="48.85798" lon="2.31502">
        <ele>85</ele>
        <time>2015-05-11T20:57:53.522Z</time>
      </trkpt>
      <trkpt lat="48.85796" lon="2.31507">
        <ele>85</ele>
        <time>2015-05-11T20:57:54.551Z</time>
      </trkpt>
      <trkpt lat="48.85792" lon="2.31513">
        <ele>85</ele>
        <time>2015-05-11T20:57:56.471Z</time>
      </trkpt>
      <trkpt lat="48.85789" lon="2.31515">
        <ele>85.1</ele>
        <time>2015-05-11T20:57:57.498Z</time>
      </trkpt>
      <trkpt lat="48.85781" lon="2.31517">
        <ele>84.5</ele>
        <time>2015-05-11T20:57:59.539Z</time>
      </trkpt>
      <trkpt lat="48.85777" lon="2.31516">
        <ele>84.2</ele>
        <time>2015-05-11T20:58:00.494Z</time>
      </trkpt>
      <trkpt lat="48.85768" lon="2.31515">
        <ele>84.1</ele>
        <time>2015-05-11T20:58:02.475Z</time>
      </trkpt>
      <trkpt lat="48.85764" lon="2.31515">
        <ele>84.4</ele>
        <time>2015-05-11T20:58:03.501Z</time>
      </trkpt>
      <trkpt lat="48.85759" lon="2.31515">
        <ele>84.3</ele>
        <time>2015-05-11T20:58:04.523Z</time>
      </trkpt>
      <trkpt lat="48.85755" lon="2.31515">
        <ele>84.2</ele>
        <time>2015-05-11T20:58:05.531Z</time>
      </trkpt>
      <trkpt lat="48.85748" lon="2.31514">
        <ele>84.4</ele>
        <time>2015-05-11T20:58:07.506Z</time>
      </trkpt>
      <trkpt lat="48.85744" lon="2.31514">
        <ele>84.6</ele>
        <time>2015-05-11T20:58:08.531Z</time>
      </trkpt>
      <trkpt lat="48.85737" lon="2.31513">
        <ele>84.3</ele>
        <time>2015-05-11T20:58:10.470Z</time>
      </trkpt>
      <trkpt lat="48.85733" lon="2.31513">
        <ele>84</ele>
        <time>2015-05-11T20:58:11.488Z</time>
      </trkpt>
      <trkpt lat="48.85725" lon="2.3151">
        <ele>83.6</ele>
        <time>2015-05-11T20:58:13.550Z</time>
      </trkpt>
      <trkpt lat="48.85721" lon="2.31509">
        <ele>83.2</ele>
        <time>2015-05-11T20:58:14.456Z</time>
      </trkpt>
      <trkpt lat="48.85714" lon="2.31508">
        <ele>82.9</ele>
        <time>2015-05-11T20:58:16.471Z</time>
      </trkpt>
      <trkpt lat="48.8571" lon="2.31508">
        <ele>82.6</ele>
        <time>2015-05-11T20:58:17.798Z</time>
      </trkpt>
      <trkpt lat="48.85703" lon="2.3151">
        <ele>82.9</ele>
        <time>2015-05-11T20:58:19.487Z</time>
      </trkpt>
      <trkpt lat="48.85699" lon="2.3151">
        <ele>83.2</ele>
        <time>2015-05-11T20:58:20.496Z</time>
      </trkpt>
      <trkpt lat="48.85692" lon="2.31512">
        <ele>83.3</ele>
        <time>2015-05-11T20:58:22.438Z</time>
      </trkpt>
      <trkpt lat="48.85688" lon="2.31512">
        <ele>83.4</ele>
        <time>2015-05-11T20:58:23.689Z</time>
      </trkpt>
      <trkpt lat="48.85681" lon="2.31512">
        <ele>83.7</ele>
        <time>2015-05-11T20:58:26.232Z</time>
      </trkpt>
      <trkpt lat="48.85678" lon="2.31513">
        <ele>83.7</ele>
        <time>2015-05-11T20:58:26.460Z</time>
      </trkpt>
      <trkpt lat="48.85671" lon="2.31514">
        <ele>84.2</ele>
        <time>2015-05-11T20:58:28.560Z</time>
      </trkpt>
      <trkpt lat="48.85667" lon="2.31515">
        <ele>84.4</ele>
        <time>2015-05-11T20:58:29.514Z</time>
      </trkpt>
      <trkpt lat="48.85659" lon="2.31516">
        <ele>84.6</ele>
        <time>2015-05-11T20:58:31.477Z</time>
      </trkpt>
      <trkpt lat="48.85654" lon="2.31516">
        <ele>84.9</ele>
        <time>2015-05-11T20:58:32.488Z</time>
      </trkpt>
      <trkpt lat="48.85646" lon="2.31517">
        <ele>85.4</ele>
        <time>2015-05-11T20:58:34.530Z</time>
      </trkpt>
      <trkpt lat="48.85641" lon="2.31516">
        <ele>85.4</ele>
        <time>2015-05-11T20:58:35.538Z</time>
      </trkpt>
      <trkpt lat="48.85633" lon="2.31516">
        <ele>85.6</ele>
        <time>2015-05-11T20:58:37.481Z</time>
      </trkpt>
      <trkpt lat="48.8563" lon="2.31517">
        <ele>85.6</ele>
        <time>2015-05-11T20:58:38.678Z</time>
      </trkpt>
      <trkpt lat="48.85623" lon="2.31517">
        <ele>85.5</ele>
        <time>2015-05-11T20:58:40.485Z</time>
      </trkpt>
      <trkpt lat="48.85619" lon="2.31518">
        <ele>85.6</ele>
        <time>2015-05-11T20:58:41.510Z</time>
      </trkpt>
      <trkpt lat="48.85614" lon="2.31524">
        <ele>85.6</ele>
        <time>2015-05-11T20:58:43.466Z</time>
      </trkpt>
      <trkpt lat="48.85612" lon="2.31529">
        <ele>85.6</ele>
        <time>2015-05-11T20:58:44.472Z</time>
      </trkpt>
      <trkpt lat="48.85608" lon="2.31539">
        <ele>85.8</ele>
        <time>2015-05-11T20:58:46.508Z</time>
      </trkpt>
      <trkpt lat="48.85607" lon="2.31545">
        <ele>85.4</ele>
        <time>2015-05-11T20:58:47.752Z</time>
      </trkpt>
      <trkpt lat="48.85604" lon="2.31558">
        <ele>85.1</ele>
        <time>2015-05-11T20:58:49.463Z</time>
      </trkpt>
      <trkpt lat="48.85603" lon="2.31564">
        <ele>85.2</ele>
        <time>2015-05-11T20:58:50.489Z</time>
      </trkpt>
      <trkpt lat="48.85603" lon="2.31571">
        <ele>85.3</ele>
        <time>2015-05-11T20:58:51.490Z</time>
      </trkpt>
      <trkpt lat="48.85602" lon="2.31579">
        <ele>85.1</ele>
        <time>2015-05-11T20:58:52.528Z</time>
      </trkpt>
      <trkpt lat="48.85601" lon="2.31592">
        <ele>85.2</ele>
        <time>2015-05-11T20:58:54.467Z</time>
      </trkpt>
      <trkpt lat="48.85599" lon="2.31598">
        <ele>85.2</ele>
        <time>2015-05-11T20:58:55.470Z</time>
      </trkpt>
      <trkpt lat="48.85598" lon="2.31605">
        <ele>85.1</ele>
        <time>2015-05-11T20:58:56.869Z</time>
      </trkpt>
      <trkpt lat="48.85597" lon="2.31612">
        <ele>84.9</ele>
        <time>2015-05-11T20:58:57.511Z</time>
      </trkpt>
      <trkpt lat="48.85595" lon="2.31619">
        <ele>84.9</ele>
        <time>2015-05-11T20:58:58.447Z</time>
      </trkpt>
      <trkpt lat="48.85594" lon="2.31627">
        <ele>84.8</ele>
        <time>2015-05-11T20:58:59.464Z</time>
      </trkpt>
      <trkpt lat="48.85593" lon="2.31636">
        <ele>84.8</ele>
        <time>2015-05-11T20:59:00.439Z</time>
      </trkpt>
      <trkpt lat="48.85591" lon="2.31645">
        <ele>84.7</ele>
        <time>2015-05-11T20:59:01.473Z</time>
      </trkpt>
      <trkpt lat="48.8559" lon="2.31652">
        <ele>84.9</ele>
        <time>2015-05-11T20:59:03.039Z</time>
      </trkpt>
      <trkpt lat="48.85588" lon="2.31658">
        <ele>84.8</ele>
        <time>2015-05-11T20:59:03.405Z</time>
      </trkpt>
      <trkpt lat="48.85586" lon="2.31665">
        <ele>84.8</ele>
        <time>2015-05-11T20:59:04.418Z</time>
      </trkpt>
      <trkpt lat="48.85583" lon="2.31672">
        <ele>84.9</ele>
        <time>2015-05-11T20:59:05.423Z</time>
      </trkpt>
      <trkpt lat="48.85582" lon="2.3168">
        <ele>84.9</ele>
        <time>2015-05-11T20:59:06.451Z</time>
      </trkpt>
      <trkpt lat="48.8558" lon="2.31688">
        <ele>85</ele>
        <time>2015-05-11T20:59:07.466Z</time>
      </trkpt>
      <trkpt lat="48.85579" lon="2.31696">
        <ele>84.7</ele>
        <time>2015-05-11T20:59:08.423Z</time>
      </trkpt>
      <trkpt lat="48.85577" lon="2.31703">
        <ele>84.5</ele>
        <time>2015-05-11T20:59:09.404Z</time>
      </trkpt>
      <trkpt lat="48.85575" lon="2.31709">
        <ele>84.2</ele>
        <time>2015-05-11T20:59:10.439Z</time>
      </trkpt>
      <trkpt lat="48.85573" lon="2.31715">
        <ele>84</ele>
        <time>2015-05-11T20:59:11.442Z</time>
      </trkpt>
      <trkpt lat="48.8557" lon="2.31722">
        <ele>83.7</ele>
        <time>2015-05-11T20:59:12.457Z</time>
      </trkpt>
      <trkpt lat="48.85568" lon="2.31729">
        <ele>83.5</ele>
        <time>2015-05-11T20:59:13.488Z</time>
      </trkpt>
      <trkpt lat="48.85565" lon="2.31736">
        <ele>83.2</ele>
        <time>2015-05-11T20:59:14.501Z</time>
      </trkpt>
      <trkpt lat="48.85563" lon="2.31742">
        <ele>83</ele>
        <time>2015-05-11T20:59:15.505Z</time>
      </trkpt>
      <trkpt lat="48.8556" lon="2.31748">
        <ele>82.6</ele>
        <time>2015-05-11T20:59:16.428Z</time>
      </trkpt>
      <trkpt lat="48.85557" lon="2.31754">
        <ele>82.6</ele>
        <time>2015-05-11T20:59:17.432Z</time>
      </trkpt>
      <trkpt lat="48.85555" lon="2.31761">
        <ele>82.6</ele>
        <time>2015-05-11T20:59:18.454Z</time>
      </trkpt>
      <trkpt lat="48.85553" lon="2.31768">
        <ele>82.6</ele>
        <time>2015-05-11T20:59:19.460Z</time>
      </trkpt>
      <trkpt lat="48.85551" lon="2.31775">
        <ele>82.5</ele>
        <time>2015-05-11T20:59:20.466Z</time>
      </trkpt>
      <trkpt lat="48.85549" lon="2.31783">
        <ele>82.4</ele>
        <time>2015-05-11T20:59:21.474Z</time>
      </trkpt>
      <trkpt lat="48.85547" lon="2.3179">
        <ele>82.6</ele>
        <time>2015-05-11T20:59:22.481Z</time>
      </trkpt>
      <trkpt lat="48.85544" lon="2.31796">
        <ele>82.4</ele>
        <time>2015-05-11T20:59:23.487Z</time>
      </trkpt>
      <trkpt lat="48.85542" lon="2.31802">
        <ele>82.2</ele>
        <time>2015-05-11T20:59:24.492Z</time>
      </trkpt>
      <trkpt lat="48.8554" lon="2.31808">
        <ele>81.8</ele>
        <time>2015-05-11T20:59:25.499Z</time>
      </trkpt>
      <trkpt lat="48.85538" lon="2.31815">
        <ele>81.8</ele>
        <time>2015-05-11T20:59:26.422Z</time>
      </trkpt>
      <trkpt lat="48.85537" lon="2.31823">
        <ele>81.8</ele>
        <time>2015-05-11T20:59:27.415Z</time>
      </trkpt>
      <trkpt lat="48.85534" lon="2.31829">
        <ele>81.9</ele>
        <time>2015-05-11T20:59:28.421Z</time>
      </trkpt>
      <trkpt lat="48.85532" lon="2.31835">
        <ele>82.2</ele>
        <time>2015-05-11T20:59:29.442Z</time>
      </trkpt>
      <trkpt lat="48.8553" lon="2.31842">
        <ele>82.4</ele>
        <time>2015-05-11T20:59:30.491Z</time>
      </trkpt>
      <trkpt lat="48.85529" lon="2.3185">
        <ele>82.7</ele>
        <time>2015-05-11T20:59:31.518Z</time>
      </trkpt>
      <trkpt lat="48.85527" lon="2.31858">
        <ele>82.8</ele>
        <time>2015-05-11T20:59:32.426Z</time>
      </trkpt>
      <trkpt lat="48.85526" lon="2.31867">
        <ele>82.6</ele>
        <time>2015-05-11T20:59:33.463Z</time>
      </trkpt>
      <trkpt lat="48.85524" lon="2.31876">
        <ele>82.3</ele>
        <time>2015-05-11T20:59:34.427Z</time>
      </trkpt>
      <trkpt lat="48.85523" lon="2.31883">
        <ele>82.1</ele>
        <time>2015-05-11T20:59:35.428Z</time>
      </trkpt>
      <trkpt lat="48.85522" lon="2.31891">
        <ele>82.2</ele>
        <time>2015-05-11T20:59:36.433Z</time>
      </trkpt>
      <trkpt lat="48.85522" lon="2.31898">
        <ele>82.1</ele>
        <time>2015-05-11T20:59:37.448Z</time>
      </trkpt>
      <trkpt lat="48.8552" lon="2.31906">
        <ele>82.2</ele>
        <time>2015-05-11T20:59:38.462Z</time>
      </trkpt>
      <trkpt lat="48.85517" lon="2.31913">
        <ele>82.3</ele>
        <time>2015-05-11T20:59:39.466Z</time>
      </trkpt>
      <trkpt lat="48.85515" lon="2.31921">
        <ele>82.4</ele>
        <time>2015-05-11T20:59:40.480Z</time>
      </trkpt>
      <trkpt lat="48.85512" lon="2.31928">
        <ele>82.8</ele>
        <time>2015-05-11T20:59:41.493Z</time>
      </trkpt>
      <trkpt lat="48.8551" lon="2.31936">
        <ele>83.1</ele>
        <time>2015-05-11T20:59:42.502Z</time>
      </trkpt>
      <trkpt lat="48.85507" lon="2.31943">
        <ele>83.2</ele>
        <time>2015-05-11T20:59:43.527Z</time>
      </trkpt>
      <trkpt lat="48.85505" lon="2.31951">
        <ele>83.3</ele>
        <time>2015-05-11T20:59:44.436Z</time>
      </trkpt>
      <trkpt lat="48.85503" lon="2.31958">
        <ele>83.4</ele>
        <time>2015-05-11T20:59:45.527Z</time>
      </trkpt>
      <trkpt lat="48.85501" lon="2.31965">
        <ele>83.6</ele>
        <time>2015-05-11T20:59:46.429Z</time>
      </trkpt>
      <trkpt lat="48.855" lon="2.31973">
        <ele>83.4</ele>
        <time>2015-05-11T20:59:47.433Z</time>
      </trkpt>
      <trkpt lat="48.855" lon="2.31982">
        <ele>83.1</ele>
        <time>2015-05-11T20:59:48.459Z</time>
      </trkpt>
      <trkpt lat="48.85499" lon="2.31989">
        <ele>82.8</ele>
        <time>2015-05-11T20:59:49.500Z</time>
      </trkpt>
      <trkpt lat="48.85497" lon="2.31997">
        <ele>82.3</ele>
        <time>2015-05-11T20:59:50.432Z</time>
      </trkpt>
      <trkpt lat="48.85496" lon="2.32005">
        <ele>82.2</ele>
        <time>2015-05-11T20:59:51.410Z</time>
      </trkpt>
      <trkpt lat="48.85495" lon="2.32012">
        <ele>82.1</ele>
        <time>2015-05-11T20:59:52.438Z</time>
      </trkpt>
      <trkpt lat="48.85493" lon="2.3202">
        <ele>81.9</ele>
        <time>2015-05-11T20:59:53.451Z</time>
      </trkpt>
      <trkpt lat="48.85492" lon="2.3203">
        <ele>81.6</ele>
        <time>2015-05-11T20:59:54.456Z</time>
      </trkpt>
      <trkpt lat="48.8549" lon="2.32038">
        <ele>81.5</ele>
        <time>2015-05-11T20:59:55.500Z</time>
      </trkpt>
      <trkpt lat="48.85487" lon="2.32046">
        <ele>81.4</ele>
        <time>2015-05-11T20:59:56.404Z</time>
      </trkpt>
      <trkpt lat="48.85485" lon="2.32054">
        <ele>81.5</ele>
        <time>2015-05-11T20:59:57.413Z</time>
      </trkpt>
      <trkpt lat="48.85483" lon="2.32063">
        <ele>81.5</ele>
        <time>2015-05-11T20:59:58.433Z</time>
      </trkpt>
      <trkpt lat="48.85481" lon="2.32072">
        <ele>81.8</ele>
        <time>2015-05-11T20:59:59.447Z</time>
      </trkpt>
      <trkpt lat="48.8548" lon="2.32082">
        <ele>81.8</ele>
        <time>2015-05-11T21:00:00.454Z</time>
      </trkpt>
      <trkpt lat="48.85478" lon="2.32091">
        <ele>81.9</ele>
        <time>2015-05-11T21:00:01.463Z</time>
      </trkpt>
      <trkpt lat="48.85477" lon="2.32099">
        <ele>82.2</ele>
        <time>2015-05-11T21:00:02.485Z</time>
      </trkpt>
      <trkpt lat="48.85474" lon="2.32107">
        <ele>82.3</ele>
        <time>2015-05-11T21:00:03.404Z</time>
      </trkpt>
      <trkpt lat="48.85472" lon="2.32116">
        <ele>82.4</ele>
        <time>2015-05-11T21:00:04.425Z</time>
      </trkpt>
      <trkpt lat="48.85469" lon="2.32124">
        <ele>82.5</ele>
        <time>2015-05-11T21:00:05.455Z</time>
      </trkpt>
      <trkpt lat="48.85467" lon="2.32133">
        <ele>82.8</ele>
        <time>2015-05-11T21:00:06.470Z</time>
      </trkpt>
      <trkpt lat="48.85465" lon="2.3214">
        <ele>83.1</ele>
        <time>2015-05-11T21:00:07.476Z</time>
      </trkpt>
      <trkpt lat="48.85462" lon="2.32148">
        <ele>83</ele>
        <time>2015-05-11T21:00:08.493Z</time>
      </trkpt>
      <trkpt lat="48.85458" lon="2.32157">
        <ele>83.2</ele>
        <time>2015-05-11T21:00:09.503Z</time>
      </trkpt>
      <trkpt lat="48.85456" lon="2.32167">
        <ele>83.4</ele>
        <time>2015-05-11T21:00:10.512Z</time>
      </trkpt>
      <trkpt lat="48.85453" lon="2.32177">
        <ele>83.7</ele>
        <time>2015-05-11T21:00:11.516Z</time>
      </trkpt>
      <trkpt lat="48.8545" lon="2.32186">
        <ele>83.8</ele>
        <time>2015-05-11T21:00:12.530Z</time>
      </trkpt>
      <trkpt lat="48.85448" lon="2.32195">
        <ele>83.6</ele>
        <time>2015-05-11T21:00:13.436Z</time>
      </trkpt>
      <trkpt lat="48.85445" lon="2.32205">
        <ele>84.5</ele>
        <time>2015-05-11T21:00:14.446Z</time>
      </trkpt>
      <trkpt lat="48.85443" lon="2.32213">
        <ele>84.6</ele>
        <time>2015-05-11T21:00:15.471Z</time>
      </trkpt>
      <trkpt lat="48.8544" lon="2.32221">
        <ele>83.6</ele>
        <time>2015-05-11T21:00:16.465Z</time>
      </trkpt>
      <trkpt lat="48.85438" lon="2.3223">
        <ele>83.8</ele>
        <time>2015-05-11T21:00:17.476Z</time>
      </trkpt>
      <trkpt lat="48.85435" lon="2.32239">
        <ele>83.7</ele>
        <time>2015-05-11T21:00:18.490Z</time>
      </trkpt>
      <trkpt lat="48.85433" lon="2.3225">
        <ele>84</ele>
        <time>2015-05-11T21:00:19.498Z</time>
      </trkpt>
      <trkpt lat="48.85432" lon="2.32258">
        <ele>83.8</ele>
        <time>2015-05-11T21:00:20.510Z</time>
      </trkpt>
      <trkpt lat="48.8543" lon="2.32267">
        <ele>83.8</ele>
        <time>2015-05-11T21:00:21.425Z</time>
      </trkpt>
      <trkpt lat="48.85428" lon="2.32276">
        <ele>83.7</ele>
        <time>2015-05-11T21:00:22.428Z</time>
      </trkpt>
      <trkpt lat="48.85426" lon="2.32284">
        <ele>83.7</ele>
        <time>2015-05-11T21:00:23.464Z</time>
      </trkpt>
      <trkpt lat="48.85425" lon="2.32294">
        <ele>84</ele>
        <time>2015-05-11T21:00:24.474Z</time>
      </trkpt>
      <trkpt lat="48.85423" lon="2.32303">
        <ele>84.1</ele>
        <time>2015-05-11T21:00:25.496Z</time>
      </trkpt>
      <trkpt lat="48.8542" lon="2.32311">
        <ele>84.2</ele>
        <time>2015-05-11T21:00:26.507Z</time>
      </trkpt>
      <trkpt lat="48.85417" lon="2.32319">
        <ele>84.4</ele>
        <time>2015-05-11T21:00:27.442Z</time>
      </trkpt>
      <trkpt lat="48.85415" lon="2.32328">
        <ele>84.6</ele>
        <time>2015-05-11T21:00:28.462Z</time>
      </trkpt>
      <trkpt lat="48.85412" lon="2.32335">
        <ele>84.6</ele>
        <time>2015-05-11T21:00:29.465Z</time>
      </trkpt>
      <trkpt lat="48.8541" lon="2.32343">
        <ele>84.6</ele>
        <time>2015-05-11T21:00:30.494Z</time>
      </trkpt>
      <trkpt lat="48.85409" lon="2.32349">
        <ele>84.5</ele>
        <time>2015-05-11T21:00:31.502Z</time>
      </trkpt>
      <trkpt lat="48.85406" lon="2.32362">
        <ele>84.6</ele>
        <time>2015-05-11T21:00:34.458Z</time>
      </trkpt>
      <trkpt lat="48.85406" lon="2.32367">
        <ele>84.9</ele>
        <time>2015-05-11T21:00:35.522Z</time>
      </trkpt>
      <trkpt lat="48.85402" lon="2.32379">
        <ele>85.4</ele>
        <time>2015-05-11T21:00:39.447Z</time>
      </trkpt>
      <trkpt lat="48.85402" lon="2.3238">
        <ele>85.5</ele>
        <time>2015-05-11T21:00:40.490Z</time>
      </trkpt>
      <trkpt lat="48.85399" lon="2.32393">
        <ele>83.9</ele>
        <time>2015-05-11T21:00:44.462Z</time>
      </trkpt>
      <trkpt lat="48.85399" lon="2.32396">
        <ele>83.6</ele>
        <time>2015-05-11T21:00:45.470Z</time>
      </trkpt>
      <trkpt lat="48.85397" lon="2.32407">
        <ele>83</ele>
        <time>2015-05-11T21:00:47.451Z</time>
      </trkpt>
      <trkpt lat="48.85397" lon="2.32413">
        <ele>83</ele>
        <time>2015-05-11T21:00:48.471Z</time>
      </trkpt>
      <trkpt lat="48.85393" lon="2.32424">
        <ele>82.8</ele>
        <time>2015-05-11T21:00:50.492Z</time>
      </trkpt>
      <trkpt lat="48.85391" lon="2.3243">
        <ele>82.8</ele>
        <time>2015-05-11T21:00:51.523Z</time>
      </trkpt>
      <trkpt lat="48.8539" lon="2.32437">
        <ele>83</ele>
        <time>2015-05-11T21:00:52.440Z</time>
      </trkpt>
      <trkpt lat="48.85389" lon="2.32445">
        <ele>83.3</ele>
        <time>2015-05-11T21:00:53.441Z</time>
      </trkpt>
      <trkpt lat="48.85387" lon="2.32453">
        <ele>83.4</ele>
        <time>2015-05-11T21:00:54.437Z</time>
      </trkpt>
      <trkpt lat="48.85385" lon="2.3246">
        <ele>83.5</ele>
        <time>2015-05-11T21:00:55.453Z</time>
      </trkpt>
      <trkpt lat="48.85383" lon="2.32469">
        <ele>83.6</ele>
        <time>2015-05-11T21:00:56.470Z</time>
      </trkpt>
      <trkpt lat="48.85382" lon="2.32479">
        <ele>83.9</ele>
        <time>2015-05-11T21:00:57.483Z</time>
      </trkpt>
      <trkpt lat="48.85381" lon="2.32488">
        <ele>84</ele>
        <time>2015-05-11T21:00:58.487Z</time>
      </trkpt>
      <trkpt lat="48.85379" lon="2.32493">
        <ele>83.9</ele>
        <time>2015-05-11T21:00:59.509Z</time>
      </trkpt>
      <trkpt lat="48.85378" lon="2.32501">
        <ele>84.2</ele>
        <time>2015-05-11T21:01:00.506Z</time>
      </trkpt>
      <trkpt lat="48.85376" lon="2.3251">
        <ele>84.4</ele>
        <time>2015-05-11T21:01:01.518Z</time>
      </trkpt>
      <trkpt lat="48.85375" lon="2.32517">
        <ele>84.6</ele>
        <time>2015-05-11T21:01:02.423Z</time>
      </trkpt>
      <trkpt lat="48.85374" lon="2.32528">
        <ele>83.8</ele>
        <time>2015-05-11T21:01:03.440Z</time>
      </trkpt>
      <trkpt lat="48.85372" lon="2.32536">
        <ele>83.6</ele>
        <time>2015-05-11T21:01:04.457Z</time>
      </trkpt>
      <trkpt lat="48.85369" lon="2.32545">
        <ele>83.6</ele>
        <time>2015-05-11T21:01:05.469Z</time>
      </trkpt>
      <trkpt lat="48.85366" lon="2.32553">
        <ele>83.7</ele>
        <time>2015-05-11T21:01:06.478Z</time>
      </trkpt>
      <trkpt lat="48.85364" lon="2.32561">
        <ele>83.7</ele>
        <time>2015-05-11T21:01:07.486Z</time>
      </trkpt>
      <trkpt lat="48.85362" lon="2.32569">
        <ele>83.6</ele>
        <time>2015-05-11T21:01:08.479Z</time>
      </trkpt>
      <trkpt lat="48.8536" lon="2.32576">
        <ele>83.6</ele>
        <time>2015-05-11T21:01:09.450Z</time>
      </trkpt>
      <trkpt lat="48.8536" lon="2.32583">
        <ele>83.6</ele>
        <time>2015-05-11T21:01:10.432Z</time>
      </trkpt>
      <trkpt lat="48.85358" lon="2.32589">
        <ele>83.4</ele>
        <time>2015-05-11T21:01:11.424Z</time>
      </trkpt>
      <trkpt lat="48.85356" lon="2.326">
        <ele>83</ele>
        <time>2015-05-11T21:01:13.445Z</time>
      </trkpt>
      <trkpt lat="48.85354" lon="2.32604">
        <ele>83.1</ele>
        <time>2015-05-11T21:01:14.601Z</time>
      </trkpt>
      <trkpt lat="48.85351" lon="2.32613">
        <ele>82.7</ele>
        <time>2015-05-11T21:01:45.517Z</time>
      </trkpt>
      <trkpt lat="48.85353" lon="2.32619">
        <ele>86.4</ele>
        <time>2015-05-11T21:01:46.427Z</time>
      </trkpt>
      <trkpt lat="48.85349" lon="2.32629">
        <ele>87.3</ele>
        <time>2015-05-11T21:01:49.478Z</time>
      </trkpt>
      <trkpt lat="48.85347" lon="2.32632">
        <ele>87.2</ele>
        <time>2015-05-11T21:01:50.445Z</time>
      </trkpt>
      <trkpt lat="48.85343" lon="2.3264">
        <ele>87.5</ele>
        <time>2015-05-11T21:01:52.481Z</time>
      </trkpt>
      <trkpt lat="48.8534" lon="2.32643">
        <ele>87.1</ele>
        <time>2015-05-11T21:01:53.492Z</time>
      </trkpt>
      <trkpt lat="48.85336" lon="2.32649">
        <ele>86.8</ele>
        <time>2015-05-11T21:01:55.439Z</time>
      </trkpt>
      <trkpt lat="48.85334" lon="2.32654">
        <ele>86.4</ele>
        <time>2015-05-11T21:01:56.446Z</time>
      </trkpt>
      <trkpt lat="48.85333" lon="2.32664">
        <ele>86</ele>
        <time>2015-05-11T21:01:58.465Z</time>
      </trkpt>
      <trkpt lat="48.85332" lon="2.32669">
        <ele>85.9</ele>
        <time>2015-05-11T21:01:59.570Z</time>
      </trkpt>
      <trkpt lat="48.85333" lon="2.32679">
        <ele>85.9</ele>
        <time>2015-05-11T21:02:01.451Z</time>
      </trkpt>
      <trkpt lat="48.85332" lon="2.32684">
        <ele>86.1</ele>
        <time>2015-05-11T21:02:02.715Z</time>
      </trkpt>
      <trkpt lat="48.85329" lon="2.32695">
        <ele>86</ele>
        <time>2015-05-11T21:02:04.459Z</time>
      </trkpt>
      <trkpt lat="48.85329" lon="2.32701">
        <ele>85.6</ele>
        <time>2015-05-11T21:02:05.486Z</time>
      </trkpt>
      <trkpt lat="48.85326" lon="2.32711">
        <ele>85.1</ele>
        <time>2015-05-11T21:02:07.481Z</time>
      </trkpt>
      <trkpt lat="48.85325" lon="2.32715">
        <ele>84.8</ele>
        <time>2015-05-11T21:02:08.487Z</time>
      </trkpt>
      <trkpt lat="48.85332" lon="2.32721">
        <ele>84.9</ele>
        <time>2015-05-11T21:02:11.464Z</time>
      </trkpt>
      <trkpt lat="48.85336" lon="2.32722">
        <ele>85.2</ele>
        <time>2015-05-11T21:02:12.518Z</time>
      </trkpt>
      <trkpt lat="48.85342" lon="2.32724">
        <ele>85.6</ele>
        <time>2015-05-11T21:02:14.436Z</time>
      </trkpt>
      <trkpt lat="48.85345" lon="2.32726">
        <ele>85.8</ele>
        <time>2015-05-11T21:02:15.453Z</time>
      </trkpt>
      <trkpt lat="48.85354" lon="2.32727">
        <ele>86.3</ele>
        <time>2015-05-11T21:02:17.410Z</time>
      </trkpt>
      <trkpt lat="48.85358" lon="2.32728">
        <ele>86.4</ele>
        <time>2015-05-11T21:02:18.440Z</time>
      </trkpt>
      <trkpt lat="48.85366" lon="2.32732">
        <ele>86.6</ele>
        <time>2015-05-11T21:02:20.496Z</time>
      </trkpt>
      <trkpt lat="48.85369" lon="2.32734">
        <ele>86.6</ele>
        <time>2015-05-11T21:02:21.438Z</time>
      </trkpt>
      <trkpt lat="48.85376" lon="2.32737">
        <ele>86.5</ele>
        <time>2015-05-11T21:02:23.446Z</time>
      </trkpt>
      <trkpt lat="48.85378" lon="2.32741">
        <ele>86.5</ele>
        <time>2015-05-11T21:02:24.468Z</time>
      </trkpt>
      <trkpt lat="48.85376" lon="2.32749">
        <ele>85.6</ele>
        <time>2015-05-11T21:02:26.583Z</time>
      </trkpt>
      <trkpt lat="48.85375" lon="2.32755">
        <ele>85.3</ele>
        <time>2015-05-11T21:02:27.412Z</time>
      </trkpt>
      <trkpt lat="48.85372" lon="2.32767">
        <ele>85.4</ele>
        <time>2015-05-11T21:02:29.471Z</time>
      </trkpt>
      <trkpt lat="48.85371" lon="2.32771">
        <ele>85.4</ele>
        <time>2015-05-11T21:02:30.516Z</time>
      </trkpt>
      <trkpt lat="48.85365" lon="2.32779">
        <ele>85.6</ele>
        <time>2015-05-11T21:02:32.470Z</time>
      </trkpt>
      <trkpt lat="48.85362" lon="2.32784">
        <ele>85.6</ele>
        <time>2015-05-11T21:02:33.494Z</time>
      </trkpt>
      <trkpt lat="48.8536" lon="2.3279">
        <ele>85.8</ele>
        <time>2015-05-11T21:02:34.533Z</time>
      </trkpt>
      <trkpt lat="48.85357" lon="2.32796">
        <ele>86.2</ele>
        <time>2015-05-11T21:02:35.550Z</time>
      </trkpt>
      <trkpt lat="48.85354" lon="2.32808">
        <ele>86.6</ele>
        <time>2015-05-11T21:02:37.572Z</time>
      </trkpt>
      <trkpt lat="48.85352" lon="2.32815">
        <ele>86.5</ele>
        <time>2015-05-11T21:02:38.469Z</time>
      </trkpt>
      <trkpt lat="48.85348" lon="2.32826">
        <ele>86.4</ele>
        <time>2015-05-11T21:02:40.462Z</time>
      </trkpt>
      <trkpt lat="48.85346" lon="2.3283">
        <ele>86</ele>
        <time>2015-05-11T21:02:41.474Z</time>
      </trkpt>
      <trkpt lat="48.85341" lon="2.32837">
        <ele>85.7</ele>
        <time>2015-05-11T21:02:43.512Z</time>
      </trkpt>
      <trkpt lat="48.85339" lon="2.32842">
        <ele>85.7</ele>
        <time>2015-05-11T21:02:44.415Z</time>
      </trkpt>
      <trkpt lat="48.85334" lon="2.32852">
        <ele>85.8</ele>
        <time>2015-05-11T21:02:46.467Z</time>
      </trkpt>
      <trkpt lat="48.85331" lon="2.32857">
        <ele>85.8</ele>
        <time>2015-05-11T21:02:47.584Z</time>
      </trkpt>
      <trkpt lat="48.85325" lon="2.32866">
        <ele>85.8</ele>
        <time>2015-05-11T21:02:49.519Z</time>
      </trkpt>
      <trkpt lat="48.85321" lon="2.3287">
        <ele>85.6</ele>
        <time>2015-05-11T21:02:50.478Z</time>
      </trkpt>
      <trkpt lat="48.85314" lon="2.32878">
        <ele>84.9</ele>
        <time>2015-05-11T21:02:52.748Z</time>
      </trkpt>
      <trkpt lat="48.8531" lon="2.32882">
        <ele>84.9</ele>
        <time>2015-05-11T21:02:53.520Z</time>
      </trkpt>
      <trkpt lat="48.85306" lon="2.32887">
        <ele>85</ele>
        <time>2015-05-11T21:02:54.555Z</time>
      </trkpt>
      <trkpt lat="48.85303" lon="2.32892">
        <ele>85.2</ele>
        <time>2015-05-11T21:02:55.451Z</time>
      </trkpt>
      <trkpt lat="48.853" lon="2.32899">
        <ele>85.1</ele>
        <time>2015-05-11T21:02:56.470Z</time>
      </trkpt>
      <trkpt lat="48.85297" lon="2.32905">
        <ele>85.2</ele>
        <time>2015-05-11T21:02:57.471Z</time>
      </trkpt>
      <trkpt lat="48.85293" lon="2.32911">
        <ele>85.2</ele>
        <time>2015-05-11T21:02:58.501Z</time>
      </trkpt>
      <trkpt lat="48.85289" lon="2.32916">
        <ele>85.3</ele>
        <time>2015-05-11T21:02:59.503Z</time>
      </trkpt>
      <trkpt lat="48.85283" lon="2.32925">
        <ele>85.1</ele>
        <time>2015-05-11T21:03:01.445Z</time>
      </trkpt>
      <trkpt lat="48.8528" lon="2.32931">
        <ele>85.5</ele>
        <time>2015-05-11T21:03:02.452Z</time>
      </trkpt>
      <trkpt lat="48.85278" lon="2.32938">
        <ele>85.7</ele>
        <time>2015-05-11T21:03:03.465Z</time>
      </trkpt>
      <trkpt lat="48.85276" lon="2.32943">
        <ele>85.9</ele>
        <time>2015-05-11T21:03:04.473Z</time>
      </trkpt>
      <trkpt lat="48.85273" lon="2.32948">
        <ele>86.4</ele>
        <time>2015-05-11T21:03:05.479Z</time>
      </trkpt>
      <trkpt lat="48.85269" lon="2.32953">
        <ele>86.9</ele>
        <time>2015-05-11T21:03:06.495Z</time>
      </trkpt>
      <trkpt lat="48.85263" lon="2.3296">
        <ele>87.4</ele>
        <time>2015-05-11T21:03:08.420Z</time>
      </trkpt>
      <trkpt lat="48.85261" lon="2.32964">
        <ele>87.7</ele>
        <time>2015-05-11T21:03:09.456Z</time>
      </trkpt>
      <trkpt lat="48.85258" lon="2.32968">
        <ele>87.9</ele>
        <time>2015-05-11T21:03:10.489Z</time>
      </trkpt>
      <trkpt lat="48.85254" lon="2.32972">
        <ele>88</ele>
        <time>2015-05-11T21:03:11.495Z</time>
      </trkpt>
      <trkpt lat="48.85246" lon="2.32979">
        <ele>88.3</ele>
        <time>2015-05-11T21:03:13.441Z</time>
      </trkpt>
      <trkpt lat="48.85243" lon="2.32984">
        <ele>88.5</ele>
        <time>2015-05-11T21:03:14.446Z</time>
      </trkpt>
      <trkpt lat="48.85239" lon="2.32988">
        <ele>88.3</ele>
        <time>2015-05-11T21:03:15.487Z</time>
      </trkpt>
      <trkpt lat="48.85235" lon="2.32993">
        <ele>88.6</ele>
        <time>2015-05-11T21:03:16.493Z</time>
      </trkpt>
      <trkpt lat="48.85231" lon="2.32996">
        <ele>89</ele>
        <time>2015-05-11T21:03:17.516Z</time>
      </trkpt>
      <trkpt lat="48.85225" lon="2.32999">
        <ele>88.2</ele>
        <time>2015-05-11T21:03:18.476Z</time>
      </trkpt>
      <trkpt lat="48.85218" lon="2.33003">
        <ele>87.6</ele>
        <time>2015-05-11T21:03:20.433Z</time>
      </trkpt>
      <trkpt lat="48.85216" lon="2.33007">
        <ele>87.7</ele>
        <time>2015-05-11T21:03:21.438Z</time>
      </trkpt>
      <trkpt lat="48.85218" lon="2.33016">
        <ele>86.6</ele>
        <time>2015-05-11T21:03:23.499Z</time>
      </trkpt>
      <trkpt lat="48.85218" lon="2.33021">
        <ele>86.4</ele>
        <time>2015-05-11T21:03:24.523Z</time>
      </trkpt>
      <trkpt lat="48.85219" lon="2.33034">
        <ele>84.7</ele>
        <time>2015-05-11T21:03:26.408Z</time>
      </trkpt>
      <trkpt lat="48.8522" lon="2.33042">
        <ele>84.2</ele>
        <time>2015-05-11T21:03:27.474Z</time>
      </trkpt>
      <trkpt lat="48.8522" lon="2.33055">
        <ele>83.6</ele>
        <time>2015-05-11T21:03:29.440Z</time>
      </trkpt>
      <trkpt lat="48.85221" lon="2.33063">
        <ele>82.9</ele>
        <time>2015-05-11T21:03:30.449Z</time>
      </trkpt>
      <trkpt lat="48.85222" lon="2.3307">
        <ele>82.7</ele>
        <time>2015-05-11T21:03:31.470Z</time>
      </trkpt>
      <trkpt lat="48.85223" lon="2.33076">
        <ele>82.6</ele>
        <time>2015-05-11T21:03:32.490Z</time>
      </trkpt>
      <trkpt lat="48.85225" lon="2.33083">
        <ele>82.1</ele>
        <time>2015-05-11T21:03:33.431Z</time>
      </trkpt>
      <trkpt lat="48.85227" lon="2.3309">
        <ele>81.6</ele>
        <time>2015-05-11T21:03:34.436Z</time>
      </trkpt>
      <trkpt lat="48.85229" lon="2.33096">
        <ele>81.5</ele>
        <time>2015-05-11T21:03:35.462Z</time>
      </trkpt>
      <trkpt lat="48.85232" lon="2.33103">
        <ele>81</ele>
        <time>2015-05-11T21:03:36.461Z</time>
      </trkpt>
      <trkpt lat="48.85234" lon="2.33109">
        <ele>80.7</ele>
        <time>2015-05-11T21:03:37.491Z</time>
      </trkpt>
      <trkpt lat="48.85236" lon="2.33117">
        <ele>80.2</ele>
        <time>2015-05-11T21:03:38.511Z</time>
      </trkpt>
      <trkpt lat="48.85238" lon="2.33125">
        <ele>80</ele>
        <time>2015-05-11T21:03:39.413Z</time>
      </trkpt>
      <trkpt lat="48.8524" lon="2.33133">
        <ele>79.8</ele>
        <time>2015-05-11T21:03:40.444Z</time>
      </trkpt>
      <trkpt lat="48.85243" lon="2.33142">
        <ele>79.6</ele>
        <time>2015-05-11T21:03:41.456Z</time>
      </trkpt>
      <trkpt lat="48.85244" lon="2.33149">
        <ele>79.7</ele>
        <time>2015-05-11T21:03:42.486Z</time>
      </trkpt>
      <trkpt lat="48.85247" lon="2.33157">
        <ele>79</ele>
        <time>2015-05-11T21:03:43.492Z</time>
      </trkpt>
      <trkpt lat="48.85248" lon="2.33165">
        <ele>79.1</ele>
        <time>2015-05-11T21:03:44.507Z</time>
      </trkpt>
      <trkpt lat="48.85249" lon="2.33173">
        <ele>79.6</ele>
        <time>2015-05-11T21:03:45.547Z</time>
      </trkpt>
      <trkpt lat="48.85249" lon="2.33181">
        <ele>79.7</ele>
        <time>2015-05-11T21:03:46.449Z</time>
      </trkpt>
      <trkpt lat="48.85248" lon="2.33188">
        <ele>80.1</ele>
        <time>2015-05-11T21:03:47.455Z</time>
      </trkpt>
      <trkpt lat="48.85249" lon="2.33195">
        <ele>80.4</ele>
        <time>2015-05-11T21:03:48.472Z</time>
      </trkpt>
      <trkpt lat="48.85251" lon="2.33206">
        <ele>81.4</ele>
        <time>2015-05-11T21:03:50.574Z</time>
      </trkpt>
      <trkpt lat="48.85252" lon="2.33214">
        <ele>81.9</ele>
        <time>2015-05-11T21:03:51.420Z</time>
      </trkpt>
      <trkpt lat="48.85256" lon="2.33226">
        <ele>82.6</ele>
        <time>2015-05-11T21:03:53.468Z</time>
      </trkpt>
      <trkpt lat="48.85258" lon="2.33233">
        <ele>83.2</ele>
        <time>2015-05-11T21:03:54.503Z</time>
      </trkpt>
      <trkpt lat="48.85259" lon="2.33239">
        <ele>83.5</ele>
        <time>2015-05-11T21:03:55.522Z</time>
      </trkpt>
      <trkpt lat="48.85263" lon="2.33246">
        <ele>83.6</ele>
        <time>2015-05-11T21:03:56.445Z</time>
      </trkpt>
      <trkpt lat="48.85264" lon="2.33253">
        <ele>83.6</ele>
        <time>2015-05-11T21:03:57.469Z</time>
      </trkpt>
      <trkpt lat="48.85267" lon="2.33261">
        <ele>83.6</ele>
        <time>2015-05-11T21:03:58.465Z</time>
      </trkpt>
      <trkpt lat="48.85268" lon="2.33269">
        <ele>83.7</ele>
        <time>2015-05-11T21:03:59.484Z</time>
      </trkpt>
      <trkpt lat="48.8527" lon="2.33277">
        <ele>83.6</ele>
        <time>2015-05-11T21:04:00.524Z</time>
      </trkpt>
      <trkpt lat="48.85271" lon="2.33285">
        <ele>83.3</ele>
        <time>2015-05-11T21:04:01.430Z</time>
      </trkpt>
      <trkpt lat="48.85272" lon="2.33292">
        <ele>83.1</ele>
        <time>2015-05-11T21:04:02.444Z</time>
      </trkpt>
      <trkpt lat="48.85272" lon="2.333">
        <ele>83.1</ele>
        <time>2015-05-11T21:04:03.464Z</time>
      </trkpt>
      <trkpt lat="48.85273" lon="2.33309">
        <ele>83</ele>
        <time>2015-05-11T21:04:04.469Z</time>
      </trkpt>
      <trkpt lat="48.85272" lon="2.33317">
        <ele>82.9</ele>
        <time>2015-05-11T21:04:05.491Z</time>
      </trkpt>
      <trkpt lat="48.8527" lon="2.33325">
        <ele>82.5</ele>
        <time>2015-05-11T21:04:06.511Z</time>
      </trkpt>
      <trkpt lat="48.85269" lon="2.33333">
        <ele>82.3</ele>
        <time>2015-05-11T21:04:07.524Z</time>
      </trkpt>
      <trkpt lat="48.85269" lon="2.3334">
        <ele>82.4</ele>
        <time>2015-05-11T21:04:08.536Z</time>
      </trkpt>
      <trkpt lat="48.85271" lon="2.33348">
        <ele>82.5</ele>
        <time>2015-05-11T21:04:09.448Z</time>
      </trkpt>
      <trkpt lat="48.85271" lon="2.33357">
        <ele>82.7</ele>
        <time>2015-05-11T21:04:10.452Z</time>
      </trkpt>
      <trkpt lat="48.85272" lon="2.33366">
        <ele>82.9</ele>
        <time>2015-05-11T21:04:11.462Z</time>
      </trkpt>
      <trkpt lat="48.85273" lon="2.33374">
        <ele>83.1</ele>
        <time>2015-05-11T21:04:12.489Z</time>
      </trkpt>
      <trkpt lat="48.85274" lon="2.33383">
        <ele>83.1</ele>
        <time>2015-05-11T21:04:13.502Z</time>
      </trkpt>
      <trkpt lat="48.85275" lon="2.33391">
        <ele>83.1</ele>
        <time>2015-05-11T21:04:14.522Z</time>
      </trkpt>
      <trkpt lat="48.85277" lon="2.33397">
        <ele>83.2</ele>
        <time>2015-05-11T21:04:15.442Z</time>
      </trkpt>
      <trkpt lat="48.85279" lon="2.33403">
        <ele>83.1</ele>
        <time>2015-05-11T21:04:16.453Z</time>
      </trkpt>
      <trkpt lat="48.85281" lon="2.33416">
        <ele>82.5</ele>
        <time>2015-05-11T21:04:18.468Z</time>
      </trkpt>
      <trkpt lat="48.85281" lon="2.33423">
        <ele>82.2</ele>
        <time>2015-05-11T21:04:19.513Z</time>
      </trkpt>
      <trkpt lat="48.85282" lon="2.33435">
        <ele>81.9</ele>
        <time>2015-05-11T21:04:21.465Z</time>
      </trkpt>
      <trkpt lat="48.85284" lon="2.33441">
        <ele>82.3</ele>
        <time>2015-05-11T21:04:22.480Z</time>
      </trkpt>
      <trkpt lat="48.85285" lon="2.33449">
        <ele>82.1</ele>
        <time>2015-05-11T21:04:23.432Z</time>
      </trkpt>
      <trkpt lat="48.85287" lon="2.33456">
        <ele>82</ele>
        <time>2015-05-11T21:04:24.446Z</time>
      </trkpt>
      <trkpt lat="48.85288" lon="2.33463">
        <ele>81.9</ele>
        <time>2015-05-11T21:04:25.490Z</time>
      </trkpt>
      <trkpt lat="48.8529" lon="2.33472">
        <ele>81.8</ele>
        <time>2015-05-11T21:04:26.511Z</time>
      </trkpt>
      <trkpt lat="48.85292" lon="2.3348">
        <ele>81.6</ele>
        <time>2015-05-11T21:04:27.424Z</time>
      </trkpt>
      <trkpt lat="48.85293" lon="2.33489">
        <ele>81.5</ele>
        <time>2015-05-11T21:04:28.535Z</time>
      </trkpt>
      <trkpt lat="48.85295" lon="2.33497">
        <ele>81.4</ele>
        <time>2015-05-11T21:04:29.546Z</time>
      </trkpt>
      <trkpt lat="48.85298" lon="2.33504">
        <ele>81.5</ele>
        <time>2015-05-11T21:04:30.575Z</time>
      </trkpt>
      <trkpt lat="48.85301" lon="2.33512">
        <ele>81.5</ele>
        <time>2015-05-11T21:04:31.485Z</time>
      </trkpt>
      <trkpt lat="48.85303" lon="2.33519">
        <ele>81.4</ele>
        <time>2015-05-11T21:04:32.498Z</time>
      </trkpt>
      <trkpt lat="48.85304" lon="2.33526">
        <ele>81.4</ele>
        <time>2015-05-11T21:04:33.536Z</time>
      </trkpt>
      <trkpt lat="48.85306" lon="2.33532">
        <ele>81.3</ele>
        <time>2015-05-11T21:04:34.450Z</time>
      </trkpt>
      <trkpt lat="48.85308" lon="2.33539">
        <ele>81.2</ele>
        <time>2015-05-11T21:04:35.417Z</time>
      </trkpt>
      <trkpt lat="48.85311" lon="2.33546">
        <ele>81.3</ele>
        <time>2015-05-11T21:04:36.463Z</time>
      </trkpt>
      <trkpt lat="48.85315" lon="2.33553">
        <ele>81.7</ele>
        <time>2015-05-11T21:04:37.478Z</time>
      </trkpt>
      <trkpt lat="48.85318" lon="2.33561">
        <ele>81.9</ele>
        <time>2015-05-11T21:04:38.490Z</time>
      </trkpt>
      <trkpt lat="48.8532" lon="2.33568">
        <ele>82.2</ele>
        <time>2015-05-11T21:04:39.438Z</time>
      </trkpt>
      <trkpt lat="48.85322" lon="2.33575">
        <ele>82.8</ele>
        <time>2015-05-11T21:04:40.434Z</time>
      </trkpt>
      <trkpt lat="48.85323" lon="2.33583">
        <ele>83.4</ele>
        <time>2015-05-11T21:04:41.471Z</time>
      </trkpt>
      <trkpt lat="48.85323" lon="2.33591">
        <ele>83.9</ele>
        <time>2015-05-11T21:04:42.494Z</time>
      </trkpt>
      <trkpt lat="48.85323" lon="2.33598">
        <ele>84.1</ele>
        <time>2015-05-11T21:04:43.527Z</time>
      </trkpt>
      <trkpt lat="48.85321" lon="2.33605">
        <ele>84.3</ele>
        <time>2015-05-11T21:04:44.446Z</time>
      </trkpt>
      <trkpt lat="48.8532" lon="2.33617">
        <ele>85.2</ele>
        <time>2015-05-11T21:04:46.422Z</time>
      </trkpt>
      <trkpt lat="48.85318" lon="2.33622">
        <ele>85.4</ele>
        <time>2015-05-11T21:04:47.480Z</time>
      </trkpt>
      <trkpt lat="48.85316" lon="2.33633">
        <ele>85.9</ele>
        <time>2015-05-11T21:04:49.518Z</time>
      </trkpt>
      <trkpt lat="48.85317" lon="2.33638">
        <ele>86.2</ele>
        <time>2015-05-11T21:04:50.469Z</time>
      </trkpt>
      <trkpt lat="48.85322" lon="2.3363">
        <ele>82.7</ele>
        <time>2015-05-11T21:04:58.423Z</time>
      </trkpt>
      <trkpt lat="48.85321" lon="2.33624">
        <ele>82</ele>
        <time>2015-05-11T21:04:59.454Z</time>
      </trkpt>
      <trkpt lat="48.85322" lon="2.33612">
        <ele>80.9</ele>
        <time>2015-05-11T21:05:01.493Z</time>
      </trkpt>
      <trkpt lat="48.85322" lon="2.33608">
        <ele>80.6</ele>
        <time>2015-05-11T21:05:02.498Z</time>
      </trkpt>
      <trkpt lat="48.85329" lon="2.33603">
        <ele>82.6</ele>
        <time>2015-05-11T21:05:08.483Z</time>
      </trkpt>
      <trkpt lat="48.85332" lon="2.33607">
        <ele>82.7</ele>
        <time>2015-05-11T21:05:09.466Z</time>
      </trkpt>
      <trkpt lat="48.85337" lon="2.33612">
        <ele>82.5</ele>
        <time>2015-05-11T21:05:11.459Z</time>
      </trkpt>
      <trkpt lat="48.85339" lon="2.33615">
        <ele>82.4</ele>
        <time>2015-05-11T21:05:12.469Z</time>
      </trkpt>
      <trkpt lat="48.85345" lon="2.33624">
        <ele>81.8</ele>
        <time>2015-05-11T21:05:14.495Z</time>
      </trkpt>
      <trkpt lat="48.85347" lon="2.33629">
        <ele>81.8</ele>
        <time>2015-05-11T21:05:15.509Z</time>
      </trkpt>
      <trkpt lat="48.85349" lon="2.33635">
        <ele>81.6</ele>
        <time>2015-05-11T21:05:16.409Z</time>
      </trkpt>
      <trkpt lat="48.85352" lon="2.33642">
        <ele>81.2</ele>
        <time>2015-05-11T21:05:17.578Z</time>
      </trkpt>
      <trkpt lat="48.85356" lon="2.33652">
        <ele>79.9</ele>
        <time>2015-05-11T21:05:18.430Z</time>
      </trkpt>
      <trkpt lat="48.8536" lon="2.3366">
        <ele>79.2</ele>
        <time>2015-05-11T21:05:19.472Z</time>
      </trkpt>
      <trkpt lat="48.85363" lon="2.33667">
        <ele>79.2</ele>
        <time>2015-05-11T21:05:20.481Z</time>
      </trkpt>
      <trkpt lat="48.85365" lon="2.33674">
        <ele>79.4</ele>
        <time>2015-05-11T21:05:21.394Z</time>
      </trkpt>
      <trkpt lat="48.85369" lon="2.33685">
        <ele>79.9</ele>
        <time>2015-05-11T21:05:23.449Z</time>
      </trkpt>
      <trkpt lat="48.85374" lon="2.33689">
        <ele>80</ele>
        <time>2015-05-11T21:05:24.469Z</time>
      </trkpt>
      <trkpt lat="48.85378" lon="2.33693">
        <ele>80.1</ele>
        <time>2015-05-11T21:05:25.476Z</time>
      </trkpt>
      <trkpt lat="48.85381" lon="2.33698">
        <ele>80.4</ele>
        <time>2015-05-11T21:05:26.453Z</time>
      </trkpt>
      <trkpt lat="48.85383" lon="2.33709">
        <ele>81.1</ele>
        <time>2015-05-11T21:05:28.467Z</time>
      </trkpt>
      <trkpt lat="48.85383" lon="2.33715">
        <ele>81.4</ele>
        <time>2015-05-11T21:05:29.437Z</time>
      </trkpt>
      <trkpt lat="48.85382" lon="2.33728">
        <ele>81.3</ele>
        <time>2015-05-11T21:05:31.536Z</time>
      </trkpt>
      <trkpt lat="48.85382" lon="2.33734">
        <ele>81.1</ele>
        <time>2015-05-11T21:05:32.456Z</time>
      </trkpt>
      <trkpt lat="48.85382" lon="2.33746">
        <ele>81.4</ele>
        <time>2015-05-11T21:05:35.426Z</time>
      </trkpt>
      <trkpt lat="48.85382" lon="2.33749">
        <ele>81.1</ele>
        <time>2015-05-11T21:05:36.468Z</time>
      </trkpt>
      <trkpt lat="48.85381" lon="2.33759">
        <ele>81.3</ele>
        <time>2015-05-11T21:05:38.504Z</time>
      </trkpt>
      <trkpt lat="48.8538" lon="2.33763">
        <ele>81.4</ele>
        <time>2015-05-11T21:05:39.515Z</time>
      </trkpt>
      <trkpt lat="48.85377" lon="2.33776">
        <ele>81.6</ele>
        <time>2015-05-11T21:05:42.565Z</time>
      </trkpt>
      <trkpt lat="48.85374" lon="2.33781">
        <ele>81.8</ele>
        <time>2015-05-11T21:05:43.504Z</time>
      </trkpt>
      <trkpt lat="48.85368" lon="2.33789">
        <ele>81.3</ele>
        <time>2015-05-11T21:05:45.440Z</time>
      </trkpt>
      <trkpt lat="48.85367" lon="2.33795">
        <ele>81.2</ele>
        <time>2015-05-11T21:05:46.449Z</time>
      </trkpt>
      <trkpt lat="48.85366" lon="2.33803">
        <ele>80.9</ele>
        <time>2015-05-11T21:05:47.586Z</time>
      </trkpt>
      <trkpt lat="48.85366" lon="2.33809">
        <ele>80.4</ele>
        <time>2015-05-11T21:05:48.550Z</time>
      </trkpt>
      <trkpt lat="48.85364" lon="2.33821">
        <ele>80.1</ele>
        <time>2015-05-11T21:05:50.501Z</time>
      </trkpt>
      <trkpt lat="48.85363" lon="2.33827">
        <ele>79.8</ele>
        <time>2015-05-11T21:05:51.508Z</time>
      </trkpt>
      <trkpt lat="48.85361" lon="2.3384">
        <ele>81.5</ele>
        <time>2015-05-11T21:05:54.495Z</time>
      </trkpt>
      <trkpt lat="48.8536" lon="2.33844">
        <ele>81.6</ele>
        <time>2015-05-11T21:05:55.503Z</time>
      </trkpt>
      <trkpt lat="48.85358" lon="2.33853">
        <ele>82</ele>
        <time>2015-05-11T21:05:57.838Z</time>
      </trkpt>
      <trkpt lat="48.85357" lon="2.33858">
        <ele>82.2</ele>
        <time>2015-05-11T21:05:58.417Z</time>
      </trkpt>
      <trkpt lat="48.85357" lon="2.3387">
        <ele>82.3</ele>
        <time>2015-05-11T21:06:00.661Z</time>
      </trkpt>
      <trkpt lat="48.85358" lon="2.33875">
        <ele>81.9</ele>
        <time>2015-05-11T21:06:01.470Z</time>
      </trkpt>
      <trkpt lat="48.85358" lon="2.33888">
        <ele>81.8</ele>
        <time>2015-05-11T21:06:03.421Z</time>
      </trkpt>
      <trkpt lat="48.85359" lon="2.33896">
        <ele>81.6</ele>
        <time>2015-05-11T21:06:04.429Z</time>
      </trkpt>
      <trkpt lat="48.85359" lon="2.33905">
        <ele>81.5</ele>
        <time>2015-05-11T21:06:05.451Z</time>
      </trkpt>
      <trkpt lat="48.8536" lon="2.33911">
        <ele>81.6</ele>
        <time>2015-05-11T21:06:06.459Z</time>
      </trkpt>
      <trkpt lat="48.85361" lon="2.33924">
        <ele>81.1</ele>
        <time>2015-05-11T21:06:08.503Z</time>
      </trkpt>
      <trkpt lat="48.85361" lon="2.3393">
        <ele>81</ele>
        <time>2015-05-11T21:06:09.417Z</time>
      </trkpt>
      <trkpt lat="48.8536" lon="2.33943">
        <ele>80.7</ele>
        <time>2015-05-11T21:06:11.504Z</time>
      </trkpt>
      <trkpt lat="48.85358" lon="2.3395">
        <ele>80.7</ele>
        <time>2015-05-11T21:06:12.420Z</time>
      </trkpt>
      <trkpt lat="48.85357" lon="2.33957">
        <ele>80.8</ele>
        <time>2015-05-11T21:06:13.435Z</time>
      </trkpt>
      <trkpt lat="48.85357" lon="2.33965">
        <ele>80.8</ele>
        <time>2015-05-11T21:06:14.464Z</time>
      </trkpt>
      <trkpt lat="48.85355" lon="2.33972">
        <ele>80.8</ele>
        <time>2015-05-11T21:06:15.429Z</time>
      </trkpt>
      <trkpt lat="48.85354" lon="2.33979">
        <ele>80.9</ele>
        <time>2015-05-11T21:06:16.421Z</time>
      </trkpt>
      <trkpt lat="48.85353" lon="2.33986">
        <ele>81.1</ele>
        <time>2015-05-11T21:06:17.981Z</time>
      </trkpt>
      <trkpt lat="48.85353" lon="2.33994">
        <ele>81.1</ele>
        <time>2015-05-11T21:06:18.450Z</time>
      </trkpt>
      <trkpt lat="48.85351" lon="2.34006">
        <ele>81.7</ele>
        <time>2015-05-11T21:06:20.541Z</time>
      </trkpt>
      <trkpt lat="48.85352" lon="2.34011">
        <ele>81.7</ele>
        <time>2015-05-11T21:06:21.389Z</time>
      </trkpt>
      <trkpt lat="48.85351" lon="2.34029">
        <ele>82.2</ele>
        <time>2015-05-11T21:06:24.458Z</time>
      </trkpt>
      <trkpt lat="48.85349" lon="2.34039">
        <ele>82.1</ele>
        <time>2015-05-11T21:06:26.473Z</time>
      </trkpt>
      <trkpt lat="48.85349" lon="2.34044">
        <ele>81.8</ele>
        <time>2015-05-11T21:06:27.387Z</time>
      </trkpt>
      <trkpt lat="48.85349" lon="2.34051">
        <ele>81.8</ele>
        <time>2015-05-11T21:06:28.393Z</time>
      </trkpt>
      <trkpt lat="48.85349" lon="2.34058">
        <ele>81.7</ele>
        <time>2015-05-11T21:06:29.394Z</time>
      </trkpt>
      <trkpt lat="48.85349" lon="2.34067">
        <ele>81.4</ele>
        <time>2015-05-11T21:06:30.512Z</time>
      </trkpt>
      <trkpt lat="48.8535" lon="2.34074">
        <ele>81.3</ele>
        <time>2015-05-11T21:06:31.472Z</time>
      </trkpt>
      <trkpt lat="48.85349" lon="2.34087">
        <ele>81.2</ele>
        <time>2015-05-11T21:06:33.410Z</time>
      </trkpt>
      <trkpt lat="48.85349" lon="2.34094">
        <ele>81.2</ele>
        <time>2015-05-11T21:06:34.426Z</time>
      </trkpt>
      <trkpt lat="48.85349" lon="2.34102">
        <ele>81.3</ele>
        <time>2015-05-11T21:06:35.399Z</time>
      </trkpt>
      <trkpt lat="48.85349" lon="2.34109">
        <ele>81.7</ele>
        <time>2015-05-11T21:06:36.430Z</time>
      </trkpt>
      <trkpt lat="48.85347" lon="2.34118">
        <ele>82</ele>
        <time>2015-05-11T21:06:37.482Z</time>
      </trkpt>
      <trkpt lat="48.85346" lon="2.34126">
        <ele>82.1</ele>
        <time>2015-05-11T21:06:38.446Z</time>
      </trkpt>
      <trkpt lat="48.85343" lon="2.34135">
        <ele>82.5</ele>
        <time>2015-05-11T21:06:39.468Z</time>
      </trkpt>
      <trkpt lat="48.85342" lon="2.34143">
        <ele>82.8</ele>
        <time>2015-05-11T21:06:40.369Z</time>
      </trkpt>
      <trkpt lat="48.85341" lon="2.34153">
        <ele>83</ele>
        <time>2015-05-11T21:06:42.606Z</time>
      </trkpt>
      <trkpt lat="48.85344" lon="2.3423">
        <ele>81.7</ele>
        <time>2015-05-11T21:06:58.483Z</time>
      </trkpt>
      <trkpt lat="48.85348" lon="2.34233">
        <ele>81.6</ele>
        <time>2015-05-11T21:06:59.477Z</time>
      </trkpt>
      <trkpt lat="48.85354" lon="2.34237">
        <ele>81.4</ele>
        <time>2015-05-11T21:07:00.491Z</time>
      </trkpt>
      <trkpt lat="48.85359" lon="2.34241">
        <ele>81.4</ele>
        <time>2015-05-11T21:07:01.505Z</time>
      </trkpt>
      <trkpt lat="48.85364" lon="2.34244">
        <ele>81.6</ele>
        <time>2015-05-11T21:07:02.401Z</time>
      </trkpt>
      <trkpt lat="48.85368" lon="2.34248">
        <ele>81.6</ele>
        <time>2015-05-11T21:07:03.416Z</time>
      </trkpt>
      <trkpt lat="48.85374" lon="2.3425">
        <ele>81.7</ele>
        <time>2015-05-11T21:07:04.433Z</time>
      </trkpt>
      <trkpt lat="48.85381" lon="2.34257">
        <ele>81.3</ele>
        <time>2015-05-11T21:07:07.473Z</time>
      </trkpt>
      <trkpt lat="48.85382" lon="2.34259">
        <ele>81.2</ele>
        <time>2015-05-11T21:07:08.407Z</time>
      </trkpt>
      <trkpt lat="48.85384" lon="2.34259">
        <ele>81.6</ele>
        <time>2015-05-11T21:07:12.488Z</time>
      </trkpt>
      <trkpt lat="48.85394" lon="2.34264">
        <ele>82.9</ele>
        <time>2015-05-11T21:07:15.421Z</time>
      </trkpt>
      <trkpt lat="48.85398" lon="2.34269">
        <ele>83.3</ele>
        <time>2015-05-11T21:07:16.430Z</time>
      </trkpt>
      <trkpt lat="48.85402" lon="2.34274">
        <ele>83.5</ele>
        <time>2015-05-11T21:07:17.444Z</time>
      </trkpt>
      <trkpt lat="48.85405" lon="2.34279">
        <ele>83.9</ele>
        <time>2015-05-11T21:07:18.891Z</time>
      </trkpt>
      <trkpt lat="48.85409" lon="2.34284">
        <ele>84.1</ele>
        <time>2015-05-11T21:07:19.432Z</time>
      </trkpt>
      <trkpt lat="48.85415" lon="2.34293">
        <ele>82.9</ele>
        <time>2015-05-11T21:07:20.438Z</time>
      </trkpt>
      <trkpt lat="48.85421" lon="2.34306">
        <ele>82.3</ele>
        <time>2015-05-11T21:07:21.493Z</time>
      </trkpt>
      <trkpt lat="48.85424" lon="2.34316">
        <ele>80.4</ele>
        <time>2015-05-11T21:07:23.476Z</time>
      </trkpt>
      <trkpt lat="48.85424" lon="2.34321">
        <ele>80.6</ele>
        <time>2015-05-11T21:07:24.415Z</time>
      </trkpt>
      <trkpt lat="48.85422" lon="2.34333">
        <ele>81.7</ele>
        <time>2015-05-11T21:07:38.496Z</time>
      </trkpt>
      <trkpt lat="48.85421" lon="2.34336">
        <ele>81.6</ele>
        <time>2015-05-11T21:07:39.410Z</time>
      </trkpt>
      <trkpt lat="48.85416" lon="2.34347">
        <ele>81.4</ele>
        <time>2015-05-11T21:07:42.516Z</time>
      </trkpt>
      <trkpt lat="48.85414" lon="2.34351">
        <ele>81.3</ele>
        <time>2015-05-11T21:07:43.511Z</time>
      </trkpt>
      <trkpt lat="48.8541" lon="2.3436">
        <ele>80.7</ele>
        <time>2015-05-11T21:07:45.411Z</time>
      </trkpt>
      <trkpt lat="48.85408" lon="2.34365">
        <ele>80.2</ele>
        <time>2015-05-11T21:07:46.416Z</time>
      </trkpt>
      <trkpt lat="48.85405" lon="2.34373">
        <ele>80.3</ele>
        <time>2015-05-11T21:07:47.532Z</time>
      </trkpt>
      <trkpt lat="48.85403" lon="2.34377">
        <ele>80.5</ele>
        <time>2015-05-11T21:07:49.497Z</time>
      </trkpt>
      <trkpt lat="48.85397" lon="2.34387">
        <ele>80.1</ele>
        <time>2015-05-11T21:07:52.608Z</time>
      </trkpt>
      <trkpt lat="48.85396" lon="2.34389">
        <ele>80.4</ele>
        <time>2015-05-11T21:07:53.442Z</time>
      </trkpt>
      <trkpt lat="48.85389" lon="2.34396">
        <ele>79.2</ele>
        <time>2015-05-11T21:07:56.446Z</time>
      </trkpt>
      <trkpt lat="48.85388" lon="2.34399">
        <ele>79.5</ele>
        <time>2015-05-11T21:07:57.458Z</time>
      </trkpt>
      <trkpt lat="48.8538" lon="2.344">
        <ele>78.6</ele>
        <time>2015-05-11T21:08:03.202Z</time>
      </trkpt>
      <trkpt lat="48.85378" lon="2.34399">
        <ele>78.2</ele>
        <time>2015-05-11T21:08:03.450Z</time>
      </trkpt>
      <trkpt lat="48.8537" lon="2.34399">
        <ele>77.4</ele>
        <time>2015-05-11T21:08:06.517Z</time>
      </trkpt>
      <trkpt lat="48.85368" lon="2.34401">
        <ele>77.8</ele>
        <time>2015-05-11T21:08:07.540Z</time>
      </trkpt>
      <trkpt lat="48.85364" lon="2.34406">
        <ele>77.9</ele>
        <time>2015-05-11T21:08:09.455Z</time>
      </trkpt>
      <trkpt lat="48.85362" lon="2.34412">
        <ele>78.5</ele>
        <time>2015-05-11T21:08:10.500Z</time>
      </trkpt>
      <trkpt lat="48.85359" lon="2.34423">
        <ele>79.5</ele>
        <time>2015-05-11T21:08:13.456Z</time>
      </trkpt>
      <trkpt lat="48.85359" lon="2.34427">
        <ele>79.8</ele>
        <time>2015-05-11T21:08:13.519Z</time>
      </trkpt>
      <trkpt lat="48.85361" lon="2.34438">
        <ele>79.2</ele>
        <time>2015-05-11T21:08:16.712Z</time>
      </trkpt>
      <trkpt lat="48.85362" lon="2.34441">
        <ele>79.1</ele>
        <time>2015-05-11T21:08:17.527Z</time>
      </trkpt>
      <trkpt lat="48.85367" lon="2.34446">
        <ele>80.6</ele>
        <time>2015-05-11T21:08:56.498Z</time>
      </trkpt>
      <trkpt lat="48.85369" lon="2.34455">
        <ele>81.3</ele>
        <time>2015-05-11T21:08:57.510Z</time>
      </trkpt>
      <trkpt lat="48.85376" lon="2.34455">
        <ele>78.9</ele>
        <time>2015-05-11T21:09:00.466Z</time>
      </trkpt>
      <trkpt lat="48.85379" lon="2.34455">
        <ele>78.8</ele>
        <time>2015-05-11T21:09:01.525Z</time>
      </trkpt>
      <trkpt lat="48.85388" lon="2.34457">
        <ele>79.1</ele>
        <time>2015-05-11T21:09:04.507Z</time>
      </trkpt>
      <trkpt lat="48.85391" lon="2.34458">
        <ele>79.3</ele>
        <time>2015-05-11T21:09:05.523Z</time>
      </trkpt>
      <trkpt lat="48.85396" lon="2.34463">
        <ele>79.7</ele>
        <time>2015-05-11T21:09:08.284Z</time>
      </trkpt>
      <trkpt lat="48.85399" lon="2.34465">
        <ele>80.1</ele>
        <time>2015-05-11T21:09:08.587Z</time>
      </trkpt>
      <trkpt lat="48.85406" lon="2.34471">
        <ele>80.5</ele>
        <time>2015-05-11T21:09:10.479Z</time>
      </trkpt>
      <trkpt lat="48.85409" lon="2.34474">
        <ele>80.7</ele>
        <time>2015-05-11T21:09:11.490Z</time>
      </trkpt>
      <trkpt lat="48.85415" lon="2.34479">
        <ele>80.9</ele>
        <time>2015-05-11T21:09:13.511Z</time>
      </trkpt>
      <trkpt lat="48.85418" lon="2.34482">
        <ele>81.1</ele>
        <time>2015-05-11T21:09:14.528Z</time>
      </trkpt>
      <trkpt lat="48.85425" lon="2.34488">
        <ele>81.3</ele>
        <time>2015-05-11T21:09:16.479Z</time>
      </trkpt>
      <trkpt lat="48.85428" lon="2.34491">
        <ele>81.5</ele>
        <time>2015-05-11T21:09:17.499Z</time>
      </trkpt>
      <trkpt lat="48.85434" lon="2.34494">
        <ele>82.3</ele>
        <time>2015-05-11T21:09:18.518Z</time>
      </trkpt>
      <trkpt lat="48.85437" lon="2.34497">
        <ele>82.3</ele>
        <time>2015-05-11T21:09:19.535Z</time>
      </trkpt>
      <trkpt lat="48.85443" lon="2.34503">
        <ele>82.5</ele>
        <time>2015-05-11T21:09:21.438Z</time>
      </trkpt>
      <trkpt lat="48.85445" lon="2.34507">
        <ele>82.6</ele>
        <time>2015-05-11T21:09:22.490Z</time>
      </trkpt>
      <trkpt lat="48.85448" lon="2.34516">
        <ele>82.8</ele>
        <time>2015-05-11T21:09:25.463Z</time>
      </trkpt>
      <trkpt lat="48.85449" lon="2.34519">
        <ele>83</ele>
        <time>2015-05-11T21:09:26.492Z</time>
      </trkpt>
      <trkpt lat="48.85455" lon="2.34528">
        <ele>83.5</ele>
        <time>2015-05-11T21:09:28.652Z</time>
      </trkpt>
      <trkpt lat="48.85458" lon="2.34531">
        <ele>83.7</ele>
        <time>2015-05-11T21:09:29.476Z</time>
      </trkpt>
      <trkpt lat="48.85463" lon="2.34539">
        <ele>83.7</ele>
        <time>2015-05-11T21:09:32.466Z</time>
      </trkpt>
      <trkpt lat="48.85466" lon="2.34542">
        <ele>83.6</ele>
        <time>2015-05-11T21:09:32.517Z</time>
      </trkpt>
      <trkpt lat="48.85473" lon="2.34549">
        <ele>83.7</ele>
        <time>2015-05-11T21:09:34.439Z</time>
      </trkpt>
      <trkpt lat="48.85475" lon="2.34553">
        <ele>83.7</ele>
        <time>2015-05-11T21:09:35.437Z</time>
      </trkpt>
      <trkpt lat="48.8548" lon="2.34559">
        <ele>83.7</ele>
        <time>2015-05-11T21:09:37.583Z</time>
      </trkpt>
      <trkpt lat="48.85483" lon="2.34562">
        <ele>83.7</ele>
        <time>2015-05-11T21:09:38.501Z</time>
      </trkpt>
      <trkpt lat="48.85491" lon="2.34567">
        <ele>83.5</ele>
        <time>2015-05-11T21:09:40.452Z</time>
      </trkpt>
      <trkpt lat="48.85496" lon="2.34572">
        <ele>83.4</ele>
        <time>2015-05-11T21:09:41.476Z</time>
      </trkpt>
      <trkpt lat="48.855" lon="2.34575">
        <ele>83.4</ele>
        <time>2015-05-11T21:09:42.597Z</time>
      </trkpt>
      <trkpt lat="48.85505" lon="2.34579">
        <ele>83.5</ele>
        <time>2015-05-11T21:09:43.507Z</time>
      </trkpt>
      <trkpt lat="48.85509" lon="2.34583">
        <ele>83.6</ele>
        <time>2015-05-11T21:09:44.408Z</time>
      </trkpt>
      <trkpt lat="48.85513" lon="2.34587">
        <ele>83.9</ele>
        <time>2015-05-11T21:09:45.445Z</time>
      </trkpt>
      <trkpt lat="48.85518" lon="2.34592">
        <ele>84.2</ele>
        <time>2015-05-11T21:09:46.459Z</time>
      </trkpt>
      <trkpt lat="48.85525" lon="2.34596">
        <ele>84.5</ele>
        <time>2015-05-11T21:09:47.481Z</time>
      </trkpt>
      <trkpt lat="48.8553" lon="2.346">
        <ele>84.7</ele>
        <time>2015-05-11T21:09:48.496Z</time>
      </trkpt>
      <trkpt lat="48.85536" lon="2.34603">
        <ele>84.9</ele>
        <time>2015-05-11T21:09:49.500Z</time>
      </trkpt>
      <trkpt lat="48.85541" lon="2.34606">
        <ele>84.9</ele>
        <time>2015-05-11T21:09:50.528Z</time>
      </trkpt>
      <trkpt lat="48.85546" lon="2.34609">
        <ele>84.8</ele>
        <time>2015-05-11T21:09:51.407Z</time>
      </trkpt>
      <trkpt lat="48.85554" lon="2.34613">
        <ele>84.6</ele>
        <time>2015-05-11T21:09:53.445Z</time>
      </trkpt>
      <trkpt lat="48.85557" lon="2.34615">
        <ele>84.5</ele>
        <time>2015-05-11T21:09:54.485Z</time>
      </trkpt>
      <trkpt lat="48.85563" lon="2.3462">
        <ele>83.4</ele>
        <time>2015-05-11T21:09:57.801Z</time>
      </trkpt>
      <trkpt lat="48.85566" lon="2.34622">
        <ele>83.2</ele>
        <time>2015-05-11T21:09:58.419Z</time>
      </trkpt>
      <trkpt lat="48.85573" lon="2.34625">
        <ele>82.8</ele>
        <time>2015-05-11T21:10:00.462Z</time>
      </trkpt>
      <trkpt lat="48.85575" lon="2.34628">
        <ele>82.4</ele>
        <time>2015-05-11T21:10:01.485Z</time>
      </trkpt>
      <trkpt lat="48.85581" lon="2.3463">
        <ele>81</ele>
        <time>2015-05-11T21:10:03.407Z</time>
      </trkpt>
      <trkpt lat="48.85585" lon="2.3463">
        <ele>80.1</ele>
        <time>2015-05-11T21:10:04.451Z</time>
      </trkpt>
      <trkpt lat="48.85591" lon="2.34627">
        <ele>78.3</ele>
        <time>2015-05-11T21:10:05.436Z</time>
      </trkpt>
      <trkpt lat="48.85597" lon="2.34628">
        <ele>76.8</ele>
        <time>2015-05-11T21:10:06.482Z</time>
      </trkpt>
      <trkpt lat="48.85603" lon="2.34628">
        <ele>75.6</ele>
        <time>2015-05-11T21:10:07.963Z</time>
      </trkpt>
      <trkpt lat="48.85607" lon="2.34629">
        <ele>75.3</ele>
        <time>2015-05-11T21:10:08.497Z</time>
      </trkpt>
      <trkpt lat="48.85612" lon="2.34631">
        <ele>74.5</ele>
        <time>2015-05-11T21:10:09.418Z</time>
      </trkpt>
      <trkpt lat="48.85617" lon="2.34633">
        <ele>74.2</ele>
        <time>2015-05-11T21:10:10.461Z</time>
      </trkpt>
      <trkpt lat="48.85621" lon="2.34635">
        <ele>73.8</ele>
        <time>2015-05-11T21:10:11.509Z</time>
      </trkpt>
      <trkpt lat="48.85626" lon="2.34639">
        <ele>73.4</ele>
        <time>2015-05-11T21:10:12.557Z</time>
      </trkpt>
      <trkpt lat="48.85634" lon="2.34645">
        <ele>74</ele>
        <time>2015-05-11T21:10:12.979Z</time>
      </trkpt>
      <trkpt lat="48.85637" lon="2.34648">
        <ele>74.2</ele>
        <time>2015-05-11T21:10:15.521Z</time>
      </trkpt>
      <trkpt lat="48.85641" lon="2.3465">
        <ele>74.1</ele>
        <time>2015-05-11T21:10:16.435Z</time>
      </trkpt>
      <trkpt lat="48.85646" lon="2.34653">
        <ele>74.7</ele>
        <time>2015-05-11T21:10:17.455Z</time>
      </trkpt>
      <trkpt lat="48.85654" lon="2.34658">
        <ele>75.5</ele>
        <time>2015-05-11T21:10:19.485Z</time>
      </trkpt>
      <trkpt lat="48.85659" lon="2.3466">
        <ele>75.9</ele>
        <time>2015-05-11T21:10:20.492Z</time>
      </trkpt>
      <trkpt lat="48.85665" lon="2.34664">
        <ele>75.8</ele>
        <time>2015-05-11T21:10:21.628Z</time>
      </trkpt>
      <trkpt lat="48.8567" lon="2.34666">
        <ele>75.7</ele>
        <time>2015-05-11T21:10:22.519Z</time>
      </trkpt>
      <trkpt lat="48.85674" lon="2.34668">
        <ele>75.7</ele>
        <time>2015-05-11T21:10:23.536Z</time>
      </trkpt>
      <trkpt lat="48.85678" lon="2.3467">
        <ele>75.3</ele>
        <time>2015-05-11T21:10:24.549Z</time>
      </trkpt>
      <trkpt lat="48.85683" lon="2.34672">
        <ele>75.3</ele>
        <time>2015-05-11T21:10:25.563Z</time>
      </trkpt>
      <trkpt lat="48.85687" lon="2.34674">
        <ele>75.8</ele>
        <time>2015-05-11T21:10:26.465Z</time>
      </trkpt>
      <trkpt lat="48.85695" lon="2.34679">
        <ele>75.5</ele>
        <time>2015-05-11T21:10:28.511Z</time>
      </trkpt>
      <trkpt lat="48.85699" lon="2.34681">
        <ele>75</ele>
        <time>2015-05-11T21:10:29.456Z</time>
      </trkpt>
      <trkpt lat="48.85707" lon="2.34685">
        <ele>74.6</ele>
        <time>2015-05-11T21:10:31.491Z</time>
      </trkpt>
      <trkpt lat="48.85711" lon="2.34686">
        <ele>75.2</ele>
        <time>2015-05-11T21:10:32.498Z</time>
      </trkpt>
      <trkpt lat="48.85719" lon="2.34685">
        <ele>75.7</ele>
        <time>2015-05-11T21:10:34.458Z</time>
      </trkpt>
      <trkpt lat="48.85722" lon="2.34685">
        <ele>75.9</ele>
        <time>2015-05-11T21:10:35.474Z</time>
      </trkpt>
      <trkpt lat="48.8573" lon="2.34684">
        <ele>76.9</ele>
        <time>2015-05-11T21:10:38.458Z</time>
      </trkpt>
      <trkpt lat="48.85734" lon="2.34685">
        <ele>77.2</ele>
        <time>2015-05-11T21:10:39.472Z</time>
      </trkpt>
      <trkpt lat="48.85742" lon="2.34689">
        <ele>77.4</ele>
        <time>2015-05-11T21:10:42.606Z</time>
      </trkpt>
      <trkpt lat="48.85744" lon="2.3469">
        <ele>77.7</ele>
        <time>2015-05-11T21:10:43.528Z</time>
      </trkpt>
      <trkpt lat="48.85749" lon="2.347">
        <ele>78.5</ele>
        <time>2015-05-11T21:10:47.619Z</time>
      </trkpt>
      <trkpt lat="48.8575" lon="2.34702">
        <ele>78.8</ele>
        <time>2015-05-11T21:10:48.490Z</time>
      </trkpt>
      <trkpt lat="48.85757" lon="2.34706">
        <ele>78.8</ele>
        <time>2015-05-11T21:10:51.424Z</time>
      </trkpt>
      <trkpt lat="48.85759" lon="2.34708">
        <ele>78.8</ele>
        <time>2015-05-11T21:10:52.462Z</time>
      </trkpt>
      <trkpt lat="48.85766" lon="2.34716">
        <ele>79</ele>
        <time>2015-05-11T21:10:55.508Z</time>
      </trkpt>
      <trkpt lat="48.85769" lon="2.34718">
        <ele>79.1</ele>
        <time>2015-05-11T21:10:56.520Z</time>
      </trkpt>
      <trkpt lat="48.85769" lon="2.34718">
        <ele>79.1</ele>
        <time>2015-05-11T21:11:18.560Z</time>
      </trkpt>
      <trkpt lat="48.85791" lon="2.34724">
        <ele>85.3</ele>
        <time>2015-05-11T21:11:19.482Z</time>
      </trkpt>
      <trkpt lat="48.85798" lon="2.34719">
        <ele>87.1</ele>
        <time>2015-05-11T21:11:23.254Z</time>
      </trkpt>
      <trkpt lat="48.85802" lon="2.3472">
        <ele>87.6</ele>
        <time>2015-05-11T21:11:23.496Z</time>
      </trkpt>
      <trkpt lat="48.8581" lon="2.34721">
        <ele>88.9</ele>
        <time>2015-05-11T21:11:26.459Z</time>
      </trkpt>
      <trkpt lat="48.85812" lon="2.3472">
        <ele>88.8</ele>
        <time>2015-05-11T21:11:27.462Z</time>
      </trkpt>
      <trkpt lat="48.8582" lon="2.34721">
        <ele>89.9</ele>
        <time>2015-05-11T21:11:29.477Z</time>
      </trkpt>
      <trkpt lat="48.85824" lon="2.34721">
        <ele>90.4</ele>
        <time>2015-05-11T21:11:30.484Z</time>
      </trkpt>
      <trkpt lat="48.85832" lon="2.34723">
        <ele>91.5</ele>
        <time>2015-05-11T21:11:32.798Z</time>
      </trkpt>
      <trkpt lat="48.85836" lon="2.34723">
        <ele>92.2</ele>
        <time>2015-05-11T21:11:33.451Z</time>
      </trkpt>
      <trkpt lat="48.85843" lon="2.34726">
        <ele>93.3</ele>
        <time>2015-05-11T21:11:35.483Z</time>
      </trkpt>
      <trkpt lat="48.85847" lon="2.34729">
        <ele>93.8</ele>
        <time>2015-05-11T21:11:36.592Z</time>
      </trkpt>
      <trkpt lat="48.85851" lon="2.34733">
        <ele>94.2</ele>
        <time>2015-05-11T21:11:37.852Z</time>
      </trkpt>
      <trkpt lat="48.85855" lon="2.34736">
        <ele>94.5</ele>
        <time>2015-05-11T21:11:38.456Z</time>
      </trkpt>
      <trkpt lat="48.85862" lon="2.34739">
        <ele>95.2</ele>
        <time>2015-05-11T21:11:40.480Z</time>
      </trkpt>
      <trkpt lat="48.85865" lon="2.3474">
        <ele>95.8</ele>
        <time>2015-05-11T21:11:41.497Z</time>
      </trkpt>
      <trkpt lat="48.85866" lon="2.34745">
        <ele>96.5</ele>
        <time>2015-05-11T21:11:50.458Z</time>
      </trkpt>
      <trkpt lat="48.85876" lon="2.34747">
        <ele>97.7</ele>
        <time>2015-05-11T21:11:51.492Z</time>
      </trkpt>
      <trkpt lat="48.85882" lon="2.34742">
        <ele>97.1</ele>
        <time>2015-05-11T21:11:54.583Z</time>
      </trkpt>
      <trkpt lat="48.85884" lon="2.34741">
        <ele>97.2</ele>
        <time>2015-05-11T21:11:55.515Z</time>
      </trkpt>
      <trkpt lat="48.85892" lon="2.34735">
        <ele>97.5</ele>
        <time>2015-05-11T21:12:00.477Z</time>
      </trkpt>
      <trkpt lat="48.85894" lon="2.34733">
        <ele>97.6</ele>
        <time>2015-05-11T21:12:01.519Z</time>
      </trkpt>
      <trkpt lat="48.85902" lon="2.34731">
        <ele>98.4</ele>
        <time>2015-05-11T21:12:03.465Z</time>
      </trkpt>
      <trkpt lat="48.85905" lon="2.34729">
        <ele>98.7</ele>
        <time>2015-05-11T21:12:04.458Z</time>
      </trkpt>
      <trkpt lat="48.8591" lon="2.34724">
        <ele>99.3</ele>
        <time>2015-05-11T21:12:06.502Z</time>
      </trkpt>
      <trkpt lat="48.85912" lon="2.34721">
        <ele>99.6</ele>
        <time>2015-05-11T21:12:07.554Z</time>
      </trkpt>
      <trkpt lat="48.85918" lon="2.34713">
        <ele>101.1</ele>
        <time>2015-05-11T21:12:10.466Z</time>
      </trkpt>
      <trkpt lat="48.85921" lon="2.34709">
        <ele>101.8</ele>
        <time>2015-05-11T21:12:11.482Z</time>
      </trkpt>
      <trkpt lat="48.85928" lon="2.34704">
        <ele>102.7</ele>
        <time>2015-05-11T21:12:13.516Z</time>
      </trkpt>
      <trkpt lat="48.85931" lon="2.34704">
        <ele>103</ele>
        <time>2015-05-11T21:12:14.528Z</time>
      </trkpt>
      <trkpt lat="48.85937" lon="2.34703">
        <ele>104.2</ele>
        <time>2015-05-11T21:12:16.452Z</time>
      </trkpt>
      <trkpt lat="48.8594" lon="2.34702">
        <ele>104.8</ele>
        <time>2015-05-11T21:12:17.463Z</time>
      </trkpt>
      <trkpt lat="48.85943" lon="2.34702">
        <ele>105.7</ele>
        <time>2015-05-11T21:13:17.690Z</time>
      </trkpt>
    </trkseg>
  </trk>
  <trk>
    <name><![CDATA[85 Quai de la Mégisserie]]></name>
    <extensions>
      <line xmlns="http://www.topografix.com/GPX/gpx_style/0/2">
        <color>000000</color>
      </line>
    </extensions>
    <trkseg>
      <trkpt lat="48.85736" lon="2.34696">
        <ele>90.8</ele>
        <time>2015-05-25T18:20:52.728Z</time>
      </trkpt>
      <trkpt lat="48.85734" lon="2.34693">
        <ele>91.4</ele>
        <time>2015-05-25T18:21:22.551Z</time>
      </trkpt>
      <trkpt lat="48.85735" lon="2.34693">
        <ele>91.2</ele>
        <time>2015-05-25T18:21:23.562Z</time>
      </trkpt>
      <trkpt lat="48.85735" lon="2.34692">
        <ele>91.1</ele>
        <time>2015-05-25T18:21:24.582Z</time>
      </trkpt>
      <trkpt lat="48.85734" lon="2.34691">
        <ele>91</ele>
        <time>2015-05-25T18:21:26.599Z</time>
      </trkpt>
      <trkpt lat="48.85734" lon="2.34691">
        <ele>91</ele>
        <time>2015-05-25T18:21:27.609Z</time>
      </trkpt>
      <trkpt lat="48.85734" lon="2.34691">
        <ele>91</ele>
        <time>2015-05-25T18:21:28.508Z</time>
      </trkpt>
      <trkpt lat="48.85734" lon="2.34691">
        <ele>91</ele>
        <time>2015-05-25T18:21:30.605Z</time>
      </trkpt>
      <trkpt lat="48.85734" lon="2.34691">
        <ele>91</ele>
        <time>2015-05-25T18:21:31.616Z</time>
      </trkpt>
      <trkpt lat="48.85733" lon="2.34691">
        <ele>91.1</ele>
        <time>2015-05-25T18:21:32.523Z</time>
      </trkpt>
      <trkpt lat="48.85733" lon="2.3469">
        <ele>91.1</ele>
        <time>2015-05-25T18:21:33.563Z</time>
      </trkpt>
      <trkpt lat="48.85734" lon="2.34691">
        <ele>91.3</ele>
        <time>2015-05-25T18:21:41.565Z</time>
      </trkpt>
      <trkpt lat="48.85734" lon="2.34691">
        <ele>91.3</ele>
        <time>2015-05-25T18:21:42.551Z</time>
      </trkpt>
      <trkpt lat="48.85734" lon="2.34691">
        <ele>91.3</ele>
        <time>2015-05-25T18:21:43.556Z</time>
      </trkpt>
      <trkpt lat="48.85734" lon="2.34692">
        <ele>91.4</ele>
        <time>2015-05-25T18:21:44.560Z</time>
      </trkpt>
      <trkpt lat="48.85734" lon="2.34695">
        <ele>91.3</ele>
        <time>2015-05-25T18:22:26.545Z</time>
      </trkpt>
      <trkpt lat="48.85735" lon="2.34698">
        <ele>88.5</ele>
        <time>2015-05-25T18:22:27.565Z</time>
      </trkpt>
      <trkpt lat="48.85727" lon="2.347">
        <ele>88.6</ele>
        <time>2015-05-25T18:22:32.588Z</time>
      </trkpt>
      <trkpt lat="48.85725" lon="2.34701">
        <ele>88.7</ele>
        <time>2015-05-25T18:22:33.665Z</time>
      </trkpt>
      <trkpt lat="48.8572" lon="2.34711">
        <ele>88.9</ele>
        <time>2015-05-25T18:22:42.603Z</time>
      </trkpt>
      <trkpt lat="48.8572" lon="2.34711">
        <ele>88.9</ele>
        <time>2015-05-25T18:22:43.619Z</time>
      </trkpt>
      <trkpt lat="48.8572" lon="2.34711">
        <ele>89</ele>
        <time>2015-05-25T18:22:47.577Z</time>
      </trkpt>
      <trkpt lat="48.85718" lon="2.34712">
        <ele>89.3</ele>
        <time>2015-05-25T18:22:48.617Z</time>
      </trkpt>
      <trkpt lat="48.85715" lon="2.34725">
        <ele>89.7</ele>
        <time>2015-05-25T18:22:54.656Z</time>
      </trkpt>
      <trkpt lat="48.85714" lon="2.34728">
        <ele>89.5</ele>
        <time>2015-05-25T18:22:55.581Z</time>
      </trkpt>
      <trkpt lat="48.85711" lon="2.34736">
        <ele>89.3</ele>
        <time>2015-05-25T18:22:57.609Z</time>
      </trkpt>
      <trkpt lat="48.85709" lon="2.34741">
        <ele>89.2</ele>
        <time>2015-05-25T18:22:58.623Z</time>
      </trkpt>
      <trkpt lat="48.85705" lon="2.3475">
        <ele>89.2</ele>
        <time>2015-05-25T18:23:00.608Z</time>
      </trkpt>
      <trkpt lat="48.85703" lon="2.34755">
        <ele>89.2</ele>
        <time>2015-05-25T18:23:01.615Z</time>
      </trkpt>
      <trkpt lat="48.85701" lon="2.34765">
        <ele>89.2</ele>
        <time>2015-05-25T18:23:03.541Z</time>
      </trkpt>
      <trkpt lat="48.85699" lon="2.34771">
        <ele>89.3</ele>
        <time>2015-05-25T18:23:04.578Z</time>
      </trkpt>
      <trkpt lat="48.85696" lon="2.34781">
        <ele>89.3</ele>
        <time>2015-05-25T18:23:06.553Z</time>
      </trkpt>
      <trkpt lat="48.85695" lon="2.34787">
        <ele>89.2</ele>
        <time>2015-05-25T18:23:07.549Z</time>
      </trkpt>
      <trkpt lat="48.85692" lon="2.34798">
        <ele>89.3</ele>
        <time>2015-05-25T18:23:09.532Z</time>
      </trkpt>
      <trkpt lat="48.8569" lon="2.34804">
        <ele>89.3</ele>
        <time>2015-05-25T18:23:10.593Z</time>
      </trkpt>
      <trkpt lat="48.85686" lon="2.34815">
        <ele>89.3</ele>
        <time>2015-05-25T18:23:13.076Z</time>
      </trkpt>
      <trkpt lat="48.85684" lon="2.34822">
        <ele>89.2</ele>
        <time>2015-05-25T18:23:13.616Z</time>
      </trkpt>
      <trkpt lat="48.85682" lon="2.34829">
        <ele>89.3</ele>
        <time>2015-05-25T18:23:14.534Z</time>
      </trkpt>
      <trkpt lat="48.85682" lon="2.34838">
        <ele>89.6</ele>
        <time>2015-05-25T18:23:15.502Z</time>
      </trkpt>
      <trkpt lat="48.85679" lon="2.3485">
        <ele>89.5</ele>
        <time>2015-05-25T18:23:18.145Z</time>
      </trkpt>
      <trkpt lat="48.85678" lon="2.34856">
        <ele>89.6</ele>
        <time>2015-05-25T18:23:18.573Z</time>
      </trkpt>
      <trkpt lat="48.85676" lon="2.34864">
        <ele>89.5</ele>
        <time>2015-05-25T18:23:19.598Z</time>
      </trkpt>
      <trkpt lat="48.85674" lon="2.34871">
        <ele>89.3</ele>
        <time>2015-05-25T18:23:20.599Z</time>
      </trkpt>
      <trkpt lat="48.85671" lon="2.34883">
        <ele>89.2</ele>
        <time>2015-05-25T18:23:23.231Z</time>
      </trkpt>
      <trkpt lat="48.85668" lon="2.34888">
        <ele>89.2</ele>
        <time>2015-05-25T18:23:23.536Z</time>
      </trkpt>
      <trkpt lat="48.85665" lon="2.34897">
        <ele>89.2</ele>
        <time>2015-05-25T18:23:25.573Z</time>
      </trkpt>
      <trkpt lat="48.85663" lon="2.34901">
        <ele>89.2</ele>
        <time>2015-05-25T18:23:26.635Z</time>
      </trkpt>
      <trkpt lat="48.85659" lon="2.34911">
        <ele>89.3</ele>
        <time>2015-05-25T18:23:28.551Z</time>
      </trkpt>
      <trkpt lat="48.85658" lon="2.34917">
        <ele>89.3</ele>
        <time>2015-05-25T18:23:29.506Z</time>
      </trkpt>
      <trkpt lat="48.85656" lon="2.34928">
        <ele>89.5</ele>
        <time>2015-05-25T18:23:32.532Z</time>
      </trkpt>
      <trkpt lat="48.85655" lon="2.34932">
        <ele>89.6</ele>
        <time>2015-05-25T18:23:33.530Z</time>
      </trkpt>
      <trkpt lat="48.85652" lon="2.34938">
        <ele>89.5</ele>
        <time>2015-05-25T18:23:34.532Z</time>
      </trkpt>
      <trkpt lat="48.85649" lon="2.34945">
        <ele>89.6</ele>
        <time>2015-05-25T18:23:35.543Z</time>
      </trkpt>
      <trkpt lat="48.85646" lon="2.34952">
        <ele>89.6</ele>
        <time>2015-05-25T18:23:36.562Z</time>
      </trkpt>
      <trkpt lat="48.85643" lon="2.34958">
        <ele>89.7</ele>
        <time>2015-05-25T18:23:37.573Z</time>
      </trkpt>
      <trkpt lat="48.85639" lon="2.3497">
        <ele>89.7</ele>
        <time>2015-05-25T18:23:39.612Z</time>
      </trkpt>
      <trkpt lat="48.85636" lon="2.34975">
        <ele>89.7</ele>
        <time>2015-05-25T18:23:40.528Z</time>
      </trkpt>
      <trkpt lat="48.85633" lon="2.34987">
        <ele>89.9</ele>
        <time>2015-05-25T18:23:43.615Z</time>
      </trkpt>
      <trkpt lat="48.85633" lon="2.34992">
        <ele>89.9</ele>
        <time>2015-05-25T18:23:44.536Z</time>
      </trkpt>
      <trkpt lat="48.85632" lon="2.34999">
        <ele>89.8</ele>
        <time>2015-05-25T18:23:45.564Z</time>
      </trkpt>
      <trkpt lat="48.8563" lon="2.35006">
        <ele>89.8</ele>
        <time>2015-05-25T18:23:46.565Z</time>
      </trkpt>
      <trkpt lat="48.85628" lon="2.35013">
        <ele>89.8</ele>
        <time>2015-05-25T18:23:47.574Z</time>
      </trkpt>
      <trkpt lat="48.85624" lon="2.35021">
        <ele>89.8</ele>
        <time>2015-05-25T18:23:48.611Z</time>
      </trkpt>
      <trkpt lat="48.85619" lon="2.35029">
        <ele>89.8</ele>
        <time>2015-05-25T18:23:49.627Z</time>
      </trkpt>
      <trkpt lat="48.85612" lon="2.35036">
        <ele>91.5</ele>
        <time>2015-05-25T18:23:50.636Z</time>
      </trkpt>
      <trkpt lat="48.85607" lon="2.35044">
        <ele>91.3</ele>
        <time>2015-05-25T18:23:51.636Z</time>
      </trkpt>
      <trkpt lat="48.85605" lon="2.35051">
        <ele>91.2</ele>
        <time>2015-05-25T18:23:52.516Z</time>
      </trkpt>
      <trkpt lat="48.85602" lon="2.35057">
        <ele>91.2</ele>
        <time>2015-05-25T18:23:53.568Z</time>
      </trkpt>
      <trkpt lat="48.856" lon="2.35063">
        <ele>91.2</ele>
        <time>2015-05-25T18:23:54.579Z</time>
      </trkpt>
      <trkpt lat="48.85596" lon="2.3507">
        <ele>91.1</ele>
        <time>2015-05-25T18:23:55.569Z</time>
      </trkpt>
      <trkpt lat="48.85594" lon="2.3508">
        <ele>91.6</ele>
        <time>2015-05-25T18:23:56.591Z</time>
      </trkpt>
      <trkpt lat="48.85591" lon="2.35089">
        <ele>91.7</ele>
        <time>2015-05-25T18:23:57.608Z</time>
      </trkpt>
      <trkpt lat="48.85587" lon="2.35097">
        <ele>91.5</ele>
        <time>2015-05-25T18:23:58.620Z</time>
      </trkpt>
      <trkpt lat="48.85583" lon="2.35107">
        <ele>91.2</ele>
        <time>2015-05-25T18:23:59.515Z</time>
      </trkpt>
      <trkpt lat="48.85579" lon="2.35116">
        <ele>91</ele>
        <time>2015-05-25T18:24:00.582Z</time>
      </trkpt>
      <trkpt lat="48.85575" lon="2.35124">
        <ele>90.8</ele>
        <time>2015-05-25T18:24:01.585Z</time>
      </trkpt>
      <trkpt lat="48.85572" lon="2.35133">
        <ele>90.7</ele>
        <time>2015-05-25T18:24:02.604Z</time>
      </trkpt>
      <trkpt lat="48.8557" lon="2.35141">
        <ele>90.7</ele>
        <time>2015-05-25T18:24:03.513Z</time>
      </trkpt>
      <trkpt lat="48.85567" lon="2.35156">
        <ele>90.4</ele>
        <time>2015-05-25T18:24:04.530Z</time>
      </trkpt>
      <trkpt lat="48.85565" lon="2.35164">
        <ele>90.4</ele>
        <time>2015-05-25T18:24:05.571Z</time>
      </trkpt>
      <trkpt lat="48.85562" lon="2.35172">
        <ele>90.5</ele>
        <time>2015-05-25T18:24:06.611Z</time>
      </trkpt>
      <trkpt lat="48.8556" lon="2.3518">
        <ele>90.5</ele>
        <time>2015-05-25T18:24:07.633Z</time>
      </trkpt>
      <trkpt lat="48.85558" lon="2.35187">
        <ele>90.5</ele>
        <time>2015-05-25T18:24:08.550Z</time>
      </trkpt>
      <trkpt lat="48.85556" lon="2.35201">
        <ele>90.7</ele>
        <time>2015-05-25T18:24:10.546Z</time>
      </trkpt>
      <trkpt lat="48.85556" lon="2.35207">
        <ele>90.8</ele>
        <time>2015-05-25T18:24:11.563Z</time>
      </trkpt>
      <trkpt lat="48.85554" lon="2.35214">
        <ele>90.8</ele>
        <time>2015-05-25T18:24:12.622Z</time>
      </trkpt>
      <trkpt lat="48.85549" lon="2.35223">
        <ele>90.8</ele>
        <time>2015-05-25T18:24:13.639Z</time>
      </trkpt>
      <trkpt lat="48.85545" lon="2.3523">
        <ele>90.8</ele>
        <time>2015-05-25T18:24:14.525Z</time>
      </trkpt>
      <trkpt lat="48.8554" lon="2.35238">
        <ele>90.7</ele>
        <time>2015-05-25T18:24:15.547Z</time>
      </trkpt>
      <trkpt lat="48.85536" lon="2.35245">
        <ele>90.7</ele>
        <time>2015-05-25T18:24:16.559Z</time>
      </trkpt>
      <trkpt lat="48.85532" lon="2.35251">
        <ele>90.7</ele>
        <time>2015-05-25T18:24:17.584Z</time>
      </trkpt>
      <trkpt lat="48.85528" lon="2.35259">
        <ele>90.7</ele>
        <time>2015-05-25T18:24:18.608Z</time>
      </trkpt>
      <trkpt lat="48.85524" lon="2.35267">
        <ele>90.6</ele>
        <time>2015-05-25T18:24:19.613Z</time>
      </trkpt>
      <trkpt lat="48.8552" lon="2.35276">
        <ele>90.6</ele>
        <time>2015-05-25T18:24:20.621Z</time>
      </trkpt>
      <trkpt lat="48.85517" lon="2.35285">
        <ele>90.7</ele>
        <time>2015-05-25T18:24:21.621Z</time>
      </trkpt>
      <trkpt lat="48.85514" lon="2.35292">
        <ele>90.8</ele>
        <time>2015-05-25T18:24:22.521Z</time>
      </trkpt>
      <trkpt lat="48.85511" lon="2.353">
        <ele>90.8</ele>
        <time>2015-05-25T18:24:23.539Z</time>
      </trkpt>
      <trkpt lat="48.85509" lon="2.35307">
        <ele>90.9</ele>
        <time>2015-05-25T18:24:24.574Z</time>
      </trkpt>
      <trkpt lat="48.85507" lon="2.35314">
        <ele>91</ele>
        <time>2015-05-25T18:24:25.582Z</time>
      </trkpt>
      <trkpt lat="48.85504" lon="2.35321">
        <ele>91</ele>
        <time>2015-05-25T18:24:26.612Z</time>
      </trkpt>
      <trkpt lat="48.85499" lon="2.35329">
        <ele>91</ele>
        <time>2015-05-25T18:24:27.538Z</time>
      </trkpt>
      <trkpt lat="48.85496" lon="2.35336">
        <ele>91</ele>
        <time>2015-05-25T18:24:28.550Z</time>
      </trkpt>
      <trkpt lat="48.85492" lon="2.35343">
        <ele>90.8</ele>
        <time>2015-05-25T18:24:29.569Z</time>
      </trkpt>
      <trkpt lat="48.85487" lon="2.35351">
        <ele>90.7</ele>
        <time>2015-05-25T18:24:30.576Z</time>
      </trkpt>
      <trkpt lat="48.85484" lon="2.35358">
        <ele>90.7</ele>
        <time>2015-05-25T18:24:31.580Z</time>
      </trkpt>
      <trkpt lat="48.8548" lon="2.35366">
        <ele>90.7</ele>
        <time>2015-05-25T18:24:32.585Z</time>
      </trkpt>
      <trkpt lat="48.85477" lon="2.35374">
        <ele>90.7</ele>
        <time>2015-05-25T18:24:33.601Z</time>
      </trkpt>
      <trkpt lat="48.85475" lon="2.35383">
        <ele>90.7</ele>
        <time>2015-05-25T18:24:34.516Z</time>
      </trkpt>
      <trkpt lat="48.85471" lon="2.35392">
        <ele>90.7</ele>
        <time>2015-05-25T18:24:35.522Z</time>
      </trkpt>
      <trkpt lat="48.85469" lon="2.354">
        <ele>90.7</ele>
        <time>2015-05-25T18:24:36.538Z</time>
      </trkpt>
      <trkpt lat="48.85467" lon="2.35407">
        <ele>90.9</ele>
        <time>2015-05-25T18:24:37.538Z</time>
      </trkpt>
      <trkpt lat="48.85465" lon="2.35416">
        <ele>91.2</ele>
        <time>2015-05-25T18:24:38.564Z</time>
      </trkpt>
      <trkpt lat="48.85462" lon="2.35424">
        <ele>91.1</ele>
        <time>2015-05-25T18:24:39.577Z</time>
      </trkpt>
      <trkpt lat="48.8546" lon="2.35431">
        <ele>90.7</ele>
        <time>2015-05-25T18:24:40.598Z</time>
      </trkpt>
      <trkpt lat="48.85457" lon="2.35438">
        <ele>90.5</ele>
        <time>2015-05-25T18:24:41.494Z</time>
      </trkpt>
      <trkpt lat="48.85452" lon="2.35446">
        <ele>90</ele>
        <time>2015-05-25T18:24:42.554Z</time>
      </trkpt>
      <trkpt lat="48.85448" lon="2.35452">
        <ele>89.6</ele>
        <time>2015-05-25T18:24:43.566Z</time>
      </trkpt>
      <trkpt lat="48.85445" lon="2.35458">
        <ele>89.2</ele>
        <time>2015-05-25T18:24:44.579Z</time>
      </trkpt>
      <trkpt lat="48.85441" lon="2.35463">
        <ele>89</ele>
        <time>2015-05-25T18:24:45.586Z</time>
      </trkpt>
      <trkpt lat="48.85437" lon="2.35471">
        <ele>88.6</ele>
        <time>2015-05-25T18:24:47.608Z</time>
      </trkpt>
      <trkpt lat="48.85435" lon="2.35476">
        <ele>88.4</ele>
        <time>2015-05-25T18:24:48.645Z</time>
      </trkpt>
      <trkpt lat="48.8543" lon="2.35483">
        <ele>88.5</ele>
        <time>2015-05-25T18:24:50.570Z</time>
      </trkpt>
      <trkpt lat="48.85428" lon="2.35486">
        <ele>88.6</ele>
        <time>2015-05-25T18:24:51.637Z</time>
      </trkpt>
      <trkpt lat="48.85424" lon="2.35494">
        <ele>88.7</ele>
        <time>2015-05-25T18:24:53.543Z</time>
      </trkpt>
      <trkpt lat="48.85423" lon="2.35499">
        <ele>88.8</ele>
        <time>2015-05-25T18:24:54.718Z</time>
      </trkpt>
      <trkpt lat="48.8542" lon="2.35505">
        <ele>88.9</ele>
        <time>2015-05-25T18:24:55.652Z</time>
      </trkpt>
      <trkpt lat="48.85417" lon="2.35511">
        <ele>89</ele>
        <time>2015-05-25T18:24:56.555Z</time>
      </trkpt>
      <trkpt lat="48.85413" lon="2.35521">
        <ele>89.2</ele>
        <time>2015-05-25T18:24:58.564Z</time>
      </trkpt>
      <trkpt lat="48.8541" lon="2.35525">
        <ele>89.2</ele>
        <time>2015-05-25T18:24:59.577Z</time>
      </trkpt>
      <trkpt lat="48.85406" lon="2.35533">
        <ele>89.3</ele>
        <time>2015-05-25T18:25:01.608Z</time>
      </trkpt>
      <trkpt lat="48.85404" lon="2.35538">
        <ele>89.3</ele>
        <time>2015-05-25T18:25:02.631Z</time>
      </trkpt>
      <trkpt lat="48.85401" lon="2.35551">
        <ele>89.4</ele>
        <time>2015-05-25T18:25:04.545Z</time>
      </trkpt>
      <trkpt lat="48.85399" lon="2.35557">
        <ele>89.6</ele>
        <time>2015-05-25T18:25:05.586Z</time>
      </trkpt>
      <trkpt lat="48.85397" lon="2.35564">
        <ele>89.7</ele>
        <time>2015-05-25T18:25:06.598Z</time>
      </trkpt>
      <trkpt lat="48.85394" lon="2.3557">
        <ele>89.8</ele>
        <time>2015-05-25T18:25:07.606Z</time>
      </trkpt>
      <trkpt lat="48.85393" lon="2.35577">
        <ele>89.9</ele>
        <time>2015-05-25T18:25:08.613Z</time>
      </trkpt>
      <trkpt lat="48.85391" lon="2.35583">
        <ele>89.8</ele>
        <time>2015-05-25T18:25:09.543Z</time>
      </trkpt>
      <trkpt lat="48.85389" lon="2.35592">
        <ele>88.8</ele>
        <time>2015-05-25T18:25:10.511Z</time>
      </trkpt>
      <trkpt lat="48.85385" lon="2.356">
        <ele>89</ele>
        <time>2015-05-25T18:25:11.538Z</time>
      </trkpt>
      <trkpt lat="48.85384" lon="2.35607">
        <ele>89.2</ele>
        <time>2015-05-25T18:25:12.631Z</time>
      </trkpt>
      <trkpt lat="48.85381" lon="2.35614">
        <ele>89.3</ele>
        <time>2015-05-25T18:25:13.634Z</time>
      </trkpt>
      <trkpt lat="48.85378" lon="2.35621">
        <ele>89.5</ele>
        <time>2015-05-25T18:25:14.543Z</time>
      </trkpt>
      <trkpt lat="48.85377" lon="2.35627">
        <ele>89.7</ele>
        <time>2015-05-25T18:25:15.691Z</time>
      </trkpt>
      <trkpt lat="48.85374" lon="2.35638">
        <ele>90.2</ele>
        <time>2015-05-25T18:25:17.572Z</time>
      </trkpt>
      <trkpt lat="48.85373" lon="2.35645">
        <ele>90.7</ele>
        <time>2015-05-25T18:25:18.621Z</time>
      </trkpt>
      <trkpt lat="48.85372" lon="2.35652">
        <ele>91</ele>
        <time>2015-05-25T18:25:19.527Z</time>
      </trkpt>
      <trkpt lat="48.8537" lon="2.35659">
        <ele>91.1</ele>
        <time>2015-05-25T18:25:20.542Z</time>
      </trkpt>
      <trkpt lat="48.85368" lon="2.35672">
        <ele>91.4</ele>
        <time>2015-05-25T18:25:22.575Z</time>
      </trkpt>
      <trkpt lat="48.85366" lon="2.35677">
        <ele>91.4</ele>
        <time>2015-05-25T18:25:23.750Z</time>
      </trkpt>
      <trkpt lat="48.85363" lon="2.35686">
        <ele>91.6</ele>
        <time>2015-05-25T18:25:24.316Z</time>
      </trkpt>
      <trkpt lat="48.8536" lon="2.35691">
        <ele>91.4</ele>
        <time>2015-05-25T18:25:26.595Z</time>
      </trkpt>
      <trkpt lat="48.85359" lon="2.35699">
        <ele>89.8</ele>
        <time>2015-05-25T18:25:27.615Z</time>
      </trkpt>
      <trkpt lat="48.85358" lon="2.35706">
        <ele>89.1</ele>
        <time>2015-05-25T18:25:28.666Z</time>
      </trkpt>
      <trkpt lat="48.85353" lon="2.35716">
        <ele>89.4</ele>
        <time>2015-05-25T18:25:30.598Z</time>
      </trkpt>
      <trkpt lat="48.85351" lon="2.35721">
        <ele>89.3</ele>
        <time>2015-05-25T18:25:31.626Z</time>
      </trkpt>
      <trkpt lat="48.85349" lon="2.35726">
        <ele>89.5</ele>
        <time>2015-05-25T18:25:32.522Z</time>
      </trkpt>
      <trkpt lat="48.85346" lon="2.35734">
        <ele>90</ele>
        <time>2015-05-25T18:25:33.558Z</time>
      </trkpt>
      <trkpt lat="48.85342" lon="2.3574">
        <ele>89.9</ele>
        <time>2015-05-25T18:25:34.548Z</time>
      </trkpt>
      <trkpt lat="48.85338" lon="2.35746">
        <ele>89.8</ele>
        <time>2015-05-25T18:25:35.575Z</time>
      </trkpt>
      <trkpt lat="48.85333" lon="2.35754">
        <ele>89.8</ele>
        <time>2015-05-25T18:25:37.614Z</time>
      </trkpt>
      <trkpt lat="48.85332" lon="2.35759">
        <ele>89.9</ele>
        <time>2015-05-25T18:25:38.526Z</time>
      </trkpt>
      <trkpt lat="48.85328" lon="2.35769">
        <ele>90</ele>
        <time>2015-05-25T18:25:40.597Z</time>
      </trkpt>
      <trkpt lat="48.85325" lon="2.35775">
        <ele>90.2</ele>
        <time>2015-05-25T18:25:41.607Z</time>
      </trkpt>
      <trkpt lat="48.85323" lon="2.3578">
        <ele>90.4</ele>
        <time>2015-05-25T18:25:42.618Z</time>
      </trkpt>
      <trkpt lat="48.8532" lon="2.35787">
        <ele>90.6</ele>
        <time>2015-05-25T18:25:43.630Z</time>
      </trkpt>
      <trkpt lat="48.85318" lon="2.35793">
        <ele>90.8</ele>
        <time>2015-05-25T18:25:44.818Z</time>
      </trkpt>
      <trkpt lat="48.85315" lon="2.35799">
        <ele>90.9</ele>
        <time>2015-05-25T18:25:45.515Z</time>
      </trkpt>
      <trkpt lat="48.85313" lon="2.35807">
        <ele>91</ele>
        <time>2015-05-25T18:25:46.522Z</time>
      </trkpt>
      <trkpt lat="48.8531" lon="2.35815">
        <ele>91</ele>
        <time>2015-05-25T18:25:47.537Z</time>
      </trkpt>
      <trkpt lat="48.85307" lon="2.35824">
        <ele>91</ele>
        <time>2015-05-25T18:25:48.591Z</time>
      </trkpt>
      <trkpt lat="48.85304" lon="2.35832">
        <ele>91.1</ele>
        <time>2015-05-25T18:25:49.590Z</time>
      </trkpt>
      <trkpt lat="48.85301" lon="2.3584">
        <ele>91.2</ele>
        <time>2015-05-25T18:25:50.600Z</time>
      </trkpt>
      <trkpt lat="48.85297" lon="2.35846">
        <ele>91.4</ele>
        <time>2015-05-25T18:25:51.608Z</time>
      </trkpt>
      <trkpt lat="48.85293" lon="2.35854">
        <ele>91.4</ele>
        <time>2015-05-25T18:25:52.612Z</time>
      </trkpt>
      <trkpt lat="48.8529" lon="2.3586">
        <ele>91.4</ele>
        <time>2015-05-25T18:25:53.630Z</time>
      </trkpt>
      <trkpt lat="48.85285" lon="2.35869">
        <ele>91.5</ele>
        <time>2015-05-25T18:25:55.594Z</time>
      </trkpt>
      <trkpt lat="48.85283" lon="2.35873">
        <ele>91.3</ele>
        <time>2015-05-25T18:25:56.622Z</time>
      </trkpt>
      <trkpt lat="48.8528" lon="2.35878">
        <ele>90.9</ele>
        <time>2015-05-25T18:25:58.617Z</time>
      </trkpt>
      <trkpt lat="48.85279" lon="2.3588">
        <ele>91</ele>
        <time>2015-05-25T18:25:59.635Z</time>
      </trkpt>
      <trkpt lat="48.8528" lon="2.35881">
        <ele>90.9</ele>
        <time>2015-05-25T18:26:00.572Z</time>
      </trkpt>
      <trkpt lat="48.8528" lon="2.3589">
        <ele>90.4</ele>
        <time>2015-05-25T18:26:03.625Z</time>
      </trkpt>
      <trkpt lat="48.85281" lon="2.35896">
        <ele>89.8</ele>
        <time>2015-05-25T18:26:04.653Z</time>
      </trkpt>
      <trkpt lat="48.85281" lon="2.35909">
        <ele>88.4</ele>
        <time>2015-05-25T18:26:07.594Z</time>
      </trkpt>
      <trkpt lat="48.85281" lon="2.3591">
        <ele>88.2</ele>
        <time>2015-05-25T18:26:08.611Z</time>
      </trkpt>
      <trkpt lat="48.85277" lon="2.3592">
        <ele>87.7</ele>
        <time>2015-05-25T18:26:13.653Z</time>
      </trkpt>
      <trkpt lat="48.85276" lon="2.35923">
        <ele>88</ele>
        <time>2015-05-25T18:26:14.546Z</time>
      </trkpt>
      <trkpt lat="48.85273" lon="2.3593">
        <ele>88.7</ele>
        <time>2015-05-25T18:26:16.619Z</time>
      </trkpt>
      <trkpt lat="48.85272" lon="2.35935">
        <ele>88.9</ele>
        <time>2015-05-25T18:26:17.640Z</time>
      </trkpt>
      <trkpt lat="48.85268" lon="2.35945">
        <ele>89.5</ele>
        <time>2015-05-25T18:26:19.566Z</time>
      </trkpt>
      <trkpt lat="48.85266" lon="2.3595">
        <ele>89.6</ele>
        <time>2015-05-25T18:26:20.563Z</time>
      </trkpt>
      <trkpt lat="48.85262" lon="2.3596">
        <ele>89.6</ele>
        <time>2015-05-25T18:26:22.536Z</time>
      </trkpt>
      <trkpt lat="48.85259" lon="2.35966">
        <ele>89.7</ele>
        <time>2015-05-25T18:26:23.555Z</time>
      </trkpt>
      <trkpt lat="48.85254" lon="2.35975">
        <ele>89.9</ele>
        <time>2015-05-25T18:26:25.595Z</time>
      </trkpt>
      <trkpt lat="48.85251" lon="2.35981">
        <ele>90</ele>
        <time>2015-05-25T18:26:26.624Z</time>
      </trkpt>
      <trkpt lat="48.85249" lon="2.35987">
        <ele>90.2</ele>
        <time>2015-05-25T18:26:27.534Z</time>
      </trkpt>
      <trkpt lat="48.85247" lon="2.35993">
        <ele>90.4</ele>
        <time>2015-05-25T18:26:28.528Z</time>
      </trkpt>
      <trkpt lat="48.85245" lon="2.36">
        <ele>90.5</ele>
        <time>2015-05-25T18:26:29.538Z</time>
      </trkpt>
      <trkpt lat="48.85243" lon="2.36007">
        <ele>90.7</ele>
        <time>2015-05-25T18:26:30.552Z</time>
      </trkpt>
      <trkpt lat="48.85241" lon="2.36013">
        <ele>90.7</ele>
        <time>2015-05-25T18:26:31.569Z</time>
      </trkpt>
      <trkpt lat="48.85238" lon="2.36019">
        <ele>91</ele>
        <time>2015-05-25T18:26:32.569Z</time>
      </trkpt>
      <trkpt lat="48.85233" lon="2.36029">
        <ele>91.4</ele>
        <time>2015-05-25T18:26:34.525Z</time>
      </trkpt>
      <trkpt lat="48.8523" lon="2.36034">
        <ele>91.5</ele>
        <time>2015-05-25T18:26:35.549Z</time>
      </trkpt>
      <trkpt lat="48.85226" lon="2.36046">
        <ele>91.9</ele>
        <time>2015-05-25T18:26:37.582Z</time>
      </trkpt>
      <trkpt lat="48.85223" lon="2.36052">
        <ele>92</ele>
        <time>2015-05-25T18:26:38.605Z</time>
      </trkpt>
      <trkpt lat="48.85219" lon="2.36057">
        <ele>92</ele>
        <time>2015-05-25T18:26:39.534Z</time>
      </trkpt>
      <trkpt lat="48.85215" lon="2.36063">
        <ele>92.1</ele>
        <time>2015-05-25T18:26:40.514Z</time>
      </trkpt>
      <trkpt lat="48.85211" lon="2.36067">
        <ele>92.1</ele>
        <time>2015-05-25T18:26:41.541Z</time>
      </trkpt>
      <trkpt lat="48.85206" lon="2.36072">
        <ele>92.1</ele>
        <time>2015-05-25T18:26:42.578Z</time>
      </trkpt>
      <trkpt lat="48.85201" lon="2.36077">
        <ele>92.2</ele>
        <time>2015-05-25T18:26:43.595Z</time>
      </trkpt>
      <trkpt lat="48.85197" lon="2.36083">
        <ele>92.2</ele>
        <time>2015-05-25T18:26:44.606Z</time>
      </trkpt>
      <trkpt lat="48.85193" lon="2.36088">
        <ele>92.3</ele>
        <time>2015-05-25T18:26:45.509Z</time>
      </trkpt>
      <trkpt lat="48.85189" lon="2.36091">
        <ele>92.3</ele>
        <time>2015-05-25T18:26:46.522Z</time>
      </trkpt>
      <trkpt lat="48.85184" lon="2.36094">
        <ele>92.4</ele>
        <time>2015-05-25T18:26:47.552Z</time>
      </trkpt>
      <trkpt lat="48.85179" lon="2.36096">
        <ele>92.3</ele>
        <time>2015-05-25T18:26:48.561Z</time>
      </trkpt>
      <trkpt lat="48.85173" lon="2.36099">
        <ele>92.3</ele>
        <time>2015-05-25T18:26:49.581Z</time>
      </trkpt>
      <trkpt lat="48.85169" lon="2.36104">
        <ele>92.6</ele>
        <time>2015-05-25T18:26:50.589Z</time>
      </trkpt>
      <trkpt lat="48.85164" lon="2.36109">
        <ele>92.7</ele>
        <time>2015-05-25T18:26:51.481Z</time>
      </trkpt>
      <trkpt lat="48.85159" lon="2.36113">
        <ele>92.8</ele>
        <time>2015-05-25T18:26:52.508Z</time>
      </trkpt>
      <trkpt lat="48.85152" lon="2.36116">
        <ele>92.4</ele>
        <time>2015-05-25T18:26:53.529Z</time>
      </trkpt>
      <trkpt lat="48.85147" lon="2.36117">
        <ele>92.3</ele>
        <time>2015-05-25T18:26:54.534Z</time>
      </trkpt>
      <trkpt lat="48.85142" lon="2.36119">
        <ele>92.1</ele>
        <time>2015-05-25T18:26:55.542Z</time>
      </trkpt>
      <trkpt lat="48.85137" lon="2.36121">
        <ele>91.9</ele>
        <time>2015-05-25T18:26:56.557Z</time>
      </trkpt>
      <trkpt lat="48.85131" lon="2.36123">
        <ele>91.7</ele>
        <time>2015-05-25T18:26:57.566Z</time>
      </trkpt>
      <trkpt lat="48.85125" lon="2.36125">
        <ele>91.7</ele>
        <time>2015-05-25T18:26:58.582Z</time>
      </trkpt>
      <trkpt lat="48.8512" lon="2.36126">
        <ele>91.9</ele>
        <time>2015-05-25T18:26:59.589Z</time>
      </trkpt>
      <trkpt lat="48.85115" lon="2.36126">
        <ele>91.8</ele>
        <time>2015-05-25T18:27:00.609Z</time>
      </trkpt>
      <trkpt lat="48.8511" lon="2.36127">
        <ele>91.6</ele>
        <time>2015-05-25T18:27:01.526Z</time>
      </trkpt>
      <trkpt lat="48.85105" lon="2.36129">
        <ele>91.6</ele>
        <time>2015-05-25T18:27:02.535Z</time>
      </trkpt>
      <trkpt lat="48.85097" lon="2.36129">
        <ele>91.8</ele>
        <time>2015-05-25T18:27:04.558Z</time>
      </trkpt>
      <trkpt lat="48.85095" lon="2.36129">
        <ele>91.7</ele>
        <time>2015-05-25T18:27:05.514Z</time>
      </trkpt>
      <trkpt lat="48.85091" lon="2.36128">
        <ele>91</ele>
        <time>2015-05-25T18:27:21.576Z</time>
      </trkpt>
      <trkpt lat="48.8509" lon="2.36127">
        <ele>90.8</ele>
        <time>2015-05-25T18:27:22.611Z</time>
      </trkpt>
      <trkpt lat="48.8509" lon="2.36127">
        <ele>90.8</ele>
        <time>2015-05-25T18:27:25.584Z</time>
      </trkpt>
      <trkpt lat="48.85088" lon="2.36128">
        <ele>92.1</ele>
        <time>2015-05-25T18:27:26.606Z</time>
      </trkpt>
      <trkpt lat="48.85086" lon="2.36129">
        <ele>92.6</ele>
        <time>2015-05-25T18:27:28.550Z</time>
      </trkpt>
      <trkpt lat="48.85086" lon="2.3613">
        <ele>92.7</ele>
        <time>2015-05-25T18:27:29.552Z</time>
      </trkpt>
      <trkpt lat="48.85086" lon="2.36131">
        <ele>92.6</ele>
        <time>2015-05-25T18:27:30.603Z</time>
      </trkpt>
      <trkpt lat="48.8508" lon="2.36126">
        <ele>91.2</ele>
        <time>2015-05-25T18:27:33.581Z</time>
      </trkpt>
      <trkpt lat="48.85076" lon="2.36124">
        <ele>90.9</ele>
        <time>2015-05-25T18:27:34.590Z</time>
      </trkpt>
      <trkpt lat="48.85068" lon="2.36124">
        <ele>91.3</ele>
        <time>2015-05-25T18:27:36.647Z</time>
      </trkpt>
      <trkpt lat="48.85064" lon="2.36128">
        <ele>92.1</ele>
        <time>2015-05-25T18:27:37.648Z</time>
      </trkpt>
      <trkpt lat="48.85055" lon="2.3613">
        <ele>92.8</ele>
        <time>2015-05-25T18:27:39.508Z</time>
      </trkpt>
      <trkpt lat="48.8505" lon="2.36132">
        <ele>93.1</ele>
        <time>2015-05-25T18:27:40.526Z</time>
      </trkpt>
      <trkpt lat="48.85044" lon="2.36133">
        <ele>93.1</ele>
        <time>2015-05-25T18:27:41.558Z</time>
      </trkpt>
      <trkpt lat="48.85039" lon="2.36134">
        <ele>93.4</ele>
        <time>2015-05-25T18:27:42.566Z</time>
      </trkpt>
      <trkpt lat="48.85034" lon="2.36133">
        <ele>93.4</ele>
        <time>2015-05-25T18:27:43.596Z</time>
      </trkpt>
      <trkpt lat="48.85027" lon="2.36132">
        <ele>92.9</ele>
        <time>2015-05-25T18:27:44.602Z</time>
      </trkpt>
      <trkpt lat="48.85021" lon="2.36132">
        <ele>92.8</ele>
        <time>2015-05-25T18:27:45.560Z</time>
      </trkpt>
      <trkpt lat="48.85016" lon="2.3613">
        <ele>92.8</ele>
        <time>2015-05-25T18:27:46.528Z</time>
      </trkpt>
      <trkpt lat="48.85009" lon="2.3613">
        <ele>92.6</ele>
        <time>2015-05-25T18:27:47.547Z</time>
      </trkpt>
      <trkpt lat="48.85002" lon="2.36132">
        <ele>92.4</ele>
        <time>2015-05-25T18:27:48.568Z</time>
      </trkpt>
      <trkpt lat="48.84995" lon="2.36134">
        <ele>92.2</ele>
        <time>2015-05-25T18:27:49.578Z</time>
      </trkpt>
      <trkpt lat="48.84987" lon="2.36136">
        <ele>91.5</ele>
        <time>2015-05-25T18:27:50.587Z</time>
      </trkpt>
      <trkpt lat="48.84981" lon="2.36138">
        <ele>91.2</ele>
        <time>2015-05-25T18:27:51.600Z</time>
      </trkpt>
      <trkpt lat="48.84975" lon="2.36138">
        <ele>91.1</ele>
        <time>2015-05-25T18:27:52.604Z</time>
      </trkpt>
      <trkpt lat="48.84969" lon="2.36141">
        <ele>90.9</ele>
        <time>2015-05-25T18:27:53.513Z</time>
      </trkpt>
      <trkpt lat="48.84962" lon="2.36146">
        <ele>90.7</ele>
        <time>2015-05-25T18:27:54.547Z</time>
      </trkpt>
      <trkpt lat="48.84955" lon="2.36151">
        <ele>90.6</ele>
        <time>2015-05-25T18:27:55.556Z</time>
      </trkpt>
      <trkpt lat="48.84949" lon="2.36155">
        <ele>90.6</ele>
        <time>2015-05-25T18:27:56.551Z</time>
      </trkpt>
      <trkpt lat="48.84944" lon="2.36161">
        <ele>90.6</ele>
        <time>2015-05-25T18:27:57.554Z</time>
      </trkpt>
      <trkpt lat="48.84938" lon="2.36167">
        <ele>90.6</ele>
        <time>2015-05-25T18:27:58.556Z</time>
      </trkpt>
      <trkpt lat="48.84933" lon="2.36174">
        <ele>90.6</ele>
        <time>2015-05-25T18:27:59.592Z</time>
      </trkpt>
      <trkpt lat="48.84928" lon="2.36182">
        <ele>90.6</ele>
        <time>2015-05-25T18:28:00.615Z</time>
      </trkpt>
      <trkpt lat="48.84923" lon="2.36189">
        <ele>90.6</ele>
        <time>2015-05-25T18:28:01.640Z</time>
      </trkpt>
      <trkpt lat="48.84917" lon="2.36195">
        <ele>90.6</ele>
        <time>2015-05-25T18:28:02.516Z</time>
      </trkpt>
      <trkpt lat="48.84912" lon="2.36202">
        <ele>90.6</ele>
        <time>2015-05-25T18:28:03.542Z</time>
      </trkpt>
      <trkpt lat="48.84908" lon="2.36209">
        <ele>90.5</ele>
        <time>2015-05-25T18:28:04.539Z</time>
      </trkpt>
      <trkpt lat="48.84903" lon="2.36217">
        <ele>90.4</ele>
        <time>2015-05-25T18:28:05.560Z</time>
      </trkpt>
      <trkpt lat="48.84899" lon="2.36224">
        <ele>90.5</ele>
        <time>2015-05-25T18:28:06.562Z</time>
      </trkpt>
      <trkpt lat="48.84894" lon="2.3623">
        <ele>90.5</ele>
        <time>2015-05-25T18:28:07.582Z</time>
      </trkpt>
      <trkpt lat="48.8489" lon="2.36237">
        <ele>90.5</ele>
        <time>2015-05-25T18:28:08.599Z</time>
      </trkpt>
      <trkpt lat="48.84886" lon="2.36243">
        <ele>90.5</ele>
        <time>2015-05-25T18:28:09.519Z</time>
      </trkpt>
      <trkpt lat="48.84881" lon="2.36249">
        <ele>90.5</ele>
        <time>2015-05-25T18:28:10.518Z</time>
      </trkpt>
      <trkpt lat="48.84877" lon="2.36255">
        <ele>90.5</ele>
        <time>2015-05-25T18:28:11.528Z</time>
      </trkpt>
      <trkpt lat="48.84872" lon="2.3626">
        <ele>90.5</ele>
        <time>2015-05-25T18:28:12.565Z</time>
      </trkpt>
      <trkpt lat="48.84868" lon="2.36266">
        <ele>90.4</ele>
        <time>2015-05-25T18:28:13.588Z</time>
      </trkpt>
      <trkpt lat="48.84864" lon="2.36272">
        <ele>90.4</ele>
        <time>2015-05-25T18:28:14.598Z</time>
      </trkpt>
      <trkpt lat="48.8486" lon="2.36277">
        <ele>90.3</ele>
        <time>2015-05-25T18:28:15.490Z</time>
      </trkpt>
      <trkpt lat="48.84856" lon="2.36284">
        <ele>90.4</ele>
        <time>2015-05-25T18:28:16.520Z</time>
      </trkpt>
      <trkpt lat="48.84852" lon="2.3629">
        <ele>90.4</ele>
        <time>2015-05-25T18:28:17.535Z</time>
      </trkpt>
      <trkpt lat="48.84848" lon="2.36295">
        <ele>90.4</ele>
        <time>2015-05-25T18:28:18.550Z</time>
      </trkpt>
      <trkpt lat="48.84844" lon="2.36301">
        <ele>90.4</ele>
        <time>2015-05-25T18:28:19.556Z</time>
      </trkpt>
      <trkpt lat="48.84839" lon="2.36309">
        <ele>90.6</ele>
        <time>2015-05-25T18:28:20.562Z</time>
      </trkpt>
      <trkpt lat="48.84837" lon="2.36316">
        <ele>90.7</ele>
        <time>2015-05-25T18:28:21.585Z</time>
      </trkpt>
      <trkpt lat="48.84834" lon="2.36321">
        <ele>90.8</ele>
        <time>2015-05-25T18:28:22.594Z</time>
      </trkpt>
      <trkpt lat="48.84831" lon="2.36332">
        <ele>90.8</ele>
        <time>2015-05-25T18:28:24.552Z</time>
      </trkpt>
      <trkpt lat="48.84827" lon="2.36336">
        <ele>90.7</ele>
        <time>2015-05-25T18:28:25.541Z</time>
      </trkpt>
      <trkpt lat="48.84823" lon="2.36341">
        <ele>90.6</ele>
        <time>2015-05-25T18:28:26.626Z</time>
      </trkpt>
      <trkpt lat="48.84819" lon="2.36345">
        <ele>90.5</ele>
        <time>2015-05-25T18:28:27.596Z</time>
      </trkpt>
      <trkpt lat="48.84816" lon="2.36351">
        <ele>90.4</ele>
        <time>2015-05-25T18:28:28.614Z</time>
      </trkpt>
      <trkpt lat="48.84812" lon="2.3636">
        <ele>90.6</ele>
        <time>2015-05-25T18:28:29.553Z</time>
      </trkpt>
      <trkpt lat="48.84808" lon="2.36369">
        <ele>90.7</ele>
        <time>2015-05-25T18:28:30.560Z</time>
      </trkpt>
      <trkpt lat="48.84804" lon="2.36377">
        <ele>90.8</ele>
        <time>2015-05-25T18:28:31.570Z</time>
      </trkpt>
      <trkpt lat="48.84799" lon="2.36384">
        <ele>90.5</ele>
        <time>2015-05-25T18:28:32.581Z</time>
      </trkpt>
      <trkpt lat="48.84795" lon="2.36391">
        <ele>89.9</ele>
        <time>2015-05-25T18:28:33.586Z</time>
      </trkpt>
      <trkpt lat="48.84789" lon="2.36399">
        <ele>90</ele>
        <time>2015-05-25T18:28:34.603Z</time>
      </trkpt>
      <trkpt lat="48.84785" lon="2.36406">
        <ele>90.1</ele>
        <time>2015-05-25T18:28:35.521Z</time>
      </trkpt>
      <trkpt lat="48.84781" lon="2.36413">
        <ele>89.8</ele>
        <time>2015-05-25T18:28:36.635Z</time>
      </trkpt>
      <trkpt lat="48.84777" lon="2.3642">
        <ele>89.2</ele>
        <time>2015-05-25T18:28:37.504Z</time>
      </trkpt>
      <trkpt lat="48.84774" lon="2.36426">
        <ele>88.7</ele>
        <time>2015-05-25T18:28:38.542Z</time>
      </trkpt>
      <trkpt lat="48.8477" lon="2.36432">
        <ele>88.3</ele>
        <time>2015-05-25T18:28:39.554Z</time>
      </trkpt>
      <trkpt lat="48.84767" lon="2.36437">
        <ele>88.2</ele>
        <time>2015-05-25T18:28:40.568Z</time>
      </trkpt>
      <trkpt lat="48.84765" lon="2.36443">
        <ele>88</ele>
        <time>2015-05-25T18:28:41.577Z</time>
      </trkpt>
      <trkpt lat="48.84761" lon="2.36451">
        <ele>86.7</ele>
        <time>2015-05-25T18:28:42.603Z</time>
      </trkpt>
      <trkpt lat="48.84758" lon="2.36458">
        <ele>86.3</ele>
        <time>2015-05-25T18:28:43.613Z</time>
      </trkpt>
      <trkpt lat="48.84755" lon="2.36464">
        <ele>86</ele>
        <time>2015-05-25T18:28:44.514Z</time>
      </trkpt>
      <trkpt lat="48.84751" lon="2.3647">
        <ele>85.9</ele>
        <time>2015-05-25T18:28:45.523Z</time>
      </trkpt>
      <trkpt lat="48.84749" lon="2.36476">
        <ele>85.3</ele>
        <time>2015-05-25T18:28:46.528Z</time>
      </trkpt>
      <trkpt lat="48.84746" lon="2.36482">
        <ele>84.9</ele>
        <time>2015-05-25T18:28:47.548Z</time>
      </trkpt>
      <trkpt lat="48.84744" lon="2.36489">
        <ele>85.3</ele>
        <time>2015-05-25T18:28:48.567Z</time>
      </trkpt>
      <trkpt lat="48.84742" lon="2.36496">
        <ele>84.4</ele>
        <time>2015-05-25T18:28:49.564Z</time>
      </trkpt>
      <trkpt lat="48.84742" lon="2.36507">
        <ele>83.1</ele>
        <time>2015-05-25T18:28:51.590Z</time>
      </trkpt>
      <trkpt lat="48.84742" lon="2.3651">
        <ele>82.4</ele>
        <time>2015-05-25T18:28:52.600Z</time>
      </trkpt>
      <trkpt lat="48.84744" lon="2.36514">
        <ele>82.6</ele>
        <time>2015-05-25T18:28:55.569Z</time>
      </trkpt>
      <trkpt lat="48.84747" lon="2.36517">
        <ele>83.6</ele>
        <time>2015-05-25T18:28:56.491Z</time>
      </trkpt>
      <trkpt lat="48.84747" lon="2.36519">
        <ele>84.2</ele>
        <time>2015-05-25T18:28:57.516Z</time>
      </trkpt>
      <trkpt lat="48.84747" lon="2.36522">
        <ele>84.9</ele>
        <time>2015-05-25T18:28:58.538Z</time>
      </trkpt>
      <trkpt lat="48.84746" lon="2.36525">
        <ele>85.1</ele>
        <time>2015-05-25T18:28:59.636Z</time>
      </trkpt>
      <trkpt lat="48.84746" lon="2.36525">
        <ele>85.1</ele>
        <time>2015-05-25T18:29:26.536Z</time>
      </trkpt>
      <trkpt lat="48.84747" lon="2.36531">
        <ele>86.8</ele>
        <time>2015-05-25T18:29:27.647Z</time>
      </trkpt>
      <trkpt lat="48.84747" lon="2.36536">
        <ele>86.2</ele>
        <time>2015-05-25T18:29:34.549Z</time>
      </trkpt>
      <trkpt lat="48.84747" lon="2.36536">
        <ele>86.1</ele>
        <time>2015-05-25T18:29:35.565Z</time>
      </trkpt>
      <trkpt lat="48.84747" lon="2.36537">
        <ele>86</ele>
        <time>2015-05-25T18:29:36.607Z</time>
      </trkpt>
      <trkpt lat="48.84741" lon="2.36545">
        <ele>87</ele>
        <time>2015-05-25T18:29:44.529Z</time>
      </trkpt>
      <trkpt lat="48.8474" lon="2.36546">
        <ele>87.2</ele>
        <time>2015-05-25T18:29:45.539Z</time>
      </trkpt>
      <trkpt lat="48.84736" lon="2.36553">
        <ele>87.2</ele>
        <time>2015-05-25T18:29:48.605Z</time>
      </trkpt>
      <trkpt lat="48.84733" lon="2.36557">
        <ele>87.1</ele>
        <time>2015-05-25T18:29:49.618Z</time>
      </trkpt>
      <trkpt lat="48.84727" lon="2.36564">
        <ele>87.2</ele>
        <time>2015-05-25T18:29:51.548Z</time>
      </trkpt>
      <trkpt lat="48.84724" lon="2.36568">
        <ele>87.1</ele>
        <time>2015-05-25T18:29:52.560Z</time>
      </trkpt>
      <trkpt lat="48.84718" lon="2.36577">
        <ele>87</ele>
        <time>2015-05-25T18:29:54.605Z</time>
      </trkpt>
      <trkpt lat="48.84715" lon="2.36583">
        <ele>87</ele>
        <time>2015-05-25T18:29:55.610Z</time>
      </trkpt>
      <trkpt lat="48.84711" lon="2.36589">
        <ele>86.9</ele>
        <time>2015-05-25T18:29:56.649Z</time>
      </trkpt>
      <trkpt lat="48.84708" lon="2.36594">
        <ele>86.9</ele>
        <time>2015-05-25T18:29:57.546Z</time>
      </trkpt>
      <trkpt lat="48.84704" lon="2.36599">
        <ele>86.9</ele>
        <time>2015-05-25T18:29:58.568Z</time>
      </trkpt>
      <trkpt lat="48.84699" lon="2.36604">
        <ele>87</ele>
        <time>2015-05-25T18:29:59.577Z</time>
      </trkpt>
      <trkpt lat="48.84695" lon="2.36609">
        <ele>87.1</ele>
        <time>2015-05-25T18:30:00.602Z</time>
      </trkpt>
      <trkpt lat="48.84691" lon="2.36613">
        <ele>87.2</ele>
        <time>2015-05-25T18:30:01.610Z</time>
      </trkpt>
      <trkpt lat="48.84687" lon="2.36617">
        <ele>87.3</ele>
        <time>2015-05-25T18:30:02.523Z</time>
      </trkpt>
      <trkpt lat="48.84683" lon="2.3662">
        <ele>87.3</ele>
        <time>2015-05-25T18:30:03.557Z</time>
      </trkpt>
      <trkpt lat="48.84676" lon="2.36626">
        <ele>87.4</ele>
        <time>2015-05-25T18:30:05.613Z</time>
      </trkpt>
      <trkpt lat="48.84672" lon="2.36629">
        <ele>87.4</ele>
        <time>2015-05-25T18:30:06.630Z</time>
      </trkpt>
      <trkpt lat="48.84665" lon="2.36634">
        <ele>87.4</ele>
        <time>2015-05-25T18:30:08.535Z</time>
      </trkpt>
      <trkpt lat="48.84662" lon="2.36638">
        <ele>87.4</ele>
        <time>2015-05-25T18:30:09.638Z</time>
      </trkpt>
      <trkpt lat="48.84659" lon="2.36645">
        <ele>87.8</ele>
        <time>2015-05-25T18:30:10.593Z</time>
      </trkpt>
      <trkpt lat="48.84656" lon="2.36649">
        <ele>87.8</ele>
        <time>2015-05-25T18:30:11.511Z</time>
      </trkpt>
      <trkpt lat="48.84651" lon="2.36657">
        <ele>87.7</ele>
        <time>2015-05-25T18:30:13.576Z</time>
      </trkpt>
      <trkpt lat="48.84648" lon="2.36664">
        <ele>87.1</ele>
        <time>2015-05-25T18:30:14.611Z</time>
      </trkpt>
      <trkpt lat="48.84643" lon="2.36674">
        <ele>87.2</ele>
        <time>2015-05-25T18:30:16.520Z</time>
      </trkpt>
      <trkpt lat="48.8464" lon="2.36678">
        <ele>87.3</ele>
        <time>2015-05-25T18:30:17.549Z</time>
      </trkpt>
      <trkpt lat="48.84635" lon="2.36686">
        <ele>87.4</ele>
        <time>2015-05-25T18:30:19.580Z</time>
      </trkpt>
      <trkpt lat="48.84633" lon="2.36689">
        <ele>87.6</ele>
        <time>2015-05-25T18:30:20.580Z</time>
      </trkpt>
      <trkpt lat="48.84628" lon="2.36698">
        <ele>87.7</ele>
        <time>2015-05-25T18:30:22.518Z</time>
      </trkpt>
      <trkpt lat="48.84625" lon="2.36701">
        <ele>87.7</ele>
        <time>2015-05-25T18:30:23.527Z</time>
      </trkpt>
      <trkpt lat="48.8462" lon="2.36711">
        <ele>87.8</ele>
        <time>2015-05-25T18:30:25.518Z</time>
      </trkpt>
      <trkpt lat="48.84617" lon="2.36716">
        <ele>87.8</ele>
        <time>2015-05-25T18:30:26.558Z</time>
      </trkpt>
      <trkpt lat="48.84616" lon="2.36726">
        <ele>88.9</ele>
        <time>2015-05-25T18:30:27.582Z</time>
      </trkpt>
      <trkpt lat="48.84614" lon="2.36731">
        <ele>88.9</ele>
        <time>2015-05-25T18:30:28.593Z</time>
      </trkpt>
      <trkpt lat="48.84609" lon="2.36739">
        <ele>88.7</ele>
        <time>2015-05-25T18:30:30.599Z</time>
      </trkpt>
      <trkpt lat="48.84607" lon="2.36743">
        <ele>88.6</ele>
        <time>2015-05-25T18:30:31.611Z</time>
      </trkpt>
      <trkpt lat="48.84599" lon="2.36751">
        <ele>88.7</ele>
        <time>2015-05-25T18:30:34.535Z</time>
      </trkpt>
      <trkpt lat="48.84597" lon="2.36753">
        <ele>88.7</ele>
        <time>2015-05-25T18:30:35.556Z</time>
      </trkpt>
      <trkpt lat="48.84594" lon="2.36762">
        <ele>88.6</ele>
        <time>2015-05-25T18:30:38.542Z</time>
      </trkpt>
      <trkpt lat="48.84591" lon="2.36765">
        <ele>88.8</ele>
        <time>2015-05-25T18:30:39.556Z</time>
      </trkpt>
      <trkpt lat="48.84585" lon="2.3677">
        <ele>89.1</ele>
        <time>2015-05-25T18:30:41.516Z</time>
      </trkpt>
      <trkpt lat="48.84583" lon="2.36773">
        <ele>89.5</ele>
        <time>2015-05-25T18:30:42.565Z</time>
      </trkpt>
      <trkpt lat="48.84577" lon="2.36781">
        <ele>89.9</ele>
        <time>2015-05-25T18:30:44.595Z</time>
      </trkpt>
      <trkpt lat="48.84575" lon="2.36785">
        <ele>90.1</ele>
        <time>2015-05-25T18:30:45.629Z</time>
      </trkpt>
      <trkpt lat="48.84572" lon="2.36794">
        <ele>90.2</ele>
        <time>2015-05-25T18:30:47.541Z</time>
      </trkpt>
      <trkpt lat="48.8457" lon="2.36798">
        <ele>90.2</ele>
        <time>2015-05-25T18:30:48.537Z</time>
      </trkpt>
      <trkpt lat="48.84564" lon="2.36809">
        <ele>89.8</ele>
        <time>2015-05-25T18:30:50.530Z</time>
      </trkpt>
      <trkpt lat="48.84561" lon="2.36817">
        <ele>89.5</ele>
        <time>2015-05-25T18:30:51.537Z</time>
      </trkpt>
      <trkpt lat="48.84557" lon="2.36823">
        <ele>89.4</ele>
        <time>2015-05-25T18:30:52.547Z</time>
      </trkpt>
      <trkpt lat="48.84554" lon="2.36827">
        <ele>89</ele>
        <time>2015-05-25T18:30:53.554Z</time>
      </trkpt>
      <trkpt lat="48.8455" lon="2.36831">
        <ele>89.2</ele>
        <time>2015-05-25T18:30:54.566Z</time>
      </trkpt>
      <trkpt lat="48.84547" lon="2.36836">
        <ele>89.4</ele>
        <time>2015-05-25T18:30:55.579Z</time>
      </trkpt>
      <trkpt lat="48.84545" lon="2.36849">
        <ele>87.3</ele>
        <time>2015-05-25T18:30:58.549Z</time>
      </trkpt>
      <trkpt lat="48.84546" lon="2.36851">
        <ele>87.2</ele>
        <time>2015-05-25T18:30:59.569Z</time>
      </trkpt>
      <trkpt lat="48.84544" lon="2.36856">
        <ele>88.8</ele>
        <time>2015-05-25T18:31:02.554Z</time>
      </trkpt>
      <trkpt lat="48.84542" lon="2.36857">
        <ele>89.7</ele>
        <time>2015-05-25T18:31:03.679Z</time>
      </trkpt>
      <trkpt lat="48.84542" lon="2.36857">
        <ele>90.4</ele>
        <time>2015-05-25T18:31:05.598Z</time>
      </trkpt>
      <trkpt lat="48.8454" lon="2.36856">
        <ele>90.6</ele>
        <time>2015-05-25T18:31:06.600Z</time>
      </trkpt>
      <trkpt lat="48.84534" lon="2.36857">
        <ele>90.8</ele>
        <time>2015-05-25T18:31:09.551Z</time>
      </trkpt>
      <trkpt lat="48.84531" lon="2.36859">
        <ele>90.5</ele>
        <time>2015-05-25T18:31:10.557Z</time>
      </trkpt>
      <trkpt lat="48.84525" lon="2.36866">
        <ele>89.7</ele>
        <time>2015-05-25T18:31:12.589Z</time>
      </trkpt>
      <trkpt lat="48.8452" lon="2.36872">
        <ele>89</ele>
        <time>2015-05-25T18:31:13.640Z</time>
      </trkpt>
      <trkpt lat="48.84516" lon="2.36877">
        <ele>88.5</ele>
        <time>2015-05-25T18:31:14.578Z</time>
      </trkpt>
      <trkpt lat="48.84512" lon="2.36881">
        <ele>88.2</ele>
        <time>2015-05-25T18:31:15.549Z</time>
      </trkpt>
      <trkpt lat="48.84508" lon="2.36885">
        <ele>87.9</ele>
        <time>2015-05-25T18:31:16.559Z</time>
      </trkpt>
      <trkpt lat="48.84504" lon="2.36888">
        <ele>87.7</ele>
        <time>2015-05-25T18:31:17.566Z</time>
      </trkpt>
      <trkpt lat="48.84497" lon="2.36893">
        <ele>87.1</ele>
        <time>2015-05-25T18:31:19.588Z</time>
      </trkpt>
      <trkpt lat="48.84493" lon="2.36896">
        <ele>86.8</ele>
        <time>2015-05-25T18:31:20.619Z</time>
      </trkpt>
      <trkpt lat="48.84488" lon="2.36901">
        <ele>86.8</ele>
        <time>2015-05-25T18:31:21.563Z</time>
      </trkpt>
      <trkpt lat="48.84485" lon="2.36904">
        <ele>86.8</ele>
        <time>2015-05-25T18:31:22.558Z</time>
      </trkpt>
      <trkpt lat="48.84478" lon="2.36912">
        <ele>87.3</ele>
        <time>2015-05-25T18:31:26.597Z</time>
      </trkpt>
      <trkpt lat="48.84476" lon="2.36914">
        <ele>87.3</ele>
        <time>2015-05-25T18:31:27.526Z</time>
      </trkpt>
      <trkpt lat="48.84472" lon="2.36926">
        <ele>87.1</ele>
        <time>2015-05-25T18:31:29.550Z</time>
      </trkpt>
      <trkpt lat="48.84466" lon="2.36935">
        <ele>86.8</ele>
        <time>2015-05-25T18:31:30.649Z</time>
      </trkpt>
      <trkpt lat="48.84462" lon="2.36945">
        <ele>86.5</ele>
        <time>2015-05-25T18:31:31.557Z</time>
      </trkpt>
      <trkpt lat="48.84461" lon="2.36952">
        <ele>86.4</ele>
        <time>2015-05-25T18:31:32.560Z</time>
      </trkpt>
      <trkpt lat="48.84458" lon="2.36957">
        <ele>86.3</ele>
        <time>2015-05-25T18:31:33.564Z</time>
      </trkpt>
      <trkpt lat="48.84454" lon="2.36963">
        <ele>86.3</ele>
        <time>2015-05-25T18:31:34.564Z</time>
      </trkpt>
      <trkpt lat="48.84449" lon="2.36968">
        <ele>86.3</ele>
        <time>2015-05-25T18:31:35.584Z</time>
      </trkpt>
      <trkpt lat="48.84442" lon="2.36973">
        <ele>86.2</ele>
        <time>2015-05-25T18:31:36.593Z</time>
      </trkpt>
      <trkpt lat="48.84436" lon="2.36977">
        <ele>86.1</ele>
        <time>2015-05-25T18:31:37.617Z</time>
      </trkpt>
      <trkpt lat="48.84431" lon="2.36982">
        <ele>85.9</ele>
        <time>2015-05-25T18:31:38.497Z</time>
      </trkpt>
      <trkpt lat="48.84426" lon="2.36987">
        <ele>85.9</ele>
        <time>2015-05-25T18:31:39.536Z</time>
      </trkpt>
      <trkpt lat="48.84422" lon="2.36993">
        <ele>85.9</ele>
        <time>2015-05-25T18:31:40.548Z</time>
      </trkpt>
      <trkpt lat="48.84419" lon="2.36999">
        <ele>85.9</ele>
        <time>2015-05-25T18:31:41.559Z</time>
      </trkpt>
      <trkpt lat="48.84416" lon="2.37005">
        <ele>85.9</ele>
        <time>2015-05-25T18:31:42.575Z</time>
      </trkpt>
      <trkpt lat="48.84412" lon="2.3701">
        <ele>85.9</ele>
        <time>2015-05-25T18:31:43.610Z</time>
      </trkpt>
      <trkpt lat="48.84411" lon="2.37017">
        <ele>86</ele>
        <time>2015-05-25T18:31:44.519Z</time>
      </trkpt>
      <trkpt lat="48.84412" lon="2.37028">
        <ele>86.8</ele>
        <time>2015-05-25T18:31:45.710Z</time>
      </trkpt>
      <trkpt lat="48.84412" lon="2.37038">
        <ele>87.4</ele>
        <time>2015-05-25T18:31:46.576Z</time>
      </trkpt>
      <trkpt lat="48.84413" lon="2.37048">
        <ele>88</ele>
        <time>2015-05-25T18:31:47.585Z</time>
      </trkpt>
      <trkpt lat="48.84413" lon="2.37057">
        <ele>88.5</ele>
        <time>2015-05-25T18:31:48.603Z</time>
      </trkpt>
      <trkpt lat="48.84411" lon="2.37061">
        <ele>88.4</ele>
        <time>2015-05-25T18:31:49.529Z</time>
      </trkpt>
      <trkpt lat="48.84404" lon="2.37063">
        <ele>88.5</ele>
        <time>2015-05-25T18:31:50.486Z</time>
      </trkpt>
      <trkpt lat="48.84396" lon="2.37064">
        <ele>88.4</ele>
        <time>2015-05-25T18:31:51.524Z</time>
      </trkpt>
      <trkpt lat="48.84391" lon="2.37066">
        <ele>88.5</ele>
        <time>2015-05-25T18:31:52.527Z</time>
      </trkpt>
      <trkpt lat="48.84383" lon="2.3707">
        <ele>89</ele>
        <time>2015-05-25T18:31:54.543Z</time>
      </trkpt>
      <trkpt lat="48.84379" lon="2.37072">
        <ele>89.1</ele>
        <time>2015-05-25T18:31:55.560Z</time>
      </trkpt>
      <trkpt lat="48.84372" lon="2.37075">
        <ele>89.3</ele>
        <time>2015-05-25T18:31:58.535Z</time>
      </trkpt>
      <trkpt lat="48.84372" lon="2.37076">
        <ele>89.1</ele>
        <time>2015-05-25T18:31:59.533Z</time>
      </trkpt>
      <trkpt lat="48.84371" lon="2.37076">
        <ele>89.1</ele>
        <time>2015-05-25T18:32:00.613Z</time>
      </trkpt>
      <trkpt lat="48.84364" lon="2.37081">
        <ele>88</ele>
        <time>2015-05-25T18:32:14.561Z</time>
      </trkpt>
      <trkpt lat="48.84362" lon="2.37082">
        <ele>88.1</ele>
        <time>2015-05-25T18:32:15.578Z</time>
      </trkpt>
      <trkpt lat="48.8436" lon="2.37082">
        <ele>88.5</ele>
        <time>2015-05-25T18:32:17.547Z</time>
      </trkpt>
      <trkpt lat="48.84359" lon="2.37081">
        <ele>88.2</ele>
        <time>2015-05-25T18:32:18.527Z</time>
      </trkpt>
      <trkpt lat="48.84358" lon="2.37083">
        <ele>88.1</ele>
        <time>2015-05-25T18:32:19.583Z</time>
      </trkpt>
      <trkpt lat="48.84358" lon="2.37083">
        <ele>88</ele>
        <time>2015-05-25T18:32:20.604Z</time>
      </trkpt>
      <trkpt lat="48.84351" lon="2.37088">
        <ele>87.3</ele>
        <time>2015-05-25T18:32:26.555Z</time>
      </trkpt>
      <trkpt lat="48.8435" lon="2.37089">
        <ele>87.4</ele>
        <time>2015-05-25T18:32:27.580Z</time>
      </trkpt>
      <trkpt lat="48.84343" lon="2.37096">
        <ele>87.9</ele>
        <time>2015-05-25T18:32:30.583Z</time>
      </trkpt>
      <trkpt lat="48.84341" lon="2.37098">
        <ele>88</ele>
        <time>2015-05-25T18:32:31.824Z</time>
      </trkpt>
      <trkpt lat="48.84334" lon="2.37103">
        <ele>87.9</ele>
        <time>2015-05-25T18:32:35.574Z</time>
      </trkpt>
      <trkpt lat="48.84332" lon="2.37104">
        <ele>87.8</ele>
        <time>2015-05-25T18:32:36.581Z</time>
      </trkpt>
      <trkpt lat="48.84326" lon="2.37107">
        <ele>88</ele>
        <time>2015-05-25T18:32:39.536Z</time>
      </trkpt>
      <trkpt lat="48.84324" lon="2.37109">
        <ele>88.2</ele>
        <time>2015-05-25T18:32:40.550Z</time>
      </trkpt>
      <trkpt lat="48.84317" lon="2.37115">
        <ele>88.5</ele>
        <time>2015-05-25T18:32:43.561Z</time>
      </trkpt>
      <trkpt lat="48.84316" lon="2.37117">
        <ele>88.6</ele>
        <time>2015-05-25T18:32:44.565Z</time>
      </trkpt>
      <trkpt lat="48.84311" lon="2.37126">
        <ele>89.1</ele>
        <time>2015-05-25T18:32:47.609Z</time>
      </trkpt>
      <trkpt lat="48.84308" lon="2.37128">
        <ele>89.4</ele>
        <time>2015-05-25T18:32:48.618Z</time>
      </trkpt>
      <trkpt lat="48.84301" lon="2.37131">
        <ele>90.4</ele>
        <time>2015-05-25T18:32:51.567Z</time>
      </trkpt>
      <trkpt lat="48.84299" lon="2.37132">
        <ele>90.7</ele>
        <time>2015-05-25T18:32:52.598Z</time>
      </trkpt>
      <trkpt lat="48.84296" lon="2.37133">
        <ele>91.1</ele>
        <time>2015-05-25T18:32:53.542Z</time>
      </trkpt>
      <trkpt lat="48.84285" lon="2.37138">
        <ele>91.9</ele>
        <time>2015-05-25T18:32:58.553Z</time>
      </trkpt>
      <trkpt lat="48.84279" lon="2.37142">
        <ele>92.5</ele>
        <time>2015-05-25T18:33:00.602Z</time>
      </trkpt>
      <trkpt lat="48.84275" lon="2.37143">
        <ele>92.9</ele>
        <time>2015-05-25T18:33:01.614Z</time>
      </trkpt>
      <trkpt lat="48.8427" lon="2.37154">
        <ele>93.7</ele>
        <time>2015-05-25T18:33:03.549Z</time>
      </trkpt>
      <trkpt lat="48.84267" lon="2.37159">
        <ele>94.4</ele>
        <time>2015-05-25T18:33:04.555Z</time>
      </trkpt>
      <trkpt lat="48.8426" lon="2.37163">
        <ele>95.4</ele>
        <time>2015-05-25T18:33:06.578Z</time>
      </trkpt>
      <trkpt lat="48.84257" lon="2.37165">
        <ele>95.9</ele>
        <time>2015-05-25T18:33:07.587Z</time>
      </trkpt>
      <trkpt lat="48.8425" lon="2.37169">
        <ele>97.1</ele>
        <time>2015-05-25T18:33:09.520Z</time>
      </trkpt>
      <trkpt lat="48.84248" lon="2.37172">
        <ele>97.4</ele>
        <time>2015-05-25T18:33:10.562Z</time>
      </trkpt>
      <trkpt lat="48.84239" lon="2.37177">
        <ele>98.1</ele>
        <time>2015-05-25T18:33:13.504Z</time>
      </trkpt>
      <trkpt lat="48.84237" lon="2.37179">
        <ele>98.3</ele>
        <time>2015-05-25T18:33:14.507Z</time>
      </trkpt>
      <trkpt lat="48.84232" lon="2.37184">
        <ele>98.7</ele>
        <time>2015-05-25T18:33:16.532Z</time>
      </trkpt>
      <trkpt lat="48.84228" lon="2.37186">
        <ele>98.8</ele>
        <time>2015-05-25T18:33:17.676Z</time>
      </trkpt>
      <trkpt lat="48.8422" lon="2.37197">
        <ele>98.6</ele>
        <time>2015-05-25T18:33:19.526Z</time>
      </trkpt>
      <trkpt lat="48.84218" lon="2.37209">
        <ele>97.5</ele>
        <time>2015-05-25T18:33:20.541Z</time>
      </trkpt>
      <trkpt lat="48.84215" lon="2.37217">
        <ele>95.8</ele>
        <time>2015-05-25T18:33:21.551Z</time>
      </trkpt>
      <trkpt lat="48.8421" lon="2.3722">
        <ele>94.8</ele>
        <time>2015-05-25T18:33:22.558Z</time>
      </trkpt>
      <trkpt lat="48.84205" lon="2.37223">
        <ele>93.6</ele>
        <time>2015-05-25T18:33:23.611Z</time>
      </trkpt>
      <trkpt lat="48.84201" lon="2.37227">
        <ele>92.4</ele>
        <time>2015-05-25T18:33:24.615Z</time>
      </trkpt>
      <trkpt lat="48.84195" lon="2.37231">
        <ele>91.2</ele>
        <time>2015-05-25T18:33:25.531Z</time>
      </trkpt>
      <trkpt lat="48.84192" lon="2.37238">
        <ele>90</ele>
        <time>2015-05-25T18:33:26.538Z</time>
      </trkpt>
      <trkpt lat="48.84186" lon="2.37243">
        <ele>88.9</ele>
        <time>2015-05-25T18:33:27.551Z</time>
      </trkpt>
      <trkpt lat="48.84181" lon="2.37248">
        <ele>88.2</ele>
        <time>2015-05-25T18:33:28.565Z</time>
      </trkpt>
      <trkpt lat="48.84177" lon="2.37253">
        <ele>87.6</ele>
        <time>2015-05-25T18:33:29.572Z</time>
      </trkpt>
      <trkpt lat="48.84173" lon="2.37259">
        <ele>87</ele>
        <time>2015-05-25T18:33:30.580Z</time>
      </trkpt>
      <trkpt lat="48.84169" lon="2.37266">
        <ele>86.3</ele>
        <time>2015-05-25T18:33:31.581Z</time>
      </trkpt>
      <trkpt lat="48.84166" lon="2.37275">
        <ele>86</ele>
        <time>2015-05-25T18:33:32.599Z</time>
      </trkpt>
      <trkpt lat="48.84162" lon="2.3728">
        <ele>85.7</ele>
        <time>2015-05-25T18:33:33.510Z</time>
      </trkpt>
      <trkpt lat="48.84159" lon="2.37285">
        <ele>85.3</ele>
        <time>2015-05-25T18:33:34.517Z</time>
      </trkpt>
      <trkpt lat="48.84155" lon="2.3729">
        <ele>85.1</ele>
        <time>2015-05-25T18:33:35.525Z</time>
      </trkpt>
      <trkpt lat="48.84148" lon="2.37299">
        <ele>84.9</ele>
        <time>2015-05-25T18:33:37.550Z</time>
      </trkpt>
      <trkpt lat="48.84145" lon="2.37302">
        <ele>85.1</ele>
        <time>2015-05-25T18:33:38.567Z</time>
      </trkpt>
      <trkpt lat="48.8414" lon="2.37307">
        <ele>85.3</ele>
        <time>2015-05-25T18:33:40.619Z</time>
      </trkpt>
      <trkpt lat="48.84137" lon="2.37313">
        <ele>85</ele>
        <time>2015-05-25T18:33:41.579Z</time>
      </trkpt>
      <trkpt lat="48.84134" lon="2.37318">
        <ele>84.9</ele>
        <time>2015-05-25T18:33:42.516Z</time>
      </trkpt>
      <trkpt lat="48.8413" lon="2.37324">
        <ele>84.7</ele>
        <time>2015-05-25T18:33:43.524Z</time>
      </trkpt>
      <trkpt lat="48.84126" lon="2.3733">
        <ele>84.6</ele>
        <time>2015-05-25T18:33:44.692Z</time>
      </trkpt>
      <trkpt lat="48.84122" lon="2.37335">
        <ele>84.5</ele>
        <time>2015-05-25T18:33:45.520Z</time>
      </trkpt>
      <trkpt lat="48.84116" lon="2.37344">
        <ele>84.5</ele>
        <time>2015-05-25T18:33:47.523Z</time>
      </trkpt>
      <trkpt lat="48.84111" lon="2.37349">
        <ele>84.3</ele>
        <time>2015-05-25T18:33:48.548Z</time>
      </trkpt>
      <trkpt lat="48.84105" lon="2.37357">
        <ele>84.1</ele>
        <time>2015-05-25T18:33:50.582Z</time>
      </trkpt>
      <trkpt lat="48.84103" lon="2.3736">
        <ele>84.3</ele>
        <time>2015-05-25T18:33:51.592Z</time>
      </trkpt>
      <trkpt lat="48.84099" lon="2.3737">
        <ele>85</ele>
        <time>2015-05-25T18:33:55.547Z</time>
      </trkpt>
      <trkpt lat="48.84097" lon="2.37373">
        <ele>85</ele>
        <time>2015-05-25T18:33:56.557Z</time>
      </trkpt>
      <trkpt lat="48.84091" lon="2.37381">
        <ele>85.3</ele>
        <time>2015-05-25T18:33:57.943Z</time>
      </trkpt>
      <trkpt lat="48.84089" lon="2.37383">
        <ele>85.4</ele>
        <time>2015-05-25T18:34:00.583Z</time>
      </trkpt>
      <trkpt lat="48.84083" lon="2.37394">
        <ele>85.7</ele>
        <time>2015-05-25T18:34:03.508Z</time>
      </trkpt>
      <trkpt lat="48.84082" lon="2.37397">
        <ele>85.7</ele>
        <time>2015-05-25T18:34:04.506Z</time>
      </trkpt>
      <trkpt lat="48.84075" lon="2.37406">
        <ele>86</ele>
        <time>2015-05-25T18:34:08.680Z</time>
      </trkpt>
      <trkpt lat="48.84073" lon="2.37408">
        <ele>86</ele>
        <time>2015-05-25T18:34:09.565Z</time>
      </trkpt>
      <trkpt lat="48.84068" lon="2.37414">
        <ele>86.2</ele>
        <time>2015-05-25T18:34:13.177Z</time>
      </trkpt>
      <trkpt lat="48.84067" lon="2.37418">
        <ele>86.2</ele>
        <time>2015-05-25T18:34:13.523Z</time>
      </trkpt>
      <trkpt lat="48.84063" lon="2.37428">
        <ele>86.2</ele>
        <time>2015-05-25T18:34:15.545Z</time>
      </trkpt>
      <trkpt lat="48.84062" lon="2.37434">
        <ele>86.1</ele>
        <time>2015-05-25T18:34:16.563Z</time>
      </trkpt>
      <trkpt lat="48.84059" lon="2.37443">
        <ele>85.8</ele>
        <time>2015-05-25T18:34:18.578Z</time>
      </trkpt>
      <trkpt lat="48.84057" lon="2.37448">
        <ele>85.8</ele>
        <time>2015-05-25T18:34:19.590Z</time>
      </trkpt>
      <trkpt lat="48.84054" lon="2.37453">
        <ele>85.8</ele>
        <time>2015-05-25T18:34:20.522Z</time>
      </trkpt>
      <trkpt lat="48.84051" lon="2.37459">
        <ele>85.8</ele>
        <time>2015-05-25T18:34:21.542Z</time>
      </trkpt>
      <trkpt lat="48.84045" lon="2.37466">
        <ele>85.6</ele>
        <time>2015-05-25T18:34:23.574Z</time>
      </trkpt>
      <trkpt lat="48.84041" lon="2.37469">
        <ele>85.6</ele>
        <time>2015-05-25T18:34:24.631Z</time>
      </trkpt>
      <trkpt lat="48.84037" lon="2.37471">
        <ele>85.6</ele>
        <time>2015-05-25T18:34:25.556Z</time>
      </trkpt>
      <trkpt lat="48.84032" lon="2.37473">
        <ele>85.6</ele>
        <time>2015-05-25T18:34:26.569Z</time>
      </trkpt>
      <trkpt lat="48.84025" lon="2.37478">
        <ele>86</ele>
        <time>2015-05-25T18:34:28.439Z</time>
      </trkpt>
      <trkpt lat="48.84015" lon="2.37481">
        <ele>86.3</ele>
        <time>2015-05-25T18:34:28.490Z</time>
      </trkpt>
      <trkpt lat="48.84008" lon="2.37484">
        <ele>86.4</ele>
        <time>2015-05-25T18:34:29.516Z</time>
      </trkpt>
      <trkpt lat="48.84003" lon="2.37487">
        <ele>86.3</ele>
        <time>2015-05-25T18:34:30.538Z</time>
      </trkpt>
      <trkpt lat="48.83996" lon="2.37493">
        <ele>86.2</ele>
        <time>2015-05-25T18:34:33.515Z</time>
      </trkpt>
      <trkpt lat="48.83992" lon="2.37496">
        <ele>86.2</ele>
        <time>2015-05-25T18:34:33.575Z</time>
      </trkpt>
      <trkpt lat="48.83986" lon="2.37502">
        <ele>86.2</ele>
        <time>2015-05-25T18:34:35.733Z</time>
      </trkpt>
      <trkpt lat="48.83983" lon="2.37505">
        <ele>86.3</ele>
        <time>2015-05-25T18:34:36.627Z</time>
      </trkpt>
      <trkpt lat="48.83979" lon="2.37508">
        <ele>86.1</ele>
        <time>2015-05-25T18:34:38.617Z</time>
      </trkpt>
      <trkpt lat="48.83972" lon="2.37515">
        <ele>86.2</ele>
        <time>2015-05-25T18:34:39.545Z</time>
      </trkpt>
      <trkpt lat="48.83966" lon="2.37523">
        <ele>86.8</ele>
        <time>2015-05-25T18:34:41.594Z</time>
      </trkpt>
      <trkpt lat="48.83963" lon="2.37527">
        <ele>86.9</ele>
        <time>2015-05-25T18:34:42.653Z</time>
      </trkpt>
      <trkpt lat="48.83958" lon="2.37534">
        <ele>86.8</ele>
        <time>2015-05-25T18:34:44.588Z</time>
      </trkpt>
      <trkpt lat="48.83954" lon="2.37539">
        <ele>86.8</ele>
        <time>2015-05-25T18:34:45.734Z</time>
      </trkpt>
      <trkpt lat="48.83951" lon="2.37544">
        <ele>86.8</ele>
        <time>2015-05-25T18:34:46.581Z</time>
      </trkpt>
      <trkpt lat="48.83948" lon="2.3755">
        <ele>86.8</ele>
        <time>2015-05-25T18:34:47.593Z</time>
      </trkpt>
      <trkpt lat="48.83922" lon="2.37582">
        <ele>84.5</ele>
        <time>2015-05-25T18:34:54.607Z</time>
      </trkpt>
      <trkpt lat="48.83914" lon="2.37589">
        <ele>84.7</ele>
        <time>2015-05-25T18:34:56.521Z</time>
      </trkpt>
      <trkpt lat="48.83911" lon="2.37594">
        <ele>84.9</ele>
        <time>2015-05-25T18:34:57.584Z</time>
      </trkpt>
      <trkpt lat="48.83905" lon="2.376">
        <ele>84.8</ele>
        <time>2015-05-25T18:34:59.526Z</time>
      </trkpt>
      <trkpt lat="48.83903" lon="2.37602">
        <ele>85</ele>
        <time>2015-05-25T18:35:00.565Z</time>
      </trkpt>
      <trkpt lat="48.83896" lon="2.37611">
        <ele>86.4</ele>
        <time>2015-05-25T18:35:04.524Z</time>
      </trkpt>
      <trkpt lat="48.83895" lon="2.37612">
        <ele>86.6</ele>
        <time>2015-05-25T18:35:05.535Z</time>
      </trkpt>
      <trkpt lat="48.83896" lon="2.37611">
        <ele>86.3</ele>
        <time>2015-05-25T18:35:06.576Z</time>
      </trkpt>
      <trkpt lat="48.83896" lon="2.37608">
        <ele>86.2</ele>
        <time>2015-05-25T18:35:07.590Z</time>
      </trkpt>
      <trkpt lat="48.83896" lon="2.37606">
        <ele>86.3</ele>
        <time>2015-05-25T18:35:08.482Z</time>
      </trkpt>
      <trkpt lat="48.83895" lon="2.37604">
        <ele>87.4</ele>
        <time>2015-05-25T18:35:09.518Z</time>
      </trkpt>
      <trkpt lat="48.83887" lon="2.37606">
        <ele>91</ele>
        <time>2015-05-25T18:35:14.526Z</time>
      </trkpt>
      <trkpt lat="48.83885" lon="2.37607">
        <ele>91.1</ele>
        <time>2015-05-25T18:35:15.551Z</time>
      </trkpt>
      <trkpt lat="48.83876" lon="2.37608">
        <ele>91.6</ele>
        <time>2015-05-25T18:35:19.590Z</time>
      </trkpt>
      <trkpt lat="48.83875" lon="2.37607">
        <ele>91.9</ele>
        <time>2015-05-25T18:35:20.611Z</time>
      </trkpt>
      <trkpt lat="48.83867" lon="2.37601">
        <ele>92.4</ele>
        <time>2015-05-25T18:35:28.717Z</time>
      </trkpt>
      <trkpt lat="48.83866" lon="2.376">
        <ele>92.5</ele>
        <time>2015-05-25T18:35:29.617Z</time>
      </trkpt>
      <trkpt lat="48.83858" lon="2.37597">
        <ele>91.6</ele>
        <time>2015-05-25T18:35:34.587Z</time>
      </trkpt>
      <trkpt lat="48.83856" lon="2.37597">
        <ele>91.7</ele>
        <time>2015-05-25T18:35:35.595Z</time>
      </trkpt>
      <trkpt lat="48.83848" lon="2.37598">
        <ele>91.7</ele>
        <time>2015-05-25T18:35:38.803Z</time>
      </trkpt>
      <trkpt lat="48.83844" lon="2.37599">
        <ele>91.7</ele>
        <time>2015-05-25T18:35:39.569Z</time>
      </trkpt>
      <trkpt lat="48.83838" lon="2.37602">
        <ele>91.9</ele>
        <time>2015-05-25T18:35:41.604Z</time>
      </trkpt>
      <trkpt lat="48.83835" lon="2.37604">
        <ele>91.9</ele>
        <time>2015-05-25T18:35:42.667Z</time>
      </trkpt>
      <trkpt lat="48.83829" lon="2.37608">
        <ele>92.1</ele>
        <time>2015-05-25T18:35:44.609Z</time>
      </trkpt>
      <trkpt lat="48.83826" lon="2.3761">
        <ele>92.1</ele>
        <time>2015-05-25T18:35:45.568Z</time>
      </trkpt>
      <trkpt lat="48.83819" lon="2.37617">
        <ele>92</ele>
        <time>2015-05-25T18:35:47.522Z</time>
      </trkpt>
      <trkpt lat="48.83816" lon="2.37621">
        <ele>91.8</ele>
        <time>2015-05-25T18:35:48.619Z</time>
      </trkpt>
      <trkpt lat="48.83808" lon="2.37627">
        <ele>91.7</ele>
        <time>2015-05-25T18:35:50.538Z</time>
      </trkpt>
      <trkpt lat="48.83805" lon="2.37629">
        <ele>91.7</ele>
        <time>2015-05-25T18:35:51.619Z</time>
      </trkpt>
      <trkpt lat="48.83799" lon="2.37638">
        <ele>91.5</ele>
        <time>2015-05-25T18:35:54.563Z</time>
      </trkpt>
      <trkpt lat="48.83795" lon="2.3764">
        <ele>91.5</ele>
        <time>2015-05-25T18:35:55.581Z</time>
      </trkpt>
      <trkpt lat="48.83789" lon="2.37646">
        <ele>91.4</ele>
        <time>2015-05-25T18:35:58.023Z</time>
      </trkpt>
      <trkpt lat="48.83785" lon="2.37648">
        <ele>91.2</ele>
        <time>2015-05-25T18:35:58.537Z</time>
      </trkpt>
      <trkpt lat="48.83781" lon="2.37651">
        <ele>91.1</ele>
        <time>2015-05-25T18:35:59.559Z</time>
      </trkpt>
      <trkpt lat="48.83777" lon="2.37655">
        <ele>91.3</ele>
        <time>2015-05-25T18:36:00.569Z</time>
      </trkpt>
      <trkpt lat="48.83772" lon="2.37661">
        <ele>91</ele>
        <time>2015-05-25T18:36:01.596Z</time>
      </trkpt>
      <trkpt lat="48.83768" lon="2.37665">
        <ele>91.1</ele>
        <time>2015-05-25T18:36:02.514Z</time>
      </trkpt>
      <trkpt lat="48.83763" lon="2.37668">
        <ele>91.3</ele>
        <time>2015-05-25T18:36:03.516Z</time>
      </trkpt>
      <trkpt lat="48.83759" lon="2.37672">
        <ele>91.5</ele>
        <time>2015-05-25T18:36:04.521Z</time>
      </trkpt>
      <trkpt lat="48.83755" lon="2.37675">
        <ele>91.7</ele>
        <time>2015-05-25T18:36:05.528Z</time>
      </trkpt>
      <trkpt lat="48.83751" lon="2.3768">
        <ele>91.7</ele>
        <time>2015-05-25T18:36:06.540Z</time>
      </trkpt>
      <trkpt lat="48.83747" lon="2.37684">
        <ele>91.9</ele>
        <time>2015-05-25T18:36:08.214Z</time>
      </trkpt>
      <trkpt lat="48.83745" lon="2.3769">
        <ele>90.4</ele>
        <time>2015-05-25T18:36:08.585Z</time>
      </trkpt>
      <trkpt lat="48.83741" lon="2.37695">
        <ele>90.5</ele>
        <time>2015-05-25T18:36:09.520Z</time>
      </trkpt>
      <trkpt lat="48.83737" lon="2.377">
        <ele>90.7</ele>
        <time>2015-05-25T18:36:10.507Z</time>
      </trkpt>
      <trkpt lat="48.83733" lon="2.37705">
        <ele>90.7</ele>
        <time>2015-05-25T18:36:11.516Z</time>
      </trkpt>
      <trkpt lat="48.83729" lon="2.3771">
        <ele>90.7</ele>
        <time>2015-05-25T18:36:12.570Z</time>
      </trkpt>
      <trkpt lat="48.83726" lon="2.37715">
        <ele>90.9</ele>
        <time>2015-05-25T18:36:13.528Z</time>
      </trkpt>
      <trkpt lat="48.83722" lon="2.3772">
        <ele>90.9</ele>
        <time>2015-05-25T18:36:14.542Z</time>
      </trkpt>
      <trkpt lat="48.83718" lon="2.37725">
        <ele>90.9</ele>
        <time>2015-05-25T18:36:15.562Z</time>
      </trkpt>
      <trkpt lat="48.83713" lon="2.3773">
        <ele>91</ele>
        <time>2015-05-25T18:36:16.579Z</time>
      </trkpt>
      <trkpt lat="48.83709" lon="2.37734">
        <ele>91</ele>
        <time>2015-05-25T18:36:17.500Z</time>
      </trkpt>
      <trkpt lat="48.83705" lon="2.37739">
        <ele>91.1</ele>
        <time>2015-05-25T18:36:18.545Z</time>
      </trkpt>
      <trkpt lat="48.83701" lon="2.37744">
        <ele>91.2</ele>
        <time>2015-05-25T18:36:19.564Z</time>
      </trkpt>
      <trkpt lat="48.83697" lon="2.37749">
        <ele>91</ele>
        <time>2015-05-25T18:36:20.604Z</time>
      </trkpt>
      <trkpt lat="48.83693" lon="2.37754">
        <ele>90.8</ele>
        <time>2015-05-25T18:36:21.532Z</time>
      </trkpt>
      <trkpt lat="48.83689" lon="2.37759">
        <ele>90.6</ele>
        <time>2015-05-25T18:36:22.525Z</time>
      </trkpt>
      <trkpt lat="48.83686" lon="2.37763">
        <ele>90.6</ele>
        <time>2015-05-25T18:36:23.545Z</time>
      </trkpt>
      <trkpt lat="48.83682" lon="2.37768">
        <ele>90.6</ele>
        <time>2015-05-25T18:36:24.556Z</time>
      </trkpt>
      <trkpt lat="48.83679" lon="2.37773">
        <ele>90.4</ele>
        <time>2015-05-25T18:36:25.576Z</time>
      </trkpt>
      <trkpt lat="48.83676" lon="2.37778">
        <ele>90.2</ele>
        <time>2015-05-25T18:36:26.585Z</time>
      </trkpt>
      <trkpt lat="48.83672" lon="2.37783">
        <ele>90.1</ele>
        <time>2015-05-25T18:36:27.598Z</time>
      </trkpt>
      <trkpt lat="48.83668" lon="2.37787">
        <ele>89.9</ele>
        <time>2015-05-25T18:36:28.602Z</time>
      </trkpt>
      <trkpt lat="48.83663" lon="2.37791">
        <ele>89.8</ele>
        <time>2015-05-25T18:36:29.518Z</time>
      </trkpt>
      <trkpt lat="48.83659" lon="2.37795">
        <ele>89.8</ele>
        <time>2015-05-25T18:36:30.561Z</time>
      </trkpt>
      <trkpt lat="48.83654" lon="2.37799">
        <ele>89.7</ele>
        <time>2015-05-25T18:36:31.559Z</time>
      </trkpt>
      <trkpt lat="48.8365" lon="2.37804">
        <ele>89.5</ele>
        <time>2015-05-25T18:36:32.566Z</time>
      </trkpt>
      <trkpt lat="48.83645" lon="2.37809">
        <ele>89.4</ele>
        <time>2015-05-25T18:36:33.573Z</time>
      </trkpt>
      <trkpt lat="48.8364" lon="2.37815">
        <ele>89.3</ele>
        <time>2015-05-25T18:36:34.571Z</time>
      </trkpt>
      <trkpt lat="48.83636" lon="2.37821">
        <ele>89.2</ele>
        <time>2015-05-25T18:36:35.599Z</time>
      </trkpt>
      <trkpt lat="48.83632" lon="2.37826">
        <ele>89.2</ele>
        <time>2015-05-25T18:36:36.610Z</time>
      </trkpt>
      <trkpt lat="48.83629" lon="2.37831">
        <ele>89.4</ele>
        <time>2015-05-25T18:36:37.615Z</time>
      </trkpt>
      <trkpt lat="48.83624" lon="2.37837">
        <ele>89.9</ele>
        <time>2015-05-25T18:36:38.586Z</time>
      </trkpt>
      <trkpt lat="48.83619" lon="2.37843">
        <ele>90</ele>
        <time>2015-05-25T18:36:39.617Z</time>
      </trkpt>
      <trkpt lat="48.83615" lon="2.37849">
        <ele>90.5</ele>
        <time>2015-05-25T18:36:40.519Z</time>
      </trkpt>
      <trkpt lat="48.8361" lon="2.37854">
        <ele>90.9</ele>
        <time>2015-05-25T18:36:41.547Z</time>
      </trkpt>
      <trkpt lat="48.83605" lon="2.37861">
        <ele>91.3</ele>
        <time>2015-05-25T18:36:42.558Z</time>
      </trkpt>
      <trkpt lat="48.83602" lon="2.37868">
        <ele>91.5</ele>
        <time>2015-05-25T18:36:43.579Z</time>
      </trkpt>
      <trkpt lat="48.83598" lon="2.37875">
        <ele>91.7</ele>
        <time>2015-05-25T18:36:44.589Z</time>
      </trkpt>
      <trkpt lat="48.83594" lon="2.37882">
        <ele>92</ele>
        <time>2015-05-25T18:36:45.527Z</time>
      </trkpt>
      <trkpt lat="48.83591" lon="2.37887">
        <ele>92.3</ele>
        <time>2015-05-25T18:36:46.753Z</time>
      </trkpt>
      <trkpt lat="48.83587" lon="2.37891">
        <ele>92.4</ele>
        <time>2015-05-25T18:36:47.574Z</time>
      </trkpt>
      <trkpt lat="48.83584" lon="2.37897">
        <ele>92.6</ele>
        <time>2015-05-25T18:36:48.584Z</time>
      </trkpt>
      <trkpt lat="48.8358" lon="2.37902">
        <ele>93</ele>
        <time>2015-05-25T18:36:49.616Z</time>
      </trkpt>
      <trkpt lat="48.83576" lon="2.37908">
        <ele>93.2</ele>
        <time>2015-05-25T18:36:50.521Z</time>
      </trkpt>
      <trkpt lat="48.83572" lon="2.37913">
        <ele>93.2</ele>
        <time>2015-05-25T18:36:51.520Z</time>
      </trkpt>
      <trkpt lat="48.83567" lon="2.37919">
        <ele>92.7</ele>
        <time>2015-05-25T18:36:52.532Z</time>
      </trkpt>
      <trkpt lat="48.83563" lon="2.37924">
        <ele>92.9</ele>
        <time>2015-05-25T18:36:53.589Z</time>
      </trkpt>
      <trkpt lat="48.83558" lon="2.3793">
        <ele>92.9</ele>
        <time>2015-05-25T18:36:54.609Z</time>
      </trkpt>
      <trkpt lat="48.83554" lon="2.37936">
        <ele>92.7</ele>
        <time>2015-05-25T18:36:55.635Z</time>
      </trkpt>
      <trkpt lat="48.8355" lon="2.37942">
        <ele>92.6</ele>
        <time>2015-05-25T18:36:56.514Z</time>
      </trkpt>
      <trkpt lat="48.83546" lon="2.37947">
        <ele>92.7</ele>
        <time>2015-05-25T18:36:57.784Z</time>
      </trkpt>
      <trkpt lat="48.83542" lon="2.37953">
        <ele>92.6</ele>
        <time>2015-05-25T18:36:58.528Z</time>
      </trkpt>
      <trkpt lat="48.83538" lon="2.3796">
        <ele>92.4</ele>
        <time>2015-05-25T18:36:59.533Z</time>
      </trkpt>
      <trkpt lat="48.83534" lon="2.37966">
        <ele>92.3</ele>
        <time>2015-05-25T18:37:00.538Z</time>
      </trkpt>
      <trkpt lat="48.83529" lon="2.37972">
        <ele>92.3</ele>
        <time>2015-05-25T18:37:01.547Z</time>
      </trkpt>
      <trkpt lat="48.83525" lon="2.37978">
        <ele>92.1</ele>
        <time>2015-05-25T18:37:02.552Z</time>
      </trkpt>
      <trkpt lat="48.83521" lon="2.37983">
        <ele>91.8</ele>
        <time>2015-05-25T18:37:03.583Z</time>
      </trkpt>
      <trkpt lat="48.83516" lon="2.37987">
        <ele>91.2</ele>
        <time>2015-05-25T18:37:04.583Z</time>
      </trkpt>
      <trkpt lat="48.83512" lon="2.37992">
        <ele>90.7</ele>
        <time>2015-05-25T18:37:05.602Z</time>
      </trkpt>
      <trkpt lat="48.83509" lon="2.37998">
        <ele>90.9</ele>
        <time>2015-05-25T18:37:06.614Z</time>
      </trkpt>
      <trkpt lat="48.83505" lon="2.38003">
        <ele>90.7</ele>
        <time>2015-05-25T18:37:07.525Z</time>
      </trkpt>
      <trkpt lat="48.83501" lon="2.38008">
        <ele>90.7</ele>
        <time>2015-05-25T18:37:08.535Z</time>
      </trkpt>
      <trkpt lat="48.83497" lon="2.38012">
        <ele>90.6</ele>
        <time>2015-05-25T18:37:09.551Z</time>
      </trkpt>
      <trkpt lat="48.83493" lon="2.38017">
        <ele>90.5</ele>
        <time>2015-05-25T18:37:10.563Z</time>
      </trkpt>
      <trkpt lat="48.8349" lon="2.38021">
        <ele>90.5</ele>
        <time>2015-05-25T18:37:11.564Z</time>
      </trkpt>
      <trkpt lat="48.83486" lon="2.38025">
        <ele>90.6</ele>
        <time>2015-05-25T18:37:12.583Z</time>
      </trkpt>
      <trkpt lat="48.83479" lon="2.38035">
        <ele>90.6</ele>
        <time>2015-05-25T18:37:14.632Z</time>
      </trkpt>
      <trkpt lat="48.83476" lon="2.3804">
        <ele>90.6</ele>
        <time>2015-05-25T18:37:15.531Z</time>
      </trkpt>
      <trkpt lat="48.83472" lon="2.38044">
        <ele>90.6</ele>
        <time>2015-05-25T18:37:16.542Z</time>
      </trkpt>
      <trkpt lat="48.83468" lon="2.38048">
        <ele>90.4</ele>
        <time>2015-05-25T18:37:17.552Z</time>
      </trkpt>
      <trkpt lat="48.83464" lon="2.38052">
        <ele>90.1</ele>
        <time>2015-05-25T18:37:18.551Z</time>
      </trkpt>
      <trkpt lat="48.8346" lon="2.38057">
        <ele>90</ele>
        <time>2015-05-25T18:37:19.582Z</time>
      </trkpt>
      <trkpt lat="48.83456" lon="2.38061">
        <ele>89.9</ele>
        <time>2015-05-25T18:37:20.612Z</time>
      </trkpt>
      <trkpt lat="48.83453" lon="2.38066">
        <ele>89.8</ele>
        <time>2015-05-25T18:37:21.628Z</time>
      </trkpt>
      <trkpt lat="48.83449" lon="2.38071">
        <ele>89.7</ele>
        <time>2015-05-25T18:37:22.532Z</time>
      </trkpt>
      <trkpt lat="48.83445" lon="2.38076">
        <ele>89.9</ele>
        <time>2015-05-25T18:37:23.543Z</time>
      </trkpt>
      <trkpt lat="48.83441" lon="2.3808">
        <ele>89.9</ele>
        <time>2015-05-25T18:37:24.566Z</time>
      </trkpt>
      <trkpt lat="48.83436" lon="2.38085">
        <ele>89.9</ele>
        <time>2015-05-25T18:37:25.583Z</time>
      </trkpt>
      <trkpt lat="48.83432" lon="2.3809">
        <ele>90.1</ele>
        <time>2015-05-25T18:37:26.599Z</time>
      </trkpt>
      <trkpt lat="48.83428" lon="2.38096">
        <ele>90.1</ele>
        <time>2015-05-25T18:37:27.513Z</time>
      </trkpt>
      <trkpt lat="48.83425" lon="2.38101">
        <ele>90.2</ele>
        <time>2015-05-25T18:37:28.504Z</time>
      </trkpt>
      <trkpt lat="48.8342" lon="2.38107">
        <ele>90.6</ele>
        <time>2015-05-25T18:37:29.523Z</time>
      </trkpt>
      <trkpt lat="48.83416" lon="2.38112">
        <ele>90.8</ele>
        <time>2015-05-25T18:37:30.571Z</time>
      </trkpt>
      <trkpt lat="48.83413" lon="2.38117">
        <ele>90.9</ele>
        <time>2015-05-25T18:37:31.581Z</time>
      </trkpt>
      <trkpt lat="48.83409" lon="2.38121">
        <ele>90.9</ele>
        <time>2015-05-25T18:37:32.609Z</time>
      </trkpt>
      <trkpt lat="48.83406" lon="2.38126">
        <ele>90.7</ele>
        <time>2015-05-25T18:37:33.521Z</time>
      </trkpt>
      <trkpt lat="48.83403" lon="2.38131">
        <ele>90.4</ele>
        <time>2015-05-25T18:37:34.531Z</time>
      </trkpt>
      <trkpt lat="48.83399" lon="2.38136">
        <ele>90.4</ele>
        <time>2015-05-25T18:37:35.537Z</time>
      </trkpt>
      <trkpt lat="48.83395" lon="2.38142">
        <ele>90.3</ele>
        <time>2015-05-25T18:37:36.561Z</time>
      </trkpt>
      <trkpt lat="48.83391" lon="2.38147">
        <ele>90.2</ele>
        <time>2015-05-25T18:37:37.565Z</time>
      </trkpt>
      <trkpt lat="48.83387" lon="2.38152">
        <ele>90.4</ele>
        <time>2015-05-25T18:37:38.579Z</time>
      </trkpt>
      <trkpt lat="48.83383" lon="2.38157">
        <ele>90.3</ele>
        <time>2015-05-25T18:37:39.598Z</time>
      </trkpt>
      <trkpt lat="48.8338" lon="2.38161">
        <ele>90.1</ele>
        <time>2015-05-25T18:37:40.524Z</time>
      </trkpt>
      <trkpt lat="48.83376" lon="2.38166">
        <ele>90</ele>
        <time>2015-05-25T18:37:41.521Z</time>
      </trkpt>
      <trkpt lat="48.83373" lon="2.38171">
        <ele>89.9</ele>
        <time>2015-05-25T18:37:42.601Z</time>
      </trkpt>
      <trkpt lat="48.8337" lon="2.38175">
        <ele>89.6</ele>
        <time>2015-05-25T18:37:43.610Z</time>
      </trkpt>
      <trkpt lat="48.83364" lon="2.38184">
        <ele>89.4</ele>
        <time>2015-05-25T18:37:45.527Z</time>
      </trkpt>
      <trkpt lat="48.83361" lon="2.38187">
        <ele>89.5</ele>
        <time>2015-05-25T18:37:46.553Z</time>
      </trkpt>
      <trkpt lat="48.83356" lon="2.38195">
        <ele>89.2</ele>
        <time>2015-05-25T18:37:49.647Z</time>
      </trkpt>
      <trkpt lat="48.83354" lon="2.38197">
        <ele>90.3</ele>
        <time>2015-05-25T18:37:50.550Z</time>
      </trkpt>
      <trkpt lat="48.83353" lon="2.38198">
        <ele>89.8</ele>
        <time>2015-05-25T18:37:51.575Z</time>
      </trkpt>
      <trkpt lat="48.83354" lon="2.38197">
        <ele>88.7</ele>
        <time>2015-05-25T18:37:52.595Z</time>
      </trkpt>
      <trkpt lat="48.83355" lon="2.38197">
        <ele>87.9</ele>
        <time>2015-05-25T18:38:06.569Z</time>
      </trkpt>
      <trkpt lat="48.83354" lon="2.38198">
        <ele>87</ele>
        <time>2015-05-25T18:38:07.588Z</time>
      </trkpt>
      <trkpt lat="48.83347" lon="2.38206">
        <ele>86.5</ele>
        <time>2015-05-25T18:38:11.601Z</time>
      </trkpt>
      <trkpt lat="48.83345" lon="2.38209">
        <ele>86.4</ele>
        <time>2015-05-25T18:38:12.628Z</time>
      </trkpt>
      <trkpt lat="48.83339" lon="2.38217">
        <ele>86.2</ele>
        <time>2015-05-25T18:38:14.541Z</time>
      </trkpt>
      <trkpt lat="48.83336" lon="2.3822">
        <ele>86.1</ele>
        <time>2015-05-25T18:38:15.565Z</time>
      </trkpt>
      <trkpt lat="48.8333" lon="2.38227">
        <ele>86.1</ele>
        <time>2015-05-25T18:38:17.532Z</time>
      </trkpt>
      <trkpt lat="48.83326" lon="2.38231">
        <ele>86</ele>
        <time>2015-05-25T18:38:18.640Z</time>
      </trkpt>
      <trkpt lat="48.8332" lon="2.38238">
        <ele>85.9</ele>
        <time>2015-05-25T18:38:20.558Z</time>
      </trkpt>
      <trkpt lat="48.83316" lon="2.38242">
        <ele>85.9</ele>
        <time>2015-05-25T18:38:21.636Z</time>
      </trkpt>
      <trkpt lat="48.83312" lon="2.38245">
        <ele>85.7</ele>
        <time>2015-05-25T18:38:22.575Z</time>
      </trkpt>
      <trkpt lat="48.83308" lon="2.3825">
        <ele>85.6</ele>
        <time>2015-05-25T18:38:23.586Z</time>
      </trkpt>
      <trkpt lat="48.83304" lon="2.38253">
        <ele>85.3</ele>
        <time>2015-05-25T18:38:24.605Z</time>
      </trkpt>
      <trkpt lat="48.833" lon="2.38258">
        <ele>85.2</ele>
        <time>2015-05-25T18:38:25.625Z</time>
      </trkpt>
      <trkpt lat="48.83296" lon="2.38262">
        <ele>85</ele>
        <time>2015-05-25T18:38:26.534Z</time>
      </trkpt>
      <trkpt lat="48.83292" lon="2.38267">
        <ele>85</ele>
        <time>2015-05-25T18:38:27.527Z</time>
      </trkpt>
      <trkpt lat="48.83288" lon="2.38272">
        <ele>85</ele>
        <time>2015-05-25T18:38:28.538Z</time>
      </trkpt>
      <trkpt lat="48.83284" lon="2.38278">
        <ele>84.9</ele>
        <time>2015-05-25T18:38:29.543Z</time>
      </trkpt>
      <trkpt lat="48.8328" lon="2.38283">
        <ele>84.9</ele>
        <time>2015-05-25T18:38:30.564Z</time>
      </trkpt>
      <trkpt lat="48.83277" lon="2.38288">
        <ele>84.8</ele>
        <time>2015-05-25T18:38:31.593Z</time>
      </trkpt>
      <trkpt lat="48.83273" lon="2.38294">
        <ele>84.6</ele>
        <time>2015-05-25T18:38:32.586Z</time>
      </trkpt>
      <trkpt lat="48.83269" lon="2.38298">
        <ele>84.4</ele>
        <time>2015-05-25T18:38:33.605Z</time>
      </trkpt>
      <trkpt lat="48.83265" lon="2.38303">
        <ele>84.3</ele>
        <time>2015-05-25T18:38:34.530Z</time>
      </trkpt>
      <trkpt lat="48.83262" lon="2.38308">
        <ele>84.3</ele>
        <time>2015-05-25T18:38:35.531Z</time>
      </trkpt>
      <trkpt lat="48.83255" lon="2.38316">
        <ele>84.3</ele>
        <time>2015-05-25T18:38:37.574Z</time>
      </trkpt>
      <trkpt lat="48.83251" lon="2.3832">
        <ele>84.1</ele>
        <time>2015-05-25T18:38:38.716Z</time>
      </trkpt>
      <trkpt lat="48.83244" lon="2.38328">
        <ele>83.7</ele>
        <time>2015-05-25T18:38:40.539Z</time>
      </trkpt>
      <trkpt lat="48.8324" lon="2.38332">
        <ele>83.8</ele>
        <time>2015-05-25T18:38:41.542Z</time>
      </trkpt>
      <trkpt lat="48.83236" lon="2.38336">
        <ele>83.9</ele>
        <time>2015-05-25T18:38:42.580Z</time>
      </trkpt>
      <trkpt lat="48.83232" lon="2.38341">
        <ele>84</ele>
        <time>2015-05-25T18:38:43.571Z</time>
      </trkpt>
      <trkpt lat="48.83228" lon="2.38346">
        <ele>84.1</ele>
        <time>2015-05-25T18:38:45.101Z</time>
      </trkpt>
      <trkpt lat="48.83224" lon="2.38351">
        <ele>84.2</ele>
        <time>2015-05-25T18:38:45.537Z</time>
      </trkpt>
      <trkpt lat="48.83221" lon="2.38356">
        <ele>84.2</ele>
        <time>2015-05-25T18:38:46.533Z</time>
      </trkpt>
      <trkpt lat="48.83218" lon="2.38361">
        <ele>84.1</ele>
        <time>2015-05-25T18:38:47.555Z</time>
      </trkpt>
      <trkpt lat="48.83214" lon="2.38365">
        <ele>84.1</ele>
        <time>2015-05-25T18:38:48.625Z</time>
      </trkpt>
      <trkpt lat="48.8321" lon="2.38369">
        <ele>84.1</ele>
        <time>2015-05-25T18:38:49.631Z</time>
      </trkpt>
      <trkpt lat="48.83206" lon="2.38374">
        <ele>83.9</ele>
        <time>2015-05-25T18:38:50.499Z</time>
      </trkpt>
      <trkpt lat="48.83203" lon="2.38378">
        <ele>83.6</ele>
        <time>2015-05-25T18:38:51.542Z</time>
      </trkpt>
      <trkpt lat="48.83199" lon="2.38383">
        <ele>83.3</ele>
        <time>2015-05-25T18:38:52.860Z</time>
      </trkpt>
      <trkpt lat="48.83195" lon="2.38388">
        <ele>83.3</ele>
        <time>2015-05-25T18:38:53.615Z</time>
      </trkpt>
      <trkpt lat="48.83192" lon="2.38394">
        <ele>83.3</ele>
        <time>2015-05-25T18:38:54.599Z</time>
      </trkpt>
      <trkpt lat="48.83188" lon="2.38399">
        <ele>83</ele>
        <time>2015-05-25T18:38:55.643Z</time>
      </trkpt>
      <trkpt lat="48.83182" lon="2.38406">
        <ele>83</ele>
        <time>2015-05-25T18:38:57.932Z</time>
      </trkpt>
      <trkpt lat="48.83179" lon="2.3841">
        <ele>83.1</ele>
        <time>2015-05-25T18:38:58.564Z</time>
      </trkpt>
      <trkpt lat="48.83172" lon="2.38417">
        <ele>83.1</ele>
        <time>2015-05-25T18:39:00.617Z</time>
      </trkpt>
      <trkpt lat="48.83168" lon="2.38421">
        <ele>83</ele>
        <time>2015-05-25T18:39:01.621Z</time>
      </trkpt>
      <trkpt lat="48.83164" lon="2.38426">
        <ele>83</ele>
        <time>2015-05-25T18:39:03.007Z</time>
      </trkpt>
      <trkpt lat="48.83159" lon="2.3843">
        <ele>82.9</ele>
        <time>2015-05-25T18:39:03.533Z</time>
      </trkpt>
      <trkpt lat="48.83156" lon="2.38435">
        <ele>82.8</ele>
        <time>2015-05-25T18:39:04.557Z</time>
      </trkpt>
      <trkpt lat="48.83153" lon="2.3844">
        <ele>82.9</ele>
        <time>2015-05-25T18:39:05.566Z</time>
      </trkpt>
      <trkpt lat="48.83149" lon="2.38445">
        <ele>83</ele>
        <time>2015-05-25T18:39:06.584Z</time>
      </trkpt>
      <trkpt lat="48.83145" lon="2.3845">
        <ele>83</ele>
        <time>2015-05-25T18:39:07.597Z</time>
      </trkpt>
      <trkpt lat="48.83141" lon="2.38456">
        <ele>83</ele>
        <time>2015-05-25T18:39:08.632Z</time>
      </trkpt>
      <trkpt lat="48.83137" lon="2.38462">
        <ele>83.1</ele>
        <time>2015-05-25T18:39:09.526Z</time>
      </trkpt>
      <trkpt lat="48.83133" lon="2.38468">
        <ele>83.2</ele>
        <time>2015-05-25T18:39:10.544Z</time>
      </trkpt>
      <trkpt lat="48.83129" lon="2.38475">
        <ele>83.2</ele>
        <time>2015-05-25T18:39:11.552Z</time>
      </trkpt>
      <trkpt lat="48.83125" lon="2.38481">
        <ele>83.3</ele>
        <time>2015-05-25T18:39:13.158Z</time>
      </trkpt>
      <trkpt lat="48.83121" lon="2.38486">
        <ele>83.2</ele>
        <time>2015-05-25T18:39:13.574Z</time>
      </trkpt>
      <trkpt lat="48.83117" lon="2.38492">
        <ele>83.1</ele>
        <time>2015-05-25T18:39:14.590Z</time>
      </trkpt>
      <trkpt lat="48.83113" lon="2.38497">
        <ele>83.1</ele>
        <time>2015-05-25T18:39:15.629Z</time>
      </trkpt>
      <trkpt lat="48.83109" lon="2.38503">
        <ele>83</ele>
        <time>2015-05-25T18:39:16.521Z</time>
      </trkpt>
      <trkpt lat="48.83104" lon="2.38507">
        <ele>83</ele>
        <time>2015-05-25T18:39:17.529Z</time>
      </trkpt>
      <trkpt lat="48.83099" lon="2.38512">
        <ele>83.1</ele>
        <time>2015-05-25T18:39:18.545Z</time>
      </trkpt>
      <trkpt lat="48.83095" lon="2.38517">
        <ele>83.2</ele>
        <time>2015-05-25T18:39:19.553Z</time>
      </trkpt>
      <trkpt lat="48.83091" lon="2.38523">
        <ele>83.2</ele>
        <time>2015-05-25T18:39:20.581Z</time>
      </trkpt>
      <trkpt lat="48.83087" lon="2.38528">
        <ele>83.4</ele>
        <time>2015-05-25T18:39:21.588Z</time>
      </trkpt>
      <trkpt lat="48.83083" lon="2.38533">
        <ele>83.5</ele>
        <time>2015-05-25T18:39:22.591Z</time>
      </trkpt>
      <trkpt lat="48.83079" lon="2.38538">
        <ele>83.7</ele>
        <time>2015-05-25T18:39:23.601Z</time>
      </trkpt>
      <trkpt lat="48.83075" lon="2.38542">
        <ele>84</ele>
        <time>2015-05-25T18:39:24.609Z</time>
      </trkpt>
      <trkpt lat="48.8307" lon="2.38548">
        <ele>84.5</ele>
        <time>2015-05-25T18:39:25.614Z</time>
      </trkpt>
      <trkpt lat="48.83066" lon="2.38555">
        <ele>85.1</ele>
        <time>2015-05-25T18:39:26.525Z</time>
      </trkpt>
      <trkpt lat="48.83062" lon="2.3856">
        <ele>85.8</ele>
        <time>2015-05-25T18:39:27.535Z</time>
      </trkpt>
      <trkpt lat="48.83059" lon="2.38564">
        <ele>86.7</ele>
        <time>2015-05-25T18:39:28.556Z</time>
      </trkpt>
      <trkpt lat="48.83055" lon="2.38569">
        <ele>87.7</ele>
        <time>2015-05-25T18:39:29.568Z</time>
      </trkpt>
      <trkpt lat="48.83051" lon="2.38575">
        <ele>88.5</ele>
        <time>2015-05-25T18:39:30.575Z</time>
      </trkpt>
      <trkpt lat="48.83048" lon="2.38581">
        <ele>89.3</ele>
        <time>2015-05-25T18:39:31.587Z</time>
      </trkpt>
      <trkpt lat="48.83045" lon="2.38586">
        <ele>89.9</ele>
        <time>2015-05-25T18:39:32.491Z</time>
      </trkpt>
      <trkpt lat="48.83042" lon="2.3859">
        <ele>90.4</ele>
        <time>2015-05-25T18:39:33.515Z</time>
      </trkpt>
      <trkpt lat="48.83039" lon="2.38595">
        <ele>90.6</ele>
        <time>2015-05-25T18:39:34.515Z</time>
      </trkpt>
      <trkpt lat="48.83034" lon="2.38602">
        <ele>91.3</ele>
        <time>2015-05-25T18:39:35.530Z</time>
      </trkpt>
      <trkpt lat="48.83031" lon="2.38609">
        <ele>92</ele>
        <time>2015-05-25T18:39:36.544Z</time>
      </trkpt>
      <trkpt lat="48.83027" lon="2.38616">
        <ele>92.7</ele>
        <time>2015-05-25T18:39:37.553Z</time>
      </trkpt>
      <trkpt lat="48.83023" lon="2.3862">
        <ele>93.2</ele>
        <time>2015-05-25T18:39:38.570Z</time>
      </trkpt>
      <trkpt lat="48.83019" lon="2.38625">
        <ele>93.8</ele>
        <time>2015-05-25T18:39:39.579Z</time>
      </trkpt>
      <trkpt lat="48.83015" lon="2.38629">
        <ele>94.5</ele>
        <time>2015-05-25T18:39:40.587Z</time>
      </trkpt>
      <trkpt lat="48.83011" lon="2.38633">
        <ele>94.9</ele>
        <time>2015-05-25T18:39:41.592Z</time>
      </trkpt>
      <trkpt lat="48.83007" lon="2.38637">
        <ele>95.3</ele>
        <time>2015-05-25T18:39:42.608Z</time>
      </trkpt>
      <trkpt lat="48.83003" lon="2.38642">
        <ele>96</ele>
        <time>2015-05-25T18:39:43.613Z</time>
      </trkpt>
      <trkpt lat="48.82998" lon="2.38645">
        <ele>96.1</ele>
        <time>2015-05-25T18:39:44.615Z</time>
      </trkpt>
      <trkpt lat="48.82994" lon="2.38649">
        <ele>96.2</ele>
        <time>2015-05-25T18:39:45.638Z</time>
      </trkpt>
      <trkpt lat="48.82989" lon="2.38652">
        <ele>96.4</ele>
        <time>2015-05-25T18:39:47.026Z</time>
      </trkpt>
      <trkpt lat="48.82984" lon="2.38655">
        <ele>96.7</ele>
        <time>2015-05-25T18:39:47.545Z</time>
      </trkpt>
      <trkpt lat="48.8298" lon="2.38659">
        <ele>96.8</ele>
        <time>2015-05-25T18:39:48.572Z</time>
      </trkpt>
      <trkpt lat="48.82976" lon="2.38663">
        <ele>97</ele>
        <time>2015-05-25T18:39:49.583Z</time>
      </trkpt>
      <trkpt lat="48.82971" lon="2.38667">
        <ele>96.9</ele>
        <time>2015-05-25T18:39:50.594Z</time>
      </trkpt>
      <trkpt lat="48.82964" lon="2.38671">
        <ele>96.3</ele>
        <time>2015-05-25T18:39:51.602Z</time>
      </trkpt>
      <trkpt lat="48.82958" lon="2.38675">
        <ele>95.7</ele>
        <time>2015-05-25T18:39:52.652Z</time>
      </trkpt>
      <trkpt lat="48.82952" lon="2.38681">
        <ele>95.2</ele>
        <time>2015-05-25T18:39:53.635Z</time>
      </trkpt>
      <trkpt lat="48.82946" lon="2.38685">
        <ele>94.8</ele>
        <time>2015-05-25T18:39:54.641Z</time>
      </trkpt>
      <trkpt lat="48.8294" lon="2.38689">
        <ele>94.3</ele>
        <time>2015-05-25T18:39:55.656Z</time>
      </trkpt>
      <trkpt lat="48.82934" lon="2.38693">
        <ele>94</ele>
        <time>2015-05-25T18:39:56.539Z</time>
      </trkpt>
      <trkpt lat="48.82929" lon="2.38698">
        <ele>93.9</ele>
        <time>2015-05-25T18:39:57.549Z</time>
      </trkpt>
      <trkpt lat="48.82923" lon="2.38701">
        <ele>93.7</ele>
        <time>2015-05-25T18:39:58.588Z</time>
      </trkpt>
      <trkpt lat="48.82918" lon="2.38706">
        <ele>93.6</ele>
        <time>2015-05-25T18:39:59.599Z</time>
      </trkpt>
      <trkpt lat="48.82912" lon="2.38708">
        <ele>93.2</ele>
        <time>2015-05-25T18:40:00.631Z</time>
      </trkpt>
      <trkpt lat="48.82906" lon="2.38711">
        <ele>93.2</ele>
        <time>2015-05-25T18:40:01.623Z</time>
      </trkpt>
      <trkpt lat="48.82901" lon="2.38714">
        <ele>93.3</ele>
        <time>2015-05-25T18:40:02.550Z</time>
      </trkpt>
      <trkpt lat="48.82897" lon="2.38717">
        <ele>93.1</ele>
        <time>2015-05-25T18:40:03.548Z</time>
      </trkpt>
      <trkpt lat="48.82892" lon="2.38721">
        <ele>92.7</ele>
        <time>2015-05-25T18:40:04.486Z</time>
      </trkpt>
      <trkpt lat="48.82887" lon="2.38726">
        <ele>92.4</ele>
        <time>2015-05-25T18:40:05.492Z</time>
      </trkpt>
      <trkpt lat="48.82882" lon="2.38732">
        <ele>92.1</ele>
        <time>2015-05-25T18:40:06.540Z</time>
      </trkpt>
      <trkpt lat="48.82876" lon="2.38736">
        <ele>91.7</ele>
        <time>2015-05-25T18:40:07.550Z</time>
      </trkpt>
      <trkpt lat="48.82871" lon="2.38742">
        <ele>91.6</ele>
        <time>2015-05-25T18:40:08.561Z</time>
      </trkpt>
      <trkpt lat="48.82866" lon="2.38747">
        <ele>91.6</ele>
        <time>2015-05-25T18:40:09.563Z</time>
      </trkpt>
      <trkpt lat="48.82861" lon="2.38752">
        <ele>91.6</ele>
        <time>2015-05-25T18:40:10.577Z</time>
      </trkpt>
      <trkpt lat="48.82857" lon="2.38757">
        <ele>91.3</ele>
        <time>2015-05-25T18:40:11.590Z</time>
      </trkpt>
      <trkpt lat="48.82852" lon="2.38762">
        <ele>91.2</ele>
        <time>2015-05-25T18:40:12.607Z</time>
      </trkpt>
      <trkpt lat="48.82847" lon="2.38767">
        <ele>91.2</ele>
        <time>2015-05-25T18:40:13.623Z</time>
      </trkpt>
      <trkpt lat="48.82843" lon="2.38772">
        <ele>91</ele>
        <time>2015-05-25T18:40:14.518Z</time>
      </trkpt>
      <trkpt lat="48.82838" lon="2.38778">
        <ele>90.9</ele>
        <time>2015-05-25T18:40:15.527Z</time>
      </trkpt>
      <trkpt lat="48.82816" lon="2.3881">
        <ele>89.6</ele>
        <time>2015-05-25T18:40:20.599Z</time>
      </trkpt>
      <trkpt lat="48.82812" lon="2.38816">
        <ele>89.1</ele>
        <time>2015-05-25T18:40:21.526Z</time>
      </trkpt>
      <trkpt lat="48.82809" lon="2.38821">
        <ele>89</ele>
        <time>2015-05-25T18:40:22.520Z</time>
      </trkpt>
      <trkpt lat="48.82805" lon="2.38831">
        <ele>88.2</ele>
        <time>2015-05-25T18:40:24.553Z</time>
      </trkpt>
      <trkpt lat="48.82802" lon="2.38835">
        <ele>88.2</ele>
        <time>2015-05-25T18:40:25.568Z</time>
      </trkpt>
      <trkpt lat="48.82797" lon="2.38844">
        <ele>87.9</ele>
        <time>2015-05-25T18:40:27.592Z</time>
      </trkpt>
      <trkpt lat="48.82794" lon="2.38848">
        <ele>87.9</ele>
        <time>2015-05-25T18:40:28.604Z</time>
      </trkpt>
      <trkpt lat="48.82789" lon="2.38856">
        <ele>88.3</ele>
        <time>2015-05-25T18:40:30.621Z</time>
      </trkpt>
      <trkpt lat="48.82787" lon="2.3886">
        <ele>88.4</ele>
        <time>2015-05-25T18:40:31.634Z</time>
      </trkpt>
      <trkpt lat="48.82782" lon="2.38866">
        <ele>88.5</ele>
        <time>2015-05-25T18:40:33.534Z</time>
      </trkpt>
      <trkpt lat="48.8278" lon="2.3887">
        <ele>88.5</ele>
        <time>2015-05-25T18:40:34.551Z</time>
      </trkpt>
      <trkpt lat="48.82775" lon="2.38875">
        <ele>88.2</ele>
        <time>2015-05-25T18:40:36.598Z</time>
      </trkpt>
      <trkpt lat="48.82773" lon="2.38878">
        <ele>88.3</ele>
        <time>2015-05-25T18:40:37.611Z</time>
      </trkpt>
      <trkpt lat="48.82768" lon="2.38885">
        <ele>88.5</ele>
        <time>2015-05-25T18:40:39.557Z</time>
      </trkpt>
      <trkpt lat="48.82765" lon="2.38889">
        <ele>88.5</ele>
        <time>2015-05-25T18:40:40.573Z</time>
      </trkpt>
      <trkpt lat="48.8276" lon="2.38897">
        <ele>88.7</ele>
        <time>2015-05-25T18:40:42.619Z</time>
      </trkpt>
      <trkpt lat="48.82758" lon="2.38901">
        <ele>88.9</ele>
        <time>2015-05-25T18:40:43.627Z</time>
      </trkpt>
      <trkpt lat="48.82752" lon="2.38909">
        <ele>88.9</ele>
        <time>2015-05-25T18:40:45.534Z</time>
      </trkpt>
      <trkpt lat="48.82749" lon="2.38913">
        <ele>89</ele>
        <time>2015-05-25T18:40:46.552Z</time>
      </trkpt>
      <trkpt lat="48.82742" lon="2.3892">
        <ele>88.7</ele>
        <time>2015-05-25T18:40:48.610Z</time>
      </trkpt>
      <trkpt lat="48.82739" lon="2.38924">
        <ele>88.5</ele>
        <time>2015-05-25T18:40:49.619Z</time>
      </trkpt>
      <trkpt lat="48.82735" lon="2.38929">
        <ele>88.3</ele>
        <time>2015-05-25T18:40:50.525Z</time>
      </trkpt>
      <trkpt lat="48.82731" lon="2.38933">
        <ele>88.1</ele>
        <time>2015-05-25T18:40:51.549Z</time>
      </trkpt>
      <trkpt lat="48.82728" lon="2.38938">
        <ele>87.9</ele>
        <time>2015-05-25T18:40:52.568Z</time>
      </trkpt>
      <trkpt lat="48.82724" lon="2.38944">
        <ele>87.8</ele>
        <time>2015-05-25T18:40:53.575Z</time>
      </trkpt>
      <trkpt lat="48.8272" lon="2.38949">
        <ele>87.8</ele>
        <time>2015-05-25T18:40:54.586Z</time>
      </trkpt>
      <trkpt lat="48.82715" lon="2.38954">
        <ele>87.9</ele>
        <time>2015-05-25T18:40:55.599Z</time>
      </trkpt>
      <trkpt lat="48.82711" lon="2.3896">
        <ele>87.8</ele>
        <time>2015-05-25T18:40:56.608Z</time>
      </trkpt>
      <trkpt lat="48.82707" lon="2.38965">
        <ele>87.9</ele>
        <time>2015-05-25T18:40:57.612Z</time>
      </trkpt>
      <trkpt lat="48.82702" lon="2.3897">
        <ele>87.9</ele>
        <time>2015-05-25T18:40:58.539Z</time>
      </trkpt>
      <trkpt lat="48.82697" lon="2.38972">
        <ele>87.9</ele>
        <time>2015-05-25T18:40:59.538Z</time>
      </trkpt>
      <trkpt lat="48.82691" lon="2.38974">
        <ele>87.7</ele>
        <time>2015-05-25T18:41:00.557Z</time>
      </trkpt>
      <trkpt lat="48.82678" lon="2.38976">
        <ele>87.9</ele>
        <time>2015-05-25T18:41:02.598Z</time>
      </trkpt>
      <trkpt lat="48.82666" lon="2.3898">
        <ele>88</ele>
        <time>2015-05-25T18:41:04.508Z</time>
      </trkpt>
      <trkpt lat="48.82662" lon="2.38985">
        <ele>87.8</ele>
        <time>2015-05-25T18:41:05.536Z</time>
      </trkpt>
      <trkpt lat="48.82658" lon="2.38991">
        <ele>87.7</ele>
        <time>2015-05-25T18:41:06.565Z</time>
      </trkpt>
      <trkpt lat="48.82657" lon="2.39">
        <ele>87.7</ele>
        <time>2015-05-25T18:41:07.532Z</time>
      </trkpt>
      <trkpt lat="48.82653" lon="2.39007">
        <ele>87.5</ele>
        <time>2015-05-25T18:41:08.534Z</time>
      </trkpt>
      <trkpt lat="48.8265" lon="2.39014">
        <ele>87.6</ele>
        <time>2015-05-25T18:41:09.546Z</time>
      </trkpt>
      <trkpt lat="48.82646" lon="2.39022">
        <ele>88.1</ele>
        <time>2015-05-25T18:41:10.580Z</time>
      </trkpt>
      <trkpt lat="48.82642" lon="2.39029">
        <ele>88.4</ele>
        <time>2015-05-25T18:41:11.502Z</time>
      </trkpt>
      <trkpt lat="48.82638" lon="2.39035">
        <ele>88.7</ele>
        <time>2015-05-25T18:41:12.571Z</time>
      </trkpt>
      <trkpt lat="48.82634" lon="2.39041">
        <ele>88.9</ele>
        <time>2015-05-25T18:41:13.595Z</time>
      </trkpt>
      <trkpt lat="48.8263" lon="2.39047">
        <ele>89.1</ele>
        <time>2015-05-25T18:41:14.610Z</time>
      </trkpt>
      <trkpt lat="48.82627" lon="2.39053">
        <ele>89</ele>
        <time>2015-05-25T18:41:15.620Z</time>
      </trkpt>
      <trkpt lat="48.82624" lon="2.39059">
        <ele>89.1</ele>
        <time>2015-05-25T18:41:16.549Z</time>
      </trkpt>
      <trkpt lat="48.8262" lon="2.39068">
        <ele>88.9</ele>
        <time>2015-05-25T18:41:18.573Z</time>
      </trkpt>
      <trkpt lat="48.82618" lon="2.39071">
        <ele>88.7</ele>
        <time>2015-05-25T18:41:19.606Z</time>
      </trkpt>
      <trkpt lat="48.82616" lon="2.39077">
        <ele>89.4</ele>
        <time>2015-05-25T18:41:22.550Z</time>
      </trkpt>
      <trkpt lat="48.82615" lon="2.39079">
        <ele>89.4</ele>
        <time>2015-05-25T18:41:23.578Z</time>
      </trkpt>
      <trkpt lat="48.82615" lon="2.3908">
        <ele>89.6</ele>
        <time>2015-05-25T18:41:27.526Z</time>
      </trkpt>
      <trkpt lat="48.82614" lon="2.39082">
        <ele>90</ele>
        <time>2015-05-25T18:41:28.572Z</time>
      </trkpt>
      <trkpt lat="48.82609" lon="2.39086">
        <ele>89.9</ele>
        <time>2015-05-25T18:41:31.656Z</time>
      </trkpt>
      <trkpt lat="48.82606" lon="2.39089">
        <ele>89.7</ele>
        <time>2015-05-25T18:41:32.545Z</time>
      </trkpt>
      <trkpt lat="48.826" lon="2.39097">
        <ele>89.7</ele>
        <time>2015-05-25T18:41:34.566Z</time>
      </trkpt>
      <trkpt lat="48.82596" lon="2.39102">
        <ele>89.6</ele>
        <time>2015-05-25T18:41:35.521Z</time>
      </trkpt>
      <trkpt lat="48.82592" lon="2.39106">
        <ele>89.5</ele>
        <time>2015-05-25T18:41:36.546Z</time>
      </trkpt>
      <trkpt lat="48.82588" lon="2.39112">
        <ele>89.5</ele>
        <time>2015-05-25T18:41:37.576Z</time>
      </trkpt>
      <trkpt lat="48.82584" lon="2.39117">
        <ele>89.5</ele>
        <time>2015-05-25T18:41:38.518Z</time>
      </trkpt>
      <trkpt lat="48.8258" lon="2.39122">
        <ele>89.5</ele>
        <time>2015-05-25T18:41:39.522Z</time>
      </trkpt>
      <trkpt lat="48.82575" lon="2.39128">
        <ele>89.4</ele>
        <time>2015-05-25T18:41:40.535Z</time>
      </trkpt>
      <trkpt lat="48.82571" lon="2.39135">
        <ele>89.2</ele>
        <time>2015-05-25T18:41:41.549Z</time>
      </trkpt>
      <trkpt lat="48.82566" lon="2.39142">
        <ele>88.7</ele>
        <time>2015-05-25T18:41:42.578Z</time>
      </trkpt>
      <trkpt lat="48.82561" lon="2.39148">
        <ele>88.4</ele>
        <time>2015-05-25T18:41:43.593Z</time>
      </trkpt>
      <trkpt lat="48.82556" lon="2.39155">
        <ele>88.3</ele>
        <time>2015-05-25T18:41:44.601Z</time>
      </trkpt>
      <trkpt lat="48.8255" lon="2.39163">
        <ele>88.3</ele>
        <time>2015-05-25T18:41:45.550Z</time>
      </trkpt>
      <trkpt lat="48.82544" lon="2.39171">
        <ele>88.1</ele>
        <time>2015-05-25T18:41:46.511Z</time>
      </trkpt>
      <trkpt lat="48.82539" lon="2.39179">
        <ele>88</ele>
        <time>2015-05-25T18:41:47.524Z</time>
      </trkpt>
      <trkpt lat="48.82533" lon="2.39188">
        <ele>88</ele>
        <time>2015-05-25T18:41:48.533Z</time>
      </trkpt>
      <trkpt lat="48.82528" lon="2.39196">
        <ele>87.9</ele>
        <time>2015-05-25T18:41:49.554Z</time>
      </trkpt>
      <trkpt lat="48.82522" lon="2.39205">
        <ele>87.9</ele>
        <time>2015-05-25T18:41:50.567Z</time>
      </trkpt>
      <trkpt lat="48.82517" lon="2.39212">
        <ele>88</ele>
        <time>2015-05-25T18:41:51.575Z</time>
      </trkpt>
      <trkpt lat="48.82512" lon="2.3922">
        <ele>87.9</ele>
        <time>2015-05-25T18:41:52.591Z</time>
      </trkpt>
      <trkpt lat="48.82507" lon="2.39227">
        <ele>87.9</ele>
        <time>2015-05-25T18:41:53.490Z</time>
      </trkpt>
      <trkpt lat="48.82503" lon="2.39235">
        <ele>87.9</ele>
        <time>2015-05-25T18:41:54.521Z</time>
      </trkpt>
      <trkpt lat="48.82498" lon="2.39243">
        <ele>87.8</ele>
        <time>2015-05-25T18:41:55.552Z</time>
      </trkpt>
      <trkpt lat="48.82493" lon="2.39251">
        <ele>87.8</ele>
        <time>2015-05-25T18:41:56.572Z</time>
      </trkpt>
      <trkpt lat="48.82489" lon="2.39258">
        <ele>88</ele>
        <time>2015-05-25T18:41:57.671Z</time>
      </trkpt>
      <trkpt lat="48.82484" lon="2.39265">
        <ele>88</ele>
        <time>2015-05-25T18:41:58.524Z</time>
      </trkpt>
      <trkpt lat="48.82479" lon="2.39272">
        <ele>88.1</ele>
        <time>2015-05-25T18:41:59.524Z</time>
      </trkpt>
      <trkpt lat="48.82475" lon="2.3928">
        <ele>88</ele>
        <time>2015-05-25T18:42:00.528Z</time>
      </trkpt>
      <trkpt lat="48.8247" lon="2.39287">
        <ele>88</ele>
        <time>2015-05-25T18:42:01.546Z</time>
      </trkpt>
      <trkpt lat="48.82466" lon="2.39296">
        <ele>87.6</ele>
        <time>2015-05-25T18:42:02.543Z</time>
      </trkpt>
      <trkpt lat="48.82461" lon="2.39304">
        <ele>87.3</ele>
        <time>2015-05-25T18:42:03.555Z</time>
      </trkpt>
      <trkpt lat="48.82457" lon="2.39312">
        <ele>87.3</ele>
        <time>2015-05-25T18:42:04.568Z</time>
      </trkpt>
      <trkpt lat="48.82451" lon="2.3932">
        <ele>87.2</ele>
        <time>2015-05-25T18:42:05.574Z</time>
      </trkpt>
      <trkpt lat="48.82446" lon="2.39329">
        <ele>86.7</ele>
        <time>2015-05-25T18:42:06.596Z</time>
      </trkpt>
      <trkpt lat="48.8244" lon="2.39337">
        <ele>86</ele>
        <time>2015-05-25T18:42:07.612Z</time>
      </trkpt>
      <trkpt lat="48.82435" lon="2.39346">
        <ele>84.7</ele>
        <time>2015-05-25T18:42:08.521Z</time>
      </trkpt>
      <trkpt lat="48.82429" lon="2.39355">
        <ele>83.9</ele>
        <time>2015-05-25T18:42:09.530Z</time>
      </trkpt>
      <trkpt lat="48.82423" lon="2.39363">
        <ele>83.1</ele>
        <time>2015-05-25T18:42:10.527Z</time>
      </trkpt>
      <trkpt lat="48.82417" lon="2.39371">
        <ele>83</ele>
        <time>2015-05-25T18:42:11.544Z</time>
      </trkpt>
      <trkpt lat="48.82411" lon="2.3938">
        <ele>83.2</ele>
        <time>2015-05-25T18:42:12.568Z</time>
      </trkpt>
      <trkpt lat="48.82406" lon="2.3939">
        <ele>83.1</ele>
        <time>2015-05-25T18:42:13.570Z</time>
      </trkpt>
      <trkpt lat="48.82399" lon="2.39398">
        <ele>83.4</ele>
        <time>2015-05-25T18:42:14.575Z</time>
      </trkpt>
      <trkpt lat="48.82393" lon="2.39407">
        <ele>83.2</ele>
        <time>2015-05-25T18:42:15.589Z</time>
      </trkpt>
      <trkpt lat="48.82389" lon="2.39416">
        <ele>82.7</ele>
        <time>2015-05-25T18:42:16.606Z</time>
      </trkpt>
      <trkpt lat="48.82384" lon="2.39426">
        <ele>82.5</ele>
        <time>2015-05-25T18:42:17.518Z</time>
      </trkpt>
      <trkpt lat="48.82379" lon="2.39434">
        <ele>81.7</ele>
        <time>2015-05-25T18:42:18.550Z</time>
      </trkpt>
      <trkpt lat="48.82373" lon="2.39442">
        <ele>81.3</ele>
        <time>2015-05-25T18:42:19.553Z</time>
      </trkpt>
      <trkpt lat="48.82367" lon="2.39449">
        <ele>80.7</ele>
        <time>2015-05-25T18:42:20.604Z</time>
      </trkpt>
      <trkpt lat="48.82362" lon="2.39457">
        <ele>80.6</ele>
        <time>2015-05-25T18:42:21.618Z</time>
      </trkpt>
      <trkpt lat="48.82356" lon="2.39464">
        <ele>80.8</ele>
        <time>2015-05-25T18:42:22.536Z</time>
      </trkpt>
      <trkpt lat="48.82351" lon="2.39473">
        <ele>80.9</ele>
        <time>2015-05-25T18:42:23.537Z</time>
      </trkpt>
      <trkpt lat="48.82345" lon="2.39483">
        <ele>80</ele>
        <time>2015-05-25T18:42:24.546Z</time>
      </trkpt>
      <trkpt lat="48.82339" lon="2.39492">
        <ele>79.6</ele>
        <time>2015-05-25T18:42:25.561Z</time>
      </trkpt>
      <trkpt lat="48.82333" lon="2.395">
        <ele>80.4</ele>
        <time>2015-05-25T18:42:26.565Z</time>
      </trkpt>
      <trkpt lat="48.82328" lon="2.39509">
        <ele>80.2</ele>
        <time>2015-05-25T18:42:27.600Z</time>
      </trkpt>
      <trkpt lat="48.82322" lon="2.39518">
        <ele>80.5</ele>
        <time>2015-05-25T18:42:28.619Z</time>
      </trkpt>
      <trkpt lat="48.82316" lon="2.39526">
        <ele>80.4</ele>
        <time>2015-05-25T18:42:29.557Z</time>
      </trkpt>
      <trkpt lat="48.8231" lon="2.39534">
        <ele>80.6</ele>
        <time>2015-05-25T18:42:30.529Z</time>
      </trkpt>
      <trkpt lat="48.82303" lon="2.39543">
        <ele>80.8</ele>
        <time>2015-05-25T18:42:31.604Z</time>
      </trkpt>
      <trkpt lat="48.82296" lon="2.39552">
        <ele>81</ele>
        <time>2015-05-25T18:42:32.598Z</time>
      </trkpt>
      <trkpt lat="48.8229" lon="2.39561">
        <ele>80.9</ele>
        <time>2015-05-25T18:42:33.578Z</time>
      </trkpt>
      <trkpt lat="48.82284" lon="2.39571">
        <ele>80.7</ele>
        <time>2015-05-25T18:42:34.550Z</time>
      </trkpt>
      <trkpt lat="48.82278" lon="2.3958">
        <ele>80.8</ele>
        <time>2015-05-25T18:42:35.616Z</time>
      </trkpt>
      <trkpt lat="48.82272" lon="2.3959">
        <ele>80.5</ele>
        <time>2015-05-25T18:42:36.650Z</time>
      </trkpt>
      <trkpt lat="48.82266" lon="2.396">
        <ele>80.2</ele>
        <time>2015-05-25T18:42:37.547Z</time>
      </trkpt>
      <trkpt lat="48.8226" lon="2.3961">
        <ele>80</ele>
        <time>2015-05-25T18:42:38.561Z</time>
      </trkpt>
      <trkpt lat="48.82255" lon="2.3962">
        <ele>79.9</ele>
        <time>2015-05-25T18:42:39.572Z</time>
      </trkpt>
      <trkpt lat="48.82249" lon="2.3963">
        <ele>79.6</ele>
        <time>2015-05-25T18:42:40.603Z</time>
      </trkpt>
      <trkpt lat="48.82243" lon="2.3964">
        <ele>79.6</ele>
        <time>2015-05-25T18:42:41.597Z</time>
      </trkpt>
      <trkpt lat="48.82237" lon="2.39651">
        <ele>79.4</ele>
        <time>2015-05-25T18:42:42.610Z</time>
      </trkpt>
      <trkpt lat="48.82231" lon="2.39661">
        <ele>79.4</ele>
        <time>2015-05-25T18:42:43.617Z</time>
      </trkpt>
      <trkpt lat="48.82226" lon="2.39671">
        <ele>79.1</ele>
        <time>2015-05-25T18:42:44.524Z</time>
      </trkpt>
      <trkpt lat="48.8222" lon="2.39681">
        <ele>79.2</ele>
        <time>2015-05-25T18:42:45.528Z</time>
      </trkpt>
      <trkpt lat="48.82215" lon="2.39691">
        <ele>79.9</ele>
        <time>2015-05-25T18:42:46.555Z</time>
      </trkpt>
      <trkpt lat="48.82209" lon="2.39702">
        <ele>80.3</ele>
        <time>2015-05-25T18:42:47.563Z</time>
      </trkpt>
      <trkpt lat="48.82203" lon="2.39712">
        <ele>80.8</ele>
        <time>2015-05-25T18:42:48.578Z</time>
      </trkpt>
      <trkpt lat="48.82197" lon="2.39722">
        <ele>81.1</ele>
        <time>2015-05-25T18:42:49.585Z</time>
      </trkpt>
      <trkpt lat="48.82191" lon="2.39732">
        <ele>80.8</ele>
        <time>2015-05-25T18:42:50.592Z</time>
      </trkpt>
      <trkpt lat="48.82186" lon="2.39743">
        <ele>80.6</ele>
        <time>2015-05-25T18:42:51.622Z</time>
      </trkpt>
      <trkpt lat="48.8218" lon="2.39753">
        <ele>80.9</ele>
        <time>2015-05-25T18:42:52.524Z</time>
      </trkpt>
      <trkpt lat="48.82175" lon="2.39764">
        <ele>81.1</ele>
        <time>2015-05-25T18:42:53.534Z</time>
      </trkpt>
      <trkpt lat="48.8217" lon="2.39775">
        <ele>80.9</ele>
        <time>2015-05-25T18:42:54.552Z</time>
      </trkpt>
      <trkpt lat="48.82165" lon="2.39786">
        <ele>81</ele>
        <time>2015-05-25T18:42:55.561Z</time>
      </trkpt>
      <trkpt lat="48.8216" lon="2.39797">
        <ele>80.7</ele>
        <time>2015-05-25T18:42:56.578Z</time>
      </trkpt>
      <trkpt lat="48.82155" lon="2.39808">
        <ele>80.7</ele>
        <time>2015-05-25T18:42:57.601Z</time>
      </trkpt>
      <trkpt lat="48.8215" lon="2.39819">
        <ele>80.8</ele>
        <time>2015-05-25T18:42:58.631Z</time>
      </trkpt>
      <trkpt lat="48.82146" lon="2.3983">
        <ele>81</ele>
        <time>2015-05-25T18:42:59.623Z</time>
      </trkpt>
      <trkpt lat="48.82142" lon="2.39841">
        <ele>81.2</ele>
        <time>2015-05-25T18:43:00.530Z</time>
      </trkpt>
      <trkpt lat="48.82138" lon="2.39853">
        <ele>81.4</ele>
        <time>2015-05-25T18:43:01.574Z</time>
      </trkpt>
      <trkpt lat="48.82133" lon="2.39863">
        <ele>81</ele>
        <time>2015-05-25T18:43:02.589Z</time>
      </trkpt>
      <trkpt lat="48.82129" lon="2.39874">
        <ele>81</ele>
        <time>2015-05-25T18:43:03.594Z</time>
      </trkpt>
      <trkpt lat="48.82124" lon="2.39884">
        <ele>81.3</ele>
        <time>2015-05-25T18:43:04.520Z</time>
      </trkpt>
      <trkpt lat="48.8212" lon="2.39893">
        <ele>81.3</ele>
        <time>2015-05-25T18:43:05.538Z</time>
      </trkpt>
      <trkpt lat="48.82115" lon="2.39904">
        <ele>81.6</ele>
        <time>2015-05-25T18:43:06.548Z</time>
      </trkpt>
      <trkpt lat="48.82111" lon="2.39913">
        <ele>81.3</ele>
        <time>2015-05-25T18:43:07.547Z</time>
      </trkpt>
      <trkpt lat="48.82106" lon="2.39922">
        <ele>81.2</ele>
        <time>2015-05-25T18:43:08.557Z</time>
      </trkpt>
      <trkpt lat="48.82102" lon="2.39931">
        <ele>81.3</ele>
        <time>2015-05-25T18:43:09.582Z</time>
      </trkpt>
      <trkpt lat="48.82097" lon="2.39942">
        <ele>81.5</ele>
        <time>2015-05-25T18:43:10.524Z</time>
      </trkpt>
      <trkpt lat="48.82093" lon="2.39952">
        <ele>81.6</ele>
        <time>2015-05-25T18:43:11.525Z</time>
      </trkpt>
      <trkpt lat="48.82089" lon="2.39962">
        <ele>81.6</ele>
        <time>2015-05-25T18:43:12.584Z</time>
      </trkpt>
      <trkpt lat="48.82085" lon="2.39972">
        <ele>81.8</ele>
        <time>2015-05-25T18:43:13.620Z</time>
      </trkpt>
      <trkpt lat="48.8208" lon="2.39982">
        <ele>81.9</ele>
        <time>2015-05-25T18:43:14.521Z</time>
      </trkpt>
      <trkpt lat="48.82077" lon="2.39993">
        <ele>81.9</ele>
        <time>2015-05-25T18:43:15.540Z</time>
      </trkpt>
      <trkpt lat="48.82074" lon="2.40003">
        <ele>82.2</ele>
        <time>2015-05-25T18:43:16.552Z</time>
      </trkpt>
      <trkpt lat="48.8207" lon="2.40014">
        <ele>82.2</ele>
        <time>2015-05-25T18:43:17.552Z</time>
      </trkpt>
      <trkpt lat="48.82067" lon="2.40025">
        <ele>82.2</ele>
        <time>2015-05-25T18:43:18.568Z</time>
      </trkpt>
      <trkpt lat="48.82064" lon="2.40036">
        <ele>82.8</ele>
        <time>2015-05-25T18:43:19.566Z</time>
      </trkpt>
      <trkpt lat="48.8206" lon="2.40047">
        <ele>83</ele>
        <time>2015-05-25T18:43:20.584Z</time>
      </trkpt>
      <trkpt lat="48.82057" lon="2.40057">
        <ele>83.4</ele>
        <time>2015-05-25T18:43:21.599Z</time>
      </trkpt>
      <trkpt lat="48.82054" lon="2.40069">
        <ele>83.8</ele>
        <time>2015-05-25T18:43:22.518Z</time>
      </trkpt>
      <trkpt lat="48.8205" lon="2.40079">
        <ele>83.9</ele>
        <time>2015-05-25T18:43:23.529Z</time>
      </trkpt>
      <trkpt lat="48.82047" lon="2.4009">
        <ele>84.1</ele>
        <time>2015-05-25T18:43:24.623Z</time>
      </trkpt>
      <trkpt lat="48.82044" lon="2.40099">
        <ele>84</ele>
        <time>2015-05-25T18:43:25.640Z</time>
      </trkpt>
      <trkpt lat="48.8204" lon="2.40108">
        <ele>84</ele>
        <time>2015-05-25T18:43:26.568Z</time>
      </trkpt>
      <trkpt lat="48.82036" lon="2.40117">
        <ele>83.9</ele>
        <time>2015-05-25T18:43:27.587Z</time>
      </trkpt>
      <trkpt lat="48.82031" lon="2.40127">
        <ele>83.9</ele>
        <time>2015-05-25T18:43:28.513Z</time>
      </trkpt>
      <trkpt lat="48.82027" lon="2.40136">
        <ele>83.7</ele>
        <time>2015-05-25T18:43:29.529Z</time>
      </trkpt>
      <trkpt lat="48.82023" lon="2.40147">
        <ele>83.6</ele>
        <time>2015-05-25T18:43:30.589Z</time>
      </trkpt>
      <trkpt lat="48.8202" lon="2.40158">
        <ele>84.3</ele>
        <time>2015-05-25T18:43:31.607Z</time>
      </trkpt>
      <trkpt lat="48.82016" lon="2.40168">
        <ele>84.4</ele>
        <time>2015-05-25T18:43:32.544Z</time>
      </trkpt>
      <trkpt lat="48.82013" lon="2.40179">
        <ele>84.3</ele>
        <time>2015-05-25T18:43:33.537Z</time>
      </trkpt>
      <trkpt lat="48.8201" lon="2.40191">
        <ele>84.1</ele>
        <time>2015-05-25T18:43:34.567Z</time>
      </trkpt>
      <trkpt lat="48.82008" lon="2.40204">
        <ele>83.1</ele>
        <time>2015-05-25T18:43:35.575Z</time>
      </trkpt>
      <trkpt lat="48.82005" lon="2.40215">
        <ele>81.9</ele>
        <time>2015-05-25T18:43:36.587Z</time>
      </trkpt>
      <trkpt lat="48.82002" lon="2.40227">
        <ele>81.8</ele>
        <time>2015-05-25T18:43:37.593Z</time>
      </trkpt>
      <trkpt lat="48.81999" lon="2.40238">
        <ele>81.9</ele>
        <time>2015-05-25T18:43:38.604Z</time>
      </trkpt>
      <trkpt lat="48.81996" lon="2.4025">
        <ele>82</ele>
        <time>2015-05-25T18:43:39.604Z</time>
      </trkpt>
      <trkpt lat="48.81992" lon="2.40261">
        <ele>81.9</ele>
        <time>2015-05-25T18:43:40.533Z</time>
      </trkpt>
      <trkpt lat="48.81988" lon="2.40272">
        <ele>81.6</ele>
        <time>2015-05-25T18:43:41.550Z</time>
      </trkpt>
      <trkpt lat="48.81985" lon="2.40284">
        <ele>81.1</ele>
        <time>2015-05-25T18:43:42.569Z</time>
      </trkpt>
      <trkpt lat="48.81981" lon="2.40295">
        <ele>81.4</ele>
        <time>2015-05-25T18:43:43.577Z</time>
      </trkpt>
      <trkpt lat="48.81978" lon="2.40306">
        <ele>81.8</ele>
        <time>2015-05-25T18:43:44.587Z</time>
      </trkpt>
      <trkpt lat="48.81976" lon="2.40316">
        <ele>81.3</ele>
        <time>2015-05-25T18:43:45.603Z</time>
      </trkpt>
      <trkpt lat="48.81972" lon="2.40327">
        <ele>82.1</ele>
        <time>2015-05-25T18:43:46.508Z</time>
      </trkpt>
      <trkpt lat="48.81969" lon="2.40337">
        <ele>82.7</ele>
        <time>2015-05-25T18:43:47.526Z</time>
      </trkpt>
      <trkpt lat="48.81966" lon="2.40348">
        <ele>82.6</ele>
        <time>2015-05-25T18:43:48.555Z</time>
      </trkpt>
      <trkpt lat="48.81963" lon="2.40359">
        <ele>82.6</ele>
        <time>2015-05-25T18:43:49.559Z</time>
      </trkpt>
      <trkpt lat="48.8196" lon="2.4037">
        <ele>83.1</ele>
        <time>2015-05-25T18:43:50.556Z</time>
      </trkpt>
      <trkpt lat="48.81957" lon="2.4038">
        <ele>83.2</ele>
        <time>2015-05-25T18:43:51.570Z</time>
      </trkpt>
      <trkpt lat="48.81954" lon="2.40391">
        <ele>82.9</ele>
        <time>2015-05-25T18:43:52.531Z</time>
      </trkpt>
      <trkpt lat="48.81952" lon="2.40402">
        <ele>82.8</ele>
        <time>2015-05-25T18:43:53.528Z</time>
      </trkpt>
      <trkpt lat="48.8195" lon="2.40413">
        <ele>82.3</ele>
        <time>2015-05-25T18:43:54.567Z</time>
      </trkpt>
      <trkpt lat="48.81948" lon="2.40424">
        <ele>81.5</ele>
        <time>2015-05-25T18:43:55.650Z</time>
      </trkpt>
      <trkpt lat="48.81946" lon="2.40435">
        <ele>81.3</ele>
        <time>2015-05-25T18:43:56.532Z</time>
      </trkpt>
      <trkpt lat="48.81945" lon="2.40443">
        <ele>80.5</ele>
        <time>2015-05-25T18:43:57.544Z</time>
      </trkpt>
      <trkpt lat="48.81946" lon="2.40452">
        <ele>80.5</ele>
        <time>2015-05-25T18:43:58.560Z</time>
      </trkpt>
      <trkpt lat="48.81946" lon="2.4046">
        <ele>80.5</ele>
        <time>2015-05-25T18:43:59.570Z</time>
      </trkpt>
      <trkpt lat="48.81944" lon="2.40469">
        <ele>80.6</ele>
        <time>2015-05-25T18:44:00.586Z</time>
      </trkpt>
      <trkpt lat="48.81942" lon="2.40478">
        <ele>80.8</ele>
        <time>2015-05-25T18:44:01.599Z</time>
      </trkpt>
      <trkpt lat="48.81939" lon="2.40487">
        <ele>80.9</ele>
        <time>2015-05-25T18:44:02.611Z</time>
      </trkpt>
      <trkpt lat="48.81936" lon="2.40497">
        <ele>80.7</ele>
        <time>2015-05-25T18:44:03.543Z</time>
      </trkpt>
      <trkpt lat="48.81933" lon="2.40507">
        <ele>80.8</ele>
        <time>2015-05-25T18:44:04.526Z</time>
      </trkpt>
      <trkpt lat="48.81931" lon="2.40517">
        <ele>81</ele>
        <time>2015-05-25T18:44:05.569Z</time>
      </trkpt>
      <trkpt lat="48.81928" lon="2.40527">
        <ele>80.9</ele>
        <time>2015-05-25T18:44:06.629Z</time>
      </trkpt>
      <trkpt lat="48.81925" lon="2.40537">
        <ele>80.7</ele>
        <time>2015-05-25T18:44:07.634Z</time>
      </trkpt>
      <trkpt lat="48.81922" lon="2.40548">
        <ele>80.9</ele>
        <time>2015-05-25T18:44:08.535Z</time>
      </trkpt>
      <trkpt lat="48.81919" lon="2.4056">
        <ele>80.8</ele>
        <time>2015-05-25T18:44:09.853Z</time>
      </trkpt>
      <trkpt lat="48.81916" lon="2.40572">
        <ele>80.8</ele>
        <time>2015-05-25T18:44:10.494Z</time>
      </trkpt>
      <trkpt lat="48.81912" lon="2.40583">
        <ele>80.9</ele>
        <time>2015-05-25T18:44:11.510Z</time>
      </trkpt>
      <trkpt lat="48.81909" lon="2.40594">
        <ele>81.3</ele>
        <time>2015-05-25T18:44:12.558Z</time>
      </trkpt>
      <trkpt lat="48.81907" lon="2.40605">
        <ele>81.6</ele>
        <time>2015-05-25T18:44:13.575Z</time>
      </trkpt>
      <trkpt lat="48.81903" lon="2.40616">
        <ele>81.5</ele>
        <time>2015-05-25T18:44:14.510Z</time>
      </trkpt>
      <trkpt lat="48.819" lon="2.40626">
        <ele>81.4</ele>
        <time>2015-05-25T18:44:15.525Z</time>
      </trkpt>
      <trkpt lat="48.81897" lon="2.40636">
        <ele>81.6</ele>
        <time>2015-05-25T18:44:16.542Z</time>
      </trkpt>
      <trkpt lat="48.81895" lon="2.40647">
        <ele>81.7</ele>
        <time>2015-05-25T18:44:17.543Z</time>
      </trkpt>
      <trkpt lat="48.81892" lon="2.40658">
        <ele>82</ele>
        <time>2015-05-25T18:44:18.551Z</time>
      </trkpt>
      <trkpt lat="48.8189" lon="2.40668">
        <ele>82.4</ele>
        <time>2015-05-25T18:44:19.561Z</time>
      </trkpt>
      <trkpt lat="48.81887" lon="2.40678">
        <ele>82.4</ele>
        <time>2015-05-25T18:44:20.572Z</time>
      </trkpt>
      <trkpt lat="48.81884" lon="2.40688">
        <ele>82.4</ele>
        <time>2015-05-25T18:44:21.579Z</time>
      </trkpt>
      <trkpt lat="48.81881" lon="2.40699">
        <ele>82.6</ele>
        <time>2015-05-25T18:44:22.542Z</time>
      </trkpt>
      <trkpt lat="48.81878" lon="2.40708">
        <ele>82.5</ele>
        <time>2015-05-25T18:44:23.517Z</time>
      </trkpt>
      <trkpt lat="48.81876" lon="2.40717">
        <ele>82.3</ele>
        <time>2015-05-25T18:44:24.573Z</time>
      </trkpt>
      <trkpt lat="48.81874" lon="2.40725">
        <ele>81.9</ele>
        <time>2015-05-25T18:44:25.593Z</time>
      </trkpt>
      <trkpt lat="48.81871" lon="2.40733">
        <ele>81.3</ele>
        <time>2015-05-25T18:44:26.611Z</time>
      </trkpt>
      <trkpt lat="48.81869" lon="2.40743">
        <ele>80.8</ele>
        <time>2015-05-25T18:44:27.521Z</time>
      </trkpt>
      <trkpt lat="48.81867" lon="2.40753">
        <ele>80.7</ele>
        <time>2015-05-25T18:44:28.540Z</time>
      </trkpt>
      <trkpt lat="48.81866" lon="2.40763">
        <ele>81.1</ele>
        <time>2015-05-25T18:44:29.530Z</time>
      </trkpt>
      <trkpt lat="48.81864" lon="2.40773">
        <ele>81.3</ele>
        <time>2015-05-25T18:44:30.551Z</time>
      </trkpt>
      <trkpt lat="48.81862" lon="2.40783">
        <ele>81.5</ele>
        <time>2015-05-25T18:44:31.571Z</time>
      </trkpt>
      <trkpt lat="48.8186" lon="2.40791">
        <ele>80.6</ele>
        <time>2015-05-25T18:44:32.570Z</time>
      </trkpt>
      <trkpt lat="48.81859" lon="2.40798">
        <ele>80.5</ele>
        <time>2015-05-25T18:44:33.579Z</time>
      </trkpt>
      <trkpt lat="48.81858" lon="2.40785">
        <ele>81.4</ele>
        <time>2015-05-25T18:44:43.547Z</time>
      </trkpt>
      <trkpt lat="48.81856" lon="2.4078">
        <ele>81.7</ele>
        <time>2015-05-25T18:44:44.554Z</time>
      </trkpt>
      <trkpt lat="48.81856" lon="2.40772">
        <ele>82.1</ele>
        <time>2015-05-25T18:44:46.589Z</time>
      </trkpt>
      <trkpt lat="48.81854" lon="2.40766">
        <ele>82.7</ele>
        <time>2015-05-25T18:44:47.604Z</time>
      </trkpt>
      <trkpt lat="48.81854" lon="2.40756">
        <ele>83.1</ele>
        <time>2015-05-25T18:44:49.513Z</time>
      </trkpt>
      <trkpt lat="48.81853" lon="2.40751">
        <ele>83.5</ele>
        <time>2015-05-25T18:44:50.538Z</time>
      </trkpt>
      <trkpt lat="48.81856" lon="2.40743">
        <ele>84.4</ele>
        <time>2015-05-25T18:47:20.540Z</time>
      </trkpt>
      <trkpt lat="48.81869" lon="2.40754">
        <ele>89.2</ele>
        <time>2015-05-25T18:47:21.585Z</time>
      </trkpt>
      <trkpt lat="48.8187" lon="2.40763">
        <ele>88.9</ele>
        <time>2015-05-25T18:47:25.571Z</time>
      </trkpt>
      <trkpt lat="48.81871" lon="2.40768">
        <ele>89.3</ele>
        <time>2015-05-25T18:47:26.602Z</time>
      </trkpt>
      <trkpt lat="48.81871" lon="2.40777">
        <ele>89.2</ele>
        <time>2015-05-25T18:47:28.520Z</time>
      </trkpt>
      <trkpt lat="48.81872" lon="2.40781">
        <ele>88.8</ele>
        <time>2015-05-25T18:47:29.535Z</time>
      </trkpt>
      <trkpt lat="48.81867" lon="2.40791">
        <ele>87.8</ele>
        <time>2015-05-25T18:47:34.513Z</time>
      </trkpt>
      <trkpt lat="48.81865" lon="2.40791">
        <ele>87.8</ele>
        <time>2015-05-25T18:47:35.606Z</time>
      </trkpt>
      <trkpt lat="48.81867" lon="2.40782">
        <ele>85.4</ele>
        <time>2015-05-25T18:48:21.567Z</time>
      </trkpt>
      <trkpt lat="48.81869" lon="2.40779">
        <ele>85.5</ele>
        <time>2015-05-25T18:48:22.583Z</time>
      </trkpt>
      <trkpt lat="48.81872" lon="2.4077">
        <ele>86.1</ele>
        <time>2015-05-25T18:48:24.529Z</time>
      </trkpt>
      <trkpt lat="48.81873" lon="2.40765">
        <ele>86.1</ele>
        <time>2015-05-25T18:48:25.566Z</time>
      </trkpt>
      <trkpt lat="48.81867" lon="2.40772">
        <ele>86.1</ele>
        <time>2015-05-25T18:48:32.490Z</time>
      </trkpt>
      <trkpt lat="48.81866" lon="2.40776">
        <ele>86.1</ele>
        <time>2015-05-25T18:48:33.505Z</time>
      </trkpt>
      <trkpt lat="48.81864" lon="2.40789">
        <ele>86.3</ele>
        <time>2015-05-25T18:48:35.535Z</time>
      </trkpt>
      <trkpt lat="48.81862" lon="2.40796">
        <ele>86.3</ele>
        <time>2015-05-25T18:48:36.555Z</time>
      </trkpt>
      <trkpt lat="48.8186" lon="2.40803">
        <ele>86.3</ele>
        <time>2015-05-25T18:48:37.522Z</time>
      </trkpt>
      <trkpt lat="48.81858" lon="2.40809">
        <ele>86.1</ele>
        <time>2015-05-25T18:48:38.535Z</time>
      </trkpt>
      <trkpt lat="48.81857" lon="2.40816">
        <ele>86.1</ele>
        <time>2015-05-25T18:48:39.553Z</time>
      </trkpt>
      <trkpt lat="48.81855" lon="2.40823">
        <ele>86</ele>
        <time>2015-05-25T18:48:40.574Z</time>
      </trkpt>
      <trkpt lat="48.81852" lon="2.4083">
        <ele>85.7</ele>
        <time>2015-05-25T18:48:41.586Z</time>
      </trkpt>
      <trkpt lat="48.81851" lon="2.40839">
        <ele>85.4</ele>
        <time>2015-05-25T18:48:42.597Z</time>
      </trkpt>
      <trkpt lat="48.81849" lon="2.40847">
        <ele>85</ele>
        <time>2015-05-25T18:48:43.614Z</time>
      </trkpt>
      <trkpt lat="48.81847" lon="2.40854">
        <ele>84.9</ele>
        <time>2015-05-25T18:48:44.505Z</time>
      </trkpt>
      <trkpt lat="48.81845" lon="2.40861">
        <ele>84.6</ele>
        <time>2015-05-25T18:48:45.520Z</time>
      </trkpt>
      <trkpt lat="48.81844" lon="2.40868">
        <ele>84.7</ele>
        <time>2015-05-25T18:48:46.527Z</time>
      </trkpt>
      <trkpt lat="48.81843" lon="2.40875">
        <ele>84.9</ele>
        <time>2015-05-25T18:48:47.549Z</time>
      </trkpt>
      <trkpt lat="48.81841" lon="2.40882">
        <ele>85</ele>
        <time>2015-05-25T18:48:48.562Z</time>
      </trkpt>
      <trkpt lat="48.81839" lon="2.40889">
        <ele>85.3</ele>
        <time>2015-05-25T18:48:49.607Z</time>
      </trkpt>
      <trkpt lat="48.81837" lon="2.40895">
        <ele>85.4</ele>
        <time>2015-05-25T18:48:50.507Z</time>
      </trkpt>
      <trkpt lat="48.81835" lon="2.40902">
        <ele>85.3</ele>
        <time>2015-05-25T18:48:51.531Z</time>
      </trkpt>
      <trkpt lat="48.81834" lon="2.4091">
        <ele>85.5</ele>
        <time>2015-05-25T18:48:52.536Z</time>
      </trkpt>
      <trkpt lat="48.81832" lon="2.40918">
        <ele>85.6</ele>
        <time>2015-05-25T18:48:53.538Z</time>
      </trkpt>
      <trkpt lat="48.8183" lon="2.40924">
        <ele>85.7</ele>
        <time>2015-05-25T18:48:54.552Z</time>
      </trkpt>
      <trkpt lat="48.81827" lon="2.40931">
        <ele>85.9</ele>
        <time>2015-05-25T18:48:55.564Z</time>
      </trkpt>
      <trkpt lat="48.81825" lon="2.40938">
        <ele>86</ele>
        <time>2015-05-25T18:48:56.567Z</time>
      </trkpt>
      <trkpt lat="48.81823" lon="2.40944">
        <ele>85.9</ele>
        <time>2015-05-25T18:48:57.582Z</time>
      </trkpt>
      <trkpt lat="48.81822" lon="2.40952">
        <ele>86.2</ele>
        <time>2015-05-25T18:48:58.509Z</time>
      </trkpt>
      <trkpt lat="48.81821" lon="2.4096">
        <ele>86.3</ele>
        <time>2015-05-25T18:48:59.508Z</time>
      </trkpt>
      <trkpt lat="48.81819" lon="2.40968">
        <ele>86.4</ele>
        <time>2015-05-25T18:49:00.551Z</time>
      </trkpt>
      <trkpt lat="48.81817" lon="2.40976">
        <ele>86.3</ele>
        <time>2015-05-25T18:49:01.536Z</time>
      </trkpt>
      <trkpt lat="48.81816" lon="2.40984">
        <ele>86.2</ele>
        <time>2015-05-25T18:49:02.534Z</time>
      </trkpt>
      <trkpt lat="48.81814" lon="2.40992">
        <ele>86.2</ele>
        <time>2015-05-25T18:49:03.555Z</time>
      </trkpt>
      <trkpt lat="48.81813" lon="2.41">
        <ele>86.1</ele>
        <time>2015-05-25T18:49:04.560Z</time>
      </trkpt>
      <trkpt lat="48.81811" lon="2.41007">
        <ele>86.1</ele>
        <time>2015-05-25T18:49:05.656Z</time>
      </trkpt>
      <trkpt lat="48.81808" lon="2.41015">
        <ele>86.1</ele>
        <time>2015-05-25T18:49:06.520Z</time>
      </trkpt>
      <trkpt lat="48.81807" lon="2.41024">
        <ele>86.1</ele>
        <time>2015-05-25T18:49:07.528Z</time>
      </trkpt>
      <trkpt lat="48.81805" lon="2.41032">
        <ele>86</ele>
        <time>2015-05-25T18:49:08.529Z</time>
      </trkpt>
      <trkpt lat="48.81803" lon="2.4104">
        <ele>85.9</ele>
        <time>2015-05-25T18:49:09.546Z</time>
      </trkpt>
      <trkpt lat="48.81801" lon="2.41047">
        <ele>85.6</ele>
        <time>2015-05-25T18:49:10.551Z</time>
      </trkpt>
      <trkpt lat="48.818" lon="2.41055">
        <ele>85.5</ele>
        <time>2015-05-25T18:49:11.560Z</time>
      </trkpt>
      <trkpt lat="48.81798" lon="2.41063">
        <ele>85.5</ele>
        <time>2015-05-25T18:49:12.563Z</time>
      </trkpt>
      <trkpt lat="48.81796" lon="2.4107">
        <ele>85.5</ele>
        <time>2015-05-25T18:49:13.583Z</time>
      </trkpt>
      <trkpt lat="48.81795" lon="2.41076">
        <ele>85.6</ele>
        <time>2015-05-25T18:49:14.591Z</time>
      </trkpt>
      <trkpt lat="48.81792" lon="2.41089">
        <ele>85.4</ele>
        <time>2015-05-25T18:49:16.507Z</time>
      </trkpt>
      <trkpt lat="48.81791" lon="2.41095">
        <ele>85.2</ele>
        <time>2015-05-25T18:49:17.515Z</time>
      </trkpt>
      <trkpt lat="48.8179" lon="2.41102">
        <ele>84.9</ele>
        <time>2015-05-25T18:49:18.533Z</time>
      </trkpt>
      <trkpt lat="48.81789" lon="2.41109">
        <ele>84.8</ele>
        <time>2015-05-25T18:49:19.551Z</time>
      </trkpt>
      <trkpt lat="48.81787" lon="2.4112">
        <ele>84.8</ele>
        <time>2015-05-25T18:49:21.575Z</time>
      </trkpt>
      <trkpt lat="48.81786" lon="2.41125">
        <ele>84.9</ele>
        <time>2015-05-25T18:49:22.477Z</time>
      </trkpt>
      <trkpt lat="48.81783" lon="2.41136">
        <ele>85.1</ele>
        <time>2015-05-25T18:49:24.554Z</time>
      </trkpt>
      <trkpt lat="48.81782" lon="2.41141">
        <ele>85.1</ele>
        <time>2015-05-25T18:49:25.571Z</time>
      </trkpt>
      <trkpt lat="48.8178" lon="2.41154">
        <ele>84.9</ele>
        <time>2015-05-25T18:49:27.516Z</time>
      </trkpt>
      <trkpt lat="48.81778" lon="2.4116">
        <ele>84.8</ele>
        <time>2015-05-25T18:49:28.527Z</time>
      </trkpt>
      <trkpt lat="48.81776" lon="2.41172">
        <ele>84.7</ele>
        <time>2015-05-25T18:49:30.554Z</time>
      </trkpt>
      <trkpt lat="48.81775" lon="2.41178">
        <ele>84.7</ele>
        <time>2015-05-25T18:49:31.580Z</time>
      </trkpt>
      <trkpt lat="48.81773" lon="2.41189">
        <ele>84.4</ele>
        <time>2015-05-25T18:49:33.598Z</time>
      </trkpt>
      <trkpt lat="48.81771" lon="2.41194">
        <ele>84.5</ele>
        <time>2015-05-25T18:49:34.523Z</time>
      </trkpt>
      <trkpt lat="48.8177" lon="2.41203">
        <ele>84.2</ele>
        <time>2015-05-25T18:49:36.532Z</time>
      </trkpt>
      <trkpt lat="48.81769" lon="2.41208">
        <ele>83.9</ele>
        <time>2015-05-25T18:49:37.563Z</time>
      </trkpt>
      <trkpt lat="48.81768" lon="2.4122">
        <ele>85</ele>
        <time>2015-05-25T18:49:41.532Z</time>
      </trkpt>
      <trkpt lat="48.81768" lon="2.41224">
        <ele>84.9</ele>
        <time>2015-05-25T18:49:42.576Z</time>
      </trkpt>
      <trkpt lat="48.81775" lon="2.41231">
        <ele>85.2</ele>
        <time>2015-05-25T18:49:46.577Z</time>
      </trkpt>
      <trkpt lat="48.81778" lon="2.41232">
        <ele>85</ele>
        <time>2015-05-25T18:49:47.578Z</time>
      </trkpt>
      <trkpt lat="48.81783" lon="2.41236">
        <ele>83.9</ele>
        <time>2015-05-25T18:49:52.550Z</time>
      </trkpt>
      <trkpt lat="48.81786" lon="2.41237">
        <ele>83.9</ele>
        <time>2015-05-25T18:49:53.563Z</time>
      </trkpt>
      <trkpt lat="48.81794" lon="2.41238">
        <ele>84.2</ele>
        <time>2015-05-25T18:49:57.579Z</time>
      </trkpt>
      <trkpt lat="48.81796" lon="2.41239">
        <ele>84.1</ele>
        <time>2015-05-25T18:49:58.665Z</time>
      </trkpt>
      <trkpt lat="48.81805" lon="2.41237">
        <ele>83.2</ele>
        <time>2015-05-25T18:50:02.606Z</time>
      </trkpt>
      <trkpt lat="48.81806" lon="2.41238">
        <ele>82.9</ele>
        <time>2015-05-25T18:50:03.490Z</time>
      </trkpt>
      <trkpt lat="48.81813" lon="2.41234">
        <ele>83</ele>
        <time>2015-05-25T18:50:13.490Z</time>
      </trkpt>
      <trkpt lat="48.81814" lon="2.41232">
        <ele>83.2</ele>
        <time>2015-05-25T18:50:14.509Z</time>
      </trkpt>
      <trkpt lat="48.81819" lon="2.41223">
        <ele>82.3</ele>
        <time>2015-05-25T18:50:16.535Z</time>
      </trkpt>
      <trkpt lat="48.8182" lon="2.41219">
        <ele>82.3</ele>
        <time>2015-05-25T18:50:17.549Z</time>
      </trkpt>
      <trkpt lat="48.81822" lon="2.41208">
        <ele>82</ele>
        <time>2015-05-25T18:50:19.573Z</time>
      </trkpt>
      <trkpt lat="48.81823" lon="2.41203">
        <ele>81.9</ele>
        <time>2015-05-25T18:50:20.472Z</time>
      </trkpt>
      <trkpt lat="48.81824" lon="2.41189">
        <ele>81.7</ele>
        <time>2015-05-25T18:50:22.518Z</time>
      </trkpt>
      <trkpt lat="48.81825" lon="2.41181">
        <ele>82</ele>
        <time>2015-05-25T18:50:23.522Z</time>
      </trkpt>
      <trkpt lat="48.81825" lon="2.41173">
        <ele>82</ele>
        <time>2015-05-25T18:50:24.505Z</time>
      </trkpt>
      <trkpt lat="48.81826" lon="2.41166">
        <ele>82</ele>
        <time>2015-05-25T18:50:25.509Z</time>
      </trkpt>
      <trkpt lat="48.81828" lon="2.41155">
        <ele>81.6</ele>
        <time>2015-05-25T18:50:27.537Z</time>
      </trkpt>
      <trkpt lat="48.8183" lon="2.41152">
        <ele>81.8</ele>
        <time>2015-05-25T18:50:28.609Z</time>
      </trkpt>
      <trkpt lat="48.81835" lon="2.41156">
        <ele>82.7</ele>
        <time>2015-05-25T18:50:31.633Z</time>
      </trkpt>
      <trkpt lat="48.81837" lon="2.41161">
        <ele>82.7</ele>
        <time>2015-05-25T18:50:32.496Z</time>
      </trkpt>
      <trkpt lat="48.81839" lon="2.41174">
        <ele>82.6</ele>
        <time>2015-05-25T18:50:34.484Z</time>
      </trkpt>
      <trkpt lat="48.81839" lon="2.41179">
        <ele>82.2</ele>
        <time>2015-05-25T18:50:35.503Z</time>
      </trkpt>
      <trkpt lat="48.81839" lon="2.41189">
        <ele>82</ele>
        <time>2015-05-25T18:50:37.556Z</time>
      </trkpt>
      <trkpt lat="48.8184" lon="2.41195">
        <ele>81.8</ele>
        <time>2015-05-25T18:50:38.565Z</time>
      </trkpt>
      <trkpt lat="48.81839" lon="2.41205">
        <ele>82.1</ele>
        <time>2015-05-25T18:50:40.744Z</time>
      </trkpt>
      <trkpt lat="48.81839" lon="2.4121">
        <ele>82.1</ele>
        <time>2015-05-25T18:50:41.519Z</time>
      </trkpt>
      <trkpt lat="48.81838" lon="2.41219">
        <ele>82</ele>
        <time>2015-05-25T18:50:43.581Z</time>
      </trkpt>
      <trkpt lat="48.81837" lon="2.41224">
        <ele>82</ele>
        <time>2015-05-25T18:50:44.500Z</time>
      </trkpt>
      <trkpt lat="48.81833" lon="2.41233">
        <ele>81.9</ele>
        <time>2015-05-25T18:50:46.494Z</time>
      </trkpt>
      <trkpt lat="48.81832" lon="2.41238">
        <ele>81.9</ele>
        <time>2015-05-25T18:50:47.549Z</time>
      </trkpt>
      <trkpt lat="48.81834" lon="2.41249">
        <ele>81.8</ele>
        <time>2015-05-25T18:50:49.507Z</time>
      </trkpt>
      <trkpt lat="48.81835" lon="2.41253">
        <ele>81.8</ele>
        <time>2015-05-25T18:50:50.633Z</time>
      </trkpt>
      <trkpt lat="48.81839" lon="2.41264">
        <ele>81.6</ele>
        <time>2015-05-25T18:50:53.604Z</time>
      </trkpt>
      <trkpt lat="48.8184" lon="2.41266">
        <ele>81.5</ele>
        <time>2015-05-25T18:50:54.680Z</time>
      </trkpt>
      <trkpt lat="48.81847" lon="2.41273">
        <ele>81.9</ele>
        <time>2015-05-25T18:50:57.525Z</time>
      </trkpt>
      <trkpt lat="48.81848" lon="2.41274">
        <ele>82.4</ele>
        <time>2015-05-25T18:50:58.536Z</time>
      </trkpt>
      <trkpt lat="48.81854" lon="2.4128">
        <ele>83.3</ele>
        <time>2015-05-25T18:51:01.543Z</time>
      </trkpt>
      <trkpt lat="48.81856" lon="2.41281">
        <ele>83.5</ele>
        <time>2015-05-25T18:51:02.567Z</time>
      </trkpt>
      <trkpt lat="48.81862" lon="2.41285">
        <ele>84</ele>
        <time>2015-05-25T18:51:05.523Z</time>
      </trkpt>
      <trkpt lat="48.81865" lon="2.41287">
        <ele>84</ele>
        <time>2015-05-25T18:51:06.535Z</time>
      </trkpt>
      <trkpt lat="48.81872" lon="2.4129">
        <ele>84.1</ele>
        <time>2015-05-25T18:51:08.455Z</time>
      </trkpt>
      <trkpt lat="48.81874" lon="2.41291">
        <ele>84.5</ele>
        <time>2015-05-25T18:51:09.571Z</time>
      </trkpt>
      <trkpt lat="48.8188" lon="2.41299">
        <ele>85.5</ele>
        <time>2015-05-25T18:51:13.663Z</time>
      </trkpt>
      <trkpt lat="48.81881" lon="2.413">
        <ele>85.6</ele>
        <time>2015-05-25T18:51:14.496Z</time>
      </trkpt>
      <trkpt lat="48.81881" lon="2.413">
        <ele>85.6</ele>
        <time>2015-05-25T18:51:44.479Z</time>
      </trkpt>
      <trkpt lat="48.81899" lon="2.41317">
        <ele>101.1</ele>
        <time>2015-05-25T18:51:45.494Z</time>
      </trkpt>
      <trkpt lat="48.81904" lon="2.41322">
        <ele>100.3</ele>
        <time>2015-05-25T18:51:48.545Z</time>
      </trkpt>
      <trkpt lat="48.81907" lon="2.41325">
        <ele>100</ele>
        <time>2015-05-25T18:51:49.544Z</time>
      </trkpt>
      <trkpt lat="48.81915" lon="2.4133">
        <ele>99.7</ele>
        <time>2015-05-25T18:51:53.046Z</time>
      </trkpt>
      <trkpt lat="48.81917" lon="2.41334">
        <ele>99.8</ele>
        <time>2015-05-25T18:51:53.502Z</time>
      </trkpt>
      <trkpt lat="48.81923" lon="2.41338">
        <ele>99.3</ele>
        <time>2015-05-25T18:51:55.551Z</time>
      </trkpt>
      <trkpt lat="48.81926" lon="2.4134">
        <ele>98</ele>
        <time>2015-05-25T18:51:56.470Z</time>
      </trkpt>
      <trkpt lat="48.81931" lon="2.41344">
        <ele>98</ele>
        <time>2015-05-25T18:51:58.510Z</time>
      </trkpt>
      <trkpt lat="48.81934" lon="2.41347">
        <ele>97.4</ele>
        <time>2015-05-25T18:51:59.512Z</time>
      </trkpt>
      <trkpt lat="48.81942" lon="2.41353">
        <ele>96.4</ele>
        <time>2015-05-25T18:52:01.761Z</time>
      </trkpt>
      <trkpt lat="48.81945" lon="2.41355">
        <ele>95.7</ele>
        <time>2015-05-25T18:52:02.555Z</time>
      </trkpt>
      <trkpt lat="48.81951" lon="2.41361">
        <ele>95.8</ele>
        <time>2015-05-25T18:52:04.573Z</time>
      </trkpt>
      <trkpt lat="48.81953" lon="2.41363">
        <ele>96</ele>
        <time>2015-05-25T18:52:05.464Z</time>
      </trkpt>
      <trkpt lat="48.81961" lon="2.41368">
        <ele>96.3</ele>
        <time>2015-05-25T18:52:08.519Z</time>
      </trkpt>
      <trkpt lat="48.81963" lon="2.4137">
        <ele>96.2</ele>
        <time>2015-05-25T18:52:09.550Z</time>
      </trkpt>
      <trkpt lat="48.81969" lon="2.41374">
        <ele>96.1</ele>
        <time>2015-05-25T18:52:13.252Z</time>
      </trkpt>
      <trkpt lat="48.81972" lon="2.41375">
        <ele>96</ele>
        <time>2015-05-25T18:52:13.547Z</time>
      </trkpt>
      <trkpt lat="48.8198" lon="2.41377">
        <ele>96</ele>
        <time>2015-05-25T18:52:39.522Z</time>
      </trkpt>
      <trkpt lat="48.81993" lon="2.41404">
        <ele>99.4</ele>
        <time>2015-05-25T18:52:40.538Z</time>
      </trkpt>
      <trkpt lat="48.82001" lon="2.41408">
        <ele>100.3</ele>
        <time>2015-05-25T18:52:44.494Z</time>
      </trkpt>
      <trkpt lat="48.82004" lon="2.4141">
        <ele>100.6</ele>
        <time>2015-05-25T18:52:45.520Z</time>
      </trkpt>
      <trkpt lat="48.8201" lon="2.41416">
        <ele>101.2</ele>
        <time>2015-05-25T18:52:48.905Z</time>
      </trkpt>
      <trkpt lat="48.82013" lon="2.41417">
        <ele>101.4</ele>
        <time>2015-05-25T18:52:49.558Z</time>
      </trkpt>
      <trkpt lat="48.8202" lon="2.41422">
        <ele>101.8</ele>
        <time>2015-05-25T18:52:52.980Z</time>
      </trkpt>
      <trkpt lat="48.82023" lon="2.41425">
        <ele>101.9</ele>
        <time>2015-05-25T18:52:53.589Z</time>
      </trkpt>
      <trkpt lat="48.82029" lon="2.41434">
        <ele>102.4</ele>
        <time>2015-05-25T18:52:56.539Z</time>
      </trkpt>
      <trkpt lat="48.8203" lon="2.41438">
        <ele>102.5</ele>
        <time>2015-05-25T18:52:57.550Z</time>
      </trkpt>
      <trkpt lat="48.82033" lon="2.4145">
        <ele>102.7</ele>
        <time>2015-05-25T18:53:03.493Z</time>
      </trkpt>
      <trkpt lat="48.82036" lon="2.41451">
        <ele>102.6</ele>
        <time>2015-05-25T18:53:04.469Z</time>
      </trkpt>
      <trkpt lat="48.82038" lon="2.41454">
        <ele>102.5</ele>
        <time>2015-05-25T18:53:05.523Z</time>
      </trkpt>
      <trkpt lat="48.82058" lon="2.41467">
        <ele>101.8</ele>
        <time>2015-05-25T18:53:14.470Z</time>
      </trkpt>
      <trkpt lat="48.82059" lon="2.41466">
        <ele>101.8</ele>
        <time>2015-05-25T18:53:15.479Z</time>
      </trkpt>
      <trkpt lat="48.82065" lon="2.41455">
        <ele>100.1</ele>
        <time>2015-05-25T18:53:16.527Z</time>
      </trkpt>
      <trkpt lat="48.82072" lon="2.41444">
        <ele>97.6</ele>
        <time>2015-05-25T18:53:17.576Z</time>
      </trkpt>
      <trkpt lat="48.82078" lon="2.41451">
        <ele>99.8</ele>
        <time>2015-05-25T18:53:20.527Z</time>
      </trkpt>
      <trkpt lat="48.82081" lon="2.41455">
        <ele>100.4</ele>
        <time>2015-05-25T18:53:21.491Z</time>
      </trkpt>
      <trkpt lat="48.82083" lon="2.41464">
        <ele>100.6</ele>
        <time>2015-05-25T18:53:30.506Z</time>
      </trkpt>
      <trkpt lat="48.82077" lon="2.41475">
        <ele>99.6</ele>
        <time>2015-05-25T18:53:31.514Z</time>
      </trkpt>
      <trkpt lat="48.8207" lon="2.41479">
        <ele>99.7</ele>
        <time>2015-05-25T18:53:35.501Z</time>
      </trkpt>
      <trkpt lat="48.82068" lon="2.4148">
        <ele>99.8</ele>
        <time>2015-05-25T18:53:36.522Z</time>
      </trkpt>
      <trkpt lat="48.8206" lon="2.41485">
        <ele>100.5</ele>
        <time>2015-05-25T18:53:40.548Z</time>
      </trkpt>
      <trkpt lat="48.82058" lon="2.41487">
        <ele>100.9</ele>
        <time>2015-05-25T18:53:41.562Z</time>
      </trkpt>
      <trkpt lat="48.82052" lon="2.41492">
        <ele>101.2</ele>
        <time>2015-05-25T18:53:44.408Z</time>
      </trkpt>
      <trkpt lat="48.82049" lon="2.41495">
        <ele>101.4</ele>
        <time>2015-05-25T18:53:44.464Z</time>
      </trkpt>
      <trkpt lat="48.82042" lon="2.41502">
        <ele>101.5</ele>
        <time>2015-05-25T18:53:46.504Z</time>
      </trkpt>
      <trkpt lat="48.82039" lon="2.41505">
        <ele>101.5</ele>
        <time>2015-05-25T18:53:47.521Z</time>
      </trkpt>
      <trkpt lat="48.82033" lon="2.41512">
        <ele>101.6</ele>
        <time>2015-05-25T18:53:49.537Z</time>
      </trkpt>
      <trkpt lat="48.8203" lon="2.41517">
        <ele>101.9</ele>
        <time>2015-05-25T18:53:50.550Z</time>
      </trkpt>
      <trkpt lat="48.82024" lon="2.41524">
        <ele>102</ele>
        <time>2015-05-25T18:53:52.974Z</time>
      </trkpt>
      <trkpt lat="48.82021" lon="2.41529">
        <ele>102.4</ele>
        <time>2015-05-25T18:53:53.584Z</time>
      </trkpt>
      <trkpt lat="48.82014" lon="2.41536">
        <ele>103.5</ele>
        <time>2015-05-25T18:53:55.544Z</time>
      </trkpt>
      <trkpt lat="48.82012" lon="2.41541">
        <ele>103.9</ele>
        <time>2015-05-25T18:53:56.629Z</time>
      </trkpt>
      <trkpt lat="48.82007" lon="2.4155">
        <ele>105.1</ele>
        <time>2015-05-25T18:53:59.490Z</time>
      </trkpt>
      <trkpt lat="48.82005" lon="2.41554">
        <ele>105</ele>
        <time>2015-05-25T18:54:00.506Z</time>
      </trkpt>
      <trkpt lat="48.81999" lon="2.41556">
        <ele>105</ele>
        <time>2015-05-25T18:54:03.115Z</time>
      </trkpt>
      <trkpt lat="48.81996" lon="2.41558">
        <ele>104.9</ele>
        <time>2015-05-25T18:54:03.498Z</time>
      </trkpt>
      <trkpt lat="48.81989" lon="2.41563">
        <ele>104.4</ele>
        <time>2015-05-25T18:54:05.507Z</time>
      </trkpt>
      <trkpt lat="48.81985" lon="2.41565">
        <ele>104</ele>
        <time>2015-05-25T18:54:06.529Z</time>
      </trkpt>
      <trkpt lat="48.81978" lon="2.41571">
        <ele>103.2</ele>
        <time>2015-05-25T18:54:08.554Z</time>
      </trkpt>
      <trkpt lat="48.81975" lon="2.41575">
        <ele>103.1</ele>
        <time>2015-05-25T18:54:09.570Z</time>
      </trkpt>
      <trkpt lat="48.81968" lon="2.41581">
        <ele>103.4</ele>
        <time>2015-05-25T18:54:11.574Z</time>
      </trkpt>
      <trkpt lat="48.81966" lon="2.41585">
        <ele>103.5</ele>
        <time>2015-05-25T18:54:12.589Z</time>
      </trkpt>
      <trkpt lat="48.8196" lon="2.41594">
        <ele>103.4</ele>
        <time>2015-05-25T18:54:15.585Z</time>
      </trkpt>
      <trkpt lat="48.81958" lon="2.41597">
        <ele>103.3</ele>
        <time>2015-05-25T18:54:16.461Z</time>
      </trkpt>
      <trkpt lat="48.81951" lon="2.41604">
        <ele>103.1</ele>
        <time>2015-05-25T18:54:19.503Z</time>
      </trkpt>
      <trkpt lat="48.81948" lon="2.41607">
        <ele>103.2</ele>
        <time>2015-05-25T18:54:20.507Z</time>
      </trkpt>
      <trkpt lat="48.81944" lon="2.41614">
        <ele>102.4</ele>
        <time>2015-05-25T18:54:22.526Z</time>
      </trkpt>
      <trkpt lat="48.81942" lon="2.41618">
        <ele>102.4</ele>
        <time>2015-05-25T18:54:23.740Z</time>
      </trkpt>
      <trkpt lat="48.81941" lon="2.4163">
        <ele>101.9</ele>
        <time>2015-05-25T18:54:26.523Z</time>
      </trkpt>
      <trkpt lat="48.81941" lon="2.41634">
        <ele>101.8</ele>
        <time>2015-05-25T18:54:27.531Z</time>
      </trkpt>
      <trkpt lat="48.81945" lon="2.41644">
        <ele>102.3</ele>
        <time>2015-05-25T18:54:30.579Z</time>
      </trkpt>
      <trkpt lat="48.81946" lon="2.41648">
        <ele>102.6</ele>
        <time>2015-05-25T18:54:31.582Z</time>
      </trkpt>
      <trkpt lat="48.81949" lon="2.4166">
        <ele>103.6</ele>
        <time>2015-05-25T18:54:34.469Z</time>
      </trkpt>
      <trkpt lat="48.81951" lon="2.41664">
        <ele>103.9</ele>
        <time>2015-05-25T18:54:35.491Z</time>
      </trkpt>
      <trkpt lat="48.81956" lon="2.41671">
        <ele>104.2</ele>
        <time>2015-05-25T18:54:37.503Z</time>
      </trkpt>
      <trkpt lat="48.81959" lon="2.41674">
        <ele>104.3</ele>
        <time>2015-05-25T18:54:38.510Z</time>
      </trkpt>
      <trkpt lat="48.81962" lon="2.41684">
        <ele>104.5</ele>
        <time>2015-05-25T18:54:40.570Z</time>
      </trkpt>
      <trkpt lat="48.81964" lon="2.41689">
        <ele>104.7</ele>
        <time>2015-05-25T18:54:41.521Z</time>
      </trkpt>
      <trkpt lat="48.81967" lon="2.41699">
        <ele>105.4</ele>
        <time>2015-05-25T18:54:44.241Z</time>
      </trkpt>
      <trkpt lat="48.81968" lon="2.41704">
        <ele>105.6</ele>
        <time>2015-05-25T18:54:44.497Z</time>
      </trkpt>
      <trkpt lat="48.81974" lon="2.41714">
        <ele>106.4</ele>
        <time>2015-05-25T18:54:46.531Z</time>
      </trkpt>
      <trkpt lat="48.81977" lon="2.41719">
        <ele>106.7</ele>
        <time>2015-05-25T18:54:47.468Z</time>
      </trkpt>
      <trkpt lat="48.8198" lon="2.4173">
        <ele>107.2</ele>
        <time>2015-05-25T18:54:49.486Z</time>
      </trkpt>
      <trkpt lat="48.8198" lon="2.41736">
        <ele>107.1</ele>
        <time>2015-05-25T18:54:50.506Z</time>
      </trkpt>
      <trkpt lat="48.8198" lon="2.41743">
        <ele>107.2</ele>
        <time>2015-05-25T18:54:51.537Z</time>
      </trkpt>
      <trkpt lat="48.81981" lon="2.4175">
        <ele>107.1</ele>
        <time>2015-05-25T18:54:52.558Z</time>
      </trkpt>
      <trkpt lat="48.81984" lon="2.41762">
        <ele>107.4</ele>
        <time>2015-05-25T18:54:54.505Z</time>
      </trkpt>
      <trkpt lat="48.81986" lon="2.41768">
        <ele>107.7</ele>
        <time>2015-05-25T18:54:55.538Z</time>
      </trkpt>
      <trkpt lat="48.81991" lon="2.41779">
        <ele>108.5</ele>
        <time>2015-05-25T18:54:57.499Z</time>
      </trkpt>
      <trkpt lat="48.81992" lon="2.41786">
        <ele>108.7</ele>
        <time>2015-05-25T18:54:58.536Z</time>
      </trkpt>
      <trkpt lat="48.81994" lon="2.41796">
        <ele>108.9</ele>
        <time>2015-05-25T18:55:00.508Z</time>
      </trkpt>
      <trkpt lat="48.81994" lon="2.41802">
        <ele>108.9</ele>
        <time>2015-05-25T18:55:01.557Z</time>
      </trkpt>
      <trkpt lat="48.81994" lon="2.41815">
        <ele>109.2</ele>
        <time>2015-05-25T18:55:03.587Z</time>
      </trkpt>
      <trkpt lat="48.81995" lon="2.41823">
        <ele>109.5</ele>
        <time>2015-05-25T18:55:04.518Z</time>
      </trkpt>
      <trkpt lat="48.81996" lon="2.4183">
        <ele>109.6</ele>
        <time>2015-05-25T18:55:05.556Z</time>
      </trkpt>
      <trkpt lat="48.81997" lon="2.41838">
        <ele>109.8</ele>
        <time>2015-05-25T18:55:06.559Z</time>
      </trkpt>
      <trkpt lat="48.81998" lon="2.41846">
        <ele>109.9</ele>
        <time>2015-05-25T18:55:07.583Z</time>
      </trkpt>
      <trkpt lat="48.81998" lon="2.41852">
        <ele>110</ele>
        <time>2015-05-25T18:55:08.502Z</time>
      </trkpt>
      <trkpt lat="48.82" lon="2.41865">
        <ele>109.9</ele>
        <time>2015-05-25T18:55:10.502Z</time>
      </trkpt>
      <trkpt lat="48.82001" lon="2.4187">
        <ele>110</ele>
        <time>2015-05-25T18:55:11.507Z</time>
      </trkpt>
      <trkpt lat="48.82003" lon="2.41882">
        <ele>110.6</ele>
        <time>2015-05-25T18:55:13.547Z</time>
      </trkpt>
      <trkpt lat="48.82004" lon="2.41887">
        <ele>110.7</ele>
        <time>2015-05-25T18:55:14.551Z</time>
      </trkpt>
      <trkpt lat="48.82007" lon="2.41899">
        <ele>111.5</ele>
        <time>2015-05-25T18:55:16.497Z</time>
      </trkpt>
      <trkpt lat="48.82008" lon="2.41905">
        <ele>112.3</ele>
        <time>2015-05-25T18:55:17.605Z</time>
      </trkpt>
      <trkpt lat="48.82009" lon="2.41912">
        <ele>112.9</ele>
        <time>2015-05-25T18:55:18.564Z</time>
      </trkpt>
      <trkpt lat="48.8201" lon="2.41919">
        <ele>113.4</ele>
        <time>2015-05-25T18:55:19.617Z</time>
      </trkpt>
      <trkpt lat="48.82011" lon="2.4193">
        <ele>114.1</ele>
        <time>2015-05-25T18:55:21.504Z</time>
      </trkpt>
      <trkpt lat="48.82012" lon="2.41934">
        <ele>114.3</ele>
        <time>2015-05-25T18:55:22.511Z</time>
      </trkpt>
      <trkpt lat="48.82015" lon="2.41946">
        <ele>114.6</ele>
        <time>2015-05-25T18:55:25.596Z</time>
      </trkpt>
      <trkpt lat="48.82017" lon="2.41949">
        <ele>115.2</ele>
        <time>2015-05-25T18:55:26.494Z</time>
      </trkpt>
      <trkpt lat="48.82022" lon="2.41955">
        <ele>117.2</ele>
        <time>2015-05-25T18:55:30.556Z</time>
      </trkpt>
      <trkpt lat="48.82025" lon="2.41956">
        <ele>117.8</ele>
        <time>2015-05-25T18:55:31.582Z</time>
      </trkpt>
      <trkpt lat="48.82032" lon="2.4196">
        <ele>118.1</ele>
        <time>2015-05-25T18:55:34.531Z</time>
      </trkpt>
      <trkpt lat="48.82034" lon="2.41962">
        <ele>118.6</ele>
        <time>2015-05-25T18:55:35.554Z</time>
      </trkpt>
      <trkpt lat="48.82041" lon="2.41966">
        <ele>119.9</ele>
        <time>2015-05-25T18:55:38.515Z</time>
      </trkpt>
      <trkpt lat="48.82046" lon="2.41966">
        <ele>120.1</ele>
        <time>2015-05-25T18:55:39.520Z</time>
      </trkpt>
      <trkpt lat="48.82054" lon="2.41965">
        <ele>120.2</ele>
        <time>2015-05-25T18:55:41.568Z</time>
      </trkpt>
      <trkpt lat="48.82058" lon="2.41965">
        <ele>120.4</ele>
        <time>2015-05-25T18:55:42.580Z</time>
      </trkpt>
      <trkpt lat="48.82067" lon="2.41968">
        <ele>120.7</ele>
        <time>2015-05-25T18:55:44.485Z</time>
      </trkpt>
      <trkpt lat="48.8207" lon="2.41971">
        <ele>120.8</ele>
        <time>2015-05-25T18:55:45.546Z</time>
      </trkpt>
      <trkpt lat="48.82069" lon="2.41978">
        <ele>120.2</ele>
        <time>2015-05-25T18:55:58.532Z</time>
      </trkpt>
      <trkpt lat="48.82064" lon="2.41982">
        <ele>120</ele>
        <time>2015-05-25T18:55:59.462Z</time>
      </trkpt>
      <trkpt lat="48.82057" lon="2.41981">
        <ele>120.9</ele>
        <time>2015-05-25T18:56:02.575Z</time>
      </trkpt>
      <trkpt lat="48.82054" lon="2.41982">
        <ele>121.1</ele>
        <time>2015-05-25T18:56:03.509Z</time>
      </trkpt>
      <trkpt lat="48.82049" lon="2.41982">
        <ele>121.2</ele>
        <time>2015-05-25T18:56:05.494Z</time>
      </trkpt>
      <trkpt lat="48.82045" lon="2.41982">
        <ele>121.5</ele>
        <time>2015-05-25T18:56:06.537Z</time>
      </trkpt>
      <trkpt lat="48.8204" lon="2.41984">
        <ele>121.8</ele>
        <time>2015-05-25T18:56:07.558Z</time>
      </trkpt>
      <trkpt lat="48.82035" lon="2.41984">
        <ele>121.9</ele>
        <time>2015-05-25T18:56:08.562Z</time>
      </trkpt>
      <trkpt lat="48.82027" lon="2.41983">
        <ele>121.2</ele>
        <time>2015-05-25T18:56:10.583Z</time>
      </trkpt>
      <trkpt lat="48.82023" lon="2.41982">
        <ele>120.9</ele>
        <time>2015-05-25T18:56:11.600Z</time>
      </trkpt>
      <trkpt lat="48.82015" lon="2.41982">
        <ele>121</ele>
        <time>2015-05-25T18:56:13.570Z</time>
      </trkpt>
      <trkpt lat="48.82012" lon="2.41982">
        <ele>121.5</ele>
        <time>2015-05-25T18:56:14.511Z</time>
      </trkpt>
      <trkpt lat="48.82004" lon="2.41982">
        <ele>121.6</ele>
        <time>2015-05-25T18:56:16.493Z</time>
      </trkpt>
      <trkpt lat="48.82" lon="2.41982">
        <ele>121.5</ele>
        <time>2015-05-25T18:56:17.513Z</time>
      </trkpt>
      <trkpt lat="48.81991" lon="2.41981">
        <ele>121.3</ele>
        <time>2015-05-25T18:56:19.540Z</time>
      </trkpt>
      <trkpt lat="48.81986" lon="2.41982">
        <ele>121.1</ele>
        <time>2015-05-25T18:56:20.561Z</time>
      </trkpt>
      <trkpt lat="48.81977" lon="2.41981">
        <ele>120.8</ele>
        <time>2015-05-25T18:56:22.507Z</time>
      </trkpt>
      <trkpt lat="48.81973" lon="2.4198">
        <ele>120.6</ele>
        <time>2015-05-25T18:56:23.495Z</time>
      </trkpt>
      <trkpt lat="48.81966" lon="2.41978">
        <ele>120.6</ele>
        <time>2015-05-25T18:56:25.521Z</time>
      </trkpt>
      <trkpt lat="48.81962" lon="2.41978">
        <ele>120.9</ele>
        <time>2015-05-25T18:56:26.551Z</time>
      </trkpt>
      <trkpt lat="48.81954" lon="2.41976">
        <ele>121.1</ele>
        <time>2015-05-25T18:56:28.463Z</time>
      </trkpt>
      <trkpt lat="48.8195" lon="2.41975">
        <ele>121.2</ele>
        <time>2015-05-25T18:56:29.510Z</time>
      </trkpt>
      <trkpt lat="48.81943" lon="2.41973">
        <ele>120.7</ele>
        <time>2015-05-25T18:56:31.562Z</time>
      </trkpt>
      <trkpt lat="48.8194" lon="2.41973">
        <ele>120.6</ele>
        <time>2015-05-25T18:56:32.566Z</time>
      </trkpt>
      <trkpt lat="48.81932" lon="2.41972">
        <ele>119.8</ele>
        <time>2015-05-25T18:56:34.582Z</time>
      </trkpt>
      <trkpt lat="48.81927" lon="2.41972">
        <ele>119.1</ele>
        <time>2015-05-25T18:56:35.520Z</time>
      </trkpt>
      <trkpt lat="48.81918" lon="2.4197">
        <ele>118.3</ele>
        <time>2015-05-25T18:56:37.543Z</time>
      </trkpt>
      <trkpt lat="48.81914" lon="2.41971">
        <ele>117.4</ele>
        <time>2015-05-25T18:56:38.553Z</time>
      </trkpt>
      <trkpt lat="48.81907" lon="2.4197">
        <ele>117</ele>
        <time>2015-05-25T18:56:40.466Z</time>
      </trkpt>
      <trkpt lat="48.81904" lon="2.4197">
        <ele>116.8</ele>
        <time>2015-05-25T18:56:41.497Z</time>
      </trkpt>
      <trkpt lat="48.81902" lon="2.4198">
        <ele>114.1</ele>
        <time>2015-05-25T18:57:02.507Z</time>
      </trkpt>
      <trkpt lat="48.81903" lon="2.41984">
        <ele>114</ele>
        <time>2015-05-25T18:57:03.535Z</time>
      </trkpt>
      <trkpt lat="48.81903" lon="2.41984">
        <ele>114</ele>
        <time>2015-05-25T18:57:15.467Z</time>
      </trkpt>
      <trkpt lat="48.81901" lon="2.41997">
        <ele>113.4</ele>
        <time>2015-05-25T18:57:31.502Z</time>
      </trkpt>
      <trkpt lat="48.81901" lon="2.41997">
        <ele>113.4</ele>
        <time>2015-05-25T18:57:58.014Z</time>
      </trkpt>
      <trkpt lat="48.81896" lon="2.42019">
        <ele>108.6</ele>
        <time>2015-05-25T18:57:58.439Z</time>
      </trkpt>
      <trkpt lat="48.8189" lon="2.42022">
        <ele>108.6</ele>
        <time>2015-05-25T18:58:49.523Z</time>
      </trkpt>
      <trkpt lat="48.81901" lon="2.42067">
        <ele>102.3</ele>
        <time>2015-05-25T18:58:50.529Z</time>
      </trkpt>
      <trkpt lat="48.81909" lon="2.42067">
        <ele>103.2</ele>
        <time>2015-05-25T18:58:59.566Z</time>
      </trkpt>
      <trkpt lat="48.81913" lon="2.42066">
        <ele>103.6</ele>
        <time>2015-05-25T18:59:00.507Z</time>
      </trkpt>
      <trkpt lat="48.81921" lon="2.4207">
        <ele>103.3</ele>
        <time>2015-05-25T18:59:06.541Z</time>
      </trkpt>
      <trkpt lat="48.81923" lon="2.42072">
        <ele>103.6</ele>
        <time>2015-05-25T18:59:07.581Z</time>
      </trkpt>
      <trkpt lat="48.8193" lon="2.42078">
        <ele>104.1</ele>
        <time>2015-05-25T18:59:10.506Z</time>
      </trkpt>
      <trkpt lat="48.8193" lon="2.4208">
        <ele>104.5</ele>
        <time>2015-05-25T18:59:11.567Z</time>
      </trkpt>
      <trkpt lat="48.8193" lon="2.42082">
        <ele>105.6</ele>
        <time>2015-05-25T18:59:18.555Z</time>
      </trkpt>
      <trkpt lat="48.81927" lon="2.42094">
        <ele>107.2</ele>
        <time>2015-05-25T18:59:19.565Z</time>
      </trkpt>
      <trkpt lat="48.81927" lon="2.42106">
        <ele>109.1</ele>
        <time>2015-05-25T18:59:23.520Z</time>
      </trkpt>
      <trkpt lat="48.81928" lon="2.42108">
        <ele>109.2</ele>
        <time>2015-05-25T18:59:24.572Z</time>
      </trkpt>
      <trkpt lat="48.81929" lon="2.42121">
        <ele>109.9</ele>
        <time>2015-05-25T18:59:28.458Z</time>
      </trkpt>
      <trkpt lat="48.81929" lon="2.42124">
        <ele>109.8</ele>
        <time>2015-05-25T18:59:29.494Z</time>
      </trkpt>
      <trkpt lat="48.81929" lon="2.42134">
        <ele>109.7</ele>
        <time>2015-05-25T18:59:33.316Z</time>
      </trkpt>
      <trkpt lat="48.81929" lon="2.42138">
        <ele>109.7</ele>
        <time>2015-05-25T18:59:33.480Z</time>
      </trkpt>
      <trkpt lat="48.8193" lon="2.4215">
        <ele>109.1</ele>
        <time>2015-05-25T18:59:36.476Z</time>
      </trkpt>
      <trkpt lat="48.81931" lon="2.42154">
        <ele>109.3</ele>
        <time>2015-05-25T18:59:37.503Z</time>
      </trkpt>
      <trkpt lat="48.81932" lon="2.42164">
        <ele>109.3</ele>
        <time>2015-05-25T18:59:40.528Z</time>
      </trkpt>
      <trkpt lat="48.81933" lon="2.42168">
        <ele>109.3</ele>
        <time>2015-05-25T18:59:41.566Z</time>
      </trkpt>
      <trkpt lat="48.81935" lon="2.42181">
        <ele>109.1</ele>
        <time>2015-05-25T18:59:44.540Z</time>
      </trkpt>
      <trkpt lat="48.81934" lon="2.42186">
        <ele>109.2</ele>
        <time>2015-05-25T18:59:45.562Z</time>
      </trkpt>
      <trkpt lat="48.81934" lon="2.42196">
        <ele>109.1</ele>
        <time>2015-05-25T18:59:47.505Z</time>
      </trkpt>
      <trkpt lat="48.81934" lon="2.422">
        <ele>109.1</ele>
        <time>2015-05-25T18:59:48.540Z</time>
      </trkpt>
      <trkpt lat="48.81935" lon="2.42213">
        <ele>109.8</ele>
        <time>2015-05-25T18:59:51.515Z</time>
      </trkpt>
      <trkpt lat="48.81935" lon="2.42218">
        <ele>110.1</ele>
        <time>2015-05-25T18:59:52.546Z</time>
      </trkpt>
      <trkpt lat="48.81937" lon="2.42231">
        <ele>110.1</ele>
        <time>2015-05-25T18:59:55.525Z</time>
      </trkpt>
      <trkpt lat="48.81937" lon="2.42234">
        <ele>109.8</ele>
        <time>2015-05-25T18:59:56.545Z</time>
      </trkpt>
      <trkpt lat="48.81939" lon="2.42247">
        <ele>110.1</ele>
        <time>2015-05-25T18:59:59.525Z</time>
      </trkpt>
      <trkpt lat="48.81939" lon="2.42252">
        <ele>110.2</ele>
        <time>2015-05-25T19:00:00.539Z</time>
      </trkpt>
      <trkpt lat="48.81945" lon="2.42259">
        <ele>110.1</ele>
        <time>2015-05-25T19:00:04.555Z</time>
      </trkpt>
      <trkpt lat="48.81947" lon="2.4226">
        <ele>110.1</ele>
        <time>2015-05-25T19:00:05.475Z</time>
      </trkpt>
      <trkpt lat="48.81949" lon="2.4226">
        <ele>110.1</ele>
        <time>2015-05-25T19:00:06.490Z</time>
      </trkpt>
      <trkpt lat="48.81958" lon="2.42263">
        <ele>110.1</ele>
        <time>2015-05-25T19:00:09.485Z</time>
      </trkpt>
      <trkpt lat="48.81963" lon="2.42264">
        <ele>110.2</ele>
        <time>2015-05-25T19:00:10.490Z</time>
      </trkpt>
      <trkpt lat="48.81972" lon="2.42267">
        <ele>110.4</ele>
        <time>2015-05-25T19:00:12.523Z</time>
      </trkpt>
      <trkpt lat="48.81976" lon="2.42269">
        <ele>110.5</ele>
        <time>2015-05-25T19:00:13.523Z</time>
      </trkpt>
      <trkpt lat="48.81981" lon="2.42271">
        <ele>110.6</ele>
        <time>2015-05-25T19:00:14.531Z</time>
      </trkpt>
      <trkpt lat="48.81988" lon="2.42275">
        <ele>111.2</ele>
        <time>2015-05-25T19:00:18.460Z</time>
      </trkpt>
      <trkpt lat="48.8199" lon="2.42275">
        <ele>111.3</ele>
        <time>2015-05-25T19:00:18.557Z</time>
      </trkpt>
      <trkpt lat="48.81998" lon="2.42274">
        <ele>111.7</ele>
        <time>2015-05-25T19:00:22.490Z</time>
      </trkpt>
      <trkpt lat="48.82001" lon="2.42273">
        <ele>111.6</ele>
        <time>2015-05-25T19:00:23.507Z</time>
      </trkpt>
      <trkpt lat="48.82004" lon="2.42265">
        <ele>110.2</ele>
        <time>2015-05-25T19:00:55.555Z</time>
      </trkpt>
      <trkpt lat="48.82022" lon="2.42278">
        <ele>115.2</ele>
        <time>2015-05-25T19:00:56.587Z</time>
      </trkpt>
      <trkpt lat="48.82021" lon="2.42291">
        <ele>114.3</ele>
        <time>2015-05-25T19:01:00.527Z</time>
      </trkpt>
      <trkpt lat="48.82022" lon="2.42295">
        <ele>113.8</ele>
        <time>2015-05-25T19:01:01.554Z</time>
      </trkpt>
      <trkpt lat="48.82021" lon="2.42308">
        <ele>113.4</ele>
        <time>2015-05-25T19:01:04.499Z</time>
      </trkpt>
      <trkpt lat="48.82021" lon="2.42313">
        <ele>112.8</ele>
        <time>2015-05-25T19:01:05.509Z</time>
      </trkpt>
      <trkpt lat="48.8202" lon="2.42324">
        <ele>111.1</ele>
        <time>2015-05-25T19:01:07.545Z</time>
      </trkpt>
      <trkpt lat="48.82016" lon="2.42328">
        <ele>110.5</ele>
        <time>2015-05-25T19:01:08.488Z</time>
      </trkpt>
      <trkpt lat="48.82009" lon="2.42331">
        <ele>109.9</ele>
        <time>2015-05-25T19:01:10.481Z</time>
      </trkpt>
      <trkpt lat="48.82006" lon="2.4233">
        <ele>110.1</ele>
        <time>2015-05-25T19:01:11.490Z</time>
      </trkpt>
      <trkpt lat="48.81998" lon="2.42329">
        <ele>110.5</ele>
        <time>2015-05-25T19:01:13.500Z</time>
      </trkpt>
      <trkpt lat="48.81995" lon="2.42328">
        <ele>110.7</ele>
        <time>2015-05-25T19:01:14.509Z</time>
      </trkpt>
      <trkpt lat="48.81988" lon="2.42324">
        <ele>111</ele>
        <time>2015-05-25T19:01:16.469Z</time>
      </trkpt>
      <trkpt lat="48.81984" lon="2.42322">
        <ele>111.1</ele>
        <time>2015-05-25T19:01:17.520Z</time>
      </trkpt>
      <trkpt lat="48.81977" lon="2.42319">
        <ele>111.6</ele>
        <time>2015-05-25T19:01:19.526Z</time>
      </trkpt>
      <trkpt lat="48.81974" lon="2.42317">
        <ele>111.8</ele>
        <time>2015-05-25T19:01:20.547Z</time>
      </trkpt>
      <trkpt lat="48.81969" lon="2.42316">
        <ele>112.1</ele>
        <time>2015-05-25T19:01:21.522Z</time>
      </trkpt>
      <trkpt lat="48.81965" lon="2.42316">
        <ele>112.5</ele>
        <time>2015-05-25T19:01:22.531Z</time>
      </trkpt>
      <trkpt lat="48.81956" lon="2.42316">
        <ele>110.6</ele>
        <time>2015-05-25T19:01:24.555Z</time>
      </trkpt>
      <trkpt lat="48.81952" lon="2.42317">
        <ele>110.5</ele>
        <time>2015-05-25T19:01:25.488Z</time>
      </trkpt>
      <trkpt lat="48.81948" lon="2.42326">
        <ele>110.3</ele>
        <time>2015-05-25T19:01:27.476Z</time>
      </trkpt>
      <trkpt lat="48.81947" lon="2.42331">
        <ele>110.1</ele>
        <time>2015-05-25T19:01:28.473Z</time>
      </trkpt>
      <trkpt lat="48.81944" lon="2.42343">
        <ele>109.5</ele>
        <time>2015-05-25T19:01:31.544Z</time>
      </trkpt>
      <trkpt lat="48.81943" lon="2.42346">
        <ele>109.1</ele>
        <time>2015-05-25T19:01:32.558Z</time>
      </trkpt>
      <trkpt lat="48.81938" lon="2.42357">
        <ele>108.8</ele>
        <time>2015-05-25T19:01:35.524Z</time>
      </trkpt>
      <trkpt lat="48.81937" lon="2.42362">
        <ele>108.8</ele>
        <time>2015-05-25T19:01:36.559Z</time>
      </trkpt>
      <trkpt lat="48.81935" lon="2.42371">
        <ele>108.1</ele>
        <time>2015-05-25T19:01:38.477Z</time>
      </trkpt>
      <trkpt lat="48.81934" lon="2.42375">
        <ele>107.7</ele>
        <time>2015-05-25T19:01:39.480Z</time>
      </trkpt>
      <trkpt lat="48.81932" lon="2.42387">
        <ele>106.8</ele>
        <time>2015-05-25T19:01:41.506Z</time>
      </trkpt>
      <trkpt lat="48.81931" lon="2.42393">
        <ele>106.5</ele>
        <time>2015-05-25T19:01:42.528Z</time>
      </trkpt>
      <trkpt lat="48.81927" lon="2.42403">
        <ele>106.2</ele>
        <time>2015-05-25T19:01:44.476Z</time>
      </trkpt>
      <trkpt lat="48.81925" lon="2.42408">
        <ele>105.4</ele>
        <time>2015-05-25T19:01:45.494Z</time>
      </trkpt>
      <trkpt lat="48.81919" lon="2.42414">
        <ele>104.5</ele>
        <time>2015-05-25T19:01:47.525Z</time>
      </trkpt>
      <trkpt lat="48.81916" lon="2.42418">
        <ele>104.7</ele>
        <time>2015-05-25T19:01:48.525Z</time>
      </trkpt>
      <trkpt lat="48.8191" lon="2.42424">
        <ele>105.2</ele>
        <time>2015-05-25T19:01:50.477Z</time>
      </trkpt>
      <trkpt lat="48.81906" lon="2.42428">
        <ele>104.9</ele>
        <time>2015-05-25T19:01:51.487Z</time>
      </trkpt>
      <trkpt lat="48.81899" lon="2.42435">
        <ele>104.2</ele>
        <time>2015-05-25T19:01:53.507Z</time>
      </trkpt>
      <trkpt lat="48.81896" lon="2.42438">
        <ele>104.1</ele>
        <time>2015-05-25T19:01:54.511Z</time>
      </trkpt>
      <trkpt lat="48.81889" lon="2.42441">
        <ele>103.7</ele>
        <time>2015-05-25T19:01:56.523Z</time>
      </trkpt>
      <trkpt lat="48.81885" lon="2.42442">
        <ele>103.7</ele>
        <time>2015-05-25T19:01:57.532Z</time>
      </trkpt>
      <trkpt lat="48.81878" lon="2.42443">
        <ele>103.8</ele>
        <time>2015-05-25T19:01:59.576Z</time>
      </trkpt>
      <trkpt lat="48.81875" lon="2.42443">
        <ele>104</ele>
        <time>2015-05-25T19:02:00.471Z</time>
      </trkpt>
      <trkpt lat="48.81867" lon="2.42443">
        <ele>105</ele>
        <time>2015-05-25T19:02:03.538Z</time>
      </trkpt>
      <trkpt lat="48.81863" lon="2.42442">
        <ele>105.1</ele>
        <time>2015-05-25T19:02:04.546Z</time>
      </trkpt>
      <trkpt lat="48.81855" lon="2.42439">
        <ele>105.7</ele>
        <time>2015-05-25T19:02:08.521Z</time>
      </trkpt>
      <trkpt lat="48.81853" lon="2.42437">
        <ele>105.8</ele>
        <time>2015-05-25T19:02:09.498Z</time>
      </trkpt>
      <trkpt lat="48.81853" lon="2.42438">
        <ele>106.1</ele>
        <time>2015-05-25T19:03:19.527Z</time>
      </trkpt>
      <trkpt lat="48.81831" lon="2.42453">
        <ele>105.4</ele>
        <time>2015-05-25T19:03:20.514Z</time>
      </trkpt>
      <trkpt lat="48.81823" lon="2.42451">
        <ele>104.8</ele>
        <time>2015-05-25T19:03:23.600Z</time>
      </trkpt>
      <trkpt lat="48.8182" lon="2.4245">
        <ele>104.5</ele>
        <time>2015-05-25T19:03:24.502Z</time>
      </trkpt>
      <trkpt lat="48.81814" lon="2.42452">
        <ele>104.2</ele>
        <time>2015-05-25T19:03:27.572Z</time>
      </trkpt>
      <trkpt lat="48.81813" lon="2.42452">
        <ele>104.5</ele>
        <time>2015-05-25T19:03:28.506Z</time>
      </trkpt>
      <trkpt lat="48.81813" lon="2.42452">
        <ele>105.4</ele>
        <time>2015-05-25T19:04:55.496Z</time>
      </trkpt>
      <trkpt lat="48.81816" lon="2.42455">
        <ele>100.3</ele>
        <time>2015-05-25T19:04:56.508Z</time>
      </trkpt>
      <trkpt lat="48.81813" lon="2.42463">
        <ele>99.7</ele>
        <time>2015-05-25T19:04:59.474Z</time>
      </trkpt>
      <trkpt lat="48.81811" lon="2.42466">
        <ele>100.5</ele>
        <time>2015-05-25T19:05:00.491Z</time>
      </trkpt>
      <trkpt lat="48.81806" lon="2.42476">
        <ele>101.9</ele>
        <time>2015-05-25T19:05:03.476Z</time>
      </trkpt>
      <trkpt lat="48.81805" lon="2.42482">
        <ele>102.2</ele>
        <time>2015-05-25T19:05:04.464Z</time>
      </trkpt>
      <trkpt lat="48.81802" lon="2.42492">
        <ele>102.4</ele>
        <time>2015-05-25T19:05:07.518Z</time>
      </trkpt>
      <trkpt lat="48.81801" lon="2.42497">
        <ele>102.4</ele>
        <time>2015-05-25T19:05:08.530Z</time>
      </trkpt>
      <trkpt lat="48.81802" lon="2.42508">
        <ele>102.4</ele>
        <time>2015-05-25T19:05:10.466Z</time>
      </trkpt>
      <trkpt lat="48.81802" lon="2.42514">
        <ele>102.1</ele>
        <time>2015-05-25T19:05:11.487Z</time>
      </trkpt>
      <trkpt lat="48.81802" lon="2.42526">
        <ele>101.7</ele>
        <time>2015-05-25T19:05:13.520Z</time>
      </trkpt>
      <trkpt lat="48.81802" lon="2.42531">
        <ele>101.6</ele>
        <time>2015-05-25T19:05:14.528Z</time>
      </trkpt>
      <trkpt lat="48.818" lon="2.42544">
        <ele>101.9</ele>
        <time>2015-05-25T19:05:17.517Z</time>
      </trkpt>
      <trkpt lat="48.81801" lon="2.42549">
        <ele>101.9</ele>
        <time>2015-05-25T19:05:18.527Z</time>
      </trkpt>
      <trkpt lat="48.818" lon="2.42561">
        <ele>101.6</ele>
        <time>2015-05-25T19:05:20.553Z</time>
      </trkpt>
      <trkpt lat="48.818" lon="2.42567">
        <ele>102</ele>
        <time>2015-05-25T19:05:21.561Z</time>
      </trkpt>
      <trkpt lat="48.81802" lon="2.42578">
        <ele>102.5</ele>
        <time>2015-05-25T19:05:23.473Z</time>
      </trkpt>
      <trkpt lat="48.81802" lon="2.42584">
        <ele>102.6</ele>
        <time>2015-05-25T19:05:24.477Z</time>
      </trkpt>
      <trkpt lat="48.81799" lon="2.42593">
        <ele>102.6</ele>
        <time>2015-05-25T19:05:26.699Z</time>
      </trkpt>
      <trkpt lat="48.81798" lon="2.42598">
        <ele>102.9</ele>
        <time>2015-05-25T19:05:27.533Z</time>
      </trkpt>
      <trkpt lat="48.81798" lon="2.4261">
        <ele>102.9</ele>
        <time>2015-05-25T19:05:29.442Z</time>
      </trkpt>
      <trkpt lat="48.81799" lon="2.42616">
        <ele>103.1</ele>
        <time>2015-05-25T19:05:30.455Z</time>
      </trkpt>
      <trkpt lat="48.81799" lon="2.42629">
        <ele>103.6</ele>
        <time>2015-05-25T19:05:32.521Z</time>
      </trkpt>
      <trkpt lat="48.81799" lon="2.42636">
        <ele>103.7</ele>
        <time>2015-05-25T19:05:33.488Z</time>
      </trkpt>
      <trkpt lat="48.81799" lon="2.42649">
        <ele>103.8</ele>
        <time>2015-05-25T19:05:35.521Z</time>
      </trkpt>
      <trkpt lat="48.81799" lon="2.42655">
        <ele>103.8</ele>
        <time>2015-05-25T19:05:36.565Z</time>
      </trkpt>
      <trkpt lat="48.818" lon="2.42667">
        <ele>103.8</ele>
        <time>2015-05-25T19:05:38.512Z</time>
      </trkpt>
      <trkpt lat="48.818" lon="2.42675">
        <ele>103.8</ele>
        <time>2015-05-25T19:05:39.597Z</time>
      </trkpt>
      <trkpt lat="48.818" lon="2.42682">
        <ele>103.9</ele>
        <time>2015-05-25T19:05:40.523Z</time>
      </trkpt>
      <trkpt lat="48.818" lon="2.42689">
        <ele>104.4</ele>
        <time>2015-05-25T19:05:41.525Z</time>
      </trkpt>
      <trkpt lat="48.81801" lon="2.42696">
        <ele>104.8</ele>
        <time>2015-05-25T19:05:42.544Z</time>
      </trkpt>
      <trkpt lat="48.81801" lon="2.42703">
        <ele>104.9</ele>
        <time>2015-05-25T19:05:43.549Z</time>
      </trkpt>
      <trkpt lat="48.81801" lon="2.42711">
        <ele>105</ele>
        <time>2015-05-25T19:05:44.459Z</time>
      </trkpt>
      <trkpt lat="48.81801" lon="2.42719">
        <ele>105.2</ele>
        <time>2015-05-25T19:05:45.462Z</time>
      </trkpt>
      <trkpt lat="48.81801" lon="2.42726">
        <ele>105.3</ele>
        <time>2015-05-25T19:05:46.549Z</time>
      </trkpt>
      <trkpt lat="48.81802" lon="2.42734">
        <ele>105.3</ele>
        <time>2015-05-25T19:05:47.443Z</time>
      </trkpt>
      <trkpt lat="48.81802" lon="2.42741">
        <ele>105.2</ele>
        <time>2015-05-25T19:05:48.483Z</time>
      </trkpt>
      <trkpt lat="48.81802" lon="2.42749">
        <ele>105.1</ele>
        <time>2015-05-25T19:05:49.505Z</time>
      </trkpt>
      <trkpt lat="48.81802" lon="2.42757">
        <ele>104.8</ele>
        <time>2015-05-25T19:05:50.526Z</time>
      </trkpt>
      <trkpt lat="48.81801" lon="2.42764">
        <ele>104.6</ele>
        <time>2015-05-25T19:05:51.544Z</time>
      </trkpt>
      <trkpt lat="48.818" lon="2.42772">
        <ele>104.2</ele>
        <time>2015-05-25T19:05:52.501Z</time>
      </trkpt>
      <trkpt lat="48.818" lon="2.42779">
        <ele>103.8</ele>
        <time>2015-05-25T19:05:53.559Z</time>
      </trkpt>
      <trkpt lat="48.818" lon="2.42786">
        <ele>103.5</ele>
        <time>2015-05-25T19:05:54.578Z</time>
      </trkpt>
      <trkpt lat="48.818" lon="2.42794">
        <ele>103.2</ele>
        <time>2015-05-25T19:05:55.590Z</time>
      </trkpt>
      <trkpt lat="48.818" lon="2.42801">
        <ele>102.9</ele>
        <time>2015-05-25T19:05:56.465Z</time>
      </trkpt>
      <trkpt lat="48.81801" lon="2.42809">
        <ele>102.7</ele>
        <time>2015-05-25T19:05:57.473Z</time>
      </trkpt>
      <trkpt lat="48.81801" lon="2.42816">
        <ele>102.3</ele>
        <time>2015-05-25T19:05:58.475Z</time>
      </trkpt>
      <trkpt lat="48.81801" lon="2.42823">
        <ele>102.3</ele>
        <time>2015-05-25T19:05:59.483Z</time>
      </trkpt>
      <trkpt lat="48.818" lon="2.42836">
        <ele>102.3</ele>
        <time>2015-05-25T19:06:01.529Z</time>
      </trkpt>
      <trkpt lat="48.818" lon="2.42844">
        <ele>102.3</ele>
        <time>2015-05-25T19:06:02.576Z</time>
      </trkpt>
      <trkpt lat="48.818" lon="2.42857">
        <ele>102</ele>
        <time>2015-05-25T19:06:04.546Z</time>
      </trkpt>
      <trkpt lat="48.818" lon="2.42863">
        <ele>102</ele>
        <time>2015-05-25T19:06:05.566Z</time>
      </trkpt>
      <trkpt lat="48.818" lon="2.4287">
        <ele>102.1</ele>
        <time>2015-05-25T19:06:06.489Z</time>
      </trkpt>
      <trkpt lat="48.818" lon="2.42878">
        <ele>102.1</ele>
        <time>2015-05-25T19:06:07.490Z</time>
      </trkpt>
      <trkpt lat="48.818" lon="2.42891">
        <ele>102.7</ele>
        <time>2015-05-25T19:06:09.520Z</time>
      </trkpt>
      <trkpt lat="48.81801" lon="2.42897">
        <ele>102.7</ele>
        <time>2015-05-25T19:06:10.524Z</time>
      </trkpt>
      <trkpt lat="48.818" lon="2.4291">
        <ele>102.8</ele>
        <time>2015-05-25T19:06:12.609Z</time>
      </trkpt>
      <trkpt lat="48.818" lon="2.42917">
        <ele>102.5</ele>
        <time>2015-05-25T19:06:13.518Z</time>
      </trkpt>
      <trkpt lat="48.81799" lon="2.42929">
        <ele>102.3</ele>
        <time>2015-05-25T19:06:15.532Z</time>
      </trkpt>
      <trkpt lat="48.81798" lon="2.42936">
        <ele>102.1</ele>
        <time>2015-05-25T19:06:16.546Z</time>
      </trkpt>
      <trkpt lat="48.81799" lon="2.42942">
        <ele>102.1</ele>
        <time>2015-05-25T19:06:17.169Z</time>
      </trkpt>
      <trkpt lat="48.81799" lon="2.4295">
        <ele>101.8</ele>
        <time>2015-05-25T19:06:18.445Z</time>
      </trkpt>
      <trkpt lat="48.81799" lon="2.42957">
        <ele>101.4</ele>
        <time>2015-05-25T19:06:19.516Z</time>
      </trkpt>
      <trkpt lat="48.81799" lon="2.42964">
        <ele>101.1</ele>
        <time>2015-05-25T19:06:20.525Z</time>
      </trkpt>
      <trkpt lat="48.81799" lon="2.42972">
        <ele>100.7</ele>
        <time>2015-05-25T19:06:21.544Z</time>
      </trkpt>
      <trkpt lat="48.818" lon="2.42979">
        <ele>100.5</ele>
        <time>2015-05-25T19:06:22.563Z</time>
      </trkpt>
      <trkpt lat="48.818" lon="2.42986">
        <ele>100.2</ele>
        <time>2015-05-25T19:06:23.448Z</time>
      </trkpt>
      <trkpt lat="48.818" lon="2.42993">
        <ele>100.1</ele>
        <time>2015-05-25T19:06:24.471Z</time>
      </trkpt>
      <trkpt lat="48.818" lon="2.43001">
        <ele>100.1</ele>
        <time>2015-05-25T19:06:26.205Z</time>
      </trkpt>
      <trkpt lat="48.818" lon="2.43008">
        <ele>99.9</ele>
        <time>2015-05-25T19:06:26.533Z</time>
      </trkpt>
      <trkpt lat="48.81799" lon="2.43015">
        <ele>99.5</ele>
        <time>2015-05-25T19:06:27.532Z</time>
      </trkpt>
      <trkpt lat="48.818" lon="2.43023">
        <ele>98.9</ele>
        <time>2015-05-25T19:06:28.449Z</time>
      </trkpt>
      <trkpt lat="48.818" lon="2.43032">
        <ele>98.6</ele>
        <time>2015-05-25T19:06:29.474Z</time>
      </trkpt>
      <trkpt lat="48.818" lon="2.43041">
        <ele>98.3</ele>
        <time>2015-05-25T19:06:30.481Z</time>
      </trkpt>
      <trkpt lat="48.81802" lon="2.43049">
        <ele>98.6</ele>
        <time>2015-05-25T19:06:31.507Z</time>
      </trkpt>
      <trkpt lat="48.81804" lon="2.43057">
        <ele>98.5</ele>
        <time>2015-05-25T19:06:32.504Z</time>
      </trkpt>
      <trkpt lat="48.81806" lon="2.43066">
        <ele>98.5</ele>
        <time>2015-05-25T19:06:33.524Z</time>
      </trkpt>
      <trkpt lat="48.81806" lon="2.43075">
        <ele>98.1</ele>
        <time>2015-05-25T19:06:34.535Z</time>
      </trkpt>
      <trkpt lat="48.81806" lon="2.43083">
        <ele>97.7</ele>
        <time>2015-05-25T19:06:35.467Z</time>
      </trkpt>
      <trkpt lat="48.81806" lon="2.43092">
        <ele>97.3</ele>
        <time>2015-05-25T19:06:36.477Z</time>
      </trkpt>
      <trkpt lat="48.81807" lon="2.43101">
        <ele>97</ele>
        <time>2015-05-25T19:06:37.525Z</time>
      </trkpt>
      <trkpt lat="48.81808" lon="2.4311">
        <ele>96.7</ele>
        <time>2015-05-25T19:06:38.540Z</time>
      </trkpt>
      <trkpt lat="48.8181" lon="2.43119">
        <ele>96.4</ele>
        <time>2015-05-25T19:06:39.466Z</time>
      </trkpt>
      <trkpt lat="48.81811" lon="2.43128">
        <ele>96.2</ele>
        <time>2015-05-25T19:06:40.540Z</time>
      </trkpt>
      <trkpt lat="48.81811" lon="2.43136">
        <ele>96.3</ele>
        <time>2015-05-25T19:06:41.467Z</time>
      </trkpt>
      <trkpt lat="48.81811" lon="2.43144">
        <ele>96.4</ele>
        <time>2015-05-25T19:06:42.478Z</time>
      </trkpt>
      <trkpt lat="48.81813" lon="2.43152">
        <ele>96.5</ele>
        <time>2015-05-25T19:06:43.513Z</time>
      </trkpt>
      <trkpt lat="48.81813" lon="2.43161">
        <ele>96</ele>
        <time>2015-05-25T19:06:44.522Z</time>
      </trkpt>
      <trkpt lat="48.81814" lon="2.43168">
        <ele>95.9</ele>
        <time>2015-05-25T19:06:45.540Z</time>
      </trkpt>
      <trkpt lat="48.81813" lon="2.43176">
        <ele>95.7</ele>
        <time>2015-05-25T19:06:46.481Z</time>
      </trkpt>
      <trkpt lat="48.81812" lon="2.43188">
        <ele>95.4</ele>
        <time>2015-05-25T19:06:48.479Z</time>
      </trkpt>
      <trkpt lat="48.81812" lon="2.43195">
        <ele>95.7</ele>
        <time>2015-05-25T19:06:49.594Z</time>
      </trkpt>
      <trkpt lat="48.81813" lon="2.43203">
        <ele>96.2</ele>
        <time>2015-05-25T19:06:50.464Z</time>
      </trkpt>
      <trkpt lat="48.81814" lon="2.4321">
        <ele>96.4</ele>
        <time>2015-05-25T19:06:51.457Z</time>
      </trkpt>
      <trkpt lat="48.81814" lon="2.43218">
        <ele>96.5</ele>
        <time>2015-05-25T19:06:52.464Z</time>
      </trkpt>
      <trkpt lat="48.81815" lon="2.43225">
        <ele>96.4</ele>
        <time>2015-05-25T19:06:53.474Z</time>
      </trkpt>
      <trkpt lat="48.81817" lon="2.43239">
        <ele>96.6</ele>
        <time>2015-05-25T19:06:56.544Z</time>
      </trkpt>
      <trkpt lat="48.81818" lon="2.43239">
        <ele>96.3</ele>
        <time>2015-05-25T19:06:57.449Z</time>
      </trkpt>
      <trkpt lat="48.81826" lon="2.43233">
        <ele>94.7</ele>
        <time>2015-05-25T19:07:01.532Z</time>
      </trkpt>
      <trkpt lat="48.81829" lon="2.43232">
        <ele>94.6</ele>
        <time>2015-05-25T19:07:02.526Z</time>
      </trkpt>
      <trkpt lat="48.81835" lon="2.43229">
        <ele>95.1</ele>
        <time>2015-05-25T19:07:04.487Z</time>
      </trkpt>
      <trkpt lat="48.81839" lon="2.43229">
        <ele>95.7</ele>
        <time>2015-05-25T19:07:05.516Z</time>
      </trkpt>
      <trkpt lat="48.81847" lon="2.43233">
        <ele>96.3</ele>
        <time>2015-05-25T19:07:08.510Z</time>
      </trkpt>
      <trkpt lat="48.8185" lon="2.43235">
        <ele>96.2</ele>
        <time>2015-05-25T19:07:09.524Z</time>
      </trkpt>
      <trkpt lat="48.81853" lon="2.43245">
        <ele>97.5</ele>
        <time>2015-05-25T19:07:13.488Z</time>
      </trkpt>
      <trkpt lat="48.81854" lon="2.43248">
        <ele>97.5</ele>
        <time>2015-05-25T19:07:14.502Z</time>
      </trkpt>
      <trkpt lat="48.81856" lon="2.4326">
        <ele>96.5</ele>
        <time>2015-05-25T19:07:18.501Z</time>
      </trkpt>
      <trkpt lat="48.81857" lon="2.43264">
        <ele>96.2</ele>
        <time>2015-05-25T19:07:19.537Z</time>
      </trkpt>
      <trkpt lat="48.81861" lon="2.43275">
        <ele>95.5</ele>
        <time>2015-05-25T19:07:21.475Z</time>
      </trkpt>
      <trkpt lat="48.81862" lon="2.43279">
        <ele>95.4</ele>
        <time>2015-05-25T19:07:22.494Z</time>
      </trkpt>
      <trkpt lat="48.81864" lon="2.43289">
        <ele>95</ele>
        <time>2015-05-25T19:07:25.490Z</time>
      </trkpt>
      <trkpt lat="48.81864" lon="2.43292">
        <ele>95</ele>
        <time>2015-05-25T19:07:26.527Z</time>
      </trkpt>
      <trkpt lat="48.81865" lon="2.43304">
        <ele>95.2</ele>
        <time>2015-05-25T19:07:30.514Z</time>
      </trkpt>
      <trkpt lat="48.81866" lon="2.43308">
        <ele>95.2</ele>
        <time>2015-05-25T19:07:31.542Z</time>
      </trkpt>
      <trkpt lat="48.81867" lon="2.43319">
        <ele>95.9</ele>
        <time>2015-05-25T19:07:34.506Z</time>
      </trkpt>
      <trkpt lat="48.81868" lon="2.43323">
        <ele>96.2</ele>
        <time>2015-05-25T19:07:35.508Z</time>
      </trkpt>
      <trkpt lat="48.81871" lon="2.43335">
        <ele>97.7</ele>
        <time>2015-05-25T19:07:40.533Z</time>
      </trkpt>
      <trkpt lat="48.81872" lon="2.43337">
        <ele>98</ele>
        <time>2015-05-25T19:07:41.551Z</time>
      </trkpt>
      <trkpt lat="48.81879" lon="2.43344">
        <ele>98.1</ele>
        <time>2015-05-25T19:07:45.557Z</time>
      </trkpt>
      <trkpt lat="48.8188" lon="2.43346">
        <ele>98.1</ele>
        <time>2015-05-25T19:07:46.469Z</time>
      </trkpt>
      <trkpt lat="48.81885" lon="2.43354">
        <ele>98.3</ele>
        <time>2015-05-25T19:07:50.528Z</time>
      </trkpt>
      <trkpt lat="48.81887" lon="2.43357">
        <ele>98.8</ele>
        <time>2015-05-25T19:07:51.538Z</time>
      </trkpt>
      <trkpt lat="48.81893" lon="2.43362">
        <ele>99.2</ele>
        <time>2015-05-25T19:07:53.475Z</time>
      </trkpt>
      <trkpt lat="48.81896" lon="2.43364">
        <ele>99.5</ele>
        <time>2015-05-25T19:07:54.466Z</time>
      </trkpt>
      <trkpt lat="48.81901" lon="2.43372">
        <ele>99.2</ele>
        <time>2015-05-25T19:07:57.522Z</time>
      </trkpt>
      <trkpt lat="48.81903" lon="2.43375">
        <ele>99.3</ele>
        <time>2015-05-25T19:07:58.554Z</time>
      </trkpt>
      <trkpt lat="48.8191" lon="2.43381">
        <ele>99.5</ele>
        <time>2015-05-25T19:08:03.143Z</time>
      </trkpt>
      <trkpt lat="48.81911" lon="2.43383">
        <ele>99.7</ele>
        <time>2015-05-25T19:08:03.469Z</time>
      </trkpt>
      <trkpt lat="48.81917" lon="2.43393">
        <ele>100.7</ele>
        <time>2015-05-25T19:08:06.512Z</time>
      </trkpt>
      <trkpt lat="48.81918" lon="2.43395">
        <ele>100.9</ele>
        <time>2015-05-25T19:08:07.583Z</time>
      </trkpt>
      <trkpt lat="48.81924" lon="2.43405">
        <ele>101.9</ele>
        <time>2015-05-25T19:08:11.474Z</time>
      </trkpt>
      <trkpt lat="48.81926" lon="2.43407">
        <ele>102.1</ele>
        <time>2015-05-25T19:08:12.500Z</time>
      </trkpt>
      <trkpt lat="48.81933" lon="2.43413">
        <ele>102.6</ele>
        <time>2015-05-25T19:08:16.504Z</time>
      </trkpt>
      <trkpt lat="48.81934" lon="2.43415">
        <ele>102.8</ele>
        <time>2015-05-25T19:08:17.445Z</time>
      </trkpt>
      <trkpt lat="48.81939" lon="2.43426">
        <ele>103.7</ele>
        <time>2015-05-25T19:08:21.444Z</time>
      </trkpt>
      <trkpt lat="48.8194" lon="2.43431">
        <ele>103.9</ele>
        <time>2015-05-25T19:08:22.513Z</time>
      </trkpt>
      <trkpt lat="48.81944" lon="2.43441">
        <ele>104.1</ele>
        <time>2015-05-25T19:08:26.511Z</time>
      </trkpt>
      <trkpt lat="48.81945" lon="2.43443">
        <ele>104.1</ele>
        <time>2015-05-25T19:08:27.440Z</time>
      </trkpt>
      <trkpt lat="48.81951" lon="2.43452">
        <ele>104.9</ele>
        <time>2015-05-25T19:08:32.610Z</time>
      </trkpt>
      <trkpt lat="48.81953" lon="2.43455">
        <ele>105.2</ele>
        <time>2015-05-25T19:08:33.456Z</time>
      </trkpt>
      <trkpt lat="48.81958" lon="2.43464">
        <ele>106.9</ele>
        <time>2015-05-25T19:08:36.474Z</time>
      </trkpt>
      <trkpt lat="48.8196" lon="2.43467">
        <ele>107.3</ele>
        <time>2015-05-25T19:08:37.532Z</time>
      </trkpt>
      <trkpt lat="48.81965" lon="2.43476">
        <ele>107.9</ele>
        <time>2015-05-25T19:08:40.526Z</time>
      </trkpt>
      <trkpt lat="48.81967" lon="2.43478">
        <ele>108</ele>
        <time>2015-05-25T19:08:41.449Z</time>
      </trkpt>
      <trkpt lat="48.81971" lon="2.43488">
        <ele>108.2</ele>
        <time>2015-05-25T19:08:45.542Z</time>
      </trkpt>
      <trkpt lat="48.81972" lon="2.4349">
        <ele>108.1</ele>
        <time>2015-05-25T19:08:46.549Z</time>
      </trkpt>
      <trkpt lat="48.81971" lon="2.43503">
        <ele>110.2</ele>
        <time>2015-05-25T19:08:52.997Z</time>
      </trkpt>
      <trkpt lat="48.8197" lon="2.43507">
        <ele>110.4</ele>
        <time>2015-05-25T19:08:53.483Z</time>
      </trkpt>
      <trkpt lat="48.81973" lon="2.43519">
        <ele>131.5</ele>
        <time>2015-05-25T19:12:26.656Z</time>
      </trkpt>
      <trkpt lat="48.81974" lon="2.43521">
        <ele>131.7</ele>
        <time>2015-05-25T19:12:27.474Z</time>
      </trkpt>
      <trkpt lat="48.81977" lon="2.43533">
        <ele>129.6</ele>
        <time>2015-05-25T19:12:34.488Z</time>
      </trkpt>
      <trkpt lat="48.81977" lon="2.43535">
        <ele>129.5</ele>
        <time>2015-05-25T19:12:35.495Z</time>
      </trkpt>
      <trkpt lat="48.81975" lon="2.43548">
        <ele>128.4</ele>
        <time>2015-05-25T19:12:40.476Z</time>
      </trkpt>
      <trkpt lat="48.81975" lon="2.43551">
        <ele>128.1</ele>
        <time>2015-05-25T19:12:41.488Z</time>
      </trkpt>
      <trkpt lat="48.81975" lon="2.43563">
        <ele>127.3</ele>
        <time>2015-05-25T19:12:45.454Z</time>
      </trkpt>
      <trkpt lat="48.81975" lon="2.43567">
        <ele>126.7</ele>
        <time>2015-05-25T19:12:46.529Z</time>
      </trkpt>
      <trkpt lat="48.81972" lon="2.43578">
        <ele>126</ele>
        <time>2015-05-25T19:12:49.583Z</time>
      </trkpt>
      <trkpt lat="48.81972" lon="2.43582">
        <ele>125.6</ele>
        <time>2015-05-25T19:12:50.493Z</time>
      </trkpt>
      <trkpt lat="48.81971" lon="2.43595">
        <ele>124.1</ele>
        <time>2015-05-25T19:12:54.552Z</time>
      </trkpt>
      <trkpt lat="48.81971" lon="2.43598">
        <ele>123.7</ele>
        <time>2015-05-25T19:12:55.572Z</time>
      </trkpt>
      <trkpt lat="48.81976" lon="2.43609">
        <ele>123</ele>
        <time>2015-05-25T19:12:58.489Z</time>
      </trkpt>
      <trkpt lat="48.81977" lon="2.43611">
        <ele>122.8</ele>
        <time>2015-05-25T19:12:59.508Z</time>
      </trkpt>
      <trkpt lat="48.81981" lon="2.43621">
        <ele>121.8</ele>
        <time>2015-05-25T19:13:02.489Z</time>
      </trkpt>
      <trkpt lat="48.8198" lon="2.43625">
        <ele>121.1</ele>
        <time>2015-05-25T19:13:03.579Z</time>
      </trkpt>
      <trkpt lat="48.81977" lon="2.43634">
        <ele>120.5</ele>
        <time>2015-05-25T19:13:05.527Z</time>
      </trkpt>
      <trkpt lat="48.81976" lon="2.43638">
        <ele>120.5</ele>
        <time>2015-05-25T19:13:06.558Z</time>
      </trkpt>
      <trkpt lat="48.81973" lon="2.43647">
        <ele>120.6</ele>
        <time>2015-05-25T19:13:08.466Z</time>
      </trkpt>
      <trkpt lat="48.8197" lon="2.43652">
        <ele>120.3</ele>
        <time>2015-05-25T19:13:09.489Z</time>
      </trkpt>
      <trkpt lat="48.81965" lon="2.43664">
        <ele>120.4</ele>
        <time>2015-05-25T19:13:11.488Z</time>
      </trkpt>
      <trkpt lat="48.81963" lon="2.4367">
        <ele>120.4</ele>
        <time>2015-05-25T19:13:12.500Z</time>
      </trkpt>
      <trkpt lat="48.81961" lon="2.43676">
        <ele>120.7</ele>
        <time>2015-05-25T19:13:13.542Z</time>
      </trkpt>
      <trkpt lat="48.81959" lon="2.43683">
        <ele>120.7</ele>
        <time>2015-05-25T19:13:14.549Z</time>
      </trkpt>
      <trkpt lat="48.81957" lon="2.43689">
        <ele>120.6</ele>
        <time>2015-05-25T19:13:15.471Z</time>
      </trkpt>
      <trkpt lat="48.81955" lon="2.43695">
        <ele>120.5</ele>
        <time>2015-05-25T19:13:16.470Z</time>
      </trkpt>
      <trkpt lat="48.81951" lon="2.43707">
        <ele>120.2</ele>
        <time>2015-05-25T19:13:18.511Z</time>
      </trkpt>
      <trkpt lat="48.8195" lon="2.43713">
        <ele>120.3</ele>
        <time>2015-05-25T19:13:19.597Z</time>
      </trkpt>
      <trkpt lat="48.81946" lon="2.43725">
        <ele>120.3</ele>
        <time>2015-05-25T19:13:21.470Z</time>
      </trkpt>
      <trkpt lat="48.81944" lon="2.43731">
        <ele>120.5</ele>
        <time>2015-05-25T19:13:22.491Z</time>
      </trkpt>
      <trkpt lat="48.81941" lon="2.43743">
        <ele>120</ele>
        <time>2015-05-25T19:13:24.480Z</time>
      </trkpt>
      <trkpt lat="48.81939" lon="2.4375">
        <ele>119.7</ele>
        <time>2015-05-25T19:13:25.532Z</time>
      </trkpt>
      <trkpt lat="48.81937" lon="2.43756">
        <ele>119.1</ele>
        <time>2015-05-25T19:13:26.490Z</time>
      </trkpt>
      <trkpt lat="48.81934" lon="2.43762">
        <ele>119</ele>
        <time>2015-05-25T19:13:27.468Z</time>
      </trkpt>
      <trkpt lat="48.81933" lon="2.43769">
        <ele>118.9</ele>
        <time>2015-05-25T19:13:29.606Z</time>
      </trkpt>
      <trkpt lat="48.81931" lon="2.43775">
        <ele>119</ele>
        <time>2015-05-25T19:13:30.628Z</time>
      </trkpt>
      <trkpt lat="48.81929" lon="2.43781">
        <ele>119</ele>
        <time>2015-05-25T19:13:31.654Z</time>
      </trkpt>
      <trkpt lat="48.81927" lon="2.43788">
        <ele>119</ele>
        <time>2015-05-25T19:13:32.697Z</time>
      </trkpt>
      <trkpt lat="48.81925" lon="2.43795">
        <ele>118.9</ele>
        <time>2015-05-25T19:13:33.695Z</time>
      </trkpt>
      <trkpt lat="48.81923" lon="2.43802">
        <ele>118.7</ele>
        <time>2015-05-25T19:13:34.706Z</time>
      </trkpt>
      <trkpt lat="48.81921" lon="2.43809">
        <ele>118.8</ele>
        <time>2015-05-25T19:13:35.593Z</time>
      </trkpt>
      <trkpt lat="48.81919" lon="2.43816">
        <ele>118.9</ele>
        <time>2015-05-25T19:13:36.627Z</time>
      </trkpt>
      <trkpt lat="48.81918" lon="2.43824">
        <ele>119.1</ele>
        <time>2015-05-25T19:13:37.642Z</time>
      </trkpt>
      <trkpt lat="48.81916" lon="2.43832">
        <ele>119.2</ele>
        <time>2015-05-25T19:13:38.649Z</time>
      </trkpt>
      <trkpt lat="48.81914" lon="2.43841">
        <ele>119.3</ele>
        <time>2015-05-25T19:13:39.668Z</time>
      </trkpt>
      <trkpt lat="48.81912" lon="2.43849">
        <ele>119.4</ele>
        <time>2015-05-25T19:13:40.679Z</time>
      </trkpt>
      <trkpt lat="48.8191" lon="2.43858">
        <ele>119.3</ele>
        <time>2015-05-25T19:13:41.704Z</time>
      </trkpt>
      <trkpt lat="48.81908" lon="2.43867">
        <ele>119.2</ele>
        <time>2015-05-25T19:13:42.709Z</time>
      </trkpt>
      <trkpt lat="48.81907" lon="2.43875">
        <ele>119</ele>
        <time>2015-05-25T19:13:43.631Z</time>
      </trkpt>
      <trkpt lat="48.81905" lon="2.43883">
        <ele>119.2</ele>
        <time>2015-05-25T19:13:44.655Z</time>
      </trkpt>
      <trkpt lat="48.81904" lon="2.43892">
        <ele>119.1</ele>
        <time>2015-05-25T19:13:45.677Z</time>
      </trkpt>
      <trkpt lat="48.81902" lon="2.439">
        <ele>118.9</ele>
        <time>2015-05-25T19:13:46.690Z</time>
      </trkpt>
      <trkpt lat="48.81902" lon="2.43909">
        <ele>119.1</ele>
        <time>2015-05-25T19:13:47.587Z</time>
      </trkpt>
      <trkpt lat="48.81901" lon="2.43918">
        <ele>119.1</ele>
        <time>2015-05-25T19:13:49.085Z</time>
      </trkpt>
      <trkpt lat="48.81899" lon="2.43927">
        <ele>118.9</ele>
        <time>2015-05-25T19:13:50.151Z</time>
      </trkpt>
      <trkpt lat="48.81898" lon="2.43936">
        <ele>119.2</ele>
        <time>2015-05-25T19:13:51.126Z</time>
      </trkpt>
      <trkpt lat="48.81896" lon="2.43944">
        <ele>119</ele>
        <time>2015-05-25T19:13:52.174Z</time>
      </trkpt>
      <trkpt lat="48.81895" lon="2.43953">
        <ele>119</ele>
        <time>2015-05-25T19:13:53.135Z</time>
      </trkpt>
      <trkpt lat="48.81893" lon="2.43961">
        <ele>119</ele>
        <time>2015-05-25T19:13:54.078Z</time>
      </trkpt>
      <trkpt lat="48.81892" lon="2.4397">
        <ele>118.8</ele>
        <time>2015-05-25T19:13:55.175Z</time>
      </trkpt>
      <trkpt lat="48.8189" lon="2.4398">
        <ele>118.3</ele>
        <time>2015-05-25T19:13:56.148Z</time>
      </trkpt>
      <trkpt lat="48.81889" lon="2.43991">
        <ele>118.3</ele>
        <time>2015-05-25T19:13:57.170Z</time>
      </trkpt>
      <trkpt lat="48.81889" lon="2.44">
        <ele>118.5</ele>
        <time>2015-05-25T19:13:58.055Z</time>
      </trkpt>
      <trkpt lat="48.81888" lon="2.4401">
        <ele>118.3</ele>
        <time>2015-05-25T19:13:59.110Z</time>
      </trkpt>
      <trkpt lat="48.81888" lon="2.44019">
        <ele>118.3</ele>
        <time>2015-05-25T19:14:00.130Z</time>
      </trkpt>
      <trkpt lat="48.81886" lon="2.44028">
        <ele>118.3</ele>
        <time>2015-05-25T19:14:01.137Z</time>
      </trkpt>
      <trkpt lat="48.81885" lon="2.44037">
        <ele>118.2</ele>
        <time>2015-05-25T19:14:02.141Z</time>
      </trkpt>
      <trkpt lat="48.81884" lon="2.44047">
        <ele>118.2</ele>
        <time>2015-05-25T19:14:03.146Z</time>
      </trkpt>
      <trkpt lat="48.81883" lon="2.44056">
        <ele>118.4</ele>
        <time>2015-05-25T19:14:04.163Z</time>
      </trkpt>
      <trkpt lat="48.8188" lon="2.44066">
        <ele>118.5</ele>
        <time>2015-05-25T19:14:05.094Z</time>
      </trkpt>
      <trkpt lat="48.81878" lon="2.44076">
        <ele>118.6</ele>
        <time>2015-05-25T19:14:06.131Z</time>
      </trkpt>
      <trkpt lat="48.81876" lon="2.44086">
        <ele>118.8</ele>
        <time>2015-05-25T19:14:07.118Z</time>
      </trkpt>
      <trkpt lat="48.81875" lon="2.44096">
        <ele>119.2</ele>
        <time>2015-05-25T19:14:08.160Z</time>
      </trkpt>
      <trkpt lat="48.81874" lon="2.44107">
        <ele>119.3</ele>
        <time>2015-05-25T19:14:09.173Z</time>
      </trkpt>
      <trkpt lat="48.81872" lon="2.44118">
        <ele>119.2</ele>
        <time>2015-05-25T19:14:10.142Z</time>
      </trkpt>
      <trkpt lat="48.81871" lon="2.44128">
        <ele>119.2</ele>
        <time>2015-05-25T19:14:11.095Z</time>
      </trkpt>
      <trkpt lat="48.8187" lon="2.44139">
        <ele>119.4</ele>
        <time>2015-05-25T19:14:12.116Z</time>
      </trkpt>
      <trkpt lat="48.8187" lon="2.4415">
        <ele>119.7</ele>
        <time>2015-05-25T19:14:13.131Z</time>
      </trkpt>
      <trkpt lat="48.81869" lon="2.44161">
        <ele>119.4</ele>
        <time>2015-05-25T19:14:14.141Z</time>
      </trkpt>
      <trkpt lat="48.81868" lon="2.44172">
        <ele>118.8</ele>
        <time>2015-05-25T19:14:15.158Z</time>
      </trkpt>
      <trkpt lat="48.81867" lon="2.44183">
        <ele>118.3</ele>
        <time>2015-05-25T19:14:16.127Z</time>
      </trkpt>
      <trkpt lat="48.81866" lon="2.44194">
        <ele>117.9</ele>
        <time>2015-05-25T19:14:17.063Z</time>
      </trkpt>
      <trkpt lat="48.81865" lon="2.44204">
        <ele>117.6</ele>
        <time>2015-05-25T19:14:18.059Z</time>
      </trkpt>
      <trkpt lat="48.81864" lon="2.44215">
        <ele>117.3</ele>
        <time>2015-05-25T19:14:19.105Z</time>
      </trkpt>
      <trkpt lat="48.81864" lon="2.44225">
        <ele>116.9</ele>
        <time>2015-05-25T19:14:20.122Z</time>
      </trkpt>
      <trkpt lat="48.81864" lon="2.44235">
        <ele>116.2</ele>
        <time>2015-05-25T19:14:21.148Z</time>
      </trkpt>
      <trkpt lat="48.81864" lon="2.44245">
        <ele>115.7</ele>
        <time>2015-05-25T19:14:22.203Z</time>
      </trkpt>
      <trkpt lat="48.81863" lon="2.44255">
        <ele>115.1</ele>
        <time>2015-05-25T19:14:23.046Z</time>
      </trkpt>
      <trkpt lat="48.81863" lon="2.44264">
        <ele>114.7</ele>
        <time>2015-05-25T19:14:24.075Z</time>
      </trkpt>
      <trkpt lat="48.81864" lon="2.44275">
        <ele>114.4</ele>
        <time>2015-05-25T19:14:25.081Z</time>
      </trkpt>
      <trkpt lat="48.81864" lon="2.44285">
        <ele>114</ele>
        <time>2015-05-25T19:14:26.099Z</time>
      </trkpt>
      <trkpt lat="48.81864" lon="2.44295">
        <ele>113.7</ele>
        <time>2015-05-25T19:14:27.119Z</time>
      </trkpt>
      <trkpt lat="48.81864" lon="2.44305">
        <ele>113.4</ele>
        <time>2015-05-25T19:14:28.121Z</time>
      </trkpt>
      <trkpt lat="48.81864" lon="2.44315">
        <ele>113.1</ele>
        <time>2015-05-25T19:14:29.121Z</time>
      </trkpt>
      <trkpt lat="48.81864" lon="2.44325">
        <ele>113</ele>
        <time>2015-05-25T19:14:30.132Z</time>
      </trkpt>
      <trkpt lat="48.81863" lon="2.44334">
        <ele>113.2</ele>
        <time>2015-05-25T19:14:31.142Z</time>
      </trkpt>
      <trkpt lat="48.81863" lon="2.44345">
        <ele>113.4</ele>
        <time>2015-05-25T19:14:32.155Z</time>
      </trkpt>
      <trkpt lat="48.81863" lon="2.44356">
        <ele>113.8</ele>
        <time>2015-05-25T19:14:33.170Z</time>
      </trkpt>
      <trkpt lat="48.81862" lon="2.44366">
        <ele>114.1</ele>
        <time>2015-05-25T19:14:34.077Z</time>
      </trkpt>
      <trkpt lat="48.81862" lon="2.44376">
        <ele>114</ele>
        <time>2015-05-25T19:14:35.074Z</time>
      </trkpt>
      <trkpt lat="48.81862" lon="2.44386">
        <ele>114</ele>
        <time>2015-05-25T19:14:36.085Z</time>
      </trkpt>
      <trkpt lat="48.81863" lon="2.44396">
        <ele>113.8</ele>
        <time>2015-05-25T19:14:37.090Z</time>
      </trkpt>
      <trkpt lat="48.81863" lon="2.44405">
        <ele>113.5</ele>
        <time>2015-05-25T19:14:38.096Z</time>
      </trkpt>
      <trkpt lat="48.81863" lon="2.44416">
        <ele>113.6</ele>
        <time>2015-05-25T19:14:39.106Z</time>
      </trkpt>
      <trkpt lat="48.81863" lon="2.44426">
        <ele>113.6</ele>
        <time>2015-05-25T19:14:40.144Z</time>
      </trkpt>
      <trkpt lat="48.81863" lon="2.44436">
        <ele>113.7</ele>
        <time>2015-05-25T19:14:41.141Z</time>
      </trkpt>
      <trkpt lat="48.81864" lon="2.44445">
        <ele>113.9</ele>
        <time>2015-05-25T19:14:42.185Z</time>
      </trkpt>
      <trkpt lat="48.81864" lon="2.44455">
        <ele>114</ele>
        <time>2015-05-25T19:14:43.047Z</time>
      </trkpt>
      <trkpt lat="48.81864" lon="2.44465">
        <ele>113.9</ele>
        <time>2015-05-25T19:14:44.097Z</time>
      </trkpt>
      <trkpt lat="48.81864" lon="2.44474">
        <ele>113.9</ele>
        <time>2015-05-25T19:14:45.112Z</time>
      </trkpt>
      <trkpt lat="48.81864" lon="2.44482">
        <ele>113.6</ele>
        <time>2015-05-25T19:14:46.107Z</time>
      </trkpt>
      <trkpt lat="48.81863" lon="2.4449">
        <ele>113.6</ele>
        <time>2015-05-25T19:14:47.120Z</time>
      </trkpt>
      <trkpt lat="48.81863" lon="2.445">
        <ele>113.8</ele>
        <time>2015-05-25T19:14:48.124Z</time>
      </trkpt>
      <trkpt lat="48.81862" lon="2.44509">
        <ele>113.9</ele>
        <time>2015-05-25T19:14:49.131Z</time>
      </trkpt>
      <trkpt lat="48.81863" lon="2.44518">
        <ele>114.1</ele>
        <time>2015-05-25T19:14:50.137Z</time>
      </trkpt>
      <trkpt lat="48.81864" lon="2.44526">
        <ele>114.3</ele>
        <time>2015-05-25T19:14:51.144Z</time>
      </trkpt>
      <trkpt lat="48.81865" lon="2.44535">
        <ele>114.4</ele>
        <time>2015-05-25T19:14:52.163Z</time>
      </trkpt>
      <trkpt lat="48.81866" lon="2.44544">
        <ele>114.5</ele>
        <time>2015-05-25T19:14:53.077Z</time>
      </trkpt>
      <trkpt lat="48.81867" lon="2.44553">
        <ele>114.5</ele>
        <time>2015-05-25T19:14:54.078Z</time>
      </trkpt>
      <trkpt lat="48.81867" lon="2.44561">
        <ele>114.6</ele>
        <time>2015-05-25T19:14:55.080Z</time>
      </trkpt>
      <trkpt lat="48.81867" lon="2.4457">
        <ele>114.3</ele>
        <time>2015-05-25T19:14:56.095Z</time>
      </trkpt>
      <trkpt lat="48.81867" lon="2.44578">
        <ele>114.2</ele>
        <time>2015-05-25T19:14:57.104Z</time>
      </trkpt>
      <trkpt lat="48.81868" lon="2.44588">
        <ele>114.4</ele>
        <time>2015-05-25T19:14:58.113Z</time>
      </trkpt>
      <trkpt lat="48.81869" lon="2.44596">
        <ele>114.7</ele>
        <time>2015-05-25T19:14:59.118Z</time>
      </trkpt>
      <trkpt lat="48.8187" lon="2.44603">
        <ele>114.8</ele>
        <time>2015-05-25T19:15:00.128Z</time>
      </trkpt>
      <trkpt lat="48.8187" lon="2.4461">
        <ele>115</ele>
        <time>2015-05-25T19:15:01.139Z</time>
      </trkpt>
      <trkpt lat="48.8187" lon="2.44618">
        <ele>114.9</ele>
        <time>2015-05-25T19:15:02.062Z</time>
      </trkpt>
      <trkpt lat="48.8187" lon="2.44625">
        <ele>115.3</ele>
        <time>2015-05-25T19:15:03.113Z</time>
      </trkpt>
      <trkpt lat="48.81871" lon="2.44633">
        <ele>115.2</ele>
        <time>2015-05-25T19:15:04.115Z</time>
      </trkpt>
      <trkpt lat="48.8187" lon="2.44639">
        <ele>115.1</ele>
        <time>2015-05-25T19:15:05.145Z</time>
      </trkpt>
      <trkpt lat="48.8187" lon="2.44646">
        <ele>114.7</ele>
        <time>2015-05-25T19:15:06.104Z</time>
      </trkpt>
      <trkpt lat="48.81869" lon="2.44653">
        <ele>114.7</ele>
        <time>2015-05-25T19:15:07.071Z</time>
      </trkpt>
      <trkpt lat="48.81868" lon="2.4466">
        <ele>114.4</ele>
        <time>2015-05-25T19:15:08.091Z</time>
      </trkpt>
      <trkpt lat="48.81868" lon="2.44667">
        <ele>114.6</ele>
        <time>2015-05-25T19:15:09.103Z</time>
      </trkpt>
      <trkpt lat="48.81868" lon="2.44674">
        <ele>114.3</ele>
        <time>2015-05-25T19:15:10.117Z</time>
      </trkpt>
      <trkpt lat="48.81869" lon="2.44681">
        <ele>113.6</ele>
        <time>2015-05-25T19:15:11.118Z</time>
      </trkpt>
      <trkpt lat="48.81869" lon="2.44688">
        <ele>113.1</ele>
        <time>2015-05-25T19:15:12.145Z</time>
      </trkpt>
      <trkpt lat="48.81869" lon="2.44696">
        <ele>112.8</ele>
        <time>2015-05-25T19:15:13.052Z</time>
      </trkpt>
      <trkpt lat="48.81869" lon="2.44705">
        <ele>112.9</ele>
        <time>2015-05-25T19:15:14.098Z</time>
      </trkpt>
      <trkpt lat="48.8187" lon="2.44712">
        <ele>113.1</ele>
        <time>2015-05-25T19:15:15.114Z</time>
      </trkpt>
      <trkpt lat="48.8187" lon="2.4472">
        <ele>113.4</ele>
        <time>2015-05-25T19:15:16.124Z</time>
      </trkpt>
      <trkpt lat="48.8187" lon="2.44728">
        <ele>113.5</ele>
        <time>2015-05-25T19:15:17.134Z</time>
      </trkpt>
      <trkpt lat="48.81871" lon="2.44736">
        <ele>113</ele>
        <time>2015-05-25T19:15:18.048Z</time>
      </trkpt>
      <trkpt lat="48.81871" lon="2.44743">
        <ele>113.4</ele>
        <time>2015-05-25T19:15:19.059Z</time>
      </trkpt>
      <trkpt lat="48.81871" lon="2.44751">
        <ele>113.4</ele>
        <time>2015-05-25T19:15:20.079Z</time>
      </trkpt>
      <trkpt lat="48.8187" lon="2.4476">
        <ele>113.5</ele>
        <time>2015-05-25T19:15:21.109Z</time>
      </trkpt>
      <trkpt lat="48.8187" lon="2.44768">
        <ele>114</ele>
        <time>2015-05-25T19:15:22.133Z</time>
      </trkpt>
      <trkpt lat="48.8187" lon="2.44777">
        <ele>114.2</ele>
        <time>2015-05-25T19:15:23.157Z</time>
      </trkpt>
      <trkpt lat="48.8187" lon="2.44786">
        <ele>114.2</ele>
        <time>2015-05-25T19:15:24.056Z</time>
      </trkpt>
      <trkpt lat="48.8187" lon="2.44795">
        <ele>113.9</ele>
        <time>2015-05-25T19:15:25.078Z</time>
      </trkpt>
      <trkpt lat="48.81871" lon="2.44804">
        <ele>114.1</ele>
        <time>2015-05-25T19:15:26.082Z</time>
      </trkpt>
      <trkpt lat="48.8187" lon="2.44813">
        <ele>114.4</ele>
        <time>2015-05-25T19:15:27.124Z</time>
      </trkpt>
      <trkpt lat="48.81869" lon="2.44822">
        <ele>114.8</ele>
        <time>2015-05-25T19:15:28.144Z</time>
      </trkpt>
      <trkpt lat="48.81868" lon="2.44832">
        <ele>114.5</ele>
        <time>2015-05-25T19:15:29.056Z</time>
      </trkpt>
      <trkpt lat="48.81868" lon="2.44841">
        <ele>115</ele>
        <time>2015-05-25T19:15:30.077Z</time>
      </trkpt>
      <trkpt lat="48.81869" lon="2.4485">
        <ele>115</ele>
        <time>2015-05-25T19:15:31.087Z</time>
      </trkpt>
      <trkpt lat="48.81869" lon="2.4486">
        <ele>115.1</ele>
        <time>2015-05-25T19:15:32.102Z</time>
      </trkpt>
      <trkpt lat="48.8187" lon="2.4487">
        <ele>115</ele>
        <time>2015-05-25T19:15:33.137Z</time>
      </trkpt>
      <trkpt lat="48.8187" lon="2.4488">
        <ele>115</ele>
        <time>2015-05-25T19:15:34.130Z</time>
      </trkpt>
      <trkpt lat="48.8187" lon="2.4489">
        <ele>115.2</ele>
        <time>2015-05-25T19:15:35.144Z</time>
      </trkpt>
      <trkpt lat="48.8187" lon="2.44899">
        <ele>115.2</ele>
        <time>2015-05-25T19:15:36.140Z</time>
      </trkpt>
      <trkpt lat="48.81869" lon="2.44909">
        <ele>115</ele>
        <time>2015-05-25T19:15:37.147Z</time>
      </trkpt>
      <trkpt lat="48.81867" lon="2.44919">
        <ele>114.9</ele>
        <time>2015-05-25T19:15:38.178Z</time>
      </trkpt>
      <trkpt lat="48.81868" lon="2.44928">
        <ele>115.2</ele>
        <time>2015-05-25T19:15:39.167Z</time>
      </trkpt>
      <trkpt lat="48.81867" lon="2.44938">
        <ele>115.4</ele>
        <time>2015-05-25T19:15:40.103Z</time>
      </trkpt>
      <trkpt lat="48.81867" lon="2.44947">
        <ele>115.6</ele>
        <time>2015-05-25T19:15:41.095Z</time>
      </trkpt>
      <trkpt lat="48.81867" lon="2.44957">
        <ele>115.9</ele>
        <time>2015-05-25T19:15:42.110Z</time>
      </trkpt>
      <trkpt lat="48.81866" lon="2.44967">
        <ele>115.9</ele>
        <time>2015-05-25T19:15:43.149Z</time>
      </trkpt>
      <trkpt lat="48.81866" lon="2.44977">
        <ele>115.9</ele>
        <time>2015-05-25T19:15:44.157Z</time>
      </trkpt>
      <trkpt lat="48.81866" lon="2.44987">
        <ele>115.8</ele>
        <time>2015-05-25T19:15:45.158Z</time>
      </trkpt>
      <trkpt lat="48.81865" lon="2.44996">
        <ele>115.8</ele>
        <time>2015-05-25T19:15:46.077Z</time>
      </trkpt>
      <trkpt lat="48.81864" lon="2.45006">
        <ele>115.6</ele>
        <time>2015-05-25T19:15:47.085Z</time>
      </trkpt>
      <trkpt lat="48.81862" lon="2.45016">
        <ele>115.5</ele>
        <time>2015-05-25T19:15:48.090Z</time>
      </trkpt>
      <trkpt lat="48.81862" lon="2.45025">
        <ele>115.4</ele>
        <time>2015-05-25T19:15:49.105Z</time>
      </trkpt>
      <trkpt lat="48.81861" lon="2.45034">
        <ele>115.6</ele>
        <time>2015-05-25T19:15:50.117Z</time>
      </trkpt>
      <trkpt lat="48.8186" lon="2.45043">
        <ele>115.5</ele>
        <time>2015-05-25T19:15:51.137Z</time>
      </trkpt>
      <trkpt lat="48.81859" lon="2.45053">
        <ele>115.3</ele>
        <time>2015-05-25T19:15:52.154Z</time>
      </trkpt>
      <trkpt lat="48.81857" lon="2.45063">
        <ele>115.3</ele>
        <time>2015-05-25T19:15:53.140Z</time>
      </trkpt>
      <trkpt lat="48.81856" lon="2.45072">
        <ele>115.3</ele>
        <time>2015-05-25T19:15:54.169Z</time>
      </trkpt>
      <trkpt lat="48.81855" lon="2.45081">
        <ele>115.2</ele>
        <time>2015-05-25T19:15:55.089Z</time>
      </trkpt>
      <trkpt lat="48.81853" lon="2.45089">
        <ele>115</ele>
        <time>2015-05-25T19:15:56.104Z</time>
      </trkpt>
      <trkpt lat="48.81851" lon="2.45097">
        <ele>114.6</ele>
        <time>2015-05-25T19:15:57.152Z</time>
      </trkpt>
      <trkpt lat="48.81851" lon="2.45106">
        <ele>114.5</ele>
        <time>2015-05-25T19:15:58.085Z</time>
      </trkpt>
      <trkpt lat="48.8185" lon="2.45113">
        <ele>114.4</ele>
        <time>2015-05-25T19:15:59.094Z</time>
      </trkpt>
      <trkpt lat="48.81849" lon="2.45122">
        <ele>114.3</ele>
        <time>2015-05-25T19:16:00.103Z</time>
      </trkpt>
      <trkpt lat="48.81848" lon="2.45128">
        <ele>114.6</ele>
        <time>2015-05-25T19:16:01.130Z</time>
      </trkpt>
      <trkpt lat="48.81846" lon="2.4514">
        <ele>115.5</ele>
        <time>2015-05-25T19:16:03.150Z</time>
      </trkpt>
      <trkpt lat="48.81846" lon="2.45146">
        <ele>116</ele>
        <time>2015-05-25T19:16:04.160Z</time>
      </trkpt>
      <trkpt lat="48.8185" lon="2.45158">
        <ele>115.4</ele>
        <time>2015-05-25T19:16:09.144Z</time>
      </trkpt>
      <trkpt lat="48.81851" lon="2.45158">
        <ele>115.2</ele>
        <time>2015-05-25T19:16:10.222Z</time>
      </trkpt>
      <trkpt lat="48.81857" lon="2.45152">
        <ele>117.7</ele>
        <time>2015-05-25T19:17:31.100Z</time>
      </trkpt>
      <trkpt lat="48.81859" lon="2.45152">
        <ele>117.5</ele>
        <time>2015-05-25T19:17:32.115Z</time>
      </trkpt>
      <trkpt lat="48.81868" lon="2.45154">
        <ele>117.1</ele>
        <time>2015-05-25T19:17:35.241Z</time>
      </trkpt>
      <trkpt lat="48.81871" lon="2.45155">
        <ele>117.2</ele>
        <time>2015-05-25T19:17:36.095Z</time>
      </trkpt>
      <trkpt lat="48.81877" lon="2.45159">
        <ele>117.3</ele>
        <time>2015-05-25T19:17:38.121Z</time>
      </trkpt>
      <trkpt lat="48.81881" lon="2.45163">
        <ele>117.3</ele>
        <time>2015-05-25T19:17:39.143Z</time>
      </trkpt>
      <trkpt lat="48.81888" lon="2.45168">
        <ele>117.4</ele>
        <time>2015-05-25T19:17:41.169Z</time>
      </trkpt>
      <trkpt lat="48.8189" lon="2.4517">
        <ele>117.3</ele>
        <time>2015-05-25T19:17:42.090Z</time>
      </trkpt>
      <trkpt lat="48.81898" lon="2.45175">
        <ele>117.3</ele>
        <time>2015-05-25T19:17:44.115Z</time>
      </trkpt>
      <trkpt lat="48.81901" lon="2.45177">
        <ele>117.2</ele>
        <time>2015-05-25T19:17:45.131Z</time>
      </trkpt>
      <trkpt lat="48.81907" lon="2.45181">
        <ele>117.3</ele>
        <time>2015-05-25T19:17:47.158Z</time>
      </trkpt>
      <trkpt lat="48.8191" lon="2.45183">
        <ele>117.3</ele>
        <time>2015-05-25T19:17:48.086Z</time>
      </trkpt>
      <trkpt lat="48.81915" lon="2.45187">
        <ele>117.7</ele>
        <time>2015-05-25T19:17:50.138Z</time>
      </trkpt>
      <trkpt lat="48.81919" lon="2.45191">
        <ele>117.8</ele>
        <time>2015-05-25T19:17:51.216Z</time>
      </trkpt>
      <trkpt lat="48.81924" lon="2.45196">
        <ele>117.6</ele>
        <time>2015-05-25T19:17:53.101Z</time>
      </trkpt>
      <trkpt lat="48.81927" lon="2.45198">
        <ele>117.4</ele>
        <time>2015-05-25T19:17:54.121Z</time>
      </trkpt>
      <trkpt lat="48.81933" lon="2.45203">
        <ele>117.8</ele>
        <time>2015-05-25T19:17:56.162Z</time>
      </trkpt>
      <trkpt lat="48.81935" lon="2.45206">
        <ele>117.8</ele>
        <time>2015-05-25T19:17:57.213Z</time>
      </trkpt>
      <trkpt lat="48.8194" lon="2.45213">
        <ele>117.9</ele>
        <time>2015-05-25T19:17:59.094Z</time>
      </trkpt>
      <trkpt lat="48.81943" lon="2.45216">
        <ele>118</ele>
        <time>2015-05-25T19:18:00.106Z</time>
      </trkpt>
      <trkpt lat="48.81949" lon="2.45224">
        <ele>117.7</ele>
        <time>2015-05-25T19:18:02.137Z</time>
      </trkpt>
      <trkpt lat="48.81952" lon="2.45229">
        <ele>117.8</ele>
        <time>2015-05-25T19:18:03.141Z</time>
      </trkpt>
      <trkpt lat="48.81958" lon="2.45237">
        <ele>117.7</ele>
        <time>2015-05-25T19:18:05.103Z</time>
      </trkpt>
      <trkpt lat="48.8196" lon="2.45242">
        <ele>117.6</ele>
        <time>2015-05-25T19:18:06.149Z</time>
      </trkpt>
      <trkpt lat="48.81965" lon="2.45252">
        <ele>117.9</ele>
        <time>2015-05-25T19:18:08.168Z</time>
      </trkpt>
      <trkpt lat="48.81967" lon="2.45257">
        <ele>117.8</ele>
        <time>2015-05-25T19:18:09.227Z</time>
      </trkpt>
      <trkpt lat="48.8197" lon="2.45268">
        <ele>118.2</ele>
        <time>2015-05-25T19:18:11.091Z</time>
      </trkpt>
      <trkpt lat="48.81972" lon="2.45274">
        <ele>118.4</ele>
        <time>2015-05-25T19:18:12.126Z</time>
      </trkpt>
      <trkpt lat="48.81973" lon="2.45286">
        <ele>118.5</ele>
        <time>2015-05-25T19:18:14.111Z</time>
      </trkpt>
      <trkpt lat="48.81973" lon="2.45292">
        <ele>118.4</ele>
        <time>2015-05-25T19:18:15.129Z</time>
      </trkpt>
      <trkpt lat="48.81975" lon="2.45304">
        <ele>117.6</ele>
        <time>2015-05-25T19:18:17.082Z</time>
      </trkpt>
      <trkpt lat="48.81976" lon="2.4531">
        <ele>117.2</ele>
        <time>2015-05-25T19:18:18.129Z</time>
      </trkpt>
      <trkpt lat="48.81978" lon="2.45321">
        <ele>117.2</ele>
        <time>2015-05-25T19:18:20.109Z</time>
      </trkpt>
      <trkpt lat="48.81979" lon="2.45327">
        <ele>117.5</ele>
        <time>2015-05-25T19:18:21.129Z</time>
      </trkpt>
      <trkpt lat="48.81979" lon="2.4534">
        <ele>117.9</ele>
        <time>2015-05-25T19:18:23.202Z</time>
      </trkpt>
      <trkpt lat="48.8198" lon="2.45346">
        <ele>117.7</ele>
        <time>2015-05-25T19:18:24.110Z</time>
      </trkpt>
      <trkpt lat="48.81981" lon="2.45358">
        <ele>118</ele>
        <time>2015-05-25T19:18:26.090Z</time>
      </trkpt>
      <trkpt lat="48.81982" lon="2.45364">
        <ele>118.2</ele>
        <time>2015-05-25T19:18:27.129Z</time>
      </trkpt>
      <trkpt lat="48.81983" lon="2.45376">
        <ele>118.7</ele>
        <time>2015-05-25T19:18:29.107Z</time>
      </trkpt>
      <trkpt lat="48.81983" lon="2.45382">
        <ele>118.5</ele>
        <time>2015-05-25T19:18:30.093Z</time>
      </trkpt>
      <trkpt lat="48.81983" lon="2.45396">
        <ele>118.1</ele>
        <time>2015-05-25T19:18:32.162Z</time>
      </trkpt>
      <trkpt lat="48.81982" lon="2.45402">
        <ele>118.3</ele>
        <time>2015-05-25T19:18:33.208Z</time>
      </trkpt>
      <trkpt lat="48.8198" lon="2.45414">
        <ele>118.1</ele>
        <time>2015-05-25T19:18:35.089Z</time>
      </trkpt>
      <trkpt lat="48.81979" lon="2.4542">
        <ele>118.2</ele>
        <time>2015-05-25T19:18:36.105Z</time>
      </trkpt>
      <trkpt lat="48.81978" lon="2.45431">
        <ele>118.5</ele>
        <time>2015-05-25T19:18:38.200Z</time>
      </trkpt>
      <trkpt lat="48.81978" lon="2.45437">
        <ele>118.5</ele>
        <time>2015-05-25T19:18:39.079Z</time>
      </trkpt>
      <trkpt lat="48.81978" lon="2.45449">
        <ele>118.3</ele>
        <time>2015-05-25T19:18:41.114Z</time>
      </trkpt>
      <trkpt lat="48.81977" lon="2.45455">
        <ele>118</ele>
        <time>2015-05-25T19:18:42.125Z</time>
      </trkpt>
      <trkpt lat="48.81975" lon="2.45466">
        <ele>117.2</ele>
        <time>2015-05-25T19:18:44.905Z</time>
      </trkpt>
      <trkpt lat="48.81975" lon="2.45471">
        <ele>117.1</ele>
        <time>2015-05-25T19:18:45.142Z</time>
      </trkpt>
      <trkpt lat="48.81976" lon="2.45481">
        <ele>117.3</ele>
        <time>2015-05-25T19:18:47.169Z</time>
      </trkpt>
      <trkpt lat="48.81976" lon="2.45485">
        <ele>117.3</ele>
        <time>2015-05-25T19:18:48.090Z</time>
      </trkpt>
      <trkpt lat="48.81977" lon="2.45493">
        <ele>117.1</ele>
        <time>2015-05-25T19:18:50.129Z</time>
      </trkpt>
      <trkpt lat="48.81977" lon="2.45499">
        <ele>116.9</ele>
        <time>2015-05-25T19:18:51.241Z</time>
      </trkpt>
      <trkpt lat="48.81979" lon="2.4551">
        <ele>116.4</ele>
        <time>2015-05-25T19:18:53.091Z</time>
      </trkpt>
      <trkpt lat="48.8198" lon="2.45515">
        <ele>116.2</ele>
        <time>2015-05-25T19:18:54.103Z</time>
      </trkpt>
      <trkpt lat="48.81981" lon="2.45527">
        <ele>116.2</ele>
        <time>2015-05-25T19:18:56.150Z</time>
      </trkpt>
      <trkpt lat="48.81982" lon="2.45532">
        <ele>115.9</ele>
        <time>2015-05-25T19:18:57.187Z</time>
      </trkpt>
      <trkpt lat="48.81981" lon="2.45541">
        <ele>116</ele>
        <time>2015-05-25T19:18:59.895Z</time>
      </trkpt>
      <trkpt lat="48.81982" lon="2.45545">
        <ele>116</ele>
        <time>2015-05-25T19:19:00.107Z</time>
      </trkpt>
      <trkpt lat="48.81983" lon="2.45558">
        <ele>115.8</ele>
        <time>2015-05-25T19:19:03.203Z</time>
      </trkpt>
      <trkpt lat="48.81983" lon="2.45564">
        <ele>115.7</ele>
        <time>2015-05-25T19:19:04.090Z</time>
      </trkpt>
      <trkpt lat="48.81984" lon="2.45574">
        <ele>115.8</ele>
        <time>2015-05-25T19:19:06.145Z</time>
      </trkpt>
      <trkpt lat="48.81984" lon="2.45579">
        <ele>115.9</ele>
        <time>2015-05-25T19:19:07.150Z</time>
      </trkpt>
      <trkpt lat="48.81985" lon="2.4559">
        <ele>115.8</ele>
        <time>2015-05-25T19:19:09.128Z</time>
      </trkpt>
      <trkpt lat="48.81986" lon="2.45596">
        <ele>115.8</ele>
        <time>2015-05-25T19:19:10.130Z</time>
      </trkpt>
      <trkpt lat="48.81987" lon="2.45606">
        <ele>115.7</ele>
        <time>2015-05-25T19:19:12.156Z</time>
      </trkpt>
      <trkpt lat="48.81987" lon="2.45611">
        <ele>115.8</ele>
        <time>2015-05-25T19:19:13.162Z</time>
      </trkpt>
      <trkpt lat="48.81989" lon="2.45624">
        <ele>116.6</ele>
        <time>2015-05-25T19:19:16.090Z</time>
      </trkpt>
      <trkpt lat="48.81989" lon="2.45629">
        <ele>116.5</ele>
        <time>2015-05-25T19:19:17.082Z</time>
      </trkpt>
      <trkpt lat="48.81987" lon="2.45638">
        <ele>115.4</ele>
        <time>2015-05-25T19:19:34.103Z</time>
      </trkpt>
      <trkpt lat="48.81989" lon="2.45664">
        <ele>117.5</ele>
        <time>2015-05-25T19:19:35.113Z</time>
      </trkpt>
      <trkpt lat="48.81992" lon="2.45675">
        <ele>116.6</ele>
        <time>2015-05-25T19:19:38.085Z</time>
      </trkpt>
      <trkpt lat="48.81993" lon="2.45679">
        <ele>116.4</ele>
        <time>2015-05-25T19:19:39.112Z</time>
      </trkpt>
      <trkpt lat="48.81994" lon="2.45691">
        <ele>116.4</ele>
        <time>2015-05-25T19:19:44.202Z</time>
      </trkpt>
      <trkpt lat="48.81994" lon="2.45698">
        <ele>116.4</ele>
        <time>2015-05-25T19:19:45.214Z</time>
      </trkpt>
      <trkpt lat="48.81994" lon="2.45708">
        <ele>116.4</ele>
        <time>2015-05-25T19:19:48.107Z</time>
      </trkpt>
      <trkpt lat="48.81994" lon="2.45713">
        <ele>116.5</ele>
        <time>2015-05-25T19:19:49.129Z</time>
      </trkpt>
      <trkpt lat="48.81993" lon="2.45722">
        <ele>116.2</ele>
        <time>2015-05-25T19:19:51.129Z</time>
      </trkpt>
      <trkpt lat="48.81993" lon="2.45727">
        <ele>116</ele>
        <time>2015-05-25T19:19:52.132Z</time>
      </trkpt>
      <trkpt lat="48.81993" lon="2.45739">
        <ele>116</ele>
        <time>2015-05-25T19:19:54.147Z</time>
      </trkpt>
      <trkpt lat="48.81993" lon="2.45746">
        <ele>116.1</ele>
        <time>2015-05-25T19:19:55.108Z</time>
      </trkpt>
      <trkpt lat="48.81993" lon="2.45759">
        <ele>115.9</ele>
        <time>2015-05-25T19:19:57.125Z</time>
      </trkpt>
      <trkpt lat="48.81994" lon="2.45764">
        <ele>116.2</ele>
        <time>2015-05-25T19:19:58.132Z</time>
      </trkpt>
      <trkpt lat="48.81995" lon="2.45777">
        <ele>116.7</ele>
        <time>2015-05-25T19:20:00.088Z</time>
      </trkpt>
      <trkpt lat="48.81995" lon="2.45784">
        <ele>117</ele>
        <time>2015-05-25T19:20:01.103Z</time>
      </trkpt>
      <trkpt lat="48.81995" lon="2.45792">
        <ele>117.1</ele>
        <time>2015-05-25T19:20:02.134Z</time>
      </trkpt>
      <trkpt lat="48.81995" lon="2.45798">
        <ele>117.4</ele>
        <time>2015-05-25T19:20:03.157Z</time>
      </trkpt>
      <trkpt lat="48.81996" lon="2.45811">
        <ele>117.5</ele>
        <time>2015-05-25T19:20:05.080Z</time>
      </trkpt>
      <trkpt lat="48.81997" lon="2.45816">
        <ele>117.7</ele>
        <time>2015-05-25T19:20:06.106Z</time>
      </trkpt>
      <trkpt lat="48.81998" lon="2.45828">
        <ele>117.2</ele>
        <time>2015-05-25T19:20:08.156Z</time>
      </trkpt>
      <trkpt lat="48.81998" lon="2.45835">
        <ele>117.1</ele>
        <time>2015-05-25T19:20:09.220Z</time>
      </trkpt>
      <trkpt lat="48.81999" lon="2.45842">
        <ele>117.1</ele>
        <time>2015-05-25T19:20:10.065Z</time>
      </trkpt>
      <trkpt lat="48.82" lon="2.45848">
        <ele>117.1</ele>
        <time>2015-05-25T19:20:11.092Z</time>
      </trkpt>
      <trkpt lat="48.82002" lon="2.4586">
        <ele>117.1</ele>
        <time>2015-05-25T19:20:13.148Z</time>
      </trkpt>
      <trkpt lat="48.82003" lon="2.45866">
        <ele>116.9</ele>
        <time>2015-05-25T19:20:14.153Z</time>
      </trkpt>
      <trkpt lat="48.82005" lon="2.45878">
        <ele>116.8</ele>
        <time>2015-05-25T19:20:16.076Z</time>
      </trkpt>
      <trkpt lat="48.82008" lon="2.45885">
        <ele>116.8</ele>
        <time>2015-05-25T19:20:17.098Z</time>
      </trkpt>
      <trkpt lat="48.8201" lon="2.45892">
        <ele>116.6</ele>
        <time>2015-05-25T19:20:18.137Z</time>
      </trkpt>
      <trkpt lat="48.82012" lon="2.45899">
        <ele>116.7</ele>
        <time>2015-05-25T19:20:19.147Z</time>
      </trkpt>
      <trkpt lat="48.82014" lon="2.45907">
        <ele>116.7</ele>
        <time>2015-05-25T19:20:20.184Z</time>
      </trkpt>
      <trkpt lat="48.82016" lon="2.45914">
        <ele>116.6</ele>
        <time>2015-05-25T19:20:21.194Z</time>
      </trkpt>
      <trkpt lat="48.82018" lon="2.4592">
        <ele>116.5</ele>
        <time>2015-05-25T19:20:22.079Z</time>
      </trkpt>
      <trkpt lat="48.8202" lon="2.45927">
        <ele>116.6</ele>
        <time>2015-05-25T19:20:23.078Z</time>
      </trkpt>
      <trkpt lat="48.82023" lon="2.45933">
        <ele>116.4</ele>
        <time>2015-05-25T19:20:24.100Z</time>
      </trkpt>
      <trkpt lat="48.82025" lon="2.45938">
        <ele>116.6</ele>
        <time>2015-05-25T19:20:25.105Z</time>
      </trkpt>
      <trkpt lat="48.82029" lon="2.45949">
        <ele>116.6</ele>
        <time>2015-05-25T19:20:27.099Z</time>
      </trkpt>
      <trkpt lat="48.82031" lon="2.45954">
        <ele>116.6</ele>
        <time>2015-05-25T19:20:28.051Z</time>
      </trkpt>
      <trkpt lat="48.82034" lon="2.45964">
        <ele>116.3</ele>
        <time>2015-05-25T19:20:30.182Z</time>
      </trkpt>
      <trkpt lat="48.82036" lon="2.45969">
        <ele>116.5</ele>
        <time>2015-05-25T19:20:31.080Z</time>
      </trkpt>
      <trkpt lat="48.82039" lon="2.45981">
        <ele>116.1</ele>
        <time>2015-05-25T19:20:33.129Z</time>
      </trkpt>
      <trkpt lat="48.82041" lon="2.45987">
        <ele>116.3</ele>
        <time>2015-05-25T19:20:34.142Z</time>
      </trkpt>
      <trkpt lat="48.82045" lon="2.45996">
        <ele>116</ele>
        <time>2015-05-25T19:20:36.085Z</time>
      </trkpt>
      <trkpt lat="48.82048" lon="2.46">
        <ele>115.1</ele>
        <time>2015-05-25T19:20:37.127Z</time>
      </trkpt>
      <trkpt lat="48.82054" lon="2.46007">
        <ele>114.6</ele>
        <time>2015-05-25T19:20:39.151Z</time>
      </trkpt>
      <trkpt lat="48.82057" lon="2.46009">
        <ele>114.1</ele>
        <time>2015-05-25T19:20:40.163Z</time>
      </trkpt>
      <trkpt lat="48.82063" lon="2.46013">
        <ele>114.1</ele>
        <time>2015-05-25T19:20:42.098Z</time>
      </trkpt>
      <trkpt lat="48.82065" lon="2.46015">
        <ele>114.3</ele>
        <time>2015-05-25T19:20:43.107Z</time>
      </trkpt>
      <trkpt lat="48.82068" lon="2.46015">
        <ele>113.6</ele>
        <time>2015-05-25T19:22:03.175Z</time>
      </trkpt>
      <trkpt lat="48.82081" lon="2.46038">
        <ele>108.3</ele>
        <time>2015-05-25T19:22:04.075Z</time>
      </trkpt>
      <trkpt lat="48.82089" lon="2.46046">
        <ele>107.1</ele>
        <time>2015-05-25T19:22:08.158Z</time>
      </trkpt>
      <trkpt lat="48.82091" lon="2.46049">
        <ele>107</ele>
        <time>2015-05-25T19:22:09.105Z</time>
      </trkpt>
      <trkpt lat="48.82097" lon="2.46057">
        <ele>107</ele>
        <time>2015-05-25T19:22:12.139Z</time>
      </trkpt>
      <trkpt lat="48.82099" lon="2.4606">
        <ele>107</ele>
        <time>2015-05-25T19:22:13.150Z</time>
      </trkpt>
      <trkpt lat="48.82106" lon="2.46065">
        <ele>107.4</ele>
        <time>2015-05-25T19:22:15.132Z</time>
      </trkpt>
      <trkpt lat="48.82108" lon="2.46067">
        <ele>107.3</ele>
        <time>2015-05-25T19:22:16.143Z</time>
      </trkpt>
      <trkpt lat="48.82113" lon="2.46076">
        <ele>107.4</ele>
        <time>2015-05-25T19:22:20.108Z</time>
      </trkpt>
      <trkpt lat="48.82114" lon="2.4608">
        <ele>107.1</ele>
        <time>2015-05-25T19:22:21.200Z</time>
      </trkpt>
      <trkpt lat="48.82118" lon="2.46088">
        <ele>106.6</ele>
        <time>2015-05-25T19:22:23.080Z</time>
      </trkpt>
      <trkpt lat="48.82119" lon="2.46092">
        <ele>106.4</ele>
        <time>2015-05-25T19:22:24.096Z</time>
      </trkpt>
      <trkpt lat="48.82122" lon="2.461">
        <ele>106.3</ele>
        <time>2015-05-25T19:22:26.159Z</time>
      </trkpt>
      <trkpt lat="48.82124" lon="2.46104">
        <ele>106.3</ele>
        <time>2015-05-25T19:22:27.174Z</time>
      </trkpt>
      <trkpt lat="48.82129" lon="2.46112">
        <ele>106.7</ele>
        <time>2015-05-25T19:22:29.081Z</time>
      </trkpt>
      <trkpt lat="48.82132" lon="2.46116">
        <ele>107</ele>
        <time>2015-05-25T19:22:30.092Z</time>
      </trkpt>
      <trkpt lat="48.82137" lon="2.46124">
        <ele>107.5</ele>
        <time>2015-05-25T19:22:32.145Z</time>
      </trkpt>
      <trkpt lat="48.8214" lon="2.46129">
        <ele>107.5</ele>
        <time>2015-05-25T19:22:33.164Z</time>
      </trkpt>
      <trkpt lat="48.82144" lon="2.46136">
        <ele>107</ele>
        <time>2015-05-25T19:22:35.097Z</time>
      </trkpt>
      <trkpt lat="48.82146" lon="2.4614">
        <ele>106.8</ele>
        <time>2015-05-25T19:22:36.103Z</time>
      </trkpt>
      <trkpt lat="48.82153" lon="2.46148">
        <ele>106.4</ele>
        <time>2015-05-25T19:22:38.167Z</time>
      </trkpt>
      <trkpt lat="48.82157" lon="2.46152">
        <ele>106.1</ele>
        <time>2015-05-25T19:22:39.176Z</time>
      </trkpt>
      <trkpt lat="48.82163" lon="2.46161">
        <ele>105.9</ele>
        <time>2015-05-25T19:22:41.097Z</time>
      </trkpt>
      <trkpt lat="48.82166" lon="2.46165">
        <ele>105.8</ele>
        <time>2015-05-25T19:22:42.135Z</time>
      </trkpt>
      <trkpt lat="48.82171" lon="2.46168">
        <ele>105.4</ele>
        <time>2015-05-25T19:22:43.083Z</time>
      </trkpt>
      <trkpt lat="48.82176" lon="2.46171">
        <ele>105.2</ele>
        <time>2015-05-25T19:22:44.090Z</time>
      </trkpt>
      <trkpt lat="48.82181" lon="2.46174">
        <ele>105.2</ele>
        <time>2015-05-25T19:22:45.114Z</time>
      </trkpt>
      <trkpt lat="48.82186" lon="2.46177">
        <ele>105.2</ele>
        <time>2015-05-25T19:22:46.121Z</time>
      </trkpt>
      <trkpt lat="48.8219" lon="2.46179">
        <ele>105.3</ele>
        <time>2015-05-25T19:22:47.051Z</time>
      </trkpt>
      <trkpt lat="48.82195" lon="2.46182">
        <ele>105.1</ele>
        <time>2015-05-25T19:22:48.044Z</time>
      </trkpt>
      <trkpt lat="48.82199" lon="2.46184">
        <ele>104.9</ele>
        <time>2015-05-25T19:22:49.467Z</time>
      </trkpt>
      <trkpt lat="48.82204" lon="2.46187">
        <ele>104.5</ele>
        <time>2015-05-25T19:22:50.076Z</time>
      </trkpt>
      <trkpt lat="48.82209" lon="2.46189">
        <ele>104.4</ele>
        <time>2015-05-25T19:22:49.240Z</time>
      </trkpt>
      <trkpt lat="48.82213" lon="2.46191">
        <ele>104.2</ele>
        <time>2015-05-25T19:22:52.213Z</time>
      </trkpt>
      <trkpt lat="48.82222" lon="2.46193">
        <ele>104.4</ele>
        <time>2015-05-25T19:22:54.615Z</time>
      </trkpt>
      <trkpt lat="48.82225" lon="2.46193">
        <ele>104.4</ele>
        <time>2015-05-25T19:22:55.105Z</time>
      </trkpt>
      <trkpt lat="48.82233" lon="2.46193">
        <ele>104.5</ele>
        <time>2015-05-25T19:22:57.501Z</time>
      </trkpt>
      <trkpt lat="48.82236" lon="2.46193">
        <ele>104.8</ele>
        <time>2015-05-25T19:22:58.081Z</time>
      </trkpt>
      <trkpt lat="48.82244" lon="2.46193">
        <ele>104.7</ele>
        <time>2015-05-25T19:23:01.126Z</time>
      </trkpt>
      <trkpt lat="48.82246" lon="2.46193">
        <ele>104.7</ele>
        <time>2015-05-25T19:23:02.208Z</time>
      </trkpt>
      <trkpt lat="48.82251" lon="2.46193">
        <ele>104.9</ele>
        <time>2015-05-25T19:23:04.830Z</time>
      </trkpt>
      <trkpt lat="48.82255" lon="2.46194">
        <ele>104.9</ele>
        <time>2015-05-25T19:23:05.064Z</time>
      </trkpt>
      <trkpt lat="48.82263" lon="2.46195">
        <ele>105.3</ele>
        <time>2015-05-25T19:23:08.085Z</time>
      </trkpt>
      <trkpt lat="48.82267" lon="2.46196">
        <ele>105.4</ele>
        <time>2015-05-25T19:23:09.121Z</time>
      </trkpt>
      <trkpt lat="48.82273" lon="2.46197">
        <ele>105.2</ele>
        <time>2015-05-25T19:23:11.149Z</time>
      </trkpt>
      <trkpt lat="48.82277" lon="2.46198">
        <ele>105.3</ele>
        <time>2015-05-25T19:23:12.159Z</time>
      </trkpt>
      <trkpt lat="48.82284" lon="2.46198">
        <ele>105.3</ele>
        <time>2015-05-25T19:23:14.182Z</time>
      </trkpt>
      <trkpt lat="48.82287" lon="2.46199">
        <ele>105.2</ele>
        <time>2015-05-25T19:23:15.233Z</time>
      </trkpt>
      <trkpt lat="48.82295" lon="2.46199">
        <ele>105</ele>
        <time>2015-05-25T19:23:17.126Z</time>
      </trkpt>
      <trkpt lat="48.82298" lon="2.46199">
        <ele>104.9</ele>
        <time>2015-05-25T19:23:18.138Z</time>
      </trkpt>
      <trkpt lat="48.82305" lon="2.462">
        <ele>104.7</ele>
        <time>2015-05-25T19:23:21.129Z</time>
      </trkpt>
      <trkpt lat="48.82308" lon="2.46201">
        <ele>104.7</ele>
        <time>2015-05-25T19:23:22.167Z</time>
      </trkpt>
      <trkpt lat="48.82316" lon="2.46203">
        <ele>105.3</ele>
        <time>2015-05-25T19:23:25.141Z</time>
      </trkpt>
      <trkpt lat="48.82318" lon="2.46203">
        <ele>105.7</ele>
        <time>2015-05-25T19:23:26.142Z</time>
      </trkpt>
      <trkpt lat="48.82325" lon="2.46206">
        <ele>106.3</ele>
        <time>2015-05-25T19:23:28.165Z</time>
      </trkpt>
      <trkpt lat="48.82328" lon="2.46207">
        <ele>106.4</ele>
        <time>2015-05-25T19:23:29.086Z</time>
      </trkpt>
      <trkpt lat="48.82335" lon="2.46211">
        <ele>106.4</ele>
        <time>2015-05-25T19:23:31.110Z</time>
      </trkpt>
      <trkpt lat="48.82339" lon="2.46212">
        <ele>106.4</ele>
        <time>2015-05-25T19:23:32.115Z</time>
      </trkpt>
      <trkpt lat="48.82347" lon="2.46213">
        <ele>106.4</ele>
        <time>2015-05-25T19:23:34.137Z</time>
      </trkpt>
      <trkpt lat="48.8235" lon="2.46214">
        <ele>106.4</ele>
        <time>2015-05-25T19:23:35.146Z</time>
      </trkpt>
      <trkpt lat="48.82358" lon="2.46214">
        <ele>106.5</ele>
        <time>2015-05-25T19:23:37.081Z</time>
      </trkpt>
      <trkpt lat="48.82361" lon="2.46214">
        <ele>106.7</ele>
        <time>2015-05-25T19:23:38.101Z</time>
      </trkpt>
      <trkpt lat="48.82366" lon="2.46217">
        <ele>106.4</ele>
        <time>2015-05-25T19:23:40.392Z</time>
      </trkpt>
      <trkpt lat="48.8237" lon="2.46219">
        <ele>106.4</ele>
        <time>2015-05-25T19:23:41.365Z</time>
      </trkpt>
      <trkpt lat="48.82375" lon="2.4622">
        <ele>107.6</ele>
        <time>2015-05-25T19:23:43.147Z</time>
      </trkpt>
      <trkpt lat="48.82379" lon="2.46219">
        <ele>107.7</ele>
        <time>2015-05-25T19:23:44.159Z</time>
      </trkpt>
      <trkpt lat="48.82386" lon="2.46221">
        <ele>108</ele>
        <time>2015-05-25T19:23:48.082Z</time>
      </trkpt>
      <trkpt lat="48.82389" lon="2.46222">
        <ele>108.2</ele>
        <time>2015-05-25T19:23:49.095Z</time>
      </trkpt>
      <trkpt lat="48.82396" lon="2.46225">
        <ele>108.1</ele>
        <time>2015-05-25T19:23:52.173Z</time>
      </trkpt>
      <trkpt lat="48.82397" lon="2.46225">
        <ele>108.1</ele>
        <time>2015-05-25T19:23:53.094Z</time>
      </trkpt>
      <trkpt lat="48.82405" lon="2.46227">
        <ele>108.2</ele>
        <time>2015-05-25T19:23:57.200Z</time>
      </trkpt>
      <trkpt lat="48.82407" lon="2.46228">
        <ele>108.3</ele>
        <time>2015-05-25T19:23:58.067Z</time>
      </trkpt>
      <trkpt lat="48.82414" lon="2.46229">
        <ele>108.4</ele>
        <time>2015-05-25T19:24:02.152Z</time>
      </trkpt>
      <trkpt lat="48.82416" lon="2.46229">
        <ele>108.4</ele>
        <time>2015-05-25T19:24:03.115Z</time>
      </trkpt>
      <trkpt lat="48.82425" lon="2.4623">
        <ele>108.3</ele>
        <time>2015-05-25T19:24:08.093Z</time>
      </trkpt>
      <trkpt lat="48.82426" lon="2.4623">
        <ele>108.1</ele>
        <time>2015-05-25T19:24:09.119Z</time>
      </trkpt>
      <trkpt lat="48.82434" lon="2.4623">
        <ele>108.1</ele>
        <time>2015-05-25T19:24:15.050Z</time>
      </trkpt>
      <trkpt lat="48.82436" lon="2.4623">
        <ele>108.2</ele>
        <time>2015-05-25T19:24:15.115Z</time>
      </trkpt>
      <trkpt lat="48.82444" lon="2.46227">
        <ele>108.6</ele>
        <time>2015-05-25T19:24:20.094Z</time>
      </trkpt>
      <trkpt lat="48.82445" lon="2.46227">
        <ele>108.5</ele>
        <time>2015-05-25T19:24:21.181Z</time>
      </trkpt>
      <trkpt lat="48.82453" lon="2.46226">
        <ele>108</ele>
        <time>2015-05-25T19:24:26.170Z</time>
      </trkpt>
      <trkpt lat="48.82454" lon="2.46226">
        <ele>108.1</ele>
        <time>2015-05-25T19:24:27.194Z</time>
      </trkpt>
      <trkpt lat="48.82463" lon="2.46224">
        <ele>108.5</ele>
        <time>2015-05-25T19:24:33.199Z</time>
      </trkpt>
      <trkpt lat="48.82464" lon="2.46224">
        <ele>108.7</ele>
        <time>2015-05-25T19:24:34.144Z</time>
      </trkpt>
      <trkpt lat="48.82467" lon="2.46224">
        <ele>108.8</ele>
        <time>2015-05-25T19:25:05.135Z</time>
      </trkpt>
      <trkpt lat="48.82499" lon="2.46231">
        <ele>107.5</ele>
        <time>2015-05-25T19:25:06.147Z</time>
      </trkpt>
      <trkpt lat="48.82507" lon="2.46234">
        <ele>107.6</ele>
        <time>2015-05-25T19:25:11.153Z</time>
      </trkpt>
      <trkpt lat="48.82509" lon="2.46234">
        <ele>107.9</ele>
        <time>2015-05-25T19:25:12.104Z</time>
      </trkpt>
      <trkpt lat="48.82517" lon="2.46239">
        <ele>108</ele>
        <time>2015-05-25T19:25:18.061Z</time>
      </trkpt>
      <trkpt lat="48.82518" lon="2.46239">
        <ele>108</ele>
        <time>2015-05-25T19:25:19.141Z</time>
      </trkpt>
      <trkpt lat="48.82527" lon="2.46239">
        <ele>108</ele>
        <time>2015-05-25T19:25:24.047Z</time>
      </trkpt>
      <trkpt lat="48.82531" lon="2.46241">
        <ele>108.1</ele>
        <time>2015-05-25T19:25:25.075Z</time>
      </trkpt>
      <trkpt lat="48.82539" lon="2.46244">
        <ele>108.7</ele>
        <time>2015-05-25T19:25:28.081Z</time>
      </trkpt>
      <trkpt lat="48.82541" lon="2.46244">
        <ele>108.8</ele>
        <time>2015-05-25T19:25:29.036Z</time>
      </trkpt>
      <trkpt lat="48.8255" lon="2.46247">
        <ele>108.6</ele>
        <time>2015-05-25T19:25:33.692Z</time>
      </trkpt>
      <trkpt lat="48.82552" lon="2.46247">
        <ele>108.7</ele>
        <time>2015-05-25T19:25:34.050Z</time>
      </trkpt>
      <trkpt lat="48.8256" lon="2.46251">
        <ele>109</ele>
        <time>2015-05-25T19:25:39.141Z</time>
      </trkpt>
      <trkpt lat="48.82562" lon="2.46251">
        <ele>109.3</ele>
        <time>2015-05-25T19:25:40.069Z</time>
      </trkpt>
      <trkpt lat="48.8257" lon="2.46253">
        <ele>109.6</ele>
        <time>2015-05-25T19:25:45.083Z</time>
      </trkpt>
      <trkpt lat="48.82571" lon="2.46254">
        <ele>109.5</ele>
        <time>2015-05-25T19:25:46.100Z</time>
      </trkpt>
      <trkpt lat="48.82571" lon="2.46254">
        <ele>109.5</ele>
        <time>2015-05-25T19:26:41.314Z</time>
      </trkpt>
      <trkpt lat="48.82607" lon="2.46252">
        <ele>115</ele>
        <time>2015-05-25T19:26:42.027Z</time>
      </trkpt>
      <trkpt lat="48.82604" lon="2.46256">
        <ele>112.6</ele>
        <time>2015-05-25T19:28:06.144Z</time>
      </trkpt>
      <trkpt lat="48.82617" lon="2.46271">
        <ele>115.7</ele>
        <time>2015-05-25T19:28:07.104Z</time>
      </trkpt>
      <trkpt lat="48.82625" lon="2.46277">
        <ele>115.5</ele>
        <time>2015-05-25T19:28:10.136Z</time>
      </trkpt>
      <trkpt lat="48.82627" lon="2.4628">
        <ele>115.5</ele>
        <time>2015-05-25T19:28:11.104Z</time>
      </trkpt>
      <trkpt lat="48.82631" lon="2.46287">
        <ele>115.7</ele>
        <time>2015-05-25T19:28:13.136Z</time>
      </trkpt>
      <trkpt lat="48.82633" lon="2.46291">
        <ele>115.9</ele>
        <time>2015-05-25T19:28:14.044Z</time>
      </trkpt>
      <trkpt lat="48.82639" lon="2.46297">
        <ele>116.4</ele>
        <time>2015-05-25T19:28:16.216Z</time>
      </trkpt>
      <trkpt lat="48.82641" lon="2.46301">
        <ele>116.4</ele>
        <time>2015-05-25T19:28:17.107Z</time>
      </trkpt>
      <trkpt lat="48.82644" lon="2.46309">
        <ele>116.1</ele>
        <time>2015-05-25T19:28:19.132Z</time>
      </trkpt>
      <trkpt lat="48.82645" lon="2.46313">
        <ele>116</ele>
        <time>2015-05-25T19:28:20.151Z</time>
      </trkpt>
      <trkpt lat="48.82649" lon="2.46323">
        <ele>116.2</ele>
        <time>2015-05-25T19:28:22.099Z</time>
      </trkpt>
      <trkpt lat="48.82651" lon="2.46328">
        <ele>116.1</ele>
        <time>2015-05-25T19:28:23.122Z</time>
      </trkpt>
      <trkpt lat="48.82656" lon="2.46335">
        <ele>115.9</ele>
        <time>2015-05-25T19:28:25.055Z</time>
      </trkpt>
      <trkpt lat="48.82659" lon="2.46339">
        <ele>115.8</ele>
        <time>2015-05-25T19:28:26.071Z</time>
      </trkpt>
      <trkpt lat="48.82665" lon="2.46346">
        <ele>115.8</ele>
        <time>2015-05-25T19:28:28.115Z</time>
      </trkpt>
      <trkpt lat="48.82667" lon="2.46349">
        <ele>115.6</ele>
        <time>2015-05-25T19:28:29.134Z</time>
      </trkpt>
      <trkpt lat="48.82671" lon="2.46357">
        <ele>115.1</ele>
        <time>2015-05-25T19:28:31.067Z</time>
      </trkpt>
      <trkpt lat="48.82674" lon="2.46362">
        <ele>114.7</ele>
        <time>2015-05-25T19:28:32.084Z</time>
      </trkpt>
      <trkpt lat="48.82679" lon="2.46371">
        <ele>114.3</ele>
        <time>2015-05-25T19:28:34.048Z</time>
      </trkpt>
      <trkpt lat="48.82681" lon="2.46375">
        <ele>114.4</ele>
        <time>2015-05-25T19:28:35.144Z</time>
      </trkpt>
      <trkpt lat="48.82686" lon="2.46383">
        <ele>114.2</ele>
        <time>2015-05-25T19:28:37.052Z</time>
      </trkpt>
      <trkpt lat="48.82687" lon="2.46387">
        <ele>114</ele>
        <time>2015-05-25T19:28:38.084Z</time>
      </trkpt>
      <trkpt lat="48.82689" lon="2.46396">
        <ele>112.5</ele>
        <time>2015-05-25T19:28:40.157Z</time>
      </trkpt>
      <trkpt lat="48.8269" lon="2.46401">
        <ele>112.4</ele>
        <time>2015-05-25T19:28:41.235Z</time>
      </trkpt>
      <trkpt lat="48.82694" lon="2.4641">
        <ele>112.1</ele>
        <time>2015-05-25T19:28:43.126Z</time>
      </trkpt>
      <trkpt lat="48.82695" lon="2.46414">
        <ele>112</ele>
        <time>2015-05-25T19:28:44.159Z</time>
      </trkpt>
      <trkpt lat="48.827" lon="2.46421">
        <ele>111.8</ele>
        <time>2015-05-25T19:28:46.028Z</time>
      </trkpt>
      <trkpt lat="48.82702" lon="2.46425">
        <ele>111.8</ele>
        <time>2015-05-25T19:28:47.084Z</time>
      </trkpt>
      <trkpt lat="48.82706" lon="2.46435">
        <ele>112</ele>
        <time>2015-05-25T19:28:49.024Z</time>
      </trkpt>
      <trkpt lat="48.82708" lon="2.4644">
        <ele>112.1</ele>
        <time>2015-05-25T19:28:50.067Z</time>
      </trkpt>
      <trkpt lat="48.82713" lon="2.46448">
        <ele>112.2</ele>
        <time>2015-05-25T19:28:52.087Z</time>
      </trkpt>
      <trkpt lat="48.82714" lon="2.46452">
        <ele>112.2</ele>
        <time>2015-05-25T19:28:53.092Z</time>
      </trkpt>
      <trkpt lat="48.82721" lon="2.46457">
        <ele>112</ele>
        <time>2015-05-25T19:28:57.138Z</time>
      </trkpt>
      <trkpt lat="48.82723" lon="2.46458">
        <ele>112</ele>
        <time>2015-05-25T19:28:58.055Z</time>
      </trkpt>
      <trkpt lat="48.82729" lon="2.46467">
        <ele>112.2</ele>
        <time>2015-05-25T19:29:01.062Z</time>
      </trkpt>
      <trkpt lat="48.82732" lon="2.4647">
        <ele>112.3</ele>
        <time>2015-05-25T19:29:02.077Z</time>
      </trkpt>
      <trkpt lat="48.82736" lon="2.46476">
        <ele>112.8</ele>
        <time>2015-05-25T19:29:04.794Z</time>
      </trkpt>
      <trkpt lat="48.82738" lon="2.46479">
        <ele>112.8</ele>
        <time>2015-05-25T19:29:05.101Z</time>
      </trkpt>
      <trkpt lat="48.82746" lon="2.46483">
        <ele>111.9</ele>
        <time>2015-05-25T19:29:08.124Z</time>
      </trkpt>
      <trkpt lat="48.82748" lon="2.46481">
        <ele>112.1</ele>
        <time>2015-05-25T19:29:09.148Z</time>
      </trkpt>
      <trkpt lat="48.82753" lon="2.46476">
        <ele>112</ele>
        <time>2015-05-25T19:29:11.068Z</time>
      </trkpt>
      <trkpt lat="48.82755" lon="2.46472">
        <ele>112</ele>
        <time>2015-05-25T19:29:12.060Z</time>
      </trkpt>
      <trkpt lat="48.82761" lon="2.46467">
        <ele>112.3</ele>
        <time>2015-05-25T19:29:14.988Z</time>
      </trkpt>
      <trkpt lat="48.82764" lon="2.46465">
        <ele>112.3</ele>
        <time>2015-05-25T19:29:15.088Z</time>
      </trkpt>
      <trkpt lat="48.82773" lon="2.46463">
        <ele>112.6</ele>
        <time>2015-05-25T19:29:17.108Z</time>
      </trkpt>
      <trkpt lat="48.82777" lon="2.46461">
        <ele>112.7</ele>
        <time>2015-05-25T19:29:18.132Z</time>
      </trkpt>
      <trkpt lat="48.82782" lon="2.46461">
        <ele>112.7</ele>
        <time>2015-05-25T19:29:19.067Z</time>
      </trkpt>
      <trkpt lat="48.82787" lon="2.46461">
        <ele>112.5</ele>
        <time>2015-05-25T19:29:20.142Z</time>
      </trkpt>
      <trkpt lat="48.82792" lon="2.4646">
        <ele>112.4</ele>
        <time>2015-05-25T19:29:21.094Z</time>
      </trkpt>
      <trkpt lat="48.82799" lon="2.46459">
        <ele>112.3</ele>
        <time>2015-05-25T19:29:22.106Z</time>
      </trkpt>
      <trkpt lat="48.82805" lon="2.46457">
        <ele>112.3</ele>
        <time>2015-05-25T19:29:23.118Z</time>
      </trkpt>
      <trkpt lat="48.82811" lon="2.46457">
        <ele>112.2</ele>
        <time>2015-05-25T19:29:24.029Z</time>
      </trkpt>
      <trkpt lat="48.82818" lon="2.46457">
        <ele>111.7</ele>
        <time>2015-05-25T19:29:25.450Z</time>
      </trkpt>
      <trkpt lat="48.82824" lon="2.46457">
        <ele>112</ele>
        <time>2015-05-25T19:29:26.065Z</time>
      </trkpt>
      <trkpt lat="48.8283" lon="2.46458">
        <ele>112</ele>
        <time>2015-05-25T19:29:27.084Z</time>
      </trkpt>
      <trkpt lat="48.82835" lon="2.46458">
        <ele>112.2</ele>
        <time>2015-05-25T19:29:28.099Z</time>
      </trkpt>
      <trkpt lat="48.8284" lon="2.46459">
        <ele>112.4</ele>
        <time>2015-05-25T19:29:29.102Z</time>
      </trkpt>
      <trkpt lat="48.82845" lon="2.46459">
        <ele>112.8</ele>
        <time>2015-05-25T19:29:30.112Z</time>
      </trkpt>
      <trkpt lat="48.8285" lon="2.4646">
        <ele>112.8</ele>
        <time>2015-05-25T19:29:31.071Z</time>
      </trkpt>
      <trkpt lat="48.82855" lon="2.4646">
        <ele>112.7</ele>
        <time>2015-05-25T19:29:32.141Z</time>
      </trkpt>
      <trkpt lat="48.82864" lon="2.4646">
        <ele>112.5</ele>
        <time>2015-05-25T19:29:34.075Z</time>
      </trkpt>
      <trkpt lat="48.82868" lon="2.4646">
        <ele>112.6</ele>
        <time>2015-05-25T19:29:35.104Z</time>
      </trkpt>
      <trkpt lat="48.82874" lon="2.46461">
        <ele>112.4</ele>
        <time>2015-05-25T19:29:36.341Z</time>
      </trkpt>
      <trkpt lat="48.82878" lon="2.46463">
        <ele>112.1</ele>
        <time>2015-05-25T19:29:37.020Z</time>
      </trkpt>
      <trkpt lat="48.82883" lon="2.46466">
        <ele>112</ele>
        <time>2015-05-25T19:29:38.023Z</time>
      </trkpt>
      <trkpt lat="48.82887" lon="2.4647">
        <ele>112.2</ele>
        <time>2015-05-25T19:29:39.079Z</time>
      </trkpt>
      <trkpt lat="48.82892" lon="2.46474">
        <ele>112</ele>
        <time>2015-05-25T19:29:40.101Z</time>
      </trkpt>
      <trkpt lat="48.82896" lon="2.46479">
        <ele>112.1</ele>
        <time>2015-05-25T19:29:41.118Z</time>
      </trkpt>
      <trkpt lat="48.82901" lon="2.46483">
        <ele>112.1</ele>
        <time>2015-05-25T19:29:42.025Z</time>
      </trkpt>
      <trkpt lat="48.82906" lon="2.46486">
        <ele>111.9</ele>
        <time>2015-05-25T19:29:43.051Z</time>
      </trkpt>
      <trkpt lat="48.82913" lon="2.46495">
        <ele>112</ele>
        <time>2015-05-25T19:29:45.113Z</time>
      </trkpt>
      <trkpt lat="48.82916" lon="2.46499">
        <ele>111.8</ele>
        <time>2015-05-25T19:29:46.186Z</time>
      </trkpt>
      <trkpt lat="48.82921" lon="2.46504">
        <ele>111.8</ele>
        <time>2015-05-25T19:29:48.057Z</time>
      </trkpt>
      <trkpt lat="48.82923" lon="2.46507">
        <ele>111.9</ele>
        <time>2015-05-25T19:29:49.056Z</time>
      </trkpt>
      <trkpt lat="48.82924" lon="2.46508">
        <ele>111.9</ele>
        <time>2015-05-25T19:29:50.080Z</time>
      </trkpt>
      <trkpt lat="48.82924" lon="2.46507">
        <ele>112.1</ele>
        <time>2015-05-25T19:29:51.099Z</time>
      </trkpt>
      <trkpt lat="48.82923" lon="2.46508">
        <ele>111.8</ele>
        <time>2015-05-25T19:29:52.110Z</time>
      </trkpt>
      <trkpt lat="48.82921" lon="2.46506">
        <ele>112</ele>
        <time>2015-05-25T19:29:53.118Z</time>
      </trkpt>
      <trkpt lat="48.82915" lon="2.46501">
        <ele>112.2</ele>
        <time>2015-05-25T19:29:56.161Z</time>
      </trkpt>
      <trkpt lat="48.82911" lon="2.46498">
        <ele>112.3</ele>
        <time>2015-05-25T19:29:57.089Z</time>
      </trkpt>
      <trkpt lat="48.82904" lon="2.4649">
        <ele>112.7</ele>
        <time>2015-05-25T19:29:59.050Z</time>
      </trkpt>
      <trkpt lat="48.82901" lon="2.46485">
        <ele>112.7</ele>
        <time>2015-05-25T19:30:00.063Z</time>
      </trkpt>
      <trkpt lat="48.82901" lon="2.46471">
        <ele>112.5</ele>
        <time>2015-05-25T19:30:02.062Z</time>
      </trkpt>
      <trkpt lat="48.82905" lon="2.46468">
        <ele>112.7</ele>
        <time>2015-05-25T19:30:03.162Z</time>
      </trkpt>
      <trkpt lat="48.82913" lon="2.46468">
        <ele>112.4</ele>
        <time>2015-05-25T19:30:05.069Z</time>
      </trkpt>
      <trkpt lat="48.82918" lon="2.46469">
        <ele>112</ele>
        <time>2015-05-25T19:30:06.082Z</time>
      </trkpt>
      <trkpt lat="48.82922" lon="2.4647">
        <ele>111.6</ele>
        <time>2015-05-25T19:30:07.098Z</time>
      </trkpt>
      <trkpt lat="48.82927" lon="2.46472">
        <ele>111.3</ele>
        <time>2015-05-25T19:30:08.106Z</time>
      </trkpt>
      <trkpt lat="48.82932" lon="2.46474">
        <ele>111.4</ele>
        <time>2015-05-25T19:30:09.125Z</time>
      </trkpt>
      <trkpt lat="48.82938" lon="2.46476">
        <ele>111.5</ele>
        <time>2015-05-25T19:30:10.143Z</time>
      </trkpt>
      <trkpt lat="48.82943" lon="2.46478">
        <ele>111.5</ele>
        <time>2015-05-25T19:30:11.050Z</time>
      </trkpt>
      <trkpt lat="48.8295" lon="2.4648">
        <ele>111.3</ele>
        <time>2015-05-25T19:30:12.058Z</time>
      </trkpt>
      <trkpt lat="48.82955" lon="2.4648">
        <ele>111.4</ele>
        <time>2015-05-25T19:30:13.076Z</time>
      </trkpt>
      <trkpt lat="48.82961" lon="2.46481">
        <ele>111.7</ele>
        <time>2015-05-25T19:30:14.083Z</time>
      </trkpt>
      <trkpt lat="48.82967" lon="2.46482">
        <ele>111.8</ele>
        <time>2015-05-25T19:30:15.097Z</time>
      </trkpt>
      <trkpt lat="48.82972" lon="2.46482">
        <ele>111.8</ele>
        <time>2015-05-25T19:30:16.102Z</time>
      </trkpt>
      <trkpt lat="48.82978" lon="2.46483">
        <ele>111.9</ele>
        <time>2015-05-25T19:30:17.114Z</time>
      </trkpt>
      <trkpt lat="48.82983" lon="2.46485">
        <ele>111.7</ele>
        <time>2015-05-25T19:30:18.119Z</time>
      </trkpt>
      <trkpt lat="48.82988" lon="2.46487">
        <ele>111.5</ele>
        <time>2015-05-25T19:30:19.133Z</time>
      </trkpt>
      <trkpt lat="48.82994" lon="2.4649">
        <ele>111.7</ele>
        <time>2015-05-25T19:30:20.046Z</time>
      </trkpt>
      <trkpt lat="48.83001" lon="2.46492">
        <ele>111.7</ele>
        <time>2015-05-25T19:30:21.063Z</time>
      </trkpt>
      <trkpt lat="48.83007" lon="2.46493">
        <ele>111.9</ele>
        <time>2015-05-25T19:30:22.072Z</time>
      </trkpt>
      <trkpt lat="48.83012" lon="2.46493">
        <ele>112</ele>
        <time>2015-05-25T19:30:23.081Z</time>
      </trkpt>
      <trkpt lat="48.83017" lon="2.46494">
        <ele>112.2</ele>
        <time>2015-05-25T19:30:24.094Z</time>
      </trkpt>
      <trkpt lat="48.83022" lon="2.46495">
        <ele>112.4</ele>
        <time>2015-05-25T19:30:25.102Z</time>
      </trkpt>
      <trkpt lat="48.83027" lon="2.46496">
        <ele>112.2</ele>
        <time>2015-05-25T19:30:26.111Z</time>
      </trkpt>
      <trkpt lat="48.83031" lon="2.46498">
        <ele>112.3</ele>
        <time>2015-05-25T19:30:27.121Z</time>
      </trkpt>
      <trkpt lat="48.83036" lon="2.46499">
        <ele>112.7</ele>
        <time>2015-05-25T19:30:28.133Z</time>
      </trkpt>
      <trkpt lat="48.83044" lon="2.46502">
        <ele>112.7</ele>
        <time>2015-05-25T19:30:30.045Z</time>
      </trkpt>
      <trkpt lat="48.83046" lon="2.46503">
        <ele>113</ele>
        <time>2015-05-25T19:30:31.077Z</time>
      </trkpt>
      <trkpt lat="48.83052" lon="2.46508">
        <ele>113.1</ele>
        <time>2015-05-25T19:30:33.102Z</time>
      </trkpt>
      <trkpt lat="48.83055" lon="2.4651">
        <ele>113.2</ele>
        <time>2015-05-25T19:30:34.134Z</time>
      </trkpt>
      <trkpt lat="48.83059" lon="2.46513">
        <ele>113.8</ele>
        <time>2015-05-25T19:30:36.064Z</time>
      </trkpt>
      <trkpt lat="48.83063" lon="2.46516">
        <ele>113.6</ele>
        <time>2015-05-25T19:30:37.113Z</time>
      </trkpt>
      <trkpt lat="48.83068" lon="2.46518">
        <ele>113.6</ele>
        <time>2015-05-25T19:30:38.127Z</time>
      </trkpt>
      <trkpt lat="48.83072" lon="2.46521">
        <ele>113.3</ele>
        <time>2015-05-25T19:30:39.130Z</time>
      </trkpt>
      <trkpt lat="48.83077" lon="2.46523">
        <ele>113.1</ele>
        <time>2015-05-25T19:30:40.019Z</time>
      </trkpt>
      <trkpt lat="48.83082" lon="2.46525">
        <ele>113.3</ele>
        <time>2015-05-25T19:30:41.058Z</time>
      </trkpt>
      <trkpt lat="48.83087" lon="2.46528">
        <ele>113.5</ele>
        <time>2015-05-25T19:30:42.119Z</time>
      </trkpt>
      <trkpt lat="48.83092" lon="2.4653">
        <ele>113.5</ele>
        <time>2015-05-25T19:30:43.126Z</time>
      </trkpt>
      <trkpt lat="48.83097" lon="2.46532">
        <ele>113.4</ele>
        <time>2015-05-25T19:30:44.099Z</time>
      </trkpt>
      <trkpt lat="48.83102" lon="2.46534">
        <ele>113.5</ele>
        <time>2015-05-25T19:30:45.102Z</time>
      </trkpt>
      <trkpt lat="48.83111" lon="2.46537">
        <ele>113.2</ele>
        <time>2015-05-25T19:30:47.123Z</time>
      </trkpt>
      <trkpt lat="48.83115" lon="2.46539">
        <ele>113.3</ele>
        <time>2015-05-25T19:30:48.140Z</time>
      </trkpt>
      <trkpt lat="48.83122" lon="2.46544">
        <ele>112.9</ele>
        <time>2015-05-25T19:30:50.030Z</time>
      </trkpt>
      <trkpt lat="48.83127" lon="2.46545">
        <ele>112.9</ele>
        <time>2015-05-25T19:30:51.104Z</time>
      </trkpt>
      <trkpt lat="48.83132" lon="2.46548">
        <ele>112.7</ele>
        <time>2015-05-25T19:30:52.044Z</time>
      </trkpt>
      <trkpt lat="48.83137" lon="2.4655">
        <ele>112.7</ele>
        <time>2015-05-25T19:30:53.052Z</time>
      </trkpt>
      <trkpt lat="48.83141" lon="2.46553">
        <ele>113.2</ele>
        <time>2015-05-25T19:30:54.067Z</time>
      </trkpt>
      <trkpt lat="48.83146" lon="2.46556">
        <ele>113.3</ele>
        <time>2015-05-25T19:30:55.078Z</time>
      </trkpt>
      <trkpt lat="48.83153" lon="2.46559">
        <ele>113.6</ele>
        <time>2015-05-25T19:30:57.096Z</time>
      </trkpt>
      <trkpt lat="48.83157" lon="2.46561">
        <ele>113.7</ele>
        <time>2015-05-25T19:30:58.105Z</time>
      </trkpt>
      <trkpt lat="48.83164" lon="2.46567">
        <ele>114.1</ele>
        <time>2015-05-25T19:31:00.127Z</time>
      </trkpt>
      <trkpt lat="48.83168" lon="2.4657">
        <ele>114.4</ele>
        <time>2015-05-25T19:31:01.131Z</time>
      </trkpt>
      <trkpt lat="48.83172" lon="2.46574">
        <ele>114.6</ele>
        <time>2015-05-25T19:31:02.042Z</time>
      </trkpt>
      <trkpt lat="48.83177" lon="2.46578">
        <ele>114.9</ele>
        <time>2015-05-25T19:31:03.178Z</time>
      </trkpt>
      <trkpt lat="48.83181" lon="2.46581">
        <ele>115.3</ele>
        <time>2015-05-25T19:31:04.099Z</time>
      </trkpt>
      <trkpt lat="48.83186" lon="2.46584">
        <ele>115.8</ele>
        <time>2015-05-25T19:31:05.117Z</time>
      </trkpt>
      <trkpt lat="48.8319" lon="2.46587">
        <ele>116.3</ele>
        <time>2015-05-25T19:31:06.040Z</time>
      </trkpt>
      <trkpt lat="48.83196" lon="2.46592">
        <ele>116.5</ele>
        <time>2015-05-25T19:31:07.041Z</time>
      </trkpt>
      <trkpt lat="48.83202" lon="2.46599">
        <ele>116.6</ele>
        <time>2015-05-25T19:31:08.052Z</time>
      </trkpt>
      <trkpt lat="48.83207" lon="2.46604">
        <ele>116.5</ele>
        <time>2015-05-25T19:31:09.085Z</time>
      </trkpt>
      <trkpt lat="48.83212" lon="2.46608">
        <ele>116.4</ele>
        <time>2015-05-25T19:31:10.098Z</time>
      </trkpt>
      <trkpt lat="48.83217" lon="2.46613">
        <ele>116.3</ele>
        <time>2015-05-25T19:31:11.107Z</time>
      </trkpt>
      <trkpt lat="48.83222" lon="2.46617">
        <ele>116.6</ele>
        <time>2015-05-25T19:31:12.116Z</time>
      </trkpt>
      <trkpt lat="48.83227" lon="2.46622">
        <ele>116.6</ele>
        <time>2015-05-25T19:31:13.122Z</time>
      </trkpt>
      <trkpt lat="48.83232" lon="2.46627">
        <ele>116.6</ele>
        <time>2015-05-25T19:31:14.030Z</time>
      </trkpt>
      <trkpt lat="48.83238" lon="2.46632">
        <ele>116.4</ele>
        <time>2015-05-25T19:31:15.094Z</time>
      </trkpt>
      <trkpt lat="48.83242" lon="2.46637">
        <ele>116.5</ele>
        <time>2015-05-25T19:31:16.116Z</time>
      </trkpt>
      <trkpt lat="48.83247" lon="2.46643">
        <ele>116.5</ele>
        <time>2015-05-25T19:31:17.132Z</time>
      </trkpt>
      <trkpt lat="48.83251" lon="2.46648">
        <ele>116.7</ele>
        <time>2015-05-25T19:31:18.029Z</time>
      </trkpt>
      <trkpt lat="48.83255" lon="2.46654">
        <ele>116.7</ele>
        <time>2015-05-25T19:31:19.035Z</time>
      </trkpt>
      <trkpt lat="48.83259" lon="2.46659">
        <ele>116.7</ele>
        <time>2015-05-25T19:31:20.057Z</time>
      </trkpt>
      <trkpt lat="48.83264" lon="2.46664">
        <ele>116.4</ele>
        <time>2015-05-25T19:31:21.067Z</time>
      </trkpt>
      <trkpt lat="48.83267" lon="2.46669">
        <ele>116.1</ele>
        <time>2015-05-25T19:31:22.089Z</time>
      </trkpt>
      <trkpt lat="48.8327" lon="2.46674">
        <ele>116.2</ele>
        <time>2015-05-25T19:31:23.094Z</time>
      </trkpt>
      <trkpt lat="48.83273" lon="2.4668">
        <ele>116.5</ele>
        <time>2015-05-25T19:31:24.105Z</time>
      </trkpt>
      <trkpt lat="48.83276" lon="2.46686">
        <ele>116.6</ele>
        <time>2015-05-25T19:31:25.119Z</time>
      </trkpt>
      <trkpt lat="48.83278" lon="2.46692">
        <ele>116.4</ele>
        <time>2015-05-25T19:31:26.126Z</time>
      </trkpt>
      <trkpt lat="48.83282" lon="2.46698">
        <ele>116.4</ele>
        <time>2015-05-25T19:31:27.138Z</time>
      </trkpt>
      <trkpt lat="48.83286" lon="2.46704">
        <ele>116.3</ele>
        <time>2015-05-25T19:31:28.092Z</time>
      </trkpt>
      <trkpt lat="48.83289" lon="2.46711">
        <ele>116.2</ele>
        <time>2015-05-25T19:31:29.027Z</time>
      </trkpt>
      <trkpt lat="48.83293" lon="2.46718">
        <ele>116.1</ele>
        <time>2015-05-25T19:31:30.055Z</time>
      </trkpt>
      <trkpt lat="48.83296" lon="2.46725">
        <ele>116.3</ele>
        <time>2015-05-25T19:31:31.064Z</time>
      </trkpt>
      <trkpt lat="48.833" lon="2.46731">
        <ele>116.2</ele>
        <time>2015-05-25T19:31:32.131Z</time>
      </trkpt>
      <trkpt lat="48.83304" lon="2.46738">
        <ele>116.4</ele>
        <time>2015-05-25T19:31:33.116Z</time>
      </trkpt>
      <trkpt lat="48.83308" lon="2.46744">
        <ele>116.4</ele>
        <time>2015-05-25T19:31:34.135Z</time>
      </trkpt>
      <trkpt lat="48.83311" lon="2.46751">
        <ele>116.6</ele>
        <time>2015-05-25T19:31:35.152Z</time>
      </trkpt>
      <trkpt lat="48.83314" lon="2.46757">
        <ele>116.7</ele>
        <time>2015-05-25T19:31:36.044Z</time>
      </trkpt>
      <trkpt lat="48.83317" lon="2.46765">
        <ele>116.9</ele>
        <time>2015-05-25T19:31:37.057Z</time>
      </trkpt>
      <trkpt lat="48.8332" lon="2.46772">
        <ele>116.9</ele>
        <time>2015-05-25T19:31:38.058Z</time>
      </trkpt>
      <trkpt lat="48.83324" lon="2.46778">
        <ele>117.3</ele>
        <time>2015-05-25T19:31:39.097Z</time>
      </trkpt>
      <trkpt lat="48.83328" lon="2.46785">
        <ele>117.2</ele>
        <time>2015-05-25T19:31:40.106Z</time>
      </trkpt>
      <trkpt lat="48.83331" lon="2.46792">
        <ele>117.2</ele>
        <time>2015-05-25T19:31:41.110Z</time>
      </trkpt>
      <trkpt lat="48.83335" lon="2.46799">
        <ele>117.2</ele>
        <time>2015-05-25T19:31:42.128Z</time>
      </trkpt>
      <trkpt lat="48.83338" lon="2.46806">
        <ele>117.1</ele>
        <time>2015-05-25T19:31:43.135Z</time>
      </trkpt>
      <trkpt lat="48.83341" lon="2.46813">
        <ele>117</ele>
        <time>2015-05-25T19:31:44.063Z</time>
      </trkpt>
      <trkpt lat="48.83345" lon="2.46819">
        <ele>116.9</ele>
        <time>2015-05-25T19:31:45.069Z</time>
      </trkpt>
      <trkpt lat="48.83349" lon="2.46826">
        <ele>116.9</ele>
        <time>2015-05-25T19:31:46.085Z</time>
      </trkpt>
      <trkpt lat="48.83352" lon="2.46833">
        <ele>116.8</ele>
        <time>2015-05-25T19:31:47.264Z</time>
      </trkpt>
      <trkpt lat="48.83356" lon="2.4684">
        <ele>116.8</ele>
        <time>2015-05-25T19:31:48.106Z</time>
      </trkpt>
      <trkpt lat="48.83359" lon="2.46846">
        <ele>116.9</ele>
        <time>2015-05-25T19:31:49.107Z</time>
      </trkpt>
      <trkpt lat="48.83363" lon="2.46853">
        <ele>116.6</ele>
        <time>2015-05-25T19:31:50.125Z</time>
      </trkpt>
      <trkpt lat="48.83367" lon="2.46858">
        <ele>116.6</ele>
        <time>2015-05-25T19:31:51.127Z</time>
      </trkpt>
      <trkpt lat="48.83371" lon="2.46864">
        <ele>116.7</ele>
        <time>2015-05-25T19:31:52.140Z</time>
      </trkpt>
      <trkpt lat="48.83375" lon="2.46869">
        <ele>116.7</ele>
        <time>2015-05-25T19:31:53.086Z</time>
      </trkpt>
      <trkpt lat="48.83378" lon="2.46874">
        <ele>116.7</ele>
        <time>2015-05-25T19:31:54.054Z</time>
      </trkpt>
      <trkpt lat="48.83383" lon="2.46878">
        <ele>116.5</ele>
        <time>2015-05-25T19:31:55.063Z</time>
      </trkpt>
      <trkpt lat="48.83386" lon="2.46883">
        <ele>116.7</ele>
        <time>2015-05-25T19:31:56.076Z</time>
      </trkpt>
      <trkpt lat="48.83389" lon="2.46888">
        <ele>116.5</ele>
        <time>2015-05-25T19:31:57.093Z</time>
      </trkpt>
      <trkpt lat="48.83392" lon="2.46893">
        <ele>116.2</ele>
        <time>2015-05-25T19:31:58.096Z</time>
      </trkpt>
      <trkpt lat="48.83396" lon="2.46897">
        <ele>116.4</ele>
        <time>2015-05-25T19:31:59.105Z</time>
      </trkpt>
      <trkpt lat="48.83402" lon="2.46905">
        <ele>116.1</ele>
        <time>2015-05-25T19:32:01.128Z</time>
      </trkpt>
      <trkpt lat="48.83406" lon="2.46909">
        <ele>116.1</ele>
        <time>2015-05-25T19:32:02.124Z</time>
      </trkpt>
      <trkpt lat="48.83411" lon="2.46916">
        <ele>116.4</ele>
        <time>2015-05-25T19:32:04.069Z</time>
      </trkpt>
      <trkpt lat="48.83415" lon="2.46919">
        <ele>116.3</ele>
        <time>2015-05-25T19:32:05.068Z</time>
      </trkpt>
      <trkpt lat="48.8342" lon="2.46922">
        <ele>116.3</ele>
        <time>2015-05-25T19:32:06.116Z</time>
      </trkpt>
      <trkpt lat="48.83424" lon="2.46925">
        <ele>116.5</ele>
        <time>2015-05-25T19:32:07.118Z</time>
      </trkpt>
      <trkpt lat="48.83432" lon="2.4693">
        <ele>115.9</ele>
        <time>2015-05-25T19:32:09.135Z</time>
      </trkpt>
      <trkpt lat="48.83436" lon="2.46932">
        <ele>115.6</ele>
        <time>2015-05-25T19:32:10.197Z</time>
      </trkpt>
      <trkpt lat="48.83441" lon="2.4694">
        <ele>115.5</ele>
        <time>2015-05-25T19:32:13.105Z</time>
      </trkpt>
      <trkpt lat="48.83442" lon="2.46943">
        <ele>115.5</ele>
        <time>2015-05-25T19:32:14.108Z</time>
      </trkpt>
      <trkpt lat="48.83449" lon="2.46946">
        <ele>112.3</ele>
        <time>2015-05-25T19:32:37.097Z</time>
      </trkpt>
      <trkpt lat="48.83451" lon="2.46946">
        <ele>112.7</ele>
        <time>2015-05-25T19:32:38.108Z</time>
      </trkpt>
      <trkpt lat="48.83458" lon="2.46952">
        <ele>112.3</ele>
        <time>2015-05-25T19:32:41.061Z</time>
      </trkpt>
      <trkpt lat="48.8346" lon="2.46954">
        <ele>112.3</ele>
        <time>2015-05-25T19:32:42.071Z</time>
      </trkpt>
      <trkpt lat="48.83462" lon="2.46955">
        <ele>111.9</ele>
        <time>2015-05-25T19:32:53.075Z</time>
      </trkpt>
      <trkpt lat="48.83478" lon="2.46955">
        <ele>111.5</ele>
        <time>2015-05-25T19:32:54.074Z</time>
      </trkpt>
      <trkpt lat="48.83482" lon="2.46957">
        <ele>111.6</ele>
        <time>2015-05-25T19:33:19.024Z</time>
      </trkpt>
      <trkpt lat="48.83491" lon="2.46964">
        <ele>112.5</ele>
        <time>2015-05-25T19:33:20.071Z</time>
      </trkpt>
      <trkpt lat="48.83498" lon="2.46967">
        <ele>112.2</ele>
        <time>2015-05-25T19:33:23.370Z</time>
      </trkpt>
      <trkpt lat="48.835" lon="2.46969">
        <ele>112.7</ele>
        <time>2015-05-25T19:33:24.055Z</time>
      </trkpt>
      <trkpt lat="48.83506" lon="2.46973">
        <ele>112.7</ele>
        <time>2015-05-25T19:33:26.122Z</time>
      </trkpt>
      <trkpt lat="48.83509" lon="2.46974">
        <ele>112.5</ele>
        <time>2015-05-25T19:33:27.142Z</time>
      </trkpt>
      <trkpt lat="48.83518" lon="2.46976">
        <ele>111.5</ele>
        <time>2015-05-25T19:33:30.063Z</time>
      </trkpt>
      <trkpt lat="48.8352" lon="2.46977">
        <ele>111.2</ele>
        <time>2015-05-25T19:33:31.072Z</time>
      </trkpt>
      <trkpt lat="48.83527" lon="2.46978">
        <ele>111.1</ele>
        <time>2015-05-25T19:33:33.092Z</time>
      </trkpt>
      <trkpt lat="48.8353" lon="2.46978">
        <ele>111.1</ele>
        <time>2015-05-25T19:33:34.106Z</time>
      </trkpt>
      <trkpt lat="48.83538" lon="2.46982">
        <ele>111.2</ele>
        <time>2015-05-25T19:33:37.629Z</time>
      </trkpt>
      <trkpt lat="48.83541" lon="2.46982">
        <ele>111.1</ele>
        <time>2015-05-25T19:33:38.060Z</time>
      </trkpt>
      <trkpt lat="48.8355" lon="2.46982">
        <ele>111.2</ele>
        <time>2015-05-25T19:33:40.106Z</time>
      </trkpt>
      <trkpt lat="48.83555" lon="2.46983">
        <ele>111</ele>
        <time>2015-05-25T19:33:41.075Z</time>
      </trkpt>
      <trkpt lat="48.8356" lon="2.46984">
        <ele>110.9</ele>
        <time>2015-05-25T19:33:42.737Z</time>
      </trkpt>
      <trkpt lat="48.83565" lon="2.46984">
        <ele>111</ele>
        <time>2015-05-25T19:33:43.108Z</time>
      </trkpt>
      <trkpt lat="48.83569" lon="2.46984">
        <ele>111.3</ele>
        <time>2015-05-25T19:33:44.048Z</time>
      </trkpt>
      <trkpt lat="48.83574" lon="2.46984">
        <ele>111.8</ele>
        <time>2015-05-25T19:33:45.099Z</time>
      </trkpt>
      <trkpt lat="48.83582" lon="2.46984">
        <ele>111.8</ele>
        <time>2015-05-25T19:33:47.799Z</time>
      </trkpt>
      <trkpt lat="48.83586" lon="2.46983">
        <ele>111.3</ele>
        <time>2015-05-25T19:33:48.047Z</time>
      </trkpt>
      <trkpt lat="48.83592" lon="2.46984">
        <ele>111.5</ele>
        <time>2015-05-25T19:33:50.083Z</time>
      </trkpt>
      <trkpt lat="48.83596" lon="2.46984">
        <ele>112.2</ele>
        <time>2015-05-25T19:33:51.165Z</time>
      </trkpt>
      <trkpt lat="48.83602" lon="2.46984">
        <ele>112.8</ele>
        <time>2015-05-25T19:33:53.070Z</time>
      </trkpt>
      <trkpt lat="48.83605" lon="2.46983">
        <ele>113.4</ele>
        <time>2015-05-25T19:33:54.111Z</time>
      </trkpt>
      <trkpt lat="48.83612" lon="2.46982">
        <ele>114</ele>
        <time>2015-05-25T19:33:56.067Z</time>
      </trkpt>
      <trkpt lat="48.83615" lon="2.46982">
        <ele>114.4</ele>
        <time>2015-05-25T19:33:57.095Z</time>
      </trkpt>
      <trkpt lat="48.83623" lon="2.46982">
        <ele>115.3</ele>
        <time>2015-05-25T19:34:00.160Z</time>
      </trkpt>
      <trkpt lat="48.83626" lon="2.46981">
        <ele>115.5</ele>
        <time>2015-05-25T19:34:01.048Z</time>
      </trkpt>
      <trkpt lat="48.8363" lon="2.4698">
        <ele>114.4</ele>
        <time>2015-05-25T19:37:15.123Z</time>
      </trkpt>
      <trkpt lat="48.83634" lon="2.46991">
        <ele>98.5</ele>
        <time>2015-05-25T19:37:16.135Z</time>
      </trkpt>
      <trkpt lat="48.83642" lon="2.46989">
        <ele>99.2</ele>
        <time>2015-05-25T19:37:19.041Z</time>
      </trkpt>
      <trkpt lat="48.83646" lon="2.46988">
        <ele>99.6</ele>
        <time>2015-05-25T19:37:20.080Z</time>
      </trkpt>
      <trkpt lat="48.83652" lon="2.46985">
        <ele>100.5</ele>
        <time>2015-05-25T19:37:22.112Z</time>
      </trkpt>
      <trkpt lat="48.83655" lon="2.46984">
        <ele>100.9</ele>
        <time>2015-05-25T19:37:23.133Z</time>
      </trkpt>
      <trkpt lat="48.83663" lon="2.46981">
        <ele>101.6</ele>
        <time>2015-05-25T19:37:25.205Z</time>
      </trkpt>
      <trkpt lat="48.83666" lon="2.46979">
        <ele>102.2</ele>
        <time>2015-05-25T19:37:26.071Z</time>
      </trkpt>
      <trkpt lat="48.8367" lon="2.46976">
        <ele>102.5</ele>
        <time>2015-05-25T19:37:27.201Z</time>
      </trkpt>
      <trkpt lat="48.83675" lon="2.46973">
        <ele>103.1</ele>
        <time>2015-05-25T19:37:28.074Z</time>
      </trkpt>
      <trkpt lat="48.83682" lon="2.46964">
        <ele>103.9</ele>
        <time>2015-05-25T19:37:30.218Z</time>
      </trkpt>
      <trkpt lat="48.83686" lon="2.46961">
        <ele>104.4</ele>
        <time>2015-05-25T19:37:31.101Z</time>
      </trkpt>
      <trkpt lat="48.8369" lon="2.46957">
        <ele>104.7</ele>
        <time>2015-05-25T19:37:32.132Z</time>
      </trkpt>
      <trkpt lat="48.83695" lon="2.46954">
        <ele>105.2</ele>
        <time>2015-05-25T19:37:33.138Z</time>
      </trkpt>
      <trkpt lat="48.837" lon="2.4695">
        <ele>105.4</ele>
        <time>2015-05-25T19:37:34.072Z</time>
      </trkpt>
      <trkpt lat="48.83704" lon="2.46946">
        <ele>106</ele>
        <time>2015-05-25T19:37:35.082Z</time>
      </trkpt>
      <trkpt lat="48.83709" lon="2.46942">
        <ele>106.3</ele>
        <time>2015-05-25T19:37:36.105Z</time>
      </trkpt>
      <trkpt lat="48.83713" lon="2.46937">
        <ele>106.6</ele>
        <time>2015-05-25T19:37:37.110Z</time>
      </trkpt>
      <trkpt lat="48.83717" lon="2.46932">
        <ele>106.8</ele>
        <time>2015-05-25T19:37:38.119Z</time>
      </trkpt>
      <trkpt lat="48.83721" lon="2.46926">
        <ele>107.1</ele>
        <time>2015-05-25T19:37:39.142Z</time>
      </trkpt>
      <trkpt lat="48.83724" lon="2.4692">
        <ele>107.5</ele>
        <time>2015-05-25T19:37:40.062Z</time>
      </trkpt>
      <trkpt lat="48.83728" lon="2.46916">
        <ele>107.6</ele>
        <time>2015-05-25T19:37:41.057Z</time>
      </trkpt>
      <trkpt lat="48.83732" lon="2.4691">
        <ele>107.9</ele>
        <time>2015-05-25T19:37:42.081Z</time>
      </trkpt>
      <trkpt lat="48.83735" lon="2.46904">
        <ele>108.1</ele>
        <time>2015-05-25T19:37:43.092Z</time>
      </trkpt>
      <trkpt lat="48.83738" lon="2.46898">
        <ele>108</ele>
        <time>2015-05-25T19:37:44.108Z</time>
      </trkpt>
      <trkpt lat="48.83741" lon="2.46891">
        <ele>107.5</ele>
        <time>2015-05-25T19:37:45.116Z</time>
      </trkpt>
      <trkpt lat="48.83745" lon="2.46885">
        <ele>107.2</ele>
        <time>2015-05-25T19:37:46.128Z</time>
      </trkpt>
      <trkpt lat="48.83749" lon="2.4688">
        <ele>107.3</ele>
        <time>2015-05-25T19:37:47.138Z</time>
      </trkpt>
      <trkpt lat="48.83753" lon="2.46874">
        <ele>107.5</ele>
        <time>2015-05-25T19:37:48.037Z</time>
      </trkpt>
      <trkpt lat="48.83756" lon="2.46869">
        <ele>107.5</ele>
        <time>2015-05-25T19:37:49.038Z</time>
      </trkpt>
      <trkpt lat="48.83759" lon="2.46864">
        <ele>107.4</ele>
        <time>2015-05-25T19:37:50.057Z</time>
      </trkpt>
      <trkpt lat="48.83764" lon="2.4686">
        <ele>107.5</ele>
        <time>2015-05-25T19:37:51.075Z</time>
      </trkpt>
      <trkpt lat="48.83768" lon="2.46855">
        <ele>107.6</ele>
        <time>2015-05-25T19:37:52.085Z</time>
      </trkpt>
      <trkpt lat="48.8377" lon="2.46849">
        <ele>107.9</ele>
        <time>2015-05-25T19:37:53.095Z</time>
      </trkpt>
      <trkpt lat="48.83774" lon="2.46846">
        <ele>108.3</ele>
        <time>2015-05-25T19:37:54.101Z</time>
      </trkpt>
      <trkpt lat="48.83778" lon="2.46842">
        <ele>108.4</ele>
        <time>2015-05-25T19:37:55.101Z</time>
      </trkpt>
      <trkpt lat="48.83782" lon="2.46838">
        <ele>108.8</ele>
        <time>2015-05-25T19:37:56.121Z</time>
      </trkpt>
      <trkpt lat="48.83787" lon="2.46834">
        <ele>109.2</ele>
        <time>2015-05-25T19:37:57.130Z</time>
      </trkpt>
      <trkpt lat="48.83791" lon="2.46832">
        <ele>109.5</ele>
        <time>2015-05-25T19:37:58.142Z</time>
      </trkpt>
      <trkpt lat="48.83795" lon="2.46828">
        <ele>109.6</ele>
        <time>2015-05-25T19:37:59.149Z</time>
      </trkpt>
      <trkpt lat="48.83798" lon="2.46824">
        <ele>109.8</ele>
        <time>2015-05-25T19:38:00.074Z</time>
      </trkpt>
      <trkpt lat="48.83802" lon="2.46819">
        <ele>110</ele>
        <time>2015-05-25T19:38:01.074Z</time>
      </trkpt>
      <trkpt lat="48.83806" lon="2.46813">
        <ele>110.5</ele>
        <time>2015-05-25T19:38:02.082Z</time>
      </trkpt>
      <trkpt lat="48.8381" lon="2.46809">
        <ele>110.7</ele>
        <time>2015-05-25T19:38:03.103Z</time>
      </trkpt>
      <trkpt lat="48.83816" lon="2.46801">
        <ele>110.9</ele>
        <time>2015-05-25T19:38:05.108Z</time>
      </trkpt>
      <trkpt lat="48.83819" lon="2.46796">
        <ele>111</ele>
        <time>2015-05-25T19:38:06.126Z</time>
      </trkpt>
      <trkpt lat="48.83823" lon="2.4679">
        <ele>111.1</ele>
        <time>2015-05-25T19:38:07.057Z</time>
      </trkpt>
      <trkpt lat="48.83826" lon="2.46785">
        <ele>111.2</ele>
        <time>2015-05-25T19:38:08.077Z</time>
      </trkpt>
      <trkpt lat="48.83829" lon="2.46779">
        <ele>111.4</ele>
        <time>2015-05-25T19:38:09.100Z</time>
      </trkpt>
      <trkpt lat="48.83833" lon="2.46776">
        <ele>111.6</ele>
        <time>2015-05-25T19:38:10.105Z</time>
      </trkpt>
      <trkpt lat="48.83838" lon="2.46772">
        <ele>111.5</ele>
        <time>2015-05-25T19:38:11.152Z</time>
      </trkpt>
      <trkpt lat="48.83844" lon="2.46769">
        <ele>112</ele>
        <time>2015-05-25T19:38:12.135Z</time>
      </trkpt>
      <trkpt lat="48.83848" lon="2.46764">
        <ele>112.4</ele>
        <time>2015-05-25T19:38:13.028Z</time>
      </trkpt>
      <trkpt lat="48.83851" lon="2.46761">
        <ele>112.6</ele>
        <time>2015-05-25T19:38:14.057Z</time>
      </trkpt>
      <trkpt lat="48.83858" lon="2.46755">
        <ele>113.2</ele>
        <time>2015-05-25T19:38:16.105Z</time>
      </trkpt>
      <trkpt lat="48.83863" lon="2.46752">
        <ele>113.4</ele>
        <time>2015-05-25T19:38:17.058Z</time>
      </trkpt>
      <trkpt lat="48.83867" lon="2.46749">
        <ele>113.6</ele>
        <time>2015-05-25T19:38:18.079Z</time>
      </trkpt>
      <trkpt lat="48.83872" lon="2.46747">
        <ele>113.8</ele>
        <time>2015-05-25T19:38:19.104Z</time>
      </trkpt>
      <trkpt lat="48.83878" lon="2.46747">
        <ele>113.7</ele>
        <time>2015-05-25T19:38:20.106Z</time>
      </trkpt>
      <trkpt lat="48.83883" lon="2.46745">
        <ele>112.7</ele>
        <time>2015-05-25T19:38:21.111Z</time>
      </trkpt>
      <trkpt lat="48.83887" lon="2.4674">
        <ele>111.9</ele>
        <time>2015-05-25T19:38:22.064Z</time>
      </trkpt>
      <trkpt lat="48.83891" lon="2.46735">
        <ele>111.6</ele>
        <time>2015-05-25T19:38:23.059Z</time>
      </trkpt>
      <trkpt lat="48.83898" lon="2.46728">
        <ele>111.9</ele>
        <time>2015-05-25T19:38:25.087Z</time>
      </trkpt>
      <trkpt lat="48.83902" lon="2.46725">
        <ele>112</ele>
        <time>2015-05-25T19:38:26.094Z</time>
      </trkpt>
      <trkpt lat="48.83907" lon="2.46723">
        <ele>112.3</ele>
        <time>2015-05-25T19:38:27.110Z</time>
      </trkpt>
      <trkpt lat="48.83912" lon="2.46721">
        <ele>112.4</ele>
        <time>2015-05-25T19:38:28.126Z</time>
      </trkpt>
      <trkpt lat="48.83917" lon="2.4672">
        <ele>112.8</ele>
        <time>2015-05-25T19:38:29.138Z</time>
      </trkpt>
      <trkpt lat="48.83921" lon="2.46718">
        <ele>113.2</ele>
        <time>2015-05-25T19:38:30.146Z</time>
      </trkpt>
      <trkpt lat="48.83925" lon="2.46714">
        <ele>113.1</ele>
        <time>2015-05-25T19:38:31.055Z</time>
      </trkpt>
      <trkpt lat="48.8393" lon="2.4671">
        <ele>113.1</ele>
        <time>2015-05-25T19:38:32.061Z</time>
      </trkpt>
      <trkpt lat="48.83934" lon="2.46705">
        <ele>113</ele>
        <time>2015-05-25T19:38:33.128Z</time>
      </trkpt>
      <trkpt lat="48.83938" lon="2.46699">
        <ele>112.8</ele>
        <time>2015-05-25T19:38:34.134Z</time>
      </trkpt>
      <trkpt lat="48.83941" lon="2.46695">
        <ele>112.7</ele>
        <time>2015-05-25T19:38:35.050Z</time>
      </trkpt>
      <trkpt lat="48.83946" lon="2.46691">
        <ele>112.8</ele>
        <time>2015-05-25T19:38:36.078Z</time>
      </trkpt>
      <trkpt lat="48.83952" lon="2.46689">
        <ele>113.2</ele>
        <time>2015-05-25T19:38:37.097Z</time>
      </trkpt>
      <trkpt lat="48.83956" lon="2.46685">
        <ele>113.3</ele>
        <time>2015-05-25T19:38:38.104Z</time>
      </trkpt>
      <trkpt lat="48.83961" lon="2.46682">
        <ele>113.2</ele>
        <time>2015-05-25T19:38:39.117Z</time>
      </trkpt>
      <trkpt lat="48.83966" lon="2.46679">
        <ele>113.2</ele>
        <time>2015-05-25T19:38:40.136Z</time>
      </trkpt>
      <trkpt lat="48.83971" lon="2.46675">
        <ele>113</ele>
        <time>2015-05-25T19:38:41.021Z</time>
      </trkpt>
      <trkpt lat="48.83977" lon="2.46671">
        <ele>112.7</ele>
        <time>2015-05-25T19:38:42.051Z</time>
      </trkpt>
      <trkpt lat="48.83982" lon="2.46668">
        <ele>112.6</ele>
        <time>2015-05-25T19:38:43.054Z</time>
      </trkpt>
      <trkpt lat="48.83987" lon="2.46663">
        <ele>112.4</ele>
        <time>2015-05-25T19:38:44.074Z</time>
      </trkpt>
      <trkpt lat="48.83992" lon="2.46657">
        <ele>112.4</ele>
        <time>2015-05-25T19:38:45.101Z</time>
      </trkpt>
      <trkpt lat="48.83998" lon="2.46652">
        <ele>112.4</ele>
        <time>2015-05-25T19:38:46.108Z</time>
      </trkpt>
      <trkpt lat="48.84004" lon="2.46648">
        <ele>112.6</ele>
        <time>2015-05-25T19:38:47.129Z</time>
      </trkpt>
      <trkpt lat="48.84009" lon="2.46643">
        <ele>113.1</ele>
        <time>2015-05-25T19:38:48.135Z</time>
      </trkpt>
      <trkpt lat="48.84014" lon="2.46636">
        <ele>113.4</ele>
        <time>2015-05-25T19:38:49.049Z</time>
      </trkpt>
      <trkpt lat="48.84018" lon="2.4663">
        <ele>113.6</ele>
        <time>2015-05-25T19:38:50.057Z</time>
      </trkpt>
      <trkpt lat="48.84022" lon="2.46625">
        <ele>113.7</ele>
        <time>2015-05-25T19:38:51.140Z</time>
      </trkpt>
      <trkpt lat="48.84027" lon="2.46619">
        <ele>112.8</ele>
        <time>2015-05-25T19:38:52.112Z</time>
      </trkpt>
      <trkpt lat="48.84032" lon="2.46614">
        <ele>113</ele>
        <time>2015-05-25T19:38:53.132Z</time>
      </trkpt>
      <trkpt lat="48.84037" lon="2.46608">
        <ele>112.9</ele>
        <time>2015-05-25T19:38:54.141Z</time>
      </trkpt>
      <trkpt lat="48.84042" lon="2.46604">
        <ele>113.1</ele>
        <time>2015-05-25T19:38:55.058Z</time>
      </trkpt>
      <trkpt lat="48.84047" lon="2.466">
        <ele>113.1</ele>
        <time>2015-05-25T19:38:56.062Z</time>
      </trkpt>
      <trkpt lat="48.84052" lon="2.46596">
        <ele>113.2</ele>
        <time>2015-05-25T19:38:57.103Z</time>
      </trkpt>
      <trkpt lat="48.84057" lon="2.46592">
        <ele>113.8</ele>
        <time>2015-05-25T19:38:58.101Z</time>
      </trkpt>
      <trkpt lat="48.84061" lon="2.46586">
        <ele>114.1</ele>
        <time>2015-05-25T19:38:59.111Z</time>
      </trkpt>
      <trkpt lat="48.84064" lon="2.46579">
        <ele>114.5</ele>
        <time>2015-05-25T19:39:00.122Z</time>
      </trkpt>
      <trkpt lat="48.84068" lon="2.46573">
        <ele>114.9</ele>
        <time>2015-05-25T19:39:01.051Z</time>
      </trkpt>
      <trkpt lat="48.84071" lon="2.46565">
        <ele>115</ele>
        <time>2015-05-25T19:39:02.062Z</time>
      </trkpt>
      <trkpt lat="48.84075" lon="2.4656">
        <ele>114.6</ele>
        <time>2015-05-25T19:39:03.099Z</time>
      </trkpt>
      <trkpt lat="48.84079" lon="2.46553">
        <ele>114.6</ele>
        <time>2015-05-25T19:39:04.110Z</time>
      </trkpt>
      <trkpt lat="48.84083" lon="2.46547">
        <ele>114.6</ele>
        <time>2015-05-25T19:39:05.133Z</time>
      </trkpt>
      <trkpt lat="48.84087" lon="2.46542">
        <ele>114.5</ele>
        <time>2015-05-25T19:39:06.136Z</time>
      </trkpt>
      <trkpt lat="48.84092" lon="2.46536">
        <ele>114.4</ele>
        <time>2015-05-25T19:39:07.046Z</time>
      </trkpt>
      <trkpt lat="48.84097" lon="2.46531">
        <ele>114.5</ele>
        <time>2015-05-25T19:39:08.053Z</time>
      </trkpt>
      <trkpt lat="48.84103" lon="2.46525">
        <ele>114.7</ele>
        <time>2015-05-25T19:39:09.100Z</time>
      </trkpt>
      <trkpt lat="48.84108" lon="2.46517">
        <ele>114.6</ele>
        <time>2015-05-25T19:39:10.110Z</time>
      </trkpt>
      <trkpt lat="48.84113" lon="2.46509">
        <ele>114.3</ele>
        <time>2015-05-25T19:39:11.119Z</time>
      </trkpt>
      <trkpt lat="48.84119" lon="2.46503">
        <ele>114</ele>
        <time>2015-05-25T19:39:12.131Z</time>
      </trkpt>
      <trkpt lat="48.84125" lon="2.46499">
        <ele>114</ele>
        <time>2015-05-25T19:39:13.051Z</time>
      </trkpt>
      <trkpt lat="48.8413" lon="2.46492">
        <ele>114.2</ele>
        <time>2015-05-25T19:39:14.057Z</time>
      </trkpt>
      <trkpt lat="48.84135" lon="2.46482">
        <ele>114.6</ele>
        <time>2015-05-25T19:39:15.104Z</time>
      </trkpt>
      <trkpt lat="48.8414" lon="2.46474">
        <ele>114.6</ele>
        <time>2015-05-25T19:39:16.108Z</time>
      </trkpt>
      <trkpt lat="48.84146" lon="2.46467">
        <ele>113.7</ele>
        <time>2015-05-25T19:39:17.123Z</time>
      </trkpt>
      <trkpt lat="48.84149" lon="2.46456">
        <ele>113.5</ele>
        <time>2015-05-25T19:39:18.138Z</time>
      </trkpt>
      <trkpt lat="48.84154" lon="2.46446">
        <ele>113</ele>
        <time>2015-05-25T19:39:19.019Z</time>
      </trkpt>
      <trkpt lat="48.84161" lon="2.4644">
        <ele>112.5</ele>
        <time>2015-05-25T19:39:20.034Z</time>
      </trkpt>
      <trkpt lat="48.84166" lon="2.46433">
        <ele>112.4</ele>
        <time>2015-05-25T19:39:21.085Z</time>
      </trkpt>
      <trkpt lat="48.8417" lon="2.46425">
        <ele>112.6</ele>
        <time>2015-05-25T19:39:22.084Z</time>
      </trkpt>
      <trkpt lat="48.84175" lon="2.46418">
        <ele>112.5</ele>
        <time>2015-05-25T19:39:23.103Z</time>
      </trkpt>
      <trkpt lat="48.84181" lon="2.46409">
        <ele>112.3</ele>
        <time>2015-05-25T19:39:24.112Z</time>
      </trkpt>
      <trkpt lat="48.84185" lon="2.46399">
        <ele>111.9</ele>
        <time>2015-05-25T19:39:25.110Z</time>
      </trkpt>
      <trkpt lat="48.84188" lon="2.46387">
        <ele>112.1</ele>
        <time>2015-05-25T19:39:26.121Z</time>
      </trkpt>
      <trkpt lat="48.84193" lon="2.46379">
        <ele>112.1</ele>
        <time>2015-05-25T19:39:27.137Z</time>
      </trkpt>
      <trkpt lat="48.84198" lon="2.46372">
        <ele>112.7</ele>
        <time>2015-05-25T19:39:28.044Z</time>
      </trkpt>
      <trkpt lat="48.84203" lon="2.46364">
        <ele>112.3</ele>
        <time>2015-05-25T19:39:29.036Z</time>
      </trkpt>
      <trkpt lat="48.84207" lon="2.46356">
        <ele>112.3</ele>
        <time>2015-05-25T19:39:30.046Z</time>
      </trkpt>
      <trkpt lat="48.8421" lon="2.46348">
        <ele>112.4</ele>
        <time>2015-05-25T19:39:31.081Z</time>
      </trkpt>
      <trkpt lat="48.84213" lon="2.4634">
        <ele>112.1</ele>
        <time>2015-05-25T19:39:32.096Z</time>
      </trkpt>
      <trkpt lat="48.84217" lon="2.46334">
        <ele>112.2</ele>
        <time>2015-05-25T19:39:33.104Z</time>
      </trkpt>
      <trkpt lat="48.8422" lon="2.46328">
        <ele>111.9</ele>
        <time>2015-05-25T19:39:34.121Z</time>
      </trkpt>
      <trkpt lat="48.84226" lon="2.46318">
        <ele>111.9</ele>
        <time>2015-05-25T19:39:37.065Z</time>
      </trkpt>
      <trkpt lat="48.84225" lon="2.46317">
        <ele>110.6</ele>
        <time>2015-05-25T19:39:38.066Z</time>
      </trkpt>
      <trkpt lat="48.8422" lon="2.46314">
        <ele>107.7</ele>
        <time>2015-05-25T19:39:42.047Z</time>
      </trkpt>
      <trkpt lat="48.8422" lon="2.46316">
        <ele>106.5</ele>
        <time>2015-05-25T19:39:43.040Z</time>
      </trkpt>
      <trkpt lat="48.8422" lon="2.46316">
        <ele>106.3</ele>
        <time>2015-05-25T19:40:16.064Z</time>
      </trkpt>
      <trkpt lat="48.84221" lon="2.46317">
        <ele>104.7</ele>
        <time>2015-05-25T19:40:17.067Z</time>
      </trkpt>
      <trkpt lat="48.84225" lon="2.46311">
        <ele>104.7</ele>
        <time>2015-05-25T19:40:19.050Z</time>
      </trkpt>
      <trkpt lat="48.84228" lon="2.46308">
        <ele>104.8</ele>
        <time>2015-05-25T19:40:20.070Z</time>
      </trkpt>
      <trkpt lat="48.84236" lon="2.46301">
        <ele>104.9</ele>
        <time>2015-05-25T19:40:22.103Z</time>
      </trkpt>
      <trkpt lat="48.84239" lon="2.46297">
        <ele>105</ele>
        <time>2015-05-25T19:40:23.109Z</time>
      </trkpt>
      <trkpt lat="48.84244" lon="2.46288">
        <ele>105</ele>
        <time>2015-05-25T19:40:25.135Z</time>
      </trkpt>
      <trkpt lat="48.84246" lon="2.46284">
        <ele>105</ele>
        <time>2015-05-25T19:40:26.047Z</time>
      </trkpt>
      <trkpt lat="48.84251" lon="2.46274">
        <ele>105</ele>
        <time>2015-05-25T19:40:28.097Z</time>
      </trkpt>
      <trkpt lat="48.84253" lon="2.46269">
        <ele>105.1</ele>
        <time>2015-05-25T19:40:29.181Z</time>
      </trkpt>
      <trkpt lat="48.84258" lon="2.46257">
        <ele>105.1</ele>
        <time>2015-05-25T19:40:31.019Z</time>
      </trkpt>
      <trkpt lat="48.8426" lon="2.46252">
        <ele>105.2</ele>
        <time>2015-05-25T19:40:32.073Z</time>
      </trkpt>
      <trkpt lat="48.84262" lon="2.46244">
        <ele>105.3</ele>
        <time>2015-05-25T19:40:33.115Z</time>
      </trkpt>
      <trkpt lat="48.84264" lon="2.46237">
        <ele>105.2</ele>
        <time>2015-05-25T19:40:34.122Z</time>
      </trkpt>
      <trkpt lat="48.84267" lon="2.46228">
        <ele>105.1</ele>
        <time>2015-05-25T19:40:35.130Z</time>
      </trkpt>
      <trkpt lat="48.8427" lon="2.46219">
        <ele>104.8</ele>
        <time>2015-05-25T19:40:36.131Z</time>
      </trkpt>
      <trkpt lat="48.84272" lon="2.46209">
        <ele>104.6</ele>
        <time>2015-05-25T19:40:37.018Z</time>
      </trkpt>
      <trkpt lat="48.84274" lon="2.46199">
        <ele>104.5</ele>
        <time>2015-05-25T19:40:38.053Z</time>
      </trkpt>
      <trkpt lat="48.84276" lon="2.4619">
        <ele>104.5</ele>
        <time>2015-05-25T19:40:39.105Z</time>
      </trkpt>
      <trkpt lat="48.84278" lon="2.46179">
        <ele>104.7</ele>
        <time>2015-05-25T19:40:40.122Z</time>
      </trkpt>
      <trkpt lat="48.84278" lon="2.46167">
        <ele>104.9</ele>
        <time>2015-05-25T19:40:41.044Z</time>
      </trkpt>
      <trkpt lat="48.84279" lon="2.46155">
        <ele>104.6</ele>
        <time>2015-05-25T19:40:42.055Z</time>
      </trkpt>
      <trkpt lat="48.84281" lon="2.46144">
        <ele>104.3</ele>
        <time>2015-05-25T19:40:43.072Z</time>
      </trkpt>
      <trkpt lat="48.84282" lon="2.46132">
        <ele>104.1</ele>
        <time>2015-05-25T19:40:44.079Z</time>
      </trkpt>
      <trkpt lat="48.84284" lon="2.46121">
        <ele>103.7</ele>
        <time>2015-05-25T19:40:45.115Z</time>
      </trkpt>
      <trkpt lat="48.84286" lon="2.46111">
        <ele>103.5</ele>
        <time>2015-05-25T19:40:46.127Z</time>
      </trkpt>
      <trkpt lat="48.84288" lon="2.461">
        <ele>103.3</ele>
        <time>2015-05-25T19:40:47.048Z</time>
      </trkpt>
      <trkpt lat="48.84289" lon="2.46086">
        <ele>103.9</ele>
        <time>2015-05-25T19:40:48.021Z</time>
      </trkpt>
      <trkpt lat="48.84291" lon="2.46076">
        <ele>103.9</ele>
        <time>2015-05-25T19:40:49.045Z</time>
      </trkpt>
      <trkpt lat="48.84293" lon="2.46066">
        <ele>103.6</ele>
        <time>2015-05-25T19:40:50.052Z</time>
      </trkpt>
      <trkpt lat="48.84296" lon="2.46058">
        <ele>103.4</ele>
        <time>2015-05-25T19:40:51.060Z</time>
      </trkpt>
      <trkpt lat="48.84297" lon="2.46048">
        <ele>103.6</ele>
        <time>2015-05-25T19:40:52.073Z</time>
      </trkpt>
      <trkpt lat="48.84299" lon="2.46037">
        <ele>104.1</ele>
        <time>2015-05-25T19:40:53.091Z</time>
      </trkpt>
      <trkpt lat="48.84302" lon="2.46028">
        <ele>104.1</ele>
        <time>2015-05-25T19:40:54.101Z</time>
      </trkpt>
      <trkpt lat="48.84304" lon="2.46018">
        <ele>104.4</ele>
        <time>2015-05-25T19:40:55.127Z</time>
      </trkpt>
      <trkpt lat="48.84307" lon="2.46009">
        <ele>104.6</ele>
        <time>2015-05-25T19:40:56.139Z</time>
      </trkpt>
      <trkpt lat="48.8431" lon="2.46">
        <ele>104.5</ele>
        <time>2015-05-25T19:40:57.138Z</time>
      </trkpt>
      <trkpt lat="48.84313" lon="2.4599">
        <ele>104.7</ele>
        <time>2015-05-25T19:40:58.059Z</time>
      </trkpt>
      <trkpt lat="48.84315" lon="2.45981">
        <ele>104.5</ele>
        <time>2015-05-25T19:40:59.032Z</time>
      </trkpt>
      <trkpt lat="48.84318" lon="2.45972">
        <ele>104.6</ele>
        <time>2015-05-25T19:41:00.061Z</time>
      </trkpt>
      <trkpt lat="48.8432" lon="2.45963">
        <ele>104.5</ele>
        <time>2015-05-25T19:41:01.079Z</time>
      </trkpt>
      <trkpt lat="48.84323" lon="2.45954">
        <ele>104</ele>
        <time>2015-05-25T19:41:02.089Z</time>
      </trkpt>
      <trkpt lat="48.84325" lon="2.45944">
        <ele>103.6</ele>
        <time>2015-05-25T19:41:03.138Z</time>
      </trkpt>
      <trkpt lat="48.84327" lon="2.45933">
        <ele>103.6</ele>
        <time>2015-05-25T19:41:04.042Z</time>
      </trkpt>
      <trkpt lat="48.84328" lon="2.45921">
        <ele>104</ele>
        <time>2015-05-25T19:41:05.040Z</time>
      </trkpt>
      <trkpt lat="48.84329" lon="2.4591">
        <ele>104.4</ele>
        <time>2015-05-25T19:41:06.047Z</time>
      </trkpt>
      <trkpt lat="48.84331" lon="2.459">
        <ele>104.5</ele>
        <time>2015-05-25T19:41:07.058Z</time>
      </trkpt>
      <trkpt lat="48.84332" lon="2.45889">
        <ele>104.1</ele>
        <time>2015-05-25T19:41:08.078Z</time>
      </trkpt>
      <trkpt lat="48.84334" lon="2.45877">
        <ele>103.8</ele>
        <time>2015-05-25T19:41:09.138Z</time>
      </trkpt>
      <trkpt lat="48.84337" lon="2.45866">
        <ele>103.7</ele>
        <time>2015-05-25T19:41:10.042Z</time>
      </trkpt>
      <trkpt lat="48.8434" lon="2.45857">
        <ele>103.2</ele>
        <time>2015-05-25T19:41:11.048Z</time>
      </trkpt>
      <trkpt lat="48.84342" lon="2.45846">
        <ele>102.9</ele>
        <time>2015-05-25T19:41:12.062Z</time>
      </trkpt>
      <trkpt lat="48.84344" lon="2.45833">
        <ele>103.2</ele>
        <time>2015-05-25T19:41:13.072Z</time>
      </trkpt>
      <trkpt lat="48.84347" lon="2.45822">
        <ele>103.7</ele>
        <time>2015-05-25T19:41:14.103Z</time>
      </trkpt>
      <trkpt lat="48.8435" lon="2.45811">
        <ele>103.6</ele>
        <time>2015-05-25T19:41:15.123Z</time>
      </trkpt>
      <trkpt lat="48.84351" lon="2.45799">
        <ele>103.7</ele>
        <time>2015-05-25T19:41:16.043Z</time>
      </trkpt>
      <trkpt lat="48.84354" lon="2.45788">
        <ele>104.1</ele>
        <time>2015-05-25T19:41:17.034Z</time>
      </trkpt>
      <trkpt lat="48.84356" lon="2.45777">
        <ele>104.4</ele>
        <time>2015-05-25T19:41:18.040Z</time>
      </trkpt>
      <trkpt lat="48.84358" lon="2.45766">
        <ele>105.1</ele>
        <time>2015-05-25T19:41:19.057Z</time>
      </trkpt>
      <trkpt lat="48.84359" lon="2.45754">
        <ele>105.3</ele>
        <time>2015-05-25T19:41:20.068Z</time>
      </trkpt>
      <trkpt lat="48.84358" lon="2.45741">
        <ele>104.7</ele>
        <time>2015-05-25T19:41:21.131Z</time>
      </trkpt>
      <trkpt lat="48.84358" lon="2.45729">
        <ele>104</ele>
        <time>2015-05-25T19:41:22.118Z</time>
      </trkpt>
      <trkpt lat="48.84359" lon="2.45718">
        <ele>103.5</ele>
        <time>2015-05-25T19:41:23.132Z</time>
      </trkpt>
      <trkpt lat="48.8436" lon="2.45707">
        <ele>103.7</ele>
        <time>2015-05-25T19:41:24.042Z</time>
      </trkpt>
      <trkpt lat="48.84361" lon="2.45696">
        <ele>103.7</ele>
        <time>2015-05-25T19:41:25.051Z</time>
      </trkpt>
      <trkpt lat="48.84363" lon="2.45685">
        <ele>103.9</ele>
        <time>2015-05-25T19:41:26.063Z</time>
      </trkpt>
      <trkpt lat="48.84365" lon="2.45674">
        <ele>104.6</ele>
        <time>2015-05-25T19:41:27.085Z</time>
      </trkpt>
      <trkpt lat="48.84366" lon="2.45663">
        <ele>104.4</ele>
        <time>2015-05-25T19:41:28.092Z</time>
      </trkpt>
      <trkpt lat="48.84367" lon="2.45653">
        <ele>104.5</ele>
        <time>2015-05-25T19:41:29.101Z</time>
      </trkpt>
      <trkpt lat="48.8437" lon="2.45643">
        <ele>104.8</ele>
        <time>2015-05-25T19:41:30.104Z</time>
      </trkpt>
      <trkpt lat="48.84372" lon="2.45633">
        <ele>104.5</ele>
        <time>2015-05-25T19:41:31.112Z</time>
      </trkpt>
      <trkpt lat="48.84373" lon="2.45622">
        <ele>104.4</ele>
        <time>2015-05-25T19:41:32.119Z</time>
      </trkpt>
      <trkpt lat="48.84375" lon="2.45611">
        <ele>104.3</ele>
        <time>2015-05-25T19:41:33.137Z</time>
      </trkpt>
      <trkpt lat="48.84377" lon="2.45601">
        <ele>104.4</ele>
        <time>2015-05-25T19:41:34.039Z</time>
      </trkpt>
      <trkpt lat="48.84379" lon="2.45591">
        <ele>104.5</ele>
        <time>2015-05-25T19:41:35.073Z</time>
      </trkpt>
      <trkpt lat="48.84383" lon="2.45582">
        <ele>104.5</ele>
        <time>2015-05-25T19:41:36.073Z</time>
      </trkpt>
      <trkpt lat="48.84385" lon="2.45572">
        <ele>104.4</ele>
        <time>2015-05-25T19:41:37.070Z</time>
      </trkpt>
      <trkpt lat="48.84388" lon="2.45563">
        <ele>104.4</ele>
        <time>2015-05-25T19:41:38.075Z</time>
      </trkpt>
      <trkpt lat="48.8439" lon="2.45553">
        <ele>104.1</ele>
        <time>2015-05-25T19:41:39.087Z</time>
      </trkpt>
      <trkpt lat="48.84392" lon="2.45543">
        <ele>104</ele>
        <time>2015-05-25T19:41:40.094Z</time>
      </trkpt>
      <trkpt lat="48.84395" lon="2.45533">
        <ele>104.3</ele>
        <time>2015-05-25T19:41:41.107Z</time>
      </trkpt>
      <trkpt lat="48.84396" lon="2.45521">
        <ele>104.2</ele>
        <time>2015-05-25T19:41:42.120Z</time>
      </trkpt>
      <trkpt lat="48.84396" lon="2.45509">
        <ele>104.4</ele>
        <time>2015-05-25T19:41:43.135Z</time>
      </trkpt>
      <trkpt lat="48.84397" lon="2.45496">
        <ele>104.5</ele>
        <time>2015-05-25T19:41:44.034Z</time>
      </trkpt>
      <trkpt lat="48.84398" lon="2.45485">
        <ele>104.6</ele>
        <time>2015-05-25T19:41:45.091Z</time>
      </trkpt>
      <trkpt lat="48.844" lon="2.45473">
        <ele>103.7</ele>
        <time>2015-05-25T19:41:46.084Z</time>
      </trkpt>
      <trkpt lat="48.844" lon="2.4546">
        <ele>102.7</ele>
        <time>2015-05-25T19:41:47.082Z</time>
      </trkpt>
      <trkpt lat="48.84399" lon="2.45447">
        <ele>102.4</ele>
        <time>2015-05-25T19:41:48.094Z</time>
      </trkpt>
      <trkpt lat="48.844" lon="2.45436">
        <ele>102.2</ele>
        <time>2015-05-25T19:41:49.101Z</time>
      </trkpt>
      <trkpt lat="48.84401" lon="2.45425">
        <ele>102.2</ele>
        <time>2015-05-25T19:41:50.112Z</time>
      </trkpt>
      <trkpt lat="48.84402" lon="2.45414">
        <ele>102</ele>
        <time>2015-05-25T19:41:51.142Z</time>
      </trkpt>
      <trkpt lat="48.84403" lon="2.45403">
        <ele>101.8</ele>
        <time>2015-05-25T19:41:52.057Z</time>
      </trkpt>
      <trkpt lat="48.84405" lon="2.45393">
        <ele>102</ele>
        <time>2015-05-25T19:41:53.062Z</time>
      </trkpt>
      <trkpt lat="48.84407" lon="2.45383">
        <ele>102.1</ele>
        <time>2015-05-25T19:41:54.080Z</time>
      </trkpt>
      <trkpt lat="48.84408" lon="2.45373">
        <ele>101.8</ele>
        <time>2015-05-25T19:41:55.089Z</time>
      </trkpt>
      <trkpt lat="48.84409" lon="2.45361">
        <ele>102</ele>
        <time>2015-05-25T19:41:56.092Z</time>
      </trkpt>
      <trkpt lat="48.8441" lon="2.45351">
        <ele>102.3</ele>
        <time>2015-05-25T19:41:57.103Z</time>
      </trkpt>
      <trkpt lat="48.84411" lon="2.45342">
        <ele>102.1</ele>
        <time>2015-05-25T19:41:58.105Z</time>
      </trkpt>
      <trkpt lat="48.84412" lon="2.45332">
        <ele>102.2</ele>
        <time>2015-05-25T19:41:59.015Z</time>
      </trkpt>
      <trkpt lat="48.84413" lon="2.45321">
        <ele>101.6</ele>
        <time>2015-05-25T19:42:00.119Z</time>
      </trkpt>
      <trkpt lat="48.84414" lon="2.45311">
        <ele>101.7</ele>
        <time>2015-05-25T19:42:01.037Z</time>
      </trkpt>
      <trkpt lat="48.84415" lon="2.453">
        <ele>102.1</ele>
        <time>2015-05-25T19:42:02.034Z</time>
      </trkpt>
      <trkpt lat="48.84416" lon="2.45289">
        <ele>102.1</ele>
        <time>2015-05-25T19:42:03.087Z</time>
      </trkpt>
      <trkpt lat="48.84417" lon="2.45278">
        <ele>102.3</ele>
        <time>2015-05-25T19:42:04.084Z</time>
      </trkpt>
      <trkpt lat="48.84417" lon="2.45265">
        <ele>102.6</ele>
        <time>2015-05-25T19:42:05.092Z</time>
      </trkpt>
      <trkpt lat="48.84418" lon="2.45253">
        <ele>102.8</ele>
        <time>2015-05-25T19:42:06.095Z</time>
      </trkpt>
      <trkpt lat="48.84419" lon="2.45242">
        <ele>102.4</ele>
        <time>2015-05-25T19:42:07.126Z</time>
      </trkpt>
      <trkpt lat="48.84419" lon="2.4523">
        <ele>102.3</ele>
        <time>2015-05-25T19:42:08.042Z</time>
      </trkpt>
      <trkpt lat="48.8442" lon="2.45219">
        <ele>102.5</ele>
        <time>2015-05-25T19:42:09.087Z</time>
      </trkpt>
      <trkpt lat="48.84421" lon="2.45207">
        <ele>102.2</ele>
        <time>2015-05-25T19:42:10.096Z</time>
      </trkpt>
      <trkpt lat="48.84423" lon="2.45196">
        <ele>101.5</ele>
        <time>2015-05-25T19:42:11.105Z</time>
      </trkpt>
      <trkpt lat="48.84425" lon="2.45185">
        <ele>101.8</ele>
        <time>2015-05-25T19:42:12.111Z</time>
      </trkpt>
      <trkpt lat="48.84427" lon="2.45174">
        <ele>101.5</ele>
        <time>2015-05-25T19:42:13.117Z</time>
      </trkpt>
      <trkpt lat="48.84429" lon="2.45165">
        <ele>101.1</ele>
        <time>2015-05-25T19:42:14.038Z</time>
      </trkpt>
      <trkpt lat="48.84431" lon="2.45156">
        <ele>101.5</ele>
        <time>2015-05-25T19:42:15.088Z</time>
      </trkpt>
      <trkpt lat="48.84433" lon="2.45147">
        <ele>101.8</ele>
        <time>2015-05-25T19:42:16.099Z</time>
      </trkpt>
      <trkpt lat="48.84434" lon="2.45138">
        <ele>101.8</ele>
        <time>2015-05-25T19:42:17.110Z</time>
      </trkpt>
      <trkpt lat="48.84435" lon="2.4513">
        <ele>101.5</ele>
        <time>2015-05-25T19:42:18.123Z</time>
      </trkpt>
      <trkpt lat="48.84436" lon="2.45122">
        <ele>101.5</ele>
        <time>2015-05-25T19:42:19.045Z</time>
      </trkpt>
      <trkpt lat="48.84437" lon="2.45115">
        <ele>101.4</ele>
        <time>2015-05-25T19:42:20.044Z</time>
      </trkpt>
      <trkpt lat="48.84439" lon="2.45108">
        <ele>101.4</ele>
        <time>2015-05-25T19:42:21.080Z</time>
      </trkpt>
      <trkpt lat="48.84439" lon="2.45101">
        <ele>101.5</ele>
        <time>2015-05-25T19:42:22.096Z</time>
      </trkpt>
      <trkpt lat="48.84441" lon="2.4509">
        <ele>101.7</ele>
        <time>2015-05-25T19:42:24.119Z</time>
      </trkpt>
      <trkpt lat="48.84441" lon="2.45086">
        <ele>101.7</ele>
        <time>2015-05-25T19:42:25.127Z</time>
      </trkpt>
      <trkpt lat="48.84448" lon="2.45083">
        <ele>101.6</ele>
        <time>2015-05-25T19:42:28.146Z</time>
      </trkpt>
      <trkpt lat="48.84451" lon="2.45084">
        <ele>102</ele>
        <time>2015-05-25T19:42:29.038Z</time>
      </trkpt>
      <trkpt lat="48.8445" lon="2.45086">
        <ele>102.2</ele>
        <time>2015-05-25T19:43:20.098Z</time>
      </trkpt>
      <trkpt lat="48.84442" lon="2.451">
        <ele>109.9</ele>
        <time>2015-05-25T19:43:21.120Z</time>
      </trkpt>
      <trkpt lat="48.84437" lon="2.45098">
        <ele>109.5</ele>
        <time>2015-05-25T19:45:07.047Z</time>
      </trkpt>
      <trkpt lat="48.84456" lon="2.45085">
        <ele>109.3</ele>
        <time>2015-05-25T19:45:08.072Z</time>
      </trkpt>
      <trkpt lat="48.84456" lon="2.45073">
        <ele>108.9</ele>
        <time>2015-05-25T19:45:11.067Z</time>
      </trkpt>
      <trkpt lat="48.84457" lon="2.45068">
        <ele>108.6</ele>
        <time>2015-05-25T19:45:12.130Z</time>
      </trkpt>
      <trkpt lat="48.84458" lon="2.45058">
        <ele>108.3</ele>
        <time>2015-05-25T19:45:14.030Z</time>
      </trkpt>
      <trkpt lat="48.84458" lon="2.45053">
        <ele>108.3</ele>
        <time>2015-05-25T19:45:15.072Z</time>
      </trkpt>
      <trkpt lat="48.84457" lon="2.4504">
        <ele>107.8</ele>
        <time>2015-05-25T19:45:18.014Z</time>
      </trkpt>
      <trkpt lat="48.84456" lon="2.45035">
        <ele>107.6</ele>
        <time>2015-05-25T19:45:19.051Z</time>
      </trkpt>
      <trkpt lat="48.84457" lon="2.45023">
        <ele>108</ele>
        <time>2015-05-25T19:45:24.047Z</time>
      </trkpt>
      <trkpt lat="48.84457" lon="2.45021">
        <ele>108</ele>
        <time>2015-05-25T19:45:25.072Z</time>
      </trkpt>
      <trkpt lat="48.84457" lon="2.45012">
        <ele>107.4</ele>
        <time>2015-05-25T19:45:43.014Z</time>
      </trkpt>
      <trkpt lat="48.8446" lon="2.45008">
        <ele>106.4</ele>
        <time>2015-05-25T19:45:44.020Z</time>
      </trkpt>
      <trkpt lat="48.8446" lon="2.44998">
        <ele>106.1</ele>
        <time>2015-05-25T19:45:47.065Z</time>
      </trkpt>
      <trkpt lat="48.84462" lon="2.44994">
        <ele>106.4</ele>
        <time>2015-05-25T19:45:48.079Z</time>
      </trkpt>
      <trkpt lat="48.84464" lon="2.44981">
        <ele>106.3</ele>
        <time>2015-05-25T19:45:51.097Z</time>
      </trkpt>
      <trkpt lat="48.84464" lon="2.44976">
        <ele>106.4</ele>
        <time>2015-05-25T19:45:52.027Z</time>
      </trkpt>
      <trkpt lat="48.84464" lon="2.44965">
        <ele>106.4</ele>
        <time>2015-05-25T19:45:54.042Z</time>
      </trkpt>
      <trkpt lat="48.84464" lon="2.4496">
        <ele>106.6</ele>
        <time>2015-05-25T19:45:55.084Z</time>
      </trkpt>
      <trkpt lat="48.84465" lon="2.44948">
        <ele>106.7</ele>
        <time>2015-05-25T19:45:57.173Z</time>
      </trkpt>
      <trkpt lat="48.84465" lon="2.44941">
        <ele>106.4</ele>
        <time>2015-05-25T19:45:58.032Z</time>
      </trkpt>
      <trkpt lat="48.84464" lon="2.44933">
        <ele>106.2</ele>
        <time>2015-05-25T19:45:59.043Z</time>
      </trkpt>
      <trkpt lat="48.84464" lon="2.44925">
        <ele>105.9</ele>
        <time>2015-05-25T19:46:00.126Z</time>
      </trkpt>
      <trkpt lat="48.84465" lon="2.44918">
        <ele>105.4</ele>
        <time>2015-05-25T19:46:01.066Z</time>
      </trkpt>
      <trkpt lat="48.84465" lon="2.44911">
        <ele>104.9</ele>
        <time>2015-05-25T19:46:02.078Z</time>
      </trkpt>
      <trkpt lat="48.84466" lon="2.44904">
        <ele>105.1</ele>
        <time>2015-05-25T19:46:03.094Z</time>
      </trkpt>
      <trkpt lat="48.84467" lon="2.44897">
        <ele>105.2</ele>
        <time>2015-05-25T19:46:04.109Z</time>
      </trkpt>
      <trkpt lat="48.8447" lon="2.44885">
        <ele>105</ele>
        <time>2015-05-25T19:46:06.046Z</time>
      </trkpt>
      <trkpt lat="48.84471" lon="2.44879">
        <ele>105</ele>
        <time>2015-05-25T19:46:07.171Z</time>
      </trkpt>
      <trkpt lat="48.84474" lon="2.44866">
        <ele>105.1</ele>
        <time>2015-05-25T19:46:09.074Z</time>
      </trkpt>
      <trkpt lat="48.84475" lon="2.4486">
        <ele>104.8</ele>
        <time>2015-05-25T19:46:10.124Z</time>
      </trkpt>
      <trkpt lat="48.84476" lon="2.44847">
        <ele>104.5</ele>
        <time>2015-05-25T19:46:12.050Z</time>
      </trkpt>
      <trkpt lat="48.84476" lon="2.4484">
        <ele>104.2</ele>
        <time>2015-05-25T19:46:13.133Z</time>
      </trkpt>
      <trkpt lat="48.84476" lon="2.44827">
        <ele>103.9</ele>
        <time>2015-05-25T19:46:15.088Z</time>
      </trkpt>
      <trkpt lat="48.84478" lon="2.44822">
        <ele>103.6</ele>
        <time>2015-05-25T19:46:16.103Z</time>
      </trkpt>
      <trkpt lat="48.8448" lon="2.4481">
        <ele>103.1</ele>
        <time>2015-05-25T19:46:18.047Z</time>
      </trkpt>
      <trkpt lat="48.84481" lon="2.44804">
        <ele>102.9</ele>
        <time>2015-05-25T19:46:19.279Z</time>
      </trkpt>
      <trkpt lat="48.84481" lon="2.44797">
        <ele>103.3</ele>
        <time>2015-05-25T19:46:20.123Z</time>
      </trkpt>
      <trkpt lat="48.84483" lon="2.44789">
        <ele>103.2</ele>
        <time>2015-05-25T19:46:21.132Z</time>
      </trkpt>
      <trkpt lat="48.84482" lon="2.44782">
        <ele>103</ele>
        <time>2015-05-25T19:46:22.016Z</time>
      </trkpt>
      <trkpt lat="48.84483" lon="2.44774">
        <ele>102.9</ele>
        <time>2015-05-25T19:46:23.041Z</time>
      </trkpt>
      <trkpt lat="48.84483" lon="2.44766">
        <ele>102.8</ele>
        <time>2015-05-25T19:46:24.060Z</time>
      </trkpt>
      <trkpt lat="48.84484" lon="2.44759">
        <ele>102.5</ele>
        <time>2015-05-25T19:46:25.068Z</time>
      </trkpt>
      <trkpt lat="48.84485" lon="2.44752">
        <ele>102.6</ele>
        <time>2015-05-25T19:46:26.085Z</time>
      </trkpt>
      <trkpt lat="48.84486" lon="2.44743">
        <ele>102.6</ele>
        <time>2015-05-25T19:46:27.087Z</time>
      </trkpt>
      <trkpt lat="48.84486" lon="2.44734">
        <ele>102.7</ele>
        <time>2015-05-25T19:46:28.129Z</time>
      </trkpt>
      <trkpt lat="48.84486" lon="2.44725">
        <ele>102.7</ele>
        <time>2015-05-25T19:46:29.115Z</time>
      </trkpt>
      <trkpt lat="48.84487" lon="2.44717">
        <ele>102.5</ele>
        <time>2015-05-25T19:46:30.052Z</time>
      </trkpt>
      <trkpt lat="48.84487" lon="2.44709">
        <ele>102.4</ele>
        <time>2015-05-25T19:46:31.033Z</time>
      </trkpt>
      <trkpt lat="48.84488" lon="2.44696">
        <ele>101.9</ele>
        <time>2015-05-25T19:46:33.077Z</time>
      </trkpt>
      <trkpt lat="48.84488" lon="2.44689">
        <ele>101.8</ele>
        <time>2015-05-25T19:46:34.094Z</time>
      </trkpt>
      <trkpt lat="48.84487" lon="2.44677">
        <ele>101.8</ele>
        <time>2015-05-25T19:46:36.042Z</time>
      </trkpt>
      <trkpt lat="48.84489" lon="2.44673">
        <ele>101.9</ele>
        <time>2015-05-25T19:46:37.119Z</time>
      </trkpt>
      <trkpt lat="48.84493" lon="2.44664">
        <ele>102.3</ele>
        <time>2015-05-25T19:46:39.134Z</time>
      </trkpt>
      <trkpt lat="48.84495" lon="2.44661">
        <ele>102.6</ele>
        <time>2015-05-25T19:46:40.259Z</time>
      </trkpt>
      <trkpt lat="48.84501" lon="2.44655">
        <ele>102.7</ele>
        <time>2015-05-25T19:46:42.122Z</time>
      </trkpt>
      <trkpt lat="48.84506" lon="2.44657">
        <ele>101.8</ele>
        <time>2015-05-25T19:46:43.124Z</time>
      </trkpt>
      <trkpt lat="48.84512" lon="2.44659">
        <ele>101.6</ele>
        <time>2015-05-25T19:46:45.076Z</time>
      </trkpt>
      <trkpt lat="48.84516" lon="2.44659">
        <ele>101.7</ele>
        <time>2015-05-25T19:46:46.099Z</time>
      </trkpt>
      <trkpt lat="48.84523" lon="2.44659">
        <ele>101.5</ele>
        <time>2015-05-25T19:46:48.044Z</time>
      </trkpt>
      <trkpt lat="48.84526" lon="2.44659">
        <ele>101.1</ele>
        <time>2015-05-25T19:46:49.062Z</time>
      </trkpt>
      <trkpt lat="48.84535" lon="2.4466">
        <ele>100.3</ele>
        <time>2015-05-25T19:46:52.121Z</time>
      </trkpt>
      <trkpt lat="48.84538" lon="2.44661">
        <ele>100.1</ele>
        <time>2015-05-25T19:46:53.128Z</time>
      </trkpt>
      <trkpt lat="48.84544" lon="2.44661">
        <ele>100.9</ele>
        <time>2015-05-25T19:46:55.053Z</time>
      </trkpt>
      <trkpt lat="48.84548" lon="2.44661">
        <ele>101.2</ele>
        <time>2015-05-25T19:46:56.065Z</time>
      </trkpt>
      <trkpt lat="48.84557" lon="2.4466">
        <ele>101.3</ele>
        <time>2015-05-25T19:46:58.097Z</time>
      </trkpt>
      <trkpt lat="48.84561" lon="2.44659">
        <ele>100.7</ele>
        <time>2015-05-25T19:46:59.042Z</time>
      </trkpt>
      <trkpt lat="48.84569" lon="2.44657">
        <ele>100.1</ele>
        <time>2015-05-25T19:47:01.062Z</time>
      </trkpt>
      <trkpt lat="48.84572" lon="2.44654">
        <ele>100.2</ele>
        <time>2015-05-25T19:47:02.087Z</time>
      </trkpt>
      <trkpt lat="48.84576" lon="2.44648">
        <ele>99.7</ele>
        <time>2015-05-25T19:47:04.034Z</time>
      </trkpt>
      <trkpt lat="48.84576" lon="2.44642">
        <ele>99.9</ele>
        <time>2015-05-25T19:47:05.069Z</time>
      </trkpt>
      <trkpt lat="48.84578" lon="2.44631">
        <ele>100.9</ele>
        <time>2015-05-25T19:47:07.042Z</time>
      </trkpt>
      <trkpt lat="48.84579" lon="2.44625">
        <ele>101.2</ele>
        <time>2015-05-25T19:47:08.061Z</time>
      </trkpt>
      <trkpt lat="48.84579" lon="2.44613">
        <ele>100.8</ele>
        <time>2015-05-25T19:47:10.113Z</time>
      </trkpt>
      <trkpt lat="48.84579" lon="2.44605">
        <ele>100.9</ele>
        <time>2015-05-25T19:47:11.130Z</time>
      </trkpt>
      <trkpt lat="48.84579" lon="2.44597">
        <ele>100.9</ele>
        <time>2015-05-25T19:47:12.042Z</time>
      </trkpt>
      <trkpt lat="48.84578" lon="2.4459">
        <ele>100.9</ele>
        <time>2015-05-25T19:47:13.064Z</time>
      </trkpt>
      <trkpt lat="48.8458" lon="2.44578">
        <ele>101.7</ele>
        <time>2015-05-25T19:47:15.078Z</time>
      </trkpt>
      <trkpt lat="48.84582" lon="2.44571">
        <ele>102</ele>
        <time>2015-05-25T19:47:16.100Z</time>
      </trkpt>
      <trkpt lat="48.84583" lon="2.44564">
        <ele>102.3</ele>
        <time>2015-05-25T19:47:17.047Z</time>
      </trkpt>
      <trkpt lat="48.84583" lon="2.44557">
        <ele>102.3</ele>
        <time>2015-05-25T19:47:18.052Z</time>
      </trkpt>
      <trkpt lat="48.84584" lon="2.4455">
        <ele>102.5</ele>
        <time>2015-05-25T19:47:19.046Z</time>
      </trkpt>
      <trkpt lat="48.84583" lon="2.44543">
        <ele>103.1</ele>
        <time>2015-05-25T19:47:20.027Z</time>
      </trkpt>
      <trkpt lat="48.84583" lon="2.44535">
        <ele>103.8</ele>
        <time>2015-05-25T19:47:21.090Z</time>
      </trkpt>
      <trkpt lat="48.84583" lon="2.44527">
        <ele>103.8</ele>
        <time>2015-05-25T19:47:22.080Z</time>
      </trkpt>
      <trkpt lat="48.84584" lon="2.4452">
        <ele>103.4</ele>
        <time>2015-05-25T19:47:21.865Z</time>
      </trkpt>
      <trkpt lat="48.84583" lon="2.44513">
        <ele>103.5</ele>
        <time>2015-05-25T19:47:24.096Z</time>
      </trkpt>
      <trkpt lat="48.84585" lon="2.445">
        <ele>103.6</ele>
        <time>2015-05-25T19:47:26.927Z</time>
      </trkpt>
      <trkpt lat="48.84585" lon="2.44495">
        <ele>103.5</ele>
        <time>2015-05-25T19:47:27.125Z</time>
      </trkpt>
      <trkpt lat="48.84587" lon="2.44487">
        <ele>102.6</ele>
        <time>2015-05-25T19:47:29.045Z</time>
      </trkpt>
      <trkpt lat="48.84587" lon="2.44482">
        <ele>102.1</ele>
        <time>2015-05-25T19:47:30.062Z</time>
      </trkpt>
      <trkpt lat="48.84588" lon="2.44469">
        <ele>101.7</ele>
        <time>2015-05-25T19:47:32.049Z</time>
      </trkpt>
      <trkpt lat="48.8459" lon="2.44464">
        <ele>101.5</ele>
        <time>2015-05-25T19:47:33.106Z</time>
      </trkpt>
      <trkpt lat="48.8459" lon="2.44456">
        <ele>101.5</ele>
        <time>2015-05-25T19:47:34.134Z</time>
      </trkpt>
      <trkpt lat="48.84588" lon="2.44448">
        <ele>101.3</ele>
        <time>2015-05-25T19:47:35.009Z</time>
      </trkpt>
      <trkpt lat="48.84589" lon="2.44436">
        <ele>101.2</ele>
        <time>2015-05-25T19:47:37.062Z</time>
      </trkpt>
      <trkpt lat="48.84589" lon="2.44429">
        <ele>101.3</ele>
        <time>2015-05-25T19:47:38.070Z</time>
      </trkpt>
      <trkpt lat="48.8459" lon="2.44422">
        <ele>101.3</ele>
        <time>2015-05-25T19:47:39.073Z</time>
      </trkpt>
      <trkpt lat="48.84592" lon="2.44414">
        <ele>100.9</ele>
        <time>2015-05-25T19:47:40.079Z</time>
      </trkpt>
      <trkpt lat="48.84591" lon="2.44407">
        <ele>101.2</ele>
        <time>2015-05-25T19:47:41.093Z</time>
      </trkpt>
      <trkpt lat="48.84591" lon="2.444">
        <ele>100.8</ele>
        <time>2015-05-25T19:47:42.103Z</time>
      </trkpt>
      <trkpt lat="48.84591" lon="2.44392">
        <ele>100.5</ele>
        <time>2015-05-25T19:47:43.109Z</time>
      </trkpt>
      <trkpt lat="48.84591" lon="2.44386">
        <ele>100.7</ele>
        <time>2015-05-25T19:47:44.113Z</time>
      </trkpt>
      <trkpt lat="48.84592" lon="2.44373">
        <ele>100.7</ele>
        <time>2015-05-25T19:47:46.125Z</time>
      </trkpt>
      <trkpt lat="48.84592" lon="2.44366">
        <ele>101</ele>
        <time>2015-05-25T19:47:47.089Z</time>
      </trkpt>
      <trkpt lat="48.84592" lon="2.4436">
        <ele>101.4</ele>
        <time>2015-05-25T19:47:48.105Z</time>
      </trkpt>
      <trkpt lat="48.84592" lon="2.44352">
        <ele>101.7</ele>
        <time>2015-05-25T19:47:49.103Z</time>
      </trkpt>
      <trkpt lat="48.84591" lon="2.44344">
        <ele>102</ele>
        <time>2015-05-25T19:47:50.239Z</time>
      </trkpt>
      <trkpt lat="48.84591" lon="2.44334">
        <ele>102.3</ele>
        <time>2015-05-25T19:47:51.115Z</time>
      </trkpt>
      <trkpt lat="48.8459" lon="2.44324">
        <ele>102.7</ele>
        <time>2015-05-25T19:47:52.049Z</time>
      </trkpt>
      <trkpt lat="48.84589" lon="2.44314">
        <ele>103</ele>
        <time>2015-05-25T19:47:53.042Z</time>
      </trkpt>
      <trkpt lat="48.84589" lon="2.44304">
        <ele>102.9</ele>
        <time>2015-05-25T19:47:54.061Z</time>
      </trkpt>
      <trkpt lat="48.84588" lon="2.44295">
        <ele>102.6</ele>
        <time>2015-05-25T19:47:55.060Z</time>
      </trkpt>
      <trkpt lat="48.84588" lon="2.44285">
        <ele>102.7</ele>
        <time>2015-05-25T19:47:56.066Z</time>
      </trkpt>
      <trkpt lat="48.84587" lon="2.44277">
        <ele>102.8</ele>
        <time>2015-05-25T19:47:57.110Z</time>
      </trkpt>
      <trkpt lat="48.84589" lon="2.4427">
        <ele>102.7</ele>
        <time>2015-05-25T19:47:58.152Z</time>
      </trkpt>
      <trkpt lat="48.8459" lon="2.44263">
        <ele>102.7</ele>
        <time>2015-05-25T19:47:59.047Z</time>
      </trkpt>
      <trkpt lat="48.84591" lon="2.4425">
        <ele>102.1</ele>
        <time>2015-05-25T19:48:01.085Z</time>
      </trkpt>
      <trkpt lat="48.84591" lon="2.44244">
        <ele>102</ele>
        <time>2015-05-25T19:48:02.098Z</time>
      </trkpt>
      <trkpt lat="48.84591" lon="2.44232">
        <ele>101.8</ele>
        <time>2015-05-25T19:48:04.030Z</time>
      </trkpt>
      <trkpt lat="48.84591" lon="2.44225">
        <ele>101.9</ele>
        <time>2015-05-25T19:48:05.052Z</time>
      </trkpt>
      <trkpt lat="48.84591" lon="2.44217">
        <ele>101.8</ele>
        <time>2015-05-25T19:48:06.065Z</time>
      </trkpt>
      <trkpt lat="48.84591" lon="2.44208">
        <ele>101.6</ele>
        <time>2015-05-25T19:48:07.071Z</time>
      </trkpt>
      <trkpt lat="48.84591" lon="2.44199">
        <ele>101.6</ele>
        <time>2015-05-25T19:48:08.083Z</time>
      </trkpt>
      <trkpt lat="48.84591" lon="2.4419">
        <ele>101.8</ele>
        <time>2015-05-25T19:48:09.085Z</time>
      </trkpt>
      <trkpt lat="48.84591" lon="2.44181">
        <ele>101.9</ele>
        <time>2015-05-25T19:48:10.103Z</time>
      </trkpt>
      <trkpt lat="48.84591" lon="2.44174">
        <ele>102.3</ele>
        <time>2015-05-25T19:48:11.015Z</time>
      </trkpt>
      <trkpt lat="48.8459" lon="2.44167">
        <ele>102.6</ele>
        <time>2015-05-25T19:48:12.071Z</time>
      </trkpt>
      <trkpt lat="48.84589" lon="2.44159">
        <ele>102.5</ele>
        <time>2015-05-25T19:48:13.104Z</time>
      </trkpt>
      <trkpt lat="48.84588" lon="2.44152">
        <ele>102.6</ele>
        <time>2015-05-25T19:48:14.088Z</time>
      </trkpt>
      <trkpt lat="48.84588" lon="2.44145">
        <ele>102.5</ele>
        <time>2015-05-25T19:48:15.097Z</time>
      </trkpt>
      <trkpt lat="48.8459" lon="2.44133">
        <ele>101.1</ele>
        <time>2015-05-25T19:48:17.013Z</time>
      </trkpt>
      <trkpt lat="48.8459" lon="2.44126">
        <ele>100.7</ele>
        <time>2015-05-25T19:48:18.032Z</time>
      </trkpt>
      <trkpt lat="48.84593" lon="2.44115">
        <ele>100.6</ele>
        <time>2015-05-25T19:48:20.062Z</time>
      </trkpt>
      <trkpt lat="48.84594" lon="2.44108">
        <ele>101.3</ele>
        <time>2015-05-25T19:48:21.092Z</time>
      </trkpt>
      <trkpt lat="48.84596" lon="2.44096">
        <ele>101.5</ele>
        <time>2015-05-25T19:48:23.110Z</time>
      </trkpt>
      <trkpt lat="48.84595" lon="2.44087">
        <ele>101.9</ele>
        <time>2015-05-25T19:48:24.078Z</time>
      </trkpt>
      <trkpt lat="48.84595" lon="2.44079">
        <ele>102.3</ele>
        <time>2015-05-25T19:48:25.038Z</time>
      </trkpt>
      <trkpt lat="48.84596" lon="2.44071">
        <ele>102.5</ele>
        <time>2015-05-25T19:48:26.041Z</time>
      </trkpt>
      <trkpt lat="48.84598" lon="2.44064">
        <ele>102.1</ele>
        <time>2015-05-25T19:48:27.076Z</time>
      </trkpt>
      <trkpt lat="48.84601" lon="2.44059">
        <ele>101.9</ele>
        <time>2015-05-25T19:48:28.086Z</time>
      </trkpt>
      <trkpt lat="48.84603" lon="2.44051">
        <ele>101.9</ele>
        <time>2015-05-25T19:48:29.097Z</time>
      </trkpt>
      <trkpt lat="48.84604" lon="2.44044">
        <ele>102.1</ele>
        <time>2015-05-25T19:48:30.109Z</time>
      </trkpt>
      <trkpt lat="48.84606" lon="2.44037">
        <ele>101.2</ele>
        <time>2015-05-25T19:48:31.036Z</time>
      </trkpt>
      <trkpt lat="48.84607" lon="2.44031">
        <ele>101.1</ele>
        <time>2015-05-25T19:48:32.039Z</time>
      </trkpt>
      <trkpt lat="48.84609" lon="2.44018">
        <ele>101.5</ele>
        <time>2015-05-25T19:48:34.131Z</time>
      </trkpt>
      <trkpt lat="48.84608" lon="2.44011">
        <ele>101.8</ele>
        <time>2015-05-25T19:48:35.053Z</time>
      </trkpt>
      <trkpt lat="48.84608" lon="2.44001">
        <ele>101.9</ele>
        <time>2015-05-25T19:48:37.087Z</time>
      </trkpt>
      <trkpt lat="48.84607" lon="2.43996">
        <ele>102.1</ele>
        <time>2015-05-25T19:48:38.105Z</time>
      </trkpt>
      <trkpt lat="48.84601" lon="2.43987">
        <ele>101.5</ele>
        <time>2015-05-25T19:48:41.110Z</time>
      </trkpt>
      <trkpt lat="48.84599" lon="2.43985">
        <ele>101.1</ele>
        <time>2015-05-25T19:48:42.100Z</time>
      </trkpt>
      <trkpt lat="48.84604" lon="2.43974">
        <ele>103.5</ele>
        <time>2015-05-25T19:51:07.139Z</time>
      </trkpt>
      <trkpt lat="48.84603" lon="2.43971">
        <ele>103.6</ele>
        <time>2015-05-25T19:51:08.056Z</time>
      </trkpt>
      <trkpt lat="48.84597" lon="2.43967">
        <ele>103.1</ele>
        <time>2015-05-25T19:51:11.067Z</time>
      </trkpt>
      <trkpt lat="48.84594" lon="2.43967">
        <ele>102.8</ele>
        <time>2015-05-25T19:51:12.128Z</time>
      </trkpt>
      <trkpt lat="48.84586" lon="2.43964">
        <ele>102.4</ele>
        <time>2015-05-25T19:51:15.154Z</time>
      </trkpt>
      <trkpt lat="48.84584" lon="2.43963">
        <ele>102.3</ele>
        <time>2015-05-25T19:51:16.057Z</time>
      </trkpt>
      <trkpt lat="48.84576" lon="2.43962">
        <ele>102.8</ele>
        <time>2015-05-25T19:51:19.074Z</time>
      </trkpt>
      <trkpt lat="48.84574" lon="2.43962">
        <ele>103</ele>
        <time>2015-05-25T19:51:20.073Z</time>
      </trkpt>
      <trkpt lat="48.84567" lon="2.43956">
        <ele>103.5</ele>
        <time>2015-05-25T19:51:23.114Z</time>
      </trkpt>
      <trkpt lat="48.84566" lon="2.43954">
        <ele>103.6</ele>
        <time>2015-05-25T19:51:24.011Z</time>
      </trkpt>
      <trkpt lat="48.84564" lon="2.43942">
        <ele>103.1</ele>
        <time>2015-05-25T19:51:27.084Z</time>
      </trkpt>
      <trkpt lat="48.84564" lon="2.43937">
        <ele>102.5</ele>
        <time>2015-05-25T19:51:28.086Z</time>
      </trkpt>
      <trkpt lat="48.84558" lon="2.43929">
        <ele>102.2</ele>
        <time>2015-05-25T19:51:32.130Z</time>
      </trkpt>
      <trkpt lat="48.84555" lon="2.43927">
        <ele>102.2</ele>
        <time>2015-05-25T19:51:33.139Z</time>
      </trkpt>
      <trkpt lat="48.8455" lon="2.43918">
        <ele>102.3</ele>
        <time>2015-05-25T19:51:36.142Z</time>
      </trkpt>
      <trkpt lat="48.84548" lon="2.43914">
        <ele>102.3</ele>
        <time>2015-05-25T19:51:37.157Z</time>
      </trkpt>
      <trkpt lat="48.8454" lon="2.43909">
        <ele>102.2</ele>
        <time>2015-05-25T19:51:41.047Z</time>
      </trkpt>
      <trkpt lat="48.84538" lon="2.43909">
        <ele>102.2</ele>
        <time>2015-05-25T19:51:42.073Z</time>
      </trkpt>
      <trkpt lat="48.84533" lon="2.43898">
        <ele>102.2</ele>
        <time>2015-05-25T19:51:46.060Z</time>
      </trkpt>
      <trkpt lat="48.84533" lon="2.43896">
        <ele>102.6</ele>
        <time>2015-05-25T19:51:47.067Z</time>
      </trkpt>
      <trkpt lat="48.84526" lon="2.43892">
        <ele>103.7</ele>
        <time>2015-05-25T19:51:55.087Z</time>
      </trkpt>
      <trkpt lat="48.84524" lon="2.43891">
        <ele>104.5</ele>
        <time>2015-05-25T19:51:56.111Z</time>
      </trkpt>
      <trkpt lat="48.84516" lon="2.43889">
        <ele>105.4</ele>
        <time>2015-05-25T19:51:59.070Z</time>
      </trkpt>
      <trkpt lat="48.84513" lon="2.43887">
        <ele>105.5</ele>
        <time>2015-05-25T19:52:00.177Z</time>
      </trkpt>
      <trkpt lat="48.84506" lon="2.43886">
        <ele>105.2</ele>
        <time>2015-05-25T19:52:03.118Z</time>
      </trkpt>
      <trkpt lat="48.84503" lon="2.43887">
        <ele>105.1</ele>
        <time>2015-05-25T19:52:04.032Z</time>
      </trkpt>
      <trkpt lat="48.84495" lon="2.43885">
        <ele>104.6</ele>
        <time>2015-05-25T19:52:07.064Z</time>
      </trkpt>
      <trkpt lat="48.84492" lon="2.43885">
        <ele>104.6</ele>
        <time>2015-05-25T19:52:08.138Z</time>
      </trkpt>
      <trkpt lat="48.84484" lon="2.43884">
        <ele>104.4</ele>
        <time>2015-05-25T19:52:11.054Z</time>
      </trkpt>
      <trkpt lat="48.84481" lon="2.43883">
        <ele>104.6</ele>
        <time>2015-05-25T19:52:12.091Z</time>
      </trkpt>
      <trkpt lat="48.84472" lon="2.43883">
        <ele>105.7</ele>
        <time>2015-05-25T19:52:15.147Z</time>
      </trkpt>
      <trkpt lat="48.84469" lon="2.43883">
        <ele>106</ele>
        <time>2015-05-25T19:52:16.071Z</time>
      </trkpt>
      <trkpt lat="48.84461" lon="2.4388">
        <ele>106.5</ele>
        <time>2015-05-25T19:52:22.068Z</time>
      </trkpt>
      <trkpt lat="48.8446" lon="2.43876">
        <ele>107</ele>
        <time>2015-05-25T19:52:23.101Z</time>
      </trkpt>
      <trkpt lat="48.84463" lon="2.43863">
        <ele>107</ele>
        <time>2015-05-25T19:52:26.104Z</time>
      </trkpt>
      <trkpt lat="48.84464" lon="2.4386">
        <ele>107.4</ele>
        <time>2015-05-25T19:52:27.106Z</time>
      </trkpt>
      <trkpt lat="48.84465" lon="2.43848">
        <ele>107.3</ele>
        <time>2015-05-25T19:52:29.037Z</time>
      </trkpt>
      <trkpt lat="48.84465" lon="2.43843">
        <ele>107.7</ele>
        <time>2015-05-25T19:52:30.072Z</time>
      </trkpt>
      <trkpt lat="48.84466" lon="2.4383">
        <ele>107.8</ele>
        <time>2015-05-25T19:52:32.057Z</time>
      </trkpt>
      <trkpt lat="48.84466" lon="2.43823">
        <ele>107.7</ele>
        <time>2015-05-25T19:52:33.087Z</time>
      </trkpt>
      <trkpt lat="48.84467" lon="2.43816">
        <ele>107.5</ele>
        <time>2015-05-25T19:52:34.092Z</time>
      </trkpt>
      <trkpt lat="48.84469" lon="2.43808">
        <ele>107.6</ele>
        <time>2015-05-25T19:52:35.100Z</time>
      </trkpt>
      <trkpt lat="48.84469" lon="2.43799">
        <ele>107.5</ele>
        <time>2015-05-25T19:52:36.136Z</time>
      </trkpt>
      <trkpt lat="48.8447" lon="2.43791">
        <ele>107.4</ele>
        <time>2015-05-25T19:52:37.040Z</time>
      </trkpt>
      <trkpt lat="48.8447" lon="2.43782">
        <ele>107.5</ele>
        <time>2015-05-25T19:52:38.053Z</time>
      </trkpt>
      <trkpt lat="48.84471" lon="2.43775">
        <ele>107.6</ele>
        <time>2015-05-25T19:52:39.085Z</time>
      </trkpt>
      <trkpt lat="48.84472" lon="2.43768">
        <ele>107.9</ele>
        <time>2015-05-25T19:52:40.088Z</time>
      </trkpt>
      <trkpt lat="48.84473" lon="2.43761">
        <ele>108.3</ele>
        <time>2015-05-25T19:52:41.090Z</time>
      </trkpt>
      <trkpt lat="48.84474" lon="2.43754">
        <ele>108.7</ele>
        <time>2015-05-25T19:52:42.098Z</time>
      </trkpt>
      <trkpt lat="48.84474" lon="2.43746">
        <ele>108.6</ele>
        <time>2015-05-25T19:52:43.033Z</time>
      </trkpt>
      <trkpt lat="48.84474" lon="2.43739">
        <ele>108.9</ele>
        <time>2015-05-25T19:52:44.036Z</time>
      </trkpt>
      <trkpt lat="48.84475" lon="2.43732">
        <ele>109.3</ele>
        <time>2015-05-25T19:52:45.071Z</time>
      </trkpt>
      <trkpt lat="48.84474" lon="2.43724">
        <ele>109.6</ele>
        <time>2015-05-25T19:52:46.079Z</time>
      </trkpt>
      <trkpt lat="48.84474" lon="2.43718">
        <ele>109.8</ele>
        <time>2015-05-25T19:52:47.083Z</time>
      </trkpt>
      <trkpt lat="48.84475" lon="2.43707">
        <ele>110.3</ele>
        <time>2015-05-25T19:52:49.026Z</time>
      </trkpt>
      <trkpt lat="48.84476" lon="2.43701">
        <ele>110.6</ele>
        <time>2015-05-25T19:52:50.078Z</time>
      </trkpt>
      <trkpt lat="48.84478" lon="2.4369">
        <ele>111.7</ele>
        <time>2015-05-25T19:52:52.137Z</time>
      </trkpt>
      <trkpt lat="48.84479" lon="2.43684">
        <ele>111.8</ele>
        <time>2015-05-25T19:52:53.010Z</time>
      </trkpt>
      <trkpt lat="48.8448" lon="2.43671">
        <ele>112.2</ele>
        <time>2015-05-25T19:52:55.045Z</time>
      </trkpt>
      <trkpt lat="48.8448" lon="2.43666">
        <ele>112.5</ele>
        <time>2015-05-25T19:52:56.019Z</time>
      </trkpt>
      <trkpt lat="48.84483" lon="2.43654">
        <ele>112</ele>
        <time>2015-05-25T19:52:59.803Z</time>
      </trkpt>
      <trkpt lat="48.84483" lon="2.4365">
        <ele>111.9</ele>
        <time>2015-05-25T19:53:00.110Z</time>
      </trkpt>
      <trkpt lat="48.84483" lon="2.43641">
        <ele>111.8</ele>
        <time>2015-05-25T19:53:02.045Z</time>
      </trkpt>
      <trkpt lat="48.84483" lon="2.43637">
        <ele>111.4</ele>
        <time>2015-05-25T19:53:03.084Z</time>
      </trkpt>
      <trkpt lat="48.84485" lon="2.43627">
        <ele>111.1</ele>
        <time>2015-05-25T19:53:05.036Z</time>
      </trkpt>
      <trkpt lat="48.84485" lon="2.4362">
        <ele>111.1</ele>
        <time>2015-05-25T19:53:06.010Z</time>
      </trkpt>
      <trkpt lat="48.84486" lon="2.43614">
        <ele>110.5</ele>
        <time>2015-05-25T19:53:07.089Z</time>
      </trkpt>
      <trkpt lat="48.84486" lon="2.43607">
        <ele>110.6</ele>
        <time>2015-05-25T19:53:08.104Z</time>
      </trkpt>
      <trkpt lat="48.84488" lon="2.43594">
        <ele>110.4</ele>
        <time>2015-05-25T19:53:10.004Z</time>
      </trkpt>
      <trkpt lat="48.84489" lon="2.43588">
        <ele>110.4</ele>
        <time>2015-05-25T19:53:11.060Z</time>
      </trkpt>
      <trkpt lat="48.8449" lon="2.43574">
        <ele>110.3</ele>
        <time>2015-05-25T19:53:13.093Z</time>
      </trkpt>
      <trkpt lat="48.8449" lon="2.43567">
        <ele>110.5</ele>
        <time>2015-05-25T19:53:14.098Z</time>
      </trkpt>
      <trkpt lat="48.84492" lon="2.43554">
        <ele>110.3</ele>
        <time>2015-05-25T19:53:16.120Z</time>
      </trkpt>
      <trkpt lat="48.84493" lon="2.43548">
        <ele>110.1</ele>
        <time>2015-05-25T19:53:17.125Z</time>
      </trkpt>
      <trkpt lat="48.84496" lon="2.43537">
        <ele>110.1</ele>
        <time>2015-05-25T19:53:19.031Z</time>
      </trkpt>
      <trkpt lat="48.84497" lon="2.43531">
        <ele>110.2</ele>
        <time>2015-05-25T19:53:20.049Z</time>
      </trkpt>
      <trkpt lat="48.84498" lon="2.43521">
        <ele>110.4</ele>
        <time>2015-05-25T19:53:22.043Z</time>
      </trkpt>
      <trkpt lat="48.84499" lon="2.43515">
        <ele>110.4</ele>
        <time>2015-05-25T19:53:23.035Z</time>
      </trkpt>
      <trkpt lat="48.845" lon="2.43502">
        <ele>110.1</ele>
        <time>2015-05-25T19:53:25.204Z</time>
      </trkpt>
      <trkpt lat="48.84499" lon="2.43496">
        <ele>110</ele>
        <time>2015-05-25T19:53:26.079Z</time>
      </trkpt>
      <trkpt lat="48.845" lon="2.43483">
        <ele>109.4</ele>
        <time>2015-05-25T19:53:28.105Z</time>
      </trkpt>
      <trkpt lat="48.845" lon="2.43477">
        <ele>109.2</ele>
        <time>2015-05-25T19:53:29.113Z</time>
      </trkpt>
      <trkpt lat="48.84499" lon="2.43465">
        <ele>109.3</ele>
        <time>2015-05-25T19:53:31.025Z</time>
      </trkpt>
      <trkpt lat="48.84498" lon="2.43461">
        <ele>109.3</ele>
        <time>2015-05-25T19:53:32.038Z</time>
      </trkpt>
      <trkpt lat="48.84492" lon="2.43454">
        <ele>109.2</ele>
        <time>2015-05-25T19:53:34.091Z</time>
      </trkpt>
      <trkpt lat="48.84489" lon="2.43453">
        <ele>109</ele>
        <time>2015-05-25T19:53:35.099Z</time>
      </trkpt>
      <trkpt lat="48.84481" lon="2.43452">
        <ele>108.1</ele>
        <time>2015-05-25T19:53:37.024Z</time>
      </trkpt>
      <trkpt lat="48.84477" lon="2.43452">
        <ele>107.7</ele>
        <time>2015-05-25T19:53:38.050Z</time>
      </trkpt>
      <trkpt lat="48.84469" lon="2.43451">
        <ele>107.8</ele>
        <time>2015-05-25T19:53:40.532Z</time>
      </trkpt>
      <trkpt lat="48.84464" lon="2.4345">
        <ele>107.9</ele>
        <time>2015-05-25T19:53:41.010Z</time>
      </trkpt>
      <trkpt lat="48.84455" lon="2.43449">
        <ele>107.3</ele>
        <time>2015-05-25T19:53:43.045Z</time>
      </trkpt>
      <trkpt lat="48.8445" lon="2.43447">
        <ele>106.9</ele>
        <time>2015-05-25T19:53:44.066Z</time>
      </trkpt>
      <trkpt lat="48.84445" lon="2.43445">
        <ele>106.6</ele>
        <time>2015-05-25T19:53:45.090Z</time>
      </trkpt>
      <trkpt lat="48.84439" lon="2.43443">
        <ele>106.4</ele>
        <time>2015-05-25T19:53:46.022Z</time>
      </trkpt>
      <trkpt lat="48.84434" lon="2.43441">
        <ele>106.2</ele>
        <time>2015-05-25T19:53:47.022Z</time>
      </trkpt>
      <trkpt lat="48.84429" lon="2.4344">
        <ele>106</ele>
        <time>2015-05-25T19:53:48.039Z</time>
      </trkpt>
      <trkpt lat="48.84424" lon="2.43439">
        <ele>106.2</ele>
        <time>2015-05-25T19:53:49.041Z</time>
      </trkpt>
      <trkpt lat="48.84419" lon="2.43438">
        <ele>106.2</ele>
        <time>2015-05-25T19:53:50.045Z</time>
      </trkpt>
      <trkpt lat="48.84414" lon="2.43438">
        <ele>106</ele>
        <time>2015-05-25T19:53:51.097Z</time>
      </trkpt>
      <trkpt lat="48.84409" lon="2.43437">
        <ele>106.2</ele>
        <time>2015-05-25T19:53:52.102Z</time>
      </trkpt>
      <trkpt lat="48.84405" lon="2.43436">
        <ele>106.2</ele>
        <time>2015-05-25T19:53:53.065Z</time>
      </trkpt>
      <trkpt lat="48.844" lon="2.43433">
        <ele>106</ele>
        <time>2015-05-25T19:53:54.062Z</time>
      </trkpt>
      <trkpt lat="48.84395" lon="2.4343">
        <ele>106</ele>
        <time>2015-05-25T19:53:55.083Z</time>
      </trkpt>
      <trkpt lat="48.8439" lon="2.43428">
        <ele>106</ele>
        <time>2015-05-25T19:53:56.258Z</time>
      </trkpt>
      <trkpt lat="48.84385" lon="2.43428">
        <ele>106</ele>
        <time>2015-05-25T19:53:57.120Z</time>
      </trkpt>
      <trkpt lat="48.8438" lon="2.43427">
        <ele>105.8</ele>
        <time>2015-05-25T19:53:58.065Z</time>
      </trkpt>
      <trkpt lat="48.84375" lon="2.43425">
        <ele>105.9</ele>
        <time>2015-05-25T19:53:59.051Z</time>
      </trkpt>
      <trkpt lat="48.8437" lon="2.43424">
        <ele>105.7</ele>
        <time>2015-05-25T19:54:00.079Z</time>
      </trkpt>
      <trkpt lat="48.84366" lon="2.43419">
        <ele>105.6</ele>
        <time>2015-05-25T19:54:01.098Z</time>
      </trkpt>
      <trkpt lat="48.84363" lon="2.43412">
        <ele>105.5</ele>
        <time>2015-05-25T19:54:02.104Z</time>
      </trkpt>
      <trkpt lat="48.8436" lon="2.43406">
        <ele>105.4</ele>
        <time>2015-05-25T19:54:03.109Z</time>
      </trkpt>
      <trkpt lat="48.84357" lon="2.43399">
        <ele>105.5</ele>
        <time>2015-05-25T19:54:04.121Z</time>
      </trkpt>
      <trkpt lat="48.84355" lon="2.43392">
        <ele>105.3</ele>
        <time>2015-05-25T19:54:05.029Z</time>
      </trkpt>
      <trkpt lat="48.84352" lon="2.43386">
        <ele>105.1</ele>
        <time>2015-05-25T19:54:06.018Z</time>
      </trkpt>
      <trkpt lat="48.8435" lon="2.4338">
        <ele>105.4</ele>
        <time>2015-05-25T19:54:07.299Z</time>
      </trkpt>
      <trkpt lat="48.84347" lon="2.43373">
        <ele>105.8</ele>
        <time>2015-05-25T19:54:08.025Z</time>
      </trkpt>
      <trkpt lat="48.84343" lon="2.43369">
        <ele>106.2</ele>
        <time>2015-05-25T19:54:09.034Z</time>
      </trkpt>
      <trkpt lat="48.84339" lon="2.43365">
        <ele>106</ele>
        <time>2015-05-25T19:54:10.056Z</time>
      </trkpt>
      <trkpt lat="48.84335" lon="2.43362">
        <ele>105.6</ele>
        <time>2015-05-25T19:54:11.070Z</time>
      </trkpt>
      <trkpt lat="48.8433" lon="2.43361">
        <ele>105.6</ele>
        <time>2015-05-25T19:54:12.077Z</time>
      </trkpt>
      <trkpt lat="48.84325" lon="2.43358">
        <ele>105.6</ele>
        <time>2015-05-25T19:54:12.989Z</time>
      </trkpt>
      <trkpt lat="48.8432" lon="2.43357">
        <ele>105.5</ele>
        <time>2015-05-25T19:54:14.109Z</time>
      </trkpt>
      <trkpt lat="48.84315" lon="2.43354">
        <ele>105.2</ele>
        <time>2015-05-25T19:54:15.124Z</time>
      </trkpt>
      <trkpt lat="48.84311" lon="2.43354">
        <ele>105</ele>
        <time>2015-05-25T19:54:16.029Z</time>
      </trkpt>
      <trkpt lat="48.84306" lon="2.43354">
        <ele>104.6</ele>
        <time>2015-05-25T19:54:17.027Z</time>
      </trkpt>
      <trkpt lat="48.84301" lon="2.43353">
        <ele>104.3</ele>
        <time>2015-05-25T19:54:18.036Z</time>
      </trkpt>
      <trkpt lat="48.84297" lon="2.43352">
        <ele>104</ele>
        <time>2015-05-25T19:54:19.064Z</time>
      </trkpt>
      <trkpt lat="48.84292" lon="2.4335">
        <ele>103.8</ele>
        <time>2015-05-25T19:54:20.074Z</time>
      </trkpt>
      <trkpt lat="48.84284" lon="2.43345">
        <ele>103.6</ele>
        <time>2015-05-25T19:54:22.090Z</time>
      </trkpt>
      <trkpt lat="48.84281" lon="2.43342">
        <ele>103.7</ele>
        <time>2015-05-25T19:54:23.251Z</time>
      </trkpt>
      <trkpt lat="48.84273" lon="2.43338">
        <ele>103.3</ele>
        <time>2015-05-25T19:54:25.028Z</time>
      </trkpt>
      <trkpt lat="48.84268" lon="2.43335">
        <ele>103.1</ele>
        <time>2015-05-25T19:54:26.033Z</time>
      </trkpt>
      <trkpt lat="48.84264" lon="2.43332">
        <ele>103.1</ele>
        <time>2015-05-25T19:54:27.097Z</time>
      </trkpt>
      <trkpt lat="48.8426" lon="2.43329">
        <ele>102.9</ele>
        <time>2015-05-25T19:54:28.014Z</time>
      </trkpt>
      <trkpt lat="48.84255" lon="2.43329">
        <ele>103.1</ele>
        <time>2015-05-25T19:54:29.074Z</time>
      </trkpt>
      <trkpt lat="48.84249" lon="2.43328">
        <ele>103.3</ele>
        <time>2015-05-25T19:54:30.017Z</time>
      </trkpt>
      <trkpt lat="48.84241" lon="2.43327">
        <ele>103.7</ele>
        <time>2015-05-25T19:54:32.032Z</time>
      </trkpt>
      <trkpt lat="48.84237" lon="2.43326">
        <ele>103.5</ele>
        <time>2015-05-25T19:54:33.069Z</time>
      </trkpt>
      <trkpt lat="48.84228" lon="2.43324">
        <ele>103.2</ele>
        <time>2015-05-25T19:54:35.009Z</time>
      </trkpt>
      <trkpt lat="48.84224" lon="2.43321">
        <ele>103.1</ele>
        <time>2015-05-25T19:54:36.012Z</time>
      </trkpt>
      <trkpt lat="48.8422" lon="2.43321">
        <ele>103</ele>
        <time>2015-05-25T19:54:37.033Z</time>
      </trkpt>
      <trkpt lat="48.84215" lon="2.43322">
        <ele>102.7</ele>
        <time>2015-05-25T19:54:38.090Z</time>
      </trkpt>
      <trkpt lat="48.8421" lon="2.4332">
        <ele>102.5</ele>
        <time>2015-05-25T19:54:39.069Z</time>
      </trkpt>
      <trkpt lat="48.84205" lon="2.43318">
        <ele>102.6</ele>
        <time>2015-05-25T19:54:40.078Z</time>
      </trkpt>
      <trkpt lat="48.842" lon="2.43317">
        <ele>102.6</ele>
        <time>2015-05-25T19:54:41.101Z</time>
      </trkpt>
      <trkpt lat="48.84194" lon="2.43316">
        <ele>102.4</ele>
        <time>2015-05-25T19:54:41.980Z</time>
      </trkpt>
      <trkpt lat="48.84187" lon="2.43318">
        <ele>103</ele>
        <time>2015-05-25T19:54:43Z</time>
      </trkpt>
      <trkpt lat="48.8418" lon="2.43318">
        <ele>102.8</ele>
        <time>2015-05-25T19:54:44.017Z</time>
      </trkpt>
      <trkpt lat="48.84174" lon="2.43318">
        <ele>102.6</ele>
        <time>2015-05-25T19:54:45.053Z</time>
      </trkpt>
      <trkpt lat="48.84168" lon="2.43317">
        <ele>102.3</ele>
        <time>2015-05-25T19:54:46.065Z</time>
      </trkpt>
      <trkpt lat="48.84162" lon="2.43316">
        <ele>102.3</ele>
        <time>2015-05-25T19:54:47.079Z</time>
      </trkpt>
      <trkpt lat="48.84157" lon="2.43316">
        <ele>102.3</ele>
        <time>2015-05-25T19:54:48.085Z</time>
      </trkpt>
      <trkpt lat="48.84152" lon="2.43315">
        <ele>102.4</ele>
        <time>2015-05-25T19:54:48.989Z</time>
      </trkpt>
      <trkpt lat="48.84145" lon="2.43316">
        <ele>102.2</ele>
        <time>2015-05-25T19:54:49.996Z</time>
      </trkpt>
      <trkpt lat="48.8414" lon="2.43315">
        <ele>101.9</ele>
        <time>2015-05-25T19:54:51.057Z</time>
      </trkpt>
      <trkpt lat="48.84135" lon="2.43313">
        <ele>101.8</ele>
        <time>2015-05-25T19:54:52.067Z</time>
      </trkpt>
      <trkpt lat="48.84126" lon="2.4331">
        <ele>102</ele>
        <time>2015-05-25T19:54:54.026Z</time>
      </trkpt>
      <trkpt lat="48.84122" lon="2.43308">
        <ele>101.8</ele>
        <time>2015-05-25T19:54:55.015Z</time>
      </trkpt>
      <trkpt lat="48.84117" lon="2.43308">
        <ele>101.9</ele>
        <time>2015-05-25T19:54:56.034Z</time>
      </trkpt>
      <trkpt lat="48.84112" lon="2.43309">
        <ele>102.1</ele>
        <time>2015-05-25T19:54:57.094Z</time>
      </trkpt>
      <trkpt lat="48.84111" lon="2.43303">
        <ele>100.3</ele>
        <time>2015-05-25T19:55:33.187Z</time>
      </trkpt>
      <trkpt lat="48.84118" lon="2.43283">
        <ele>101.8</ele>
        <time>2015-05-25T19:55:34.056Z</time>
      </trkpt>
      <trkpt lat="48.84116" lon="2.43272">
        <ele>101.8</ele>
        <time>2015-05-25T19:55:37.058Z</time>
      </trkpt>
      <trkpt lat="48.84116" lon="2.43268">
        <ele>102</ele>
        <time>2015-05-25T19:55:38.060Z</time>
      </trkpt>
      <trkpt lat="48.84115" lon="2.43259">
        <ele>104.5</ele>
        <time>2015-05-25T19:55:40.105Z</time>
      </trkpt>
      <trkpt lat="48.84115" lon="2.43253">
        <ele>104.8</ele>
        <time>2015-05-25T19:55:41.188Z</time>
      </trkpt>
      <trkpt lat="48.84117" lon="2.43241">
        <ele>104.7</ele>
        <time>2015-05-25T19:55:43.058Z</time>
      </trkpt>
      <trkpt lat="48.84118" lon="2.43235">
        <ele>104.5</ele>
        <time>2015-05-25T19:55:44.069Z</time>
      </trkpt>
      <trkpt lat="48.84118" lon="2.43229">
        <ele>104.5</ele>
        <time>2015-05-25T19:55:45.228Z</time>
      </trkpt>
      <trkpt lat="48.84119" lon="2.43221">
        <ele>104.7</ele>
        <time>2015-05-25T19:55:46.028Z</time>
      </trkpt>
      <trkpt lat="48.8412" lon="2.43213">
        <ele>104.8</ele>
        <time>2015-05-25T19:55:47.025Z</time>
      </trkpt>
      <trkpt lat="48.8412" lon="2.43205">
        <ele>104.8</ele>
        <time>2015-05-25T19:55:48.039Z</time>
      </trkpt>
      <trkpt lat="48.84122" lon="2.43198">
        <ele>104.6</ele>
        <time>2015-05-25T19:55:49.037Z</time>
      </trkpt>
      <trkpt lat="48.84124" lon="2.43191">
        <ele>104.7</ele>
        <time>2015-05-25T19:55:50.043Z</time>
      </trkpt>
      <trkpt lat="48.84125" lon="2.43185">
        <ele>104.6</ele>
        <time>2015-05-25T19:55:51.068Z</time>
      </trkpt>
      <trkpt lat="48.84126" lon="2.43177">
        <ele>104.5</ele>
        <time>2015-05-25T19:55:52.077Z</time>
      </trkpt>
      <trkpt lat="48.84127" lon="2.4317">
        <ele>104.6</ele>
        <time>2015-05-25T19:55:53.085Z</time>
      </trkpt>
      <trkpt lat="48.84128" lon="2.43162">
        <ele>104.5</ele>
        <time>2015-05-25T19:55:54.091Z</time>
      </trkpt>
      <trkpt lat="48.84129" lon="2.43154">
        <ele>104.3</ele>
        <time>2015-05-25T19:55:55.016Z</time>
      </trkpt>
      <trkpt lat="48.84129" lon="2.43146">
        <ele>104.1</ele>
        <time>2015-05-25T19:55:56.032Z</time>
      </trkpt>
      <trkpt lat="48.84129" lon="2.43136">
        <ele>103.6</ele>
        <time>2015-05-25T19:55:57.065Z</time>
      </trkpt>
      <trkpt lat="48.84129" lon="2.43127">
        <ele>103.4</ele>
        <time>2015-05-25T19:55:58.065Z</time>
      </trkpt>
      <trkpt lat="48.84129" lon="2.43118">
        <ele>103.2</ele>
        <time>2015-05-25T19:55:59.087Z</time>
      </trkpt>
      <trkpt lat="48.84129" lon="2.4311">
        <ele>102.9</ele>
        <time>2015-05-25T19:56:00.097Z</time>
      </trkpt>
      <trkpt lat="48.84129" lon="2.43101">
        <ele>103</ele>
        <time>2015-05-25T19:56:01.108Z</time>
      </trkpt>
      <trkpt lat="48.84129" lon="2.43094">
        <ele>103</ele>
        <time>2015-05-25T19:56:02.116Z</time>
      </trkpt>
      <trkpt lat="48.84131" lon="2.43086">
        <ele>103.3</ele>
        <time>2015-05-25T19:56:03.147Z</time>
      </trkpt>
      <trkpt lat="48.84132" lon="2.43079">
        <ele>103.5</ele>
        <time>2015-05-25T19:56:04.027Z</time>
      </trkpt>
      <trkpt lat="48.84133" lon="2.4307">
        <ele>103.5</ele>
        <time>2015-05-25T19:56:05.035Z</time>
      </trkpt>
      <trkpt lat="48.84134" lon="2.43061">
        <ele>103.8</ele>
        <time>2015-05-25T19:56:06.046Z</time>
      </trkpt>
      <trkpt lat="48.84135" lon="2.43051">
        <ele>103.3</ele>
        <time>2015-05-25T19:56:07.059Z</time>
      </trkpt>
      <trkpt lat="48.84136" lon="2.43041">
        <ele>102.1</ele>
        <time>2015-05-25T19:56:08.064Z</time>
      </trkpt>
      <trkpt lat="48.84136" lon="2.43031">
        <ele>101.1</ele>
        <time>2015-05-25T19:56:09.074Z</time>
      </trkpt>
      <trkpt lat="48.84136" lon="2.43021">
        <ele>100.4</ele>
        <time>2015-05-25T19:56:10.092Z</time>
      </trkpt>
      <trkpt lat="48.84137" lon="2.43011">
        <ele>100.3</ele>
        <time>2015-05-25T19:56:11.036Z</time>
      </trkpt>
      <trkpt lat="48.84138" lon="2.43002">
        <ele>99.7</ele>
        <time>2015-05-25T19:56:12.041Z</time>
      </trkpt>
      <trkpt lat="48.84139" lon="2.42992">
        <ele>99.6</ele>
        <time>2015-05-25T19:56:13.057Z</time>
      </trkpt>
      <trkpt lat="48.8414" lon="2.42982">
        <ele>99.3</ele>
        <time>2015-05-25T19:56:14.065Z</time>
      </trkpt>
      <trkpt lat="48.84141" lon="2.42973">
        <ele>98.7</ele>
        <time>2015-05-25T19:56:15.077Z</time>
      </trkpt>
      <trkpt lat="48.84141" lon="2.42962">
        <ele>98.6</ele>
        <time>2015-05-25T19:56:16.082Z</time>
      </trkpt>
      <trkpt lat="48.84142" lon="2.42953">
        <ele>98.7</ele>
        <time>2015-05-25T19:56:17.096Z</time>
      </trkpt>
      <trkpt lat="48.84142" lon="2.42943">
        <ele>98.5</ele>
        <time>2015-05-25T19:56:18.094Z</time>
      </trkpt>
      <trkpt lat="48.84144" lon="2.42935">
        <ele>98.5</ele>
        <time>2015-05-25T19:56:19.107Z</time>
      </trkpt>
      <trkpt lat="48.84146" lon="2.42926">
        <ele>98.4</ele>
        <time>2015-05-25T19:56:20.109Z</time>
      </trkpt>
      <trkpt lat="48.84147" lon="2.42918">
        <ele>98.3</ele>
        <time>2015-05-25T19:56:21.118Z</time>
      </trkpt>
      <trkpt lat="48.84148" lon="2.42907">
        <ele>98.3</ele>
        <time>2015-05-25T19:56:22.015Z</time>
      </trkpt>
      <trkpt lat="48.84149" lon="2.42897">
        <ele>98.5</ele>
        <time>2015-05-25T19:56:23.016Z</time>
      </trkpt>
      <trkpt lat="48.84151" lon="2.42887">
        <ele>98.7</ele>
        <time>2015-05-25T19:56:24.046Z</time>
      </trkpt>
      <trkpt lat="48.84152" lon="2.42876">
        <ele>98.9</ele>
        <time>2015-05-25T19:56:25.071Z</time>
      </trkpt>
      <trkpt lat="48.84153" lon="2.42863">
        <ele>99.1</ele>
        <time>2015-05-25T19:56:26.074Z</time>
      </trkpt>
      <trkpt lat="48.84153" lon="2.42851">
        <ele>99.1</ele>
        <time>2015-05-25T19:56:27.144Z</time>
      </trkpt>
      <trkpt lat="48.84155" lon="2.42839">
        <ele>99.5</ele>
        <time>2015-05-25T19:56:28.004Z</time>
      </trkpt>
      <trkpt lat="48.84156" lon="2.42829">
        <ele>99.5</ele>
        <time>2015-05-25T19:56:29.054Z</time>
      </trkpt>
      <trkpt lat="48.84157" lon="2.42819">
        <ele>99.1</ele>
        <time>2015-05-25T19:56:30.065Z</time>
      </trkpt>
      <trkpt lat="48.84158" lon="2.42808">
        <ele>98.6</ele>
        <time>2015-05-25T19:56:31.082Z</time>
      </trkpt>
      <trkpt lat="48.84158" lon="2.42796">
        <ele>97.8</ele>
        <time>2015-05-25T19:56:32.050Z</time>
      </trkpt>
      <trkpt lat="48.8416" lon="2.42784">
        <ele>97.2</ele>
        <time>2015-05-25T19:56:33.082Z</time>
      </trkpt>
      <trkpt lat="48.84161" lon="2.42772">
        <ele>96.5</ele>
        <time>2015-05-25T19:56:34.076Z</time>
      </trkpt>
      <trkpt lat="48.84162" lon="2.4276">
        <ele>96</ele>
        <time>2015-05-25T19:56:35.093Z</time>
      </trkpt>
      <trkpt lat="48.84163" lon="2.42749">
        <ele>96.1</ele>
        <time>2015-05-25T19:56:36.107Z</time>
      </trkpt>
      <trkpt lat="48.84164" lon="2.42738">
        <ele>95.8</ele>
        <time>2015-05-25T19:56:37.023Z</time>
      </trkpt>
      <trkpt lat="48.84165" lon="2.42727">
        <ele>95.1</ele>
        <time>2015-05-25T19:56:38.029Z</time>
      </trkpt>
      <trkpt lat="48.84166" lon="2.42716">
        <ele>94.7</ele>
        <time>2015-05-25T19:56:39.143Z</time>
      </trkpt>
      <trkpt lat="48.84167" lon="2.42706">
        <ele>94.4</ele>
        <time>2015-05-25T19:56:40.027Z</time>
      </trkpt>
      <trkpt lat="48.84167" lon="2.42696">
        <ele>94</ele>
        <time>2015-05-25T19:56:41.043Z</time>
      </trkpt>
      <trkpt lat="48.84168" lon="2.42686">
        <ele>93.5</ele>
        <time>2015-05-25T19:56:42.046Z</time>
      </trkpt>
      <trkpt lat="48.84169" lon="2.42677">
        <ele>93.1</ele>
        <time>2015-05-25T19:56:43.063Z</time>
      </trkpt>
      <trkpt lat="48.8417" lon="2.42666">
        <ele>92.8</ele>
        <time>2015-05-25T19:56:44.075Z</time>
      </trkpt>
      <trkpt lat="48.84172" lon="2.42657">
        <ele>92.3</ele>
        <time>2015-05-25T19:56:45.117Z</time>
      </trkpt>
      <trkpt lat="48.84172" lon="2.42647">
        <ele>92</ele>
        <time>2015-05-25T19:56:46.025Z</time>
      </trkpt>
      <trkpt lat="48.84173" lon="2.42636">
        <ele>92.1</ele>
        <time>2015-05-25T19:56:47.055Z</time>
      </trkpt>
      <trkpt lat="48.84173" lon="2.42626">
        <ele>91.8</ele>
        <time>2015-05-25T19:56:48.064Z</time>
      </trkpt>
      <trkpt lat="48.84174" lon="2.42615">
        <ele>91.8</ele>
        <time>2015-05-25T19:56:49.106Z</time>
      </trkpt>
      <trkpt lat="48.84174" lon="2.42606">
        <ele>92</ele>
        <time>2015-05-25T19:56:50.093Z</time>
      </trkpt>
      <trkpt lat="48.84174" lon="2.42596">
        <ele>92.3</ele>
        <time>2015-05-25T19:56:51.116Z</time>
      </trkpt>
      <trkpt lat="48.84175" lon="2.42587">
        <ele>92.3</ele>
        <time>2015-05-25T19:56:52.039Z</time>
      </trkpt>
      <trkpt lat="48.84176" lon="2.42578">
        <ele>92.5</ele>
        <time>2015-05-25T19:56:53.049Z</time>
      </trkpt>
      <trkpt lat="48.84177" lon="2.4257">
        <ele>92.6</ele>
        <time>2015-05-25T19:56:54.063Z</time>
      </trkpt>
      <trkpt lat="48.84179" lon="2.42562">
        <ele>93.3</ele>
        <time>2015-05-25T19:56:55.120Z</time>
      </trkpt>
      <trkpt lat="48.8418" lon="2.42554">
        <ele>93.6</ele>
        <time>2015-05-25T19:56:56.135Z</time>
      </trkpt>
      <trkpt lat="48.84181" lon="2.42546">
        <ele>93.7</ele>
        <time>2015-05-25T19:56:57.080Z</time>
      </trkpt>
      <trkpt lat="48.8418" lon="2.42538">
        <ele>93.5</ele>
        <time>2015-05-25T19:56:58.084Z</time>
      </trkpt>
      <trkpt lat="48.8418" lon="2.42529">
        <ele>93.3</ele>
        <time>2015-05-25T19:56:59.109Z</time>
      </trkpt>
      <trkpt lat="48.84181" lon="2.42522">
        <ele>93.3</ele>
        <time>2015-05-25T19:57:00.087Z</time>
      </trkpt>
      <trkpt lat="48.84183" lon="2.42515">
        <ele>93</ele>
        <time>2015-05-25T19:57:01.027Z</time>
      </trkpt>
      <trkpt lat="48.84184" lon="2.42507">
        <ele>92.9</ele>
        <time>2015-05-25T19:57:02.052Z</time>
      </trkpt>
      <trkpt lat="48.84185" lon="2.42499">
        <ele>93</ele>
        <time>2015-05-25T19:57:03.069Z</time>
      </trkpt>
      <trkpt lat="48.84187" lon="2.42491">
        <ele>92.7</ele>
        <time>2015-05-25T19:57:04.070Z</time>
      </trkpt>
      <trkpt lat="48.84189" lon="2.42483">
        <ele>92.4</ele>
        <time>2015-05-25T19:57:05.089Z</time>
      </trkpt>
      <trkpt lat="48.8419" lon="2.42475">
        <ele>92.2</ele>
        <time>2015-05-25T19:57:06.100Z</time>
      </trkpt>
      <trkpt lat="48.84191" lon="2.42466">
        <ele>92.1</ele>
        <time>2015-05-25T19:57:07.109Z</time>
      </trkpt>
      <trkpt lat="48.84192" lon="2.42458">
        <ele>92.1</ele>
        <time>2015-05-25T19:57:08.121Z</time>
      </trkpt>
      <trkpt lat="48.84194" lon="2.42451">
        <ele>92.1</ele>
        <time>2015-05-25T19:57:09.137Z</time>
      </trkpt>
      <trkpt lat="48.84196" lon="2.42443">
        <ele>91.9</ele>
        <time>2015-05-25T19:57:10.035Z</time>
      </trkpt>
      <trkpt lat="48.84197" lon="2.42435">
        <ele>92</ele>
        <time>2015-05-25T19:57:11.044Z</time>
      </trkpt>
      <trkpt lat="48.84199" lon="2.42428">
        <ele>92.2</ele>
        <time>2015-05-25T19:57:12.069Z</time>
      </trkpt>
      <trkpt lat="48.84201" lon="2.42419">
        <ele>92.6</ele>
        <time>2015-05-25T19:57:13.077Z</time>
      </trkpt>
      <trkpt lat="48.84204" lon="2.42413">
        <ele>92.9</ele>
        <time>2015-05-25T19:57:14.092Z</time>
      </trkpt>
      <trkpt lat="48.84206" lon="2.42406">
        <ele>93.1</ele>
        <time>2015-05-25T19:57:15.094Z</time>
      </trkpt>
      <trkpt lat="48.84208" lon="2.42399">
        <ele>93.4</ele>
        <time>2015-05-25T19:57:16.097Z</time>
      </trkpt>
      <trkpt lat="48.84213" lon="2.42388">
        <ele>93.8</ele>
        <time>2015-05-25T19:57:18.100Z</time>
      </trkpt>
      <trkpt lat="48.84216" lon="2.42383">
        <ele>94.2</ele>
        <time>2015-05-25T19:57:19.110Z</time>
      </trkpt>
      <trkpt lat="48.84222" lon="2.42373">
        <ele>94.9</ele>
        <time>2015-05-25T19:57:21.111Z</time>
      </trkpt>
      <trkpt lat="48.84225" lon="2.42367">
        <ele>95.5</ele>
        <time>2015-05-25T19:57:22.122Z</time>
      </trkpt>
      <trkpt lat="48.84229" lon="2.42362">
        <ele>95.9</ele>
        <time>2015-05-25T19:57:23.034Z</time>
      </trkpt>
      <trkpt lat="48.84233" lon="2.42358">
        <ele>95.8</ele>
        <time>2015-05-25T19:57:24.048Z</time>
      </trkpt>
      <trkpt lat="48.84236" lon="2.42353">
        <ele>95.9</ele>
        <time>2015-05-25T19:57:25.052Z</time>
      </trkpt>
      <trkpt lat="48.84241" lon="2.4235">
        <ele>96.2</ele>
        <time>2015-05-25T19:57:26.085Z</time>
      </trkpt>
      <trkpt lat="48.84246" lon="2.42346">
        <ele>96.6</ele>
        <time>2015-05-25T19:57:27.109Z</time>
      </trkpt>
      <trkpt lat="48.84249" lon="2.42343">
        <ele>96.8</ele>
        <time>2015-05-25T19:57:28.114Z</time>
      </trkpt>
      <trkpt lat="48.84257" lon="2.42336">
        <ele>97.2</ele>
        <time>2015-05-25T19:57:30.036Z</time>
      </trkpt>
      <trkpt lat="48.8426" lon="2.42334">
        <ele>97.3</ele>
        <time>2015-05-25T19:57:31.112Z</time>
      </trkpt>
      <trkpt lat="48.84267" lon="2.42331">
        <ele>97.4</ele>
        <time>2015-05-25T19:57:33.150Z</time>
      </trkpt>
      <trkpt lat="48.8427" lon="2.42329">
        <ele>97.8</ele>
        <time>2015-05-25T19:57:34.090Z</time>
      </trkpt>
      <trkpt lat="48.84277" lon="2.42327">
        <ele>97.8</ele>
        <time>2015-05-25T19:57:36.007Z</time>
      </trkpt>
      <trkpt lat="48.8428" lon="2.42326">
        <ele>97.6</ele>
        <time>2015-05-25T19:57:37.021Z</time>
      </trkpt>
      <trkpt lat="48.84284" lon="2.42314">
        <ele>97.9</ele>
        <time>2015-05-25T19:57:42.048Z</time>
      </trkpt>
      <trkpt lat="48.84284" lon="2.42312">
        <ele>97.6</ele>
        <time>2015-05-25T19:57:43.037Z</time>
      </trkpt>
      <trkpt lat="48.84285" lon="2.42311">
        <ele>96.8</ele>
        <time>2015-05-25T19:58:30.617Z</time>
      </trkpt>
      <trkpt lat="48.84298" lon="2.42309">
        <ele>97.8</ele>
        <time>2015-05-25T19:58:31.061Z</time>
      </trkpt>
      <trkpt lat="48.84303" lon="2.423">
        <ele>98.1</ele>
        <time>2015-05-25T19:58:35.716Z</time>
      </trkpt>
      <trkpt lat="48.84304" lon="2.42295">
        <ele>98.2</ele>
        <time>2015-05-25T19:58:36.132Z</time>
      </trkpt>
      <trkpt lat="48.84307" lon="2.42287">
        <ele>98.5</ele>
        <time>2015-05-25T19:58:38.073Z</time>
      </trkpt>
      <trkpt lat="48.84308" lon="2.42281">
        <ele>98.7</ele>
        <time>2015-05-25T19:58:39.082Z</time>
      </trkpt>
      <trkpt lat="48.8431" lon="2.42269">
        <ele>98.7</ele>
        <time>2015-05-25T19:58:41.090Z</time>
      </trkpt>
      <trkpt lat="48.84311" lon="2.42263">
        <ele>99</ele>
        <time>2015-05-25T19:58:42.102Z</time>
      </trkpt>
      <trkpt lat="48.84311" lon="2.42249">
        <ele>99.1</ele>
        <time>2015-05-25T19:58:45.830Z</time>
      </trkpt>
      <trkpt lat="48.84312" lon="2.42246">
        <ele>99.3</ele>
        <time>2015-05-25T19:58:46.082Z</time>
      </trkpt>
      <trkpt lat="48.84315" lon="2.42234">
        <ele>99.8</ele>
        <time>2015-05-25T19:58:49.023Z</time>
      </trkpt>
      <trkpt lat="48.84316" lon="2.42229">
        <ele>100</ele>
        <time>2015-05-25T19:58:50.039Z</time>
      </trkpt>
      <trkpt lat="48.84318" lon="2.42219">
        <ele>100.1</ele>
        <time>2015-05-25T19:58:52.085Z</time>
      </trkpt>
      <trkpt lat="48.84319" lon="2.42214">
        <ele>100.1</ele>
        <time>2015-05-25T19:58:53.096Z</time>
      </trkpt>
      <trkpt lat="48.84321" lon="2.42206">
        <ele>100.4</ele>
        <time>2015-05-25T19:58:55.109Z</time>
      </trkpt>
      <trkpt lat="48.84322" lon="2.422">
        <ele>100.3</ele>
        <time>2015-05-25T19:58:56Z</time>
      </trkpt>
      <trkpt lat="48.84324" lon="2.4219">
        <ele>100.4</ele>
        <time>2015-05-25T19:58:58.111Z</time>
      </trkpt>
      <trkpt lat="48.84324" lon="2.42184">
        <ele>100.5</ele>
        <time>2015-05-25T19:58:59.124Z</time>
      </trkpt>
      <trkpt lat="48.84327" lon="2.42172">
        <ele>100.2</ele>
        <time>2015-05-25T19:59:02.040Z</time>
      </trkpt>
      <trkpt lat="48.84327" lon="2.42166">
        <ele>100.3</ele>
        <time>2015-05-25T19:59:03.071Z</time>
      </trkpt>
      <trkpt lat="48.84328" lon="2.42157">
        <ele>100.5</ele>
        <time>2015-05-25T19:59:05.088Z</time>
      </trkpt>
      <trkpt lat="48.84329" lon="2.42152">
        <ele>100.7</ele>
        <time>2015-05-25T19:59:06.096Z</time>
      </trkpt>
      <trkpt lat="48.8433" lon="2.42144">
        <ele>101.1</ele>
        <time>2015-05-25T19:59:08.123Z</time>
      </trkpt>
      <trkpt lat="48.84331" lon="2.42138">
        <ele>101.3</ele>
        <time>2015-05-25T19:59:09.129Z</time>
      </trkpt>
      <trkpt lat="48.84333" lon="2.42126">
        <ele>101.4</ele>
        <time>2015-05-25T19:59:11.029Z</time>
      </trkpt>
      <trkpt lat="48.84334" lon="2.42119">
        <ele>101.6</ele>
        <time>2015-05-25T19:59:12.040Z</time>
      </trkpt>
      <trkpt lat="48.84334" lon="2.42111">
        <ele>102</ele>
        <time>2015-05-25T19:59:13.097Z</time>
      </trkpt>
      <trkpt lat="48.84334" lon="2.42103">
        <ele>102.2</ele>
        <time>2015-05-25T19:59:14.094Z</time>
      </trkpt>
      <trkpt lat="48.84335" lon="2.42092">
        <ele>102.5</ele>
        <time>2015-05-25T19:59:16.115Z</time>
      </trkpt>
      <trkpt lat="48.84336" lon="2.42085">
        <ele>102.7</ele>
        <time>2015-05-25T19:59:17.047Z</time>
      </trkpt>
      <trkpt lat="48.84335" lon="2.42077">
        <ele>102.8</ele>
        <time>2015-05-25T19:59:18.042Z</time>
      </trkpt>
      <trkpt lat="48.84336" lon="2.42071">
        <ele>102.9</ele>
        <time>2015-05-25T19:59:19.037Z</time>
      </trkpt>
      <trkpt lat="48.84337" lon="2.42058">
        <ele>102.8</ele>
        <time>2015-05-25T19:59:21.143Z</time>
      </trkpt>
      <trkpt lat="48.84337" lon="2.42051">
        <ele>102.5</ele>
        <time>2015-05-25T19:59:22.036Z</time>
      </trkpt>
      <trkpt lat="48.84338" lon="2.42038">
        <ele>103.1</ele>
        <time>2015-05-25T19:59:24.031Z</time>
      </trkpt>
      <trkpt lat="48.84339" lon="2.42031">
        <ele>103.5</ele>
        <time>2015-05-25T19:59:25.037Z</time>
      </trkpt>
      <trkpt lat="48.84342" lon="2.42018">
        <ele>103.8</ele>
        <time>2015-05-25T19:59:27.078Z</time>
      </trkpt>
      <trkpt lat="48.84342" lon="2.42011">
        <ele>103.9</ele>
        <time>2015-05-25T19:59:28.094Z</time>
      </trkpt>
      <trkpt lat="48.84344" lon="2.41999">
        <ele>104.4</ele>
        <time>2015-05-25T19:59:30.114Z</time>
      </trkpt>
      <trkpt lat="48.84344" lon="2.41992">
        <ele>104.1</ele>
        <time>2015-05-25T19:59:31.033Z</time>
      </trkpt>
      <trkpt lat="48.84343" lon="2.41985">
        <ele>103.7</ele>
        <time>2015-05-25T19:59:32.053Z</time>
      </trkpt>
      <trkpt lat="48.84343" lon="2.41978">
        <ele>103.2</ele>
        <time>2015-05-25T19:59:33.137Z</time>
      </trkpt>
      <trkpt lat="48.84344" lon="2.41971">
        <ele>102.2</ele>
        <time>2015-05-25T19:59:34.028Z</time>
      </trkpt>
      <trkpt lat="48.84345" lon="2.41964">
        <ele>101.8</ele>
        <time>2015-05-25T19:59:35.035Z</time>
      </trkpt>
      <trkpt lat="48.84347" lon="2.41951">
        <ele>101.2</ele>
        <time>2015-05-25T19:59:37.057Z</time>
      </trkpt>
      <trkpt lat="48.84347" lon="2.41945">
        <ele>101.1</ele>
        <time>2015-05-25T19:59:38.087Z</time>
      </trkpt>
      <trkpt lat="48.84349" lon="2.41936">
        <ele>101.8</ele>
        <time>2015-05-25T19:59:40.466Z</time>
      </trkpt>
      <trkpt lat="48.84349" lon="2.4193">
        <ele>102.3</ele>
        <time>2015-05-25T19:59:41.139Z</time>
      </trkpt>
      <trkpt lat="48.84351" lon="2.41919">
        <ele>103.2</ele>
        <time>2015-05-25T19:59:43.036Z</time>
      </trkpt>
      <trkpt lat="48.84351" lon="2.41912">
        <ele>103.4</ele>
        <time>2015-05-25T19:59:44.102Z</time>
      </trkpt>
      <trkpt lat="48.84353" lon="2.419">
        <ele>103.4</ele>
        <time>2015-05-25T19:59:46.016Z</time>
      </trkpt>
      <trkpt lat="48.84354" lon="2.41896">
        <ele>103.6</ele>
        <time>2015-05-25T19:59:47.072Z</time>
      </trkpt>
      <trkpt lat="48.84356" lon="2.41886">
        <ele>104.1</ele>
        <time>2015-05-25T19:59:49.019Z</time>
      </trkpt>
      <trkpt lat="48.84358" lon="2.41882">
        <ele>104.1</ele>
        <time>2015-05-25T19:59:50.043Z</time>
      </trkpt>
      <trkpt lat="48.8436" lon="2.41869">
        <ele>104.1</ele>
        <time>2015-05-25T19:59:53.088Z</time>
      </trkpt>
      <trkpt lat="48.8436" lon="2.41865">
        <ele>104.1</ele>
        <time>2015-05-25T19:59:54.098Z</time>
      </trkpt>
      <trkpt lat="48.84363" lon="2.41857">
        <ele>104.2</ele>
        <time>2015-05-25T19:59:54.733Z</time>
      </trkpt>
      <trkpt lat="48.84365" lon="2.41853">
        <ele>104.5</ele>
        <time>2015-05-25T19:59:57.116Z</time>
      </trkpt>
      <trkpt lat="48.84365" lon="2.41842">
        <ele>104.3</ele>
        <time>2015-05-25T19:59:59.790Z</time>
      </trkpt>
      <trkpt lat="48.84365" lon="2.41836">
        <ele>104.4</ele>
        <time>2015-05-25T20:00:00.057Z</time>
      </trkpt>
      <trkpt lat="48.84365" lon="2.41822">
        <ele>104.6</ele>
        <time>2015-05-25T20:00:02.105Z</time>
      </trkpt>
      <trkpt lat="48.84365" lon="2.41815">
        <ele>105.3</ele>
        <time>2015-05-25T20:00:03.126Z</time>
      </trkpt>
      <trkpt lat="48.84365" lon="2.41802">
        <ele>106.2</ele>
        <time>2015-05-25T20:00:05.005Z</time>
      </trkpt>
      <trkpt lat="48.84366" lon="2.41796">
        <ele>106.7</ele>
        <time>2015-05-25T20:00:06.117Z</time>
      </trkpt>
      <trkpt lat="48.84368" lon="2.41787">
        <ele>107.1</ele>
        <time>2015-05-25T20:00:08.020Z</time>
      </trkpt>
      <trkpt lat="48.84368" lon="2.41782">
        <ele>107.4</ele>
        <time>2015-05-25T20:00:09.252Z</time>
      </trkpt>
      <trkpt lat="48.84367" lon="2.41771">
        <ele>108.3</ele>
        <time>2015-05-25T20:00:11.093Z</time>
      </trkpt>
      <trkpt lat="48.84365" lon="2.41766">
        <ele>108.7</ele>
        <time>2015-05-25T20:00:12.073Z</time>
      </trkpt>
      <trkpt lat="48.8436" lon="2.4176">
        <ele>108.4</ele>
        <time>2015-05-25T20:00:18.001Z</time>
      </trkpt>
      <trkpt lat="48.84356" lon="2.41763">
        <ele>108.1</ele>
        <time>2015-05-25T20:00:19.031Z</time>
      </trkpt>
      <trkpt lat="48.8435" lon="2.41767">
        <ele>107.4</ele>
        <time>2015-05-25T20:00:21.080Z</time>
      </trkpt>
      <trkpt lat="48.84346" lon="2.41768">
        <ele>107.3</ele>
        <time>2015-05-25T20:00:22.092Z</time>
      </trkpt>
      <trkpt lat="48.8434" lon="2.41768">
        <ele>106.3</ele>
        <time>2015-05-25T20:00:24.014Z</time>
      </trkpt>
      <trkpt lat="48.84336" lon="2.41768">
        <ele>106.1</ele>
        <time>2015-05-25T20:00:24.999Z</time>
      </trkpt>
      <trkpt lat="48.84331" lon="2.41768">
        <ele>106.1</ele>
        <time>2015-05-25T20:00:26.031Z</time>
      </trkpt>
      <trkpt lat="48.84326" lon="2.41768">
        <ele>106.1</ele>
        <time>2015-05-25T20:00:27.112Z</time>
      </trkpt>
      <trkpt lat="48.84321" lon="2.41768">
        <ele>106.1</ele>
        <time>2015-05-25T20:00:28.024Z</time>
      </trkpt>
      <trkpt lat="48.84316" lon="2.41768">
        <ele>106</ele>
        <time>2015-05-25T20:00:29.030Z</time>
      </trkpt>
      <trkpt lat="48.84311" lon="2.41768">
        <ele>105.8</ele>
        <time>2015-05-25T20:00:30.629Z</time>
      </trkpt>
      <trkpt lat="48.84305" lon="2.41767">
        <ele>105.4</ele>
        <time>2015-05-25T20:00:31.046Z</time>
      </trkpt>
      <trkpt lat="48.84301" lon="2.41766">
        <ele>105.1</ele>
        <time>2015-05-25T20:00:32.022Z</time>
      </trkpt>
      <trkpt lat="48.84296" lon="2.41766">
        <ele>105.1</ele>
        <time>2015-05-25T20:00:33.079Z</time>
      </trkpt>
      <trkpt lat="48.84291" lon="2.41766">
        <ele>105.1</ele>
        <time>2015-05-25T20:00:34.085Z</time>
      </trkpt>
      <trkpt lat="48.84286" lon="2.41766">
        <ele>105.1</ele>
        <time>2015-05-25T20:00:34.996Z</time>
      </trkpt>
      <trkpt lat="48.8428" lon="2.41767">
        <ele>105.1</ele>
        <time>2015-05-25T20:00:36.002Z</time>
      </trkpt>
      <trkpt lat="48.84273" lon="2.41767">
        <ele>105.2</ele>
        <time>2015-05-25T20:00:37.016Z</time>
      </trkpt>
      <trkpt lat="48.84267" lon="2.41766">
        <ele>105.2</ele>
        <time>2015-05-25T20:00:38.041Z</time>
      </trkpt>
      <trkpt lat="48.84261" lon="2.41765">
        <ele>105.2</ele>
        <time>2015-05-25T20:00:39.083Z</time>
      </trkpt>
      <trkpt lat="48.84255" lon="2.41765">
        <ele>105.1</ele>
        <time>2015-05-25T20:00:39.972Z</time>
      </trkpt>
      <trkpt lat="48.84249" lon="2.41766">
        <ele>104.8</ele>
        <time>2015-05-25T20:00:41.013Z</time>
      </trkpt>
      <trkpt lat="48.84243" lon="2.41766">
        <ele>104.8</ele>
        <time>2015-05-25T20:00:42.032Z</time>
      </trkpt>
      <trkpt lat="48.84236" lon="2.41763">
        <ele>104.6</ele>
        <time>2015-05-25T20:00:43.036Z</time>
      </trkpt>
      <trkpt lat="48.84229" lon="2.41759">
        <ele>104.4</ele>
        <time>2015-05-25T20:00:44.066Z</time>
      </trkpt>
      <trkpt lat="48.84223" lon="2.41756">
        <ele>104</ele>
        <time>2015-05-25T20:00:45.075Z</time>
      </trkpt>
      <trkpt lat="48.84216" lon="2.41755">
        <ele>104</ele>
        <time>2015-05-25T20:00:46.018Z</time>
      </trkpt>
      <trkpt lat="48.84211" lon="2.41755">
        <ele>104.1</ele>
        <time>2015-05-25T20:00:46.988Z</time>
      </trkpt>
      <trkpt lat="48.84205" lon="2.41755">
        <ele>104.4</ele>
        <time>2015-05-25T20:00:47.994Z</time>
      </trkpt>
      <trkpt lat="48.842" lon="2.41755">
        <ele>104.5</ele>
        <time>2015-05-25T20:00:48.999Z</time>
      </trkpt>
      <trkpt lat="48.84194" lon="2.41756">
        <ele>104.4</ele>
        <time>2015-05-25T20:00:50.022Z</time>
      </trkpt>
      <trkpt lat="48.84188" lon="2.41757">
        <ele>104.5</ele>
        <time>2015-05-25T20:00:51.030Z</time>
      </trkpt>
      <trkpt lat="48.84182" lon="2.41757">
        <ele>104.4</ele>
        <time>2015-05-25T20:00:52.032Z</time>
      </trkpt>
      <trkpt lat="48.84176" lon="2.41757">
        <ele>104.5</ele>
        <time>2015-05-25T20:00:53.045Z</time>
      </trkpt>
      <trkpt lat="48.8417" lon="2.41757">
        <ele>104.3</ele>
        <time>2015-05-25T20:00:54.057Z</time>
      </trkpt>
      <trkpt lat="48.84164" lon="2.41757">
        <ele>104.1</ele>
        <time>2015-05-25T20:00:55.074Z</time>
      </trkpt>
      <trkpt lat="48.84158" lon="2.41757">
        <ele>103.7</ele>
        <time>2015-05-25T20:00:56.081Z</time>
      </trkpt>
      <trkpt lat="48.84154" lon="2.41758">
        <ele>103.3</ele>
        <time>2015-05-25T20:00:57.092Z</time>
      </trkpt>
      <trkpt lat="48.84148" lon="2.41757">
        <ele>103.2</ele>
        <time>2015-05-25T20:00:57.989Z</time>
      </trkpt>
      <trkpt lat="48.84143" lon="2.41757">
        <ele>102.8</ele>
        <time>2015-05-25T20:00:59.005Z</time>
      </trkpt>
      <trkpt lat="48.84136" lon="2.41759">
        <ele>103.4</ele>
        <time>2015-05-25T20:01:00.008Z</time>
      </trkpt>
      <trkpt lat="48.8413" lon="2.4176">
        <ele>103.5</ele>
        <time>2015-05-25T20:01:01.009Z</time>
      </trkpt>
      <trkpt lat="48.84125" lon="2.41761">
        <ele>103.5</ele>
        <time>2015-05-25T20:01:02.023Z</time>
      </trkpt>
      <trkpt lat="48.84119" lon="2.41762">
        <ele>103</ele>
        <time>2015-05-25T20:01:03.032Z</time>
      </trkpt>
      <trkpt lat="48.84113" lon="2.41762">
        <ele>103</ele>
        <time>2015-05-25T20:01:04.054Z</time>
      </trkpt>
      <trkpt lat="48.84107" lon="2.41759">
        <ele>103.2</ele>
        <time>2015-05-25T20:01:05.059Z</time>
      </trkpt>
      <trkpt lat="48.84099" lon="2.41758">
        <ele>103.7</ele>
        <time>2015-05-25T20:01:06.083Z</time>
      </trkpt>
      <trkpt lat="48.84092" lon="2.41757">
        <ele>104.1</ele>
        <time>2015-05-25T20:01:07.005Z</time>
      </trkpt>
      <trkpt lat="48.84085" lon="2.41756">
        <ele>104.4</ele>
        <time>2015-05-25T20:01:07.989Z</time>
      </trkpt>
      <trkpt lat="48.84079" lon="2.41756">
        <ele>104.5</ele>
        <time>2015-05-25T20:01:09.032Z</time>
      </trkpt>
      <trkpt lat="48.84073" lon="2.41757">
        <ele>104.6</ele>
        <time>2015-05-25T20:01:10.036Z</time>
      </trkpt>
      <trkpt lat="48.84068" lon="2.41758">
        <ele>104.3</ele>
        <time>2015-05-25T20:01:11.045Z</time>
      </trkpt>
      <trkpt lat="48.84061" lon="2.41756">
        <ele>104.1</ele>
        <time>2015-05-25T20:01:12.054Z</time>
      </trkpt>
      <trkpt lat="48.84055" lon="2.41755">
        <ele>103.4</ele>
        <time>2015-05-25T20:01:13.063Z</time>
      </trkpt>
      <trkpt lat="48.84049" lon="2.41753">
        <ele>103.3</ele>
        <time>2015-05-25T20:01:14.087Z</time>
      </trkpt>
      <trkpt lat="48.84042" lon="2.41752">
        <ele>103.8</ele>
        <time>2015-05-25T20:01:15.085Z</time>
      </trkpt>
      <trkpt lat="48.84035" lon="2.41752">
        <ele>104.4</ele>
        <time>2015-05-25T20:01:16.092Z</time>
      </trkpt>
      <trkpt lat="48.84029" lon="2.41751">
        <ele>104</ele>
        <time>2015-05-25T20:01:17.097Z</time>
      </trkpt>
      <trkpt lat="48.84022" lon="2.4175">
        <ele>104.1</ele>
        <time>2015-05-25T20:01:18.007Z</time>
      </trkpt>
      <trkpt lat="48.84017" lon="2.4175">
        <ele>104.2</ele>
        <time>2015-05-25T20:01:19.015Z</time>
      </trkpt>
      <trkpt lat="48.84011" lon="2.4175">
        <ele>103.9</ele>
        <time>2015-05-25T20:01:20.023Z</time>
      </trkpt>
      <trkpt lat="48.84007" lon="2.41752">
        <ele>103.3</ele>
        <time>2015-05-25T20:01:21.050Z</time>
      </trkpt>
      <trkpt lat="48.84002" lon="2.41752">
        <ele>102.6</ele>
        <time>2015-05-25T20:01:22.055Z</time>
      </trkpt>
      <trkpt lat="48.83997" lon="2.41754">
        <ele>102.5</ele>
        <time>2015-05-25T20:01:23.065Z</time>
      </trkpt>
      <trkpt lat="48.8399" lon="2.41754">
        <ele>102.6</ele>
        <time>2015-05-25T20:01:24.082Z</time>
      </trkpt>
      <trkpt lat="48.83984" lon="2.41755">
        <ele>102.8</ele>
        <time>2015-05-25T20:01:25.083Z</time>
      </trkpt>
      <trkpt lat="48.83978" lon="2.41755">
        <ele>103.2</ele>
        <time>2015-05-25T20:01:26.262Z</time>
      </trkpt>
      <trkpt lat="48.83972" lon="2.41755">
        <ele>103.8</ele>
        <time>2015-05-25T20:01:27.108Z</time>
      </trkpt>
      <trkpt lat="48.83966" lon="2.41756">
        <ele>104.3</ele>
        <time>2015-05-25T20:01:28.113Z</time>
      </trkpt>
      <trkpt lat="48.8396" lon="2.41757">
        <ele>104.3</ele>
        <time>2015-05-25T20:01:29.042Z</time>
      </trkpt>
      <trkpt lat="48.83955" lon="2.41757">
        <ele>104.6</ele>
        <time>2015-05-25T20:01:30.004Z</time>
      </trkpt>
      <trkpt lat="48.83949" lon="2.41756">
        <ele>105.1</ele>
        <time>2015-05-25T20:01:31.050Z</time>
      </trkpt>
      <trkpt lat="48.83944" lon="2.41757">
        <ele>105.1</ele>
        <time>2015-05-25T20:01:32.089Z</time>
      </trkpt>
      <trkpt lat="48.83939" lon="2.41756">
        <ele>105.2</ele>
        <time>2015-05-25T20:01:33.113Z</time>
      </trkpt>
      <trkpt lat="48.83933" lon="2.41756">
        <ele>105.5</ele>
        <time>2015-05-25T20:01:34.011Z</time>
      </trkpt>
      <trkpt lat="48.83928" lon="2.41756">
        <ele>105.4</ele>
        <time>2015-05-25T20:01:35.030Z</time>
      </trkpt>
      <trkpt lat="48.83923" lon="2.41756">
        <ele>105.1</ele>
        <time>2015-05-25T20:01:36.048Z</time>
      </trkpt>
      <trkpt lat="48.83918" lon="2.41755">
        <ele>105.1</ele>
        <time>2015-05-25T20:01:37.332Z</time>
      </trkpt>
      <trkpt lat="48.83912" lon="2.41755">
        <ele>105.2</ele>
        <time>2015-05-25T20:01:38.110Z</time>
      </trkpt>
      <trkpt lat="48.83908" lon="2.41755">
        <ele>105.4</ele>
        <time>2015-05-25T20:01:39.120Z</time>
      </trkpt>
      <trkpt lat="48.83899" lon="2.41754">
        <ele>105.2</ele>
        <time>2015-05-25T20:01:41.027Z</time>
      </trkpt>
      <trkpt lat="48.83895" lon="2.41754">
        <ele>105.3</ele>
        <time>2015-05-25T20:01:42.048Z</time>
      </trkpt>
      <trkpt lat="48.83889" lon="2.41753">
        <ele>105.8</ele>
        <time>2015-05-25T20:01:44.080Z</time>
      </trkpt>
      <trkpt lat="48.83886" lon="2.41752">
        <ele>106.1</ele>
        <time>2015-05-25T20:01:45.154Z</time>
      </trkpt>
      <trkpt lat="48.8388" lon="2.41752">
        <ele>106.2</ele>
        <time>2015-05-25T20:02:21.093Z</time>
      </trkpt>
      <trkpt lat="48.83877" lon="2.41754">
        <ele>106.1</ele>
        <time>2015-05-25T20:02:22.110Z</time>
      </trkpt>
      <trkpt lat="48.83869" lon="2.41758">
        <ele>105.9</ele>
        <time>2015-05-25T20:02:25.050Z</time>
      </trkpt>
      <trkpt lat="48.83866" lon="2.41759">
        <ele>106</ele>
        <time>2015-05-25T20:02:26.062Z</time>
      </trkpt>
      <trkpt lat="48.83859" lon="2.41761">
        <ele>105.9</ele>
        <time>2015-05-25T20:02:28.098Z</time>
      </trkpt>
      <trkpt lat="48.83856" lon="2.41762">
        <ele>105.8</ele>
        <time>2015-05-25T20:02:29.104Z</time>
      </trkpt>
      <trkpt lat="48.8385" lon="2.41764">
        <ele>106</ele>
        <time>2015-05-25T20:02:31.028Z</time>
      </trkpt>
      <trkpt lat="48.83846" lon="2.41764">
        <ele>106.2</ele>
        <time>2015-05-25T20:02:32.041Z</time>
      </trkpt>
      <trkpt lat="48.83839" lon="2.41765">
        <ele>106.6</ele>
        <time>2015-05-25T20:02:34.057Z</time>
      </trkpt>
      <trkpt lat="48.83836" lon="2.41766">
        <ele>106.8</ele>
        <time>2015-05-25T20:02:35.086Z</time>
      </trkpt>
      <trkpt lat="48.83829" lon="2.41769">
        <ele>107</ele>
        <time>2015-05-25T20:02:37.027Z</time>
      </trkpt>
      <trkpt lat="48.83825" lon="2.4177">
        <ele>107</ele>
        <time>2015-05-25T20:02:38.022Z</time>
      </trkpt>
      <trkpt lat="48.83817" lon="2.4177">
        <ele>107.1</ele>
        <time>2015-05-25T20:02:40Z</time>
      </trkpt>
      <trkpt lat="48.83813" lon="2.41771">
        <ele>107.3</ele>
        <time>2015-05-25T20:02:41.059Z</time>
      </trkpt>
      <trkpt lat="48.83805" lon="2.41773">
        <ele>107.6</ele>
        <time>2015-05-25T20:02:43.052Z</time>
      </trkpt>
      <trkpt lat="48.83802" lon="2.41774">
        <ele>107.8</ele>
        <time>2015-05-25T20:02:44.060Z</time>
      </trkpt>
      <trkpt lat="48.83793" lon="2.41775">
        <ele>108.2</ele>
        <time>2015-05-25T20:02:46.031Z</time>
      </trkpt>
      <trkpt lat="48.8379" lon="2.41777">
        <ele>108.3</ele>
        <time>2015-05-25T20:02:47.043Z</time>
      </trkpt>
      <trkpt lat="48.83783" lon="2.41785">
        <ele>108</ele>
        <time>2015-05-25T20:02:49.099Z</time>
      </trkpt>
      <trkpt lat="48.8378" lon="2.41787">
        <ele>108.1</ele>
        <time>2015-05-25T20:02:50.168Z</time>
      </trkpt>
      <trkpt lat="48.83774" lon="2.41792">
        <ele>108.2</ele>
        <time>2015-05-25T20:02:52.056Z</time>
      </trkpt>
      <trkpt lat="48.83771" lon="2.41795">
        <ele>108.2</ele>
        <time>2015-05-25T20:02:53.140Z</time>
      </trkpt>
      <trkpt lat="48.83764" lon="2.41801">
        <ele>108.3</ele>
        <time>2015-05-25T20:02:55.030Z</time>
      </trkpt>
      <trkpt lat="48.8376" lon="2.41807">
        <ele>108.4</ele>
        <time>2015-05-25T20:02:56.040Z</time>
      </trkpt>
      <trkpt lat="48.83754" lon="2.41811">
        <ele>108.8</ele>
        <time>2015-05-25T20:02:57.999Z</time>
      </trkpt>
      <trkpt lat="48.8375" lon="2.41813">
        <ele>109</ele>
        <time>2015-05-25T20:02:59.049Z</time>
      </trkpt>
      <trkpt lat="48.83742" lon="2.41819">
        <ele>109.2</ele>
        <time>2015-05-25T20:02:59.795Z</time>
      </trkpt>
      <trkpt lat="48.83738" lon="2.41824">
        <ele>109.5</ele>
        <time>2015-05-25T20:03:02.073Z</time>
      </trkpt>
      <trkpt lat="48.83735" lon="2.41827">
        <ele>109.9</ele>
        <time>2015-05-25T20:03:03.090Z</time>
      </trkpt>
      <trkpt lat="48.8373" lon="2.4183">
        <ele>110.1</ele>
        <time>2015-05-25T20:03:04.109Z</time>
      </trkpt>
      <trkpt lat="48.83725" lon="2.41834">
        <ele>110.3</ele>
        <time>2015-05-25T20:03:04.987Z</time>
      </trkpt>
      <trkpt lat="48.8372" lon="2.41836">
        <ele>110.8</ele>
        <time>2015-05-25T20:03:06.083Z</time>
      </trkpt>
      <trkpt lat="48.83715" lon="2.41838">
        <ele>110.9</ele>
        <time>2015-05-25T20:03:06.994Z</time>
      </trkpt>
      <trkpt lat="48.8371" lon="2.41841">
        <ele>110.9</ele>
        <time>2015-05-25T20:03:08.024Z</time>
      </trkpt>
      <trkpt lat="48.83704" lon="2.41843">
        <ele>110.2</ele>
        <time>2015-05-25T20:03:09.115Z</time>
      </trkpt>
      <trkpt lat="48.83699" lon="2.41846">
        <ele>109.8</ele>
        <time>2015-05-25T20:03:10.077Z</time>
      </trkpt>
      <trkpt lat="48.83694" lon="2.41849">
        <ele>109.8</ele>
        <time>2015-05-25T20:03:11.208Z</time>
      </trkpt>
      <trkpt lat="48.83689" lon="2.41851">
        <ele>110</ele>
        <time>2015-05-25T20:03:11.985Z</time>
      </trkpt>
      <trkpt lat="48.83684" lon="2.41853">
        <ele>109.7</ele>
        <time>2015-05-25T20:03:13.020Z</time>
      </trkpt>
      <trkpt lat="48.83679" lon="2.41856">
        <ele>109.7</ele>
        <time>2015-05-25T20:03:14.011Z</time>
      </trkpt>
      <trkpt lat="48.83673" lon="2.41857">
        <ele>109.2</ele>
        <time>2015-05-25T20:03:15.019Z</time>
      </trkpt>
      <trkpt lat="48.83667" lon="2.4186">
        <ele>109</ele>
        <time>2015-05-25T20:03:16.053Z</time>
      </trkpt>
      <trkpt lat="48.8366" lon="2.41863">
        <ele>108.9</ele>
        <time>2015-05-25T20:03:17.063Z</time>
      </trkpt>
      <trkpt lat="48.83655" lon="2.41867">
        <ele>109</ele>
        <time>2015-05-25T20:03:18.074Z</time>
      </trkpt>
      <trkpt lat="48.8365" lon="2.4187">
        <ele>109.1</ele>
        <time>2015-05-25T20:03:19.103Z</time>
      </trkpt>
      <trkpt lat="48.83644" lon="2.41872">
        <ele>109.4</ele>
        <time>2015-05-25T20:03:19.998Z</time>
      </trkpt>
      <trkpt lat="48.83636" lon="2.41877">
        <ele>109.4</ele>
        <time>2015-05-25T20:03:22.035Z</time>
      </trkpt>
      <trkpt lat="48.83634" lon="2.41878">
        <ele>109.1</ele>
        <time>2015-05-25T20:03:23.048Z</time>
      </trkpt>
      <trkpt lat="48.83638" lon="2.41866">
        <ele>109</ele>
        <time>2015-05-25T20:03:31.027Z</time>
      </trkpt>
      <trkpt lat="48.83638" lon="2.41863">
        <ele>109.5</ele>
        <time>2015-05-25T20:03:32.038Z</time>
      </trkpt>
      <trkpt lat="48.83637" lon="2.4185">
        <ele>110.3</ele>
        <time>2015-05-25T20:03:35.994Z</time>
      </trkpt>
      <trkpt lat="48.83636" lon="2.41845">
        <ele>110.7</ele>
        <time>2015-05-25T20:03:36.048Z</time>
      </trkpt>
      <trkpt lat="48.83634" lon="2.41838">
        <ele>110.8</ele>
        <time>2015-05-25T20:03:37.061Z</time>
      </trkpt>
      <trkpt lat="48.83631" lon="2.41831">
        <ele>111.1</ele>
        <time>2015-05-25T20:03:38.077Z</time>
      </trkpt>
      <trkpt lat="48.83628" lon="2.41824">
        <ele>111.4</ele>
        <time>2015-05-25T20:03:39.086Z</time>
      </trkpt>
      <trkpt lat="48.83626" lon="2.41818">
        <ele>111.5</ele>
        <time>2015-05-25T20:03:39.990Z</time>
      </trkpt>
      <trkpt lat="48.83622" lon="2.41807">
        <ele>111.8</ele>
        <time>2015-05-25T20:03:42.037Z</time>
      </trkpt>
      <trkpt lat="48.8362" lon="2.41801">
        <ele>111.8</ele>
        <time>2015-05-25T20:03:43.034Z</time>
      </trkpt>
      <trkpt lat="48.83618" lon="2.41794">
        <ele>111.8</ele>
        <time>2015-05-25T20:03:44.080Z</time>
      </trkpt>
      <trkpt lat="48.83616" lon="2.41788">
        <ele>111.8</ele>
        <time>2015-05-25T20:03:45.129Z</time>
      </trkpt>
      <trkpt lat="48.83613" lon="2.41776">
        <ele>111.7</ele>
        <time>2015-05-25T20:03:47.002Z</time>
      </trkpt>
      <trkpt lat="48.83612" lon="2.41769">
        <ele>111.7</ele>
        <time>2015-05-25T20:03:48.090Z</time>
      </trkpt>
      <trkpt lat="48.8361" lon="2.41763">
        <ele>111.9</ele>
        <time>2015-05-25T20:03:49.045Z</time>
      </trkpt>
      <trkpt lat="48.83607" lon="2.41756">
        <ele>112.1</ele>
        <time>2015-05-25T20:03:50.053Z</time>
      </trkpt>
      <trkpt lat="48.83602" lon="2.41745">
        <ele>112.3</ele>
        <time>2015-05-25T20:03:52.100Z</time>
      </trkpt>
      <trkpt lat="48.836" lon="2.41739">
        <ele>111.7</ele>
        <time>2015-05-25T20:03:53.174Z</time>
      </trkpt>
      <trkpt lat="48.83596" lon="2.41728">
        <ele>110.4</ele>
        <time>2015-05-25T20:03:55.042Z</time>
      </trkpt>
      <trkpt lat="48.83594" lon="2.41721">
        <ele>110.2</ele>
        <time>2015-05-25T20:03:56.051Z</time>
      </trkpt>
      <trkpt lat="48.83591" lon="2.41715">
        <ele>110</ele>
        <time>2015-05-25T20:03:57.135Z</time>
      </trkpt>
      <trkpt lat="48.8359" lon="2.41708">
        <ele>109.9</ele>
        <time>2015-05-25T20:03:58.017Z</time>
      </trkpt>
      <trkpt lat="48.83587" lon="2.41698">
        <ele>109.5</ele>
        <time>2015-05-25T20:04:00.062Z</time>
      </trkpt>
      <trkpt lat="48.83584" lon="2.41691">
        <ele>109.4</ele>
        <time>2015-05-25T20:04:01.068Z</time>
      </trkpt>
      <trkpt lat="48.83582" lon="2.41685">
        <ele>109.7</ele>
        <time>2015-05-25T20:04:02.030Z</time>
      </trkpt>
      <trkpt lat="48.83579" lon="2.41678">
        <ele>109.7</ele>
        <time>2015-05-25T20:04:03.059Z</time>
      </trkpt>
      <trkpt lat="48.83576" lon="2.41667">
        <ele>110.1</ele>
        <time>2015-05-25T20:04:05.082Z</time>
      </trkpt>
      <trkpt lat="48.83575" lon="2.41662">
        <ele>110.2</ele>
        <time>2015-05-25T20:04:06.107Z</time>
      </trkpt>
      <trkpt lat="48.83574" lon="2.41655">
        <ele>110</ele>
        <time>2015-05-25T20:04:07.002Z</time>
      </trkpt>
      <trkpt lat="48.83573" lon="2.41649">
        <ele>110.3</ele>
        <time>2015-05-25T20:04:08.022Z</time>
      </trkpt>
      <trkpt lat="48.83569" lon="2.41637">
        <ele>110.1</ele>
        <time>2015-05-25T20:04:10.077Z</time>
      </trkpt>
      <trkpt lat="48.83568" lon="2.41632">
        <ele>110.5</ele>
        <time>2015-05-25T20:04:11.007Z</time>
      </trkpt>
      <trkpt lat="48.83565" lon="2.4162">
        <ele>110.7</ele>
        <time>2015-05-25T20:04:13.041Z</time>
      </trkpt>
      <trkpt lat="48.83564" lon="2.41614">
        <ele>110.9</ele>
        <time>2015-05-25T20:04:14.094Z</time>
      </trkpt>
      <trkpt lat="48.83562" lon="2.41603">
        <ele>110.2</ele>
        <time>2015-05-25T20:04:16.019Z</time>
      </trkpt>
      <trkpt lat="48.83559" lon="2.41598">
        <ele>110.1</ele>
        <time>2015-05-25T20:04:17.037Z</time>
      </trkpt>
      <trkpt lat="48.83555" lon="2.41587">
        <ele>110.6</ele>
        <time>2015-05-25T20:04:19.086Z</time>
      </trkpt>
      <trkpt lat="48.83553" lon="2.4158">
        <ele>110.4</ele>
        <time>2015-05-25T20:04:20.126Z</time>
      </trkpt>
      <trkpt lat="48.83552" lon="2.41573">
        <ele>110.1</ele>
        <time>2015-05-25T20:04:21.077Z</time>
      </trkpt>
      <trkpt lat="48.8355" lon="2.41567">
        <ele>110.1</ele>
        <time>2015-05-25T20:04:22.092Z</time>
      </trkpt>
      <trkpt lat="48.83546" lon="2.41554">
        <ele>110.5</ele>
        <time>2015-05-25T20:04:24.027Z</time>
      </trkpt>
      <trkpt lat="48.83545" lon="2.41548">
        <ele>110.8</ele>
        <time>2015-05-25T20:04:25.044Z</time>
      </trkpt>
      <trkpt lat="48.83543" lon="2.41537">
        <ele>111</ele>
        <time>2015-05-25T20:04:27.078Z</time>
      </trkpt>
      <trkpt lat="48.83541" lon="2.41533">
        <ele>111.1</ele>
        <time>2015-05-25T20:04:28.098Z</time>
      </trkpt>
      <trkpt lat="48.83538" lon="2.41523">
        <ele>110.7</ele>
        <time>2015-05-25T20:04:30.011Z</time>
      </trkpt>
      <trkpt lat="48.83536" lon="2.41518">
        <ele>110.5</ele>
        <time>2015-05-25T20:04:31.029Z</time>
      </trkpt>
      <trkpt lat="48.83533" lon="2.41506">
        <ele>110.9</ele>
        <time>2015-05-25T20:04:33.069Z</time>
      </trkpt>
      <trkpt lat="48.83532" lon="2.415">
        <ele>111.1</ele>
        <time>2015-05-25T20:04:34.088Z</time>
      </trkpt>
      <trkpt lat="48.83529" lon="2.41489">
        <ele>111.1</ele>
        <time>2015-05-25T20:04:36.020Z</time>
      </trkpt>
      <trkpt lat="48.83528" lon="2.41484">
        <ele>111</ele>
        <time>2015-05-25T20:04:37.057Z</time>
      </trkpt>
      <trkpt lat="48.83528" lon="2.41472">
        <ele>110.7</ele>
        <time>2015-05-25T20:04:39.100Z</time>
      </trkpt>
      <trkpt lat="48.83527" lon="2.41465">
        <ele>110.6</ele>
        <time>2015-05-25T20:04:40.100Z</time>
      </trkpt>
      <trkpt lat="48.83525" lon="2.41454">
        <ele>110.4</ele>
        <time>2015-05-25T20:04:42.011Z</time>
      </trkpt>
      <trkpt lat="48.83523" lon="2.41448">
        <ele>110.6</ele>
        <time>2015-05-25T20:04:43.029Z</time>
      </trkpt>
      <trkpt lat="48.83519" lon="2.41436">
        <ele>110.7</ele>
        <time>2015-05-25T20:04:45.091Z</time>
      </trkpt>
      <trkpt lat="48.83518" lon="2.41429">
        <ele>110.5</ele>
        <time>2015-05-25T20:04:46.024Z</time>
      </trkpt>
      <trkpt lat="48.83517" lon="2.41422">
        <ele>110.4</ele>
        <time>2015-05-25T20:04:47.089Z</time>
      </trkpt>
      <trkpt lat="48.83515" lon="2.41416">
        <ele>110.3</ele>
        <time>2015-05-25T20:04:48.007Z</time>
      </trkpt>
      <trkpt lat="48.83513" lon="2.41403">
        <ele>111.2</ele>
        <time>2015-05-25T20:04:50.061Z</time>
      </trkpt>
      <trkpt lat="48.83511" lon="2.41397">
        <ele>111.5</ele>
        <time>2015-05-25T20:04:51.066Z</time>
      </trkpt>
      <trkpt lat="48.83508" lon="2.41384">
        <ele>111.8</ele>
        <time>2015-05-25T20:04:53.104Z</time>
      </trkpt>
      <trkpt lat="48.83506" lon="2.41379">
        <ele>111.7</ele>
        <time>2015-05-25T20:04:54.011Z</time>
      </trkpt>
      <trkpt lat="48.835" lon="2.41368">
        <ele>111.9</ele>
        <time>2015-05-25T20:04:56.046Z</time>
      </trkpt>
      <trkpt lat="48.83498" lon="2.41363">
        <ele>112.2</ele>
        <time>2015-05-25T20:04:57.053Z</time>
      </trkpt>
      <trkpt lat="48.83493" lon="2.41351">
        <ele>112.5</ele>
        <time>2015-05-25T20:04:59.086Z</time>
      </trkpt>
      <trkpt lat="48.83491" lon="2.41347">
        <ele>112.7</ele>
        <time>2015-05-25T20:04:59.982Z</time>
      </trkpt>
      <trkpt lat="48.83486" lon="2.41336">
        <ele>113.3</ele>
        <time>2015-05-25T20:05:02.051Z</time>
      </trkpt>
      <trkpt lat="48.83484" lon="2.41329">
        <ele>113.6</ele>
        <time>2015-05-25T20:05:03.082Z</time>
      </trkpt>
      <trkpt lat="48.83481" lon="2.41323">
        <ele>113.8</ele>
        <time>2015-05-25T20:05:04.023Z</time>
      </trkpt>
      <trkpt lat="48.83479" lon="2.41316">
        <ele>113.8</ele>
        <time>2015-05-25T20:05:05.026Z</time>
      </trkpt>
      <trkpt lat="48.83477" lon="2.41309">
        <ele>113.8</ele>
        <time>2015-05-25T20:05:06.043Z</time>
      </trkpt>
      <trkpt lat="48.83476" lon="2.41301">
        <ele>113.7</ele>
        <time>2015-05-25T20:05:07.058Z</time>
      </trkpt>
      <trkpt lat="48.83474" lon="2.41294">
        <ele>113.5</ele>
        <time>2015-05-25T20:05:08.057Z</time>
      </trkpt>
      <trkpt lat="48.83473" lon="2.41287">
        <ele>113.3</ele>
        <time>2015-05-25T20:05:09.072Z</time>
      </trkpt>
      <trkpt lat="48.8347" lon="2.4128">
        <ele>113.1</ele>
        <time>2015-05-25T20:05:10.088Z</time>
      </trkpt>
      <trkpt lat="48.83469" lon="2.41274">
        <ele>112.4</ele>
        <time>2015-05-25T20:05:11.094Z</time>
      </trkpt>
      <trkpt lat="48.83467" lon="2.41262">
        <ele>110.5</ele>
        <time>2015-05-25T20:05:13.107Z</time>
      </trkpt>
      <trkpt lat="48.83464" lon="2.41256">
        <ele>109.8</ele>
        <time>2015-05-25T20:05:14.094Z</time>
      </trkpt>
      <trkpt lat="48.83462" lon="2.41248">
        <ele>109.6</ele>
        <time>2015-05-25T20:05:15.093Z</time>
      </trkpt>
      <trkpt lat="48.8346" lon="2.41242">
        <ele>109.4</ele>
        <time>2015-05-25T20:05:16.093Z</time>
      </trkpt>
      <trkpt lat="48.83456" lon="2.41231">
        <ele>108.9</ele>
        <time>2015-05-25T20:05:18.116Z</time>
      </trkpt>
      <trkpt lat="48.83454" lon="2.41225">
        <ele>108.7</ele>
        <time>2015-05-25T20:05:19.122Z</time>
      </trkpt>
      <trkpt lat="48.8345" lon="2.41214">
        <ele>108.5</ele>
        <time>2015-05-25T20:05:21.081Z</time>
      </trkpt>
      <trkpt lat="48.83448" lon="2.41208">
        <ele>108.6</ele>
        <time>2015-05-25T20:05:22.080Z</time>
      </trkpt>
      <trkpt lat="48.83446" lon="2.41196">
        <ele>108.5</ele>
        <time>2015-05-25T20:05:24.047Z</time>
      </trkpt>
      <trkpt lat="48.83444" lon="2.41191">
        <ele>108.3</ele>
        <time>2015-05-25T20:05:25.062Z</time>
      </trkpt>
      <trkpt lat="48.83441" lon="2.41179">
        <ele>108.5</ele>
        <time>2015-05-25T20:05:27.088Z</time>
      </trkpt>
      <trkpt lat="48.83439" lon="2.41174">
        <ele>108.2</ele>
        <time>2015-05-25T20:05:28.103Z</time>
      </trkpt>
      <trkpt lat="48.83437" lon="2.41161">
        <ele>108</ele>
        <time>2015-05-25T20:05:30.098Z</time>
      </trkpt>
      <trkpt lat="48.83435" lon="2.41156">
        <ele>107.8</ele>
        <time>2015-05-25T20:05:31.040Z</time>
      </trkpt>
      <trkpt lat="48.83432" lon="2.41148">
        <ele>107</ele>
        <time>2015-05-25T20:05:33.150Z</time>
      </trkpt>
      <trkpt lat="48.83431" lon="2.41142">
        <ele>105.7</ele>
        <time>2015-05-25T20:05:34.069Z</time>
      </trkpt>
      <trkpt lat="48.83429" lon="2.41132">
        <ele>105.3</ele>
        <time>2015-05-25T20:05:36.202Z</time>
      </trkpt>
      <trkpt lat="48.83428" lon="2.41128">
        <ele>104.9</ele>
        <time>2015-05-25T20:05:37.026Z</time>
      </trkpt>
      <trkpt lat="48.83427" lon="2.41115">
        <ele>104</ele>
        <time>2015-05-25T20:05:40.139Z</time>
      </trkpt>
      <trkpt lat="48.83427" lon="2.41111">
        <ele>103.9</ele>
        <time>2015-05-25T20:05:41.035Z</time>
      </trkpt>
      <trkpt lat="48.83426" lon="2.41101">
        <ele>103.3</ele>
        <time>2015-05-25T20:05:44.083Z</time>
      </trkpt>
      <trkpt lat="48.83426" lon="2.41097">
        <ele>103.2</ele>
        <time>2015-05-25T20:05:45.096Z</time>
      </trkpt>
      <trkpt lat="48.83428" lon="2.41085">
        <ele>102.4</ele>
        <time>2015-05-25T20:05:49.051Z</time>
      </trkpt>
      <trkpt lat="48.83428" lon="2.41082">
        <ele>102.1</ele>
        <time>2015-05-25T20:05:50.070Z</time>
      </trkpt>
      <trkpt lat="48.83429" lon="2.41071">
        <ele>101.5</ele>
        <time>2015-05-25T20:05:53.120Z</time>
      </trkpt>
      <trkpt lat="48.83429" lon="2.41067">
        <ele>101.4</ele>
        <time>2015-05-25T20:05:54.130Z</time>
      </trkpt>
      <trkpt lat="48.83428" lon="2.41056">
        <ele>101.5</ele>
        <time>2015-05-25T20:05:57.214Z</time>
      </trkpt>
      <trkpt lat="48.83429" lon="2.41052">
        <ele>101.7</ele>
        <time>2015-05-25T20:05:58.069Z</time>
      </trkpt>
      <trkpt lat="48.83432" lon="2.41043">
        <ele>101.8</ele>
        <time>2015-05-25T20:06:00.102Z</time>
      </trkpt>
      <trkpt lat="48.83433" lon="2.41038">
        <ele>101.9</ele>
        <time>2015-05-25T20:06:01.116Z</time>
      </trkpt>
      <trkpt lat="48.83434" lon="2.41029">
        <ele>101.6</ele>
        <time>2015-05-25T20:06:03.129Z</time>
      </trkpt>
      <trkpt lat="48.83436" lon="2.41025">
        <ele>101.4</ele>
        <time>2015-05-25T20:06:04.032Z</time>
      </trkpt>
      <trkpt lat="48.83438" lon="2.41014">
        <ele>101.5</ele>
        <time>2015-05-25T20:06:06.055Z</time>
      </trkpt>
      <trkpt lat="48.83439" lon="2.41009">
        <ele>101.4</ele>
        <time>2015-05-25T20:06:07.075Z</time>
      </trkpt>
      <trkpt lat="48.83441" lon="2.40999">
        <ele>101.1</ele>
        <time>2015-05-25T20:06:09.145Z</time>
      </trkpt>
      <trkpt lat="48.83442" lon="2.40994">
        <ele>100.9</ele>
        <time>2015-05-25T20:06:10.060Z</time>
      </trkpt>
      <trkpt lat="48.83444" lon="2.40985">
        <ele>101.3</ele>
        <time>2015-05-25T20:06:12.055Z</time>
      </trkpt>
      <trkpt lat="48.83445" lon="2.4098">
        <ele>101.3</ele>
        <time>2015-05-25T20:06:13.064Z</time>
      </trkpt>
      <trkpt lat="48.83447" lon="2.40969">
        <ele>101.7</ele>
        <time>2015-05-25T20:06:15.825Z</time>
      </trkpt>
      <trkpt lat="48.83449" lon="2.40963">
        <ele>101.9</ele>
        <time>2015-05-25T20:06:16.041Z</time>
      </trkpt>
      <trkpt lat="48.83451" lon="2.40957">
        <ele>101.8</ele>
        <time>2015-05-25T20:06:17.056Z</time>
      </trkpt>
      <trkpt lat="48.83454" lon="2.4095">
        <ele>101.6</ele>
        <time>2015-05-25T20:06:18.056Z</time>
      </trkpt>
      <trkpt lat="48.83456" lon="2.40943">
        <ele>101.2</ele>
        <time>2015-05-25T20:06:19.077Z</time>
      </trkpt>
      <trkpt lat="48.83458" lon="2.40936">
        <ele>101</ele>
        <time>2015-05-25T20:06:20.103Z</time>
      </trkpt>
      <trkpt lat="48.83459" lon="2.40927">
        <ele>101.3</ele>
        <time>2015-05-25T20:06:21.115Z</time>
      </trkpt>
      <trkpt lat="48.8346" lon="2.40919">
        <ele>101.6</ele>
        <time>2015-05-25T20:06:22.124Z</time>
      </trkpt>
      <trkpt lat="48.83463" lon="2.40912">
        <ele>101.7</ele>
        <time>2015-05-25T20:06:23.022Z</time>
      </trkpt>
      <trkpt lat="48.83466" lon="2.40906">
        <ele>101.8</ele>
        <time>2015-05-25T20:06:24.046Z</time>
      </trkpt>
      <trkpt lat="48.83468" lon="2.409">
        <ele>101.9</ele>
        <time>2015-05-25T20:06:25.908Z</time>
      </trkpt>
      <trkpt lat="48.8347" lon="2.40894">
        <ele>101.8</ele>
        <time>2015-05-25T20:06:26.081Z</time>
      </trkpt>
      <trkpt lat="48.83471" lon="2.40885">
        <ele>100.9</ele>
        <time>2015-05-25T20:06:27.123Z</time>
      </trkpt>
      <trkpt lat="48.83473" lon="2.40878">
        <ele>100.4</ele>
        <time>2015-05-25T20:06:28.145Z</time>
      </trkpt>
      <trkpt lat="48.83475" lon="2.40865">
        <ele>100.1</ele>
        <time>2015-05-25T20:06:30.053Z</time>
      </trkpt>
      <trkpt lat="48.83477" lon="2.4086">
        <ele>100.2</ele>
        <time>2015-05-25T20:06:31.083Z</time>
      </trkpt>
      <trkpt lat="48.8348" lon="2.40848">
        <ele>100.3</ele>
        <time>2015-05-25T20:06:33.112Z</time>
      </trkpt>
      <trkpt lat="48.83481" lon="2.40844">
        <ele>100.1</ele>
        <time>2015-05-25T20:06:34.018Z</time>
      </trkpt>
      <trkpt lat="48.83486" lon="2.40834">
        <ele>100.1</ele>
        <time>2015-05-25T20:06:36.099Z</time>
      </trkpt>
      <trkpt lat="48.83488" lon="2.40829">
        <ele>100</ele>
        <time>2015-05-25T20:06:37.103Z</time>
      </trkpt>
      <trkpt lat="48.83493" lon="2.4082">
        <ele>99.7</ele>
        <time>2015-05-25T20:06:39.108Z</time>
      </trkpt>
      <trkpt lat="48.83497" lon="2.40816">
        <ele>99.9</ele>
        <time>2015-05-25T20:06:40.112Z</time>
      </trkpt>
      <trkpt lat="48.83504" lon="2.4081">
        <ele>100.1</ele>
        <time>2015-05-25T20:06:42.049Z</time>
      </trkpt>
      <trkpt lat="48.83507" lon="2.40805">
        <ele>99.7</ele>
        <time>2015-05-25T20:06:43.044Z</time>
      </trkpt>
      <trkpt lat="48.83511" lon="2.408">
        <ele>99.5</ele>
        <time>2015-05-25T20:06:44.022Z</time>
      </trkpt>
      <trkpt lat="48.83514" lon="2.40795">
        <ele>99.2</ele>
        <time>2015-05-25T20:06:45.071Z</time>
      </trkpt>
      <trkpt lat="48.83518" lon="2.4079">
        <ele>98.7</ele>
        <time>2015-05-25T20:06:46.098Z</time>
      </trkpt>
      <trkpt lat="48.8352" lon="2.40784">
        <ele>98.7</ele>
        <time>2015-05-25T20:06:47.102Z</time>
      </trkpt>
      <trkpt lat="48.83522" lon="2.40777">
        <ele>98.6</ele>
        <time>2015-05-25T20:06:48.027Z</time>
      </trkpt>
      <trkpt lat="48.83525" lon="2.40771">
        <ele>98.7</ele>
        <time>2015-05-25T20:06:49.037Z</time>
      </trkpt>
      <trkpt lat="48.83529" lon="2.40767">
        <ele>98.8</ele>
        <time>2015-05-25T20:06:50.048Z</time>
      </trkpt>
      <trkpt lat="48.83532" lon="2.40761">
        <ele>98.6</ele>
        <time>2015-05-25T20:06:51.094Z</time>
      </trkpt>
      <trkpt lat="48.83535" lon="2.40755">
        <ele>98.3</ele>
        <time>2015-05-25T20:06:52.098Z</time>
      </trkpt>
      <trkpt lat="48.83538" lon="2.40749">
        <ele>98.3</ele>
        <time>2015-05-25T20:06:53.106Z</time>
      </trkpt>
      <trkpt lat="48.83541" lon="2.40743">
        <ele>98.1</ele>
        <time>2015-05-25T20:06:54.034Z</time>
      </trkpt>
      <trkpt lat="48.83543" lon="2.40736">
        <ele>97.8</ele>
        <time>2015-05-25T20:06:55.035Z</time>
      </trkpt>
      <trkpt lat="48.83546" lon="2.40728">
        <ele>97.8</ele>
        <time>2015-05-25T20:06:56.036Z</time>
      </trkpt>
      <trkpt lat="48.83548" lon="2.40721">
        <ele>97.5</ele>
        <time>2015-05-25T20:06:57.089Z</time>
      </trkpt>
      <trkpt lat="48.83552" lon="2.4071">
        <ele>97.2</ele>
        <time>2015-05-25T20:06:59.100Z</time>
      </trkpt>
      <trkpt lat="48.83554" lon="2.40705">
        <ele>97</ele>
        <time>2015-05-25T20:07:00.149Z</time>
      </trkpt>
      <trkpt lat="48.83556" lon="2.40692">
        <ele>96.9</ele>
        <time>2015-05-25T20:07:03.114Z</time>
      </trkpt>
      <trkpt lat="48.83555" lon="2.40689">
        <ele>96.7</ele>
        <time>2015-05-25T20:07:04.022Z</time>
      </trkpt>
      <trkpt lat="48.83556" lon="2.40679">
        <ele>99.4</ele>
        <time>2015-05-25T20:08:40.043Z</time>
      </trkpt>
      <trkpt lat="48.83562" lon="2.40669">
        <ele>98.5</ele>
        <time>2015-05-25T20:08:41.060Z</time>
      </trkpt>
      <trkpt lat="48.83564" lon="2.40656">
        <ele>98</ele>
        <time>2015-05-25T20:08:45.200Z</time>
      </trkpt>
      <trkpt lat="48.83564" lon="2.40652">
        <ele>97.7</ele>
        <time>2015-05-25T20:08:46.045Z</time>
      </trkpt>
      <trkpt lat="48.83565" lon="2.4064">
        <ele>97.2</ele>
        <time>2015-05-25T20:08:48.065Z</time>
      </trkpt>
      <trkpt lat="48.83566" lon="2.40635">
        <ele>97</ele>
        <time>2015-05-25T20:08:49.112Z</time>
      </trkpt>
      <trkpt lat="48.83568" lon="2.40624">
        <ele>96.7</ele>
        <time>2015-05-25T20:08:51.180Z</time>
      </trkpt>
      <trkpt lat="48.83569" lon="2.40619">
        <ele>96.7</ele>
        <time>2015-05-25T20:08:52.043Z</time>
      </trkpt>
      <trkpt lat="48.83571" lon="2.40607">
        <ele>96.7</ele>
        <time>2015-05-25T20:08:54.069Z</time>
      </trkpt>
      <trkpt lat="48.83572" lon="2.40601">
        <ele>96.7</ele>
        <time>2015-05-25T20:08:55.128Z</time>
      </trkpt>
      <trkpt lat="48.83574" lon="2.40588">
        <ele>97</ele>
        <time>2015-05-25T20:08:57.097Z</time>
      </trkpt>
      <trkpt lat="48.83575" lon="2.40582">
        <ele>97</ele>
        <time>2015-05-25T20:08:58.105Z</time>
      </trkpt>
      <trkpt lat="48.8358" lon="2.40572">
        <ele>97.1</ele>
        <time>2015-05-25T20:09:00.125Z</time>
      </trkpt>
      <trkpt lat="48.83582" lon="2.40566">
        <ele>97.2</ele>
        <time>2015-05-25T20:09:01.044Z</time>
      </trkpt>
      <trkpt lat="48.83586" lon="2.40555">
        <ele>96.9</ele>
        <time>2015-05-25T20:09:03.117Z</time>
      </trkpt>
      <trkpt lat="48.83588" lon="2.40549">
        <ele>97</ele>
        <time>2015-05-25T20:09:04.129Z</time>
      </trkpt>
      <trkpt lat="48.83592" lon="2.40538">
        <ele>97.1</ele>
        <time>2015-05-25T20:09:06.062Z</time>
      </trkpt>
      <trkpt lat="48.83594" lon="2.40532">
        <ele>97.2</ele>
        <time>2015-05-25T20:09:07.084Z</time>
      </trkpt>
      <trkpt lat="48.83597" lon="2.40527">
        <ele>97.4</ele>
        <time>2015-05-25T20:09:08.128Z</time>
      </trkpt>
      <trkpt lat="48.83599" lon="2.4052">
        <ele>97.8</ele>
        <time>2015-05-25T20:09:09.148Z</time>
      </trkpt>
      <trkpt lat="48.83605" lon="2.4051">
        <ele>98.6</ele>
        <time>2015-05-25T20:09:11.042Z</time>
      </trkpt>
      <trkpt lat="48.83608" lon="2.40505">
        <ele>98.7</ele>
        <time>2015-05-25T20:09:12.050Z</time>
      </trkpt>
      <trkpt lat="48.8361" lon="2.40499">
        <ele>98.8</ele>
        <time>2015-05-25T20:09:13.069Z</time>
      </trkpt>
      <trkpt lat="48.83612" lon="2.40492">
        <ele>98.9</ele>
        <time>2015-05-25T20:09:14.086Z</time>
      </trkpt>
      <trkpt lat="48.83615" lon="2.40486">
        <ele>99</ele>
        <time>2015-05-25T20:09:15.104Z</time>
      </trkpt>
      <trkpt lat="48.83617" lon="2.4048">
        <ele>98.4</ele>
        <time>2015-05-25T20:09:16.119Z</time>
      </trkpt>
      <trkpt lat="48.8362" lon="2.40473">
        <ele>98.3</ele>
        <time>2015-05-25T20:09:17.040Z</time>
      </trkpt>
      <trkpt lat="48.83623" lon="2.40467">
        <ele>98.9</ele>
        <time>2015-05-25T20:09:18.046Z</time>
      </trkpt>
      <trkpt lat="48.83626" lon="2.40462">
        <ele>99.2</ele>
        <time>2015-05-25T20:09:19.064Z</time>
      </trkpt>
      <trkpt lat="48.83629" lon="2.40457">
        <ele>99.1</ele>
        <time>2015-05-25T20:09:20.085Z</time>
      </trkpt>
      <trkpt lat="48.83631" lon="2.4045">
        <ele>99.2</ele>
        <time>2015-05-25T20:09:21.087Z</time>
      </trkpt>
      <trkpt lat="48.83632" lon="2.40443">
        <ele>99.5</ele>
        <time>2015-05-25T20:09:22.090Z</time>
      </trkpt>
      <trkpt lat="48.83634" lon="2.40436">
        <ele>99.7</ele>
        <time>2015-05-25T20:09:23.112Z</time>
      </trkpt>
      <trkpt lat="48.83635" lon="2.40429">
        <ele>99.7</ele>
        <time>2015-05-25T20:09:24.014Z</time>
      </trkpt>
      <trkpt lat="48.83637" lon="2.40422">
        <ele>99.6</ele>
        <time>2015-05-25T20:09:25.017Z</time>
      </trkpt>
      <trkpt lat="48.83639" lon="2.40414">
        <ele>99.4</ele>
        <time>2015-05-25T20:09:26.021Z</time>
      </trkpt>
      <trkpt lat="48.83641" lon="2.40406">
        <ele>99.2</ele>
        <time>2015-05-25T20:09:27.072Z</time>
      </trkpt>
      <trkpt lat="48.83643" lon="2.40399">
        <ele>99.1</ele>
        <time>2015-05-25T20:09:28.080Z</time>
      </trkpt>
      <trkpt lat="48.83645" lon="2.40392">
        <ele>99.1</ele>
        <time>2015-05-25T20:09:29.091Z</time>
      </trkpt>
      <trkpt lat="48.83646" lon="2.40385">
        <ele>99.2</ele>
        <time>2015-05-25T20:09:30.096Z</time>
      </trkpt>
      <trkpt lat="48.83648" lon="2.40378">
        <ele>99.3</ele>
        <time>2015-05-25T20:09:31.113Z</time>
      </trkpt>
      <trkpt lat="48.8365" lon="2.40369">
        <ele>99.3</ele>
        <time>2015-05-25T20:09:32.020Z</time>
      </trkpt>
      <trkpt lat="48.83653" lon="2.40362">
        <ele>99.8</ele>
        <time>2015-05-25T20:09:33.068Z</time>
      </trkpt>
      <trkpt lat="48.83657" lon="2.40357">
        <ele>100.2</ele>
        <time>2015-05-25T20:09:34.076Z</time>
      </trkpt>
      <trkpt lat="48.8366" lon="2.4035">
        <ele>100.1</ele>
        <time>2015-05-25T20:09:35.087Z</time>
      </trkpt>
      <trkpt lat="48.83663" lon="2.40343">
        <ele>99.9</ele>
        <time>2015-05-25T20:09:36.097Z</time>
      </trkpt>
      <trkpt lat="48.83666" lon="2.40335">
        <ele>99.8</ele>
        <time>2015-05-25T20:09:37.008Z</time>
      </trkpt>
      <trkpt lat="48.8367" lon="2.40328">
        <ele>99.7</ele>
        <time>2015-05-25T20:09:38.047Z</time>
      </trkpt>
      <trkpt lat="48.83674" lon="2.40321">
        <ele>99.6</ele>
        <time>2015-05-25T20:09:39.070Z</time>
      </trkpt>
      <trkpt lat="48.83678" lon="2.40314">
        <ele>99.5</ele>
        <time>2015-05-25T20:09:40.077Z</time>
      </trkpt>
      <trkpt lat="48.83681" lon="2.40305">
        <ele>99.7</ele>
        <time>2015-05-25T20:09:41.087Z</time>
      </trkpt>
      <trkpt lat="48.83684" lon="2.40295">
        <ele>100</ele>
        <time>2015-05-25T20:09:42.094Z</time>
      </trkpt>
      <trkpt lat="48.83687" lon="2.40286">
        <ele>100.1</ele>
        <time>2015-05-25T20:09:43.015Z</time>
      </trkpt>
      <trkpt lat="48.8369" lon="2.40277">
        <ele>99.9</ele>
        <time>2015-05-25T20:09:44.022Z</time>
      </trkpt>
      <trkpt lat="48.83693" lon="2.40268">
        <ele>100.1</ele>
        <time>2015-05-25T20:09:45.077Z</time>
      </trkpt>
      <trkpt lat="48.83696" lon="2.40258">
        <ele>100.1</ele>
        <time>2015-05-25T20:09:46.085Z</time>
      </trkpt>
      <trkpt lat="48.83697" lon="2.40246">
        <ele>100.4</ele>
        <time>2015-05-25T20:09:46.997Z</time>
      </trkpt>
      <trkpt lat="48.837" lon="2.40237">
        <ele>100.4</ele>
        <time>2015-05-25T20:09:48.100Z</time>
      </trkpt>
      <trkpt lat="48.83703" lon="2.40227">
        <ele>100.8</ele>
        <time>2015-05-25T20:09:49.020Z</time>
      </trkpt>
      <trkpt lat="48.83708" lon="2.40219">
        <ele>101.1</ele>
        <time>2015-05-25T20:09:50.030Z</time>
      </trkpt>
      <trkpt lat="48.83711" lon="2.40211">
        <ele>101.2</ele>
        <time>2015-05-25T20:09:51.061Z</time>
      </trkpt>
      <trkpt lat="48.83714" lon="2.40202">
        <ele>101.3</ele>
        <time>2015-05-25T20:09:52.060Z</time>
      </trkpt>
      <trkpt lat="48.83717" lon="2.40193">
        <ele>101.2</ele>
        <time>2015-05-25T20:09:53.065Z</time>
      </trkpt>
      <trkpt lat="48.83719" lon="2.40185">
        <ele>101.2</ele>
        <time>2015-05-25T20:09:54.071Z</time>
      </trkpt>
      <trkpt lat="48.83722" lon="2.40176">
        <ele>100.9</ele>
        <time>2015-05-25T20:09:55.083Z</time>
      </trkpt>
      <trkpt lat="48.83726" lon="2.40168">
        <ele>100.3</ele>
        <time>2015-05-25T20:09:56.089Z</time>
      </trkpt>
      <trkpt lat="48.8373" lon="2.40159">
        <ele>100.4</ele>
        <time>2015-05-25T20:09:57.112Z</time>
      </trkpt>
      <trkpt lat="48.83733" lon="2.40151">
        <ele>100.4</ele>
        <time>2015-05-25T20:09:58.013Z</time>
      </trkpt>
      <trkpt lat="48.83736" lon="2.40141">
        <ele>100.6</ele>
        <time>2015-05-25T20:09:59.029Z</time>
      </trkpt>
      <trkpt lat="48.8374" lon="2.40132">
        <ele>100.6</ele>
        <time>2015-05-25T20:10:00.041Z</time>
      </trkpt>
      <trkpt lat="48.83743" lon="2.40122">
        <ele>100.9</ele>
        <time>2015-05-25T20:10:01.052Z</time>
      </trkpt>
      <trkpt lat="48.83747" lon="2.40114">
        <ele>100.4</ele>
        <time>2015-05-25T20:10:02.059Z</time>
      </trkpt>
      <trkpt lat="48.83751" lon="2.40106">
        <ele>100.3</ele>
        <time>2015-05-25T20:10:03.073Z</time>
      </trkpt>
      <trkpt lat="48.83754" lon="2.40098">
        <ele>100.5</ele>
        <time>2015-05-25T20:10:04.082Z</time>
      </trkpt>
      <trkpt lat="48.83758" lon="2.4009">
        <ele>100</ele>
        <time>2015-05-25T20:10:05.094Z</time>
      </trkpt>
      <trkpt lat="48.83762" lon="2.40082">
        <ele>100.1</ele>
        <time>2015-05-25T20:10:06.008Z</time>
      </trkpt>
      <trkpt lat="48.83766" lon="2.40074">
        <ele>99.9</ele>
        <time>2015-05-25T20:10:07.027Z</time>
      </trkpt>
      <trkpt lat="48.83769" lon="2.40066">
        <ele>99.9</ele>
        <time>2015-05-25T20:10:08.036Z</time>
      </trkpt>
      <trkpt lat="48.83772" lon="2.40058">
        <ele>99.9</ele>
        <time>2015-05-25T20:10:09.048Z</time>
      </trkpt>
      <trkpt lat="48.83774" lon="2.4005">
        <ele>99.5</ele>
        <time>2015-05-25T20:10:10.057Z</time>
      </trkpt>
      <trkpt lat="48.83777" lon="2.40043">
        <ele>99.6</ele>
        <time>2015-05-25T20:10:11.072Z</time>
      </trkpt>
      <trkpt lat="48.8378" lon="2.40036">
        <ele>99.9</ele>
        <time>2015-05-25T20:10:12.130Z</time>
      </trkpt>
      <trkpt lat="48.83783" lon="2.40028">
        <ele>99.7</ele>
        <time>2015-05-25T20:10:13.008Z</time>
      </trkpt>
      <trkpt lat="48.83785" lon="2.40022">
        <ele>99.4</ele>
        <time>2015-05-25T20:10:14.008Z</time>
      </trkpt>
      <trkpt lat="48.83788" lon="2.40015">
        <ele>99.3</ele>
        <time>2015-05-25T20:10:15.055Z</time>
      </trkpt>
      <trkpt lat="48.83792" lon="2.40009">
        <ele>99.2</ele>
        <time>2015-05-25T20:10:16.062Z</time>
      </trkpt>
      <trkpt lat="48.83795" lon="2.40004">
        <ele>99.1</ele>
        <time>2015-05-25T20:10:17.085Z</time>
      </trkpt>
      <trkpt lat="48.83798" lon="2.39998">
        <ele>99.3</ele>
        <time>2015-05-25T20:10:18.097Z</time>
      </trkpt>
      <trkpt lat="48.83803" lon="2.39994">
        <ele>99.3</ele>
        <time>2015-05-25T20:10:19.003Z</time>
      </trkpt>
      <trkpt lat="48.83808" lon="2.39991">
        <ele>99</ele>
        <time>2015-05-25T20:10:20.013Z</time>
      </trkpt>
      <trkpt lat="48.83813" lon="2.39981">
        <ele>98.9</ele>
        <time>2015-05-25T20:10:22.061Z</time>
      </trkpt>
      <trkpt lat="48.83815" lon="2.39974">
        <ele>98.7</ele>
        <time>2015-05-25T20:10:23.139Z</time>
      </trkpt>
      <trkpt lat="48.83818" lon="2.39969">
        <ele>98.1</ele>
        <time>2015-05-25T20:10:24.014Z</time>
      </trkpt>
      <trkpt lat="48.8382" lon="2.39963">
        <ele>98.1</ele>
        <time>2015-05-25T20:10:25.019Z</time>
      </trkpt>
      <trkpt lat="48.83823" lon="2.39956">
        <ele>97.8</ele>
        <time>2015-05-25T20:10:26.027Z</time>
      </trkpt>
      <trkpt lat="48.83825" lon="2.39949">
        <ele>97.9</ele>
        <time>2015-05-25T20:10:27.075Z</time>
      </trkpt>
      <trkpt lat="48.83828" lon="2.39941">
        <ele>98.1</ele>
        <time>2015-05-25T20:10:27.987Z</time>
      </trkpt>
      <trkpt lat="48.8383" lon="2.39934">
        <ele>98.4</ele>
        <time>2015-05-25T20:10:29.008Z</time>
      </trkpt>
      <trkpt lat="48.83832" lon="2.39927">
        <ele>99</ele>
        <time>2015-05-25T20:10:30.011Z</time>
      </trkpt>
      <trkpt lat="48.83834" lon="2.3992">
        <ele>99.6</ele>
        <time>2015-05-25T20:10:31.098Z</time>
      </trkpt>
      <trkpt lat="48.83835" lon="2.39911">
        <ele>100.2</ele>
        <time>2015-05-25T20:10:32.084Z</time>
      </trkpt>
      <trkpt lat="48.83836" lon="2.39902">
        <ele>100.5</ele>
        <time>2015-05-25T20:10:33.090Z</time>
      </trkpt>
      <trkpt lat="48.83836" lon="2.39893">
        <ele>100.7</ele>
        <time>2015-05-25T20:10:34.018Z</time>
      </trkpt>
      <trkpt lat="48.83838" lon="2.39886">
        <ele>101.2</ele>
        <time>2015-05-25T20:10:35.069Z</time>
      </trkpt>
      <trkpt lat="48.83839" lon="2.39878">
        <ele>101.7</ele>
        <time>2015-05-25T20:10:36.036Z</time>
      </trkpt>
      <trkpt lat="48.83842" lon="2.39872">
        <ele>101.7</ele>
        <time>2015-05-25T20:10:37.064Z</time>
      </trkpt>
      <trkpt lat="48.83845" lon="2.39865">
        <ele>102</ele>
        <time>2015-05-25T20:10:38.074Z</time>
      </trkpt>
      <trkpt lat="48.83848" lon="2.39859">
        <ele>102.2</ele>
        <time>2015-05-25T20:10:39.084Z</time>
      </trkpt>
      <trkpt lat="48.83851" lon="2.39854">
        <ele>102.6</ele>
        <time>2015-05-25T20:10:40.010Z</time>
      </trkpt>
      <trkpt lat="48.83854" lon="2.39848">
        <ele>103.1</ele>
        <time>2015-05-25T20:10:41.028Z</time>
      </trkpt>
      <trkpt lat="48.8386" lon="2.3984">
        <ele>103.5</ele>
        <time>2015-05-25T20:10:43.050Z</time>
      </trkpt>
      <trkpt lat="48.83862" lon="2.39834">
        <ele>103.9</ele>
        <time>2015-05-25T20:10:44.073Z</time>
      </trkpt>
      <trkpt lat="48.83865" lon="2.39822">
        <ele>104.7</ele>
        <time>2015-05-25T20:10:46.015Z</time>
      </trkpt>
      <trkpt lat="48.83867" lon="2.39816">
        <ele>105.1</ele>
        <time>2015-05-25T20:10:47.020Z</time>
      </trkpt>
      <trkpt lat="48.83869" lon="2.3981">
        <ele>105.3</ele>
        <time>2015-05-25T20:10:48.009Z</time>
      </trkpt>
      <trkpt lat="48.83872" lon="2.39804">
        <ele>105.6</ele>
        <time>2015-05-25T20:10:49.033Z</time>
      </trkpt>
      <trkpt lat="48.83875" lon="2.39797">
        <ele>106</ele>
        <time>2015-05-25T20:10:50.048Z</time>
      </trkpt>
      <trkpt lat="48.83878" lon="2.39791">
        <ele>106.2</ele>
        <time>2015-05-25T20:10:51.061Z</time>
      </trkpt>
      <trkpt lat="48.83882" lon="2.39784">
        <ele>106.5</ele>
        <time>2015-05-25T20:10:51.981Z</time>
      </trkpt>
      <trkpt lat="48.83884" lon="2.39776">
        <ele>107</ele>
        <time>2015-05-25T20:10:53.009Z</time>
      </trkpt>
      <trkpt lat="48.83886" lon="2.39768">
        <ele>107.3</ele>
        <time>2015-05-25T20:10:52.805Z</time>
      </trkpt>
      <trkpt lat="48.83889" lon="2.3976">
        <ele>107.5</ele>
        <time>2015-05-25T20:10:55.070Z</time>
      </trkpt>
      <trkpt lat="48.83891" lon="2.39751">
        <ele>107.8</ele>
        <time>2015-05-25T20:10:56.077Z</time>
      </trkpt>
      <trkpt lat="48.83894" lon="2.39741">
        <ele>108.1</ele>
        <time>2015-05-25T20:10:57.090Z</time>
      </trkpt>
      <trkpt lat="48.83896" lon="2.39732">
        <ele>108.3</ele>
        <time>2015-05-25T20:10:58.011Z</time>
      </trkpt>
      <trkpt lat="48.83898" lon="2.39724">
        <ele>108.6</ele>
        <time>2015-05-25T20:10:59.007Z</time>
      </trkpt>
      <trkpt lat="48.83901" lon="2.39715">
        <ele>108.8</ele>
        <time>2015-05-25T20:11:00.021Z</time>
      </trkpt>
      <trkpt lat="48.83904" lon="2.39707">
        <ele>108.9</ele>
        <time>2015-05-25T20:11:01.066Z</time>
      </trkpt>
      <trkpt lat="48.83907" lon="2.39697">
        <ele>108.3</ele>
        <time>2015-05-25T20:11:02.076Z</time>
      </trkpt>
      <trkpt lat="48.83909" lon="2.39688">
        <ele>108.6</ele>
        <time>2015-05-25T20:11:03.085Z</time>
      </trkpt>
      <trkpt lat="48.83912" lon="2.39681">
        <ele>108.3</ele>
        <time>2015-05-25T20:11:03.971Z</time>
      </trkpt>
      <trkpt lat="48.83915" lon="2.39674">
        <ele>107.8</ele>
        <time>2015-05-25T20:11:05Z</time>
      </trkpt>
      <trkpt lat="48.83919" lon="2.39661">
        <ele>107.1</ele>
        <time>2015-05-25T20:11:07.050Z</time>
      </trkpt>
      <trkpt lat="48.8392" lon="2.39655">
        <ele>106.6</ele>
        <time>2015-05-25T20:11:08.072Z</time>
      </trkpt>
      <trkpt lat="48.83925" lon="2.39644">
        <ele>106.7</ele>
        <time>2015-05-25T20:11:10.092Z</time>
      </trkpt>
      <trkpt lat="48.83925" lon="2.39638">
        <ele>107</ele>
        <time>2015-05-25T20:11:11.115Z</time>
      </trkpt>
      <trkpt lat="48.8393" lon="2.39627">
        <ele>106.7</ele>
        <time>2015-05-25T20:11:14.047Z</time>
      </trkpt>
      <trkpt lat="48.83931" lon="2.39624">
        <ele>106.5</ele>
        <time>2015-05-25T20:11:15.072Z</time>
      </trkpt>
      <trkpt lat="48.83935" lon="2.39612">
        <ele>108.1</ele>
        <time>2015-05-25T20:11:19.012Z</time>
      </trkpt>
      <trkpt lat="48.83937" lon="2.39614">
        <ele>107.3</ele>
        <time>2015-05-25T20:11:20.026Z</time>
      </trkpt>
      <trkpt lat="48.83939" lon="2.3962">
        <ele>106</ele>
        <time>2015-05-25T20:13:31.105Z</time>
      </trkpt>
      <trkpt lat="48.83948" lon="2.39623">
        <ele>105.9</ele>
        <time>2015-05-25T20:13:32.050Z</time>
      </trkpt>
      <trkpt lat="48.83955" lon="2.39616">
        <ele>105.6</ele>
        <time>2015-05-25T20:13:35.102Z</time>
      </trkpt>
      <trkpt lat="48.83957" lon="2.39614">
        <ele>105.8</ele>
        <time>2015-05-25T20:13:36.117Z</time>
      </trkpt>
      <trkpt lat="48.83964" lon="2.39608">
        <ele>105.9</ele>
        <time>2015-05-25T20:13:38.034Z</time>
      </trkpt>
      <trkpt lat="48.83968" lon="2.39604">
        <ele>105.8</ele>
        <time>2015-05-25T20:13:39.100Z</time>
      </trkpt>
      <trkpt lat="48.83974" lon="2.39598">
        <ele>105.4</ele>
        <time>2015-05-25T20:13:41.019Z</time>
      </trkpt>
      <trkpt lat="48.83977" lon="2.39593">
        <ele>105.2</ele>
        <time>2015-05-25T20:13:42.032Z</time>
      </trkpt>
      <trkpt lat="48.8398" lon="2.39582">
        <ele>105.1</ele>
        <time>2015-05-25T20:13:44.057Z</time>
      </trkpt>
      <trkpt lat="48.8398" lon="2.39576">
        <ele>104.9</ele>
        <time>2015-05-25T20:13:45.070Z</time>
      </trkpt>
      <trkpt lat="48.83978" lon="2.39564">
        <ele>105</ele>
        <time>2015-05-25T20:13:47.100Z</time>
      </trkpt>
      <trkpt lat="48.83975" lon="2.39559">
        <ele>105</ele>
        <time>2015-05-25T20:13:48.101Z</time>
      </trkpt>
      <trkpt lat="48.83969" lon="2.39553">
        <ele>104.7</ele>
        <time>2015-05-25T20:13:50.039Z</time>
      </trkpt>
      <trkpt lat="48.83965" lon="2.39551">
        <ele>104.7</ele>
        <time>2015-05-25T20:13:51.101Z</time>
      </trkpt>
      <trkpt lat="48.83958" lon="2.39552">
        <ele>104.1</ele>
        <time>2015-05-25T20:13:53.044Z</time>
      </trkpt>
      <trkpt lat="48.83955" lon="2.39554">
        <ele>104.1</ele>
        <time>2015-05-25T20:13:54.057Z</time>
      </trkpt>
      <trkpt lat="48.83948" lon="2.39563">
        <ele>103.7</ele>
        <time>2015-05-25T20:13:56.075Z</time>
      </trkpt>
      <trkpt lat="48.83947" lon="2.39569">
        <ele>103.1</ele>
        <time>2015-05-25T20:13:57.094Z</time>
      </trkpt>
      <trkpt lat="48.83945" lon="2.39583">
        <ele>103.3</ele>
        <time>2015-05-25T20:13:59.030Z</time>
      </trkpt>
      <trkpt lat="48.83946" lon="2.39589">
        <ele>103.1</ele>
        <time>2015-05-25T20:14:00.118Z</time>
      </trkpt>
      <trkpt lat="48.83951" lon="2.396">
        <ele>102.7</ele>
        <time>2015-05-25T20:14:02.092Z</time>
      </trkpt>
      <trkpt lat="48.83954" lon="2.39603">
        <ele>102.6</ele>
        <time>2015-05-25T20:14:03.126Z</time>
      </trkpt>
      <trkpt lat="48.83958" lon="2.39605">
        <ele>102.6</ele>
        <time>2015-05-25T20:14:04.042Z</time>
      </trkpt>
      <trkpt lat="48.83963" lon="2.39606">
        <ele>102.7</ele>
        <time>2015-05-25T20:14:05.042Z</time>
      </trkpt>
      <trkpt lat="48.83971" lon="2.39602">
        <ele>102.5</ele>
        <time>2015-05-25T20:14:07.062Z</time>
      </trkpt>
      <trkpt lat="48.83975" lon="2.39597">
        <ele>102.4</ele>
        <time>2015-05-25T20:14:08.286Z</time>
      </trkpt>
      <trkpt lat="48.83977" lon="2.39591">
        <ele>102.2</ele>
        <time>2015-05-25T20:14:09.186Z</time>
      </trkpt>
      <trkpt lat="48.83978" lon="2.39584">
        <ele>102.3</ele>
        <time>2015-05-25T20:14:10.119Z</time>
      </trkpt>
      <trkpt lat="48.83978" lon="2.39577">
        <ele>102.4</ele>
        <time>2015-05-25T20:14:11.040Z</time>
      </trkpt>
      <trkpt lat="48.83977" lon="2.3957">
        <ele>102.4</ele>
        <time>2015-05-25T20:14:12.038Z</time>
      </trkpt>
      <trkpt lat="48.83977" lon="2.39564">
        <ele>102.7</ele>
        <time>2015-05-25T20:14:13.059Z</time>
      </trkpt>
      <trkpt lat="48.83977" lon="2.39557">
        <ele>103</ele>
        <time>2015-05-25T20:14:14.068Z</time>
      </trkpt>
      <trkpt lat="48.83977" lon="2.3955">
        <ele>103.1</ele>
        <time>2015-05-25T20:14:15.097Z</time>
      </trkpt>
      <trkpt lat="48.83977" lon="2.39543">
        <ele>103.3</ele>
        <time>2015-05-25T20:14:16.105Z</time>
      </trkpt>
      <trkpt lat="48.83978" lon="2.3953">
        <ele>103.3</ele>
        <time>2015-05-25T20:14:18.112Z</time>
      </trkpt>
      <trkpt lat="48.83978" lon="2.39523">
        <ele>103.4</ele>
        <time>2015-05-25T20:14:19.025Z</time>
      </trkpt>
      <trkpt lat="48.83979" lon="2.39509">
        <ele>103.9</ele>
        <time>2015-05-25T20:14:21.084Z</time>
      </trkpt>
      <trkpt lat="48.8398" lon="2.39503">
        <ele>103.9</ele>
        <time>2015-05-25T20:14:22.002Z</time>
      </trkpt>
      <trkpt lat="48.83982" lon="2.3949">
        <ele>104.2</ele>
        <time>2015-05-25T20:14:24.621Z</time>
      </trkpt>
      <trkpt lat="48.83984" lon="2.39483">
        <ele>103.9</ele>
        <time>2015-05-25T20:14:25.025Z</time>
      </trkpt>
      <trkpt lat="48.83985" lon="2.39477">
        <ele>104.1</ele>
        <time>2015-05-25T20:14:26.035Z</time>
      </trkpt>
      <trkpt lat="48.83987" lon="2.39471">
        <ele>104.1</ele>
        <time>2015-05-25T20:14:27.058Z</time>
      </trkpt>
      <trkpt lat="48.83989" lon="2.39464">
        <ele>104.3</ele>
        <time>2015-05-25T20:14:28.107Z</time>
      </trkpt>
      <trkpt lat="48.83991" lon="2.39458">
        <ele>104.4</ele>
        <time>2015-05-25T20:14:29.110Z</time>
      </trkpt>
      <trkpt lat="48.83993" lon="2.39452">
        <ele>104.4</ele>
        <time>2015-05-25T20:14:30.050Z</time>
      </trkpt>
      <trkpt lat="48.83996" lon="2.39445">
        <ele>105.1</ele>
        <time>2015-05-25T20:14:31.027Z</time>
      </trkpt>
      <trkpt lat="48.83999" lon="2.39433">
        <ele>105.3</ele>
        <time>2015-05-25T20:14:33.096Z</time>
      </trkpt>
      <trkpt lat="48.83999" lon="2.39426">
        <ele>105.4</ele>
        <time>2015-05-25T20:14:34.173Z</time>
      </trkpt>
      <trkpt lat="48.84" lon="2.39418">
        <ele>105.8</ele>
        <time>2015-05-25T20:14:35.018Z</time>
      </trkpt>
      <trkpt lat="48.84002" lon="2.39411">
        <ele>106</ele>
        <time>2015-05-25T20:14:36.026Z</time>
      </trkpt>
      <trkpt lat="48.84004" lon="2.39401">
        <ele>105.9</ele>
        <time>2015-05-25T20:14:37.037Z</time>
      </trkpt>
      <trkpt lat="48.84006" lon="2.39392">
        <ele>106.1</ele>
        <time>2015-05-25T20:14:38.043Z</time>
      </trkpt>
      <trkpt lat="48.84008" lon="2.39382">
        <ele>105.7</ele>
        <time>2015-05-25T20:14:39.069Z</time>
      </trkpt>
      <trkpt lat="48.8401" lon="2.39372">
        <ele>106</ele>
        <time>2015-05-25T20:14:40.072Z</time>
      </trkpt>
      <trkpt lat="48.84011" lon="2.39364">
        <ele>106.1</ele>
        <time>2015-05-25T20:14:41.082Z</time>
      </trkpt>
      <trkpt lat="48.84012" lon="2.39354">
        <ele>106.4</ele>
        <time>2015-05-25T20:14:42.083Z</time>
      </trkpt>
      <trkpt lat="48.84012" lon="2.39344">
        <ele>106.5</ele>
        <time>2015-05-25T20:14:43.102Z</time>
      </trkpt>
      <trkpt lat="48.84013" lon="2.39336">
        <ele>106.7</ele>
        <time>2015-05-25T20:14:44.115Z</time>
      </trkpt>
      <trkpt lat="48.84015" lon="2.3933">
        <ele>106.7</ele>
        <time>2015-05-25T20:14:45.051Z</time>
      </trkpt>
      <trkpt lat="48.84018" lon="2.39324">
        <ele>107</ele>
        <time>2015-05-25T20:14:46.057Z</time>
      </trkpt>
      <trkpt lat="48.84019" lon="2.39317">
        <ele>107.4</ele>
        <time>2015-05-25T20:14:47.078Z</time>
      </trkpt>
      <trkpt lat="48.84021" lon="2.3931">
        <ele>107.8</ele>
        <time>2015-05-25T20:14:48.093Z</time>
      </trkpt>
      <trkpt lat="48.84022" lon="2.39302">
        <ele>108</ele>
        <time>2015-05-25T20:14:49.132Z</time>
      </trkpt>
      <trkpt lat="48.84025" lon="2.39293">
        <ele>108.6</ele>
        <time>2015-05-25T20:14:49.995Z</time>
      </trkpt>
      <trkpt lat="48.84026" lon="2.39285">
        <ele>109</ele>
        <time>2015-05-25T20:14:51.046Z</time>
      </trkpt>
      <trkpt lat="48.84027" lon="2.39276">
        <ele>109.3</ele>
        <time>2015-05-25T20:14:52.054Z</time>
      </trkpt>
      <trkpt lat="48.84028" lon="2.39269">
        <ele>109.6</ele>
        <time>2015-05-25T20:14:53.071Z</time>
      </trkpt>
      <trkpt lat="48.84028" lon="2.3926">
        <ele>109.6</ele>
        <time>2015-05-25T20:14:54.078Z</time>
      </trkpt>
      <trkpt lat="48.84028" lon="2.39251">
        <ele>108.9</ele>
        <time>2015-05-25T20:14:55.089Z</time>
      </trkpt>
      <trkpt lat="48.8403" lon="2.39244">
        <ele>108.8</ele>
        <time>2015-05-25T20:14:56.109Z</time>
      </trkpt>
      <trkpt lat="48.84032" lon="2.39236">
        <ele>108.8</ele>
        <time>2015-05-25T20:14:57.125Z</time>
      </trkpt>
      <trkpt lat="48.84034" lon="2.39227">
        <ele>108.8</ele>
        <time>2015-05-25T20:14:58.021Z</time>
      </trkpt>
      <trkpt lat="48.84036" lon="2.39219">
        <ele>109</ele>
        <time>2015-05-25T20:14:59.045Z</time>
      </trkpt>
      <trkpt lat="48.84038" lon="2.39211">
        <ele>109.1</ele>
        <time>2015-05-25T20:15:00.075Z</time>
      </trkpt>
      <trkpt lat="48.84042" lon="2.39203">
        <ele>109.3</ele>
        <time>2015-05-25T20:15:01.084Z</time>
      </trkpt>
      <trkpt lat="48.84044" lon="2.39195">
        <ele>109.4</ele>
        <time>2015-05-25T20:15:02.099Z</time>
      </trkpt>
      <trkpt lat="48.84047" lon="2.39187">
        <ele>109.4</ele>
        <time>2015-05-25T20:15:03.112Z</time>
      </trkpt>
      <trkpt lat="48.84051" lon="2.39178">
        <ele>109.6</ele>
        <time>2015-05-25T20:15:04.012Z</time>
      </trkpt>
      <trkpt lat="48.84053" lon="2.39169">
        <ele>109.6</ele>
        <time>2015-05-25T20:15:05.019Z</time>
      </trkpt>
      <trkpt lat="48.84056" lon="2.39158">
        <ele>109.8</ele>
        <time>2015-05-25T20:15:06.052Z</time>
      </trkpt>
      <trkpt lat="48.84058" lon="2.39148">
        <ele>109.9</ele>
        <time>2015-05-25T20:15:07.048Z</time>
      </trkpt>
      <trkpt lat="48.8406" lon="2.39139">
        <ele>110</ele>
        <time>2015-05-25T20:15:08.060Z</time>
      </trkpt>
      <trkpt lat="48.84062" lon="2.39129">
        <ele>110</ele>
        <time>2015-05-25T20:15:09.076Z</time>
      </trkpt>
      <trkpt lat="48.84065" lon="2.3912">
        <ele>110.2</ele>
        <time>2015-05-25T20:15:09.987Z</time>
      </trkpt>
      <trkpt lat="48.84064" lon="2.39107">
        <ele>110.5</ele>
        <time>2015-05-25T20:15:11Z</time>
      </trkpt>
      <trkpt lat="48.84066" lon="2.39097">
        <ele>110.5</ele>
        <time>2015-05-25T20:15:11.981Z</time>
      </trkpt>
      <trkpt lat="48.84068" lon="2.39087">
        <ele>110.5</ele>
        <time>2015-05-25T20:15:13.029Z</time>
      </trkpt>
      <trkpt lat="48.84073" lon="2.39079">
        <ele>110.3</ele>
        <time>2015-05-25T20:15:14.033Z</time>
      </trkpt>
      <trkpt lat="48.84077" lon="2.3907">
        <ele>110.2</ele>
        <time>2015-05-25T20:15:15.043Z</time>
      </trkpt>
      <trkpt lat="48.84081" lon="2.39061">
        <ele>110.4</ele>
        <time>2015-05-25T20:15:16.151Z</time>
      </trkpt>
      <trkpt lat="48.84086" lon="2.39052">
        <ele>110.5</ele>
        <time>2015-05-25T20:15:17.002Z</time>
      </trkpt>
      <trkpt lat="48.8409" lon="2.39044">
        <ele>110.6</ele>
        <time>2015-05-25T20:15:18.012Z</time>
      </trkpt>
      <trkpt lat="48.84095" lon="2.39037">
        <ele>110.6</ele>
        <time>2015-05-25T20:15:19.022Z</time>
      </trkpt>
      <trkpt lat="48.84098" lon="2.39029">
        <ele>110.8</ele>
        <time>2015-05-25T20:15:20.026Z</time>
      </trkpt>
      <trkpt lat="48.84099" lon="2.39021">
        <ele>110.8</ele>
        <time>2015-05-25T20:15:21.076Z</time>
      </trkpt>
      <trkpt lat="48.84098" lon="2.39009">
        <ele>110.5</ele>
        <time>2015-05-25T20:15:22.081Z</time>
      </trkpt>
      <trkpt lat="48.84099" lon="2.38999">
        <ele>110.4</ele>
        <time>2015-05-25T20:15:22.979Z</time>
      </trkpt>
      <trkpt lat="48.841" lon="2.38989">
        <ele>110.3</ele>
        <time>2015-05-25T20:15:24.012Z</time>
      </trkpt>
      <trkpt lat="48.84101" lon="2.38979">
        <ele>110.3</ele>
        <time>2015-05-25T20:15:25.025Z</time>
      </trkpt>
      <trkpt lat="48.84102" lon="2.3897">
        <ele>110.3</ele>
        <time>2015-05-25T20:15:26.048Z</time>
      </trkpt>
      <trkpt lat="48.84103" lon="2.38958">
        <ele>110.3</ele>
        <time>2015-05-25T20:15:27.062Z</time>
      </trkpt>
      <trkpt lat="48.84103" lon="2.38946">
        <ele>110.3</ele>
        <time>2015-05-25T20:15:27.987Z</time>
      </trkpt>
      <trkpt lat="48.84104" lon="2.38933">
        <ele>110</ele>
        <time>2015-05-25T20:15:28.969Z</time>
      </trkpt>
      <trkpt lat="48.84106" lon="2.38923">
        <ele>109.9</ele>
        <time>2015-05-25T20:15:29.974Z</time>
      </trkpt>
      <trkpt lat="48.84108" lon="2.38913">
        <ele>109.9</ele>
        <time>2015-05-25T20:15:30.995Z</time>
      </trkpt>
      <trkpt lat="48.8411" lon="2.38904">
        <ele>109.9</ele>
        <time>2015-05-25T20:15:32.017Z</time>
      </trkpt>
      <trkpt lat="48.84113" lon="2.38895">
        <ele>110.1</ele>
        <time>2015-05-25T20:15:33.047Z</time>
      </trkpt>
      <trkpt lat="48.84114" lon="2.38886">
        <ele>110.5</ele>
        <time>2015-05-25T20:15:34.055Z</time>
      </trkpt>
      <trkpt lat="48.84115" lon="2.38877">
        <ele>110.7</ele>
        <time>2015-05-25T20:15:34.984Z</time>
      </trkpt>
      <trkpt lat="48.84118" lon="2.38868">
        <ele>111</ele>
        <time>2015-05-25T20:15:35.972Z</time>
      </trkpt>
      <trkpt lat="48.8412" lon="2.38859">
        <ele>111.2</ele>
        <time>2015-05-25T20:15:36.983Z</time>
      </trkpt>
      <trkpt lat="48.84123" lon="2.38849">
        <ele>111.6</ele>
        <time>2015-05-25T20:15:37.982Z</time>
      </trkpt>
      <trkpt lat="48.84126" lon="2.38841">
        <ele>111.7</ele>
        <time>2015-05-25T20:15:39.007Z</time>
      </trkpt>
      <trkpt lat="48.84127" lon="2.38832">
        <ele>111</ele>
        <time>2015-05-25T20:15:40.010Z</time>
      </trkpt>
      <trkpt lat="48.84129" lon="2.38822">
        <ele>110.2</ele>
        <time>2015-05-25T20:15:40.967Z</time>
      </trkpt>
      <trkpt lat="48.8413" lon="2.38812">
        <ele>109.9</ele>
        <time>2015-05-25T20:15:42Z</time>
      </trkpt>
      <trkpt lat="48.84131" lon="2.38802">
        <ele>110.3</ele>
        <time>2015-05-25T20:15:43.034Z</time>
      </trkpt>
      <trkpt lat="48.84135" lon="2.38794">
        <ele>108.7</ele>
        <time>2015-05-25T20:15:44.036Z</time>
      </trkpt>
      <trkpt lat="48.84138" lon="2.38786">
        <ele>107.8</ele>
        <time>2015-05-25T20:15:45.042Z</time>
      </trkpt>
      <trkpt lat="48.84141" lon="2.38778">
        <ele>106.9</ele>
        <time>2015-05-25T20:15:46.055Z</time>
      </trkpt>
      <trkpt lat="48.84144" lon="2.3877">
        <ele>106</ele>
        <time>2015-05-25T20:15:47.076Z</time>
      </trkpt>
      <trkpt lat="48.84147" lon="2.38762">
        <ele>105.4</ele>
        <time>2015-05-25T20:15:48.080Z</time>
      </trkpt>
      <trkpt lat="48.84149" lon="2.38754">
        <ele>104.7</ele>
        <time>2015-05-25T20:15:49.013Z</time>
      </trkpt>
      <trkpt lat="48.84151" lon="2.38746">
        <ele>103.8</ele>
        <time>2015-05-25T20:15:50.073Z</time>
      </trkpt>
      <trkpt lat="48.84153" lon="2.38738">
        <ele>103.1</ele>
        <time>2015-05-25T20:15:51.112Z</time>
      </trkpt>
      <trkpt lat="48.84154" lon="2.3873">
        <ele>102.6</ele>
        <time>2015-05-25T20:15:52.078Z</time>
      </trkpt>
      <trkpt lat="48.84156" lon="2.38722">
        <ele>102.6</ele>
        <time>2015-05-25T20:15:53.024Z</time>
      </trkpt>
      <trkpt lat="48.84159" lon="2.38714">
        <ele>104.1</ele>
        <time>2015-05-25T20:15:54.039Z</time>
      </trkpt>
      <trkpt lat="48.84161" lon="2.38705">
        <ele>105.1</ele>
        <time>2015-05-25T20:15:55.055Z</time>
      </trkpt>
      <trkpt lat="48.84164" lon="2.38697">
        <ele>105.9</ele>
        <time>2015-05-25T20:15:56.061Z</time>
      </trkpt>
      <trkpt lat="48.84167" lon="2.38691">
        <ele>106</ele>
        <time>2015-05-25T20:15:57.093Z</time>
      </trkpt>
      <trkpt lat="48.8417" lon="2.38685">
        <ele>106.2</ele>
        <time>2015-05-25T20:15:58.085Z</time>
      </trkpt>
      <trkpt lat="48.84173" lon="2.38677">
        <ele>106.5</ele>
        <time>2015-05-25T20:15:59.091Z</time>
      </trkpt>
      <trkpt lat="48.84176" lon="2.3867">
        <ele>106.6</ele>
        <time>2015-05-25T20:16:00.102Z</time>
      </trkpt>
      <trkpt lat="48.8418" lon="2.38662">
        <ele>106.8</ele>
        <time>2015-05-25T20:16:01.061Z</time>
      </trkpt>
      <trkpt lat="48.84184" lon="2.38656">
        <ele>106.8</ele>
        <time>2015-05-25T20:16:02.081Z</time>
      </trkpt>
      <trkpt lat="48.84187" lon="2.38649">
        <ele>106.7</ele>
        <time>2015-05-25T20:16:03.101Z</time>
      </trkpt>
      <trkpt lat="48.84191" lon="2.38644">
        <ele>106.5</ele>
        <time>2015-05-25T20:16:04.016Z</time>
      </trkpt>
      <trkpt lat="48.84194" lon="2.38638">
        <ele>106.4</ele>
        <time>2015-05-25T20:16:05.029Z</time>
      </trkpt>
      <trkpt lat="48.84196" lon="2.38631">
        <ele>106.3</ele>
        <time>2015-05-25T20:16:06.042Z</time>
      </trkpt>
      <trkpt lat="48.84198" lon="2.38624">
        <ele>106.1</ele>
        <time>2015-05-25T20:16:07.073Z</time>
      </trkpt>
      <trkpt lat="48.84201" lon="2.38618">
        <ele>106.1</ele>
        <time>2015-05-25T20:16:08.080Z</time>
      </trkpt>
      <trkpt lat="48.84204" lon="2.38612">
        <ele>106.2</ele>
        <time>2015-05-25T20:16:09.101Z</time>
      </trkpt>
      <trkpt lat="48.84208" lon="2.38606">
        <ele>106.3</ele>
        <time>2015-05-25T20:16:09.999Z</time>
      </trkpt>
      <trkpt lat="48.84213" lon="2.386">
        <ele>106.3</ele>
        <time>2015-05-25T20:16:11.015Z</time>
      </trkpt>
      <trkpt lat="48.84217" lon="2.38592">
        <ele>105.7</ele>
        <time>2015-05-25T20:16:12.028Z</time>
      </trkpt>
      <trkpt lat="48.84221" lon="2.38585">
        <ele>105.3</ele>
        <time>2015-05-25T20:16:13.065Z</time>
      </trkpt>
      <trkpt lat="48.84224" lon="2.3858">
        <ele>105.1</ele>
        <time>2015-05-25T20:16:14.078Z</time>
      </trkpt>
      <trkpt lat="48.84228" lon="2.38573">
        <ele>105.1</ele>
        <time>2015-05-25T20:16:15.090Z</time>
      </trkpt>
      <trkpt lat="48.84232" lon="2.38568">
        <ele>105.4</ele>
        <time>2015-05-25T20:16:16.173Z</time>
      </trkpt>
      <trkpt lat="48.84237" lon="2.38563">
        <ele>105.7</ele>
        <time>2015-05-25T20:16:16.999Z</time>
      </trkpt>
      <trkpt lat="48.84242" lon="2.38558">
        <ele>105.7</ele>
        <time>2015-05-25T20:16:18.010Z</time>
      </trkpt>
      <trkpt lat="48.84246" lon="2.38554">
        <ele>106.2</ele>
        <time>2015-05-25T20:16:19.017Z</time>
      </trkpt>
      <trkpt lat="48.8425" lon="2.3855">
        <ele>106.4</ele>
        <time>2015-05-25T20:16:20.025Z</time>
      </trkpt>
      <trkpt lat="48.84253" lon="2.38543">
        <ele>106.5</ele>
        <time>2015-05-25T20:16:21.039Z</time>
      </trkpt>
      <trkpt lat="48.84251" lon="2.38534">
        <ele>105.8</ele>
        <time>2015-05-25T20:16:22.037Z</time>
      </trkpt>
      <trkpt lat="48.84251" lon="2.38525">
        <ele>105.5</ele>
        <time>2015-05-25T20:16:23.054Z</time>
      </trkpt>
      <trkpt lat="48.84252" lon="2.38518">
        <ele>105.2</ele>
        <time>2015-05-25T20:16:24.063Z</time>
      </trkpt>
      <trkpt lat="48.84254" lon="2.38511">
        <ele>105.1</ele>
        <time>2015-05-25T20:16:25.075Z</time>
      </trkpt>
      <trkpt lat="48.84256" lon="2.38505">
        <ele>105.7</ele>
        <time>2015-05-25T20:16:26.001Z</time>
      </trkpt>
      <trkpt lat="48.84259" lon="2.38499">
        <ele>106.5</ele>
        <time>2015-05-25T20:16:27.057Z</time>
      </trkpt>
      <trkpt lat="48.84262" lon="2.38494">
        <ele>106.9</ele>
        <time>2015-05-25T20:16:28.062Z</time>
      </trkpt>
      <trkpt lat="48.84266" lon="2.38489">
        <ele>107.2</ele>
        <time>2015-05-25T20:16:28.976Z</time>
      </trkpt>
      <trkpt lat="48.8427" lon="2.38483">
        <ele>107.4</ele>
        <time>2015-05-25T20:16:30.002Z</time>
      </trkpt>
      <trkpt lat="48.84273" lon="2.38477">
        <ele>107.6</ele>
        <time>2015-05-25T20:16:31.004Z</time>
      </trkpt>
      <trkpt lat="48.84277" lon="2.38471">
        <ele>107.5</ele>
        <time>2015-05-25T20:16:32.015Z</time>
      </trkpt>
      <trkpt lat="48.84281" lon="2.38466">
        <ele>107.6</ele>
        <time>2015-05-25T20:16:33.058Z</time>
      </trkpt>
      <trkpt lat="48.84285" lon="2.38461">
        <ele>107.9</ele>
        <time>2015-05-25T20:16:34.065Z</time>
      </trkpt>
      <trkpt lat="48.84291" lon="2.38457">
        <ele>108.2</ele>
        <time>2015-05-25T20:16:35.074Z</time>
      </trkpt>
      <trkpt lat="48.84295" lon="2.3845">
        <ele>108.2</ele>
        <time>2015-05-25T20:16:36.077Z</time>
      </trkpt>
      <trkpt lat="48.84298" lon="2.38444">
        <ele>108.3</ele>
        <time>2015-05-25T20:16:37.087Z</time>
      </trkpt>
      <trkpt lat="48.84302" lon="2.38438">
        <ele>108.8</ele>
        <time>2015-05-25T20:16:38.093Z</time>
      </trkpt>
      <trkpt lat="48.84307" lon="2.38433">
        <ele>109.4</ele>
        <time>2015-05-25T20:16:39.112Z</time>
      </trkpt>
      <trkpt lat="48.84311" lon="2.38428">
        <ele>109.8</ele>
        <time>2015-05-25T20:16:40.011Z</time>
      </trkpt>
      <trkpt lat="48.84314" lon="2.38422">
        <ele>110.1</ele>
        <time>2015-05-25T20:16:41.013Z</time>
      </trkpt>
      <trkpt lat="48.84317" lon="2.38416">
        <ele>110.3</ele>
        <time>2015-05-25T20:16:42.028Z</time>
      </trkpt>
      <trkpt lat="48.84319" lon="2.38409">
        <ele>110.8</ele>
        <time>2015-05-25T20:16:43.029Z</time>
      </trkpt>
      <trkpt lat="48.84321" lon="2.38403">
        <ele>111.2</ele>
        <time>2015-05-25T20:16:44.046Z</time>
      </trkpt>
      <trkpt lat="48.84322" lon="2.38394">
        <ele>111.1</ele>
        <time>2015-05-25T20:16:45.073Z</time>
      </trkpt>
      <trkpt lat="48.84321" lon="2.38386">
        <ele>110.9</ele>
        <time>2015-05-25T20:16:46.084Z</time>
      </trkpt>
      <trkpt lat="48.84323" lon="2.38373">
        <ele>111.7</ele>
        <time>2015-05-25T20:16:48.012Z</time>
      </trkpt>
      <trkpt lat="48.84325" lon="2.38368">
        <ele>112.4</ele>
        <time>2015-05-25T20:16:49.116Z</time>
      </trkpt>
      <trkpt lat="48.84328" lon="2.38358">
        <ele>113.7</ele>
        <time>2015-05-25T20:16:51.070Z</time>
      </trkpt>
      <trkpt lat="48.84331" lon="2.38353">
        <ele>114</ele>
        <time>2015-05-25T20:16:52.054Z</time>
      </trkpt>
      <trkpt lat="48.84337" lon="2.38346">
        <ele>113.8</ele>
        <time>2015-05-25T20:16:54.029Z</time>
      </trkpt>
      <trkpt lat="48.8434" lon="2.38342">
        <ele>113.9</ele>
        <time>2015-05-25T20:16:55.055Z</time>
      </trkpt>
      <trkpt lat="48.84346" lon="2.38333">
        <ele>113.7</ele>
        <time>2015-05-25T20:16:57.086Z</time>
      </trkpt>
      <trkpt lat="48.84349" lon="2.38329">
        <ele>113.6</ele>
        <time>2015-05-25T20:16:58.094Z</time>
      </trkpt>
      <trkpt lat="48.84353" lon="2.3832">
        <ele>113.3</ele>
        <time>2015-05-25T20:17:00.054Z</time>
      </trkpt>
      <trkpt lat="48.84356" lon="2.38316">
        <ele>113.5</ele>
        <time>2015-05-25T20:17:01.041Z</time>
      </trkpt>
      <trkpt lat="48.84361" lon="2.38305">
        <ele>114.3</ele>
        <time>2015-05-25T20:17:03.067Z</time>
      </trkpt>
      <trkpt lat="48.84364" lon="2.383">
        <ele>114.4</ele>
        <time>2015-05-25T20:17:04.075Z</time>
      </trkpt>
      <trkpt lat="48.84368" lon="2.38295">
        <ele>114.4</ele>
        <time>2015-05-25T20:17:05.085Z</time>
      </trkpt>
      <trkpt lat="48.84371" lon="2.3829">
        <ele>114.5</ele>
        <time>2015-05-25T20:17:06.013Z</time>
      </trkpt>
      <trkpt lat="48.84375" lon="2.3828">
        <ele>114.3</ele>
        <time>2015-05-25T20:17:07.993Z</time>
      </trkpt>
      <trkpt lat="48.84377" lon="2.38274">
        <ele>114.2</ele>
        <time>2015-05-25T20:17:09.093Z</time>
      </trkpt>
      <trkpt lat="48.84383" lon="2.38265">
        <ele>114.3</ele>
        <time>2015-05-25T20:17:11.024Z</time>
      </trkpt>
      <trkpt lat="48.84387" lon="2.38261">
        <ele>114.3</ele>
        <time>2015-05-25T20:17:12.043Z</time>
      </trkpt>
      <trkpt lat="48.84391" lon="2.38256">
        <ele>114.6</ele>
        <time>2015-05-25T20:17:13.078Z</time>
      </trkpt>
      <trkpt lat="48.84395" lon="2.38251">
        <ele>114.7</ele>
        <time>2015-05-25T20:17:14.084Z</time>
      </trkpt>
      <trkpt lat="48.84399" lon="2.38241">
        <ele>114.9</ele>
        <time>2015-05-25T20:17:16Z</time>
      </trkpt>
      <trkpt lat="48.84401" lon="2.38237">
        <ele>115</ele>
        <time>2015-05-25T20:17:17.038Z</time>
      </trkpt>
      <trkpt lat="48.84402" lon="2.38231">
        <ele>114.7</ele>
        <time>2015-05-25T20:17:18.067Z</time>
      </trkpt>
      <trkpt lat="48.84399" lon="2.38221">
        <ele>113.7</ele>
        <time>2015-05-25T20:17:19.087Z</time>
      </trkpt>
      <trkpt lat="48.84399" lon="2.38213">
        <ele>113.3</ele>
        <time>2015-05-25T20:17:20.017Z</time>
      </trkpt>
      <trkpt lat="48.844" lon="2.38205">
        <ele>113</ele>
        <time>2015-05-25T20:17:21.142Z</time>
      </trkpt>
      <trkpt lat="48.84403" lon="2.382">
        <ele>112.8</ele>
        <time>2015-05-25T20:17:22.004Z</time>
      </trkpt>
      <trkpt lat="48.84405" lon="2.38194">
        <ele>112.9</ele>
        <time>2015-05-25T20:17:23.013Z</time>
      </trkpt>
      <trkpt lat="48.84406" lon="2.38186">
        <ele>113.7</ele>
        <time>2015-05-25T20:17:24.037Z</time>
      </trkpt>
      <trkpt lat="48.84407" lon="2.3818">
        <ele>114.5</ele>
        <time>2015-05-25T20:17:25.038Z</time>
      </trkpt>
      <trkpt lat="48.84412" lon="2.38168">
        <ele>115.5</ele>
        <time>2015-05-25T20:17:27.112Z</time>
      </trkpt>
      <trkpt lat="48.84415" lon="2.38162">
        <ele>115.5</ele>
        <time>2015-05-25T20:17:28.131Z</time>
      </trkpt>
      <trkpt lat="48.84418" lon="2.38157">
        <ele>115.5</ele>
        <time>2015-05-25T20:17:29.082Z</time>
      </trkpt>
      <trkpt lat="48.84421" lon="2.38152">
        <ele>115.2</ele>
        <time>2015-05-25T20:17:30.088Z</time>
      </trkpt>
      <trkpt lat="48.84427" lon="2.38144">
        <ele>113.3</ele>
        <time>2015-05-25T20:17:32.025Z</time>
      </trkpt>
      <trkpt lat="48.84428" lon="2.38141">
        <ele>113.2</ele>
        <time>2015-05-25T20:17:33.101Z</time>
      </trkpt>
      <trkpt lat="48.84434" lon="2.38134">
        <ele>113.3</ele>
        <time>2015-05-25T20:17:36.031Z</time>
      </trkpt>
      <trkpt lat="48.84436" lon="2.38132">
        <ele>113.2</ele>
        <time>2015-05-25T20:17:37.036Z</time>
      </trkpt>
      <trkpt lat="48.84442" lon="2.38121">
        <ele>113.1</ele>
        <time>2015-05-25T20:17:40.114Z</time>
      </trkpt>
      <trkpt lat="48.84444" lon="2.38119">
        <ele>113.1</ele>
        <time>2015-05-25T20:17:41.083Z</time>
      </trkpt>
      <trkpt lat="48.8445" lon="2.38112">
        <ele>111.8</ele>
        <time>2015-05-25T20:17:43.015Z</time>
      </trkpt>
      <trkpt lat="48.84453" lon="2.38106">
        <ele>110.7</ele>
        <time>2015-05-25T20:17:44.023Z</time>
      </trkpt>
      <trkpt lat="48.84459" lon="2.38095">
        <ele>109.8</ele>
        <time>2015-05-25T20:17:45.997Z</time>
      </trkpt>
      <trkpt lat="48.84461" lon="2.38091">
        <ele>109.7</ele>
        <time>2015-05-25T20:17:47.020Z</time>
      </trkpt>
      <trkpt lat="48.84466" lon="2.3808">
        <ele>109.2</ele>
        <time>2015-05-25T20:17:49.041Z</time>
      </trkpt>
      <trkpt lat="48.84469" lon="2.38074">
        <ele>108.4</ele>
        <time>2015-05-25T20:17:50.063Z</time>
      </trkpt>
      <trkpt lat="48.84474" lon="2.38064">
        <ele>107.1</ele>
        <time>2015-05-25T20:17:52.083Z</time>
      </trkpt>
      <trkpt lat="48.84476" lon="2.38058">
        <ele>106.5</ele>
        <time>2015-05-25T20:17:53.061Z</time>
      </trkpt>
      <trkpt lat="48.84481" lon="2.38048">
        <ele>105.6</ele>
        <time>2015-05-25T20:17:55.043Z</time>
      </trkpt>
      <trkpt lat="48.84484" lon="2.38043">
        <ele>105.6</ele>
        <time>2015-05-25T20:17:56.061Z</time>
      </trkpt>
      <trkpt lat="48.8449" lon="2.38035">
        <ele>105.6</ele>
        <time>2015-05-25T20:17:58.093Z</time>
      </trkpt>
      <trkpt lat="48.84493" lon="2.3803">
        <ele>105.7</ele>
        <time>2015-05-25T20:17:59.052Z</time>
      </trkpt>
      <trkpt lat="48.84499" lon="2.38021">
        <ele>105.4</ele>
        <time>2015-05-25T20:18:01.029Z</time>
      </trkpt>
      <trkpt lat="48.84503" lon="2.38017">
        <ele>105.6</ele>
        <time>2015-05-25T20:18:02.047Z</time>
      </trkpt>
      <trkpt lat="48.84509" lon="2.38009">
        <ele>106.1</ele>
        <time>2015-05-25T20:18:04.070Z</time>
      </trkpt>
      <trkpt lat="48.84512" lon="2.38007">
        <ele>106.2</ele>
        <time>2015-05-25T20:18:05.089Z</time>
      </trkpt>
      <trkpt lat="48.84518" lon="2.37998">
        <ele>106.8</ele>
        <time>2015-05-25T20:18:07.024Z</time>
      </trkpt>
      <trkpt lat="48.8452" lon="2.37994">
        <ele>107.3</ele>
        <time>2015-05-25T20:18:08.084Z</time>
      </trkpt>
      <trkpt lat="48.84525" lon="2.37983">
        <ele>108</ele>
        <time>2015-05-25T20:18:10.064Z</time>
      </trkpt>
      <trkpt lat="48.84527" lon="2.37976">
        <ele>108</ele>
        <time>2015-05-25T20:18:11.076Z</time>
      </trkpt>
      <trkpt lat="48.8453" lon="2.37969">
        <ele>107.4</ele>
        <time>2015-05-25T20:18:12.015Z</time>
      </trkpt>
      <trkpt lat="48.84532" lon="2.37963">
        <ele>107.8</ele>
        <time>2015-05-25T20:18:13.014Z</time>
      </trkpt>
      <trkpt lat="48.84534" lon="2.37957">
        <ele>107.9</ele>
        <time>2015-05-25T20:18:14.036Z</time>
      </trkpt>
      <trkpt lat="48.84536" lon="2.3795">
        <ele>108.2</ele>
        <time>2015-05-25T20:18:15.076Z</time>
      </trkpt>
      <trkpt lat="48.84539" lon="2.37943">
        <ele>108.6</ele>
        <time>2015-05-25T20:18:16.094Z</time>
      </trkpt>
      <trkpt lat="48.84541" lon="2.37937">
        <ele>108.9</ele>
        <time>2015-05-25T20:18:16.987Z</time>
      </trkpt>
      <trkpt lat="48.84544" lon="2.3793">
        <ele>109.3</ele>
        <time>2015-05-25T20:18:18.009Z</time>
      </trkpt>
      <trkpt lat="48.84546" lon="2.37924">
        <ele>109.2</ele>
        <time>2015-05-25T20:18:19.021Z</time>
      </trkpt>
      <trkpt lat="48.8455" lon="2.37913">
        <ele>109.2</ele>
        <time>2015-05-25T20:18:21.120Z</time>
      </trkpt>
      <trkpt lat="48.84553" lon="2.37908">
        <ele>109.5</ele>
        <time>2015-05-25T20:18:22.051Z</time>
      </trkpt>
      <trkpt lat="48.84557" lon="2.37903">
        <ele>110</ele>
        <time>2015-05-25T20:18:23.052Z</time>
      </trkpt>
      <trkpt lat="48.8456" lon="2.37899">
        <ele>110.2</ele>
        <time>2015-05-25T20:18:24.066Z</time>
      </trkpt>
      <trkpt lat="48.84566" lon="2.3789">
        <ele>110.8</ele>
        <time>2015-05-25T20:18:26.085Z</time>
      </trkpt>
      <trkpt lat="48.8457" lon="2.37888">
        <ele>111.2</ele>
        <time>2015-05-25T20:18:27.086Z</time>
      </trkpt>
      <trkpt lat="48.84576" lon="2.37883">
        <ele>111.7</ele>
        <time>2015-05-25T20:18:29.035Z</time>
      </trkpt>
      <trkpt lat="48.84578" lon="2.37879">
        <ele>111.8</ele>
        <time>2015-05-25T20:18:30.018Z</time>
      </trkpt>
      <trkpt lat="48.84582" lon="2.37873">
        <ele>109.8</ele>
        <time>2015-05-25T20:18:31.074Z</time>
      </trkpt>
      <trkpt lat="48.84586" lon="2.37867">
        <ele>107.8</ele>
        <time>2015-05-25T20:18:32.079Z</time>
      </trkpt>
      <trkpt lat="48.8459" lon="2.37861">
        <ele>106</ele>
        <time>2015-05-25T20:18:33.087Z</time>
      </trkpt>
      <trkpt lat="48.84592" lon="2.37854">
        <ele>104.6</ele>
        <time>2015-05-25T20:18:34.092Z</time>
      </trkpt>
      <trkpt lat="48.84594" lon="2.37848">
        <ele>103.6</ele>
        <time>2015-05-25T20:18:35.013Z</time>
      </trkpt>
      <trkpt lat="48.84596" lon="2.37841">
        <ele>102.8</ele>
        <time>2015-05-25T20:18:36.007Z</time>
      </trkpt>
      <trkpt lat="48.84599" lon="2.37835">
        <ele>102.3</ele>
        <time>2015-05-25T20:18:37.012Z</time>
      </trkpt>
      <trkpt lat="48.84601" lon="2.37828">
        <ele>101.9</ele>
        <time>2015-05-25T20:18:38.026Z</time>
      </trkpt>
      <trkpt lat="48.84603" lon="2.37816">
        <ele>100.6</ele>
        <time>2015-05-25T20:18:40.071Z</time>
      </trkpt>
      <trkpt lat="48.84605" lon="2.3781">
        <ele>100.6</ele>
        <time>2015-05-25T20:18:41.100Z</time>
      </trkpt>
      <trkpt lat="48.84606" lon="2.37798">
        <ele>101</ele>
        <time>2015-05-25T20:18:43.037Z</time>
      </trkpt>
      <trkpt lat="48.84607" lon="2.37794">
        <ele>101.2</ele>
        <time>2015-05-25T20:18:44.057Z</time>
      </trkpt>
      <trkpt lat="48.84611" lon="2.37786">
        <ele>101.4</ele>
        <time>2015-05-25T20:18:46.001Z</time>
      </trkpt>
      <trkpt lat="48.84614" lon="2.37782">
        <ele>101.1</ele>
        <time>2015-05-25T20:18:47.025Z</time>
      </trkpt>
      <trkpt lat="48.84618" lon="2.37776">
        <ele>100.3</ele>
        <time>2015-05-25T20:18:49.055Z</time>
      </trkpt>
      <trkpt lat="48.8462" lon="2.37773">
        <ele>100.1</ele>
        <time>2015-05-25T20:18:50.062Z</time>
      </trkpt>
      <trkpt lat="48.84624" lon="2.37761">
        <ele>100.8</ele>
        <time>2015-05-25T20:18:53.114Z</time>
      </trkpt>
      <trkpt lat="48.84625" lon="2.37757">
        <ele>101.3</ele>
        <time>2015-05-25T20:18:54.045Z</time>
      </trkpt>
      <trkpt lat="48.84627" lon="2.37748">
        <ele>102.6</ele>
        <time>2015-05-25T20:18:56.025Z</time>
      </trkpt>
      <trkpt lat="48.84628" lon="2.37742">
        <ele>102.8</ele>
        <time>2015-05-25T20:18:57.095Z</time>
      </trkpt>
      <trkpt lat="48.8463" lon="2.37731">
        <ele>103.9</ele>
        <time>2015-05-25T20:18:59.020Z</time>
      </trkpt>
      <trkpt lat="48.84631" lon="2.37726">
        <ele>104.1</ele>
        <time>2015-05-25T20:19:00.118Z</time>
      </trkpt>
      <trkpt lat="48.84633" lon="2.37718">
        <ele>105</ele>
        <time>2015-05-25T20:19:02.058Z</time>
      </trkpt>
      <trkpt lat="48.84634" lon="2.37714">
        <ele>105.4</ele>
        <time>2015-05-25T20:19:03.068Z</time>
      </trkpt>
      <trkpt lat="48.84639" lon="2.37703">
        <ele>106.8</ele>
        <time>2015-05-25T20:19:05.083Z</time>
      </trkpt>
      <trkpt lat="48.84641" lon="2.37698">
        <ele>107.5</ele>
        <time>2015-05-25T20:19:06.092Z</time>
      </trkpt>
      <trkpt lat="48.84645" lon="2.37688">
        <ele>109.1</ele>
        <time>2015-05-25T20:19:08.018Z</time>
      </trkpt>
      <trkpt lat="48.84647" lon="2.37684">
        <ele>109.7</ele>
        <time>2015-05-25T20:19:09.095Z</time>
      </trkpt>
      <trkpt lat="48.84653" lon="2.37675">
        <ele>110.7</ele>
        <time>2015-05-25T20:19:11.022Z</time>
      </trkpt>
      <trkpt lat="48.84655" lon="2.3767">
        <ele>111.1</ele>
        <time>2015-05-25T20:19:12.043Z</time>
      </trkpt>
      <trkpt lat="48.8466" lon="2.37659">
        <ele>111.3</ele>
        <time>2015-05-25T20:19:14.079Z</time>
      </trkpt>
      <trkpt lat="48.84662" lon="2.37653">
        <ele>111.5</ele>
        <time>2015-05-25T20:19:15.097Z</time>
      </trkpt>
      <trkpt lat="48.84664" lon="2.37648">
        <ele>111.8</ele>
        <time>2015-05-25T20:19:16.036Z</time>
      </trkpt>
      <trkpt lat="48.84668" lon="2.37643">
        <ele>111.9</ele>
        <time>2015-05-25T20:19:17.037Z</time>
      </trkpt>
      <trkpt lat="48.84674" lon="2.37636">
        <ele>112.3</ele>
        <time>2015-05-25T20:19:19.070Z</time>
      </trkpt>
      <trkpt lat="48.84677" lon="2.37632">
        <ele>112.5</ele>
        <time>2015-05-25T20:19:20.033Z</time>
      </trkpt>
      <trkpt lat="48.84682" lon="2.37625">
        <ele>112.7</ele>
        <time>2015-05-25T20:19:22.089Z</time>
      </trkpt>
      <trkpt lat="48.84685" lon="2.37621">
        <ele>112.6</ele>
        <time>2015-05-25T20:19:23.106Z</time>
      </trkpt>
      <trkpt lat="48.84688" lon="2.37617">
        <ele>112.6</ele>
        <time>2015-05-25T20:19:24.059Z</time>
      </trkpt>
      <trkpt lat="48.84691" lon="2.37612">
        <ele>112.8</ele>
        <time>2015-05-25T20:19:25.061Z</time>
      </trkpt>
      <trkpt lat="48.84695" lon="2.37603">
        <ele>112.9</ele>
        <time>2015-05-25T20:19:27.088Z</time>
      </trkpt>
      <trkpt lat="48.84698" lon="2.37597">
        <ele>112.9</ele>
        <time>2015-05-25T20:19:28.101Z</time>
      </trkpt>
      <trkpt lat="48.84699" lon="2.3759">
        <ele>113</ele>
        <time>2015-05-25T20:19:29.019Z</time>
      </trkpt>
      <trkpt lat="48.84701" lon="2.37584">
        <ele>112.9</ele>
        <time>2015-05-25T20:19:30.014Z</time>
      </trkpt>
      <trkpt lat="48.84704" lon="2.37578">
        <ele>113.1</ele>
        <time>2015-05-25T20:19:31.062Z</time>
      </trkpt>
      <trkpt lat="48.84706" lon="2.37571">
        <ele>113.3</ele>
        <time>2015-05-25T20:19:32.071Z</time>
      </trkpt>
      <trkpt lat="48.84707" lon="2.37565">
        <ele>113.2</ele>
        <time>2015-05-25T20:19:33.083Z</time>
      </trkpt>
      <trkpt lat="48.84708" lon="2.37558">
        <ele>113.1</ele>
        <time>2015-05-25T20:19:34.099Z</time>
      </trkpt>
      <trkpt lat="48.84709" lon="2.37551">
        <ele>113</ele>
        <time>2015-05-25T20:19:35.127Z</time>
      </trkpt>
      <trkpt lat="48.84711" lon="2.37544">
        <ele>112.9</ele>
        <time>2015-05-25T20:19:36.031Z</time>
      </trkpt>
      <trkpt lat="48.84714" lon="2.37533">
        <ele>113</ele>
        <time>2015-05-25T20:19:37.356Z</time>
      </trkpt>
      <trkpt lat="48.84715" lon="2.37529">
        <ele>113.3</ele>
        <time>2015-05-25T20:19:39.117Z</time>
      </trkpt>
      <trkpt lat="48.84719" lon="2.3752">
        <ele>114.9</ele>
        <time>2015-05-25T20:19:43.100Z</time>
      </trkpt>
      <trkpt lat="48.8472" lon="2.37518">
        <ele>115.3</ele>
        <time>2015-05-25T20:19:44.076Z</time>
      </trkpt>
      <trkpt lat="48.84728" lon="2.3751">
        <ele>115.2</ele>
        <time>2015-05-25T20:19:47.050Z</time>
      </trkpt>
      <trkpt lat="48.84731" lon="2.37507">
        <ele>115.1</ele>
        <time>2015-05-25T20:19:48.030Z</time>
      </trkpt>
      <trkpt lat="48.84736" lon="2.375">
        <ele>115.1</ele>
        <time>2015-05-25T20:19:50.877Z</time>
      </trkpt>
      <trkpt lat="48.84738" lon="2.37496">
        <ele>115.1</ele>
        <time>2015-05-25T20:19:51.100Z</time>
      </trkpt>
      <trkpt lat="48.84743" lon="2.37491">
        <ele>115</ele>
        <time>2015-05-25T20:19:53.022Z</time>
      </trkpt>
      <trkpt lat="48.84745" lon="2.37487">
        <ele>114.9</ele>
        <time>2015-05-25T20:19:54.021Z</time>
      </trkpt>
      <trkpt lat="48.84749" lon="2.37483">
        <ele>114.9</ele>
        <time>2015-05-25T20:19:55.024Z</time>
      </trkpt>
      <trkpt lat="48.84754" lon="2.37479">
        <ele>114.7</ele>
        <time>2015-05-25T20:19:56.043Z</time>
      </trkpt>
      <trkpt lat="48.84759" lon="2.37475">
        <ele>114.5</ele>
        <time>2015-05-25T20:19:57.052Z</time>
      </trkpt>
      <trkpt lat="48.84764" lon="2.3747">
        <ele>114.3</ele>
        <time>2015-05-25T20:19:58.055Z</time>
      </trkpt>
      <trkpt lat="48.84769" lon="2.37465">
        <ele>114.4</ele>
        <time>2015-05-25T20:19:59.084Z</time>
      </trkpt>
      <trkpt lat="48.84773" lon="2.3746">
        <ele>114.3</ele>
        <time>2015-05-25T20:20:00.103Z</time>
      </trkpt>
      <trkpt lat="48.84778" lon="2.37455">
        <ele>114.2</ele>
        <time>2015-05-25T20:20:01.091Z</time>
      </trkpt>
      <trkpt lat="48.84783" lon="2.37451">
        <ele>114.3</ele>
        <time>2015-05-25T20:20:02.010Z</time>
      </trkpt>
      <trkpt lat="48.84788" lon="2.37448">
        <ele>114.5</ele>
        <time>2015-05-25T20:20:03.125Z</time>
      </trkpt>
      <trkpt lat="48.84793" lon="2.37445">
        <ele>114.4</ele>
        <time>2015-05-25T20:20:03.978Z</time>
      </trkpt>
      <trkpt lat="48.848" lon="2.37437">
        <ele>113.2</ele>
        <time>2015-05-25T20:20:06Z</time>
      </trkpt>
      <trkpt lat="48.84799" lon="2.37429">
        <ele>111.7</ele>
        <time>2015-05-25T20:20:07.014Z</time>
      </trkpt>
      <trkpt lat="48.84797" lon="2.37419">
        <ele>110.2</ele>
        <time>2015-05-25T20:20:08.025Z</time>
      </trkpt>
      <trkpt lat="48.84796" lon="2.37411">
        <ele>109.5</ele>
        <time>2015-05-25T20:20:09.059Z</time>
      </trkpt>
      <trkpt lat="48.848" lon="2.37401">
        <ele>110</ele>
        <time>2015-05-25T20:20:11.074Z</time>
      </trkpt>
      <trkpt lat="48.84801" lon="2.37397">
        <ele>110.3</ele>
        <time>2015-05-25T20:20:12.081Z</time>
      </trkpt>
      <trkpt lat="48.84804" lon="2.37386">
        <ele>111.4</ele>
        <time>2015-05-25T20:20:14.017Z</time>
      </trkpt>
      <trkpt lat="48.84806" lon="2.37381">
        <ele>111.7</ele>
        <time>2015-05-25T20:20:15.086Z</time>
      </trkpt>
      <trkpt lat="48.84809" lon="2.37374">
        <ele>111.7</ele>
        <time>2015-05-25T20:20:16.101Z</time>
      </trkpt>
      <trkpt lat="48.84811" lon="2.37367">
        <ele>111.7</ele>
        <time>2015-05-25T20:20:17.167Z</time>
      </trkpt>
      <trkpt lat="48.84815" lon="2.3736">
        <ele>111.9</ele>
        <time>2015-05-25T20:20:18.017Z</time>
      </trkpt>
      <trkpt lat="48.84817" lon="2.37353">
        <ele>112.1</ele>
        <time>2015-05-25T20:20:19.045Z</time>
      </trkpt>
      <trkpt lat="48.84819" lon="2.37346">
        <ele>112.4</ele>
        <time>2015-05-25T20:20:20.059Z</time>
      </trkpt>
      <trkpt lat="48.84822" lon="2.37339">
        <ele>112.6</ele>
        <time>2015-05-25T20:20:21.072Z</time>
      </trkpt>
      <trkpt lat="48.84824" lon="2.37332">
        <ele>112.7</ele>
        <time>2015-05-25T20:20:22.091Z</time>
      </trkpt>
      <trkpt lat="48.84827" lon="2.37326">
        <ele>112.9</ele>
        <time>2015-05-25T20:20:23Z</time>
      </trkpt>
      <trkpt lat="48.8483" lon="2.37322">
        <ele>113.2</ele>
        <time>2015-05-25T20:20:24.008Z</time>
      </trkpt>
      <trkpt lat="48.84834" lon="2.37317">
        <ele>113.4</ele>
        <time>2015-05-25T20:20:25.107Z</time>
      </trkpt>
      <trkpt lat="48.84841" lon="2.37308">
        <ele>113.4</ele>
        <time>2015-05-25T20:20:27.097Z</time>
      </trkpt>
      <trkpt lat="48.84843" lon="2.37302">
        <ele>113.3</ele>
        <time>2015-05-25T20:20:28.027Z</time>
      </trkpt>
      <trkpt lat="48.84847" lon="2.37292">
        <ele>113.2</ele>
        <time>2015-05-25T20:20:30.080Z</time>
      </trkpt>
      <trkpt lat="48.84849" lon="2.37284">
        <ele>112.9</ele>
        <time>2015-05-25T20:20:31.095Z</time>
      </trkpt>
      <trkpt lat="48.84851" lon="2.37276">
        <ele>112.8</ele>
        <time>2015-05-25T20:20:31.985Z</time>
      </trkpt>
      <trkpt lat="48.84853" lon="2.3727">
        <ele>112.5</ele>
        <time>2015-05-25T20:20:33.058Z</time>
      </trkpt>
      <trkpt lat="48.84855" lon="2.37258">
        <ele>112</ele>
        <time>2015-05-25T20:20:35.073Z</time>
      </trkpt>
      <trkpt lat="48.84857" lon="2.37252">
        <ele>112.3</ele>
        <time>2015-05-25T20:20:36.107Z</time>
      </trkpt>
      <trkpt lat="48.84863" lon="2.37242">
        <ele>111.7</ele>
        <time>2015-05-25T20:20:38.017Z</time>
      </trkpt>
      <trkpt lat="48.84866" lon="2.37239">
        <ele>111.3</ele>
        <time>2015-05-25T20:20:39.090Z</time>
      </trkpt>
      <trkpt lat="48.8487" lon="2.37234">
        <ele>111.5</ele>
        <time>2015-05-25T20:20:40.020Z</time>
      </trkpt>
      <trkpt lat="48.84872" lon="2.37228">
        <ele>111.5</ele>
        <time>2015-05-25T20:20:41.009Z</time>
      </trkpt>
      <trkpt lat="48.84878" lon="2.3722">
        <ele>112.2</ele>
        <time>2015-05-25T20:20:43.025Z</time>
      </trkpt>
      <trkpt lat="48.84882" lon="2.37216">
        <ele>112.4</ele>
        <time>2015-05-25T20:20:44.030Z</time>
      </trkpt>
      <trkpt lat="48.84888" lon="2.37209">
        <ele>112.5</ele>
        <time>2015-05-25T20:20:46.061Z</time>
      </trkpt>
      <trkpt lat="48.84891" lon="2.37203">
        <ele>112.5</ele>
        <time>2015-05-25T20:20:47.054Z</time>
      </trkpt>
      <trkpt lat="48.84893" lon="2.37197">
        <ele>112.3</ele>
        <time>2015-05-25T20:20:47.970Z</time>
      </trkpt>
      <trkpt lat="48.84895" lon="2.37191">
        <ele>111.9</ele>
        <time>2015-05-25T20:20:49.005Z</time>
      </trkpt>
      <trkpt lat="48.84898" lon="2.37184">
        <ele>111.3</ele>
        <time>2015-05-25T20:20:50.005Z</time>
      </trkpt>
      <trkpt lat="48.84902" lon="2.37178">
        <ele>111.1</ele>
        <time>2015-05-25T20:20:51.039Z</time>
      </trkpt>
      <trkpt lat="48.84904" lon="2.37172">
        <ele>110.9</ele>
        <time>2015-05-25T20:20:52.034Z</time>
      </trkpt>
      <trkpt lat="48.84906" lon="2.37166">
        <ele>110.6</ele>
        <time>2015-05-25T20:20:53.048Z</time>
      </trkpt>
      <trkpt lat="48.8491" lon="2.37157">
        <ele>110.5</ele>
        <time>2015-05-25T20:20:55.003Z</time>
      </trkpt>
      <trkpt lat="48.84912" lon="2.37152">
        <ele>110.2</ele>
        <time>2015-05-25T20:20:55.999Z</time>
      </trkpt>
      <trkpt lat="48.84916" lon="2.37142">
        <ele>109.4</ele>
        <time>2015-05-25T20:20:58.079Z</time>
      </trkpt>
      <trkpt lat="48.84919" lon="2.37137">
        <ele>109.3</ele>
        <time>2015-05-25T20:20:58.974Z</time>
      </trkpt>
      <trkpt lat="48.84923" lon="2.37132">
        <ele>109.6</ele>
        <time>2015-05-25T20:21:00.022Z</time>
      </trkpt>
      <trkpt lat="48.84927" lon="2.37126">
        <ele>109.6</ele>
        <time>2015-05-25T20:21:01.045Z</time>
      </trkpt>
      <trkpt lat="48.84931" lon="2.37119">
        <ele>109.8</ele>
        <time>2015-05-25T20:21:02.065Z</time>
      </trkpt>
      <trkpt lat="48.84935" lon="2.37114">
        <ele>109.9</ele>
        <time>2015-05-25T20:21:03.108Z</time>
      </trkpt>
      <trkpt lat="48.84939" lon="2.37109">
        <ele>110.3</ele>
        <time>2015-05-25T20:21:03.598Z</time>
      </trkpt>
      <trkpt lat="48.84942" lon="2.37105">
        <ele>110.7</ele>
        <time>2015-05-25T20:21:05.004Z</time>
      </trkpt>
      <trkpt lat="48.84947" lon="2.37101">
        <ele>111</ele>
        <time>2015-05-25T20:21:06.044Z</time>
      </trkpt>
      <trkpt lat="48.84952" lon="2.37096">
        <ele>111</ele>
        <time>2015-05-25T20:21:07.086Z</time>
      </trkpt>
      <trkpt lat="48.84957" lon="2.37092">
        <ele>110.9</ele>
        <time>2015-05-25T20:21:08.089Z</time>
      </trkpt>
      <trkpt lat="48.84962" lon="2.37088">
        <ele>111.1</ele>
        <time>2015-05-25T20:21:09.107Z</time>
      </trkpt>
      <trkpt lat="48.84968" lon="2.37084">
        <ele>111.5</ele>
        <time>2015-05-25T20:21:10.013Z</time>
      </trkpt>
      <trkpt lat="48.84973" lon="2.37081">
        <ele>111.8</ele>
        <time>2015-05-25T20:21:11.010Z</time>
      </trkpt>
      <trkpt lat="48.84977" lon="2.37076">
        <ele>112.5</ele>
        <time>2015-05-25T20:21:12.135Z</time>
      </trkpt>
      <trkpt lat="48.84982" lon="2.37071">
        <ele>113.1</ele>
        <time>2015-05-25T20:21:13.010Z</time>
      </trkpt>
      <trkpt lat="48.84986" lon="2.37067">
        <ele>113.4</ele>
        <time>2015-05-25T20:21:14.062Z</time>
      </trkpt>
      <trkpt lat="48.84991" lon="2.37062">
        <ele>114</ele>
        <time>2015-05-25T20:21:15.129Z</time>
      </trkpt>
      <trkpt lat="48.84996" lon="2.37059">
        <ele>114.2</ele>
        <time>2015-05-25T20:21:16.085Z</time>
      </trkpt>
      <trkpt lat="48.85001" lon="2.37056">
        <ele>114.4</ele>
        <time>2015-05-25T20:21:17.050Z</time>
      </trkpt>
      <trkpt lat="48.85005" lon="2.37051">
        <ele>114.7</ele>
        <time>2015-05-25T20:21:18.058Z</time>
      </trkpt>
      <trkpt lat="48.8501" lon="2.37049">
        <ele>115.2</ele>
        <time>2015-05-25T20:21:19.144Z</time>
      </trkpt>
      <trkpt lat="48.85015" lon="2.37045">
        <ele>115.4</ele>
        <time>2015-05-25T20:21:19.985Z</time>
      </trkpt>
      <trkpt lat="48.85019" lon="2.37044">
        <ele>115.5</ele>
        <time>2015-05-25T20:21:21.091Z</time>
      </trkpt>
      <trkpt lat="48.85024" lon="2.37043">
        <ele>116.1</ele>
        <time>2015-05-25T20:21:22.047Z</time>
      </trkpt>
      <trkpt lat="48.85029" lon="2.37041">
        <ele>116</ele>
        <time>2015-05-25T20:21:23.042Z</time>
      </trkpt>
      <trkpt lat="48.85035" lon="2.3704">
        <ele>115.7</ele>
        <time>2015-05-25T20:21:24.061Z</time>
      </trkpt>
      <trkpt lat="48.8504" lon="2.37039">
        <ele>115.4</ele>
        <time>2015-05-25T20:21:25.073Z</time>
      </trkpt>
      <trkpt lat="48.85046" lon="2.37039">
        <ele>115.2</ele>
        <time>2015-05-25T20:21:26.085Z</time>
      </trkpt>
      <trkpt lat="48.8505" lon="2.37037">
        <ele>115.4</ele>
        <time>2015-05-25T20:21:27.094Z</time>
      </trkpt>
      <trkpt lat="48.85055" lon="2.37033">
        <ele>115.3</ele>
        <time>2015-05-25T20:21:28.021Z</time>
      </trkpt>
      <trkpt lat="48.85059" lon="2.37029">
        <ele>115.3</ele>
        <time>2015-05-25T20:21:29.064Z</time>
      </trkpt>
      <trkpt lat="48.85063" lon="2.37026">
        <ele>115.4</ele>
        <time>2015-05-25T20:21:30.076Z</time>
      </trkpt>
      <trkpt lat="48.85067" lon="2.37023">
        <ele>115.4</ele>
        <time>2015-05-25T20:21:31.096Z</time>
      </trkpt>
      <trkpt lat="48.85072" lon="2.3702">
        <ele>115.8</ele>
        <time>2015-05-25T20:21:32.109Z</time>
      </trkpt>
      <trkpt lat="48.85076" lon="2.37018">
        <ele>116.3</ele>
        <time>2015-05-25T20:21:33.119Z</time>
      </trkpt>
      <trkpt lat="48.85081" lon="2.37014">
        <ele>116.7</ele>
        <time>2015-05-25T20:21:34.016Z</time>
      </trkpt>
      <trkpt lat="48.85086" lon="2.37011">
        <ele>116.9</ele>
        <time>2015-05-25T20:21:35.029Z</time>
      </trkpt>
      <trkpt lat="48.8509" lon="2.37009">
        <ele>117.3</ele>
        <time>2015-05-25T20:21:36.050Z</time>
      </trkpt>
      <trkpt lat="48.85094" lon="2.37007">
        <ele>117.6</ele>
        <time>2015-05-25T20:21:37.057Z</time>
      </trkpt>
      <trkpt lat="48.85099" lon="2.37005">
        <ele>117.7</ele>
        <time>2015-05-25T20:21:38.073Z</time>
      </trkpt>
      <trkpt lat="48.85104" lon="2.37003">
        <ele>117.8</ele>
        <time>2015-05-25T20:21:39.103Z</time>
      </trkpt>
      <trkpt lat="48.85109" lon="2.37001">
        <ele>118.4</ele>
        <time>2015-05-25T20:21:40.024Z</time>
      </trkpt>
      <trkpt lat="48.85113" lon="2.36997">
        <ele>118.8</ele>
        <time>2015-05-25T20:21:41.022Z</time>
      </trkpt>
      <trkpt lat="48.85117" lon="2.36993">
        <ele>118.2</ele>
        <time>2015-05-25T20:21:42.327Z</time>
      </trkpt>
      <trkpt lat="48.85122" lon="2.3699">
        <ele>115.4</ele>
        <time>2015-05-25T20:21:43.065Z</time>
      </trkpt>
      <trkpt lat="48.8513" lon="2.36987">
        <ele>116</ele>
        <time>2015-05-25T20:21:45.101Z</time>
      </trkpt>
      <trkpt lat="48.85135" lon="2.36985">
        <ele>116.2</ele>
        <time>2015-05-25T20:21:46.037Z</time>
      </trkpt>
      <trkpt lat="48.85142" lon="2.36985">
        <ele>116.8</ele>
        <time>2015-05-25T20:21:48.035Z</time>
      </trkpt>
      <trkpt lat="48.85145" lon="2.36983">
        <ele>117.3</ele>
        <time>2015-05-25T20:21:49.049Z</time>
      </trkpt>
      <trkpt lat="48.85152" lon="2.36982">
        <ele>118.1</ele>
        <time>2015-05-25T20:21:51.086Z</time>
      </trkpt>
      <trkpt lat="48.85156" lon="2.36981">
        <ele>118.4</ele>
        <time>2015-05-25T20:21:51.980Z</time>
      </trkpt>
      <trkpt lat="48.85162" lon="2.36977">
        <ele>116.5</ele>
        <time>2015-05-25T20:21:54.044Z</time>
      </trkpt>
      <trkpt lat="48.85165" lon="2.36974">
        <ele>114.9</ele>
        <time>2015-05-25T20:21:54.984Z</time>
      </trkpt>
      <trkpt lat="48.85171" lon="2.36965">
        <ele>112.8</ele>
        <time>2015-05-25T20:21:58.058Z</time>
      </trkpt>
      <trkpt lat="48.85173" lon="2.36964">
        <ele>112.8</ele>
        <time>2015-05-25T20:21:59.006Z</time>
      </trkpt>
      <trkpt lat="48.85181" lon="2.36962">
        <ele>114.5</ele>
        <time>2015-05-25T20:26:21.098Z</time>
      </trkpt>
      <trkpt lat="48.852" lon="2.3697">
        <ele>109.9</ele>
        <time>2015-05-25T20:26:22.017Z</time>
      </trkpt>
      <trkpt lat="48.85198" lon="2.36966">
        <ele>109.7</ele>
        <time>2015-05-25T20:26:23.042Z</time>
      </trkpt>
      <trkpt lat="48.85199" lon="2.36966">
        <ele>109.7</ele>
        <time>2015-05-25T20:26:24.051Z</time>
      </trkpt>
      <trkpt lat="48.85199" lon="2.36965">
        <ele>110.6</ele>
        <time>2015-05-25T20:28:33.978Z</time>
      </trkpt>
      <trkpt lat="48.85231" lon="2.36966">
        <ele>94.8</ele>
        <time>2015-05-25T20:28:34.993Z</time>
      </trkpt>
      <trkpt lat="48.85238" lon="2.36962">
        <ele>93.9</ele>
        <time>2015-05-25T20:28:38.048Z</time>
      </trkpt>
      <trkpt lat="48.8524" lon="2.3696">
        <ele>93.8</ele>
        <time>2015-05-25T20:28:39.083Z</time>
      </trkpt>
      <trkpt lat="48.85249" lon="2.36957">
        <ele>92.5</ele>
        <time>2015-05-25T20:28:43.060Z</time>
      </trkpt>
      <trkpt lat="48.8525" lon="2.36955">
        <ele>92.4</ele>
        <time>2015-05-25T20:28:44.066Z</time>
      </trkpt>
      <trkpt lat="48.85257" lon="2.36949">
        <ele>92.7</ele>
        <time>2015-05-25T20:28:49.019Z</time>
      </trkpt>
      <trkpt lat="48.85258" lon="2.36948">
        <ele>92.5</ele>
        <time>2015-05-25T20:28:50.056Z</time>
      </trkpt>
      <trkpt lat="48.85265" lon="2.36941">
        <ele>88.7</ele>
        <time>2015-05-25T20:29:29.026Z</time>
      </trkpt>
      <trkpt lat="48.85267" lon="2.36938">
        <ele>88.7</ele>
        <time>2015-05-25T20:29:30.036Z</time>
      </trkpt>
      <trkpt lat="48.85268" lon="2.36925">
        <ele>88.6</ele>
        <time>2015-05-25T20:29:35.055Z</time>
      </trkpt>
      <trkpt lat="48.85266" lon="2.36922">
        <ele>88.8</ele>
        <time>2015-05-25T20:29:36.020Z</time>
      </trkpt>
      <trkpt lat="48.85263" lon="2.36912">
        <ele>90</ele>
        <time>2015-05-25T20:29:40.100Z</time>
      </trkpt>
      <trkpt lat="48.85263" lon="2.36908">
        <ele>89.7</ele>
        <time>2015-05-25T20:29:41.107Z</time>
      </trkpt>
      <trkpt lat="48.85265" lon="2.36897">
        <ele>90.2</ele>
        <time>2015-05-25T20:29:44.054Z</time>
      </trkpt>
      <trkpt lat="48.85266" lon="2.36892">
        <ele>90.5</ele>
        <time>2015-05-25T20:29:45.095Z</time>
      </trkpt>
      <trkpt lat="48.85267" lon="2.36879">
        <ele>91.8</ele>
        <time>2015-05-25T20:29:49.095Z</time>
      </trkpt>
      <trkpt lat="48.85266" lon="2.36876">
        <ele>91.9</ele>
        <time>2015-05-25T20:29:50.153Z</time>
      </trkpt>
      <trkpt lat="48.85267" lon="2.36865">
        <ele>92.6</ele>
        <time>2015-05-25T20:29:54.082Z</time>
      </trkpt>
      <trkpt lat="48.85267" lon="2.36861">
        <ele>92.9</ele>
        <time>2015-05-25T20:29:55.090Z</time>
      </trkpt>
      <trkpt lat="48.85267" lon="2.36848">
        <ele>93.1</ele>
        <time>2015-05-25T20:29:59.030Z</time>
      </trkpt>
      <trkpt lat="48.85268" lon="2.36845">
        <ele>93</ele>
        <time>2015-05-25T20:30:00.044Z</time>
      </trkpt>
      <trkpt lat="48.85268" lon="2.36832">
        <ele>93</ele>
        <time>2015-05-25T20:30:04.051Z</time>
      </trkpt>
      <trkpt lat="48.85268" lon="2.36829">
        <ele>93.3</ele>
        <time>2015-05-25T20:30:05.080Z</time>
      </trkpt>
      <trkpt lat="48.8527" lon="2.36816">
        <ele>93.8</ele>
        <time>2015-05-25T20:30:10.099Z</time>
      </trkpt>
      <trkpt lat="48.85269" lon="2.36815">
        <ele>93.9</ele>
        <time>2015-05-25T20:30:11.031Z</time>
      </trkpt>
      <trkpt lat="48.85268" lon="2.36814">
        <ele>93.8</ele>
        <time>2015-05-25T20:30:34.094Z</time>
      </trkpt>
      <trkpt lat="48.85285" lon="2.36817">
        <ele>89.6</ele>
        <time>2015-05-25T20:30:35.020Z</time>
      </trkpt>
      <trkpt lat="48.85292" lon="2.36822">
        <ele>90.3</ele>
        <time>2015-05-25T20:30:39.145Z</time>
      </trkpt>
      <trkpt lat="48.85294" lon="2.36822">
        <ele>90.6</ele>
        <time>2015-05-25T20:30:40.009Z</time>
      </trkpt>
      <trkpt lat="48.85302" lon="2.36823">
        <ele>90.6</ele>
        <time>2015-05-25T20:30:44.071Z</time>
      </trkpt>
      <trkpt lat="48.85304" lon="2.36824">
        <ele>90.4</ele>
        <time>2015-05-25T20:30:45.093Z</time>
      </trkpt>
      <trkpt lat="48.85307" lon="2.36824">
        <ele>90.7</ele>
        <time>2015-05-25T20:30:51.090Z</time>
      </trkpt>
      <trkpt lat="48.85314" lon="2.36815">
        <ele>90.7</ele>
        <time>2015-05-25T20:30:52.112Z</time>
      </trkpt>
      <trkpt lat="48.8532" lon="2.36811">
        <ele>90.7</ele>
        <time>2015-05-25T20:30:54.007Z</time>
      </trkpt>
      <trkpt lat="48.85323" lon="2.36808">
        <ele>90.8</ele>
        <time>2015-05-25T20:30:55.028Z</time>
      </trkpt>
      <trkpt lat="48.85328" lon="2.36805">
        <ele>91</ele>
        <time>2015-05-25T20:30:56.049Z</time>
      </trkpt>
      <trkpt lat="48.85333" lon="2.36802">
        <ele>91.4</ele>
        <time>2015-05-25T20:30:57.056Z</time>
      </trkpt>
      <trkpt lat="48.8534" lon="2.36795">
        <ele>92.2</ele>
        <time>2015-05-25T20:30:59.004Z</time>
      </trkpt>
      <trkpt lat="48.85344" lon="2.36786">
        <ele>90.3</ele>
        <time>2015-05-25T20:31:00.005Z</time>
      </trkpt>
      <trkpt lat="48.8534" lon="2.36775">
        <ele>88.2</ele>
        <time>2015-05-25T20:31:02.029Z</time>
      </trkpt>
      <trkpt lat="48.85337" lon="2.36771">
        <ele>87.8</ele>
        <time>2015-05-25T20:31:03.085Z</time>
      </trkpt>
      <trkpt lat="48.85339" lon="2.36763">
        <ele>86.1</ele>
        <time>2015-05-25T20:31:04.993Z</time>
      </trkpt>
      <trkpt lat="48.85344" lon="2.36758">
        <ele>84.8</ele>
        <time>2015-05-25T20:31:06.001Z</time>
      </trkpt>
      <trkpt lat="48.85349" lon="2.36754">
        <ele>84.3</ele>
        <time>2015-05-25T20:31:06.985Z</time>
      </trkpt>
      <trkpt lat="48.85353" lon="2.3675">
        <ele>83.6</ele>
        <time>2015-05-25T20:31:08.003Z</time>
      </trkpt>
      <trkpt lat="48.85358" lon="2.36745">
        <ele>83.2</ele>
        <time>2015-05-25T20:31:09.026Z</time>
      </trkpt>
      <trkpt lat="48.85363" lon="2.3674">
        <ele>82.8</ele>
        <time>2015-05-25T20:31:10.030Z</time>
      </trkpt>
      <trkpt lat="48.85369" lon="2.36735">
        <ele>82</ele>
        <time>2015-05-25T20:31:11.036Z</time>
      </trkpt>
      <trkpt lat="48.85372" lon="2.36731">
        <ele>81.9</ele>
        <time>2015-05-25T20:31:12.046Z</time>
      </trkpt>
      <trkpt lat="48.85369" lon="2.3672">
        <ele>81.2</ele>
        <time>2015-05-25T20:31:15.086Z</time>
      </trkpt>
      <trkpt lat="48.85369" lon="2.36714">
        <ele>80.8</ele>
        <time>2015-05-25T20:31:15.983Z</time>
      </trkpt>
      <trkpt lat="48.85369" lon="2.36704">
        <ele>80.1</ele>
        <time>2015-05-25T20:31:18.028Z</time>
      </trkpt>
      <trkpt lat="48.85369" lon="2.36698">
        <ele>79.9</ele>
        <time>2015-05-25T20:31:18.960Z</time>
      </trkpt>
      <trkpt lat="48.85372" lon="2.36688">
        <ele>79.5</ele>
        <time>2015-05-25T20:31:21.065Z</time>
      </trkpt>
      <trkpt lat="48.85373" lon="2.36684">
        <ele>79.3</ele>
        <time>2015-05-25T20:31:22.105Z</time>
      </trkpt>
      <trkpt lat="48.85375" lon="2.36675">
        <ele>78.3</ele>
        <time>2015-05-25T20:31:24.005Z</time>
      </trkpt>
      <trkpt lat="48.85375" lon="2.36669">
        <ele>78.1</ele>
        <time>2015-05-25T20:31:25.014Z</time>
      </trkpt>
      <trkpt lat="48.85371" lon="2.36663">
        <ele>78.1</ele>
        <time>2015-05-25T20:31:26.031Z</time>
      </trkpt>
      <trkpt lat="48.85368" lon="2.36657">
        <ele>78.3</ele>
        <time>2015-05-25T20:31:27.046Z</time>
      </trkpt>
      <trkpt lat="48.85369" lon="2.36645">
        <ele>79.8</ele>
        <time>2015-05-25T20:31:29.082Z</time>
      </trkpt>
      <trkpt lat="48.8537" lon="2.3664">
        <ele>80.2</ele>
        <time>2015-05-25T20:31:29.988Z</time>
      </trkpt>
      <trkpt lat="48.85373" lon="2.36631">
        <ele>80.9</ele>
        <time>2015-05-25T20:31:32.002Z</time>
      </trkpt>
      <trkpt lat="48.85373" lon="2.36625">
        <ele>81.1</ele>
        <time>2015-05-25T20:31:33.037Z</time>
      </trkpt>
      <trkpt lat="48.85374" lon="2.36613">
        <ele>81.7</ele>
        <time>2015-05-25T20:31:35.052Z</time>
      </trkpt>
      <trkpt lat="48.85374" lon="2.36607">
        <ele>82</ele>
        <time>2015-05-25T20:31:36.261Z</time>
      </trkpt>
      <trkpt lat="48.85375" lon="2.36594">
        <ele>82.4</ele>
        <time>2015-05-25T20:31:38.035Z</time>
      </trkpt>
      <trkpt lat="48.85374" lon="2.36587">
        <ele>82.8</ele>
        <time>2015-05-25T20:31:39.041Z</time>
      </trkpt>
      <trkpt lat="48.85374" lon="2.3658">
        <ele>83.4</ele>
        <time>2015-05-25T20:31:40.069Z</time>
      </trkpt>
      <trkpt lat="48.85376" lon="2.36573">
        <ele>83.5</ele>
        <time>2015-05-25T20:31:41.075Z</time>
      </trkpt>
      <trkpt lat="48.85377" lon="2.3656">
        <ele>83.1</ele>
        <time>2015-05-25T20:31:43.012Z</time>
      </trkpt>
      <trkpt lat="48.85378" lon="2.36554">
        <ele>83.6</ele>
        <time>2015-05-25T20:31:44.010Z</time>
      </trkpt>
      <trkpt lat="48.8538" lon="2.36547">
        <ele>84.1</ele>
        <time>2015-05-25T20:31:45.054Z</time>
      </trkpt>
      <trkpt lat="48.85382" lon="2.36541">
        <ele>84.4</ele>
        <time>2015-05-25T20:31:46.056Z</time>
      </trkpt>
      <trkpt lat="48.85383" lon="2.36534">
        <ele>85</ele>
        <time>2015-05-25T20:31:47.064Z</time>
      </trkpt>
      <trkpt lat="48.85385" lon="2.36527">
        <ele>85.4</ele>
        <time>2015-05-25T20:31:48.077Z</time>
      </trkpt>
      <trkpt lat="48.85387" lon="2.36521">
        <ele>85.9</ele>
        <time>2015-05-25T20:31:48.978Z</time>
      </trkpt>
      <trkpt lat="48.85388" lon="2.36514">
        <ele>86.1</ele>
        <time>2015-05-25T20:31:49.992Z</time>
      </trkpt>
      <trkpt lat="48.8539" lon="2.36507">
        <ele>86.2</ele>
        <time>2015-05-25T20:31:51.060Z</time>
      </trkpt>
      <trkpt lat="48.85391" lon="2.365">
        <ele>86.4</ele>
        <time>2015-05-25T20:31:52.063Z</time>
      </trkpt>
      <trkpt lat="48.85392" lon="2.36493">
        <ele>86.8</ele>
        <time>2015-05-25T20:31:50.799Z</time>
      </trkpt>
      <trkpt lat="48.85394" lon="2.36486">
        <ele>87.3</ele>
        <time>2015-05-25T20:31:54.086Z</time>
      </trkpt>
      <trkpt lat="48.85396" lon="2.36479">
        <ele>87.7</ele>
        <time>2015-05-25T20:31:55.886Z</time>
      </trkpt>
      <trkpt lat="48.85397" lon="2.36472">
        <ele>88.3</ele>
        <time>2015-05-25T20:31:55.996Z</time>
      </trkpt>
      <trkpt lat="48.85398" lon="2.36465">
        <ele>88.5</ele>
        <time>2015-05-25T20:31:57.085Z</time>
      </trkpt>
      <trkpt lat="48.85399" lon="2.36459">
        <ele>88.7</ele>
        <time>2015-05-25T20:31:57.989Z</time>
      </trkpt>
      <trkpt lat="48.85401" lon="2.36452">
        <ele>88.9</ele>
        <time>2015-05-25T20:31:59.031Z</time>
      </trkpt>
      <trkpt lat="48.85403" lon="2.36445">
        <ele>89</ele>
        <time>2015-05-25T20:32:00.021Z</time>
      </trkpt>
      <trkpt lat="48.85406" lon="2.36438">
        <ele>89.5</ele>
        <time>2015-05-25T20:32:01.025Z</time>
      </trkpt>
      <trkpt lat="48.85409" lon="2.3643">
        <ele>89.8</ele>
        <time>2015-05-25T20:32:02.035Z</time>
      </trkpt>
      <trkpt lat="48.85412" lon="2.36425">
        <ele>90</ele>
        <time>2015-05-25T20:32:03.061Z</time>
      </trkpt>
      <trkpt lat="48.85414" lon="2.36418">
        <ele>90.1</ele>
        <time>2015-05-25T20:32:04.058Z</time>
      </trkpt>
      <trkpt lat="48.85417" lon="2.36412">
        <ele>90.4</ele>
        <time>2015-05-25T20:32:05.066Z</time>
      </trkpt>
      <trkpt lat="48.85421" lon="2.36406">
        <ele>91</ele>
        <time>2015-05-25T20:32:06.078Z</time>
      </trkpt>
      <trkpt lat="48.85424" lon="2.364">
        <ele>91.1</ele>
        <time>2015-05-25T20:32:07.087Z</time>
      </trkpt>
      <trkpt lat="48.85426" lon="2.36393">
        <ele>91.2</ele>
        <time>2015-05-25T20:32:07.996Z</time>
      </trkpt>
      <trkpt lat="48.85429" lon="2.36387">
        <ele>91.2</ele>
        <time>2015-05-25T20:32:09.038Z</time>
      </trkpt>
      <trkpt lat="48.85432" lon="2.36381">
        <ele>91.3</ele>
        <time>2015-05-25T20:32:10.056Z</time>
      </trkpt>
      <trkpt lat="48.85436" lon="2.36376">
        <ele>91.4</ele>
        <time>2015-05-25T20:32:10.999Z</time>
      </trkpt>
      <trkpt lat="48.85439" lon="2.3637">
        <ele>91.9</ele>
        <time>2015-05-25T20:32:12.002Z</time>
      </trkpt>
      <trkpt lat="48.85439" lon="2.36363">
        <ele>92.1</ele>
        <time>2015-05-25T20:32:13.005Z</time>
      </trkpt>
      <trkpt lat="48.85442" lon="2.36357">
        <ele>92.4</ele>
        <time>2015-05-25T20:32:14.009Z</time>
      </trkpt>
      <trkpt lat="48.85446" lon="2.36346">
        <ele>92.9</ele>
        <time>2015-05-25T20:32:16.036Z</time>
      </trkpt>
      <trkpt lat="48.8545" lon="2.3634">
        <ele>93.3</ele>
        <time>2015-05-25T20:32:17.046Z</time>
      </trkpt>
      <trkpt lat="48.85453" lon="2.36334">
        <ele>93.5</ele>
        <time>2015-05-25T20:32:17.988Z</time>
      </trkpt>
      <trkpt lat="48.85456" lon="2.36328">
        <ele>94</ele>
        <time>2015-05-25T20:32:18.996Z</time>
      </trkpt>
      <trkpt lat="48.8546" lon="2.36322">
        <ele>94.5</ele>
        <time>2015-05-25T20:32:20.002Z</time>
      </trkpt>
      <trkpt lat="48.85465" lon="2.36317">
        <ele>94.7</ele>
        <time>2015-05-25T20:32:21.038Z</time>
      </trkpt>
      <trkpt lat="48.85471" lon="2.36309">
        <ele>95</ele>
        <time>2015-05-25T20:32:23.063Z</time>
      </trkpt>
      <trkpt lat="48.85475" lon="2.36304">
        <ele>95.2</ele>
        <time>2015-05-25T20:32:24.086Z</time>
      </trkpt>
      <trkpt lat="48.85478" lon="2.36293">
        <ele>94.5</ele>
        <time>2015-05-25T20:32:26.016Z</time>
      </trkpt>
      <trkpt lat="48.85479" lon="2.36284">
        <ele>92.3</ele>
        <time>2015-05-25T20:32:27.036Z</time>
      </trkpt>
      <trkpt lat="48.85476" lon="2.36274">
        <ele>91.8</ele>
        <time>2015-05-25T20:32:28.075Z</time>
      </trkpt>
      <trkpt lat="48.85475" lon="2.36266">
        <ele>90.9</ele>
        <time>2015-05-25T20:32:29.086Z</time>
      </trkpt>
      <trkpt lat="48.85477" lon="2.36259">
        <ele>89.9</ele>
        <time>2015-05-25T20:32:29.995Z</time>
      </trkpt>
      <trkpt lat="48.8548" lon="2.36254">
        <ele>89.4</ele>
        <time>2015-05-25T20:32:31.006Z</time>
      </trkpt>
      <trkpt lat="48.85484" lon="2.36243">
        <ele>88.4</ele>
        <time>2015-05-25T20:32:33.040Z</time>
      </trkpt>
      <trkpt lat="48.85486" lon="2.36237">
        <ele>88.2</ele>
        <time>2015-05-25T20:32:34.041Z</time>
      </trkpt>
      <trkpt lat="48.85489" lon="2.36226">
        <ele>88.3</ele>
        <time>2015-05-25T20:32:35.991Z</time>
      </trkpt>
      <trkpt lat="48.85491" lon="2.36221">
        <ele>88.1</ele>
        <time>2015-05-25T20:32:37.111Z</time>
      </trkpt>
      <trkpt lat="48.85494" lon="2.3621">
        <ele>88</ele>
        <time>2015-05-25T20:32:39.077Z</time>
      </trkpt>
      <trkpt lat="48.85497" lon="2.36204">
        <ele>88</ele>
        <time>2015-05-25T20:32:40.014Z</time>
      </trkpt>
      <trkpt lat="48.85502" lon="2.36194">
        <ele>87.9</ele>
        <time>2015-05-25T20:32:41.990Z</time>
      </trkpt>
      <trkpt lat="48.85504" lon="2.36188">
        <ele>88.2</ele>
        <time>2015-05-25T20:32:43.026Z</time>
      </trkpt>
      <trkpt lat="48.85506" lon="2.36181">
        <ele>88</ele>
        <time>2015-05-25T20:32:44.066Z</time>
      </trkpt>
      <trkpt lat="48.85507" lon="2.36174">
        <ele>88.2</ele>
        <time>2015-05-25T20:32:45.074Z</time>
      </trkpt>
      <trkpt lat="48.8551" lon="2.36162">
        <ele>88.6</ele>
        <time>2015-05-25T20:32:46.985Z</time>
      </trkpt>
      <trkpt lat="48.85512" lon="2.36155">
        <ele>88.6</ele>
        <time>2015-05-25T20:32:48.086Z</time>
      </trkpt>
      <trkpt lat="48.85514" lon="2.36148">
        <ele>88.6</ele>
        <time>2015-05-25T20:32:48.988Z</time>
      </trkpt>
      <trkpt lat="48.85516" lon="2.36141">
        <ele>88.7</ele>
        <time>2015-05-25T20:32:49.985Z</time>
      </trkpt>
      <trkpt lat="48.85517" lon="2.36133">
        <ele>88.8</ele>
        <time>2015-05-25T20:32:51.047Z</time>
      </trkpt>
      <trkpt lat="48.85519" lon="2.36126">
        <ele>88.8</ele>
        <time>2015-05-25T20:32:52.050Z</time>
      </trkpt>
      <trkpt lat="48.8552" lon="2.36119">
        <ele>88.7</ele>
        <time>2015-05-25T20:32:53.073Z</time>
      </trkpt>
      <trkpt lat="48.85522" lon="2.36112">
        <ele>88.5</ele>
        <time>2015-05-25T20:32:53.958Z</time>
      </trkpt>
      <trkpt lat="48.85524" lon="2.36105">
        <ele>88.4</ele>
        <time>2015-05-25T20:32:54.993Z</time>
      </trkpt>
      <trkpt lat="48.85526" lon="2.36098">
        <ele>88.4</ele>
        <time>2015-05-25T20:32:56.013Z</time>
      </trkpt>
      <trkpt lat="48.85528" lon="2.3609">
        <ele>88.7</ele>
        <time>2015-05-25T20:32:57.026Z</time>
      </trkpt>
      <trkpt lat="48.8553" lon="2.36083">
        <ele>88.9</ele>
        <time>2015-05-25T20:32:58.030Z</time>
      </trkpt>
      <trkpt lat="48.85532" lon="2.36075">
        <ele>89</ele>
        <time>2015-05-25T20:32:59.058Z</time>
      </trkpt>
      <trkpt lat="48.85533" lon="2.36068">
        <ele>89.1</ele>
        <time>2015-05-25T20:33:00.072Z</time>
      </trkpt>
      <trkpt lat="48.85535" lon="2.3606">
        <ele>88.9</ele>
        <time>2015-05-25T20:33:00.959Z</time>
      </trkpt>
      <trkpt lat="48.85536" lon="2.36053">
        <ele>89</ele>
        <time>2015-05-25T20:33:01.969Z</time>
      </trkpt>
      <trkpt lat="48.85538" lon="2.36045">
        <ele>89.1</ele>
        <time>2015-05-25T20:33:03.112Z</time>
      </trkpt>
      <trkpt lat="48.8554" lon="2.36038">
        <ele>89.3</ele>
        <time>2015-05-25T20:33:03.959Z</time>
      </trkpt>
      <trkpt lat="48.85542" lon="2.3603">
        <ele>89.6</ele>
        <time>2015-05-25T20:33:04.982Z</time>
      </trkpt>
      <trkpt lat="48.85543" lon="2.36022">
        <ele>90</ele>
        <time>2015-05-25T20:33:06.044Z</time>
      </trkpt>
      <trkpt lat="48.85544" lon="2.36015">
        <ele>90</ele>
        <time>2015-05-25T20:33:07.077Z</time>
      </trkpt>
      <trkpt lat="48.85545" lon="2.36008">
        <ele>90.1</ele>
        <time>2015-05-25T20:33:08.070Z</time>
      </trkpt>
      <trkpt lat="48.85547" lon="2.36001">
        <ele>89.9</ele>
        <time>2015-05-25T20:33:09.094Z</time>
      </trkpt>
      <trkpt lat="48.85549" lon="2.35993">
        <ele>89.9</ele>
        <time>2015-05-25T20:33:09.987Z</time>
      </trkpt>
      <trkpt lat="48.8555" lon="2.35986">
        <ele>89.8</ele>
        <time>2015-05-25T20:33:11.013Z</time>
      </trkpt>
      <trkpt lat="48.85552" lon="2.35979">
        <ele>89.7</ele>
        <time>2015-05-25T20:33:12.015Z</time>
      </trkpt>
      <trkpt lat="48.85554" lon="2.35972">
        <ele>89.2</ele>
        <time>2015-05-25T20:33:13.024Z</time>
      </trkpt>
      <trkpt lat="48.85555" lon="2.35965">
        <ele>88.9</ele>
        <time>2015-05-25T20:33:14.030Z</time>
      </trkpt>
      <trkpt lat="48.85557" lon="2.35958">
        <ele>88.4</ele>
        <time>2015-05-25T20:33:15.045Z</time>
      </trkpt>
      <trkpt lat="48.85559" lon="2.35951">
        <ele>88.4</ele>
        <time>2015-05-25T20:33:16.059Z</time>
      </trkpt>
      <trkpt lat="48.8556" lon="2.35944">
        <ele>88.3</ele>
        <time>2015-05-25T20:33:17.082Z</time>
      </trkpt>
      <trkpt lat="48.85561" lon="2.35936">
        <ele>88.2</ele>
        <time>2015-05-25T20:33:17.991Z</time>
      </trkpt>
      <trkpt lat="48.85562" lon="2.35929">
        <ele>88.5</ele>
        <time>2015-05-25T20:33:19.004Z</time>
      </trkpt>
      <trkpt lat="48.85564" lon="2.35922">
        <ele>88.9</ele>
        <time>2015-05-25T20:33:20.017Z</time>
      </trkpt>
      <trkpt lat="48.85565" lon="2.35914">
        <ele>88.9</ele>
        <time>2015-05-25T20:33:21.121Z</time>
      </trkpt>
      <trkpt lat="48.85566" lon="2.35907">
        <ele>88.7</ele>
        <time>2015-05-25T20:33:22.031Z</time>
      </trkpt>
      <trkpt lat="48.85567" lon="2.359">
        <ele>88.7</ele>
        <time>2015-05-25T20:33:23.063Z</time>
      </trkpt>
      <trkpt lat="48.85569" lon="2.35893">
        <ele>88.9</ele>
        <time>2015-05-25T20:33:24.071Z</time>
      </trkpt>
      <trkpt lat="48.85571" lon="2.35886">
        <ele>89.2</ele>
        <time>2015-05-25T20:33:24.989Z</time>
      </trkpt>
      <trkpt lat="48.85572" lon="2.35879">
        <ele>89.3</ele>
        <time>2015-05-25T20:33:26.001Z</time>
      </trkpt>
      <trkpt lat="48.85573" lon="2.35873">
        <ele>89.1</ele>
        <time>2015-05-25T20:33:27.048Z</time>
      </trkpt>
      <trkpt lat="48.85574" lon="2.35865">
        <ele>89.2</ele>
        <time>2015-05-25T20:33:28.060Z</time>
      </trkpt>
      <trkpt lat="48.85575" lon="2.35857">
        <ele>89.5</ele>
        <time>2015-05-25T20:33:29.069Z</time>
      </trkpt>
      <trkpt lat="48.85578" lon="2.35849">
        <ele>89.8</ele>
        <time>2015-05-25T20:33:29.993Z</time>
      </trkpt>
      <trkpt lat="48.85581" lon="2.35842">
        <ele>90</ele>
        <time>2015-05-25T20:33:30.972Z</time>
      </trkpt>
      <trkpt lat="48.85584" lon="2.35834">
        <ele>90.4</ele>
        <time>2015-05-25T20:33:31.992Z</time>
      </trkpt>
      <trkpt lat="48.85588" lon="2.35826">
        <ele>90.5</ele>
        <time>2015-05-25T20:33:33.038Z</time>
      </trkpt>
      <trkpt lat="48.85591" lon="2.35819">
        <ele>90.5</ele>
        <time>2015-05-25T20:33:34.033Z</time>
      </trkpt>
      <trkpt lat="48.85594" lon="2.35812">
        <ele>90.3</ele>
        <time>2015-05-25T20:33:35.040Z</time>
      </trkpt>
      <trkpt lat="48.85595" lon="2.35805">
        <ele>89.9</ele>
        <time>2015-05-25T20:33:36.054Z</time>
      </trkpt>
      <trkpt lat="48.85597" lon="2.35798">
        <ele>90.2</ele>
        <time>2015-05-25T20:33:37.062Z</time>
      </trkpt>
      <trkpt lat="48.85598" lon="2.35791">
        <ele>90</ele>
        <time>2015-05-25T20:33:38.073Z</time>
      </trkpt>
      <trkpt lat="48.856" lon="2.35784">
        <ele>90</ele>
        <time>2015-05-25T20:33:39.089Z</time>
      </trkpt>
      <trkpt lat="48.85601" lon="2.35777">
        <ele>89.7</ele>
        <time>2015-05-25T20:33:39.983Z</time>
      </trkpt>
      <trkpt lat="48.85603" lon="2.35769">
        <ele>89.6</ele>
        <time>2015-05-25T20:33:41.002Z</time>
      </trkpt>
      <trkpt lat="48.85604" lon="2.35762">
        <ele>89.6</ele>
        <time>2015-05-25T20:33:42.008Z</time>
      </trkpt>
      <trkpt lat="48.85607" lon="2.35754">
        <ele>90</ele>
        <time>2015-05-25T20:33:43.081Z</time>
      </trkpt>
      <trkpt lat="48.85608" lon="2.35747">
        <ele>90.1</ele>
        <time>2015-05-25T20:33:44.008Z</time>
      </trkpt>
      <trkpt lat="48.85611" lon="2.35741">
        <ele>89.9</ele>
        <time>2015-05-25T20:33:45.028Z</time>
      </trkpt>
      <trkpt lat="48.85613" lon="2.35735">
        <ele>89.8</ele>
        <time>2015-05-25T20:33:46.033Z</time>
      </trkpt>
      <trkpt lat="48.85615" lon="2.35728">
        <ele>89.8</ele>
        <time>2015-05-25T20:33:46.959Z</time>
      </trkpt>
      <trkpt lat="48.85616" lon="2.3572">
        <ele>90.1</ele>
        <time>2015-05-25T20:33:47.982Z</time>
      </trkpt>
      <trkpt lat="48.85618" lon="2.35712">
        <ele>90.4</ele>
        <time>2015-05-25T20:33:49.002Z</time>
      </trkpt>
      <trkpt lat="48.8562" lon="2.35704">
        <ele>90.6</ele>
        <time>2015-05-25T20:33:50.018Z</time>
      </trkpt>
      <trkpt lat="48.85623" lon="2.35697">
        <ele>90.4</ele>
        <time>2015-05-25T20:33:51.049Z</time>
      </trkpt>
      <trkpt lat="48.85625" lon="2.35689">
        <ele>90.5</ele>
        <time>2015-05-25T20:33:51.981Z</time>
      </trkpt>
      <trkpt lat="48.85627" lon="2.35681">
        <ele>90.7</ele>
        <time>2015-05-25T20:33:52.981Z</time>
      </trkpt>
      <trkpt lat="48.85628" lon="2.35673">
        <ele>90.8</ele>
        <time>2015-05-25T20:33:53.980Z</time>
      </trkpt>
      <trkpt lat="48.8563" lon="2.35664">
        <ele>91.1</ele>
        <time>2015-05-25T20:33:54.987Z</time>
      </trkpt>
      <trkpt lat="48.8563" lon="2.35656">
        <ele>91.2</ele>
        <time>2015-05-25T20:33:55.988Z</time>
      </trkpt>
      <trkpt lat="48.85631" lon="2.35647">
        <ele>91.8</ele>
        <time>2015-05-25T20:33:57.025Z</time>
      </trkpt>
      <trkpt lat="48.85633" lon="2.35639">
        <ele>91.8</ele>
        <time>2015-05-25T20:33:58.034Z</time>
      </trkpt>
      <trkpt lat="48.85634" lon="2.35631">
        <ele>91.6</ele>
        <time>2015-05-25T20:33:59.044Z</time>
      </trkpt>
      <trkpt lat="48.85636" lon="2.35623">
        <ele>91.9</ele>
        <time>2015-05-25T20:34:00.053Z</time>
      </trkpt>
      <trkpt lat="48.85638" lon="2.35615">
        <ele>91.8</ele>
        <time>2015-05-25T20:34:01.061Z</time>
      </trkpt>
      <trkpt lat="48.8564" lon="2.35606">
        <ele>91.8</ele>
        <time>2015-05-25T20:34:01.979Z</time>
      </trkpt>
      <trkpt lat="48.85642" lon="2.35598">
        <ele>92</ele>
        <time>2015-05-25T20:34:03.089Z</time>
      </trkpt>
      <trkpt lat="48.85646" lon="2.3559">
        <ele>92</ele>
        <time>2015-05-25T20:34:03.982Z</time>
      </trkpt>
      <trkpt lat="48.85649" lon="2.35583">
        <ele>91.4</ele>
        <time>2015-05-25T20:34:04.988Z</time>
      </trkpt>
      <trkpt lat="48.8565" lon="2.35574">
        <ele>91.3</ele>
        <time>2015-05-25T20:34:06Z</time>
      </trkpt>
      <trkpt lat="48.85652" lon="2.35566">
        <ele>91.3</ele>
        <time>2015-05-25T20:34:07.018Z</time>
      </trkpt>
      <trkpt lat="48.85653" lon="2.35557">
        <ele>91.2</ele>
        <time>2015-05-25T20:34:08.025Z</time>
      </trkpt>
      <trkpt lat="48.85655" lon="2.35549">
        <ele>90.8</ele>
        <time>2015-05-25T20:34:09.029Z</time>
      </trkpt>
      <trkpt lat="48.85658" lon="2.3554">
        <ele>90.8</ele>
        <time>2015-05-25T20:34:10.037Z</time>
      </trkpt>
      <trkpt lat="48.8566" lon="2.35532">
        <ele>91.1</ele>
        <time>2015-05-25T20:34:11.043Z</time>
      </trkpt>
      <trkpt lat="48.85661" lon="2.35522">
        <ele>91.2</ele>
        <time>2015-05-25T20:34:12.045Z</time>
      </trkpt>
      <trkpt lat="48.85663" lon="2.35513">
        <ele>91</ele>
        <time>2015-05-25T20:34:12.984Z</time>
      </trkpt>
      <trkpt lat="48.85665" lon="2.35504">
        <ele>90.7</ele>
        <time>2015-05-25T20:34:13.998Z</time>
      </trkpt>
      <trkpt lat="48.85667" lon="2.35495">
        <ele>90.4</ele>
        <time>2015-05-25T20:34:15.022Z</time>
      </trkpt>
      <trkpt lat="48.85669" lon="2.35486">
        <ele>90.4</ele>
        <time>2015-05-25T20:34:16.038Z</time>
      </trkpt>
      <trkpt lat="48.8567" lon="2.35478">
        <ele>90.4</ele>
        <time>2015-05-25T20:34:16.967Z</time>
      </trkpt>
      <trkpt lat="48.85673" lon="2.35469">
        <ele>90.5</ele>
        <time>2015-05-25T20:34:17.980Z</time>
      </trkpt>
      <trkpt lat="48.85675" lon="2.35459">
        <ele>90.6</ele>
        <time>2015-05-25T20:34:18.981Z</time>
      </trkpt>
      <trkpt lat="48.85678" lon="2.3545">
        <ele>90.5</ele>
        <time>2015-05-25T20:34:19.983Z</time>
      </trkpt>
      <trkpt lat="48.85681" lon="2.35441">
        <ele>90.5</ele>
        <time>2015-05-25T20:34:21.032Z</time>
      </trkpt>
      <trkpt lat="48.85683" lon="2.35432">
        <ele>90.6</ele>
        <time>2015-05-25T20:34:22.040Z</time>
      </trkpt>
      <trkpt lat="48.85685" lon="2.35422">
        <ele>90.6</ele>
        <time>2015-05-25T20:34:23.049Z</time>
      </trkpt>
      <trkpt lat="48.85687" lon="2.35413">
        <ele>90.5</ele>
        <time>2015-05-25T20:34:24.061Z</time>
      </trkpt>
      <trkpt lat="48.8569" lon="2.35404">
        <ele>90.6</ele>
        <time>2015-05-25T20:34:24.981Z</time>
      </trkpt>
      <trkpt lat="48.85693" lon="2.35395">
        <ele>90.9</ele>
        <time>2015-05-25T20:34:26.010Z</time>
      </trkpt>
      <trkpt lat="48.85696" lon="2.35385">
        <ele>91.1</ele>
        <time>2015-05-25T20:34:27.038Z</time>
      </trkpt>
      <trkpt lat="48.85699" lon="2.35377">
        <ele>91.2</ele>
        <time>2015-05-25T20:34:28.041Z</time>
      </trkpt>
      <trkpt lat="48.85701" lon="2.35367">
        <ele>90.9</ele>
        <time>2015-05-25T20:34:29.052Z</time>
      </trkpt>
      <trkpt lat="48.85702" lon="2.35357">
        <ele>90.8</ele>
        <time>2015-05-25T20:34:29.976Z</time>
      </trkpt>
      <trkpt lat="48.85704" lon="2.35348">
        <ele>90.3</ele>
        <time>2015-05-25T20:34:30.990Z</time>
      </trkpt>
      <trkpt lat="48.85705" lon="2.35339">
        <ele>89.8</ele>
        <time>2015-05-25T20:34:32.001Z</time>
      </trkpt>
      <trkpt lat="48.85708" lon="2.3533">
        <ele>89.8</ele>
        <time>2015-05-25T20:34:33.052Z</time>
      </trkpt>
      <trkpt lat="48.8571" lon="2.35321">
        <ele>89.6</ele>
        <time>2015-05-25T20:34:34.061Z</time>
      </trkpt>
      <trkpt lat="48.85712" lon="2.35311">
        <ele>89.5</ele>
        <time>2015-05-25T20:34:35.011Z</time>
      </trkpt>
      <trkpt lat="48.85714" lon="2.35302">
        <ele>89.5</ele>
        <time>2015-05-25T20:34:36.055Z</time>
      </trkpt>
      <trkpt lat="48.85717" lon="2.35293">
        <ele>89.7</ele>
        <time>2015-05-25T20:34:36.997Z</time>
      </trkpt>
      <trkpt lat="48.85719" lon="2.35283">
        <ele>89.9</ele>
        <time>2015-05-25T20:34:38.002Z</time>
      </trkpt>
      <trkpt lat="48.85721" lon="2.35274">
        <ele>90.1</ele>
        <time>2015-05-25T20:34:39.040Z</time>
      </trkpt>
      <trkpt lat="48.85723" lon="2.35265">
        <ele>89.9</ele>
        <time>2015-05-25T20:34:40.050Z</time>
      </trkpt>
      <trkpt lat="48.85724" lon="2.35256">
        <ele>89.9</ele>
        <time>2015-05-25T20:34:41.072Z</time>
      </trkpt>
      <trkpt lat="48.85726" lon="2.35248">
        <ele>89.6</ele>
        <time>2015-05-25T20:34:42.077Z</time>
      </trkpt>
      <trkpt lat="48.85728" lon="2.3524">
        <ele>89.2</ele>
        <time>2015-05-25T20:34:42.987Z</time>
      </trkpt>
      <trkpt lat="48.8573" lon="2.35231">
        <ele>89.1</ele>
        <time>2015-05-25T20:34:43.996Z</time>
      </trkpt>
      <trkpt lat="48.85733" lon="2.35222">
        <ele>89.5</ele>
        <time>2015-05-25T20:34:45.037Z</time>
      </trkpt>
      <trkpt lat="48.85735" lon="2.35214">
        <ele>89.3</ele>
        <time>2015-05-25T20:34:46.038Z</time>
      </trkpt>
      <trkpt lat="48.85737" lon="2.35206">
        <ele>89</ele>
        <time>2015-05-25T20:34:47.054Z</time>
      </trkpt>
      <trkpt lat="48.85738" lon="2.35198">
        <ele>88.7</ele>
        <time>2015-05-25T20:34:48.060Z</time>
      </trkpt>
      <trkpt lat="48.8574" lon="2.3519">
        <ele>88.6</ele>
        <time>2015-05-25T20:34:48.991Z</time>
      </trkpt>
      <trkpt lat="48.85741" lon="2.35182">
        <ele>88.7</ele>
        <time>2015-05-25T20:34:49.987Z</time>
      </trkpt>
      <trkpt lat="48.85743" lon="2.35174">
        <ele>88.9</ele>
        <time>2015-05-25T20:34:51.037Z</time>
      </trkpt>
      <trkpt lat="48.85745" lon="2.35167">
        <ele>88.8</ele>
        <time>2015-05-25T20:34:52.047Z</time>
      </trkpt>
      <trkpt lat="48.85746" lon="2.35159">
        <ele>88.8</ele>
        <time>2015-05-25T20:34:53.056Z</time>
      </trkpt>
      <trkpt lat="48.85748" lon="2.35152">
        <ele>88.8</ele>
        <time>2015-05-25T20:34:54.066Z</time>
      </trkpt>
      <trkpt lat="48.8575" lon="2.35145">
        <ele>88.8</ele>
        <time>2015-05-25T20:34:55.082Z</time>
      </trkpt>
      <trkpt lat="48.85752" lon="2.35136">
        <ele>89</ele>
        <time>2015-05-25T20:34:55.993Z</time>
      </trkpt>
      <trkpt lat="48.85754" lon="2.35128">
        <ele>89</ele>
        <time>2015-05-25T20:34:57.035Z</time>
      </trkpt>
      <trkpt lat="48.85757" lon="2.3512">
        <ele>89.3</ele>
        <time>2015-05-25T20:34:58.034Z</time>
      </trkpt>
      <trkpt lat="48.85759" lon="2.35112">
        <ele>89.7</ele>
        <time>2015-05-25T20:34:59.044Z</time>
      </trkpt>
      <trkpt lat="48.85762" lon="2.35105">
        <ele>89.8</ele>
        <time>2015-05-25T20:35:00.066Z</time>
      </trkpt>
      <trkpt lat="48.85764" lon="2.35097">
        <ele>89.7</ele>
        <time>2015-05-25T20:35:00.988Z</time>
      </trkpt>
      <trkpt lat="48.85766" lon="2.3509">
        <ele>89.8</ele>
        <time>2015-05-25T20:35:01.995Z</time>
      </trkpt>
      <trkpt lat="48.85769" lon="2.35082">
        <ele>90</ele>
        <time>2015-05-25T20:35:03.037Z</time>
      </trkpt>
      <trkpt lat="48.85771" lon="2.35074">
        <ele>90.1</ele>
        <time>2015-05-25T20:35:04.039Z</time>
      </trkpt>
      <trkpt lat="48.85774" lon="2.35066">
        <ele>90.4</ele>
        <time>2015-05-25T20:35:05.050Z</time>
      </trkpt>
      <trkpt lat="48.85777" lon="2.35058">
        <ele>90.3</ele>
        <time>2015-05-25T20:35:06.055Z</time>
      </trkpt>
      <trkpt lat="48.85779" lon="2.3505">
        <ele>90.2</ele>
        <time>2015-05-25T20:35:06.952Z</time>
      </trkpt>
      <trkpt lat="48.8578" lon="2.35041">
        <ele>90.5</ele>
        <time>2015-05-25T20:35:07.974Z</time>
      </trkpt>
      <trkpt lat="48.85783" lon="2.35034">
        <ele>90.8</ele>
        <time>2015-05-25T20:35:09.020Z</time>
      </trkpt>
      <trkpt lat="48.85785" lon="2.35026">
        <ele>91.2</ele>
        <time>2015-05-25T20:35:10.016Z</time>
      </trkpt>
      <trkpt lat="48.85787" lon="2.35018">
        <ele>91.4</ele>
        <time>2015-05-25T20:35:11.025Z</time>
      </trkpt>
      <trkpt lat="48.85788" lon="2.35011">
        <ele>91.2</ele>
        <time>2015-05-25T20:35:12.036Z</time>
      </trkpt>
      <trkpt lat="48.85791" lon="2.35003">
        <ele>91.2</ele>
        <time>2015-05-25T20:35:13.039Z</time>
      </trkpt>
      <trkpt lat="48.85793" lon="2.34996">
        <ele>90.9</ele>
        <time>2015-05-25T20:35:14.045Z</time>
      </trkpt>
      <trkpt lat="48.85794" lon="2.34986">
        <ele>91.2</ele>
        <time>2015-05-25T20:35:15.061Z</time>
      </trkpt>
      <trkpt lat="48.85797" lon="2.34979">
        <ele>90.9</ele>
        <time>2015-05-25T20:35:16.012Z</time>
      </trkpt>
      <trkpt lat="48.858" lon="2.34972">
        <ele>90.7</ele>
        <time>2015-05-25T20:35:16.994Z</time>
      </trkpt>
      <trkpt lat="48.85803" lon="2.34965">
        <ele>90.3</ele>
        <time>2015-05-25T20:35:17.997Z</time>
      </trkpt>
      <trkpt lat="48.85806" lon="2.34958">
        <ele>90</ele>
        <time>2015-05-25T20:35:19.034Z</time>
      </trkpt>
      <trkpt lat="48.85809" lon="2.34951">
        <ele>89.8</ele>
        <time>2015-05-25T20:35:20.040Z</time>
      </trkpt>
      <trkpt lat="48.85812" lon="2.34944">
        <ele>89.9</ele>
        <time>2015-05-25T20:35:21.040Z</time>
      </trkpt>
      <trkpt lat="48.85815" lon="2.34937">
        <ele>90.2</ele>
        <time>2015-05-25T20:35:22.046Z</time>
      </trkpt>
      <trkpt lat="48.85817" lon="2.34929">
        <ele>90.9</ele>
        <time>2015-05-25T20:35:23.060Z</time>
      </trkpt>
      <trkpt lat="48.85819" lon="2.34919">
        <ele>91.2</ele>
        <time>2015-05-25T20:35:24.064Z</time>
      </trkpt>
      <trkpt lat="48.85822" lon="2.34912">
        <ele>91.6</ele>
        <time>2015-05-25T20:35:25.006Z</time>
      </trkpt>
      <trkpt lat="48.85824" lon="2.34904">
        <ele>91.7</ele>
        <time>2015-05-25T20:35:25.985Z</time>
      </trkpt>
      <trkpt lat="48.85827" lon="2.34896">
        <ele>91.6</ele>
        <time>2015-05-25T20:35:27.037Z</time>
      </trkpt>
      <trkpt lat="48.8583" lon="2.34888">
        <ele>91.8</ele>
        <time>2015-05-25T20:35:28.031Z</time>
      </trkpt>
      <trkpt lat="48.85832" lon="2.34881">
        <ele>92</ele>
        <time>2015-05-25T20:35:29.041Z</time>
      </trkpt>
      <trkpt lat="48.85835" lon="2.34873">
        <ele>92.2</ele>
        <time>2015-05-25T20:35:30.050Z</time>
      </trkpt>
      <trkpt lat="48.85837" lon="2.34867">
        <ele>92.1</ele>
        <time>2015-05-25T20:35:31.054Z</time>
      </trkpt>
      <trkpt lat="48.8584" lon="2.34859">
        <ele>92.3</ele>
        <time>2015-05-25T20:35:32.092Z</time>
      </trkpt>
      <trkpt lat="48.85842" lon="2.34852">
        <ele>92.2</ele>
        <time>2015-05-25T20:35:33.116Z</time>
      </trkpt>
      <trkpt lat="48.85844" lon="2.34846">
        <ele>92.4</ele>
        <time>2015-05-25T20:35:33.988Z</time>
      </trkpt>
      <trkpt lat="48.85846" lon="2.34834">
        <ele>93.1</ele>
        <time>2015-05-25T20:35:37.018Z</time>
      </trkpt>
      <trkpt lat="48.85846" lon="2.34832">
        <ele>93.5</ele>
        <time>2015-05-25T20:35:38.055Z</time>
      </trkpt>
      <trkpt lat="48.85849" lon="2.3482">
        <ele>95.6</ele>
        <time>2015-05-25T20:35:44.043Z</time>
      </trkpt>
      <trkpt lat="48.85851" lon="2.34817">
        <ele>96</ele>
        <time>2015-05-25T20:35:45.056Z</time>
      </trkpt>
      <trkpt lat="48.85856" lon="2.34811">
        <ele>96.8</ele>
        <time>2015-05-25T20:35:48.032Z</time>
      </trkpt>
      <trkpt lat="48.85858" lon="2.34806">
        <ele>97.3</ele>
        <time>2015-05-25T20:35:49.040Z</time>
      </trkpt>
      <trkpt lat="48.85859" lon="2.348">
        <ele>97.6</ele>
        <time>2015-05-25T20:35:50.064Z</time>
      </trkpt>
      <trkpt lat="48.85861" lon="2.34792">
        <ele>97.7</ele>
        <time>2015-05-25T20:35:51.081Z</time>
      </trkpt>
      <trkpt lat="48.85862" lon="2.34785">
        <ele>97.9</ele>
        <time>2015-05-25T20:35:51.997Z</time>
      </trkpt>
      <trkpt lat="48.85864" lon="2.34777">
        <ele>98.1</ele>
        <time>2015-05-25T20:35:53.001Z</time>
      </trkpt>
      <trkpt lat="48.85867" lon="2.34766">
        <ele>98</ele>
        <time>2015-05-25T20:35:55.041Z</time>
      </trkpt>
      <trkpt lat="48.85869" lon="2.34761">
        <ele>98</ele>
        <time>2015-05-25T20:35:56.055Z</time>
      </trkpt>
      <trkpt lat="48.85874" lon="2.34751">
        <ele>98.6</ele>
        <time>2015-05-25T20:35:58.035Z</time>
      </trkpt>
      <trkpt lat="48.85876" lon="2.34747">
        <ele>98.8</ele>
        <time>2015-05-25T20:35:59.055Z</time>
      </trkpt>
      <trkpt lat="48.85882" lon="2.34738">
        <ele>99.2</ele>
        <time>2015-05-25T20:36:01.982Z</time>
      </trkpt>
      <trkpt lat="48.85884" lon="2.34738">
        <ele>99.3</ele>
        <time>2015-05-25T20:36:03.014Z</time>
      </trkpt>
      <trkpt lat="48.85893" lon="2.34738">
        <ele>99.9</ele>
        <time>2015-05-25T20:36:05.975Z</time>
      </trkpt>
      <trkpt lat="48.85896" lon="2.34739">
        <ele>100.2</ele>
        <time>2015-05-25T20:36:06.988Z</time>
      </trkpt>
      <trkpt lat="48.85903" lon="2.34736">
        <ele>100.6</ele>
        <time>2015-05-25T20:36:09.101Z</time>
      </trkpt>
      <trkpt lat="48.85906" lon="2.34733">
        <ele>100.8</ele>
        <time>2015-05-25T20:36:09.993Z</time>
      </trkpt>
      <trkpt lat="48.85912" lon="2.34728">
        <ele>101</ele>
        <time>2015-05-25T20:36:12.004Z</time>
      </trkpt>
      <trkpt lat="48.85915" lon="2.34725">
        <ele>101.1</ele>
        <time>2015-05-25T20:36:13.023Z</time>
      </trkpt>
      <trkpt lat="48.85918" lon="2.34723">
        <ele>101.1</ele>
        <time>2015-05-25T20:36:13.997Z</time>
      </trkpt>
      <trkpt lat="48.85925" lon="2.34721">
        <ele>99.1</ele>
        <time>2015-05-25T20:36:15.037Z</time>
      </trkpt>
      <trkpt lat="48.85933" lon="2.34719">
        <ele>97.7</ele>
        <time>2015-05-25T20:36:16.048Z</time>
      </trkpt>
      <trkpt lat="48.8594" lon="2.34718">
        <ele>96.7</ele>
        <time>2015-05-25T20:36:17.056Z</time>
      </trkpt>
      <trkpt lat="48.85949" lon="2.34719">
        <ele>97</ele>
        <time>2015-05-25T20:36:19.075Z</time>
      </trkpt>
      <trkpt lat="48.8595" lon="2.34719">
        <ele>97.1</ele>
        <time>2015-05-25T20:36:20.087Z</time>
      </trkpt>
      <trkpt lat="48.85958" lon="2.34725">
        <ele>99.2</ele>
        <time>2015-05-25T20:38:26.726Z</time>
      </trkpt>
    </trkseg>
  </trk>
</gpx>